<?xml version="1.0" encoding="UTF-8" standalone="no" ?>
<gpx xmlns="http://www.topografix.com/GPX/1/1" xmlns:xsi="http://www.w3.org/2001/XMLSchema-instance" xsi:schemaLocation="http://www.topografix.com/GPX/1/1 http://www.topografix.com/GPX/1/1/gpx.xsd" version="1.1" creator="VisuGPX - https://www.visugpx.com">
  <metadata>
    <name>rereprise velo mars 2019</name>
    <desc><![CDATA[Belle ballade en vélo pour une reprise un peu de vent]]></desc>
  </metadata>
  <wpt lat="49.2451" lon="4.01195">
    <ele>96</ele>
    <name><![CDATA[Velo romu]]></name>
  </wpt>
  <trk>
    <name><![CDATA[Tracé 20190330-131653]]></name>
    <trkseg>
      <trkpt lat="49.2451" lon="4.01195">
        <ele>96</ele>
        <time>2019-03-30T12:16:53Z</time>
      </trkpt>
      <trkpt lat="49.24512" lon="4.01187">
        <ele>96</ele>
        <time>2019-03-30T12:16:54Z</time>
      </trkpt>
      <trkpt lat="49.24514" lon="4.01183">
        <ele>97</ele>
        <time>2019-03-30T12:16:55Z</time>
      </trkpt>
      <trkpt lat="49.24513" lon="4.01183">
        <ele>99</ele>
        <time>2019-03-30T12:16:56Z</time>
      </trkpt>
      <trkpt lat="49.24513" lon="4.01183">
        <ele>99</ele>
        <time>2019-03-30T12:16:57Z</time>
      </trkpt>
      <trkpt lat="49.24512" lon="4.01182">
        <ele>100</ele>
        <time>2019-03-30T12:16:58Z</time>
      </trkpt>
      <trkpt lat="49.24511" lon="4.01183">
        <ele>99</ele>
        <time>2019-03-30T12:16:59Z</time>
      </trkpt>
      <trkpt lat="49.24509" lon="4.01186">
        <ele>101</ele>
        <time>2019-03-30T12:17:00Z</time>
      </trkpt>
      <trkpt lat="49.24509" lon="4.01186">
        <ele>100</ele>
        <time>2019-03-30T12:17:01Z</time>
      </trkpt>
      <trkpt lat="49.24509" lon="4.01188">
        <ele>101</ele>
        <time>2019-03-30T12:17:02Z</time>
      </trkpt>
      <trkpt lat="49.24508" lon="4.0119">
        <ele>101</ele>
        <time>2019-03-30T12:17:03Z</time>
      </trkpt>
      <trkpt lat="49.24508" lon="4.0119">
        <ele>101</ele>
        <time>2019-03-30T12:17:04Z</time>
      </trkpt>
      <trkpt lat="49.24508" lon="4.0119">
        <ele>101</ele>
        <time>2019-03-30T12:17:05Z</time>
      </trkpt>
      <trkpt lat="49.24506" lon="4.01193">
        <ele>103</ele>
        <time>2019-03-30T12:17:06Z</time>
      </trkpt>
      <trkpt lat="49.24504" lon="4.01198">
        <ele>106</ele>
        <time>2019-03-30T12:17:07Z</time>
      </trkpt>
      <trkpt lat="49.24502" lon="4.01202">
        <ele>110</ele>
        <time>2019-03-30T12:17:08Z</time>
      </trkpt>
      <trkpt lat="49.245" lon="4.01206">
        <ele>113</ele>
        <time>2019-03-30T12:17:09Z</time>
      </trkpt>
      <trkpt lat="49.24499" lon="4.01209">
        <ele>118</ele>
        <time>2019-03-30T12:17:10Z</time>
      </trkpt>
      <trkpt lat="49.24497" lon="4.01215">
        <ele>125</ele>
        <time>2019-03-30T12:17:11Z</time>
      </trkpt>
      <trkpt lat="49.24495" lon="4.01219">
        <ele>127</ele>
        <time>2019-03-30T12:17:12Z</time>
      </trkpt>
      <trkpt lat="49.24494" lon="4.01223">
        <ele>130</ele>
        <time>2019-03-30T12:17:13Z</time>
      </trkpt>
      <trkpt lat="49.24492" lon="4.01226">
        <ele>132</ele>
        <time>2019-03-30T12:17:14Z</time>
      </trkpt>
      <trkpt lat="49.24488" lon="4.01233">
        <ele>141</ele>
        <time>2019-03-30T12:17:15Z</time>
      </trkpt>
      <trkpt lat="49.24484" lon="4.01238">
        <ele>148</ele>
        <time>2019-03-30T12:17:16Z</time>
      </trkpt>
      <trkpt lat="49.24482" lon="4.0124">
        <ele>151</ele>
        <time>2019-03-30T12:17:17Z</time>
      </trkpt>
      <trkpt lat="49.24482" lon="4.01238">
        <ele>148</ele>
        <time>2019-03-30T12:17:18Z</time>
      </trkpt>
      <trkpt lat="49.24483" lon="4.01236">
        <ele>144</ele>
        <time>2019-03-30T12:17:19Z</time>
      </trkpt>
      <trkpt lat="49.24487" lon="4.01226">
        <ele>140</ele>
        <time>2019-03-30T12:17:20Z</time>
      </trkpt>
      <trkpt lat="49.24491" lon="4.01217">
        <ele>137</ele>
        <time>2019-03-30T12:17:21Z</time>
      </trkpt>
      <trkpt lat="49.24489" lon="4.01219">
        <ele>136</ele>
        <time>2019-03-30T12:17:22Z</time>
      </trkpt>
      <trkpt lat="49.24491" lon="4.01214">
        <ele>133</ele>
        <time>2019-03-30T12:17:23Z</time>
      </trkpt>
      <trkpt lat="49.2449" lon="4.01215">
        <ele>134</ele>
        <time>2019-03-30T12:17:24Z</time>
      </trkpt>
      <trkpt lat="49.2449" lon="4.01215">
        <ele>135</ele>
        <time>2019-03-30T12:17:25Z</time>
      </trkpt>
      <trkpt lat="49.24493" lon="4.01207">
        <ele>132</ele>
        <time>2019-03-30T12:17:26Z</time>
      </trkpt>
      <trkpt lat="49.24495" lon="4.01202">
        <ele>130</ele>
        <time>2019-03-30T12:17:27Z</time>
      </trkpt>
      <trkpt lat="49.24495" lon="4.01203">
        <ele>130</ele>
        <time>2019-03-30T12:17:28Z</time>
      </trkpt>
      <trkpt lat="49.24495" lon="4.01205">
        <ele>128</ele>
        <time>2019-03-30T12:17:29Z</time>
      </trkpt>
      <trkpt lat="49.24502" lon="4.01227">
        <ele>141</ele>
        <time>2019-03-30T12:18:04Z</time>
      </trkpt>
      <trkpt lat="49.24503" lon="4.01235">
        <ele>145</ele>
        <time>2019-03-30T12:18:08Z</time>
      </trkpt>
      <trkpt lat="49.245" lon="4.01238">
        <ele>149</ele>
        <time>2019-03-30T12:18:09Z</time>
      </trkpt>
      <trkpt lat="49.245" lon="4.01236">
        <ele>148</ele>
        <time>2019-03-30T12:18:10Z</time>
      </trkpt>
      <trkpt lat="49.245" lon="4.01239">
        <ele>149</ele>
        <time>2019-03-30T12:18:11Z</time>
      </trkpt>
      <trkpt lat="49.24501" lon="4.01244">
        <ele>148</ele>
        <time>2019-03-30T12:18:14Z</time>
      </trkpt>
      <trkpt lat="49.24501" lon="4.01246">
        <ele>147</ele>
        <time>2019-03-30T12:18:15Z</time>
      </trkpt>
      <trkpt lat="49.24501" lon="4.01247">
        <ele>149</ele>
        <time>2019-03-30T12:18:16Z</time>
      </trkpt>
      <trkpt lat="49.24502" lon="4.01247">
        <ele>148</ele>
        <time>2019-03-30T12:18:17Z</time>
      </trkpt>
      <trkpt lat="49.24503" lon="4.0125">
        <ele>151</ele>
        <time>2019-03-30T12:18:18Z</time>
      </trkpt>
      <trkpt lat="49.24503" lon="4.01252">
        <ele>152</ele>
        <time>2019-03-30T12:18:19Z</time>
      </trkpt>
      <trkpt lat="49.24503" lon="4.01254">
        <ele>155</ele>
        <time>2019-03-30T12:18:20Z</time>
      </trkpt>
      <trkpt lat="49.24502" lon="4.01255">
        <ele>154</ele>
        <time>2019-03-30T12:18:21Z</time>
      </trkpt>
      <trkpt lat="49.24502" lon="4.01257">
        <ele>155</ele>
        <time>2019-03-30T12:18:22Z</time>
      </trkpt>
      <trkpt lat="49.24502" lon="4.01259">
        <ele>155</ele>
        <time>2019-03-30T12:18:23Z</time>
      </trkpt>
      <trkpt lat="49.24502" lon="4.01263">
        <ele>157</ele>
        <time>2019-03-30T12:18:24Z</time>
      </trkpt>
      <trkpt lat="49.24503" lon="4.01266">
        <ele>157</ele>
        <time>2019-03-30T12:18:25Z</time>
      </trkpt>
      <trkpt lat="49.24503" lon="4.01267">
        <ele>158</ele>
        <time>2019-03-30T12:18:26Z</time>
      </trkpt>
      <trkpt lat="49.24503" lon="4.01268">
        <ele>158</ele>
        <time>2019-03-30T12:18:27Z</time>
      </trkpt>
      <trkpt lat="49.24502" lon="4.01268">
        <ele>157</ele>
        <time>2019-03-30T12:18:28Z</time>
      </trkpt>
      <trkpt lat="49.24502" lon="4.01271">
        <ele>157</ele>
        <time>2019-03-30T12:18:29Z</time>
      </trkpt>
      <trkpt lat="49.24502" lon="4.01271">
        <ele>157</ele>
        <time>2019-03-30T12:18:30Z</time>
      </trkpt>
      <trkpt lat="49.24502" lon="4.01273">
        <ele>158</ele>
        <time>2019-03-30T12:18:31Z</time>
      </trkpt>
      <trkpt lat="49.24502" lon="4.01275">
        <ele>158</ele>
        <time>2019-03-30T12:18:32Z</time>
      </trkpt>
      <trkpt lat="49.24502" lon="4.01276">
        <ele>158</ele>
        <time>2019-03-30T12:18:33Z</time>
      </trkpt>
      <trkpt lat="49.24502" lon="4.01276">
        <ele>158</ele>
        <time>2019-03-30T12:18:34Z</time>
      </trkpt>
      <trkpt lat="49.24503" lon="4.01277">
        <ele>158</ele>
        <time>2019-03-30T12:18:35Z</time>
      </trkpt>
      <trkpt lat="49.24503" lon="4.01277">
        <ele>158</ele>
        <time>2019-03-30T12:18:36Z</time>
      </trkpt>
      <trkpt lat="49.24503" lon="4.0128">
        <ele>157</ele>
        <time>2019-03-30T12:18:37Z</time>
      </trkpt>
      <trkpt lat="49.24503" lon="4.01284">
        <ele>157</ele>
        <time>2019-03-30T12:18:38Z</time>
      </trkpt>
      <trkpt lat="49.24503" lon="4.01286">
        <ele>157</ele>
        <time>2019-03-30T12:18:39Z</time>
      </trkpt>
      <trkpt lat="49.24503" lon="4.01288">
        <ele>157</ele>
        <time>2019-03-30T12:18:40Z</time>
      </trkpt>
      <trkpt lat="49.24503" lon="4.01291">
        <ele>157</ele>
        <time>2019-03-30T12:18:41Z</time>
      </trkpt>
      <trkpt lat="49.24503" lon="4.01294">
        <ele>157</ele>
        <time>2019-03-30T12:18:42Z</time>
      </trkpt>
      <trkpt lat="49.24503" lon="4.01298">
        <ele>157</ele>
        <time>2019-03-30T12:18:43Z</time>
      </trkpt>
      <trkpt lat="49.24503" lon="4.01299">
        <ele>157</ele>
        <time>2019-03-30T12:18:44Z</time>
      </trkpt>
      <trkpt lat="49.24504" lon="4.01298">
        <ele>158</ele>
        <time>2019-03-30T12:18:45Z</time>
      </trkpt>
      <trkpt lat="49.24504" lon="4.01293">
        <ele>158</ele>
        <time>2019-03-30T12:18:46Z</time>
      </trkpt>
      <trkpt lat="49.24505" lon="4.01289">
        <ele>158</ele>
        <time>2019-03-30T12:18:47Z</time>
      </trkpt>
      <trkpt lat="49.24504" lon="4.0129">
        <ele>159</ele>
        <time>2019-03-30T12:18:48Z</time>
      </trkpt>
      <trkpt lat="49.24504" lon="4.0129">
        <ele>159</ele>
        <time>2019-03-30T12:18:49Z</time>
      </trkpt>
      <trkpt lat="49.24506" lon="4.01295">
        <ele>160</ele>
        <time>2019-03-30T12:18:52Z</time>
      </trkpt>
      <trkpt lat="49.24491" lon="4.01237">
        <ele>170</ele>
        <time>2019-03-30T12:19:55Z</time>
      </trkpt>
      <trkpt lat="49.24492" lon="4.01241">
        <ele>171</ele>
        <time>2019-03-30T12:19:56Z</time>
      </trkpt>
      <trkpt lat="49.24493" lon="4.01249">
        <ele>174</ele>
        <time>2019-03-30T12:19:57Z</time>
      </trkpt>
      <trkpt lat="49.24492" lon="4.01254">
        <ele>177</ele>
        <time>2019-03-30T12:19:58Z</time>
      </trkpt>
      <trkpt lat="49.24492" lon="4.01258">
        <ele>179</ele>
        <time>2019-03-30T12:19:59Z</time>
      </trkpt>
      <trkpt lat="49.24492" lon="4.01265">
        <ele>182</ele>
        <time>2019-03-30T12:20:00Z</time>
      </trkpt>
      <trkpt lat="49.2449" lon="4.01271">
        <ele>184</ele>
        <time>2019-03-30T12:20:01Z</time>
      </trkpt>
      <trkpt lat="49.24488" lon="4.01275">
        <ele>184</ele>
        <time>2019-03-30T12:20:02Z</time>
      </trkpt>
      <trkpt lat="49.24488" lon="4.01282">
        <ele>188</ele>
        <time>2019-03-30T12:20:03Z</time>
      </trkpt>
      <trkpt lat="49.24474" lon="4.01306">
        <ele>197</ele>
        <time>2019-03-30T12:20:06Z</time>
      </trkpt>
      <trkpt lat="49.24475" lon="4.01311">
        <ele>196</ele>
        <time>2019-03-30T12:20:07Z</time>
      </trkpt>
      <trkpt lat="49.24483" lon="4.01412">
        <ele>241</ele>
        <time>2019-03-30T12:20:22Z</time>
      </trkpt>
      <trkpt lat="49.24481" lon="4.01407">
        <ele>241</ele>
        <time>2019-03-30T12:20:23Z</time>
      </trkpt>
      <trkpt lat="49.24479" lon="4.01417">
        <ele>233</ele>
        <time>2019-03-30T12:20:26Z</time>
      </trkpt>
      <trkpt lat="49.24479" lon="4.01413">
        <ele>227</ele>
        <time>2019-03-30T12:20:27Z</time>
      </trkpt>
      <trkpt lat="49.24482" lon="4.01407">
        <ele>219</ele>
        <time>2019-03-30T12:20:28Z</time>
      </trkpt>
      <trkpt lat="49.24486" lon="4.01402">
        <ele>214</ele>
        <time>2019-03-30T12:20:29Z</time>
      </trkpt>
      <trkpt lat="49.24487" lon="4.01407">
        <ele>211</ele>
        <time>2019-03-30T12:20:30Z</time>
      </trkpt>
      <trkpt lat="49.24489" lon="4.01407">
        <ele>209</ele>
        <time>2019-03-30T12:20:31Z</time>
      </trkpt>
      <trkpt lat="49.24491" lon="4.01406">
        <ele>206</ele>
        <time>2019-03-30T12:20:32Z</time>
      </trkpt>
      <trkpt lat="49.24491" lon="4.01405">
        <ele>204</ele>
        <time>2019-03-30T12:20:33Z</time>
      </trkpt>
      <trkpt lat="49.24492" lon="4.0139">
        <ele>202</ele>
        <time>2019-03-30T12:20:34Z</time>
      </trkpt>
      <trkpt lat="49.24494" lon="4.01381">
        <ele>199</ele>
        <time>2019-03-30T12:20:35Z</time>
      </trkpt>
      <trkpt lat="49.24492" lon="4.01194">
        <ele>95</ele>
        <time>2019-03-30T12:21:23Z</time>
      </trkpt>
      <trkpt lat="49.24495" lon="4.01201">
        <ele>106</ele>
        <time>2019-03-30T12:21:27Z</time>
      </trkpt>
      <trkpt lat="49.24496" lon="4.01201">
        <ele>107</ele>
        <time>2019-03-30T12:21:28Z</time>
      </trkpt>
      <trkpt lat="49.245" lon="4.01205">
        <ele>113</ele>
        <time>2019-03-30T12:21:29Z</time>
      </trkpt>
      <trkpt lat="49.24501" lon="4.01207">
        <ele>117</ele>
        <time>2019-03-30T12:21:30Z</time>
      </trkpt>
      <trkpt lat="49.245" lon="4.01208">
        <ele>118</ele>
        <time>2019-03-30T12:21:31Z</time>
      </trkpt>
      <trkpt lat="49.24501" lon="4.01211">
        <ele>123</ele>
        <time>2019-03-30T12:21:32Z</time>
      </trkpt>
      <trkpt lat="49.245" lon="4.01213">
        <ele>125</ele>
        <time>2019-03-30T12:21:33Z</time>
      </trkpt>
      <trkpt lat="49.24501" lon="4.01213">
        <ele>127</ele>
        <time>2019-03-30T12:21:34Z</time>
      </trkpt>
      <trkpt lat="49.24501" lon="4.01213">
        <ele>127</ele>
        <time>2019-03-30T12:21:35Z</time>
      </trkpt>
      <trkpt lat="49.24501" lon="4.01213">
        <ele>127</ele>
        <time>2019-03-30T12:21:36Z</time>
      </trkpt>
      <trkpt lat="49.24501" lon="4.01213">
        <ele>126</ele>
        <time>2019-03-30T12:21:37Z</time>
      </trkpt>
      <trkpt lat="49.24501" lon="4.01213">
        <ele>126</ele>
        <time>2019-03-30T12:21:38Z</time>
      </trkpt>
      <trkpt lat="49.24501" lon="4.01212">
        <ele>129</ele>
        <time>2019-03-30T12:21:39Z</time>
      </trkpt>
      <trkpt lat="49.24501" lon="4.01214">
        <ele>130</ele>
        <time>2019-03-30T12:21:40Z</time>
      </trkpt>
      <trkpt lat="49.24502" lon="4.01217">
        <ele>131</ele>
        <time>2019-03-30T12:21:41Z</time>
      </trkpt>
      <trkpt lat="49.24504" lon="4.01217">
        <ele>131</ele>
        <time>2019-03-30T12:21:42Z</time>
      </trkpt>
      <trkpt lat="49.24507" lon="4.01217">
        <ele>131</ele>
        <time>2019-03-30T12:21:43Z</time>
      </trkpt>
      <trkpt lat="49.24509" lon="4.01218">
        <ele>131</ele>
        <time>2019-03-30T12:21:44Z</time>
      </trkpt>
      <trkpt lat="49.2451" lon="4.01219">
        <ele>131</ele>
        <time>2019-03-30T12:21:45Z</time>
      </trkpt>
      <trkpt lat="49.24512" lon="4.01219">
        <ele>132</ele>
        <time>2019-03-30T12:21:46Z</time>
      </trkpt>
      <trkpt lat="49.24513" lon="4.01221">
        <ele>132</ele>
        <time>2019-03-30T12:21:47Z</time>
      </trkpt>
      <trkpt lat="49.24514" lon="4.01222">
        <ele>132</ele>
        <time>2019-03-30T12:21:48Z</time>
      </trkpt>
      <trkpt lat="49.24515" lon="4.01223">
        <ele>132</ele>
        <time>2019-03-30T12:21:49Z</time>
      </trkpt>
      <trkpt lat="49.24516" lon="4.01226">
        <ele>132</ele>
        <time>2019-03-30T12:21:50Z</time>
      </trkpt>
      <trkpt lat="49.24517" lon="4.01228">
        <ele>132</ele>
        <time>2019-03-30T12:21:51Z</time>
      </trkpt>
      <trkpt lat="49.24519" lon="4.01231">
        <ele>132</ele>
        <time>2019-03-30T12:21:52Z</time>
      </trkpt>
      <trkpt lat="49.24521" lon="4.01233">
        <ele>132</ele>
        <time>2019-03-30T12:21:53Z</time>
      </trkpt>
      <trkpt lat="49.24524" lon="4.01234">
        <ele>132</ele>
        <time>2019-03-30T12:21:54Z</time>
      </trkpt>
      <trkpt lat="49.24526" lon="4.01235">
        <ele>131</ele>
        <time>2019-03-30T12:21:55Z</time>
      </trkpt>
      <trkpt lat="49.24528" lon="4.01236">
        <ele>132</ele>
        <time>2019-03-30T12:21:56Z</time>
      </trkpt>
      <trkpt lat="49.2453" lon="4.01236">
        <ele>132</ele>
        <time>2019-03-30T12:21:57Z</time>
      </trkpt>
      <trkpt lat="49.24532" lon="4.01236">
        <ele>132</ele>
        <time>2019-03-30T12:21:58Z</time>
      </trkpt>
      <trkpt lat="49.24534" lon="4.01236">
        <ele>132</ele>
        <time>2019-03-30T12:21:59Z</time>
      </trkpt>
      <trkpt lat="49.24536" lon="4.01237">
        <ele>131</ele>
        <time>2019-03-30T12:22:00Z</time>
      </trkpt>
      <trkpt lat="49.24537" lon="4.01237">
        <ele>132</ele>
        <time>2019-03-30T12:22:01Z</time>
      </trkpt>
      <trkpt lat="49.24539" lon="4.01236">
        <ele>131</ele>
        <time>2019-03-30T12:22:02Z</time>
      </trkpt>
      <trkpt lat="49.24541" lon="4.01236">
        <ele>131</ele>
        <time>2019-03-30T12:22:03Z</time>
      </trkpt>
      <trkpt lat="49.24542" lon="4.01237">
        <ele>131</ele>
        <time>2019-03-30T12:22:04Z</time>
      </trkpt>
      <trkpt lat="49.24544" lon="4.01236">
        <ele>130</ele>
        <time>2019-03-30T12:22:05Z</time>
      </trkpt>
      <trkpt lat="49.24545" lon="4.01236">
        <ele>130</ele>
        <time>2019-03-30T12:22:06Z</time>
      </trkpt>
      <trkpt lat="49.24547" lon="4.01236">
        <ele>130</ele>
        <time>2019-03-30T12:22:07Z</time>
      </trkpt>
      <trkpt lat="49.2455" lon="4.01237">
        <ele>131</ele>
        <time>2019-03-30T12:22:08Z</time>
      </trkpt>
      <trkpt lat="49.24552" lon="4.01237">
        <ele>131</ele>
        <time>2019-03-30T12:22:09Z</time>
      </trkpt>
      <trkpt lat="49.24554" lon="4.01236">
        <ele>130</ele>
        <time>2019-03-30T12:22:10Z</time>
      </trkpt>
      <trkpt lat="49.24556" lon="4.01235">
        <ele>130</ele>
        <time>2019-03-30T12:22:11Z</time>
      </trkpt>
      <trkpt lat="49.24559" lon="4.01235">
        <ele>130</ele>
        <time>2019-03-30T12:22:12Z</time>
      </trkpt>
      <trkpt lat="49.24561" lon="4.01236">
        <ele>130</ele>
        <time>2019-03-30T12:22:13Z</time>
      </trkpt>
      <trkpt lat="49.24564" lon="4.01236">
        <ele>129</ele>
        <time>2019-03-30T12:22:14Z</time>
      </trkpt>
      <trkpt lat="49.24566" lon="4.01235">
        <ele>129</ele>
        <time>2019-03-30T12:22:15Z</time>
      </trkpt>
      <trkpt lat="49.24568" lon="4.01235">
        <ele>129</ele>
        <time>2019-03-30T12:22:16Z</time>
      </trkpt>
      <trkpt lat="49.24571" lon="4.01235">
        <ele>129</ele>
        <time>2019-03-30T12:22:17Z</time>
      </trkpt>
      <trkpt lat="49.24573" lon="4.01235">
        <ele>130</ele>
        <time>2019-03-30T12:22:18Z</time>
      </trkpt>
      <trkpt lat="49.24575" lon="4.01235">
        <ele>130</ele>
        <time>2019-03-30T12:22:19Z</time>
      </trkpt>
      <trkpt lat="49.24578" lon="4.01235">
        <ele>130</ele>
        <time>2019-03-30T12:22:20Z</time>
      </trkpt>
      <trkpt lat="49.24581" lon="4.01235">
        <ele>130</ele>
        <time>2019-03-30T12:22:21Z</time>
      </trkpt>
      <trkpt lat="49.24583" lon="4.01235">
        <ele>130</ele>
        <time>2019-03-30T12:22:22Z</time>
      </trkpt>
      <trkpt lat="49.24586" lon="4.01236">
        <ele>131</ele>
        <time>2019-03-30T12:22:23Z</time>
      </trkpt>
      <trkpt lat="49.24588" lon="4.01236">
        <ele>131</ele>
        <time>2019-03-30T12:22:24Z</time>
      </trkpt>
      <trkpt lat="49.2459" lon="4.01236">
        <ele>131</ele>
        <time>2019-03-30T12:22:25Z</time>
      </trkpt>
      <trkpt lat="49.24592" lon="4.01236">
        <ele>131</ele>
        <time>2019-03-30T12:22:26Z</time>
      </trkpt>
      <trkpt lat="49.24594" lon="4.01236">
        <ele>131</ele>
        <time>2019-03-30T12:22:27Z</time>
      </trkpt>
      <trkpt lat="49.24596" lon="4.01237">
        <ele>131</ele>
        <time>2019-03-30T12:22:28Z</time>
      </trkpt>
      <trkpt lat="49.24597" lon="4.01238">
        <ele>131</ele>
        <time>2019-03-30T12:22:29Z</time>
      </trkpt>
      <trkpt lat="49.24599" lon="4.01238">
        <ele>131</ele>
        <time>2019-03-30T12:22:30Z</time>
      </trkpt>
      <trkpt lat="49.24602" lon="4.01238">
        <ele>129</ele>
        <time>2019-03-30T12:22:31Z</time>
      </trkpt>
      <trkpt lat="49.24602" lon="4.01237">
        <ele>129</ele>
        <time>2019-03-30T12:22:32Z</time>
      </trkpt>
      <trkpt lat="49.24603" lon="4.01237">
        <ele>129</ele>
        <time>2019-03-30T12:22:33Z</time>
      </trkpt>
      <trkpt lat="49.24605" lon="4.01238">
        <ele>129</ele>
        <time>2019-03-30T12:22:34Z</time>
      </trkpt>
      <trkpt lat="49.24606" lon="4.01239">
        <ele>130</ele>
        <time>2019-03-30T12:22:35Z</time>
      </trkpt>
      <trkpt lat="49.24607" lon="4.01241">
        <ele>130</ele>
        <time>2019-03-30T12:22:36Z</time>
      </trkpt>
      <trkpt lat="49.24609" lon="4.01243">
        <ele>130</ele>
        <time>2019-03-30T12:22:37Z</time>
      </trkpt>
      <trkpt lat="49.24611" lon="4.01245">
        <ele>129</ele>
        <time>2019-03-30T12:22:38Z</time>
      </trkpt>
      <trkpt lat="49.24615" lon="4.01245">
        <ele>129</ele>
        <time>2019-03-30T12:22:39Z</time>
      </trkpt>
      <trkpt lat="49.24618" lon="4.01244">
        <ele>128</ele>
        <time>2019-03-30T12:22:40Z</time>
      </trkpt>
      <trkpt lat="49.24622" lon="4.01244">
        <ele>129</ele>
        <time>2019-03-30T12:22:41Z</time>
      </trkpt>
      <trkpt lat="49.24627" lon="4.01244">
        <ele>129</ele>
        <time>2019-03-30T12:22:42Z</time>
      </trkpt>
      <trkpt lat="49.24631" lon="4.01244">
        <ele>128</ele>
        <time>2019-03-30T12:22:43Z</time>
      </trkpt>
      <trkpt lat="49.24636" lon="4.01244">
        <ele>128</ele>
        <time>2019-03-30T12:22:44Z</time>
      </trkpt>
      <trkpt lat="49.2464" lon="4.01243">
        <ele>128</ele>
        <time>2019-03-30T12:22:45Z</time>
      </trkpt>
      <trkpt lat="49.24645" lon="4.01242">
        <ele>128</ele>
        <time>2019-03-30T12:22:46Z</time>
      </trkpt>
      <trkpt lat="49.24651" lon="4.01242">
        <ele>128</ele>
        <time>2019-03-30T12:22:47Z</time>
      </trkpt>
      <trkpt lat="49.24657" lon="4.01242">
        <ele>128</ele>
        <time>2019-03-30T12:22:48Z</time>
      </trkpt>
      <trkpt lat="49.24663" lon="4.01242">
        <ele>127</ele>
        <time>2019-03-30T12:22:49Z</time>
      </trkpt>
      <trkpt lat="49.2467" lon="4.01243">
        <ele>127</ele>
        <time>2019-03-30T12:22:50Z</time>
      </trkpt>
      <trkpt lat="49.24676" lon="4.01244">
        <ele>127</ele>
        <time>2019-03-30T12:22:51Z</time>
      </trkpt>
      <trkpt lat="49.24683" lon="4.01246">
        <ele>127</ele>
        <time>2019-03-30T12:22:52Z</time>
      </trkpt>
      <trkpt lat="49.2469" lon="4.01246">
        <ele>127</ele>
        <time>2019-03-30T12:22:53Z</time>
      </trkpt>
      <trkpt lat="49.24697" lon="4.01247">
        <ele>126</ele>
        <time>2019-03-30T12:22:54Z</time>
      </trkpt>
      <trkpt lat="49.24704" lon="4.01249">
        <ele>126</ele>
        <time>2019-03-30T12:22:55Z</time>
      </trkpt>
      <trkpt lat="49.24711" lon="4.01252">
        <ele>126</ele>
        <time>2019-03-30T12:22:56Z</time>
      </trkpt>
      <trkpt lat="49.24719" lon="4.01253">
        <ele>126</ele>
        <time>2019-03-30T12:22:57Z</time>
      </trkpt>
      <trkpt lat="49.24726" lon="4.01255">
        <ele>125</ele>
        <time>2019-03-30T12:22:58Z</time>
      </trkpt>
      <trkpt lat="49.24734" lon="4.01255">
        <ele>125</ele>
        <time>2019-03-30T12:22:59Z</time>
      </trkpt>
      <trkpt lat="49.24742" lon="4.01256">
        <ele>125</ele>
        <time>2019-03-30T12:23:00Z</time>
      </trkpt>
      <trkpt lat="49.2475" lon="4.01258">
        <ele>125</ele>
        <time>2019-03-30T12:23:01Z</time>
      </trkpt>
      <trkpt lat="49.24757" lon="4.01258">
        <ele>124</ele>
        <time>2019-03-30T12:23:02Z</time>
      </trkpt>
      <trkpt lat="49.24764" lon="4.0126">
        <ele>124</ele>
        <time>2019-03-30T12:23:03Z</time>
      </trkpt>
      <trkpt lat="49.24772" lon="4.01261">
        <ele>124</ele>
        <time>2019-03-30T12:23:04Z</time>
      </trkpt>
      <trkpt lat="49.24779" lon="4.01262">
        <ele>123</ele>
        <time>2019-03-30T12:23:05Z</time>
      </trkpt>
      <trkpt lat="49.24785" lon="4.01264">
        <ele>123</ele>
        <time>2019-03-30T12:23:06Z</time>
      </trkpt>
      <trkpt lat="49.2479" lon="4.01265">
        <ele>123</ele>
        <time>2019-03-30T12:23:07Z</time>
      </trkpt>
      <trkpt lat="49.24794" lon="4.01265">
        <ele>123</ele>
        <time>2019-03-30T12:23:08Z</time>
      </trkpt>
      <trkpt lat="49.24799" lon="4.01266">
        <ele>123</ele>
        <time>2019-03-30T12:23:09Z</time>
      </trkpt>
      <trkpt lat="49.24803" lon="4.01268">
        <ele>122</ele>
        <time>2019-03-30T12:23:10Z</time>
      </trkpt>
      <trkpt lat="49.24806" lon="4.01269">
        <ele>123</ele>
        <time>2019-03-30T12:23:11Z</time>
      </trkpt>
      <trkpt lat="49.24808" lon="4.0127">
        <ele>123</ele>
        <time>2019-03-30T12:23:12Z</time>
      </trkpt>
      <trkpt lat="49.2481" lon="4.0127">
        <ele>123</ele>
        <time>2019-03-30T12:23:13Z</time>
      </trkpt>
      <trkpt lat="49.24812" lon="4.0127">
        <ele>123</ele>
        <time>2019-03-30T12:23:14Z</time>
      </trkpt>
      <trkpt lat="49.24813" lon="4.01271">
        <ele>123</ele>
        <time>2019-03-30T12:23:15Z</time>
      </trkpt>
      <trkpt lat="49.24815" lon="4.01271">
        <ele>123</ele>
        <time>2019-03-30T12:23:16Z</time>
      </trkpt>
      <trkpt lat="49.24816" lon="4.01272">
        <ele>123</ele>
        <time>2019-03-30T12:23:17Z</time>
      </trkpt>
      <trkpt lat="49.24817" lon="4.01272">
        <ele>123</ele>
        <time>2019-03-30T12:23:18Z</time>
      </trkpt>
      <trkpt lat="49.24818" lon="4.01272">
        <ele>123</ele>
        <time>2019-03-30T12:23:19Z</time>
      </trkpt>
      <trkpt lat="49.24819" lon="4.01272">
        <ele>123</ele>
        <time>2019-03-30T12:23:20Z</time>
      </trkpt>
      <trkpt lat="49.24819" lon="4.01272">
        <ele>123</ele>
        <time>2019-03-30T12:23:21Z</time>
      </trkpt>
      <trkpt lat="49.24819" lon="4.01272">
        <ele>123</ele>
        <time>2019-03-30T12:23:22Z</time>
      </trkpt>
      <trkpt lat="49.2482" lon="4.01272">
        <ele>123</ele>
        <time>2019-03-30T12:23:23Z</time>
      </trkpt>
      <trkpt lat="49.24821" lon="4.01273">
        <ele>123</ele>
        <time>2019-03-30T12:23:24Z</time>
      </trkpt>
      <trkpt lat="49.24821" lon="4.01272">
        <ele>123</ele>
        <time>2019-03-30T12:23:25Z</time>
      </trkpt>
      <trkpt lat="49.24822" lon="4.01273">
        <ele>123</ele>
        <time>2019-03-30T12:23:26Z</time>
      </trkpt>
      <trkpt lat="49.24824" lon="4.01273">
        <ele>123</ele>
        <time>2019-03-30T12:23:27Z</time>
      </trkpt>
      <trkpt lat="49.24827" lon="4.01273">
        <ele>123</ele>
        <time>2019-03-30T12:23:28Z</time>
      </trkpt>
      <trkpt lat="49.2483" lon="4.01274">
        <ele>124</ele>
        <time>2019-03-30T12:23:29Z</time>
      </trkpt>
      <trkpt lat="49.24834" lon="4.01275">
        <ele>124</ele>
        <time>2019-03-30T12:23:30Z</time>
      </trkpt>
      <trkpt lat="49.24837" lon="4.01277">
        <ele>124</ele>
        <time>2019-03-30T12:23:31Z</time>
      </trkpt>
      <trkpt lat="49.24842" lon="4.01277">
        <ele>124</ele>
        <time>2019-03-30T12:23:32Z</time>
      </trkpt>
      <trkpt lat="49.24848" lon="4.01278">
        <ele>123</ele>
        <time>2019-03-30T12:23:33Z</time>
      </trkpt>
      <trkpt lat="49.24852" lon="4.01282">
        <ele>123</ele>
        <time>2019-03-30T12:23:34Z</time>
      </trkpt>
      <trkpt lat="49.24856" lon="4.01289">
        <ele>123</ele>
        <time>2019-03-30T12:23:35Z</time>
      </trkpt>
      <trkpt lat="49.2486" lon="4.01297">
        <ele>123</ele>
        <time>2019-03-30T12:23:36Z</time>
      </trkpt>
      <trkpt lat="49.24862" lon="4.01305">
        <ele>124</ele>
        <time>2019-03-30T12:23:37Z</time>
      </trkpt>
      <trkpt lat="49.24863" lon="4.01316">
        <ele>124</ele>
        <time>2019-03-30T12:23:38Z</time>
      </trkpt>
      <trkpt lat="49.24865" lon="4.01327">
        <ele>123</ele>
        <time>2019-03-30T12:23:39Z</time>
      </trkpt>
      <trkpt lat="49.24867" lon="4.01336">
        <ele>123</ele>
        <time>2019-03-30T12:23:40Z</time>
      </trkpt>
      <trkpt lat="49.24868" lon="4.01346">
        <ele>123</ele>
        <time>2019-03-30T12:23:41Z</time>
      </trkpt>
      <trkpt lat="49.2487" lon="4.01355">
        <ele>123</ele>
        <time>2019-03-30T12:23:42Z</time>
      </trkpt>
      <trkpt lat="49.24871" lon="4.01366">
        <ele>123</ele>
        <time>2019-03-30T12:23:43Z</time>
      </trkpt>
      <trkpt lat="49.24873" lon="4.01376">
        <ele>123</ele>
        <time>2019-03-30T12:23:44Z</time>
      </trkpt>
      <trkpt lat="49.24874" lon="4.01387">
        <ele>123</ele>
        <time>2019-03-30T12:23:45Z</time>
      </trkpt>
      <trkpt lat="49.24876" lon="4.01398">
        <ele>123</ele>
        <time>2019-03-30T12:23:46Z</time>
      </trkpt>
      <trkpt lat="49.24877" lon="4.01408">
        <ele>123</ele>
        <time>2019-03-30T12:23:47Z</time>
      </trkpt>
      <trkpt lat="49.24879" lon="4.01419">
        <ele>122</ele>
        <time>2019-03-30T12:23:48Z</time>
      </trkpt>
      <trkpt lat="49.2488" lon="4.01429">
        <ele>122</ele>
        <time>2019-03-30T12:23:49Z</time>
      </trkpt>
      <trkpt lat="49.24882" lon="4.0144">
        <ele>122</ele>
        <time>2019-03-30T12:23:50Z</time>
      </trkpt>
      <trkpt lat="49.24883" lon="4.0145">
        <ele>122</ele>
        <time>2019-03-30T12:23:51Z</time>
      </trkpt>
      <trkpt lat="49.24884" lon="4.0146">
        <ele>122</ele>
        <time>2019-03-30T12:23:52Z</time>
      </trkpt>
      <trkpt lat="49.24885" lon="4.01468">
        <ele>122</ele>
        <time>2019-03-30T12:23:53Z</time>
      </trkpt>
      <trkpt lat="49.24887" lon="4.01475">
        <ele>121</ele>
        <time>2019-03-30T12:23:54Z</time>
      </trkpt>
      <trkpt lat="49.24888" lon="4.01481">
        <ele>121</ele>
        <time>2019-03-30T12:23:55Z</time>
      </trkpt>
      <trkpt lat="49.24888" lon="4.01487">
        <ele>122</ele>
        <time>2019-03-30T12:23:56Z</time>
      </trkpt>
      <trkpt lat="49.24888" lon="4.0149">
        <ele>122</ele>
        <time>2019-03-30T12:23:57Z</time>
      </trkpt>
      <trkpt lat="49.24889" lon="4.01493">
        <ele>122</ele>
        <time>2019-03-30T12:23:58Z</time>
      </trkpt>
      <trkpt lat="49.2489" lon="4.01496">
        <ele>122</ele>
        <time>2019-03-30T12:23:59Z</time>
      </trkpt>
      <trkpt lat="49.24891" lon="4.015">
        <ele>123</ele>
        <time>2019-03-30T12:24:00Z</time>
      </trkpt>
      <trkpt lat="49.24892" lon="4.01504">
        <ele>123</ele>
        <time>2019-03-30T12:24:01Z</time>
      </trkpt>
      <trkpt lat="49.24892" lon="4.01509">
        <ele>123</ele>
        <time>2019-03-30T12:24:02Z</time>
      </trkpt>
      <trkpt lat="49.24893" lon="4.01515">
        <ele>123</ele>
        <time>2019-03-30T12:24:03Z</time>
      </trkpt>
      <trkpt lat="49.24896" lon="4.01523">
        <ele>123</ele>
        <time>2019-03-30T12:24:04Z</time>
      </trkpt>
      <trkpt lat="49.24895" lon="4.01529">
        <ele>123</ele>
        <time>2019-03-30T12:24:05Z</time>
      </trkpt>
      <trkpt lat="49.24897" lon="4.01536">
        <ele>123</ele>
        <time>2019-03-30T12:24:06Z</time>
      </trkpt>
      <trkpt lat="49.24898" lon="4.01543">
        <ele>122</ele>
        <time>2019-03-30T12:24:07Z</time>
      </trkpt>
      <trkpt lat="49.249" lon="4.01551">
        <ele>122</ele>
        <time>2019-03-30T12:24:08Z</time>
      </trkpt>
      <trkpt lat="49.249" lon="4.0156">
        <ele>122</ele>
        <time>2019-03-30T12:24:09Z</time>
      </trkpt>
      <trkpt lat="49.24901" lon="4.01569">
        <ele>122</ele>
        <time>2019-03-30T12:24:10Z</time>
      </trkpt>
      <trkpt lat="49.24903" lon="4.01578">
        <ele>122</ele>
        <time>2019-03-30T12:24:11Z</time>
      </trkpt>
      <trkpt lat="49.24904" lon="4.01587">
        <ele>122</ele>
        <time>2019-03-30T12:24:12Z</time>
      </trkpt>
      <trkpt lat="49.24906" lon="4.01596">
        <ele>122</ele>
        <time>2019-03-30T12:24:13Z</time>
      </trkpt>
      <trkpt lat="49.24907" lon="4.01605">
        <ele>122</ele>
        <time>2019-03-30T12:24:14Z</time>
      </trkpt>
      <trkpt lat="49.24908" lon="4.01614">
        <ele>122</ele>
        <time>2019-03-30T12:24:15Z</time>
      </trkpt>
      <trkpt lat="49.24909" lon="4.01623">
        <ele>122</ele>
        <time>2019-03-30T12:24:16Z</time>
      </trkpt>
      <trkpt lat="49.24911" lon="4.01633">
        <ele>122</ele>
        <time>2019-03-30T12:24:17Z</time>
      </trkpt>
      <trkpt lat="49.24912" lon="4.01643">
        <ele>122</ele>
        <time>2019-03-30T12:24:18Z</time>
      </trkpt>
      <trkpt lat="49.24913" lon="4.01653">
        <ele>122</ele>
        <time>2019-03-30T12:24:19Z</time>
      </trkpt>
      <trkpt lat="49.24915" lon="4.01663">
        <ele>121</ele>
        <time>2019-03-30T12:24:20Z</time>
      </trkpt>
      <trkpt lat="49.24916" lon="4.01673">
        <ele>121</ele>
        <time>2019-03-30T12:24:21Z</time>
      </trkpt>
      <trkpt lat="49.24918" lon="4.01683">
        <ele>121</ele>
        <time>2019-03-30T12:24:22Z</time>
      </trkpt>
      <trkpt lat="49.24919" lon="4.01693">
        <ele>121</ele>
        <time>2019-03-30T12:24:23Z</time>
      </trkpt>
      <trkpt lat="49.24921" lon="4.01703">
        <ele>121</ele>
        <time>2019-03-30T12:24:24Z</time>
      </trkpt>
      <trkpt lat="49.24923" lon="4.01713">
        <ele>121</ele>
        <time>2019-03-30T12:24:25Z</time>
      </trkpt>
      <trkpt lat="49.24925" lon="4.01723">
        <ele>121</ele>
        <time>2019-03-30T12:24:26Z</time>
      </trkpt>
      <trkpt lat="49.24928" lon="4.01731">
        <ele>120</ele>
        <time>2019-03-30T12:24:27Z</time>
      </trkpt>
      <trkpt lat="49.24931" lon="4.0174">
        <ele>121</ele>
        <time>2019-03-30T12:24:28Z</time>
      </trkpt>
      <trkpt lat="49.24934" lon="4.01749">
        <ele>121</ele>
        <time>2019-03-30T12:24:29Z</time>
      </trkpt>
      <trkpt lat="49.24937" lon="4.01758">
        <ele>120</ele>
        <time>2019-03-30T12:24:30Z</time>
      </trkpt>
      <trkpt lat="49.24941" lon="4.01767">
        <ele>120</ele>
        <time>2019-03-30T12:24:31Z</time>
      </trkpt>
      <trkpt lat="49.24944" lon="4.01776">
        <ele>120</ele>
        <time>2019-03-30T12:24:32Z</time>
      </trkpt>
      <trkpt lat="49.24946" lon="4.01785">
        <ele>120</ele>
        <time>2019-03-30T12:24:33Z</time>
      </trkpt>
      <trkpt lat="49.24949" lon="4.01795">
        <ele>120</ele>
        <time>2019-03-30T12:24:34Z</time>
      </trkpt>
      <trkpt lat="49.24952" lon="4.01804">
        <ele>120</ele>
        <time>2019-03-30T12:24:35Z</time>
      </trkpt>
      <trkpt lat="49.24955" lon="4.01814">
        <ele>120</ele>
        <time>2019-03-30T12:24:36Z</time>
      </trkpt>
      <trkpt lat="49.24958" lon="4.01822">
        <ele>120</ele>
        <time>2019-03-30T12:24:37Z</time>
      </trkpt>
      <trkpt lat="49.24962" lon="4.0183">
        <ele>120</ele>
        <time>2019-03-30T12:24:38Z</time>
      </trkpt>
      <trkpt lat="49.24964" lon="4.01839">
        <ele>121</ele>
        <time>2019-03-30T12:24:39Z</time>
      </trkpt>
      <trkpt lat="49.24967" lon="4.01847">
        <ele>121</ele>
        <time>2019-03-30T12:24:40Z</time>
      </trkpt>
      <trkpt lat="49.2497" lon="4.01855">
        <ele>121</ele>
        <time>2019-03-30T12:24:41Z</time>
      </trkpt>
      <trkpt lat="49.24974" lon="4.01863">
        <ele>121</ele>
        <time>2019-03-30T12:24:42Z</time>
      </trkpt>
      <trkpt lat="49.24977" lon="4.0187">
        <ele>120</ele>
        <time>2019-03-30T12:24:43Z</time>
      </trkpt>
      <trkpt lat="49.2498" lon="4.01878">
        <ele>121</ele>
        <time>2019-03-30T12:24:44Z</time>
      </trkpt>
      <trkpt lat="49.24982" lon="4.01886">
        <ele>120</ele>
        <time>2019-03-30T12:24:45Z</time>
      </trkpt>
      <trkpt lat="49.24985" lon="4.01894">
        <ele>120</ele>
        <time>2019-03-30T12:24:46Z</time>
      </trkpt>
      <trkpt lat="49.24988" lon="4.01901">
        <ele>120</ele>
        <time>2019-03-30T12:24:47Z</time>
      </trkpt>
      <trkpt lat="49.24991" lon="4.01908">
        <ele>120</ele>
        <time>2019-03-30T12:24:48Z</time>
      </trkpt>
      <trkpt lat="49.24994" lon="4.01916">
        <ele>120</ele>
        <time>2019-03-30T12:24:49Z</time>
      </trkpt>
      <trkpt lat="49.24997" lon="4.01924">
        <ele>120</ele>
        <time>2019-03-30T12:24:50Z</time>
      </trkpt>
      <trkpt lat="49.25" lon="4.01932">
        <ele>121</ele>
        <time>2019-03-30T12:24:51Z</time>
      </trkpt>
      <trkpt lat="49.25003" lon="4.0194">
        <ele>121</ele>
        <time>2019-03-30T12:24:52Z</time>
      </trkpt>
      <trkpt lat="49.25006" lon="4.01948">
        <ele>121</ele>
        <time>2019-03-30T12:24:53Z</time>
      </trkpt>
      <trkpt lat="49.25008" lon="4.01954">
        <ele>121</ele>
        <time>2019-03-30T12:24:54Z</time>
      </trkpt>
      <trkpt lat="49.25009" lon="4.01959">
        <ele>122</ele>
        <time>2019-03-30T12:24:55Z</time>
      </trkpt>
      <trkpt lat="49.25007" lon="4.01963">
        <ele>123</ele>
        <time>2019-03-30T12:24:56Z</time>
      </trkpt>
      <trkpt lat="49.25004" lon="4.01966">
        <ele>123</ele>
        <time>2019-03-30T12:24:57Z</time>
      </trkpt>
      <trkpt lat="49.25001" lon="4.01967">
        <ele>123</ele>
        <time>2019-03-30T12:24:58Z</time>
      </trkpt>
      <trkpt lat="49.24998" lon="4.01969">
        <ele>124</ele>
        <time>2019-03-30T12:24:59Z</time>
      </trkpt>
      <trkpt lat="49.24997" lon="4.01971">
        <ele>124</ele>
        <time>2019-03-30T12:25:00Z</time>
      </trkpt>
      <trkpt lat="49.24998" lon="4.01972">
        <ele>124</ele>
        <time>2019-03-30T12:25:01Z</time>
      </trkpt>
      <trkpt lat="49.25001" lon="4.01973">
        <ele>124</ele>
        <time>2019-03-30T12:25:02Z</time>
      </trkpt>
      <trkpt lat="49.25003" lon="4.01976">
        <ele>124</ele>
        <time>2019-03-30T12:25:03Z</time>
      </trkpt>
      <trkpt lat="49.25006" lon="4.01978">
        <ele>124</ele>
        <time>2019-03-30T12:25:04Z</time>
      </trkpt>
      <trkpt lat="49.25008" lon="4.01981">
        <ele>124</ele>
        <time>2019-03-30T12:25:05Z</time>
      </trkpt>
      <trkpt lat="49.25011" lon="4.01984">
        <ele>124</ele>
        <time>2019-03-30T12:25:06Z</time>
      </trkpt>
      <trkpt lat="49.25013" lon="4.01988">
        <ele>124</ele>
        <time>2019-03-30T12:25:07Z</time>
      </trkpt>
      <trkpt lat="49.25015" lon="4.01991">
        <ele>124</ele>
        <time>2019-03-30T12:25:08Z</time>
      </trkpt>
      <trkpt lat="49.25017" lon="4.01995">
        <ele>124</ele>
        <time>2019-03-30T12:25:09Z</time>
      </trkpt>
      <trkpt lat="49.25019" lon="4.02">
        <ele>124</ele>
        <time>2019-03-30T12:25:10Z</time>
      </trkpt>
      <trkpt lat="49.25021" lon="4.02005">
        <ele>124</ele>
        <time>2019-03-30T12:25:11Z</time>
      </trkpt>
      <trkpt lat="49.25022" lon="4.0201">
        <ele>124</ele>
        <time>2019-03-30T12:25:12Z</time>
      </trkpt>
      <trkpt lat="49.25025" lon="4.02015">
        <ele>123</ele>
        <time>2019-03-30T12:25:13Z</time>
      </trkpt>
      <trkpt lat="49.25027" lon="4.0202">
        <ele>123</ele>
        <time>2019-03-30T12:25:14Z</time>
      </trkpt>
      <trkpt lat="49.25029" lon="4.02026">
        <ele>123</ele>
        <time>2019-03-30T12:25:15Z</time>
      </trkpt>
      <trkpt lat="49.25032" lon="4.02031">
        <ele>123</ele>
        <time>2019-03-30T12:25:16Z</time>
      </trkpt>
      <trkpt lat="49.25035" lon="4.02036">
        <ele>123</ele>
        <time>2019-03-30T12:25:17Z</time>
      </trkpt>
      <trkpt lat="49.25037" lon="4.02042">
        <ele>122</ele>
        <time>2019-03-30T12:25:18Z</time>
      </trkpt>
      <trkpt lat="49.25039" lon="4.02048">
        <ele>122</ele>
        <time>2019-03-30T12:25:19Z</time>
      </trkpt>
      <trkpt lat="49.25042" lon="4.02054">
        <ele>122</ele>
        <time>2019-03-30T12:25:20Z</time>
      </trkpt>
      <trkpt lat="49.25044" lon="4.0206">
        <ele>122</ele>
        <time>2019-03-30T12:25:21Z</time>
      </trkpt>
      <trkpt lat="49.25047" lon="4.02066">
        <ele>123</ele>
        <time>2019-03-30T12:25:22Z</time>
      </trkpt>
      <trkpt lat="49.25048" lon="4.02072">
        <ele>123</ele>
        <time>2019-03-30T12:25:23Z</time>
      </trkpt>
      <trkpt lat="49.25049" lon="4.02077">
        <ele>122</ele>
        <time>2019-03-30T12:25:24Z</time>
      </trkpt>
      <trkpt lat="49.25052" lon="4.02083">
        <ele>123</ele>
        <time>2019-03-30T12:25:25Z</time>
      </trkpt>
      <trkpt lat="49.25054" lon="4.02088">
        <ele>122</ele>
        <time>2019-03-30T12:25:26Z</time>
      </trkpt>
      <trkpt lat="49.25057" lon="4.02093">
        <ele>123</ele>
        <time>2019-03-30T12:25:27Z</time>
      </trkpt>
      <trkpt lat="49.25058" lon="4.02099">
        <ele>123</ele>
        <time>2019-03-30T12:25:28Z</time>
      </trkpt>
      <trkpt lat="49.2506" lon="4.02104">
        <ele>122</ele>
        <time>2019-03-30T12:25:29Z</time>
      </trkpt>
      <trkpt lat="49.25062" lon="4.02109">
        <ele>122</ele>
        <time>2019-03-30T12:25:30Z</time>
      </trkpt>
      <trkpt lat="49.25064" lon="4.02113">
        <ele>123</ele>
        <time>2019-03-30T12:25:31Z</time>
      </trkpt>
      <trkpt lat="49.25066" lon="4.02118">
        <ele>123</ele>
        <time>2019-03-30T12:25:32Z</time>
      </trkpt>
      <trkpt lat="49.25068" lon="4.02123">
        <ele>122</ele>
        <time>2019-03-30T12:25:33Z</time>
      </trkpt>
      <trkpt lat="49.25069" lon="4.02128">
        <ele>122</ele>
        <time>2019-03-30T12:25:34Z</time>
      </trkpt>
      <trkpt lat="49.2507" lon="4.02133">
        <ele>122</ele>
        <time>2019-03-30T12:25:35Z</time>
      </trkpt>
      <trkpt lat="49.25072" lon="4.02139">
        <ele>122</ele>
        <time>2019-03-30T12:25:36Z</time>
      </trkpt>
      <trkpt lat="49.25073" lon="4.02144">
        <ele>122</ele>
        <time>2019-03-30T12:25:37Z</time>
      </trkpt>
      <trkpt lat="49.25075" lon="4.0215">
        <ele>122</ele>
        <time>2019-03-30T12:25:38Z</time>
      </trkpt>
      <trkpt lat="49.25077" lon="4.02154">
        <ele>122</ele>
        <time>2019-03-30T12:25:39Z</time>
      </trkpt>
      <trkpt lat="49.25079" lon="4.02159">
        <ele>122</ele>
        <time>2019-03-30T12:25:40Z</time>
      </trkpt>
      <trkpt lat="49.2508" lon="4.02165">
        <ele>122</ele>
        <time>2019-03-30T12:25:41Z</time>
      </trkpt>
      <trkpt lat="49.25082" lon="4.02171">
        <ele>122</ele>
        <time>2019-03-30T12:25:42Z</time>
      </trkpt>
      <trkpt lat="49.25083" lon="4.02176">
        <ele>123</ele>
        <time>2019-03-30T12:25:43Z</time>
      </trkpt>
      <trkpt lat="49.25085" lon="4.02181">
        <ele>123</ele>
        <time>2019-03-30T12:25:44Z</time>
      </trkpt>
      <trkpt lat="49.25087" lon="4.02187">
        <ele>123</ele>
        <time>2019-03-30T12:25:45Z</time>
      </trkpt>
      <trkpt lat="49.2509" lon="4.02191">
        <ele>123</ele>
        <time>2019-03-30T12:25:46Z</time>
      </trkpt>
      <trkpt lat="49.25092" lon="4.02196">
        <ele>124</ele>
        <time>2019-03-30T12:25:47Z</time>
      </trkpt>
      <trkpt lat="49.25094" lon="4.02201">
        <ele>124</ele>
        <time>2019-03-30T12:25:48Z</time>
      </trkpt>
      <trkpt lat="49.25096" lon="4.02205">
        <ele>124</ele>
        <time>2019-03-30T12:25:49Z</time>
      </trkpt>
      <trkpt lat="49.25097" lon="4.0221">
        <ele>124</ele>
        <time>2019-03-30T12:25:50Z</time>
      </trkpt>
      <trkpt lat="49.25099" lon="4.02215">
        <ele>124</ele>
        <time>2019-03-30T12:25:51Z</time>
      </trkpt>
      <trkpt lat="49.251" lon="4.0222">
        <ele>124</ele>
        <time>2019-03-30T12:25:52Z</time>
      </trkpt>
      <trkpt lat="49.25102" lon="4.02225">
        <ele>124</ele>
        <time>2019-03-30T12:25:53Z</time>
      </trkpt>
      <trkpt lat="49.25105" lon="4.02232">
        <ele>124</ele>
        <time>2019-03-30T12:25:54Z</time>
      </trkpt>
      <trkpt lat="49.25107" lon="4.02237">
        <ele>124</ele>
        <time>2019-03-30T12:25:55Z</time>
      </trkpt>
      <trkpt lat="49.25109" lon="4.02244">
        <ele>124</ele>
        <time>2019-03-30T12:25:56Z</time>
      </trkpt>
      <trkpt lat="49.25111" lon="4.0225">
        <ele>124</ele>
        <time>2019-03-30T12:25:57Z</time>
      </trkpt>
      <trkpt lat="49.25113" lon="4.02256">
        <ele>124</ele>
        <time>2019-03-30T12:25:58Z</time>
      </trkpt>
      <trkpt lat="49.25116" lon="4.02263">
        <ele>124</ele>
        <time>2019-03-30T12:25:59Z</time>
      </trkpt>
      <trkpt lat="49.25118" lon="4.02268">
        <ele>125</ele>
        <time>2019-03-30T12:26:00Z</time>
      </trkpt>
      <trkpt lat="49.2512" lon="4.02273">
        <ele>125</ele>
        <time>2019-03-30T12:26:01Z</time>
      </trkpt>
      <trkpt lat="49.25122" lon="4.02278">
        <ele>125</ele>
        <time>2019-03-30T12:26:02Z</time>
      </trkpt>
      <trkpt lat="49.25123" lon="4.02282">
        <ele>125</ele>
        <time>2019-03-30T12:26:03Z</time>
      </trkpt>
      <trkpt lat="49.25125" lon="4.02285">
        <ele>125</ele>
        <time>2019-03-30T12:26:04Z</time>
      </trkpt>
      <trkpt lat="49.25126" lon="4.02287">
        <ele>125</ele>
        <time>2019-03-30T12:26:05Z</time>
      </trkpt>
      <trkpt lat="49.25126" lon="4.0229">
        <ele>126</ele>
        <time>2019-03-30T12:26:06Z</time>
      </trkpt>
      <trkpt lat="49.25125" lon="4.02293">
        <ele>126</ele>
        <time>2019-03-30T12:26:07Z</time>
      </trkpt>
      <trkpt lat="49.25125" lon="4.02296">
        <ele>127</ele>
        <time>2019-03-30T12:26:08Z</time>
      </trkpt>
      <trkpt lat="49.25126" lon="4.02299">
        <ele>127</ele>
        <time>2019-03-30T12:26:09Z</time>
      </trkpt>
      <trkpt lat="49.25129" lon="4.02303">
        <ele>128</ele>
        <time>2019-03-30T12:26:10Z</time>
      </trkpt>
      <trkpt lat="49.25132" lon="4.02307">
        <ele>128</ele>
        <time>2019-03-30T12:26:11Z</time>
      </trkpt>
      <trkpt lat="49.25134" lon="4.02311">
        <ele>128</ele>
        <time>2019-03-30T12:26:12Z</time>
      </trkpt>
      <trkpt lat="49.25137" lon="4.02316">
        <ele>128</ele>
        <time>2019-03-30T12:26:13Z</time>
      </trkpt>
      <trkpt lat="49.25139" lon="4.02321">
        <ele>128</ele>
        <time>2019-03-30T12:26:14Z</time>
      </trkpt>
      <trkpt lat="49.2514" lon="4.02326">
        <ele>128</ele>
        <time>2019-03-30T12:26:15Z</time>
      </trkpt>
      <trkpt lat="49.25141" lon="4.02333">
        <ele>127</ele>
        <time>2019-03-30T12:26:16Z</time>
      </trkpt>
      <trkpt lat="49.25142" lon="4.02338">
        <ele>126</ele>
        <time>2019-03-30T12:26:17Z</time>
      </trkpt>
      <trkpt lat="49.25144" lon="4.02342">
        <ele>126</ele>
        <time>2019-03-30T12:26:18Z</time>
      </trkpt>
      <trkpt lat="49.25146" lon="4.02347">
        <ele>126</ele>
        <time>2019-03-30T12:26:19Z</time>
      </trkpt>
      <trkpt lat="49.25148" lon="4.02353">
        <ele>126</ele>
        <time>2019-03-30T12:26:20Z</time>
      </trkpt>
      <trkpt lat="49.25151" lon="4.02359">
        <ele>125</ele>
        <time>2019-03-30T12:26:21Z</time>
      </trkpt>
      <trkpt lat="49.25155" lon="4.02363">
        <ele>125</ele>
        <time>2019-03-30T12:26:22Z</time>
      </trkpt>
      <trkpt lat="49.25158" lon="4.02368">
        <ele>125</ele>
        <time>2019-03-30T12:26:23Z</time>
      </trkpt>
      <trkpt lat="49.25162" lon="4.02375">
        <ele>124</ele>
        <time>2019-03-30T12:26:24Z</time>
      </trkpt>
      <trkpt lat="49.25164" lon="4.02382">
        <ele>124</ele>
        <time>2019-03-30T12:26:25Z</time>
      </trkpt>
      <trkpt lat="49.25167" lon="4.02389">
        <ele>123</ele>
        <time>2019-03-30T12:26:26Z</time>
      </trkpt>
      <trkpt lat="49.25169" lon="4.02396">
        <ele>123</ele>
        <time>2019-03-30T12:26:27Z</time>
      </trkpt>
      <trkpt lat="49.25172" lon="4.02403">
        <ele>123</ele>
        <time>2019-03-30T12:26:28Z</time>
      </trkpt>
      <trkpt lat="49.25174" lon="4.02411">
        <ele>123</ele>
        <time>2019-03-30T12:26:29Z</time>
      </trkpt>
      <trkpt lat="49.25177" lon="4.02417">
        <ele>123</ele>
        <time>2019-03-30T12:26:30Z</time>
      </trkpt>
      <trkpt lat="49.25179" lon="4.02424">
        <ele>123</ele>
        <time>2019-03-30T12:26:31Z</time>
      </trkpt>
      <trkpt lat="49.25182" lon="4.02431">
        <ele>123</ele>
        <time>2019-03-30T12:26:32Z</time>
      </trkpt>
      <trkpt lat="49.25184" lon="4.02438">
        <ele>123</ele>
        <time>2019-03-30T12:26:33Z</time>
      </trkpt>
      <trkpt lat="49.25188" lon="4.02444">
        <ele>124</ele>
        <time>2019-03-30T12:26:34Z</time>
      </trkpt>
      <trkpt lat="49.2519" lon="4.0245">
        <ele>124</ele>
        <time>2019-03-30T12:26:35Z</time>
      </trkpt>
      <trkpt lat="49.25193" lon="4.02456">
        <ele>124</ele>
        <time>2019-03-30T12:26:36Z</time>
      </trkpt>
      <trkpt lat="49.25196" lon="4.02462">
        <ele>124</ele>
        <time>2019-03-30T12:26:37Z</time>
      </trkpt>
      <trkpt lat="49.25197" lon="4.02467">
        <ele>124</ele>
        <time>2019-03-30T12:26:38Z</time>
      </trkpt>
      <trkpt lat="49.25199" lon="4.02472">
        <ele>124</ele>
        <time>2019-03-30T12:26:39Z</time>
      </trkpt>
      <trkpt lat="49.25201" lon="4.02478">
        <ele>125</ele>
        <time>2019-03-30T12:26:40Z</time>
      </trkpt>
      <trkpt lat="49.25202" lon="4.02483">
        <ele>125</ele>
        <time>2019-03-30T12:26:41Z</time>
      </trkpt>
      <trkpt lat="49.25203" lon="4.02489">
        <ele>125</ele>
        <time>2019-03-30T12:26:42Z</time>
      </trkpt>
      <trkpt lat="49.25204" lon="4.02494">
        <ele>125</ele>
        <time>2019-03-30T12:26:43Z</time>
      </trkpt>
      <trkpt lat="49.25206" lon="4.02498">
        <ele>125</ele>
        <time>2019-03-30T12:26:44Z</time>
      </trkpt>
      <trkpt lat="49.25206" lon="4.02501">
        <ele>125</ele>
        <time>2019-03-30T12:26:45Z</time>
      </trkpt>
      <trkpt lat="49.25207" lon="4.02504">
        <ele>125</ele>
        <time>2019-03-30T12:26:46Z</time>
      </trkpt>
      <trkpt lat="49.25208" lon="4.02509">
        <ele>125</ele>
        <time>2019-03-30T12:26:47Z</time>
      </trkpt>
      <trkpt lat="49.25209" lon="4.02513">
        <ele>125</ele>
        <time>2019-03-30T12:26:48Z</time>
      </trkpt>
      <trkpt lat="49.2521" lon="4.02518">
        <ele>125</ele>
        <time>2019-03-30T12:26:49Z</time>
      </trkpt>
      <trkpt lat="49.25212" lon="4.02522">
        <ele>125</ele>
        <time>2019-03-30T12:26:50Z</time>
      </trkpt>
      <trkpt lat="49.25215" lon="4.02527">
        <ele>126</ele>
        <time>2019-03-30T12:26:51Z</time>
      </trkpt>
      <trkpt lat="49.25217" lon="4.02533">
        <ele>126</ele>
        <time>2019-03-30T12:26:52Z</time>
      </trkpt>
      <trkpt lat="49.25221" lon="4.02539">
        <ele>126</ele>
        <time>2019-03-30T12:26:53Z</time>
      </trkpt>
      <trkpt lat="49.25223" lon="4.02545">
        <ele>125</ele>
        <time>2019-03-30T12:26:54Z</time>
      </trkpt>
      <trkpt lat="49.25226" lon="4.02551">
        <ele>125</ele>
        <time>2019-03-30T12:26:55Z</time>
      </trkpt>
      <trkpt lat="49.25228" lon="4.02557">
        <ele>125</ele>
        <time>2019-03-30T12:26:56Z</time>
      </trkpt>
      <trkpt lat="49.25229" lon="4.02563">
        <ele>125</ele>
        <time>2019-03-30T12:26:57Z</time>
      </trkpt>
      <trkpt lat="49.25231" lon="4.02569">
        <ele>125</ele>
        <time>2019-03-30T12:26:58Z</time>
      </trkpt>
      <trkpt lat="49.25232" lon="4.02576">
        <ele>125</ele>
        <time>2019-03-30T12:26:59Z</time>
      </trkpt>
      <trkpt lat="49.25233" lon="4.02582">
        <ele>125</ele>
        <time>2019-03-30T12:27:00Z</time>
      </trkpt>
      <trkpt lat="49.25235" lon="4.02587">
        <ele>126</ele>
        <time>2019-03-30T12:27:01Z</time>
      </trkpt>
      <trkpt lat="49.25237" lon="4.02592">
        <ele>126</ele>
        <time>2019-03-30T12:27:02Z</time>
      </trkpt>
      <trkpt lat="49.25239" lon="4.02597">
        <ele>126</ele>
        <time>2019-03-30T12:27:03Z</time>
      </trkpt>
      <trkpt lat="49.25241" lon="4.02602">
        <ele>126</ele>
        <time>2019-03-30T12:27:04Z</time>
      </trkpt>
      <trkpt lat="49.25243" lon="4.02607">
        <ele>126</ele>
        <time>2019-03-30T12:27:05Z</time>
      </trkpt>
      <trkpt lat="49.25244" lon="4.02612">
        <ele>126</ele>
        <time>2019-03-30T12:27:06Z</time>
      </trkpt>
      <trkpt lat="49.25246" lon="4.02617">
        <ele>126</ele>
        <time>2019-03-30T12:27:07Z</time>
      </trkpt>
      <trkpt lat="49.25247" lon="4.02622">
        <ele>126</ele>
        <time>2019-03-30T12:27:08Z</time>
      </trkpt>
      <trkpt lat="49.25248" lon="4.02625">
        <ele>126</ele>
        <time>2019-03-30T12:27:09Z</time>
      </trkpt>
      <trkpt lat="49.2525" lon="4.02628">
        <ele>126</ele>
        <time>2019-03-30T12:27:10Z</time>
      </trkpt>
      <trkpt lat="49.25251" lon="4.02631">
        <ele>126</ele>
        <time>2019-03-30T12:27:11Z</time>
      </trkpt>
      <trkpt lat="49.25252" lon="4.02633">
        <ele>126</ele>
        <time>2019-03-30T12:27:12Z</time>
      </trkpt>
      <trkpt lat="49.25253" lon="4.02636">
        <ele>126</ele>
        <time>2019-03-30T12:27:13Z</time>
      </trkpt>
      <trkpt lat="49.25254" lon="4.02639">
        <ele>126</ele>
        <time>2019-03-30T12:27:14Z</time>
      </trkpt>
      <trkpt lat="49.25254" lon="4.02641">
        <ele>126</ele>
        <time>2019-03-30T12:27:15Z</time>
      </trkpt>
      <trkpt lat="49.25255" lon="4.02642">
        <ele>126</ele>
        <time>2019-03-30T12:27:16Z</time>
      </trkpt>
      <trkpt lat="49.25255" lon="4.02644">
        <ele>126</ele>
        <time>2019-03-30T12:27:17Z</time>
      </trkpt>
      <trkpt lat="49.25256" lon="4.02644">
        <ele>126</ele>
        <time>2019-03-30T12:27:18Z</time>
      </trkpt>
      <trkpt lat="49.25256" lon="4.02644">
        <ele>126</ele>
        <time>2019-03-30T12:27:19Z</time>
      </trkpt>
      <trkpt lat="49.25256" lon="4.02644">
        <ele>126</ele>
        <time>2019-03-30T12:27:20Z</time>
      </trkpt>
      <trkpt lat="49.25256" lon="4.02644">
        <ele>126</ele>
        <time>2019-03-30T12:27:21Z</time>
      </trkpt>
      <trkpt lat="49.25256" lon="4.02644">
        <ele>126</ele>
        <time>2019-03-30T12:27:22Z</time>
      </trkpt>
      <trkpt lat="49.25256" lon="4.02644">
        <ele>126</ele>
        <time>2019-03-30T12:27:23Z</time>
      </trkpt>
      <trkpt lat="49.25257" lon="4.02647">
        <ele>126</ele>
        <time>2019-03-30T12:27:24Z</time>
      </trkpt>
      <trkpt lat="49.25258" lon="4.02649">
        <ele>126</ele>
        <time>2019-03-30T12:27:25Z</time>
      </trkpt>
      <trkpt lat="49.25259" lon="4.02653">
        <ele>126</ele>
        <time>2019-03-30T12:27:26Z</time>
      </trkpt>
      <trkpt lat="49.2526" lon="4.02657">
        <ele>126</ele>
        <time>2019-03-30T12:27:27Z</time>
      </trkpt>
      <trkpt lat="49.25262" lon="4.02661">
        <ele>126</ele>
        <time>2019-03-30T12:27:28Z</time>
      </trkpt>
      <trkpt lat="49.25264" lon="4.02665">
        <ele>126</ele>
        <time>2019-03-30T12:27:29Z</time>
      </trkpt>
      <trkpt lat="49.25266" lon="4.0267">
        <ele>126</ele>
        <time>2019-03-30T12:27:30Z</time>
      </trkpt>
      <trkpt lat="49.25267" lon="4.02674">
        <ele>126</ele>
        <time>2019-03-30T12:27:31Z</time>
      </trkpt>
      <trkpt lat="49.25268" lon="4.02679">
        <ele>126</ele>
        <time>2019-03-30T12:27:32Z</time>
      </trkpt>
      <trkpt lat="49.25271" lon="4.02684">
        <ele>126</ele>
        <time>2019-03-30T12:27:33Z</time>
      </trkpt>
      <trkpt lat="49.25275" lon="4.02689">
        <ele>125</ele>
        <time>2019-03-30T12:27:34Z</time>
      </trkpt>
      <trkpt lat="49.25278" lon="4.02695">
        <ele>125</ele>
        <time>2019-03-30T12:27:35Z</time>
      </trkpt>
      <trkpt lat="49.2528" lon="4.02702">
        <ele>126</ele>
        <time>2019-03-30T12:27:36Z</time>
      </trkpt>
      <trkpt lat="49.25282" lon="4.02709">
        <ele>125</ele>
        <time>2019-03-30T12:27:37Z</time>
      </trkpt>
      <trkpt lat="49.25285" lon="4.02716">
        <ele>125</ele>
        <time>2019-03-30T12:27:38Z</time>
      </trkpt>
      <trkpt lat="49.25287" lon="4.02722">
        <ele>125</ele>
        <time>2019-03-30T12:27:39Z</time>
      </trkpt>
      <trkpt lat="49.25288" lon="4.02728">
        <ele>125</ele>
        <time>2019-03-30T12:27:40Z</time>
      </trkpt>
      <trkpt lat="49.2529" lon="4.02734">
        <ele>125</ele>
        <time>2019-03-30T12:27:41Z</time>
      </trkpt>
      <trkpt lat="49.25292" lon="4.02738">
        <ele>125</ele>
        <time>2019-03-30T12:27:42Z</time>
      </trkpt>
      <trkpt lat="49.25294" lon="4.02744">
        <ele>126</ele>
        <time>2019-03-30T12:27:43Z</time>
      </trkpt>
      <trkpt lat="49.25295" lon="4.0275">
        <ele>126</ele>
        <time>2019-03-30T12:27:44Z</time>
      </trkpt>
      <trkpt lat="49.25298" lon="4.02756">
        <ele>127</ele>
        <time>2019-03-30T12:27:45Z</time>
      </trkpt>
      <trkpt lat="49.25299" lon="4.02762">
        <ele>127</ele>
        <time>2019-03-30T12:27:46Z</time>
      </trkpt>
      <trkpt lat="49.253" lon="4.02767">
        <ele>127</ele>
        <time>2019-03-30T12:27:47Z</time>
      </trkpt>
      <trkpt lat="49.25302" lon="4.02772">
        <ele>127</ele>
        <time>2019-03-30T12:27:48Z</time>
      </trkpt>
      <trkpt lat="49.25305" lon="4.02777">
        <ele>126</ele>
        <time>2019-03-30T12:27:49Z</time>
      </trkpt>
      <trkpt lat="49.25307" lon="4.02782">
        <ele>126</ele>
        <time>2019-03-30T12:27:50Z</time>
      </trkpt>
      <trkpt lat="49.25308" lon="4.02786">
        <ele>126</ele>
        <time>2019-03-30T12:27:51Z</time>
      </trkpt>
      <trkpt lat="49.2531" lon="4.02791">
        <ele>126</ele>
        <time>2019-03-30T12:27:52Z</time>
      </trkpt>
      <trkpt lat="49.25312" lon="4.02795">
        <ele>126</ele>
        <time>2019-03-30T12:27:53Z</time>
      </trkpt>
      <trkpt lat="49.25313" lon="4.028">
        <ele>126</ele>
        <time>2019-03-30T12:27:54Z</time>
      </trkpt>
      <trkpt lat="49.25315" lon="4.02805">
        <ele>127</ele>
        <time>2019-03-30T12:27:55Z</time>
      </trkpt>
      <trkpt lat="49.25316" lon="4.02809">
        <ele>127</ele>
        <time>2019-03-30T12:27:56Z</time>
      </trkpt>
      <trkpt lat="49.25317" lon="4.02814">
        <ele>127</ele>
        <time>2019-03-30T12:27:57Z</time>
      </trkpt>
      <trkpt lat="49.25318" lon="4.02819">
        <ele>127</ele>
        <time>2019-03-30T12:27:58Z</time>
      </trkpt>
      <trkpt lat="49.2532" lon="4.02823">
        <ele>127</ele>
        <time>2019-03-30T12:27:59Z</time>
      </trkpt>
      <trkpt lat="49.25323" lon="4.02829">
        <ele>126</ele>
        <time>2019-03-30T12:28:00Z</time>
      </trkpt>
      <trkpt lat="49.25324" lon="4.02834">
        <ele>127</ele>
        <time>2019-03-30T12:28:01Z</time>
      </trkpt>
      <trkpt lat="49.25325" lon="4.02839">
        <ele>126</ele>
        <time>2019-03-30T12:28:02Z</time>
      </trkpt>
      <trkpt lat="49.25327" lon="4.02842">
        <ele>127</ele>
        <time>2019-03-30T12:28:03Z</time>
      </trkpt>
      <trkpt lat="49.25328" lon="4.02846">
        <ele>127</ele>
        <time>2019-03-30T12:28:04Z</time>
      </trkpt>
      <trkpt lat="49.2533" lon="4.02849">
        <ele>127</ele>
        <time>2019-03-30T12:28:05Z</time>
      </trkpt>
      <trkpt lat="49.25332" lon="4.02854">
        <ele>128</ele>
        <time>2019-03-30T12:28:06Z</time>
      </trkpt>
      <trkpt lat="49.25334" lon="4.0286">
        <ele>128</ele>
        <time>2019-03-30T12:28:07Z</time>
      </trkpt>
      <trkpt lat="49.25337" lon="4.02866">
        <ele>127</ele>
        <time>2019-03-30T12:28:08Z</time>
      </trkpt>
      <trkpt lat="49.2534" lon="4.02872">
        <ele>128</ele>
        <time>2019-03-30T12:28:09Z</time>
      </trkpt>
      <trkpt lat="49.25342" lon="4.02878">
        <ele>128</ele>
        <time>2019-03-30T12:28:10Z</time>
      </trkpt>
      <trkpt lat="49.25344" lon="4.02883">
        <ele>128</ele>
        <time>2019-03-30T12:28:11Z</time>
      </trkpt>
      <trkpt lat="49.25346" lon="4.02887">
        <ele>128</ele>
        <time>2019-03-30T12:28:12Z</time>
      </trkpt>
      <trkpt lat="49.25347" lon="4.02893">
        <ele>129</ele>
        <time>2019-03-30T12:28:13Z</time>
      </trkpt>
      <trkpt lat="49.25349" lon="4.02897">
        <ele>129</ele>
        <time>2019-03-30T12:28:14Z</time>
      </trkpt>
      <trkpt lat="49.25351" lon="4.02902">
        <ele>129</ele>
        <time>2019-03-30T12:28:15Z</time>
      </trkpt>
      <trkpt lat="49.25353" lon="4.02907">
        <ele>129</ele>
        <time>2019-03-30T12:28:16Z</time>
      </trkpt>
      <trkpt lat="49.25356" lon="4.02912">
        <ele>129</ele>
        <time>2019-03-30T12:28:17Z</time>
      </trkpt>
      <trkpt lat="49.25358" lon="4.02918">
        <ele>130</ele>
        <time>2019-03-30T12:28:18Z</time>
      </trkpt>
      <trkpt lat="49.2536" lon="4.02924">
        <ele>130</ele>
        <time>2019-03-30T12:28:19Z</time>
      </trkpt>
      <trkpt lat="49.25361" lon="4.02932">
        <ele>130</ele>
        <time>2019-03-30T12:28:20Z</time>
      </trkpt>
      <trkpt lat="49.25363" lon="4.02938">
        <ele>130</ele>
        <time>2019-03-30T12:28:21Z</time>
      </trkpt>
      <trkpt lat="49.25365" lon="4.02943">
        <ele>131</ele>
        <time>2019-03-30T12:28:22Z</time>
      </trkpt>
      <trkpt lat="49.25367" lon="4.02949">
        <ele>131</ele>
        <time>2019-03-30T12:28:23Z</time>
      </trkpt>
      <trkpt lat="49.25369" lon="4.02954">
        <ele>131</ele>
        <time>2019-03-30T12:28:24Z</time>
      </trkpt>
      <trkpt lat="49.25371" lon="4.02958">
        <ele>131</ele>
        <time>2019-03-30T12:28:25Z</time>
      </trkpt>
      <trkpt lat="49.25374" lon="4.02963">
        <ele>131</ele>
        <time>2019-03-30T12:28:26Z</time>
      </trkpt>
      <trkpt lat="49.25377" lon="4.02969">
        <ele>131</ele>
        <time>2019-03-30T12:28:27Z</time>
      </trkpt>
      <trkpt lat="49.25379" lon="4.02974">
        <ele>131</ele>
        <time>2019-03-30T12:28:28Z</time>
      </trkpt>
      <trkpt lat="49.25381" lon="4.0298">
        <ele>131</ele>
        <time>2019-03-30T12:28:29Z</time>
      </trkpt>
      <trkpt lat="49.25384" lon="4.02985">
        <ele>131</ele>
        <time>2019-03-30T12:28:30Z</time>
      </trkpt>
      <trkpt lat="49.25387" lon="4.0299">
        <ele>131</ele>
        <time>2019-03-30T12:28:31Z</time>
      </trkpt>
      <trkpt lat="49.2539" lon="4.02996">
        <ele>131</ele>
        <time>2019-03-30T12:28:32Z</time>
      </trkpt>
      <trkpt lat="49.25392" lon="4.03">
        <ele>131</ele>
        <time>2019-03-30T12:28:33Z</time>
      </trkpt>
      <trkpt lat="49.25395" lon="4.03004">
        <ele>131</ele>
        <time>2019-03-30T12:28:34Z</time>
      </trkpt>
      <trkpt lat="49.25398" lon="4.03008">
        <ele>131</ele>
        <time>2019-03-30T12:28:35Z</time>
      </trkpt>
      <trkpt lat="49.254" lon="4.03011">
        <ele>131</ele>
        <time>2019-03-30T12:28:36Z</time>
      </trkpt>
      <trkpt lat="49.25402" lon="4.03015">
        <ele>131</ele>
        <time>2019-03-30T12:28:37Z</time>
      </trkpt>
      <trkpt lat="49.25404" lon="4.03019">
        <ele>131</ele>
        <time>2019-03-30T12:28:38Z</time>
      </trkpt>
      <trkpt lat="49.25405" lon="4.03023">
        <ele>131</ele>
        <time>2019-03-30T12:28:39Z</time>
      </trkpt>
      <trkpt lat="49.25406" lon="4.03026">
        <ele>130</ele>
        <time>2019-03-30T12:28:40Z</time>
      </trkpt>
      <trkpt lat="49.25407" lon="4.03029">
        <ele>131</ele>
        <time>2019-03-30T12:28:41Z</time>
      </trkpt>
      <trkpt lat="49.25406" lon="4.03034">
        <ele>131</ele>
        <time>2019-03-30T12:28:42Z</time>
      </trkpt>
      <trkpt lat="49.25406" lon="4.03039">
        <ele>131</ele>
        <time>2019-03-30T12:28:43Z</time>
      </trkpt>
      <trkpt lat="49.25407" lon="4.03045">
        <ele>131</ele>
        <time>2019-03-30T12:28:44Z</time>
      </trkpt>
      <trkpt lat="49.25409" lon="4.03051">
        <ele>131</ele>
        <time>2019-03-30T12:28:45Z</time>
      </trkpt>
      <trkpt lat="49.25412" lon="4.03056">
        <ele>131</ele>
        <time>2019-03-30T12:28:46Z</time>
      </trkpt>
      <trkpt lat="49.25413" lon="4.03061">
        <ele>131</ele>
        <time>2019-03-30T12:28:47Z</time>
      </trkpt>
      <trkpt lat="49.25416" lon="4.03066">
        <ele>131</ele>
        <time>2019-03-30T12:28:48Z</time>
      </trkpt>
      <trkpt lat="49.25418" lon="4.03071">
        <ele>131</ele>
        <time>2019-03-30T12:28:49Z</time>
      </trkpt>
      <trkpt lat="49.25419" lon="4.03075">
        <ele>132</ele>
        <time>2019-03-30T12:28:50Z</time>
      </trkpt>
      <trkpt lat="49.25421" lon="4.03079">
        <ele>131</ele>
        <time>2019-03-30T12:28:51Z</time>
      </trkpt>
      <trkpt lat="49.25423" lon="4.03084">
        <ele>131</ele>
        <time>2019-03-30T12:28:52Z</time>
      </trkpt>
      <trkpt lat="49.25426" lon="4.0309">
        <ele>131</ele>
        <time>2019-03-30T12:28:53Z</time>
      </trkpt>
      <trkpt lat="49.25427" lon="4.03096">
        <ele>131</ele>
        <time>2019-03-30T12:28:54Z</time>
      </trkpt>
      <trkpt lat="49.25429" lon="4.03102">
        <ele>131</ele>
        <time>2019-03-30T12:28:55Z</time>
      </trkpt>
      <trkpt lat="49.25431" lon="4.03108">
        <ele>130</ele>
        <time>2019-03-30T12:28:56Z</time>
      </trkpt>
      <trkpt lat="49.25432" lon="4.03113">
        <ele>130</ele>
        <time>2019-03-30T12:28:57Z</time>
      </trkpt>
      <trkpt lat="49.25432" lon="4.03118">
        <ele>130</ele>
        <time>2019-03-30T12:28:58Z</time>
      </trkpt>
      <trkpt lat="49.25431" lon="4.03123">
        <ele>130</ele>
        <time>2019-03-30T12:28:59Z</time>
      </trkpt>
      <trkpt lat="49.25431" lon="4.03128">
        <ele>130</ele>
        <time>2019-03-30T12:29:00Z</time>
      </trkpt>
      <trkpt lat="49.25433" lon="4.03132">
        <ele>130</ele>
        <time>2019-03-30T12:29:01Z</time>
      </trkpt>
      <trkpt lat="49.25435" lon="4.03137">
        <ele>130</ele>
        <time>2019-03-30T12:29:02Z</time>
      </trkpt>
      <trkpt lat="49.25438" lon="4.03145">
        <ele>131</ele>
        <time>2019-03-30T12:29:03Z</time>
      </trkpt>
      <trkpt lat="49.25441" lon="4.03151">
        <ele>131</ele>
        <time>2019-03-30T12:29:04Z</time>
      </trkpt>
      <trkpt lat="49.25443" lon="4.03156">
        <ele>131</ele>
        <time>2019-03-30T12:29:05Z</time>
      </trkpt>
      <trkpt lat="49.25445" lon="4.03159">
        <ele>131</ele>
        <time>2019-03-30T12:29:06Z</time>
      </trkpt>
      <trkpt lat="49.25448" lon="4.03163">
        <ele>131</ele>
        <time>2019-03-30T12:29:07Z</time>
      </trkpt>
      <trkpt lat="49.2545" lon="4.03167">
        <ele>132</ele>
        <time>2019-03-30T12:29:08Z</time>
      </trkpt>
      <trkpt lat="49.25451" lon="4.0317">
        <ele>132</ele>
        <time>2019-03-30T12:29:09Z</time>
      </trkpt>
      <trkpt lat="49.25452" lon="4.03172">
        <ele>132</ele>
        <time>2019-03-30T12:29:10Z</time>
      </trkpt>
      <trkpt lat="49.25452" lon="4.03175">
        <ele>132</ele>
        <time>2019-03-30T12:29:11Z</time>
      </trkpt>
      <trkpt lat="49.25453" lon="4.03177">
        <ele>132</ele>
        <time>2019-03-30T12:29:12Z</time>
      </trkpt>
      <trkpt lat="49.25455" lon="4.0318">
        <ele>132</ele>
        <time>2019-03-30T12:29:13Z</time>
      </trkpt>
      <trkpt lat="49.25457" lon="4.03183">
        <ele>132</ele>
        <time>2019-03-30T12:29:14Z</time>
      </trkpt>
      <trkpt lat="49.25459" lon="4.03187">
        <ele>132</ele>
        <time>2019-03-30T12:29:15Z</time>
      </trkpt>
      <trkpt lat="49.25461" lon="4.03192">
        <ele>132</ele>
        <time>2019-03-30T12:29:16Z</time>
      </trkpt>
      <trkpt lat="49.25462" lon="4.03198">
        <ele>132</ele>
        <time>2019-03-30T12:29:17Z</time>
      </trkpt>
      <trkpt lat="49.25465" lon="4.03203">
        <ele>132</ele>
        <time>2019-03-30T12:29:18Z</time>
      </trkpt>
      <trkpt lat="49.25467" lon="4.03206">
        <ele>133</ele>
        <time>2019-03-30T12:29:19Z</time>
      </trkpt>
      <trkpt lat="49.2547" lon="4.0321">
        <ele>133</ele>
        <time>2019-03-30T12:29:20Z</time>
      </trkpt>
      <trkpt lat="49.25475" lon="4.03215">
        <ele>133</ele>
        <time>2019-03-30T12:29:21Z</time>
      </trkpt>
      <trkpt lat="49.25478" lon="4.03221">
        <ele>133</ele>
        <time>2019-03-30T12:29:22Z</time>
      </trkpt>
      <trkpt lat="49.25482" lon="4.03226">
        <ele>132</ele>
        <time>2019-03-30T12:29:23Z</time>
      </trkpt>
      <trkpt lat="49.25484" lon="4.03232">
        <ele>132</ele>
        <time>2019-03-30T12:29:24Z</time>
      </trkpt>
      <trkpt lat="49.25486" lon="4.03239">
        <ele>132</ele>
        <time>2019-03-30T12:29:25Z</time>
      </trkpt>
      <trkpt lat="49.25489" lon="4.03245">
        <ele>132</ele>
        <time>2019-03-30T12:29:26Z</time>
      </trkpt>
      <trkpt lat="49.25491" lon="4.03251">
        <ele>132</ele>
        <time>2019-03-30T12:29:27Z</time>
      </trkpt>
      <trkpt lat="49.25493" lon="4.03257">
        <ele>132</ele>
        <time>2019-03-30T12:29:28Z</time>
      </trkpt>
      <trkpt lat="49.25496" lon="4.03263">
        <ele>132</ele>
        <time>2019-03-30T12:29:29Z</time>
      </trkpt>
      <trkpt lat="49.25498" lon="4.0327">
        <ele>132</ele>
        <time>2019-03-30T12:29:30Z</time>
      </trkpt>
      <trkpt lat="49.255" lon="4.03276">
        <ele>132</ele>
        <time>2019-03-30T12:29:31Z</time>
      </trkpt>
      <trkpt lat="49.25503" lon="4.03282">
        <ele>132</ele>
        <time>2019-03-30T12:29:32Z</time>
      </trkpt>
      <trkpt lat="49.25504" lon="4.03289">
        <ele>132</ele>
        <time>2019-03-30T12:29:33Z</time>
      </trkpt>
      <trkpt lat="49.25506" lon="4.03294">
        <ele>132</ele>
        <time>2019-03-30T12:29:34Z</time>
      </trkpt>
      <trkpt lat="49.25508" lon="4.03299">
        <ele>132</ele>
        <time>2019-03-30T12:29:35Z</time>
      </trkpt>
      <trkpt lat="49.25511" lon="4.03303">
        <ele>132</ele>
        <time>2019-03-30T12:29:36Z</time>
      </trkpt>
      <trkpt lat="49.25512" lon="4.03307">
        <ele>132</ele>
        <time>2019-03-30T12:29:37Z</time>
      </trkpt>
      <trkpt lat="49.25514" lon="4.0331">
        <ele>133</ele>
        <time>2019-03-30T12:29:38Z</time>
      </trkpt>
      <trkpt lat="49.25515" lon="4.03311">
        <ele>133</ele>
        <time>2019-03-30T12:29:39Z</time>
      </trkpt>
      <trkpt lat="49.25517" lon="4.03314">
        <ele>133</ele>
        <time>2019-03-30T12:29:40Z</time>
      </trkpt>
      <trkpt lat="49.25519" lon="4.03317">
        <ele>133</ele>
        <time>2019-03-30T12:29:41Z</time>
      </trkpt>
      <trkpt lat="49.25521" lon="4.03321">
        <ele>133</ele>
        <time>2019-03-30T12:29:42Z</time>
      </trkpt>
      <trkpt lat="49.25523" lon="4.03325">
        <ele>133</ele>
        <time>2019-03-30T12:29:43Z</time>
      </trkpt>
      <trkpt lat="49.25525" lon="4.03327">
        <ele>134</ele>
        <time>2019-03-30T12:29:44Z</time>
      </trkpt>
      <trkpt lat="49.25527" lon="4.03329">
        <ele>134</ele>
        <time>2019-03-30T12:29:45Z</time>
      </trkpt>
      <trkpt lat="49.25529" lon="4.03332">
        <ele>134</ele>
        <time>2019-03-30T12:29:46Z</time>
      </trkpt>
      <trkpt lat="49.2553" lon="4.03335">
        <ele>134</ele>
        <time>2019-03-30T12:29:47Z</time>
      </trkpt>
      <trkpt lat="49.25531" lon="4.03338">
        <ele>134</ele>
        <time>2019-03-30T12:29:48Z</time>
      </trkpt>
      <trkpt lat="49.25534" lon="4.03343">
        <ele>134</ele>
        <time>2019-03-30T12:29:49Z</time>
      </trkpt>
      <trkpt lat="49.25537" lon="4.03348">
        <ele>134</ele>
        <time>2019-03-30T12:29:50Z</time>
      </trkpt>
      <trkpt lat="49.2554" lon="4.03355">
        <ele>134</ele>
        <time>2019-03-30T12:29:51Z</time>
      </trkpt>
      <trkpt lat="49.25542" lon="4.03362">
        <ele>134</ele>
        <time>2019-03-30T12:29:52Z</time>
      </trkpt>
      <trkpt lat="49.25541" lon="4.03369">
        <ele>133</ele>
        <time>2019-03-30T12:29:53Z</time>
      </trkpt>
      <trkpt lat="49.2554" lon="4.03375">
        <ele>132</ele>
        <time>2019-03-30T12:29:54Z</time>
      </trkpt>
      <trkpt lat="49.2554" lon="4.03379">
        <ele>132</ele>
        <time>2019-03-30T12:29:55Z</time>
      </trkpt>
      <trkpt lat="49.25539" lon="4.03384">
        <ele>132</ele>
        <time>2019-03-30T12:29:56Z</time>
      </trkpt>
      <trkpt lat="49.25537" lon="4.0339">
        <ele>133</ele>
        <time>2019-03-30T12:29:57Z</time>
      </trkpt>
      <trkpt lat="49.25536" lon="4.03394">
        <ele>133</ele>
        <time>2019-03-30T12:29:58Z</time>
      </trkpt>
      <trkpt lat="49.25536" lon="4.03399">
        <ele>133</ele>
        <time>2019-03-30T12:29:59Z</time>
      </trkpt>
      <trkpt lat="49.25535" lon="4.03405">
        <ele>134</ele>
        <time>2019-03-30T12:30:00Z</time>
      </trkpt>
      <trkpt lat="49.25536" lon="4.03412">
        <ele>134</ele>
        <time>2019-03-30T12:30:01Z</time>
      </trkpt>
      <trkpt lat="49.25538" lon="4.03418">
        <ele>134</ele>
        <time>2019-03-30T12:30:02Z</time>
      </trkpt>
      <trkpt lat="49.25539" lon="4.03422">
        <ele>133</ele>
        <time>2019-03-30T12:30:03Z</time>
      </trkpt>
      <trkpt lat="49.25541" lon="4.03427">
        <ele>134</ele>
        <time>2019-03-30T12:30:04Z</time>
      </trkpt>
      <trkpt lat="49.25542" lon="4.03432">
        <ele>133</ele>
        <time>2019-03-30T12:30:05Z</time>
      </trkpt>
      <trkpt lat="49.25544" lon="4.03436">
        <ele>133</ele>
        <time>2019-03-30T12:30:06Z</time>
      </trkpt>
      <trkpt lat="49.25546" lon="4.03439">
        <ele>133</ele>
        <time>2019-03-30T12:30:07Z</time>
      </trkpt>
      <trkpt lat="49.25548" lon="4.03443">
        <ele>134</ele>
        <time>2019-03-30T12:30:08Z</time>
      </trkpt>
      <trkpt lat="49.2555" lon="4.03447">
        <ele>134</ele>
        <time>2019-03-30T12:30:09Z</time>
      </trkpt>
      <trkpt lat="49.25552" lon="4.03449">
        <ele>134</ele>
        <time>2019-03-30T12:30:10Z</time>
      </trkpt>
      <trkpt lat="49.25556" lon="4.03451">
        <ele>134</ele>
        <time>2019-03-30T12:30:11Z</time>
      </trkpt>
      <trkpt lat="49.25559" lon="4.03455">
        <ele>135</ele>
        <time>2019-03-30T12:30:12Z</time>
      </trkpt>
      <trkpt lat="49.25563" lon="4.0346">
        <ele>135</ele>
        <time>2019-03-30T12:30:13Z</time>
      </trkpt>
      <trkpt lat="49.25567" lon="4.03465">
        <ele>135</ele>
        <time>2019-03-30T12:30:14Z</time>
      </trkpt>
      <trkpt lat="49.25569" lon="4.03471">
        <ele>134</ele>
        <time>2019-03-30T12:30:15Z</time>
      </trkpt>
      <trkpt lat="49.25572" lon="4.03478">
        <ele>134</ele>
        <time>2019-03-30T12:30:16Z</time>
      </trkpt>
      <trkpt lat="49.25574" lon="4.03484">
        <ele>134</ele>
        <time>2019-03-30T12:30:17Z</time>
      </trkpt>
      <trkpt lat="49.25577" lon="4.0349">
        <ele>134</ele>
        <time>2019-03-30T12:30:18Z</time>
      </trkpt>
      <trkpt lat="49.25579" lon="4.03496">
        <ele>134</ele>
        <time>2019-03-30T12:30:19Z</time>
      </trkpt>
      <trkpt lat="49.25582" lon="4.03502">
        <ele>134</ele>
        <time>2019-03-30T12:30:20Z</time>
      </trkpt>
      <trkpt lat="49.25584" lon="4.0351">
        <ele>134</ele>
        <time>2019-03-30T12:30:21Z</time>
      </trkpt>
      <trkpt lat="49.25587" lon="4.03517">
        <ele>134</ele>
        <time>2019-03-30T12:30:22Z</time>
      </trkpt>
      <trkpt lat="49.2559" lon="4.03524">
        <ele>135</ele>
        <time>2019-03-30T12:30:23Z</time>
      </trkpt>
      <trkpt lat="49.25593" lon="4.0353">
        <ele>134</ele>
        <time>2019-03-30T12:30:24Z</time>
      </trkpt>
      <trkpt lat="49.25596" lon="4.03538">
        <ele>134</ele>
        <time>2019-03-30T12:30:25Z</time>
      </trkpt>
      <trkpt lat="49.25598" lon="4.03546">
        <ele>134</ele>
        <time>2019-03-30T12:30:26Z</time>
      </trkpt>
      <trkpt lat="49.25601" lon="4.03554">
        <ele>133</ele>
        <time>2019-03-30T12:30:27Z</time>
      </trkpt>
      <trkpt lat="49.25603" lon="4.03563">
        <ele>133</ele>
        <time>2019-03-30T12:30:28Z</time>
      </trkpt>
      <trkpt lat="49.25606" lon="4.03571">
        <ele>133</ele>
        <time>2019-03-30T12:30:29Z</time>
      </trkpt>
      <trkpt lat="49.25609" lon="4.03579">
        <ele>133</ele>
        <time>2019-03-30T12:30:30Z</time>
      </trkpt>
      <trkpt lat="49.25612" lon="4.03586">
        <ele>132</ele>
        <time>2019-03-30T12:30:31Z</time>
      </trkpt>
      <trkpt lat="49.25615" lon="4.03594">
        <ele>132</ele>
        <time>2019-03-30T12:30:32Z</time>
      </trkpt>
      <trkpt lat="49.25618" lon="4.03601">
        <ele>132</ele>
        <time>2019-03-30T12:30:33Z</time>
      </trkpt>
      <trkpt lat="49.2562" lon="4.03609">
        <ele>132</ele>
        <time>2019-03-30T12:30:34Z</time>
      </trkpt>
      <trkpt lat="49.25623" lon="4.03617">
        <ele>132</ele>
        <time>2019-03-30T12:30:35Z</time>
      </trkpt>
      <trkpt lat="49.25626" lon="4.03625">
        <ele>132</ele>
        <time>2019-03-30T12:30:36Z</time>
      </trkpt>
      <trkpt lat="49.25629" lon="4.03633">
        <ele>132</ele>
        <time>2019-03-30T12:30:37Z</time>
      </trkpt>
      <trkpt lat="49.25631" lon="4.03641">
        <ele>132</ele>
        <time>2019-03-30T12:30:38Z</time>
      </trkpt>
      <trkpt lat="49.25634" lon="4.03648">
        <ele>132</ele>
        <time>2019-03-30T12:30:39Z</time>
      </trkpt>
      <trkpt lat="49.25637" lon="4.03656">
        <ele>132</ele>
        <time>2019-03-30T12:30:40Z</time>
      </trkpt>
      <trkpt lat="49.25641" lon="4.03664">
        <ele>132</ele>
        <time>2019-03-30T12:30:41Z</time>
      </trkpt>
      <trkpt lat="49.25644" lon="4.03673">
        <ele>132</ele>
        <time>2019-03-30T12:30:42Z</time>
      </trkpt>
      <trkpt lat="49.25647" lon="4.03681">
        <ele>132</ele>
        <time>2019-03-30T12:30:43Z</time>
      </trkpt>
      <trkpt lat="49.2565" lon="4.03689">
        <ele>133</ele>
        <time>2019-03-30T12:30:44Z</time>
      </trkpt>
      <trkpt lat="49.25653" lon="4.03698">
        <ele>133</ele>
        <time>2019-03-30T12:30:45Z</time>
      </trkpt>
      <trkpt lat="49.25657" lon="4.03706">
        <ele>132</ele>
        <time>2019-03-30T12:30:46Z</time>
      </trkpt>
      <trkpt lat="49.25661" lon="4.03715">
        <ele>132</ele>
        <time>2019-03-30T12:30:47Z</time>
      </trkpt>
      <trkpt lat="49.25665" lon="4.03723">
        <ele>132</ele>
        <time>2019-03-30T12:30:48Z</time>
      </trkpt>
      <trkpt lat="49.25668" lon="4.03733">
        <ele>132</ele>
        <time>2019-03-30T12:30:49Z</time>
      </trkpt>
      <trkpt lat="49.25671" lon="4.03743">
        <ele>132</ele>
        <time>2019-03-30T12:30:50Z</time>
      </trkpt>
      <trkpt lat="49.25675" lon="4.03752">
        <ele>132</ele>
        <time>2019-03-30T12:30:51Z</time>
      </trkpt>
      <trkpt lat="49.25678" lon="4.03761">
        <ele>131</ele>
        <time>2019-03-30T12:30:52Z</time>
      </trkpt>
      <trkpt lat="49.25679" lon="4.03768">
        <ele>131</ele>
        <time>2019-03-30T12:30:53Z</time>
      </trkpt>
      <trkpt lat="49.25679" lon="4.03773">
        <ele>131</ele>
        <time>2019-03-30T12:30:54Z</time>
      </trkpt>
      <trkpt lat="49.2568" lon="4.03777">
        <ele>131</ele>
        <time>2019-03-30T12:30:55Z</time>
      </trkpt>
      <trkpt lat="49.25681" lon="4.03779">
        <ele>131</ele>
        <time>2019-03-30T12:30:56Z</time>
      </trkpt>
      <trkpt lat="49.25681" lon="4.03781">
        <ele>131</ele>
        <time>2019-03-30T12:30:57Z</time>
      </trkpt>
      <trkpt lat="49.25681" lon="4.03783">
        <ele>131</ele>
        <time>2019-03-30T12:30:58Z</time>
      </trkpt>
      <trkpt lat="49.25682" lon="4.03783">
        <ele>131</ele>
        <time>2019-03-30T12:30:59Z</time>
      </trkpt>
      <trkpt lat="49.25682" lon="4.03784">
        <ele>131</ele>
        <time>2019-03-30T12:31:00Z</time>
      </trkpt>
      <trkpt lat="49.25682" lon="4.03785">
        <ele>131</ele>
        <time>2019-03-30T12:31:01Z</time>
      </trkpt>
      <trkpt lat="49.25683" lon="4.03786">
        <ele>131</ele>
        <time>2019-03-30T12:31:02Z</time>
      </trkpt>
      <trkpt lat="49.25684" lon="4.03787">
        <ele>131</ele>
        <time>2019-03-30T12:31:03Z</time>
      </trkpt>
      <trkpt lat="49.25685" lon="4.03789">
        <ele>131</ele>
        <time>2019-03-30T12:31:04Z</time>
      </trkpt>
      <trkpt lat="49.25687" lon="4.03791">
        <ele>131</ele>
        <time>2019-03-30T12:31:05Z</time>
      </trkpt>
      <trkpt lat="49.25689" lon="4.03795">
        <ele>131</ele>
        <time>2019-03-30T12:31:06Z</time>
      </trkpt>
      <trkpt lat="49.2569" lon="4.03799">
        <ele>131</ele>
        <time>2019-03-30T12:31:07Z</time>
      </trkpt>
      <trkpt lat="49.25692" lon="4.03803">
        <ele>131</ele>
        <time>2019-03-30T12:31:08Z</time>
      </trkpt>
      <trkpt lat="49.25693" lon="4.03809">
        <ele>132</ele>
        <time>2019-03-30T12:31:09Z</time>
      </trkpt>
      <trkpt lat="49.25696" lon="4.03814">
        <ele>132</ele>
        <time>2019-03-30T12:31:10Z</time>
      </trkpt>
      <trkpt lat="49.257" lon="4.0382">
        <ele>132</ele>
        <time>2019-03-30T12:31:11Z</time>
      </trkpt>
      <trkpt lat="49.25701" lon="4.03828">
        <ele>132</ele>
        <time>2019-03-30T12:31:12Z</time>
      </trkpt>
      <trkpt lat="49.25704" lon="4.03835">
        <ele>132</ele>
        <time>2019-03-30T12:31:13Z</time>
      </trkpt>
      <trkpt lat="49.25707" lon="4.03843">
        <ele>131</ele>
        <time>2019-03-30T12:31:14Z</time>
      </trkpt>
      <trkpt lat="49.2571" lon="4.0385">
        <ele>130</ele>
        <time>2019-03-30T12:31:15Z</time>
      </trkpt>
      <trkpt lat="49.25713" lon="4.03856">
        <ele>131</ele>
        <time>2019-03-30T12:31:16Z</time>
      </trkpt>
      <trkpt lat="49.25715" lon="4.03863">
        <ele>130</ele>
        <time>2019-03-30T12:31:17Z</time>
      </trkpt>
      <trkpt lat="49.25717" lon="4.0387">
        <ele>130</ele>
        <time>2019-03-30T12:31:18Z</time>
      </trkpt>
      <trkpt lat="49.25718" lon="4.03878">
        <ele>130</ele>
        <time>2019-03-30T12:31:19Z</time>
      </trkpt>
      <trkpt lat="49.25719" lon="4.03885">
        <ele>130</ele>
        <time>2019-03-30T12:31:20Z</time>
      </trkpt>
      <trkpt lat="49.2572" lon="4.0389">
        <ele>130</ele>
        <time>2019-03-30T12:31:21Z</time>
      </trkpt>
      <trkpt lat="49.25716" lon="4.03895">
        <ele>131</ele>
        <time>2019-03-30T12:31:22Z</time>
      </trkpt>
      <trkpt lat="49.25711" lon="4.039">
        <ele>132</ele>
        <time>2019-03-30T12:31:23Z</time>
      </trkpt>
      <trkpt lat="49.25706" lon="4.03904">
        <ele>132</ele>
        <time>2019-03-30T12:31:24Z</time>
      </trkpt>
      <trkpt lat="49.25702" lon="4.03909">
        <ele>132</ele>
        <time>2019-03-30T12:31:25Z</time>
      </trkpt>
      <trkpt lat="49.25701" lon="4.03917">
        <ele>132</ele>
        <time>2019-03-30T12:31:26Z</time>
      </trkpt>
      <trkpt lat="49.257" lon="4.03923">
        <ele>132</ele>
        <time>2019-03-30T12:31:27Z</time>
      </trkpt>
      <trkpt lat="49.257" lon="4.03929">
        <ele>133</ele>
        <time>2019-03-30T12:31:28Z</time>
      </trkpt>
      <trkpt lat="49.25701" lon="4.03935">
        <ele>133</ele>
        <time>2019-03-30T12:31:29Z</time>
      </trkpt>
      <trkpt lat="49.25704" lon="4.03941">
        <ele>132</ele>
        <time>2019-03-30T12:31:30Z</time>
      </trkpt>
      <trkpt lat="49.25705" lon="4.03947">
        <ele>132</ele>
        <time>2019-03-30T12:31:31Z</time>
      </trkpt>
      <trkpt lat="49.25709" lon="4.03951">
        <ele>132</ele>
        <time>2019-03-30T12:31:32Z</time>
      </trkpt>
      <trkpt lat="49.25712" lon="4.03954">
        <ele>134</ele>
        <time>2019-03-30T12:31:33Z</time>
      </trkpt>
      <trkpt lat="49.25714" lon="4.03957">
        <ele>134</ele>
        <time>2019-03-30T12:31:34Z</time>
      </trkpt>
      <trkpt lat="49.25717" lon="4.03958">
        <ele>135</ele>
        <time>2019-03-30T12:31:35Z</time>
      </trkpt>
      <trkpt lat="49.25721" lon="4.03958">
        <ele>135</ele>
        <time>2019-03-30T12:31:36Z</time>
      </trkpt>
      <trkpt lat="49.25725" lon="4.03957">
        <ele>136</ele>
        <time>2019-03-30T12:31:37Z</time>
      </trkpt>
      <trkpt lat="49.25729" lon="4.03956">
        <ele>136</ele>
        <time>2019-03-30T12:31:38Z</time>
      </trkpt>
      <trkpt lat="49.25733" lon="4.03955">
        <ele>136</ele>
        <time>2019-03-30T12:31:39Z</time>
      </trkpt>
      <trkpt lat="49.25736" lon="4.03954">
        <ele>137</ele>
        <time>2019-03-30T12:31:40Z</time>
      </trkpt>
      <trkpt lat="49.25739" lon="4.03952">
        <ele>137</ele>
        <time>2019-03-30T12:31:41Z</time>
      </trkpt>
      <trkpt lat="49.25741" lon="4.0395">
        <ele>137</ele>
        <time>2019-03-30T12:31:42Z</time>
      </trkpt>
      <trkpt lat="49.25744" lon="4.0395">
        <ele>138</ele>
        <time>2019-03-30T12:31:43Z</time>
      </trkpt>
      <trkpt lat="49.25745" lon="4.03951">
        <ele>137</ele>
        <time>2019-03-30T12:31:44Z</time>
      </trkpt>
      <trkpt lat="49.25747" lon="4.03953">
        <ele>136</ele>
        <time>2019-03-30T12:31:45Z</time>
      </trkpt>
      <trkpt lat="49.2575" lon="4.03956">
        <ele>136</ele>
        <time>2019-03-30T12:31:46Z</time>
      </trkpt>
      <trkpt lat="49.25752" lon="4.03962">
        <ele>136</ele>
        <time>2019-03-30T12:31:47Z</time>
      </trkpt>
      <trkpt lat="49.25755" lon="4.03968">
        <ele>136</ele>
        <time>2019-03-30T12:31:48Z</time>
      </trkpt>
      <trkpt lat="49.25759" lon="4.03976">
        <ele>136</ele>
        <time>2019-03-30T12:31:49Z</time>
      </trkpt>
      <trkpt lat="49.25763" lon="4.03984">
        <ele>136</ele>
        <time>2019-03-30T12:31:50Z</time>
      </trkpt>
      <trkpt lat="49.25767" lon="4.03991">
        <ele>136</ele>
        <time>2019-03-30T12:31:51Z</time>
      </trkpt>
      <trkpt lat="49.25771" lon="4.03999">
        <ele>136</ele>
        <time>2019-03-30T12:31:52Z</time>
      </trkpt>
      <trkpt lat="49.25775" lon="4.04008">
        <ele>136</ele>
        <time>2019-03-30T12:31:53Z</time>
      </trkpt>
      <trkpt lat="49.25779" lon="4.04017">
        <ele>136</ele>
        <time>2019-03-30T12:31:54Z</time>
      </trkpt>
      <trkpt lat="49.25782" lon="4.04026">
        <ele>136</ele>
        <time>2019-03-30T12:31:55Z</time>
      </trkpt>
      <trkpt lat="49.25785" lon="4.04035">
        <ele>136</ele>
        <time>2019-03-30T12:31:56Z</time>
      </trkpt>
      <trkpt lat="49.25788" lon="4.04045">
        <ele>136</ele>
        <time>2019-03-30T12:31:57Z</time>
      </trkpt>
      <trkpt lat="49.25791" lon="4.04054">
        <ele>136</ele>
        <time>2019-03-30T12:31:58Z</time>
      </trkpt>
      <trkpt lat="49.25794" lon="4.04062">
        <ele>137</ele>
        <time>2019-03-30T12:31:59Z</time>
      </trkpt>
      <trkpt lat="49.25796" lon="4.0407">
        <ele>136</ele>
        <time>2019-03-30T12:32:00Z</time>
      </trkpt>
      <trkpt lat="49.25798" lon="4.04078">
        <ele>136</ele>
        <time>2019-03-30T12:32:01Z</time>
      </trkpt>
      <trkpt lat="49.25801" lon="4.04085">
        <ele>136</ele>
        <time>2019-03-30T12:32:02Z</time>
      </trkpt>
      <trkpt lat="49.25803" lon="4.04093">
        <ele>136</ele>
        <time>2019-03-30T12:32:03Z</time>
      </trkpt>
      <trkpt lat="49.25805" lon="4.041">
        <ele>136</ele>
        <time>2019-03-30T12:32:04Z</time>
      </trkpt>
      <trkpt lat="49.25807" lon="4.04108">
        <ele>136</ele>
        <time>2019-03-30T12:32:05Z</time>
      </trkpt>
      <trkpt lat="49.25808" lon="4.04116">
        <ele>136</ele>
        <time>2019-03-30T12:32:06Z</time>
      </trkpt>
      <trkpt lat="49.25807" lon="4.04123">
        <ele>136</ele>
        <time>2019-03-30T12:32:07Z</time>
      </trkpt>
      <trkpt lat="49.25806" lon="4.04129">
        <ele>135</ele>
        <time>2019-03-30T12:32:08Z</time>
      </trkpt>
      <trkpt lat="49.25804" lon="4.04137">
        <ele>135</ele>
        <time>2019-03-30T12:32:09Z</time>
      </trkpt>
      <trkpt lat="49.25801" lon="4.04144">
        <ele>135</ele>
        <time>2019-03-30T12:32:10Z</time>
      </trkpt>
      <trkpt lat="49.25797" lon="4.04152">
        <ele>135</ele>
        <time>2019-03-30T12:32:11Z</time>
      </trkpt>
      <trkpt lat="49.25792" lon="4.0416">
        <ele>135</ele>
        <time>2019-03-30T12:32:12Z</time>
      </trkpt>
      <trkpt lat="49.25788" lon="4.04167">
        <ele>135</ele>
        <time>2019-03-30T12:32:13Z</time>
      </trkpt>
      <trkpt lat="49.25785" lon="4.04174">
        <ele>134</ele>
        <time>2019-03-30T12:32:14Z</time>
      </trkpt>
      <trkpt lat="49.2578" lon="4.0418">
        <ele>134</ele>
        <time>2019-03-30T12:32:15Z</time>
      </trkpt>
      <trkpt lat="49.25775" lon="4.04185">
        <ele>134</ele>
        <time>2019-03-30T12:32:16Z</time>
      </trkpt>
      <trkpt lat="49.2577" lon="4.04191">
        <ele>133</ele>
        <time>2019-03-30T12:32:17Z</time>
      </trkpt>
      <trkpt lat="49.25767" lon="4.04199">
        <ele>133</ele>
        <time>2019-03-30T12:32:18Z</time>
      </trkpt>
      <trkpt lat="49.25765" lon="4.04207">
        <ele>132</ele>
        <time>2019-03-30T12:32:19Z</time>
      </trkpt>
      <trkpt lat="49.25764" lon="4.04216">
        <ele>132</ele>
        <time>2019-03-30T12:32:20Z</time>
      </trkpt>
      <trkpt lat="49.25763" lon="4.04224">
        <ele>133</ele>
        <time>2019-03-30T12:32:21Z</time>
      </trkpt>
      <trkpt lat="49.2576" lon="4.04231">
        <ele>133</ele>
        <time>2019-03-30T12:32:22Z</time>
      </trkpt>
      <trkpt lat="49.25758" lon="4.04238">
        <ele>133</ele>
        <time>2019-03-30T12:32:23Z</time>
      </trkpt>
      <trkpt lat="49.25757" lon="4.04246">
        <ele>134</ele>
        <time>2019-03-30T12:32:24Z</time>
      </trkpt>
      <trkpt lat="49.25754" lon="4.04256">
        <ele>134</ele>
        <time>2019-03-30T12:32:25Z</time>
      </trkpt>
      <trkpt lat="49.25754" lon="4.04266">
        <ele>134</ele>
        <time>2019-03-30T12:32:26Z</time>
      </trkpt>
      <trkpt lat="49.25754" lon="4.04275">
        <ele>134</ele>
        <time>2019-03-30T12:32:27Z</time>
      </trkpt>
      <trkpt lat="49.25752" lon="4.04284">
        <ele>133</ele>
        <time>2019-03-30T12:32:28Z</time>
      </trkpt>
      <trkpt lat="49.25751" lon="4.04292">
        <ele>133</ele>
        <time>2019-03-30T12:32:29Z</time>
      </trkpt>
      <trkpt lat="49.2575" lon="4.04301">
        <ele>134</ele>
        <time>2019-03-30T12:32:30Z</time>
      </trkpt>
      <trkpt lat="49.25749" lon="4.0431">
        <ele>134</ele>
        <time>2019-03-30T12:32:31Z</time>
      </trkpt>
      <trkpt lat="49.25747" lon="4.04318">
        <ele>134</ele>
        <time>2019-03-30T12:32:32Z</time>
      </trkpt>
      <trkpt lat="49.25746" lon="4.04326">
        <ele>134</ele>
        <time>2019-03-30T12:32:33Z</time>
      </trkpt>
      <trkpt lat="49.25744" lon="4.04336">
        <ele>134</ele>
        <time>2019-03-30T12:32:34Z</time>
      </trkpt>
      <trkpt lat="49.25743" lon="4.04345">
        <ele>134</ele>
        <time>2019-03-30T12:32:35Z</time>
      </trkpt>
      <trkpt lat="49.25741" lon="4.04354">
        <ele>135</ele>
        <time>2019-03-30T12:32:36Z</time>
      </trkpt>
      <trkpt lat="49.25739" lon="4.04363">
        <ele>135</ele>
        <time>2019-03-30T12:32:37Z</time>
      </trkpt>
      <trkpt lat="49.25738" lon="4.04372">
        <ele>135</ele>
        <time>2019-03-30T12:32:38Z</time>
      </trkpt>
      <trkpt lat="49.25738" lon="4.04381">
        <ele>135</ele>
        <time>2019-03-30T12:32:39Z</time>
      </trkpt>
      <trkpt lat="49.25737" lon="4.0439">
        <ele>135</ele>
        <time>2019-03-30T12:32:40Z</time>
      </trkpt>
      <trkpt lat="49.25737" lon="4.044">
        <ele>135</ele>
        <time>2019-03-30T12:32:41Z</time>
      </trkpt>
      <trkpt lat="49.25736" lon="4.04409">
        <ele>135</ele>
        <time>2019-03-30T12:32:42Z</time>
      </trkpt>
      <trkpt lat="49.25735" lon="4.04418">
        <ele>135</ele>
        <time>2019-03-30T12:32:43Z</time>
      </trkpt>
      <trkpt lat="49.25735" lon="4.04427">
        <ele>135</ele>
        <time>2019-03-30T12:32:44Z</time>
      </trkpt>
      <trkpt lat="49.25735" lon="4.04435">
        <ele>134</ele>
        <time>2019-03-30T12:32:45Z</time>
      </trkpt>
      <trkpt lat="49.25735" lon="4.04444">
        <ele>134</ele>
        <time>2019-03-30T12:32:46Z</time>
      </trkpt>
      <trkpt lat="49.25734" lon="4.04453">
        <ele>134</ele>
        <time>2019-03-30T12:32:47Z</time>
      </trkpt>
      <trkpt lat="49.25732" lon="4.04461">
        <ele>134</ele>
        <time>2019-03-30T12:32:48Z</time>
      </trkpt>
      <trkpt lat="49.25731" lon="4.0447">
        <ele>134</ele>
        <time>2019-03-30T12:32:49Z</time>
      </trkpt>
      <trkpt lat="49.25729" lon="4.04477">
        <ele>134</ele>
        <time>2019-03-30T12:32:50Z</time>
      </trkpt>
      <trkpt lat="49.2573" lon="4.04485">
        <ele>135</ele>
        <time>2019-03-30T12:32:51Z</time>
      </trkpt>
      <trkpt lat="49.25731" lon="4.04492">
        <ele>136</ele>
        <time>2019-03-30T12:32:52Z</time>
      </trkpt>
      <trkpt lat="49.25731" lon="4.04502">
        <ele>137</ele>
        <time>2019-03-30T12:32:53Z</time>
      </trkpt>
      <trkpt lat="49.25731" lon="4.04508">
        <ele>138</ele>
        <time>2019-03-30T12:32:54Z</time>
      </trkpt>
      <trkpt lat="49.25729" lon="4.04516">
        <ele>138</ele>
        <time>2019-03-30T12:32:55Z</time>
      </trkpt>
      <trkpt lat="49.25728" lon="4.04523">
        <ele>137</ele>
        <time>2019-03-30T12:32:56Z</time>
      </trkpt>
      <trkpt lat="49.25727" lon="4.0453">
        <ele>137</ele>
        <time>2019-03-30T12:32:57Z</time>
      </trkpt>
      <trkpt lat="49.25726" lon="4.04537">
        <ele>137</ele>
        <time>2019-03-30T12:32:58Z</time>
      </trkpt>
      <trkpt lat="49.25726" lon="4.04545">
        <ele>137</ele>
        <time>2019-03-30T12:32:59Z</time>
      </trkpt>
      <trkpt lat="49.25725" lon="4.04552">
        <ele>137</ele>
        <time>2019-03-30T12:33:00Z</time>
      </trkpt>
      <trkpt lat="49.25725" lon="4.04559">
        <ele>136</ele>
        <time>2019-03-30T12:33:01Z</time>
      </trkpt>
      <trkpt lat="49.25726" lon="4.04566">
        <ele>136</ele>
        <time>2019-03-30T12:33:02Z</time>
      </trkpt>
      <trkpt lat="49.25725" lon="4.04574">
        <ele>136</ele>
        <time>2019-03-30T12:33:03Z</time>
      </trkpt>
      <trkpt lat="49.25725" lon="4.04581">
        <ele>136</ele>
        <time>2019-03-30T12:33:04Z</time>
      </trkpt>
      <trkpt lat="49.25725" lon="4.04588">
        <ele>135</ele>
        <time>2019-03-30T12:33:05Z</time>
      </trkpt>
      <trkpt lat="49.25725" lon="4.04594">
        <ele>136</ele>
        <time>2019-03-30T12:33:06Z</time>
      </trkpt>
      <trkpt lat="49.25726" lon="4.04601">
        <ele>136</ele>
        <time>2019-03-30T12:33:07Z</time>
      </trkpt>
      <trkpt lat="49.25725" lon="4.04608">
        <ele>136</ele>
        <time>2019-03-30T12:33:08Z</time>
      </trkpt>
      <trkpt lat="49.25725" lon="4.04614">
        <ele>137</ele>
        <time>2019-03-30T12:33:09Z</time>
      </trkpt>
      <trkpt lat="49.25725" lon="4.0462">
        <ele>137</ele>
        <time>2019-03-30T12:33:10Z</time>
      </trkpt>
      <trkpt lat="49.25725" lon="4.04626">
        <ele>137</ele>
        <time>2019-03-30T12:33:11Z</time>
      </trkpt>
      <trkpt lat="49.25725" lon="4.04633">
        <ele>137</ele>
        <time>2019-03-30T12:33:12Z</time>
      </trkpt>
      <trkpt lat="49.25726" lon="4.04639">
        <ele>138</ele>
        <time>2019-03-30T12:33:13Z</time>
      </trkpt>
      <trkpt lat="49.25726" lon="4.04647">
        <ele>139</ele>
        <time>2019-03-30T12:33:14Z</time>
      </trkpt>
      <trkpt lat="49.25727" lon="4.04651">
        <ele>141</ele>
        <time>2019-03-30T12:33:15Z</time>
      </trkpt>
      <trkpt lat="49.25728" lon="4.04658">
        <ele>141</ele>
        <time>2019-03-30T12:33:16Z</time>
      </trkpt>
      <trkpt lat="49.25729" lon="4.04666">
        <ele>141</ele>
        <time>2019-03-30T12:33:17Z</time>
      </trkpt>
      <trkpt lat="49.2573" lon="4.04675">
        <ele>141</ele>
        <time>2019-03-30T12:33:18Z</time>
      </trkpt>
      <trkpt lat="49.2573" lon="4.04683">
        <ele>141</ele>
        <time>2019-03-30T12:33:19Z</time>
      </trkpt>
      <trkpt lat="49.2573" lon="4.04691">
        <ele>141</ele>
        <time>2019-03-30T12:33:20Z</time>
      </trkpt>
      <trkpt lat="49.25731" lon="4.04699">
        <ele>141</ele>
        <time>2019-03-30T12:33:21Z</time>
      </trkpt>
      <trkpt lat="49.25731" lon="4.04706">
        <ele>141</ele>
        <time>2019-03-30T12:33:22Z</time>
      </trkpt>
      <trkpt lat="49.25731" lon="4.04713">
        <ele>141</ele>
        <time>2019-03-30T12:33:23Z</time>
      </trkpt>
      <trkpt lat="49.25731" lon="4.04721">
        <ele>141</ele>
        <time>2019-03-30T12:33:24Z</time>
      </trkpt>
      <trkpt lat="49.25732" lon="4.04727">
        <ele>140</ele>
        <time>2019-03-30T12:33:25Z</time>
      </trkpt>
      <trkpt lat="49.25734" lon="4.04734">
        <ele>140</ele>
        <time>2019-03-30T12:33:26Z</time>
      </trkpt>
      <trkpt lat="49.25735" lon="4.0474">
        <ele>141</ele>
        <time>2019-03-30T12:33:27Z</time>
      </trkpt>
      <trkpt lat="49.25734" lon="4.04747">
        <ele>141</ele>
        <time>2019-03-30T12:33:28Z</time>
      </trkpt>
      <trkpt lat="49.25734" lon="4.04754">
        <ele>141</ele>
        <time>2019-03-30T12:33:29Z</time>
      </trkpt>
      <trkpt lat="49.25734" lon="4.04761">
        <ele>140</ele>
        <time>2019-03-30T12:33:30Z</time>
      </trkpt>
      <trkpt lat="49.25733" lon="4.04768">
        <ele>140</ele>
        <time>2019-03-30T12:33:31Z</time>
      </trkpt>
      <trkpt lat="49.25733" lon="4.04776">
        <ele>140</ele>
        <time>2019-03-30T12:33:32Z</time>
      </trkpt>
      <trkpt lat="49.25734" lon="4.04785">
        <ele>141</ele>
        <time>2019-03-30T12:33:33Z</time>
      </trkpt>
      <trkpt lat="49.25736" lon="4.04792">
        <ele>141</ele>
        <time>2019-03-30T12:33:34Z</time>
      </trkpt>
      <trkpt lat="49.25738" lon="4.04799">
        <ele>140</ele>
        <time>2019-03-30T12:33:35Z</time>
      </trkpt>
      <trkpt lat="49.25739" lon="4.04806">
        <ele>140</ele>
        <time>2019-03-30T12:33:36Z</time>
      </trkpt>
      <trkpt lat="49.2574" lon="4.04813">
        <ele>140</ele>
        <time>2019-03-30T12:33:37Z</time>
      </trkpt>
      <trkpt lat="49.25741" lon="4.0482">
        <ele>140</ele>
        <time>2019-03-30T12:33:38Z</time>
      </trkpt>
      <trkpt lat="49.2574" lon="4.04829">
        <ele>140</ele>
        <time>2019-03-30T12:33:39Z</time>
      </trkpt>
      <trkpt lat="49.2574" lon="4.04836">
        <ele>140</ele>
        <time>2019-03-30T12:33:40Z</time>
      </trkpt>
      <trkpt lat="49.2574" lon="4.04844">
        <ele>140</ele>
        <time>2019-03-30T12:33:41Z</time>
      </trkpt>
      <trkpt lat="49.2574" lon="4.04851">
        <ele>140</ele>
        <time>2019-03-30T12:33:42Z</time>
      </trkpt>
      <trkpt lat="49.25741" lon="4.04859">
        <ele>140</ele>
        <time>2019-03-30T12:33:43Z</time>
      </trkpt>
      <trkpt lat="49.25741" lon="4.04866">
        <ele>140</ele>
        <time>2019-03-30T12:33:44Z</time>
      </trkpt>
      <trkpt lat="49.25742" lon="4.04873">
        <ele>139</ele>
        <time>2019-03-30T12:33:45Z</time>
      </trkpt>
      <trkpt lat="49.25743" lon="4.04881">
        <ele>139</ele>
        <time>2019-03-30T12:33:46Z</time>
      </trkpt>
      <trkpt lat="49.25744" lon="4.0489">
        <ele>139</ele>
        <time>2019-03-30T12:33:47Z</time>
      </trkpt>
      <trkpt lat="49.25745" lon="4.04897">
        <ele>139</ele>
        <time>2019-03-30T12:33:48Z</time>
      </trkpt>
      <trkpt lat="49.25746" lon="4.04905">
        <ele>139</ele>
        <time>2019-03-30T12:33:49Z</time>
      </trkpt>
      <trkpt lat="49.25746" lon="4.04913">
        <ele>139</ele>
        <time>2019-03-30T12:33:50Z</time>
      </trkpt>
      <trkpt lat="49.25747" lon="4.04919">
        <ele>139</ele>
        <time>2019-03-30T12:33:51Z</time>
      </trkpt>
      <trkpt lat="49.25747" lon="4.04926">
        <ele>139</ele>
        <time>2019-03-30T12:33:52Z</time>
      </trkpt>
      <trkpt lat="49.25748" lon="4.04933">
        <ele>139</ele>
        <time>2019-03-30T12:33:53Z</time>
      </trkpt>
      <trkpt lat="49.25748" lon="4.0494">
        <ele>139</ele>
        <time>2019-03-30T12:33:54Z</time>
      </trkpt>
      <trkpt lat="49.25749" lon="4.04947">
        <ele>139</ele>
        <time>2019-03-30T12:33:55Z</time>
      </trkpt>
      <trkpt lat="49.2575" lon="4.04953">
        <ele>139</ele>
        <time>2019-03-30T12:33:56Z</time>
      </trkpt>
      <trkpt lat="49.25751" lon="4.0496">
        <ele>139</ele>
        <time>2019-03-30T12:33:57Z</time>
      </trkpt>
      <trkpt lat="49.25752" lon="4.04966">
        <ele>139</ele>
        <time>2019-03-30T12:33:58Z</time>
      </trkpt>
      <trkpt lat="49.25752" lon="4.04973">
        <ele>138</ele>
        <time>2019-03-30T12:33:59Z</time>
      </trkpt>
      <trkpt lat="49.25753" lon="4.0498">
        <ele>139</ele>
        <time>2019-03-30T12:34:00Z</time>
      </trkpt>
      <trkpt lat="49.25753" lon="4.04987">
        <ele>139</ele>
        <time>2019-03-30T12:34:01Z</time>
      </trkpt>
      <trkpt lat="49.25754" lon="4.04994">
        <ele>139</ele>
        <time>2019-03-30T12:34:02Z</time>
      </trkpt>
      <trkpt lat="49.25754" lon="4.05001">
        <ele>139</ele>
        <time>2019-03-30T12:34:03Z</time>
      </trkpt>
      <trkpt lat="49.25755" lon="4.05008">
        <ele>139</ele>
        <time>2019-03-30T12:34:04Z</time>
      </trkpt>
      <trkpt lat="49.25755" lon="4.05015">
        <ele>139</ele>
        <time>2019-03-30T12:34:05Z</time>
      </trkpt>
      <trkpt lat="49.25756" lon="4.05022">
        <ele>139</ele>
        <time>2019-03-30T12:34:06Z</time>
      </trkpt>
      <trkpt lat="49.25758" lon="4.05029">
        <ele>139</ele>
        <time>2019-03-30T12:34:07Z</time>
      </trkpt>
      <trkpt lat="49.25759" lon="4.05036">
        <ele>139</ele>
        <time>2019-03-30T12:34:08Z</time>
      </trkpt>
      <trkpt lat="49.2576" lon="4.05043">
        <ele>139</ele>
        <time>2019-03-30T12:34:09Z</time>
      </trkpt>
      <trkpt lat="49.25761" lon="4.0505">
        <ele>139</ele>
        <time>2019-03-30T12:34:10Z</time>
      </trkpt>
      <trkpt lat="49.25762" lon="4.05056">
        <ele>139</ele>
        <time>2019-03-30T12:34:11Z</time>
      </trkpt>
      <trkpt lat="49.25763" lon="4.05063">
        <ele>139</ele>
        <time>2019-03-30T12:34:12Z</time>
      </trkpt>
      <trkpt lat="49.25764" lon="4.05069">
        <ele>139</ele>
        <time>2019-03-30T12:34:13Z</time>
      </trkpt>
      <trkpt lat="49.25764" lon="4.05076">
        <ele>139</ele>
        <time>2019-03-30T12:34:14Z</time>
      </trkpt>
      <trkpt lat="49.25764" lon="4.05082">
        <ele>139</ele>
        <time>2019-03-30T12:34:15Z</time>
      </trkpt>
      <trkpt lat="49.25763" lon="4.05088">
        <ele>139</ele>
        <time>2019-03-30T12:34:16Z</time>
      </trkpt>
      <trkpt lat="49.25763" lon="4.05095">
        <ele>139</ele>
        <time>2019-03-30T12:34:17Z</time>
      </trkpt>
      <trkpt lat="49.25764" lon="4.05102">
        <ele>139</ele>
        <time>2019-03-30T12:34:18Z</time>
      </trkpt>
      <trkpt lat="49.25765" lon="4.05108">
        <ele>139</ele>
        <time>2019-03-30T12:34:19Z</time>
      </trkpt>
      <trkpt lat="49.25765" lon="4.05114">
        <ele>139</ele>
        <time>2019-03-30T12:34:20Z</time>
      </trkpt>
      <trkpt lat="49.25765" lon="4.0512">
        <ele>140</ele>
        <time>2019-03-30T12:34:21Z</time>
      </trkpt>
      <trkpt lat="49.25766" lon="4.05126">
        <ele>140</ele>
        <time>2019-03-30T12:34:22Z</time>
      </trkpt>
      <trkpt lat="49.25766" lon="4.05132">
        <ele>139</ele>
        <time>2019-03-30T12:34:23Z</time>
      </trkpt>
      <trkpt lat="49.25767" lon="4.05138">
        <ele>139</ele>
        <time>2019-03-30T12:34:24Z</time>
      </trkpt>
      <trkpt lat="49.25767" lon="4.05144">
        <ele>139</ele>
        <time>2019-03-30T12:34:25Z</time>
      </trkpt>
      <trkpt lat="49.25768" lon="4.05151">
        <ele>139</ele>
        <time>2019-03-30T12:34:26Z</time>
      </trkpt>
      <trkpt lat="49.25769" lon="4.05157">
        <ele>139</ele>
        <time>2019-03-30T12:34:27Z</time>
      </trkpt>
      <trkpt lat="49.2577" lon="4.05163">
        <ele>139</ele>
        <time>2019-03-30T12:34:28Z</time>
      </trkpt>
      <trkpt lat="49.25771" lon="4.05169">
        <ele>139</ele>
        <time>2019-03-30T12:34:29Z</time>
      </trkpt>
      <trkpt lat="49.25772" lon="4.05175">
        <ele>139</ele>
        <time>2019-03-30T12:34:30Z</time>
      </trkpt>
      <trkpt lat="49.25773" lon="4.05181">
        <ele>140</ele>
        <time>2019-03-30T12:34:31Z</time>
      </trkpt>
      <trkpt lat="49.25773" lon="4.05188">
        <ele>140</ele>
        <time>2019-03-30T12:34:32Z</time>
      </trkpt>
      <trkpt lat="49.25774" lon="4.05195">
        <ele>140</ele>
        <time>2019-03-30T12:34:33Z</time>
      </trkpt>
      <trkpt lat="49.25776" lon="4.05199">
        <ele>140</ele>
        <time>2019-03-30T12:34:34Z</time>
      </trkpt>
      <trkpt lat="49.25778" lon="4.05207">
        <ele>141</ele>
        <time>2019-03-30T12:34:35Z</time>
      </trkpt>
      <trkpt lat="49.25779" lon="4.05214">
        <ele>141</ele>
        <time>2019-03-30T12:34:36Z</time>
      </trkpt>
      <trkpt lat="49.2578" lon="4.05221">
        <ele>141</ele>
        <time>2019-03-30T12:34:37Z</time>
      </trkpt>
      <trkpt lat="49.2578" lon="4.05228">
        <ele>141</ele>
        <time>2019-03-30T12:34:38Z</time>
      </trkpt>
      <trkpt lat="49.2578" lon="4.05235">
        <ele>141</ele>
        <time>2019-03-30T12:34:39Z</time>
      </trkpt>
      <trkpt lat="49.25781" lon="4.0524">
        <ele>141</ele>
        <time>2019-03-30T12:34:40Z</time>
      </trkpt>
      <trkpt lat="49.25781" lon="4.05247">
        <ele>141</ele>
        <time>2019-03-30T12:34:41Z</time>
      </trkpt>
      <trkpt lat="49.25782" lon="4.05254">
        <ele>142</ele>
        <time>2019-03-30T12:34:42Z</time>
      </trkpt>
      <trkpt lat="49.25783" lon="4.05261">
        <ele>142</ele>
        <time>2019-03-30T12:34:43Z</time>
      </trkpt>
      <trkpt lat="49.25784" lon="4.05267">
        <ele>142</ele>
        <time>2019-03-30T12:34:44Z</time>
      </trkpt>
      <trkpt lat="49.25784" lon="4.05274">
        <ele>142</ele>
        <time>2019-03-30T12:34:45Z</time>
      </trkpt>
      <trkpt lat="49.25784" lon="4.0528">
        <ele>142</ele>
        <time>2019-03-30T12:34:46Z</time>
      </trkpt>
      <trkpt lat="49.25785" lon="4.05287">
        <ele>142</ele>
        <time>2019-03-30T12:34:47Z</time>
      </trkpt>
      <trkpt lat="49.25785" lon="4.05293">
        <ele>142</ele>
        <time>2019-03-30T12:34:48Z</time>
      </trkpt>
      <trkpt lat="49.25785" lon="4.053">
        <ele>142</ele>
        <time>2019-03-30T12:34:49Z</time>
      </trkpt>
      <trkpt lat="49.25786" lon="4.05307">
        <ele>142</ele>
        <time>2019-03-30T12:34:50Z</time>
      </trkpt>
      <trkpt lat="49.25787" lon="4.05313">
        <ele>142</ele>
        <time>2019-03-30T12:34:51Z</time>
      </trkpt>
      <trkpt lat="49.25786" lon="4.05319">
        <ele>142</ele>
        <time>2019-03-30T12:34:52Z</time>
      </trkpt>
      <trkpt lat="49.25786" lon="4.05324">
        <ele>143</ele>
        <time>2019-03-30T12:34:53Z</time>
      </trkpt>
      <trkpt lat="49.25787" lon="4.05329">
        <ele>143</ele>
        <time>2019-03-30T12:34:54Z</time>
      </trkpt>
      <trkpt lat="49.25788" lon="4.05333">
        <ele>143</ele>
        <time>2019-03-30T12:34:55Z</time>
      </trkpt>
      <trkpt lat="49.25788" lon="4.05338">
        <ele>143</ele>
        <time>2019-03-30T12:34:56Z</time>
      </trkpt>
      <trkpt lat="49.25789" lon="4.05342">
        <ele>143</ele>
        <time>2019-03-30T12:34:57Z</time>
      </trkpt>
      <trkpt lat="49.25789" lon="4.05347">
        <ele>143</ele>
        <time>2019-03-30T12:34:58Z</time>
      </trkpt>
      <trkpt lat="49.2579" lon="4.05351">
        <ele>143</ele>
        <time>2019-03-30T12:34:59Z</time>
      </trkpt>
      <trkpt lat="49.2579" lon="4.05355">
        <ele>143</ele>
        <time>2019-03-30T12:35:00Z</time>
      </trkpt>
      <trkpt lat="49.2579" lon="4.05359">
        <ele>142</ele>
        <time>2019-03-30T12:35:01Z</time>
      </trkpt>
      <trkpt lat="49.25791" lon="4.05362">
        <ele>142</ele>
        <time>2019-03-30T12:35:02Z</time>
      </trkpt>
      <trkpt lat="49.25792" lon="4.05365">
        <ele>143</ele>
        <time>2019-03-30T12:35:03Z</time>
      </trkpt>
      <trkpt lat="49.25793" lon="4.05368">
        <ele>143</ele>
        <time>2019-03-30T12:35:04Z</time>
      </trkpt>
      <trkpt lat="49.25793" lon="4.05372">
        <ele>143</ele>
        <time>2019-03-30T12:35:05Z</time>
      </trkpt>
      <trkpt lat="49.25792" lon="4.05375">
        <ele>143</ele>
        <time>2019-03-30T12:35:06Z</time>
      </trkpt>
      <trkpt lat="49.25792" lon="4.05378">
        <ele>143</ele>
        <time>2019-03-30T12:35:07Z</time>
      </trkpt>
      <trkpt lat="49.25792" lon="4.05382">
        <ele>144</ele>
        <time>2019-03-30T12:35:08Z</time>
      </trkpt>
      <trkpt lat="49.25793" lon="4.05385">
        <ele>144</ele>
        <time>2019-03-30T12:35:09Z</time>
      </trkpt>
      <trkpt lat="49.25793" lon="4.05388">
        <ele>144</ele>
        <time>2019-03-30T12:35:10Z</time>
      </trkpt>
      <trkpt lat="49.25793" lon="4.05391">
        <ele>144</ele>
        <time>2019-03-30T12:35:11Z</time>
      </trkpt>
      <trkpt lat="49.25793" lon="4.05394">
        <ele>144</ele>
        <time>2019-03-30T12:35:12Z</time>
      </trkpt>
      <trkpt lat="49.25793" lon="4.05396">
        <ele>143</ele>
        <time>2019-03-30T12:35:13Z</time>
      </trkpt>
      <trkpt lat="49.25794" lon="4.05399">
        <ele>143</ele>
        <time>2019-03-30T12:35:14Z</time>
      </trkpt>
      <trkpt lat="49.25794" lon="4.05401">
        <ele>143</ele>
        <time>2019-03-30T12:35:15Z</time>
      </trkpt>
      <trkpt lat="49.25794" lon="4.05402">
        <ele>143</ele>
        <time>2019-03-30T12:35:16Z</time>
      </trkpt>
      <trkpt lat="49.25794" lon="4.05402">
        <ele>143</ele>
        <time>2019-03-30T12:35:17Z</time>
      </trkpt>
      <trkpt lat="49.25794" lon="4.05403">
        <ele>143</ele>
        <time>2019-03-30T12:35:18Z</time>
      </trkpt>
      <trkpt lat="49.25793" lon="4.05404">
        <ele>143</ele>
        <time>2019-03-30T12:35:19Z</time>
      </trkpt>
      <trkpt lat="49.25793" lon="4.05405">
        <ele>143</ele>
        <time>2019-03-30T12:35:20Z</time>
      </trkpt>
      <trkpt lat="49.25793" lon="4.05407">
        <ele>143</ele>
        <time>2019-03-30T12:35:21Z</time>
      </trkpt>
      <trkpt lat="49.25794" lon="4.0541">
        <ele>143</ele>
        <time>2019-03-30T12:35:22Z</time>
      </trkpt>
      <trkpt lat="49.25794" lon="4.05413">
        <ele>143</ele>
        <time>2019-03-30T12:35:23Z</time>
      </trkpt>
      <trkpt lat="49.25795" lon="4.05416">
        <ele>143</ele>
        <time>2019-03-30T12:35:24Z</time>
      </trkpt>
      <trkpt lat="49.25795" lon="4.05419">
        <ele>143</ele>
        <time>2019-03-30T12:35:25Z</time>
      </trkpt>
      <trkpt lat="49.25796" lon="4.05423">
        <ele>143</ele>
        <time>2019-03-30T12:35:26Z</time>
      </trkpt>
      <trkpt lat="49.25796" lon="4.05426">
        <ele>143</ele>
        <time>2019-03-30T12:35:27Z</time>
      </trkpt>
      <trkpt lat="49.25795" lon="4.05427">
        <ele>143</ele>
        <time>2019-03-30T12:35:28Z</time>
      </trkpt>
      <trkpt lat="49.25796" lon="4.05427">
        <ele>143</ele>
        <time>2019-03-30T12:35:29Z</time>
      </trkpt>
      <trkpt lat="49.25796" lon="4.05428">
        <ele>143</ele>
        <time>2019-03-30T12:35:30Z</time>
      </trkpt>
      <trkpt lat="49.25795" lon="4.0543">
        <ele>143</ele>
        <time>2019-03-30T12:35:31Z</time>
      </trkpt>
      <trkpt lat="49.25795" lon="4.05432">
        <ele>143</ele>
        <time>2019-03-30T12:35:32Z</time>
      </trkpt>
      <trkpt lat="49.25796" lon="4.05434">
        <ele>143</ele>
        <time>2019-03-30T12:35:33Z</time>
      </trkpt>
      <trkpt lat="49.25796" lon="4.05435">
        <ele>142</ele>
        <time>2019-03-30T12:35:34Z</time>
      </trkpt>
      <trkpt lat="49.25796" lon="4.05436">
        <ele>142</ele>
        <time>2019-03-30T12:35:35Z</time>
      </trkpt>
      <trkpt lat="49.25796" lon="4.05438">
        <ele>141</ele>
        <time>2019-03-30T12:35:36Z</time>
      </trkpt>
      <trkpt lat="49.25796" lon="4.05439">
        <ele>141</ele>
        <time>2019-03-30T12:35:37Z</time>
      </trkpt>
      <trkpt lat="49.25796" lon="4.0544">
        <ele>142</ele>
        <time>2019-03-30T12:35:38Z</time>
      </trkpt>
      <trkpt lat="49.25795" lon="4.05439">
        <ele>142</ele>
        <time>2019-03-30T12:35:39Z</time>
      </trkpt>
      <trkpt lat="49.25795" lon="4.05439">
        <ele>142</ele>
        <time>2019-03-30T12:35:40Z</time>
      </trkpt>
      <trkpt lat="49.25795" lon="4.05439">
        <ele>142</ele>
        <time>2019-03-30T12:35:41Z</time>
      </trkpt>
      <trkpt lat="49.25795" lon="4.05439">
        <ele>142</ele>
        <time>2019-03-30T12:35:42Z</time>
      </trkpt>
      <trkpt lat="49.25795" lon="4.05439">
        <ele>142</ele>
        <time>2019-03-30T12:35:43Z</time>
      </trkpt>
      <trkpt lat="49.25795" lon="4.05439">
        <ele>142</ele>
        <time>2019-03-30T12:35:44Z</time>
      </trkpt>
      <trkpt lat="49.25795" lon="4.05439">
        <ele>142</ele>
        <time>2019-03-30T12:35:45Z</time>
      </trkpt>
      <trkpt lat="49.25795" lon="4.05439">
        <ele>142</ele>
        <time>2019-03-30T12:35:46Z</time>
      </trkpt>
      <trkpt lat="49.25795" lon="4.05439">
        <ele>142</ele>
        <time>2019-03-30T12:35:47Z</time>
      </trkpt>
      <trkpt lat="49.25794" lon="4.05438">
        <ele>142</ele>
        <time>2019-03-30T12:35:48Z</time>
      </trkpt>
      <trkpt lat="49.25793" lon="4.05437">
        <ele>142</ele>
        <time>2019-03-30T12:35:49Z</time>
      </trkpt>
      <trkpt lat="49.25794" lon="4.05437">
        <ele>142</ele>
        <time>2019-03-30T12:35:50Z</time>
      </trkpt>
      <trkpt lat="49.25793" lon="4.05438">
        <ele>142</ele>
        <time>2019-03-30T12:35:51Z</time>
      </trkpt>
      <trkpt lat="49.25793" lon="4.05439">
        <ele>143</ele>
        <time>2019-03-30T12:35:52Z</time>
      </trkpt>
      <trkpt lat="49.25794" lon="4.0544">
        <ele>143</ele>
        <time>2019-03-30T12:35:53Z</time>
      </trkpt>
      <trkpt lat="49.25795" lon="4.05442">
        <ele>143</ele>
        <time>2019-03-30T12:35:54Z</time>
      </trkpt>
      <trkpt lat="49.25795" lon="4.05445">
        <ele>143</ele>
        <time>2019-03-30T12:35:55Z</time>
      </trkpt>
      <trkpt lat="49.25795" lon="4.05448">
        <ele>143</ele>
        <time>2019-03-30T12:35:56Z</time>
      </trkpt>
      <trkpt lat="49.25795" lon="4.05451">
        <ele>143</ele>
        <time>2019-03-30T12:35:57Z</time>
      </trkpt>
      <trkpt lat="49.25796" lon="4.05454">
        <ele>142</ele>
        <time>2019-03-30T12:35:58Z</time>
      </trkpt>
      <trkpt lat="49.25796" lon="4.05458">
        <ele>142</ele>
        <time>2019-03-30T12:35:59Z</time>
      </trkpt>
      <trkpt lat="49.25797" lon="4.05463">
        <ele>142</ele>
        <time>2019-03-30T12:36:00Z</time>
      </trkpt>
      <trkpt lat="49.25796" lon="4.05469">
        <ele>142</ele>
        <time>2019-03-30T12:36:01Z</time>
      </trkpt>
      <trkpt lat="49.25797" lon="4.05474">
        <ele>142</ele>
        <time>2019-03-30T12:36:02Z</time>
      </trkpt>
      <trkpt lat="49.25797" lon="4.05481">
        <ele>142</ele>
        <time>2019-03-30T12:36:03Z</time>
      </trkpt>
      <trkpt lat="49.25797" lon="4.05486">
        <ele>142</ele>
        <time>2019-03-30T12:36:04Z</time>
      </trkpt>
      <trkpt lat="49.25797" lon="4.05491">
        <ele>142</ele>
        <time>2019-03-30T12:36:05Z</time>
      </trkpt>
      <trkpt lat="49.25797" lon="4.05497">
        <ele>142</ele>
        <time>2019-03-30T12:36:06Z</time>
      </trkpt>
      <trkpt lat="49.25799" lon="4.05503">
        <ele>143</ele>
        <time>2019-03-30T12:36:07Z</time>
      </trkpt>
      <trkpt lat="49.25799" lon="4.0551">
        <ele>143</ele>
        <time>2019-03-30T12:36:08Z</time>
      </trkpt>
      <trkpt lat="49.25799" lon="4.05518">
        <ele>143</ele>
        <time>2019-03-30T12:36:09Z</time>
      </trkpt>
      <trkpt lat="49.25799" lon="4.05525">
        <ele>143</ele>
        <time>2019-03-30T12:36:10Z</time>
      </trkpt>
      <trkpt lat="49.25799" lon="4.05534">
        <ele>143</ele>
        <time>2019-03-30T12:36:11Z</time>
      </trkpt>
      <trkpt lat="49.25798" lon="4.05542">
        <ele>143</ele>
        <time>2019-03-30T12:36:12Z</time>
      </trkpt>
      <trkpt lat="49.25797" lon="4.05549">
        <ele>143</ele>
        <time>2019-03-30T12:36:13Z</time>
      </trkpt>
      <trkpt lat="49.25796" lon="4.05555">
        <ele>143</ele>
        <time>2019-03-30T12:36:14Z</time>
      </trkpt>
      <trkpt lat="49.25794" lon="4.05561">
        <ele>143</ele>
        <time>2019-03-30T12:36:15Z</time>
      </trkpt>
      <trkpt lat="49.25794" lon="4.05565">
        <ele>143</ele>
        <time>2019-03-30T12:36:16Z</time>
      </trkpt>
      <trkpt lat="49.25794" lon="4.05569">
        <ele>143</ele>
        <time>2019-03-30T12:36:17Z</time>
      </trkpt>
      <trkpt lat="49.25793" lon="4.05571">
        <ele>143</ele>
        <time>2019-03-30T12:36:18Z</time>
      </trkpt>
      <trkpt lat="49.25793" lon="4.05573">
        <ele>143</ele>
        <time>2019-03-30T12:36:19Z</time>
      </trkpt>
      <trkpt lat="49.25793" lon="4.05574">
        <ele>144</ele>
        <time>2019-03-30T12:36:20Z</time>
      </trkpt>
      <trkpt lat="49.25793" lon="4.05576">
        <ele>144</ele>
        <time>2019-03-30T12:36:21Z</time>
      </trkpt>
      <trkpt lat="49.25793" lon="4.05576">
        <ele>144</ele>
        <time>2019-03-30T12:36:22Z</time>
      </trkpt>
      <trkpt lat="49.25793" lon="4.05576">
        <ele>144</ele>
        <time>2019-03-30T12:36:23Z</time>
      </trkpt>
      <trkpt lat="49.25792" lon="4.05575">
        <ele>143</ele>
        <time>2019-03-30T12:36:24Z</time>
      </trkpt>
      <trkpt lat="49.25792" lon="4.05575">
        <ele>143</ele>
        <time>2019-03-30T12:36:25Z</time>
      </trkpt>
      <trkpt lat="49.25792" lon="4.05575">
        <ele>143</ele>
        <time>2019-03-30T12:36:26Z</time>
      </trkpt>
      <trkpt lat="49.25792" lon="4.05575">
        <ele>143</ele>
        <time>2019-03-30T12:36:27Z</time>
      </trkpt>
      <trkpt lat="49.25792" lon="4.05575">
        <ele>143</ele>
        <time>2019-03-30T12:36:28Z</time>
      </trkpt>
      <trkpt lat="49.25792" lon="4.05575">
        <ele>143</ele>
        <time>2019-03-30T12:36:29Z</time>
      </trkpt>
      <trkpt lat="49.25792" lon="4.05575">
        <ele>143</ele>
        <time>2019-03-30T12:36:30Z</time>
      </trkpt>
      <trkpt lat="49.25792" lon="4.05575">
        <ele>143</ele>
        <time>2019-03-30T12:36:31Z</time>
      </trkpt>
      <trkpt lat="49.25792" lon="4.05575">
        <ele>143</ele>
        <time>2019-03-30T12:36:32Z</time>
      </trkpt>
      <trkpt lat="49.25792" lon="4.05575">
        <ele>143</ele>
        <time>2019-03-30T12:36:33Z</time>
      </trkpt>
      <trkpt lat="49.25792" lon="4.05575">
        <ele>143</ele>
        <time>2019-03-30T12:36:34Z</time>
      </trkpt>
      <trkpt lat="49.25792" lon="4.05575">
        <ele>143</ele>
        <time>2019-03-30T12:36:35Z</time>
      </trkpt>
      <trkpt lat="49.25792" lon="4.05575">
        <ele>143</ele>
        <time>2019-03-30T12:36:36Z</time>
      </trkpt>
      <trkpt lat="49.25792" lon="4.05575">
        <ele>143</ele>
        <time>2019-03-30T12:36:37Z</time>
      </trkpt>
      <trkpt lat="49.25792" lon="4.05575">
        <ele>143</ele>
        <time>2019-03-30T12:36:38Z</time>
      </trkpt>
      <trkpt lat="49.25792" lon="4.05575">
        <ele>143</ele>
        <time>2019-03-30T12:36:39Z</time>
      </trkpt>
      <trkpt lat="49.25792" lon="4.05575">
        <ele>143</ele>
        <time>2019-03-30T12:36:40Z</time>
      </trkpt>
      <trkpt lat="49.25792" lon="4.05575">
        <ele>143</ele>
        <time>2019-03-30T12:36:41Z</time>
      </trkpt>
      <trkpt lat="49.25792" lon="4.05575">
        <ele>143</ele>
        <time>2019-03-30T12:36:42Z</time>
      </trkpt>
      <trkpt lat="49.25792" lon="4.05575">
        <ele>143</ele>
        <time>2019-03-30T12:36:43Z</time>
      </trkpt>
      <trkpt lat="49.25792" lon="4.05575">
        <ele>143</ele>
        <time>2019-03-30T12:36:44Z</time>
      </trkpt>
      <trkpt lat="49.25792" lon="4.05575">
        <ele>143</ele>
        <time>2019-03-30T12:36:45Z</time>
      </trkpt>
      <trkpt lat="49.25792" lon="4.05575">
        <ele>143</ele>
        <time>2019-03-30T12:36:46Z</time>
      </trkpt>
      <trkpt lat="49.25792" lon="4.05575">
        <ele>143</ele>
        <time>2019-03-30T12:36:47Z</time>
      </trkpt>
      <trkpt lat="49.25792" lon="4.05575">
        <ele>143</ele>
        <time>2019-03-30T12:36:48Z</time>
      </trkpt>
      <trkpt lat="49.25792" lon="4.05575">
        <ele>143</ele>
        <time>2019-03-30T12:36:49Z</time>
      </trkpt>
      <trkpt lat="49.25792" lon="4.05575">
        <ele>143</ele>
        <time>2019-03-30T12:36:50Z</time>
      </trkpt>
      <trkpt lat="49.25792" lon="4.05575">
        <ele>143</ele>
        <time>2019-03-30T12:36:51Z</time>
      </trkpt>
      <trkpt lat="49.25792" lon="4.05575">
        <ele>143</ele>
        <time>2019-03-30T12:36:52Z</time>
      </trkpt>
      <trkpt lat="49.25792" lon="4.05575">
        <ele>143</ele>
        <time>2019-03-30T12:36:53Z</time>
      </trkpt>
      <trkpt lat="49.25792" lon="4.05575">
        <ele>143</ele>
        <time>2019-03-30T12:36:54Z</time>
      </trkpt>
      <trkpt lat="49.25792" lon="4.05575">
        <ele>143</ele>
        <time>2019-03-30T12:36:55Z</time>
      </trkpt>
      <trkpt lat="49.25792" lon="4.05575">
        <ele>143</ele>
        <time>2019-03-30T12:36:56Z</time>
      </trkpt>
      <trkpt lat="49.25792" lon="4.05575">
        <ele>143</ele>
        <time>2019-03-30T12:36:57Z</time>
      </trkpt>
      <trkpt lat="49.25792" lon="4.05575">
        <ele>143</ele>
        <time>2019-03-30T12:36:58Z</time>
      </trkpt>
      <trkpt lat="49.25792" lon="4.05575">
        <ele>143</ele>
        <time>2019-03-30T12:36:59Z</time>
      </trkpt>
      <trkpt lat="49.25792" lon="4.05575">
        <ele>143</ele>
        <time>2019-03-30T12:37:00Z</time>
      </trkpt>
      <trkpt lat="49.25792" lon="4.05575">
        <ele>143</ele>
        <time>2019-03-30T12:37:01Z</time>
      </trkpt>
      <trkpt lat="49.25792" lon="4.05575">
        <ele>143</ele>
        <time>2019-03-30T12:37:02Z</time>
      </trkpt>
      <trkpt lat="49.25792" lon="4.05575">
        <ele>143</ele>
        <time>2019-03-30T12:37:03Z</time>
      </trkpt>
      <trkpt lat="49.25792" lon="4.05575">
        <ele>143</ele>
        <time>2019-03-30T12:37:04Z</time>
      </trkpt>
      <trkpt lat="49.25792" lon="4.05575">
        <ele>143</ele>
        <time>2019-03-30T12:37:05Z</time>
      </trkpt>
      <trkpt lat="49.25792" lon="4.05575">
        <ele>143</ele>
        <time>2019-03-30T12:37:06Z</time>
      </trkpt>
      <trkpt lat="49.25792" lon="4.05575">
        <ele>143</ele>
        <time>2019-03-30T12:37:07Z</time>
      </trkpt>
      <trkpt lat="49.25792" lon="4.05575">
        <ele>143</ele>
        <time>2019-03-30T12:37:08Z</time>
      </trkpt>
      <trkpt lat="49.25792" lon="4.05575">
        <ele>143</ele>
        <time>2019-03-30T12:37:09Z</time>
      </trkpt>
      <trkpt lat="49.25792" lon="4.05575">
        <ele>143</ele>
        <time>2019-03-30T12:37:10Z</time>
      </trkpt>
      <trkpt lat="49.25792" lon="4.05575">
        <ele>143</ele>
        <time>2019-03-30T12:37:11Z</time>
      </trkpt>
      <trkpt lat="49.25792" lon="4.05575">
        <ele>143</ele>
        <time>2019-03-30T12:37:12Z</time>
      </trkpt>
      <trkpt lat="49.25792" lon="4.05575">
        <ele>143</ele>
        <time>2019-03-30T12:37:13Z</time>
      </trkpt>
      <trkpt lat="49.25792" lon="4.05575">
        <ele>143</ele>
        <time>2019-03-30T12:37:14Z</time>
      </trkpt>
      <trkpt lat="49.25792" lon="4.05575">
        <ele>143</ele>
        <time>2019-03-30T12:37:15Z</time>
      </trkpt>
      <trkpt lat="49.25792" lon="4.05575">
        <ele>143</ele>
        <time>2019-03-30T12:37:16Z</time>
      </trkpt>
      <trkpt lat="49.25792" lon="4.05575">
        <ele>143</ele>
        <time>2019-03-30T12:37:17Z</time>
      </trkpt>
      <trkpt lat="49.25792" lon="4.05575">
        <ele>143</ele>
        <time>2019-03-30T12:37:18Z</time>
      </trkpt>
      <trkpt lat="49.25792" lon="4.05575">
        <ele>143</ele>
        <time>2019-03-30T12:37:19Z</time>
      </trkpt>
      <trkpt lat="49.25792" lon="4.05575">
        <ele>143</ele>
        <time>2019-03-30T12:37:20Z</time>
      </trkpt>
      <trkpt lat="49.25792" lon="4.05575">
        <ele>143</ele>
        <time>2019-03-30T12:37:21Z</time>
      </trkpt>
      <trkpt lat="49.25792" lon="4.05575">
        <ele>143</ele>
        <time>2019-03-30T12:37:22Z</time>
      </trkpt>
      <trkpt lat="49.25792" lon="4.05575">
        <ele>143</ele>
        <time>2019-03-30T12:37:23Z</time>
      </trkpt>
      <trkpt lat="49.25792" lon="4.05575">
        <ele>143</ele>
        <time>2019-03-30T12:37:24Z</time>
      </trkpt>
      <trkpt lat="49.25792" lon="4.05575">
        <ele>143</ele>
        <time>2019-03-30T12:37:25Z</time>
      </trkpt>
      <trkpt lat="49.25792" lon="4.05575">
        <ele>143</ele>
        <time>2019-03-30T12:37:26Z</time>
      </trkpt>
      <trkpt lat="49.25792" lon="4.05575">
        <ele>143</ele>
        <time>2019-03-30T12:37:27Z</time>
      </trkpt>
      <trkpt lat="49.25792" lon="4.05575">
        <ele>143</ele>
        <time>2019-03-30T12:37:28Z</time>
      </trkpt>
      <trkpt lat="49.25792" lon="4.05575">
        <ele>143</ele>
        <time>2019-03-30T12:37:29Z</time>
      </trkpt>
      <trkpt lat="49.25792" lon="4.05575">
        <ele>143</ele>
        <time>2019-03-30T12:37:30Z</time>
      </trkpt>
      <trkpt lat="49.25792" lon="4.05575">
        <ele>143</ele>
        <time>2019-03-30T12:37:31Z</time>
      </trkpt>
      <trkpt lat="49.25792" lon="4.05575">
        <ele>143</ele>
        <time>2019-03-30T12:37:32Z</time>
      </trkpt>
      <trkpt lat="49.25792" lon="4.05575">
        <ele>143</ele>
        <time>2019-03-30T12:37:33Z</time>
      </trkpt>
      <trkpt lat="49.25792" lon="4.05576">
        <ele>143</ele>
        <time>2019-03-30T12:37:34Z</time>
      </trkpt>
      <trkpt lat="49.25792" lon="4.05577">
        <ele>143</ele>
        <time>2019-03-30T12:37:35Z</time>
      </trkpt>
      <trkpt lat="49.25793" lon="4.0558">
        <ele>144</ele>
        <time>2019-03-30T12:37:36Z</time>
      </trkpt>
      <trkpt lat="49.25792" lon="4.05583">
        <ele>144</ele>
        <time>2019-03-30T12:37:37Z</time>
      </trkpt>
      <trkpt lat="49.25792" lon="4.05586">
        <ele>144</ele>
        <time>2019-03-30T12:37:38Z</time>
      </trkpt>
      <trkpt lat="49.25792" lon="4.0559">
        <ele>144</ele>
        <time>2019-03-30T12:37:39Z</time>
      </trkpt>
      <trkpt lat="49.25791" lon="4.05595">
        <ele>144</ele>
        <time>2019-03-30T12:37:40Z</time>
      </trkpt>
      <trkpt lat="49.25791" lon="4.056">
        <ele>144</ele>
        <time>2019-03-30T12:37:41Z</time>
      </trkpt>
      <trkpt lat="49.25788" lon="4.05607">
        <ele>143</ele>
        <time>2019-03-30T12:37:42Z</time>
      </trkpt>
      <trkpt lat="49.25787" lon="4.05616">
        <ele>144</ele>
        <time>2019-03-30T12:37:43Z</time>
      </trkpt>
      <trkpt lat="49.25787" lon="4.05626">
        <ele>145</ele>
        <time>2019-03-30T12:37:44Z</time>
      </trkpt>
      <trkpt lat="49.25787" lon="4.05636">
        <ele>145</ele>
        <time>2019-03-30T12:37:45Z</time>
      </trkpt>
      <trkpt lat="49.25786" lon="4.05646">
        <ele>145</ele>
        <time>2019-03-30T12:37:46Z</time>
      </trkpt>
      <trkpt lat="49.25785" lon="4.05656">
        <ele>144</ele>
        <time>2019-03-30T12:37:47Z</time>
      </trkpt>
      <trkpt lat="49.25784" lon="4.05664">
        <ele>145</ele>
        <time>2019-03-30T12:37:48Z</time>
      </trkpt>
      <trkpt lat="49.25783" lon="4.05673">
        <ele>145</ele>
        <time>2019-03-30T12:37:49Z</time>
      </trkpt>
      <trkpt lat="49.25781" lon="4.05682">
        <ele>145</ele>
        <time>2019-03-30T12:37:50Z</time>
      </trkpt>
      <trkpt lat="49.2578" lon="4.0569">
        <ele>145</ele>
        <time>2019-03-30T12:37:51Z</time>
      </trkpt>
      <trkpt lat="49.25779" lon="4.05698">
        <ele>145</ele>
        <time>2019-03-30T12:37:52Z</time>
      </trkpt>
      <trkpt lat="49.25778" lon="4.05707">
        <ele>145</ele>
        <time>2019-03-30T12:37:53Z</time>
      </trkpt>
      <trkpt lat="49.25777" lon="4.05716">
        <ele>145</ele>
        <time>2019-03-30T12:37:54Z</time>
      </trkpt>
      <trkpt lat="49.25776" lon="4.05725">
        <ele>145</ele>
        <time>2019-03-30T12:37:55Z</time>
      </trkpt>
      <trkpt lat="49.25775" lon="4.05733">
        <ele>145</ele>
        <time>2019-03-30T12:37:56Z</time>
      </trkpt>
      <trkpt lat="49.25775" lon="4.05741">
        <ele>145</ele>
        <time>2019-03-30T12:37:57Z</time>
      </trkpt>
      <trkpt lat="49.25774" lon="4.05749">
        <ele>146</ele>
        <time>2019-03-30T12:37:58Z</time>
      </trkpt>
      <trkpt lat="49.25773" lon="4.05757">
        <ele>146</ele>
        <time>2019-03-30T12:37:59Z</time>
      </trkpt>
      <trkpt lat="49.25773" lon="4.05765">
        <ele>146</ele>
        <time>2019-03-30T12:38:00Z</time>
      </trkpt>
      <trkpt lat="49.25772" lon="4.05773">
        <ele>146</ele>
        <time>2019-03-30T12:38:01Z</time>
      </trkpt>
      <trkpt lat="49.25771" lon="4.0578">
        <ele>146</ele>
        <time>2019-03-30T12:38:02Z</time>
      </trkpt>
      <trkpt lat="49.2577" lon="4.05788">
        <ele>146</ele>
        <time>2019-03-30T12:38:03Z</time>
      </trkpt>
      <trkpt lat="49.25769" lon="4.05796">
        <ele>146</ele>
        <time>2019-03-30T12:38:04Z</time>
      </trkpt>
      <trkpt lat="49.25768" lon="4.05804">
        <ele>146</ele>
        <time>2019-03-30T12:38:05Z</time>
      </trkpt>
      <trkpt lat="49.25767" lon="4.05812">
        <ele>146</ele>
        <time>2019-03-30T12:38:06Z</time>
      </trkpt>
      <trkpt lat="49.25766" lon="4.0582">
        <ele>145</ele>
        <time>2019-03-30T12:38:07Z</time>
      </trkpt>
      <trkpt lat="49.25766" lon="4.05829">
        <ele>145</ele>
        <time>2019-03-30T12:38:08Z</time>
      </trkpt>
      <trkpt lat="49.25765" lon="4.05837">
        <ele>145</ele>
        <time>2019-03-30T12:38:09Z</time>
      </trkpt>
      <trkpt lat="49.25765" lon="4.05845">
        <ele>145</ele>
        <time>2019-03-30T12:38:10Z</time>
      </trkpt>
      <trkpt lat="49.25764" lon="4.05853">
        <ele>144</ele>
        <time>2019-03-30T12:38:11Z</time>
      </trkpt>
      <trkpt lat="49.25763" lon="4.05861">
        <ele>144</ele>
        <time>2019-03-30T12:38:12Z</time>
      </trkpt>
      <trkpt lat="49.25762" lon="4.05869">
        <ele>144</ele>
        <time>2019-03-30T12:38:13Z</time>
      </trkpt>
      <trkpt lat="49.25761" lon="4.05877">
        <ele>144</ele>
        <time>2019-03-30T12:38:14Z</time>
      </trkpt>
      <trkpt lat="49.2576" lon="4.05885">
        <ele>144</ele>
        <time>2019-03-30T12:38:15Z</time>
      </trkpt>
      <trkpt lat="49.2576" lon="4.05892">
        <ele>144</ele>
        <time>2019-03-30T12:38:16Z</time>
      </trkpt>
      <trkpt lat="49.2576" lon="4.059">
        <ele>145</ele>
        <time>2019-03-30T12:38:17Z</time>
      </trkpt>
      <trkpt lat="49.2576" lon="4.05908">
        <ele>146</ele>
        <time>2019-03-30T12:38:18Z</time>
      </trkpt>
      <trkpt lat="49.2576" lon="4.05916">
        <ele>146</ele>
        <time>2019-03-30T12:38:19Z</time>
      </trkpt>
      <trkpt lat="49.25759" lon="4.05924">
        <ele>146</ele>
        <time>2019-03-30T12:38:20Z</time>
      </trkpt>
      <trkpt lat="49.25758" lon="4.05933">
        <ele>145</ele>
        <time>2019-03-30T12:38:21Z</time>
      </trkpt>
      <trkpt lat="49.25757" lon="4.05941">
        <ele>145</ele>
        <time>2019-03-30T12:38:22Z</time>
      </trkpt>
      <trkpt lat="49.25757" lon="4.05948">
        <ele>145</ele>
        <time>2019-03-30T12:38:23Z</time>
      </trkpt>
      <trkpt lat="49.25757" lon="4.05956">
        <ele>145</ele>
        <time>2019-03-30T12:38:24Z</time>
      </trkpt>
      <trkpt lat="49.25757" lon="4.05963">
        <ele>145</ele>
        <time>2019-03-30T12:38:25Z</time>
      </trkpt>
      <trkpt lat="49.25757" lon="4.05969">
        <ele>146</ele>
        <time>2019-03-30T12:38:26Z</time>
      </trkpt>
      <trkpt lat="49.25756" lon="4.05976">
        <ele>146</ele>
        <time>2019-03-30T12:38:27Z</time>
      </trkpt>
      <trkpt lat="49.25755" lon="4.05982">
        <ele>146</ele>
        <time>2019-03-30T12:38:28Z</time>
      </trkpt>
      <trkpt lat="49.25755" lon="4.05989">
        <ele>146</ele>
        <time>2019-03-30T12:38:29Z</time>
      </trkpt>
      <trkpt lat="49.25754" lon="4.05996">
        <ele>146</ele>
        <time>2019-03-30T12:38:30Z</time>
      </trkpt>
      <trkpt lat="49.25754" lon="4.06002">
        <ele>147</ele>
        <time>2019-03-30T12:38:31Z</time>
      </trkpt>
      <trkpt lat="49.25753" lon="4.06009">
        <ele>147</ele>
        <time>2019-03-30T12:38:32Z</time>
      </trkpt>
      <trkpt lat="49.25752" lon="4.06016">
        <ele>147</ele>
        <time>2019-03-30T12:38:33Z</time>
      </trkpt>
      <trkpt lat="49.25751" lon="4.06023">
        <ele>147</ele>
        <time>2019-03-30T12:38:34Z</time>
      </trkpt>
      <trkpt lat="49.2575" lon="4.0603">
        <ele>147</ele>
        <time>2019-03-30T12:38:35Z</time>
      </trkpt>
      <trkpt lat="49.25748" lon="4.06037">
        <ele>147</ele>
        <time>2019-03-30T12:38:36Z</time>
      </trkpt>
      <trkpt lat="49.25747" lon="4.06045">
        <ele>146</ele>
        <time>2019-03-30T12:38:37Z</time>
      </trkpt>
      <trkpt lat="49.25747" lon="4.06052">
        <ele>147</ele>
        <time>2019-03-30T12:38:38Z</time>
      </trkpt>
      <trkpt lat="49.25746" lon="4.0606">
        <ele>147</ele>
        <time>2019-03-30T12:38:39Z</time>
      </trkpt>
      <trkpt lat="49.25746" lon="4.06067">
        <ele>147</ele>
        <time>2019-03-30T12:38:40Z</time>
      </trkpt>
      <trkpt lat="49.25745" lon="4.06074">
        <ele>147</ele>
        <time>2019-03-30T12:38:41Z</time>
      </trkpt>
      <trkpt lat="49.25744" lon="4.06082">
        <ele>148</ele>
        <time>2019-03-30T12:38:42Z</time>
      </trkpt>
      <trkpt lat="49.25743" lon="4.06089">
        <ele>148</ele>
        <time>2019-03-30T12:38:43Z</time>
      </trkpt>
      <trkpt lat="49.25742" lon="4.06096">
        <ele>148</ele>
        <time>2019-03-30T12:38:44Z</time>
      </trkpt>
      <trkpt lat="49.25741" lon="4.06104">
        <ele>148</ele>
        <time>2019-03-30T12:38:45Z</time>
      </trkpt>
      <trkpt lat="49.2574" lon="4.0611">
        <ele>148</ele>
        <time>2019-03-30T12:38:46Z</time>
      </trkpt>
      <trkpt lat="49.2574" lon="4.06116">
        <ele>149</ele>
        <time>2019-03-30T12:38:47Z</time>
      </trkpt>
      <trkpt lat="49.25739" lon="4.06124">
        <ele>148</ele>
        <time>2019-03-30T12:38:48Z</time>
      </trkpt>
      <trkpt lat="49.25738" lon="4.06131">
        <ele>148</ele>
        <time>2019-03-30T12:38:49Z</time>
      </trkpt>
      <trkpt lat="49.25738" lon="4.06139">
        <ele>148</ele>
        <time>2019-03-30T12:38:50Z</time>
      </trkpt>
      <trkpt lat="49.25736" lon="4.06147">
        <ele>148</ele>
        <time>2019-03-30T12:38:51Z</time>
      </trkpt>
      <trkpt lat="49.25735" lon="4.06154">
        <ele>148</ele>
        <time>2019-03-30T12:38:52Z</time>
      </trkpt>
      <trkpt lat="49.25733" lon="4.06162">
        <ele>148</ele>
        <time>2019-03-30T12:38:53Z</time>
      </trkpt>
      <trkpt lat="49.25732" lon="4.06169">
        <ele>148</ele>
        <time>2019-03-30T12:38:54Z</time>
      </trkpt>
      <trkpt lat="49.25731" lon="4.06177">
        <ele>148</ele>
        <time>2019-03-30T12:38:55Z</time>
      </trkpt>
      <trkpt lat="49.2573" lon="4.06184">
        <ele>148</ele>
        <time>2019-03-30T12:38:56Z</time>
      </trkpt>
      <trkpt lat="49.25729" lon="4.06191">
        <ele>148</ele>
        <time>2019-03-30T12:38:57Z</time>
      </trkpt>
      <trkpt lat="49.25729" lon="4.06199">
        <ele>148</ele>
        <time>2019-03-30T12:38:58Z</time>
      </trkpt>
      <trkpt lat="49.25729" lon="4.06205">
        <ele>147</ele>
        <time>2019-03-30T12:38:59Z</time>
      </trkpt>
      <trkpt lat="49.25729" lon="4.0621">
        <ele>147</ele>
        <time>2019-03-30T12:39:00Z</time>
      </trkpt>
      <trkpt lat="49.25729" lon="4.06217">
        <ele>147</ele>
        <time>2019-03-30T12:39:01Z</time>
      </trkpt>
      <trkpt lat="49.25729" lon="4.06222">
        <ele>146</ele>
        <time>2019-03-30T12:39:02Z</time>
      </trkpt>
      <trkpt lat="49.25729" lon="4.06227">
        <ele>146</ele>
        <time>2019-03-30T12:39:03Z</time>
      </trkpt>
      <trkpt lat="49.25728" lon="4.06233">
        <ele>146</ele>
        <time>2019-03-30T12:39:04Z</time>
      </trkpt>
      <trkpt lat="49.25728" lon="4.06238">
        <ele>146</ele>
        <time>2019-03-30T12:39:05Z</time>
      </trkpt>
      <trkpt lat="49.25728" lon="4.06242">
        <ele>146</ele>
        <time>2019-03-30T12:39:06Z</time>
      </trkpt>
      <trkpt lat="49.25728" lon="4.06246">
        <ele>146</ele>
        <time>2019-03-30T12:39:07Z</time>
      </trkpt>
      <trkpt lat="49.25728" lon="4.06248">
        <ele>146</ele>
        <time>2019-03-30T12:39:08Z</time>
      </trkpt>
      <trkpt lat="49.25727" lon="4.0625">
        <ele>146</ele>
        <time>2019-03-30T12:39:09Z</time>
      </trkpt>
      <trkpt lat="49.25727" lon="4.06253">
        <ele>146</ele>
        <time>2019-03-30T12:39:10Z</time>
      </trkpt>
      <trkpt lat="49.25727" lon="4.06255">
        <ele>146</ele>
        <time>2019-03-30T12:39:11Z</time>
      </trkpt>
      <trkpt lat="49.25726" lon="4.06257">
        <ele>146</ele>
        <time>2019-03-30T12:39:12Z</time>
      </trkpt>
      <trkpt lat="49.25726" lon="4.06261">
        <ele>146</ele>
        <time>2019-03-30T12:39:13Z</time>
      </trkpt>
      <trkpt lat="49.25726" lon="4.06266">
        <ele>146</ele>
        <time>2019-03-30T12:39:14Z</time>
      </trkpt>
      <trkpt lat="49.25725" lon="4.06273">
        <ele>145</ele>
        <time>2019-03-30T12:39:15Z</time>
      </trkpt>
      <trkpt lat="49.25723" lon="4.06279">
        <ele>145</ele>
        <time>2019-03-30T12:39:16Z</time>
      </trkpt>
      <trkpt lat="49.25723" lon="4.06288">
        <ele>145</ele>
        <time>2019-03-30T12:39:17Z</time>
      </trkpt>
      <trkpt lat="49.25723" lon="4.06296">
        <ele>145</ele>
        <time>2019-03-30T12:39:18Z</time>
      </trkpt>
      <trkpt lat="49.25724" lon="4.06304">
        <ele>144</ele>
        <time>2019-03-30T12:39:19Z</time>
      </trkpt>
      <trkpt lat="49.25725" lon="4.06313">
        <ele>145</ele>
        <time>2019-03-30T12:39:20Z</time>
      </trkpt>
      <trkpt lat="49.25725" lon="4.06322">
        <ele>145</ele>
        <time>2019-03-30T12:39:21Z</time>
      </trkpt>
      <trkpt lat="49.25726" lon="4.06331">
        <ele>145</ele>
        <time>2019-03-30T12:39:22Z</time>
      </trkpt>
      <trkpt lat="49.25727" lon="4.06339">
        <ele>145</ele>
        <time>2019-03-30T12:39:23Z</time>
      </trkpt>
      <trkpt lat="49.25727" lon="4.06348">
        <ele>146</ele>
        <time>2019-03-30T12:39:24Z</time>
      </trkpt>
      <trkpt lat="49.25727" lon="4.06357">
        <ele>146</ele>
        <time>2019-03-30T12:39:25Z</time>
      </trkpt>
      <trkpt lat="49.25727" lon="4.06366">
        <ele>146</ele>
        <time>2019-03-30T12:39:26Z</time>
      </trkpt>
      <trkpt lat="49.25728" lon="4.06374">
        <ele>146</ele>
        <time>2019-03-30T12:39:27Z</time>
      </trkpt>
      <trkpt lat="49.25728" lon="4.06383">
        <ele>146</ele>
        <time>2019-03-30T12:39:28Z</time>
      </trkpt>
      <trkpt lat="49.25728" lon="4.06391">
        <ele>147</ele>
        <time>2019-03-30T12:39:29Z</time>
      </trkpt>
      <trkpt lat="49.25729" lon="4.06399">
        <ele>147</ele>
        <time>2019-03-30T12:39:30Z</time>
      </trkpt>
      <trkpt lat="49.2573" lon="4.06406">
        <ele>147</ele>
        <time>2019-03-30T12:39:31Z</time>
      </trkpt>
      <trkpt lat="49.2573" lon="4.06414">
        <ele>146</ele>
        <time>2019-03-30T12:39:32Z</time>
      </trkpt>
      <trkpt lat="49.25732" lon="4.06422">
        <ele>146</ele>
        <time>2019-03-30T12:39:33Z</time>
      </trkpt>
      <trkpt lat="49.25734" lon="4.0643">
        <ele>146</ele>
        <time>2019-03-30T12:39:34Z</time>
      </trkpt>
      <trkpt lat="49.25735" lon="4.06438">
        <ele>146</ele>
        <time>2019-03-30T12:39:35Z</time>
      </trkpt>
      <trkpt lat="49.25736" lon="4.06445">
        <ele>146</ele>
        <time>2019-03-30T12:39:36Z</time>
      </trkpt>
      <trkpt lat="49.25737" lon="4.06453">
        <ele>146</ele>
        <time>2019-03-30T12:39:37Z</time>
      </trkpt>
      <trkpt lat="49.25738" lon="4.0646">
        <ele>146</ele>
        <time>2019-03-30T12:39:38Z</time>
      </trkpt>
      <trkpt lat="49.25739" lon="4.06467">
        <ele>146</ele>
        <time>2019-03-30T12:39:39Z</time>
      </trkpt>
      <trkpt lat="49.2574" lon="4.06475">
        <ele>147</ele>
        <time>2019-03-30T12:39:40Z</time>
      </trkpt>
      <trkpt lat="49.25741" lon="4.06483">
        <ele>147</ele>
        <time>2019-03-30T12:39:41Z</time>
      </trkpt>
      <trkpt lat="49.25742" lon="4.06491">
        <ele>147</ele>
        <time>2019-03-30T12:39:42Z</time>
      </trkpt>
      <trkpt lat="49.25744" lon="4.06499">
        <ele>148</ele>
        <time>2019-03-30T12:39:43Z</time>
      </trkpt>
      <trkpt lat="49.25745" lon="4.06506">
        <ele>148</ele>
        <time>2019-03-30T12:39:44Z</time>
      </trkpt>
      <trkpt lat="49.25747" lon="4.06514">
        <ele>148</ele>
        <time>2019-03-30T12:39:45Z</time>
      </trkpt>
      <trkpt lat="49.25748" lon="4.06521">
        <ele>147</ele>
        <time>2019-03-30T12:39:46Z</time>
      </trkpt>
      <trkpt lat="49.25749" lon="4.0653">
        <ele>147</ele>
        <time>2019-03-30T12:39:47Z</time>
      </trkpt>
      <trkpt lat="49.25751" lon="4.06538">
        <ele>147</ele>
        <time>2019-03-30T12:39:48Z</time>
      </trkpt>
      <trkpt lat="49.25752" lon="4.06546">
        <ele>147</ele>
        <time>2019-03-30T12:39:49Z</time>
      </trkpt>
      <trkpt lat="49.25753" lon="4.06554">
        <ele>147</ele>
        <time>2019-03-30T12:39:50Z</time>
      </trkpt>
      <trkpt lat="49.25755" lon="4.06561">
        <ele>147</ele>
        <time>2019-03-30T12:39:51Z</time>
      </trkpt>
      <trkpt lat="49.25756" lon="4.06569">
        <ele>147</ele>
        <time>2019-03-30T12:39:52Z</time>
      </trkpt>
      <trkpt lat="49.25757" lon="4.06576">
        <ele>147</ele>
        <time>2019-03-30T12:39:53Z</time>
      </trkpt>
      <trkpt lat="49.25758" lon="4.06583">
        <ele>147</ele>
        <time>2019-03-30T12:39:54Z</time>
      </trkpt>
      <trkpt lat="49.25759" lon="4.0659">
        <ele>147</ele>
        <time>2019-03-30T12:39:55Z</time>
      </trkpt>
      <trkpt lat="49.2576" lon="4.06597">
        <ele>148</ele>
        <time>2019-03-30T12:39:56Z</time>
      </trkpt>
      <trkpt lat="49.25761" lon="4.06604">
        <ele>148</ele>
        <time>2019-03-30T12:39:57Z</time>
      </trkpt>
      <trkpt lat="49.25762" lon="4.06611">
        <ele>148</ele>
        <time>2019-03-30T12:39:58Z</time>
      </trkpt>
      <trkpt lat="49.25763" lon="4.06619">
        <ele>148</ele>
        <time>2019-03-30T12:39:59Z</time>
      </trkpt>
      <trkpt lat="49.25764" lon="4.06625">
        <ele>148</ele>
        <time>2019-03-30T12:40:00Z</time>
      </trkpt>
      <trkpt lat="49.25765" lon="4.06633">
        <ele>149</ele>
        <time>2019-03-30T12:40:01Z</time>
      </trkpt>
      <trkpt lat="49.25766" lon="4.06641">
        <ele>149</ele>
        <time>2019-03-30T12:40:02Z</time>
      </trkpt>
      <trkpt lat="49.25767" lon="4.06648">
        <ele>149</ele>
        <time>2019-03-30T12:40:03Z</time>
      </trkpt>
      <trkpt lat="49.25767" lon="4.06655">
        <ele>149</ele>
        <time>2019-03-30T12:40:04Z</time>
      </trkpt>
      <trkpt lat="49.25768" lon="4.06662">
        <ele>149</ele>
        <time>2019-03-30T12:40:05Z</time>
      </trkpt>
      <trkpt lat="49.25769" lon="4.06669">
        <ele>149</ele>
        <time>2019-03-30T12:40:06Z</time>
      </trkpt>
      <trkpt lat="49.2577" lon="4.06675">
        <ele>150</ele>
        <time>2019-03-30T12:40:07Z</time>
      </trkpt>
      <trkpt lat="49.25771" lon="4.06683">
        <ele>150</ele>
        <time>2019-03-30T12:40:08Z</time>
      </trkpt>
      <trkpt lat="49.25772" lon="4.0669">
        <ele>150</ele>
        <time>2019-03-30T12:40:09Z</time>
      </trkpt>
      <trkpt lat="49.25773" lon="4.06697">
        <ele>150</ele>
        <time>2019-03-30T12:40:10Z</time>
      </trkpt>
      <trkpt lat="49.25773" lon="4.06705">
        <ele>150</ele>
        <time>2019-03-30T12:40:11Z</time>
      </trkpt>
      <trkpt lat="49.25774" lon="4.06712">
        <ele>151</ele>
        <time>2019-03-30T12:40:12Z</time>
      </trkpt>
      <trkpt lat="49.25775" lon="4.0672">
        <ele>151</ele>
        <time>2019-03-30T12:40:13Z</time>
      </trkpt>
      <trkpt lat="49.25776" lon="4.06727">
        <ele>152</ele>
        <time>2019-03-30T12:40:14Z</time>
      </trkpt>
      <trkpt lat="49.25777" lon="4.06735">
        <ele>152</ele>
        <time>2019-03-30T12:40:15Z</time>
      </trkpt>
      <trkpt lat="49.25778" lon="4.06743">
        <ele>152</ele>
        <time>2019-03-30T12:40:16Z</time>
      </trkpt>
      <trkpt lat="49.25779" lon="4.06752">
        <ele>152</ele>
        <time>2019-03-30T12:40:17Z</time>
      </trkpt>
      <trkpt lat="49.25779" lon="4.06761">
        <ele>152</ele>
        <time>2019-03-30T12:40:18Z</time>
      </trkpt>
      <trkpt lat="49.2578" lon="4.06771">
        <ele>151</ele>
        <time>2019-03-30T12:40:19Z</time>
      </trkpt>
      <trkpt lat="49.25781" lon="4.06781">
        <ele>151</ele>
        <time>2019-03-30T12:40:20Z</time>
      </trkpt>
      <trkpt lat="49.25781" lon="4.06791">
        <ele>150</ele>
        <time>2019-03-30T12:40:21Z</time>
      </trkpt>
      <trkpt lat="49.25782" lon="4.06802">
        <ele>150</ele>
        <time>2019-03-30T12:40:22Z</time>
      </trkpt>
      <trkpt lat="49.25783" lon="4.06814">
        <ele>149</ele>
        <time>2019-03-30T12:40:23Z</time>
      </trkpt>
      <trkpt lat="49.25784" lon="4.06826">
        <ele>149</ele>
        <time>2019-03-30T12:40:24Z</time>
      </trkpt>
      <trkpt lat="49.25785" lon="4.06839">
        <ele>149</ele>
        <time>2019-03-30T12:40:25Z</time>
      </trkpt>
      <trkpt lat="49.25787" lon="4.06851">
        <ele>148</ele>
        <time>2019-03-30T12:40:26Z</time>
      </trkpt>
      <trkpt lat="49.25788" lon="4.06863">
        <ele>148</ele>
        <time>2019-03-30T12:40:27Z</time>
      </trkpt>
      <trkpt lat="49.25789" lon="4.06876">
        <ele>148</ele>
        <time>2019-03-30T12:40:28Z</time>
      </trkpt>
      <trkpt lat="49.25791" lon="4.06889">
        <ele>147</ele>
        <time>2019-03-30T12:40:29Z</time>
      </trkpt>
      <trkpt lat="49.25792" lon="4.06902">
        <ele>147</ele>
        <time>2019-03-30T12:40:30Z</time>
      </trkpt>
      <trkpt lat="49.25793" lon="4.06914">
        <ele>147</ele>
        <time>2019-03-30T12:40:31Z</time>
      </trkpt>
      <trkpt lat="49.25796" lon="4.0694">
        <ele>146</ele>
        <time>2019-03-30T12:40:33Z</time>
      </trkpt>
      <trkpt lat="49.25797" lon="4.06954">
        <ele>145</ele>
        <time>2019-03-30T12:40:34Z</time>
      </trkpt>
      <trkpt lat="49.25798" lon="4.06967">
        <ele>145</ele>
        <time>2019-03-30T12:40:35Z</time>
      </trkpt>
      <trkpt lat="49.258" lon="4.06981">
        <ele>144</ele>
        <time>2019-03-30T12:40:36Z</time>
      </trkpt>
      <trkpt lat="49.25803" lon="4.06994">
        <ele>144</ele>
        <time>2019-03-30T12:40:37Z</time>
      </trkpt>
      <trkpt lat="49.25804" lon="4.07007">
        <ele>144</ele>
        <time>2019-03-30T12:40:38Z</time>
      </trkpt>
      <trkpt lat="49.25806" lon="4.07018">
        <ele>144</ele>
        <time>2019-03-30T12:40:39Z</time>
      </trkpt>
      <trkpt lat="49.25809" lon="4.07031">
        <ele>144</ele>
        <time>2019-03-30T12:40:40Z</time>
      </trkpt>
      <trkpt lat="49.25811" lon="4.07043">
        <ele>144</ele>
        <time>2019-03-30T12:40:41Z</time>
      </trkpt>
      <trkpt lat="49.25813" lon="4.07055">
        <ele>144</ele>
        <time>2019-03-30T12:40:42Z</time>
      </trkpt>
      <trkpt lat="49.25815" lon="4.07067">
        <ele>143</ele>
        <time>2019-03-30T12:40:43Z</time>
      </trkpt>
      <trkpt lat="49.25817" lon="4.0708">
        <ele>143</ele>
        <time>2019-03-30T12:40:44Z</time>
      </trkpt>
      <trkpt lat="49.25819" lon="4.07092">
        <ele>144</ele>
        <time>2019-03-30T12:40:45Z</time>
      </trkpt>
      <trkpt lat="49.2582" lon="4.07104">
        <ele>143</ele>
        <time>2019-03-30T12:40:46Z</time>
      </trkpt>
      <trkpt lat="49.25822" lon="4.07116">
        <ele>143</ele>
        <time>2019-03-30T12:40:47Z</time>
      </trkpt>
      <trkpt lat="49.25824" lon="4.07129">
        <ele>143</ele>
        <time>2019-03-30T12:40:48Z</time>
      </trkpt>
      <trkpt lat="49.25825" lon="4.07142">
        <ele>143</ele>
        <time>2019-03-30T12:40:49Z</time>
      </trkpt>
      <trkpt lat="49.25827" lon="4.07154">
        <ele>143</ele>
        <time>2019-03-30T12:40:50Z</time>
      </trkpt>
      <trkpt lat="49.25829" lon="4.07167">
        <ele>143</ele>
        <time>2019-03-30T12:40:51Z</time>
      </trkpt>
      <trkpt lat="49.25831" lon="4.0718">
        <ele>143</ele>
        <time>2019-03-30T12:40:52Z</time>
      </trkpt>
      <trkpt lat="49.25833" lon="4.07192">
        <ele>143</ele>
        <time>2019-03-30T12:40:53Z</time>
      </trkpt>
      <trkpt lat="49.25834" lon="4.07205">
        <ele>142</ele>
        <time>2019-03-30T12:40:54Z</time>
      </trkpt>
      <trkpt lat="49.25836" lon="4.07217">
        <ele>142</ele>
        <time>2019-03-30T12:40:55Z</time>
      </trkpt>
      <trkpt lat="49.25837" lon="4.0723">
        <ele>143</ele>
        <time>2019-03-30T12:40:56Z</time>
      </trkpt>
      <trkpt lat="49.25838" lon="4.07241">
        <ele>143</ele>
        <time>2019-03-30T12:40:57Z</time>
      </trkpt>
      <trkpt lat="49.25839" lon="4.07252">
        <ele>143</ele>
        <time>2019-03-30T12:40:58Z</time>
      </trkpt>
      <trkpt lat="49.25841" lon="4.07264">
        <ele>143</ele>
        <time>2019-03-30T12:40:59Z</time>
      </trkpt>
      <trkpt lat="49.25842" lon="4.07276">
        <ele>143</ele>
        <time>2019-03-30T12:41:00Z</time>
      </trkpt>
      <trkpt lat="49.25844" lon="4.07287">
        <ele>143</ele>
        <time>2019-03-30T12:41:01Z</time>
      </trkpt>
      <trkpt lat="49.25845" lon="4.07297">
        <ele>143</ele>
        <time>2019-03-30T12:41:02Z</time>
      </trkpt>
      <trkpt lat="49.25846" lon="4.07308">
        <ele>142</ele>
        <time>2019-03-30T12:41:03Z</time>
      </trkpt>
      <trkpt lat="49.25848" lon="4.07318">
        <ele>143</ele>
        <time>2019-03-30T12:41:04Z</time>
      </trkpt>
      <trkpt lat="49.25849" lon="4.07328">
        <ele>143</ele>
        <time>2019-03-30T12:41:05Z</time>
      </trkpt>
      <trkpt lat="49.2585" lon="4.07338">
        <ele>143</ele>
        <time>2019-03-30T12:41:06Z</time>
      </trkpt>
      <trkpt lat="49.25852" lon="4.07348">
        <ele>143</ele>
        <time>2019-03-30T12:41:07Z</time>
      </trkpt>
      <trkpt lat="49.25853" lon="4.07358">
        <ele>143</ele>
        <time>2019-03-30T12:41:08Z</time>
      </trkpt>
      <trkpt lat="49.25854" lon="4.07369">
        <ele>142</ele>
        <time>2019-03-30T12:41:09Z</time>
      </trkpt>
      <trkpt lat="49.25855" lon="4.07379">
        <ele>142</ele>
        <time>2019-03-30T12:41:10Z</time>
      </trkpt>
      <trkpt lat="49.25857" lon="4.07389">
        <ele>142</ele>
        <time>2019-03-30T12:41:11Z</time>
      </trkpt>
      <trkpt lat="49.25858" lon="4.07399">
        <ele>142</ele>
        <time>2019-03-30T12:41:12Z</time>
      </trkpt>
      <trkpt lat="49.25859" lon="4.07409">
        <ele>143</ele>
        <time>2019-03-30T12:41:13Z</time>
      </trkpt>
      <trkpt lat="49.25861" lon="4.07419">
        <ele>143</ele>
        <time>2019-03-30T12:41:14Z</time>
      </trkpt>
      <trkpt lat="49.25862" lon="4.07429">
        <ele>143</ele>
        <time>2019-03-30T12:41:15Z</time>
      </trkpt>
      <trkpt lat="49.25863" lon="4.07438">
        <ele>142</ele>
        <time>2019-03-30T12:41:16Z</time>
      </trkpt>
      <trkpt lat="49.25864" lon="4.07449">
        <ele>142</ele>
        <time>2019-03-30T12:41:17Z</time>
      </trkpt>
      <trkpt lat="49.25865" lon="4.07458">
        <ele>143</ele>
        <time>2019-03-30T12:41:18Z</time>
      </trkpt>
      <trkpt lat="49.25867" lon="4.07468">
        <ele>143</ele>
        <time>2019-03-30T12:41:19Z</time>
      </trkpt>
      <trkpt lat="49.25868" lon="4.07478">
        <ele>143</ele>
        <time>2019-03-30T12:41:20Z</time>
      </trkpt>
      <trkpt lat="49.25869" lon="4.07488">
        <ele>143</ele>
        <time>2019-03-30T12:41:21Z</time>
      </trkpt>
      <trkpt lat="49.25871" lon="4.07498">
        <ele>142</ele>
        <time>2019-03-30T12:41:22Z</time>
      </trkpt>
      <trkpt lat="49.25872" lon="4.07508">
        <ele>143</ele>
        <time>2019-03-30T12:41:23Z</time>
      </trkpt>
      <trkpt lat="49.25873" lon="4.07518">
        <ele>143</ele>
        <time>2019-03-30T12:41:24Z</time>
      </trkpt>
      <trkpt lat="49.25874" lon="4.07528">
        <ele>143</ele>
        <time>2019-03-30T12:41:25Z</time>
      </trkpt>
      <trkpt lat="49.25876" lon="4.07538">
        <ele>143</ele>
        <time>2019-03-30T12:41:26Z</time>
      </trkpt>
      <trkpt lat="49.25877" lon="4.07548">
        <ele>143</ele>
        <time>2019-03-30T12:41:27Z</time>
      </trkpt>
      <trkpt lat="49.25878" lon="4.07558">
        <ele>143</ele>
        <time>2019-03-30T12:41:28Z</time>
      </trkpt>
      <trkpt lat="49.25879" lon="4.07568">
        <ele>143</ele>
        <time>2019-03-30T12:41:29Z</time>
      </trkpt>
      <trkpt lat="49.25881" lon="4.07577">
        <ele>143</ele>
        <time>2019-03-30T12:41:30Z</time>
      </trkpt>
      <trkpt lat="49.25882" lon="4.07586">
        <ele>143</ele>
        <time>2019-03-30T12:41:31Z</time>
      </trkpt>
      <trkpt lat="49.25883" lon="4.07595">
        <ele>143</ele>
        <time>2019-03-30T12:41:32Z</time>
      </trkpt>
      <trkpt lat="49.25884" lon="4.07605">
        <ele>143</ele>
        <time>2019-03-30T12:41:33Z</time>
      </trkpt>
      <trkpt lat="49.25885" lon="4.07614">
        <ele>143</ele>
        <time>2019-03-30T12:41:34Z</time>
      </trkpt>
      <trkpt lat="49.25886" lon="4.07624">
        <ele>143</ele>
        <time>2019-03-30T12:41:35Z</time>
      </trkpt>
      <trkpt lat="49.25888" lon="4.07633">
        <ele>143</ele>
        <time>2019-03-30T12:41:36Z</time>
      </trkpt>
      <trkpt lat="49.25889" lon="4.07642">
        <ele>143</ele>
        <time>2019-03-30T12:41:37Z</time>
      </trkpt>
      <trkpt lat="49.2589" lon="4.07651">
        <ele>143</ele>
        <time>2019-03-30T12:41:38Z</time>
      </trkpt>
      <trkpt lat="49.25891" lon="4.0766">
        <ele>143</ele>
        <time>2019-03-30T12:41:39Z</time>
      </trkpt>
      <trkpt lat="49.25892" lon="4.07669">
        <ele>143</ele>
        <time>2019-03-30T12:41:40Z</time>
      </trkpt>
      <trkpt lat="49.25893" lon="4.07678">
        <ele>143</ele>
        <time>2019-03-30T12:41:41Z</time>
      </trkpt>
      <trkpt lat="49.25894" lon="4.07687">
        <ele>144</ele>
        <time>2019-03-30T12:41:42Z</time>
      </trkpt>
      <trkpt lat="49.25896" lon="4.07696">
        <ele>144</ele>
        <time>2019-03-30T12:41:43Z</time>
      </trkpt>
      <trkpt lat="49.25897" lon="4.07705">
        <ele>144</ele>
        <time>2019-03-30T12:41:44Z</time>
      </trkpt>
      <trkpt lat="49.25898" lon="4.07714">
        <ele>144</ele>
        <time>2019-03-30T12:41:45Z</time>
      </trkpt>
      <trkpt lat="49.25899" lon="4.07722">
        <ele>144</ele>
        <time>2019-03-30T12:41:46Z</time>
      </trkpt>
      <trkpt lat="49.259" lon="4.07731">
        <ele>144</ele>
        <time>2019-03-30T12:41:47Z</time>
      </trkpt>
      <trkpt lat="49.25902" lon="4.07738">
        <ele>144</ele>
        <time>2019-03-30T12:41:48Z</time>
      </trkpt>
      <trkpt lat="49.25903" lon="4.07747">
        <ele>145</ele>
        <time>2019-03-30T12:41:49Z</time>
      </trkpt>
      <trkpt lat="49.25904" lon="4.07755">
        <ele>145</ele>
        <time>2019-03-30T12:41:50Z</time>
      </trkpt>
      <trkpt lat="49.25905" lon="4.07762">
        <ele>145</ele>
        <time>2019-03-30T12:41:51Z</time>
      </trkpt>
      <trkpt lat="49.25905" lon="4.0777">
        <ele>145</ele>
        <time>2019-03-30T12:41:52Z</time>
      </trkpt>
      <trkpt lat="49.25906" lon="4.07778">
        <ele>145</ele>
        <time>2019-03-30T12:41:53Z</time>
      </trkpt>
      <trkpt lat="49.25907" lon="4.07785">
        <ele>145</ele>
        <time>2019-03-30T12:41:54Z</time>
      </trkpt>
      <trkpt lat="49.25908" lon="4.07793">
        <ele>145</ele>
        <time>2019-03-30T12:41:55Z</time>
      </trkpt>
      <trkpt lat="49.25909" lon="4.078">
        <ele>145</ele>
        <time>2019-03-30T12:41:56Z</time>
      </trkpt>
      <trkpt lat="49.2591" lon="4.07808">
        <ele>145</ele>
        <time>2019-03-30T12:41:57Z</time>
      </trkpt>
      <trkpt lat="49.25911" lon="4.07816">
        <ele>145</ele>
        <time>2019-03-30T12:41:58Z</time>
      </trkpt>
      <trkpt lat="49.25912" lon="4.07823">
        <ele>145</ele>
        <time>2019-03-30T12:41:59Z</time>
      </trkpt>
      <trkpt lat="49.25913" lon="4.07831">
        <ele>145</ele>
        <time>2019-03-30T12:42:00Z</time>
      </trkpt>
      <trkpt lat="49.25914" lon="4.07838">
        <ele>146</ele>
        <time>2019-03-30T12:42:01Z</time>
      </trkpt>
      <trkpt lat="49.25915" lon="4.07846">
        <ele>146</ele>
        <time>2019-03-30T12:42:02Z</time>
      </trkpt>
      <trkpt lat="49.25916" lon="4.07853">
        <ele>146</ele>
        <time>2019-03-30T12:42:03Z</time>
      </trkpt>
      <trkpt lat="49.25916" lon="4.0786">
        <ele>146</ele>
        <time>2019-03-30T12:42:04Z</time>
      </trkpt>
      <trkpt lat="49.25917" lon="4.07867">
        <ele>146</ele>
        <time>2019-03-30T12:42:05Z</time>
      </trkpt>
      <trkpt lat="49.25918" lon="4.07874">
        <ele>146</ele>
        <time>2019-03-30T12:42:06Z</time>
      </trkpt>
      <trkpt lat="49.25919" lon="4.07881">
        <ele>147</ele>
        <time>2019-03-30T12:42:07Z</time>
      </trkpt>
      <trkpt lat="49.2592" lon="4.07888">
        <ele>147</ele>
        <time>2019-03-30T12:42:08Z</time>
      </trkpt>
      <trkpt lat="49.25921" lon="4.07895">
        <ele>147</ele>
        <time>2019-03-30T12:42:09Z</time>
      </trkpt>
      <trkpt lat="49.25922" lon="4.07902">
        <ele>147</ele>
        <time>2019-03-30T12:42:10Z</time>
      </trkpt>
      <trkpt lat="49.25923" lon="4.0791">
        <ele>147</ele>
        <time>2019-03-30T12:42:11Z</time>
      </trkpt>
      <trkpt lat="49.25923" lon="4.07916">
        <ele>148</ele>
        <time>2019-03-30T12:42:12Z</time>
      </trkpt>
      <trkpt lat="49.25924" lon="4.07923">
        <ele>148</ele>
        <time>2019-03-30T12:42:13Z</time>
      </trkpt>
      <trkpt lat="49.25925" lon="4.0793">
        <ele>148</ele>
        <time>2019-03-30T12:42:14Z</time>
      </trkpt>
      <trkpt lat="49.25926" lon="4.07937">
        <ele>148</ele>
        <time>2019-03-30T12:42:15Z</time>
      </trkpt>
      <trkpt lat="49.25927" lon="4.07944">
        <ele>148</ele>
        <time>2019-03-30T12:42:16Z</time>
      </trkpt>
      <trkpt lat="49.25928" lon="4.07952">
        <ele>148</ele>
        <time>2019-03-30T12:42:17Z</time>
      </trkpt>
      <trkpt lat="49.25928" lon="4.07959">
        <ele>148</ele>
        <time>2019-03-30T12:42:18Z</time>
      </trkpt>
      <trkpt lat="49.25929" lon="4.07966">
        <ele>149</ele>
        <time>2019-03-30T12:42:19Z</time>
      </trkpt>
      <trkpt lat="49.2593" lon="4.07973">
        <ele>149</ele>
        <time>2019-03-30T12:42:20Z</time>
      </trkpt>
      <trkpt lat="49.25931" lon="4.0798">
        <ele>149</ele>
        <time>2019-03-30T12:42:21Z</time>
      </trkpt>
      <trkpt lat="49.25932" lon="4.07987">
        <ele>149</ele>
        <time>2019-03-30T12:42:22Z</time>
      </trkpt>
      <trkpt lat="49.25933" lon="4.07994">
        <ele>149</ele>
        <time>2019-03-30T12:42:23Z</time>
      </trkpt>
      <trkpt lat="49.25934" lon="4.08001">
        <ele>149</ele>
        <time>2019-03-30T12:42:24Z</time>
      </trkpt>
      <trkpt lat="49.25935" lon="4.08008">
        <ele>149</ele>
        <time>2019-03-30T12:42:25Z</time>
      </trkpt>
      <trkpt lat="49.25936" lon="4.08015">
        <ele>150</ele>
        <time>2019-03-30T12:42:26Z</time>
      </trkpt>
      <trkpt lat="49.25937" lon="4.08022">
        <ele>150</ele>
        <time>2019-03-30T12:42:27Z</time>
      </trkpt>
      <trkpt lat="49.25937" lon="4.08029">
        <ele>149</ele>
        <time>2019-03-30T12:42:28Z</time>
      </trkpt>
      <trkpt lat="49.25938" lon="4.08035">
        <ele>150</ele>
        <time>2019-03-30T12:42:29Z</time>
      </trkpt>
      <trkpt lat="49.25939" lon="4.08042">
        <ele>150</ele>
        <time>2019-03-30T12:42:30Z</time>
      </trkpt>
      <trkpt lat="49.2594" lon="4.08049">
        <ele>150</ele>
        <time>2019-03-30T12:42:31Z</time>
      </trkpt>
      <trkpt lat="49.2594" lon="4.08056">
        <ele>150</ele>
        <time>2019-03-30T12:42:32Z</time>
      </trkpt>
      <trkpt lat="49.25941" lon="4.08063">
        <ele>150</ele>
        <time>2019-03-30T12:42:33Z</time>
      </trkpt>
      <trkpt lat="49.25942" lon="4.08069">
        <ele>150</ele>
        <time>2019-03-30T12:42:34Z</time>
      </trkpt>
      <trkpt lat="49.25943" lon="4.08076">
        <ele>150</ele>
        <time>2019-03-30T12:42:35Z</time>
      </trkpt>
      <trkpt lat="49.25944" lon="4.08082">
        <ele>150</ele>
        <time>2019-03-30T12:42:36Z</time>
      </trkpt>
      <trkpt lat="49.25945" lon="4.08089">
        <ele>150</ele>
        <time>2019-03-30T12:42:37Z</time>
      </trkpt>
      <trkpt lat="49.25945" lon="4.08096">
        <ele>151</ele>
        <time>2019-03-30T12:42:38Z</time>
      </trkpt>
      <trkpt lat="49.25946" lon="4.08103">
        <ele>151</ele>
        <time>2019-03-30T12:42:39Z</time>
      </trkpt>
      <trkpt lat="49.25947" lon="4.0811">
        <ele>151</ele>
        <time>2019-03-30T12:42:40Z</time>
      </trkpt>
      <trkpt lat="49.25948" lon="4.08116">
        <ele>151</ele>
        <time>2019-03-30T12:42:41Z</time>
      </trkpt>
      <trkpt lat="49.25948" lon="4.08124">
        <ele>151</ele>
        <time>2019-03-30T12:42:42Z</time>
      </trkpt>
      <trkpt lat="49.25949" lon="4.0813">
        <ele>151</ele>
        <time>2019-03-30T12:42:43Z</time>
      </trkpt>
      <trkpt lat="49.2595" lon="4.08137">
        <ele>151</ele>
        <time>2019-03-30T12:42:44Z</time>
      </trkpt>
      <trkpt lat="49.25951" lon="4.08144">
        <ele>151</ele>
        <time>2019-03-30T12:42:45Z</time>
      </trkpt>
      <trkpt lat="49.25952" lon="4.08151">
        <ele>151</ele>
        <time>2019-03-30T12:42:46Z</time>
      </trkpt>
      <trkpt lat="49.25953" lon="4.08158">
        <ele>151</ele>
        <time>2019-03-30T12:42:47Z</time>
      </trkpt>
      <trkpt lat="49.25954" lon="4.08165">
        <ele>152</ele>
        <time>2019-03-30T12:42:48Z</time>
      </trkpt>
      <trkpt lat="49.25955" lon="4.08172">
        <ele>152</ele>
        <time>2019-03-30T12:42:49Z</time>
      </trkpt>
      <trkpt lat="49.25956" lon="4.08179">
        <ele>152</ele>
        <time>2019-03-30T12:42:50Z</time>
      </trkpt>
      <trkpt lat="49.25957" lon="4.08186">
        <ele>152</ele>
        <time>2019-03-30T12:42:51Z</time>
      </trkpt>
      <trkpt lat="49.25958" lon="4.08194">
        <ele>152</ele>
        <time>2019-03-30T12:42:52Z</time>
      </trkpt>
      <trkpt lat="49.25959" lon="4.08201">
        <ele>153</ele>
        <time>2019-03-30T12:42:53Z</time>
      </trkpt>
      <trkpt lat="49.2596" lon="4.08208">
        <ele>153</ele>
        <time>2019-03-30T12:42:54Z</time>
      </trkpt>
      <trkpt lat="49.25961" lon="4.08215">
        <ele>153</ele>
        <time>2019-03-30T12:42:55Z</time>
      </trkpt>
      <trkpt lat="49.25962" lon="4.08222">
        <ele>153</ele>
        <time>2019-03-30T12:42:56Z</time>
      </trkpt>
      <trkpt lat="49.25962" lon="4.08229">
        <ele>153</ele>
        <time>2019-03-30T12:42:57Z</time>
      </trkpt>
      <trkpt lat="49.25963" lon="4.08236">
        <ele>153</ele>
        <time>2019-03-30T12:42:58Z</time>
      </trkpt>
      <trkpt lat="49.25964" lon="4.08242">
        <ele>153</ele>
        <time>2019-03-30T12:42:59Z</time>
      </trkpt>
      <trkpt lat="49.25965" lon="4.08249">
        <ele>153</ele>
        <time>2019-03-30T12:43:00Z</time>
      </trkpt>
      <trkpt lat="49.25966" lon="4.08255">
        <ele>153</ele>
        <time>2019-03-30T12:43:01Z</time>
      </trkpt>
      <trkpt lat="49.25967" lon="4.08262">
        <ele>153</ele>
        <time>2019-03-30T12:43:02Z</time>
      </trkpt>
      <trkpt lat="49.25968" lon="4.08268">
        <ele>153</ele>
        <time>2019-03-30T12:43:03Z</time>
      </trkpt>
      <trkpt lat="49.25969" lon="4.08275">
        <ele>153</ele>
        <time>2019-03-30T12:43:04Z</time>
      </trkpt>
      <trkpt lat="49.25969" lon="4.08281">
        <ele>153</ele>
        <time>2019-03-30T12:43:05Z</time>
      </trkpt>
      <trkpt lat="49.2597" lon="4.08288">
        <ele>154</ele>
        <time>2019-03-30T12:43:06Z</time>
      </trkpt>
      <trkpt lat="49.2597" lon="4.08294">
        <ele>154</ele>
        <time>2019-03-30T12:43:07Z</time>
      </trkpt>
      <trkpt lat="49.25971" lon="4.08301">
        <ele>154</ele>
        <time>2019-03-30T12:43:08Z</time>
      </trkpt>
      <trkpt lat="49.25972" lon="4.08308">
        <ele>154</ele>
        <time>2019-03-30T12:43:09Z</time>
      </trkpt>
      <trkpt lat="49.25972" lon="4.08314">
        <ele>154</ele>
        <time>2019-03-30T12:43:10Z</time>
      </trkpt>
      <trkpt lat="49.25973" lon="4.08321">
        <ele>154</ele>
        <time>2019-03-30T12:43:11Z</time>
      </trkpt>
      <trkpt lat="49.25974" lon="4.08327">
        <ele>155</ele>
        <time>2019-03-30T12:43:12Z</time>
      </trkpt>
      <trkpt lat="49.25975" lon="4.08333">
        <ele>155</ele>
        <time>2019-03-30T12:43:13Z</time>
      </trkpt>
      <trkpt lat="49.25976" lon="4.08339">
        <ele>155</ele>
        <time>2019-03-30T12:43:14Z</time>
      </trkpt>
      <trkpt lat="49.25977" lon="4.08345">
        <ele>155</ele>
        <time>2019-03-30T12:43:15Z</time>
      </trkpt>
      <trkpt lat="49.25977" lon="4.08351">
        <ele>155</ele>
        <time>2019-03-30T12:43:16Z</time>
      </trkpt>
      <trkpt lat="49.25978" lon="4.08357">
        <ele>155</ele>
        <time>2019-03-30T12:43:17Z</time>
      </trkpt>
      <trkpt lat="49.25979" lon="4.08363">
        <ele>155</ele>
        <time>2019-03-30T12:43:18Z</time>
      </trkpt>
      <trkpt lat="49.25981" lon="4.0837">
        <ele>155</ele>
        <time>2019-03-30T12:43:19Z</time>
      </trkpt>
      <trkpt lat="49.25982" lon="4.08376">
        <ele>155</ele>
        <time>2019-03-30T12:43:20Z</time>
      </trkpt>
      <trkpt lat="49.25983" lon="4.08382">
        <ele>155</ele>
        <time>2019-03-30T12:43:21Z</time>
      </trkpt>
      <trkpt lat="49.25984" lon="4.08388">
        <ele>155</ele>
        <time>2019-03-30T12:43:22Z</time>
      </trkpt>
      <trkpt lat="49.25984" lon="4.08395">
        <ele>155</ele>
        <time>2019-03-30T12:43:23Z</time>
      </trkpt>
      <trkpt lat="49.25985" lon="4.08401">
        <ele>155</ele>
        <time>2019-03-30T12:43:24Z</time>
      </trkpt>
      <trkpt lat="49.25985" lon="4.08407">
        <ele>155</ele>
        <time>2019-03-30T12:43:25Z</time>
      </trkpt>
      <trkpt lat="49.25986" lon="4.08413">
        <ele>155</ele>
        <time>2019-03-30T12:43:26Z</time>
      </trkpt>
      <trkpt lat="49.25987" lon="4.08419">
        <ele>155</ele>
        <time>2019-03-30T12:43:27Z</time>
      </trkpt>
      <trkpt lat="49.25987" lon="4.08425">
        <ele>156</ele>
        <time>2019-03-30T12:43:28Z</time>
      </trkpt>
      <trkpt lat="49.25987" lon="4.08431">
        <ele>156</ele>
        <time>2019-03-30T12:43:29Z</time>
      </trkpt>
      <trkpt lat="49.25988" lon="4.08437">
        <ele>156</ele>
        <time>2019-03-30T12:43:30Z</time>
      </trkpt>
      <trkpt lat="49.25989" lon="4.08444">
        <ele>156</ele>
        <time>2019-03-30T12:43:31Z</time>
      </trkpt>
      <trkpt lat="49.2599" lon="4.0845">
        <ele>157</ele>
        <time>2019-03-30T12:43:32Z</time>
      </trkpt>
      <trkpt lat="49.25991" lon="4.08456">
        <ele>157</ele>
        <time>2019-03-30T12:43:33Z</time>
      </trkpt>
      <trkpt lat="49.25992" lon="4.08463">
        <ele>157</ele>
        <time>2019-03-30T12:43:34Z</time>
      </trkpt>
      <trkpt lat="49.25993" lon="4.0847">
        <ele>157</ele>
        <time>2019-03-30T12:43:35Z</time>
      </trkpt>
      <trkpt lat="49.25994" lon="4.08476">
        <ele>157</ele>
        <time>2019-03-30T12:43:36Z</time>
      </trkpt>
      <trkpt lat="49.25994" lon="4.08483">
        <ele>158</ele>
        <time>2019-03-30T12:43:37Z</time>
      </trkpt>
      <trkpt lat="49.25995" lon="4.0849">
        <ele>158</ele>
        <time>2019-03-30T12:43:38Z</time>
      </trkpt>
      <trkpt lat="49.25996" lon="4.08497">
        <ele>158</ele>
        <time>2019-03-30T12:43:39Z</time>
      </trkpt>
      <trkpt lat="49.25997" lon="4.08504">
        <ele>158</ele>
        <time>2019-03-30T12:43:40Z</time>
      </trkpt>
      <trkpt lat="49.25998" lon="4.0851">
        <ele>158</ele>
        <time>2019-03-30T12:43:41Z</time>
      </trkpt>
      <trkpt lat="49.25998" lon="4.08516">
        <ele>158</ele>
        <time>2019-03-30T12:43:42Z</time>
      </trkpt>
      <trkpt lat="49.25999" lon="4.08523">
        <ele>158</ele>
        <time>2019-03-30T12:43:43Z</time>
      </trkpt>
      <trkpt lat="49.26" lon="4.0853">
        <ele>158</ele>
        <time>2019-03-30T12:43:44Z</time>
      </trkpt>
      <trkpt lat="49.26001" lon="4.08537">
        <ele>158</ele>
        <time>2019-03-30T12:43:45Z</time>
      </trkpt>
      <trkpt lat="49.26002" lon="4.08544">
        <ele>158</ele>
        <time>2019-03-30T12:43:46Z</time>
      </trkpt>
      <trkpt lat="49.26003" lon="4.08551">
        <ele>158</ele>
        <time>2019-03-30T12:43:47Z</time>
      </trkpt>
      <trkpt lat="49.26004" lon="4.08557">
        <ele>158</ele>
        <time>2019-03-30T12:43:48Z</time>
      </trkpt>
      <trkpt lat="49.26005" lon="4.08564">
        <ele>158</ele>
        <time>2019-03-30T12:43:49Z</time>
      </trkpt>
      <trkpt lat="49.26005" lon="4.08571">
        <ele>158</ele>
        <time>2019-03-30T12:43:50Z</time>
      </trkpt>
      <trkpt lat="49.26006" lon="4.08577">
        <ele>159</ele>
        <time>2019-03-30T12:43:51Z</time>
      </trkpt>
      <trkpt lat="49.26007" lon="4.08584">
        <ele>159</ele>
        <time>2019-03-30T12:43:52Z</time>
      </trkpt>
      <trkpt lat="49.26008" lon="4.08591">
        <ele>159</ele>
        <time>2019-03-30T12:43:53Z</time>
      </trkpt>
      <trkpt lat="49.26009" lon="4.08597">
        <ele>159</ele>
        <time>2019-03-30T12:43:54Z</time>
      </trkpt>
      <trkpt lat="49.26009" lon="4.08604">
        <ele>159</ele>
        <time>2019-03-30T12:43:55Z</time>
      </trkpt>
      <trkpt lat="49.2601" lon="4.08611">
        <ele>159</ele>
        <time>2019-03-30T12:43:56Z</time>
      </trkpt>
      <trkpt lat="49.26011" lon="4.08618">
        <ele>159</ele>
        <time>2019-03-30T12:43:57Z</time>
      </trkpt>
      <trkpt lat="49.26011" lon="4.08625">
        <ele>159</ele>
        <time>2019-03-30T12:43:58Z</time>
      </trkpt>
      <trkpt lat="49.26012" lon="4.08632">
        <ele>159</ele>
        <time>2019-03-30T12:43:59Z</time>
      </trkpt>
      <trkpt lat="49.26013" lon="4.08639">
        <ele>159</ele>
        <time>2019-03-30T12:44:00Z</time>
      </trkpt>
      <trkpt lat="49.26014" lon="4.08645">
        <ele>159</ele>
        <time>2019-03-30T12:44:01Z</time>
      </trkpt>
      <trkpt lat="49.26015" lon="4.08653">
        <ele>159</ele>
        <time>2019-03-30T12:44:02Z</time>
      </trkpt>
      <trkpt lat="49.26016" lon="4.0866">
        <ele>159</ele>
        <time>2019-03-30T12:44:03Z</time>
      </trkpt>
      <trkpt lat="49.26017" lon="4.08666">
        <ele>159</ele>
        <time>2019-03-30T12:44:04Z</time>
      </trkpt>
      <trkpt lat="49.26018" lon="4.08674">
        <ele>160</ele>
        <time>2019-03-30T12:44:05Z</time>
      </trkpt>
      <trkpt lat="49.26019" lon="4.08681">
        <ele>159</ele>
        <time>2019-03-30T12:44:06Z</time>
      </trkpt>
      <trkpt lat="49.2602" lon="4.08688">
        <ele>160</ele>
        <time>2019-03-30T12:44:07Z</time>
      </trkpt>
      <trkpt lat="49.2602" lon="4.08695">
        <ele>160</ele>
        <time>2019-03-30T12:44:08Z</time>
      </trkpt>
      <trkpt lat="49.26021" lon="4.08703">
        <ele>160</ele>
        <time>2019-03-30T12:44:09Z</time>
      </trkpt>
      <trkpt lat="49.26023" lon="4.0871">
        <ele>160</ele>
        <time>2019-03-30T12:44:10Z</time>
      </trkpt>
      <trkpt lat="49.26024" lon="4.08716">
        <ele>160</ele>
        <time>2019-03-30T12:44:11Z</time>
      </trkpt>
      <trkpt lat="49.26025" lon="4.08723">
        <ele>160</ele>
        <time>2019-03-30T12:44:12Z</time>
      </trkpt>
      <trkpt lat="49.26026" lon="4.0873">
        <ele>160</ele>
        <time>2019-03-30T12:44:13Z</time>
      </trkpt>
      <trkpt lat="49.26027" lon="4.08737">
        <ele>160</ele>
        <time>2019-03-30T12:44:14Z</time>
      </trkpt>
      <trkpt lat="49.26028" lon="4.08744">
        <ele>160</ele>
        <time>2019-03-30T12:44:15Z</time>
      </trkpt>
      <trkpt lat="49.26029" lon="4.08751">
        <ele>160</ele>
        <time>2019-03-30T12:44:16Z</time>
      </trkpt>
      <trkpt lat="49.26029" lon="4.08758">
        <ele>160</ele>
        <time>2019-03-30T12:44:17Z</time>
      </trkpt>
      <trkpt lat="49.2603" lon="4.08765">
        <ele>160</ele>
        <time>2019-03-30T12:44:18Z</time>
      </trkpt>
      <trkpt lat="49.26031" lon="4.08772">
        <ele>160</ele>
        <time>2019-03-30T12:44:19Z</time>
      </trkpt>
      <trkpt lat="49.26032" lon="4.08779">
        <ele>160</ele>
        <time>2019-03-30T12:44:20Z</time>
      </trkpt>
      <trkpt lat="49.26033" lon="4.08785">
        <ele>160</ele>
        <time>2019-03-30T12:44:21Z</time>
      </trkpt>
      <trkpt lat="49.26033" lon="4.08792">
        <ele>160</ele>
        <time>2019-03-30T12:44:22Z</time>
      </trkpt>
      <trkpt lat="49.26034" lon="4.08799">
        <ele>160</ele>
        <time>2019-03-30T12:44:23Z</time>
      </trkpt>
      <trkpt lat="49.26035" lon="4.08806">
        <ele>160</ele>
        <time>2019-03-30T12:44:24Z</time>
      </trkpt>
      <trkpt lat="49.26036" lon="4.08812">
        <ele>160</ele>
        <time>2019-03-30T12:44:25Z</time>
      </trkpt>
      <trkpt lat="49.26037" lon="4.08819">
        <ele>160</ele>
        <time>2019-03-30T12:44:26Z</time>
      </trkpt>
      <trkpt lat="49.26038" lon="4.08827">
        <ele>160</ele>
        <time>2019-03-30T12:44:27Z</time>
      </trkpt>
      <trkpt lat="49.26039" lon="4.08834">
        <ele>160</ele>
        <time>2019-03-30T12:44:28Z</time>
      </trkpt>
      <trkpt lat="49.2604" lon="4.08842">
        <ele>160</ele>
        <time>2019-03-30T12:44:29Z</time>
      </trkpt>
      <trkpt lat="49.2604" lon="4.08849">
        <ele>160</ele>
        <time>2019-03-30T12:44:30Z</time>
      </trkpt>
      <trkpt lat="49.26041" lon="4.08856">
        <ele>161</ele>
        <time>2019-03-30T12:44:31Z</time>
      </trkpt>
      <trkpt lat="49.26042" lon="4.08864">
        <ele>161</ele>
        <time>2019-03-30T12:44:32Z</time>
      </trkpt>
      <trkpt lat="49.26043" lon="4.08871">
        <ele>161</ele>
        <time>2019-03-30T12:44:33Z</time>
      </trkpt>
      <trkpt lat="49.26044" lon="4.08878">
        <ele>161</ele>
        <time>2019-03-30T12:44:34Z</time>
      </trkpt>
      <trkpt lat="49.26045" lon="4.08885">
        <ele>161</ele>
        <time>2019-03-30T12:44:35Z</time>
      </trkpt>
      <trkpt lat="49.26046" lon="4.08892">
        <ele>161</ele>
        <time>2019-03-30T12:44:36Z</time>
      </trkpt>
      <trkpt lat="49.26047" lon="4.08899">
        <ele>161</ele>
        <time>2019-03-30T12:44:37Z</time>
      </trkpt>
      <trkpt lat="49.26048" lon="4.08906">
        <ele>161</ele>
        <time>2019-03-30T12:44:38Z</time>
      </trkpt>
      <trkpt lat="49.26049" lon="4.08914">
        <ele>161</ele>
        <time>2019-03-30T12:44:39Z</time>
      </trkpt>
      <trkpt lat="49.2605" lon="4.08921">
        <ele>161</ele>
        <time>2019-03-30T12:44:40Z</time>
      </trkpt>
      <trkpt lat="49.2605" lon="4.08929">
        <ele>162</ele>
        <time>2019-03-30T12:44:41Z</time>
      </trkpt>
      <trkpt lat="49.26051" lon="4.08936">
        <ele>161</ele>
        <time>2019-03-30T12:44:42Z</time>
      </trkpt>
      <trkpt lat="49.26052" lon="4.08944">
        <ele>162</ele>
        <time>2019-03-30T12:44:43Z</time>
      </trkpt>
      <trkpt lat="49.26054" lon="4.08952">
        <ele>161</ele>
        <time>2019-03-30T12:44:44Z</time>
      </trkpt>
      <trkpt lat="49.26055" lon="4.08959">
        <ele>161</ele>
        <time>2019-03-30T12:44:45Z</time>
      </trkpt>
      <trkpt lat="49.26056" lon="4.08967">
        <ele>161</ele>
        <time>2019-03-30T12:44:46Z</time>
      </trkpt>
      <trkpt lat="49.26056" lon="4.08974">
        <ele>161</ele>
        <time>2019-03-30T12:44:47Z</time>
      </trkpt>
      <trkpt lat="49.26057" lon="4.08982">
        <ele>162</ele>
        <time>2019-03-30T12:44:48Z</time>
      </trkpt>
      <trkpt lat="49.26058" lon="4.08989">
        <ele>162</ele>
        <time>2019-03-30T12:44:49Z</time>
      </trkpt>
      <trkpt lat="49.26059" lon="4.08996">
        <ele>162</ele>
        <time>2019-03-30T12:44:50Z</time>
      </trkpt>
      <trkpt lat="49.2606" lon="4.09004">
        <ele>162</ele>
        <time>2019-03-30T12:44:51Z</time>
      </trkpt>
      <trkpt lat="49.26061" lon="4.09012">
        <ele>162</ele>
        <time>2019-03-30T12:44:52Z</time>
      </trkpt>
      <trkpt lat="49.26062" lon="4.0902">
        <ele>162</ele>
        <time>2019-03-30T12:44:53Z</time>
      </trkpt>
      <trkpt lat="49.26063" lon="4.09028">
        <ele>162</ele>
        <time>2019-03-30T12:44:54Z</time>
      </trkpt>
      <trkpt lat="49.26064" lon="4.09035">
        <ele>162</ele>
        <time>2019-03-30T12:44:55Z</time>
      </trkpt>
      <trkpt lat="49.26065" lon="4.09043">
        <ele>162</ele>
        <time>2019-03-30T12:44:56Z</time>
      </trkpt>
      <trkpt lat="49.26065" lon="4.09051">
        <ele>162</ele>
        <time>2019-03-30T12:44:57Z</time>
      </trkpt>
      <trkpt lat="49.26067" lon="4.09058">
        <ele>162</ele>
        <time>2019-03-30T12:44:58Z</time>
      </trkpt>
      <trkpt lat="49.26067" lon="4.09066">
        <ele>162</ele>
        <time>2019-03-30T12:44:59Z</time>
      </trkpt>
      <trkpt lat="49.26068" lon="4.09074">
        <ele>162</ele>
        <time>2019-03-30T12:45:00Z</time>
      </trkpt>
      <trkpt lat="49.26069" lon="4.09082">
        <ele>162</ele>
        <time>2019-03-30T12:45:01Z</time>
      </trkpt>
      <trkpt lat="49.2607" lon="4.0909">
        <ele>162</ele>
        <time>2019-03-30T12:45:02Z</time>
      </trkpt>
      <trkpt lat="49.26072" lon="4.09098">
        <ele>161</ele>
        <time>2019-03-30T12:45:03Z</time>
      </trkpt>
      <trkpt lat="49.26073" lon="4.09106">
        <ele>161</ele>
        <time>2019-03-30T12:45:04Z</time>
      </trkpt>
      <trkpt lat="49.26074" lon="4.09115">
        <ele>162</ele>
        <time>2019-03-30T12:45:05Z</time>
      </trkpt>
      <trkpt lat="49.26075" lon="4.09123">
        <ele>162</ele>
        <time>2019-03-30T12:45:06Z</time>
      </trkpt>
      <trkpt lat="49.26076" lon="4.09131">
        <ele>161</ele>
        <time>2019-03-30T12:45:07Z</time>
      </trkpt>
      <trkpt lat="49.26077" lon="4.0914">
        <ele>161</ele>
        <time>2019-03-30T12:45:08Z</time>
      </trkpt>
      <trkpt lat="49.26078" lon="4.09148">
        <ele>161</ele>
        <time>2019-03-30T12:45:09Z</time>
      </trkpt>
      <trkpt lat="49.26079" lon="4.09156">
        <ele>161</ele>
        <time>2019-03-30T12:45:10Z</time>
      </trkpt>
      <trkpt lat="49.2608" lon="4.09165">
        <ele>161</ele>
        <time>2019-03-30T12:45:11Z</time>
      </trkpt>
      <trkpt lat="49.26081" lon="4.09173">
        <ele>161</ele>
        <time>2019-03-30T12:45:12Z</time>
      </trkpt>
      <trkpt lat="49.26083" lon="4.09181">
        <ele>161</ele>
        <time>2019-03-30T12:45:13Z</time>
      </trkpt>
      <trkpt lat="49.26084" lon="4.09189">
        <ele>161</ele>
        <time>2019-03-30T12:45:14Z</time>
      </trkpt>
      <trkpt lat="49.26085" lon="4.09198">
        <ele>161</ele>
        <time>2019-03-30T12:45:15Z</time>
      </trkpt>
      <trkpt lat="49.26086" lon="4.09206">
        <ele>161</ele>
        <time>2019-03-30T12:45:16Z</time>
      </trkpt>
      <trkpt lat="49.26086" lon="4.09214">
        <ele>161</ele>
        <time>2019-03-30T12:45:17Z</time>
      </trkpt>
      <trkpt lat="49.26087" lon="4.09222">
        <ele>161</ele>
        <time>2019-03-30T12:45:18Z</time>
      </trkpt>
      <trkpt lat="49.26089" lon="4.0923">
        <ele>161</ele>
        <time>2019-03-30T12:45:19Z</time>
      </trkpt>
      <trkpt lat="49.2609" lon="4.09239">
        <ele>161</ele>
        <time>2019-03-30T12:45:20Z</time>
      </trkpt>
      <trkpt lat="49.26091" lon="4.09247">
        <ele>161</ele>
        <time>2019-03-30T12:45:21Z</time>
      </trkpt>
      <trkpt lat="49.26092" lon="4.09255">
        <ele>161</ele>
        <time>2019-03-30T12:45:22Z</time>
      </trkpt>
      <trkpt lat="49.26093" lon="4.09264">
        <ele>160</ele>
        <time>2019-03-30T12:45:23Z</time>
      </trkpt>
      <trkpt lat="49.26094" lon="4.09272">
        <ele>161</ele>
        <time>2019-03-30T12:45:24Z</time>
      </trkpt>
      <trkpt lat="49.26095" lon="4.0928">
        <ele>161</ele>
        <time>2019-03-30T12:45:25Z</time>
      </trkpt>
      <trkpt lat="49.26096" lon="4.09289">
        <ele>160</ele>
        <time>2019-03-30T12:45:26Z</time>
      </trkpt>
      <trkpt lat="49.26097" lon="4.09297">
        <ele>160</ele>
        <time>2019-03-30T12:45:27Z</time>
      </trkpt>
      <trkpt lat="49.26098" lon="4.09307">
        <ele>160</ele>
        <time>2019-03-30T12:45:28Z</time>
      </trkpt>
      <trkpt lat="49.26099" lon="4.09315">
        <ele>160</ele>
        <time>2019-03-30T12:45:29Z</time>
      </trkpt>
      <trkpt lat="49.261" lon="4.09324">
        <ele>160</ele>
        <time>2019-03-30T12:45:30Z</time>
      </trkpt>
      <trkpt lat="49.26101" lon="4.09334">
        <ele>160</ele>
        <time>2019-03-30T12:45:31Z</time>
      </trkpt>
      <trkpt lat="49.26103" lon="4.09343">
        <ele>160</ele>
        <time>2019-03-30T12:45:32Z</time>
      </trkpt>
      <trkpt lat="49.26104" lon="4.09352">
        <ele>160</ele>
        <time>2019-03-30T12:45:33Z</time>
      </trkpt>
      <trkpt lat="49.26105" lon="4.09361">
        <ele>160</ele>
        <time>2019-03-30T12:45:34Z</time>
      </trkpt>
      <trkpt lat="49.26106" lon="4.09371">
        <ele>160</ele>
        <time>2019-03-30T12:45:35Z</time>
      </trkpt>
      <trkpt lat="49.26107" lon="4.0938">
        <ele>160</ele>
        <time>2019-03-30T12:45:36Z</time>
      </trkpt>
      <trkpt lat="49.26109" lon="4.09389">
        <ele>160</ele>
        <time>2019-03-30T12:45:37Z</time>
      </trkpt>
      <trkpt lat="49.2611" lon="4.09399">
        <ele>160</ele>
        <time>2019-03-30T12:45:38Z</time>
      </trkpt>
      <trkpt lat="49.26111" lon="4.09408">
        <ele>160</ele>
        <time>2019-03-30T12:45:39Z</time>
      </trkpt>
      <trkpt lat="49.26112" lon="4.09418">
        <ele>160</ele>
        <time>2019-03-30T12:45:40Z</time>
      </trkpt>
      <trkpt lat="49.26114" lon="4.09427">
        <ele>160</ele>
        <time>2019-03-30T12:45:41Z</time>
      </trkpt>
      <trkpt lat="49.26115" lon="4.09436">
        <ele>160</ele>
        <time>2019-03-30T12:45:42Z</time>
      </trkpt>
      <trkpt lat="49.26116" lon="4.09445">
        <ele>160</ele>
        <time>2019-03-30T12:45:43Z</time>
      </trkpt>
      <trkpt lat="49.26117" lon="4.09455">
        <ele>160</ele>
        <time>2019-03-30T12:45:44Z</time>
      </trkpt>
      <trkpt lat="49.26118" lon="4.09464">
        <ele>160</ele>
        <time>2019-03-30T12:45:45Z</time>
      </trkpt>
      <trkpt lat="49.2612" lon="4.09474">
        <ele>160</ele>
        <time>2019-03-30T12:45:46Z</time>
      </trkpt>
      <trkpt lat="49.2612" lon="4.09484">
        <ele>160</ele>
        <time>2019-03-30T12:45:47Z</time>
      </trkpt>
      <trkpt lat="49.26121" lon="4.09493">
        <ele>160</ele>
        <time>2019-03-30T12:45:48Z</time>
      </trkpt>
      <trkpt lat="49.26122" lon="4.09503">
        <ele>160</ele>
        <time>2019-03-30T12:45:49Z</time>
      </trkpt>
      <trkpt lat="49.26124" lon="4.09512">
        <ele>160</ele>
        <time>2019-03-30T12:45:50Z</time>
      </trkpt>
      <trkpt lat="49.26125" lon="4.09522">
        <ele>160</ele>
        <time>2019-03-30T12:45:51Z</time>
      </trkpt>
      <trkpt lat="49.26126" lon="4.0953">
        <ele>160</ele>
        <time>2019-03-30T12:45:52Z</time>
      </trkpt>
      <trkpt lat="49.26127" lon="4.09539">
        <ele>160</ele>
        <time>2019-03-30T12:45:53Z</time>
      </trkpt>
      <trkpt lat="49.26129" lon="4.09547">
        <ele>160</ele>
        <time>2019-03-30T12:45:54Z</time>
      </trkpt>
      <trkpt lat="49.2613" lon="4.09556">
        <ele>160</ele>
        <time>2019-03-30T12:45:55Z</time>
      </trkpt>
      <trkpt lat="49.2613" lon="4.09564">
        <ele>160</ele>
        <time>2019-03-30T12:45:56Z</time>
      </trkpt>
      <trkpt lat="49.26131" lon="4.09572">
        <ele>160</ele>
        <time>2019-03-30T12:45:57Z</time>
      </trkpt>
      <trkpt lat="49.26133" lon="4.0958">
        <ele>160</ele>
        <time>2019-03-30T12:45:58Z</time>
      </trkpt>
      <trkpt lat="49.26134" lon="4.09588">
        <ele>160</ele>
        <time>2019-03-30T12:45:59Z</time>
      </trkpt>
      <trkpt lat="49.26135" lon="4.09596">
        <ele>160</ele>
        <time>2019-03-30T12:46:00Z</time>
      </trkpt>
      <trkpt lat="49.26135" lon="4.09603">
        <ele>160</ele>
        <time>2019-03-30T12:46:01Z</time>
      </trkpt>
      <trkpt lat="49.26136" lon="4.0961">
        <ele>160</ele>
        <time>2019-03-30T12:46:02Z</time>
      </trkpt>
      <trkpt lat="49.26138" lon="4.09614">
        <ele>161</ele>
        <time>2019-03-30T12:46:03Z</time>
      </trkpt>
      <trkpt lat="49.26143" lon="4.09616">
        <ele>161</ele>
        <time>2019-03-30T12:46:04Z</time>
      </trkpt>
      <trkpt lat="49.26147" lon="4.09613">
        <ele>161</ele>
        <time>2019-03-30T12:46:05Z</time>
      </trkpt>
      <trkpt lat="49.26151" lon="4.0961">
        <ele>161</ele>
        <time>2019-03-30T12:46:06Z</time>
      </trkpt>
      <trkpt lat="49.26156" lon="4.09607">
        <ele>161</ele>
        <time>2019-03-30T12:46:07Z</time>
      </trkpt>
      <trkpt lat="49.2616" lon="4.09604">
        <ele>161</ele>
        <time>2019-03-30T12:46:08Z</time>
      </trkpt>
      <trkpt lat="49.26165" lon="4.09598">
        <ele>161</ele>
        <time>2019-03-30T12:46:09Z</time>
      </trkpt>
      <trkpt lat="49.26169" lon="4.09592">
        <ele>160</ele>
        <time>2019-03-30T12:46:10Z</time>
      </trkpt>
      <trkpt lat="49.26174" lon="4.09587">
        <ele>160</ele>
        <time>2019-03-30T12:46:11Z</time>
      </trkpt>
      <trkpt lat="49.26179" lon="4.09582">
        <ele>160</ele>
        <time>2019-03-30T12:46:12Z</time>
      </trkpt>
      <trkpt lat="49.26183" lon="4.09577">
        <ele>161</ele>
        <time>2019-03-30T12:46:13Z</time>
      </trkpt>
      <trkpt lat="49.26188" lon="4.09573">
        <ele>161</ele>
        <time>2019-03-30T12:46:14Z</time>
      </trkpt>
      <trkpt lat="49.26194" lon="4.09576">
        <ele>162</ele>
        <time>2019-03-30T12:46:15Z</time>
      </trkpt>
      <trkpt lat="49.262" lon="4.09584">
        <ele>162</ele>
        <time>2019-03-30T12:46:16Z</time>
      </trkpt>
      <trkpt lat="49.26205" lon="4.09591">
        <ele>162</ele>
        <time>2019-03-30T12:46:17Z</time>
      </trkpt>
      <trkpt lat="49.2621" lon="4.09597">
        <ele>162</ele>
        <time>2019-03-30T12:46:18Z</time>
      </trkpt>
      <trkpt lat="49.26215" lon="4.09603">
        <ele>160</ele>
        <time>2019-03-30T12:46:19Z</time>
      </trkpt>
      <trkpt lat="49.2622" lon="4.09611">
        <ele>160</ele>
        <time>2019-03-30T12:46:20Z</time>
      </trkpt>
      <trkpt lat="49.26225" lon="4.09617">
        <ele>160</ele>
        <time>2019-03-30T12:46:21Z</time>
      </trkpt>
      <trkpt lat="49.2623" lon="4.09623">
        <ele>160</ele>
        <time>2019-03-30T12:46:22Z</time>
      </trkpt>
      <trkpt lat="49.26234" lon="4.09629">
        <ele>159</ele>
        <time>2019-03-30T12:46:23Z</time>
      </trkpt>
      <trkpt lat="49.26239" lon="4.09634">
        <ele>159</ele>
        <time>2019-03-30T12:46:24Z</time>
      </trkpt>
      <trkpt lat="49.26243" lon="4.0964">
        <ele>159</ele>
        <time>2019-03-30T12:46:25Z</time>
      </trkpt>
      <trkpt lat="49.26247" lon="4.09645">
        <ele>158</ele>
        <time>2019-03-30T12:46:26Z</time>
      </trkpt>
      <trkpt lat="49.26252" lon="4.09651">
        <ele>158</ele>
        <time>2019-03-30T12:46:27Z</time>
      </trkpt>
      <trkpt lat="49.26256" lon="4.09656">
        <ele>158</ele>
        <time>2019-03-30T12:46:28Z</time>
      </trkpt>
      <trkpt lat="49.2626" lon="4.09661">
        <ele>158</ele>
        <time>2019-03-30T12:46:29Z</time>
      </trkpt>
      <trkpt lat="49.26264" lon="4.09666">
        <ele>158</ele>
        <time>2019-03-30T12:46:30Z</time>
      </trkpt>
      <trkpt lat="49.26268" lon="4.0967">
        <ele>158</ele>
        <time>2019-03-30T12:46:31Z</time>
      </trkpt>
      <trkpt lat="49.26272" lon="4.09674">
        <ele>158</ele>
        <time>2019-03-30T12:46:32Z</time>
      </trkpt>
      <trkpt lat="49.26275" lon="4.09678">
        <ele>158</ele>
        <time>2019-03-30T12:46:33Z</time>
      </trkpt>
      <trkpt lat="49.26279" lon="4.09681">
        <ele>158</ele>
        <time>2019-03-30T12:46:34Z</time>
      </trkpt>
      <trkpt lat="49.26282" lon="4.09684">
        <ele>159</ele>
        <time>2019-03-30T12:46:35Z</time>
      </trkpt>
      <trkpt lat="49.26286" lon="4.09686">
        <ele>159</ele>
        <time>2019-03-30T12:46:36Z</time>
      </trkpt>
      <trkpt lat="49.2629" lon="4.09688">
        <ele>159</ele>
        <time>2019-03-30T12:46:37Z</time>
      </trkpt>
      <trkpt lat="49.26294" lon="4.09691">
        <ele>159</ele>
        <time>2019-03-30T12:46:38Z</time>
      </trkpt>
      <trkpt lat="49.26297" lon="4.09694">
        <ele>160</ele>
        <time>2019-03-30T12:46:39Z</time>
      </trkpt>
      <trkpt lat="49.26302" lon="4.09697">
        <ele>160</ele>
        <time>2019-03-30T12:46:40Z</time>
      </trkpt>
      <trkpt lat="49.26306" lon="4.097">
        <ele>160</ele>
        <time>2019-03-30T12:46:41Z</time>
      </trkpt>
      <trkpt lat="49.26309" lon="4.09704">
        <ele>161</ele>
        <time>2019-03-30T12:46:42Z</time>
      </trkpt>
      <trkpt lat="49.26314" lon="4.09707">
        <ele>161</ele>
        <time>2019-03-30T12:46:43Z</time>
      </trkpt>
      <trkpt lat="49.26318" lon="4.09709">
        <ele>161</ele>
        <time>2019-03-30T12:46:44Z</time>
      </trkpt>
      <trkpt lat="49.26322" lon="4.09712">
        <ele>161</ele>
        <time>2019-03-30T12:46:45Z</time>
      </trkpt>
      <trkpt lat="49.26326" lon="4.09715">
        <ele>161</ele>
        <time>2019-03-30T12:46:46Z</time>
      </trkpt>
      <trkpt lat="49.2633" lon="4.09717">
        <ele>161</ele>
        <time>2019-03-30T12:46:47Z</time>
      </trkpt>
      <trkpt lat="49.26334" lon="4.0972">
        <ele>161</ele>
        <time>2019-03-30T12:46:48Z</time>
      </trkpt>
      <trkpt lat="49.26337" lon="4.09723">
        <ele>161</ele>
        <time>2019-03-30T12:46:49Z</time>
      </trkpt>
      <trkpt lat="49.26341" lon="4.09726">
        <ele>161</ele>
        <time>2019-03-30T12:46:50Z</time>
      </trkpt>
      <trkpt lat="49.26345" lon="4.09728">
        <ele>161</ele>
        <time>2019-03-30T12:46:51Z</time>
      </trkpt>
      <trkpt lat="49.26348" lon="4.09731">
        <ele>161</ele>
        <time>2019-03-30T12:46:52Z</time>
      </trkpt>
      <trkpt lat="49.26351" lon="4.09734">
        <ele>161</ele>
        <time>2019-03-30T12:46:53Z</time>
      </trkpt>
      <trkpt lat="49.26354" lon="4.09736">
        <ele>161</ele>
        <time>2019-03-30T12:46:54Z</time>
      </trkpt>
      <trkpt lat="49.26358" lon="4.09738">
        <ele>161</ele>
        <time>2019-03-30T12:46:55Z</time>
      </trkpt>
      <trkpt lat="49.26361" lon="4.09741">
        <ele>162</ele>
        <time>2019-03-30T12:46:56Z</time>
      </trkpt>
      <trkpt lat="49.26365" lon="4.09744">
        <ele>161</ele>
        <time>2019-03-30T12:46:57Z</time>
      </trkpt>
      <trkpt lat="49.26368" lon="4.09746">
        <ele>161</ele>
        <time>2019-03-30T12:46:58Z</time>
      </trkpt>
      <trkpt lat="49.26372" lon="4.09748">
        <ele>162</ele>
        <time>2019-03-30T12:46:59Z</time>
      </trkpt>
      <trkpt lat="49.26375" lon="4.09751">
        <ele>162</ele>
        <time>2019-03-30T12:47:00Z</time>
      </trkpt>
      <trkpt lat="49.26379" lon="4.09754">
        <ele>162</ele>
        <time>2019-03-30T12:47:01Z</time>
      </trkpt>
      <trkpt lat="49.26382" lon="4.09757">
        <ele>161</ele>
        <time>2019-03-30T12:47:02Z</time>
      </trkpt>
      <trkpt lat="49.26386" lon="4.0976">
        <ele>162</ele>
        <time>2019-03-30T12:47:03Z</time>
      </trkpt>
      <trkpt lat="49.26389" lon="4.09764">
        <ele>162</ele>
        <time>2019-03-30T12:47:04Z</time>
      </trkpt>
      <trkpt lat="49.26391" lon="4.09768">
        <ele>161</ele>
        <time>2019-03-30T12:47:05Z</time>
      </trkpt>
      <trkpt lat="49.26393" lon="4.09774">
        <ele>162</ele>
        <time>2019-03-30T12:47:06Z</time>
      </trkpt>
      <trkpt lat="49.26395" lon="4.09779">
        <ele>162</ele>
        <time>2019-03-30T12:47:07Z</time>
      </trkpt>
      <trkpt lat="49.26397" lon="4.09785">
        <ele>162</ele>
        <time>2019-03-30T12:47:08Z</time>
      </trkpt>
      <trkpt lat="49.26399" lon="4.09791">
        <ele>162</ele>
        <time>2019-03-30T12:47:09Z</time>
      </trkpt>
      <trkpt lat="49.264" lon="4.09797">
        <ele>162</ele>
        <time>2019-03-30T12:47:10Z</time>
      </trkpt>
      <trkpt lat="49.26402" lon="4.09804">
        <ele>162</ele>
        <time>2019-03-30T12:47:11Z</time>
      </trkpt>
      <trkpt lat="49.26404" lon="4.0981">
        <ele>162</ele>
        <time>2019-03-30T12:47:12Z</time>
      </trkpt>
      <trkpt lat="49.26406" lon="4.09816">
        <ele>162</ele>
        <time>2019-03-30T12:47:13Z</time>
      </trkpt>
      <trkpt lat="49.26408" lon="4.09822">
        <ele>162</ele>
        <time>2019-03-30T12:47:14Z</time>
      </trkpt>
      <trkpt lat="49.26409" lon="4.09828">
        <ele>162</ele>
        <time>2019-03-30T12:47:15Z</time>
      </trkpt>
      <trkpt lat="49.26411" lon="4.09834">
        <ele>162</ele>
        <time>2019-03-30T12:47:16Z</time>
      </trkpt>
      <trkpt lat="49.26413" lon="4.0984">
        <ele>162</ele>
        <time>2019-03-30T12:47:17Z</time>
      </trkpt>
      <trkpt lat="49.26414" lon="4.09846">
        <ele>163</ele>
        <time>2019-03-30T12:47:18Z</time>
      </trkpt>
      <trkpt lat="49.26416" lon="4.09852">
        <ele>163</ele>
        <time>2019-03-30T12:47:19Z</time>
      </trkpt>
      <trkpt lat="49.26417" lon="4.09858">
        <ele>163</ele>
        <time>2019-03-30T12:47:20Z</time>
      </trkpt>
      <trkpt lat="49.26419" lon="4.09863">
        <ele>163</ele>
        <time>2019-03-30T12:47:21Z</time>
      </trkpt>
      <trkpt lat="49.2642" lon="4.09869">
        <ele>163</ele>
        <time>2019-03-30T12:47:22Z</time>
      </trkpt>
      <trkpt lat="49.26421" lon="4.09874">
        <ele>163</ele>
        <time>2019-03-30T12:47:23Z</time>
      </trkpt>
      <trkpt lat="49.26422" lon="4.0988">
        <ele>163</ele>
        <time>2019-03-30T12:47:24Z</time>
      </trkpt>
      <trkpt lat="49.26424" lon="4.09885">
        <ele>163</ele>
        <time>2019-03-30T12:47:25Z</time>
      </trkpt>
      <trkpt lat="49.26425" lon="4.0989">
        <ele>163</ele>
        <time>2019-03-30T12:47:26Z</time>
      </trkpt>
      <trkpt lat="49.26427" lon="4.09896">
        <ele>163</ele>
        <time>2019-03-30T12:47:27Z</time>
      </trkpt>
      <trkpt lat="49.26428" lon="4.09902">
        <ele>163</ele>
        <time>2019-03-30T12:47:28Z</time>
      </trkpt>
      <trkpt lat="49.26429" lon="4.09908">
        <ele>163</ele>
        <time>2019-03-30T12:47:29Z</time>
      </trkpt>
      <trkpt lat="49.26431" lon="4.09914">
        <ele>163</ele>
        <time>2019-03-30T12:47:30Z</time>
      </trkpt>
      <trkpt lat="49.26432" lon="4.09919">
        <ele>163</ele>
        <time>2019-03-30T12:47:31Z</time>
      </trkpt>
      <trkpt lat="49.26434" lon="4.09924">
        <ele>163</ele>
        <time>2019-03-30T12:47:32Z</time>
      </trkpt>
      <trkpt lat="49.26435" lon="4.09929">
        <ele>163</ele>
        <time>2019-03-30T12:47:33Z</time>
      </trkpt>
      <trkpt lat="49.26437" lon="4.09934">
        <ele>164</ele>
        <time>2019-03-30T12:47:34Z</time>
      </trkpt>
      <trkpt lat="49.26438" lon="4.09939">
        <ele>164</ele>
        <time>2019-03-30T12:47:35Z</time>
      </trkpt>
      <trkpt lat="49.26439" lon="4.09945">
        <ele>164</ele>
        <time>2019-03-30T12:47:36Z</time>
      </trkpt>
      <trkpt lat="49.26441" lon="4.0995">
        <ele>164</ele>
        <time>2019-03-30T12:47:37Z</time>
      </trkpt>
      <trkpt lat="49.26442" lon="4.09955">
        <ele>164</ele>
        <time>2019-03-30T12:47:38Z</time>
      </trkpt>
      <trkpt lat="49.26443" lon="4.0996">
        <ele>164</ele>
        <time>2019-03-30T12:47:39Z</time>
      </trkpt>
      <trkpt lat="49.26444" lon="4.09964">
        <ele>164</ele>
        <time>2019-03-30T12:47:40Z</time>
      </trkpt>
      <trkpt lat="49.26445" lon="4.09969">
        <ele>164</ele>
        <time>2019-03-30T12:47:41Z</time>
      </trkpt>
      <trkpt lat="49.26447" lon="4.09972">
        <ele>164</ele>
        <time>2019-03-30T12:47:42Z</time>
      </trkpt>
      <trkpt lat="49.26448" lon="4.09976">
        <ele>164</ele>
        <time>2019-03-30T12:47:43Z</time>
      </trkpt>
      <trkpt lat="49.26449" lon="4.09981">
        <ele>164</ele>
        <time>2019-03-30T12:47:44Z</time>
      </trkpt>
      <trkpt lat="49.2645" lon="4.09985">
        <ele>165</ele>
        <time>2019-03-30T12:47:45Z</time>
      </trkpt>
      <trkpt lat="49.26451" lon="4.09989">
        <ele>165</ele>
        <time>2019-03-30T12:47:46Z</time>
      </trkpt>
      <trkpt lat="49.26452" lon="4.09992">
        <ele>165</ele>
        <time>2019-03-30T12:47:47Z</time>
      </trkpt>
      <trkpt lat="49.26453" lon="4.09996">
        <ele>165</ele>
        <time>2019-03-30T12:47:48Z</time>
      </trkpt>
      <trkpt lat="49.26454" lon="4.10001">
        <ele>165</ele>
        <time>2019-03-30T12:47:49Z</time>
      </trkpt>
      <trkpt lat="49.26455" lon="4.10006">
        <ele>165</ele>
        <time>2019-03-30T12:47:50Z</time>
      </trkpt>
      <trkpt lat="49.26457" lon="4.10011">
        <ele>165</ele>
        <time>2019-03-30T12:47:51Z</time>
      </trkpt>
      <trkpt lat="49.26458" lon="4.10016">
        <ele>165</ele>
        <time>2019-03-30T12:47:52Z</time>
      </trkpt>
      <trkpt lat="49.26459" lon="4.10021">
        <ele>165</ele>
        <time>2019-03-30T12:47:53Z</time>
      </trkpt>
      <trkpt lat="49.2646" lon="4.10026">
        <ele>165</ele>
        <time>2019-03-30T12:47:54Z</time>
      </trkpt>
      <trkpt lat="49.26461" lon="4.10032">
        <ele>166</ele>
        <time>2019-03-30T12:47:55Z</time>
      </trkpt>
      <trkpt lat="49.26463" lon="4.10038">
        <ele>166</ele>
        <time>2019-03-30T12:47:56Z</time>
      </trkpt>
      <trkpt lat="49.26464" lon="4.10044">
        <ele>166</ele>
        <time>2019-03-30T12:47:57Z</time>
      </trkpt>
      <trkpt lat="49.26466" lon="4.1005">
        <ele>166</ele>
        <time>2019-03-30T12:47:58Z</time>
      </trkpt>
      <trkpt lat="49.26468" lon="4.10055">
        <ele>166</ele>
        <time>2019-03-30T12:47:59Z</time>
      </trkpt>
      <trkpt lat="49.26469" lon="4.10061">
        <ele>167</ele>
        <time>2019-03-30T12:48:00Z</time>
      </trkpt>
      <trkpt lat="49.26471" lon="4.10067">
        <ele>167</ele>
        <time>2019-03-30T12:48:01Z</time>
      </trkpt>
      <trkpt lat="49.26473" lon="4.10073">
        <ele>167</ele>
        <time>2019-03-30T12:48:02Z</time>
      </trkpt>
      <trkpt lat="49.26474" lon="4.10078">
        <ele>168</ele>
        <time>2019-03-30T12:48:03Z</time>
      </trkpt>
      <trkpt lat="49.26476" lon="4.10084">
        <ele>168</ele>
        <time>2019-03-30T12:48:04Z</time>
      </trkpt>
      <trkpt lat="49.26477" lon="4.10088">
        <ele>168</ele>
        <time>2019-03-30T12:48:05Z</time>
      </trkpt>
      <trkpt lat="49.26478" lon="4.10092">
        <ele>168</ele>
        <time>2019-03-30T12:48:06Z</time>
      </trkpt>
      <trkpt lat="49.26479" lon="4.10095">
        <ele>168</ele>
        <time>2019-03-30T12:48:07Z</time>
      </trkpt>
      <trkpt lat="49.2648" lon="4.10099">
        <ele>168</ele>
        <time>2019-03-30T12:48:08Z</time>
      </trkpt>
      <trkpt lat="49.26482" lon="4.10102">
        <ele>169</ele>
        <time>2019-03-30T12:48:09Z</time>
      </trkpt>
      <trkpt lat="49.26483" lon="4.10105">
        <ele>169</ele>
        <time>2019-03-30T12:48:10Z</time>
      </trkpt>
      <trkpt lat="49.26486" lon="4.10105">
        <ele>168</ele>
        <time>2019-03-30T12:48:11Z</time>
      </trkpt>
      <trkpt lat="49.26488" lon="4.10104">
        <ele>168</ele>
        <time>2019-03-30T12:48:12Z</time>
      </trkpt>
      <trkpt lat="49.2649" lon="4.10102">
        <ele>168</ele>
        <time>2019-03-30T12:48:13Z</time>
      </trkpt>
      <trkpt lat="49.26492" lon="4.10099">
        <ele>168</ele>
        <time>2019-03-30T12:48:14Z</time>
      </trkpt>
      <trkpt lat="49.26494" lon="4.10095">
        <ele>168</ele>
        <time>2019-03-30T12:48:15Z</time>
      </trkpt>
      <trkpt lat="49.26495" lon="4.10091">
        <ele>168</ele>
        <time>2019-03-30T12:48:16Z</time>
      </trkpt>
      <trkpt lat="49.26497" lon="4.10088">
        <ele>168</ele>
        <time>2019-03-30T12:48:17Z</time>
      </trkpt>
      <trkpt lat="49.26498" lon="4.10086">
        <ele>169</ele>
        <time>2019-03-30T12:48:18Z</time>
      </trkpt>
      <trkpt lat="49.265" lon="4.10083">
        <ele>169</ele>
        <time>2019-03-30T12:48:19Z</time>
      </trkpt>
      <trkpt lat="49.26501" lon="4.10079">
        <ele>169</ele>
        <time>2019-03-30T12:48:20Z</time>
      </trkpt>
      <trkpt lat="49.26503" lon="4.10076">
        <ele>169</ele>
        <time>2019-03-30T12:48:21Z</time>
      </trkpt>
      <trkpt lat="49.26505" lon="4.10073">
        <ele>169</ele>
        <time>2019-03-30T12:48:22Z</time>
      </trkpt>
      <trkpt lat="49.26506" lon="4.1007">
        <ele>169</ele>
        <time>2019-03-30T12:48:23Z</time>
      </trkpt>
      <trkpt lat="49.26508" lon="4.10067">
        <ele>169</ele>
        <time>2019-03-30T12:48:24Z</time>
      </trkpt>
      <trkpt lat="49.2651" lon="4.10063">
        <ele>169</ele>
        <time>2019-03-30T12:48:25Z</time>
      </trkpt>
      <trkpt lat="49.26512" lon="4.1006">
        <ele>168</ele>
        <time>2019-03-30T12:48:26Z</time>
      </trkpt>
      <trkpt lat="49.26514" lon="4.10056">
        <ele>168</ele>
        <time>2019-03-30T12:48:27Z</time>
      </trkpt>
      <trkpt lat="49.26516" lon="4.10053">
        <ele>168</ele>
        <time>2019-03-30T12:48:28Z</time>
      </trkpt>
      <trkpt lat="49.26517" lon="4.1005">
        <ele>168</ele>
        <time>2019-03-30T12:48:29Z</time>
      </trkpt>
      <trkpt lat="49.26519" lon="4.10047">
        <ele>168</ele>
        <time>2019-03-30T12:48:30Z</time>
      </trkpt>
      <trkpt lat="49.26521" lon="4.10043">
        <ele>168</ele>
        <time>2019-03-30T12:48:31Z</time>
      </trkpt>
      <trkpt lat="49.26523" lon="4.10039">
        <ele>168</ele>
        <time>2019-03-30T12:48:32Z</time>
      </trkpt>
      <trkpt lat="49.26524" lon="4.10036">
        <ele>168</ele>
        <time>2019-03-30T12:48:33Z</time>
      </trkpt>
      <trkpt lat="49.26526" lon="4.10033">
        <ele>168</ele>
        <time>2019-03-30T12:48:34Z</time>
      </trkpt>
      <trkpt lat="49.26528" lon="4.1003">
        <ele>167</ele>
        <time>2019-03-30T12:48:35Z</time>
      </trkpt>
      <trkpt lat="49.26531" lon="4.10027">
        <ele>168</ele>
        <time>2019-03-30T12:48:36Z</time>
      </trkpt>
      <trkpt lat="49.26533" lon="4.10024">
        <ele>168</ele>
        <time>2019-03-30T12:48:37Z</time>
      </trkpt>
      <trkpt lat="49.26536" lon="4.10021">
        <ele>168</ele>
        <time>2019-03-30T12:48:38Z</time>
      </trkpt>
      <trkpt lat="49.2654" lon="4.10019">
        <ele>167</ele>
        <time>2019-03-30T12:48:39Z</time>
      </trkpt>
      <trkpt lat="49.26544" lon="4.10017">
        <ele>167</ele>
        <time>2019-03-30T12:48:40Z</time>
      </trkpt>
      <trkpt lat="49.26548" lon="4.10015">
        <ele>168</ele>
        <time>2019-03-30T12:48:41Z</time>
      </trkpt>
      <trkpt lat="49.26552" lon="4.10014">
        <ele>167</ele>
        <time>2019-03-30T12:48:42Z</time>
      </trkpt>
      <trkpt lat="49.26556" lon="4.10015">
        <ele>167</ele>
        <time>2019-03-30T12:48:43Z</time>
      </trkpt>
      <trkpt lat="49.2656" lon="4.10016">
        <ele>167</ele>
        <time>2019-03-30T12:48:44Z</time>
      </trkpt>
      <trkpt lat="49.26564" lon="4.10018">
        <ele>167</ele>
        <time>2019-03-30T12:48:45Z</time>
      </trkpt>
      <trkpt lat="49.26569" lon="4.1002">
        <ele>167</ele>
        <time>2019-03-30T12:48:46Z</time>
      </trkpt>
      <trkpt lat="49.26573" lon="4.10021">
        <ele>167</ele>
        <time>2019-03-30T12:48:47Z</time>
      </trkpt>
      <trkpt lat="49.26578" lon="4.10023">
        <ele>167</ele>
        <time>2019-03-30T12:48:48Z</time>
      </trkpt>
      <trkpt lat="49.26582" lon="4.10025">
        <ele>167</ele>
        <time>2019-03-30T12:48:49Z</time>
      </trkpt>
      <trkpt lat="49.26587" lon="4.10025">
        <ele>167</ele>
        <time>2019-03-30T12:48:50Z</time>
      </trkpt>
      <trkpt lat="49.26591" lon="4.10027">
        <ele>167</ele>
        <time>2019-03-30T12:48:51Z</time>
      </trkpt>
      <trkpt lat="49.26595" lon="4.10029">
        <ele>167</ele>
        <time>2019-03-30T12:48:52Z</time>
      </trkpt>
      <trkpt lat="49.26598" lon="4.1003">
        <ele>167</ele>
        <time>2019-03-30T12:48:53Z</time>
      </trkpt>
      <trkpt lat="49.26601" lon="4.10031">
        <ele>167</ele>
        <time>2019-03-30T12:48:54Z</time>
      </trkpt>
      <trkpt lat="49.26605" lon="4.10033">
        <ele>167</ele>
        <time>2019-03-30T12:48:55Z</time>
      </trkpt>
      <trkpt lat="49.26608" lon="4.10035">
        <ele>167</ele>
        <time>2019-03-30T12:48:56Z</time>
      </trkpt>
      <trkpt lat="49.26611" lon="4.10037">
        <ele>167</ele>
        <time>2019-03-30T12:48:57Z</time>
      </trkpt>
      <trkpt lat="49.26614" lon="4.10038">
        <ele>167</ele>
        <time>2019-03-30T12:48:58Z</time>
      </trkpt>
      <trkpt lat="49.26618" lon="4.10038">
        <ele>167</ele>
        <time>2019-03-30T12:48:59Z</time>
      </trkpt>
      <trkpt lat="49.26621" lon="4.10039">
        <ele>166</ele>
        <time>2019-03-30T12:49:00Z</time>
      </trkpt>
      <trkpt lat="49.26625" lon="4.1004">
        <ele>166</ele>
        <time>2019-03-30T12:49:01Z</time>
      </trkpt>
      <trkpt lat="49.2663" lon="4.10039">
        <ele>166</ele>
        <time>2019-03-30T12:49:02Z</time>
      </trkpt>
      <trkpt lat="49.26635" lon="4.10037">
        <ele>166</ele>
        <time>2019-03-30T12:49:03Z</time>
      </trkpt>
      <trkpt lat="49.2664" lon="4.10034">
        <ele>166</ele>
        <time>2019-03-30T12:49:04Z</time>
      </trkpt>
      <trkpt lat="49.26646" lon="4.10036">
        <ele>166</ele>
        <time>2019-03-30T12:49:05Z</time>
      </trkpt>
      <trkpt lat="49.26651" lon="4.1004">
        <ele>165</ele>
        <time>2019-03-30T12:49:06Z</time>
      </trkpt>
      <trkpt lat="49.26656" lon="4.10045">
        <ele>165</ele>
        <time>2019-03-30T12:49:07Z</time>
      </trkpt>
      <trkpt lat="49.26661" lon="4.1005">
        <ele>165</ele>
        <time>2019-03-30T12:49:08Z</time>
      </trkpt>
      <trkpt lat="49.26665" lon="4.10055">
        <ele>165</ele>
        <time>2019-03-30T12:49:09Z</time>
      </trkpt>
      <trkpt lat="49.2667" lon="4.10061">
        <ele>165</ele>
        <time>2019-03-30T12:49:10Z</time>
      </trkpt>
      <trkpt lat="49.26674" lon="4.10066">
        <ele>164</ele>
        <time>2019-03-30T12:49:11Z</time>
      </trkpt>
      <trkpt lat="49.26678" lon="4.10071">
        <ele>164</ele>
        <time>2019-03-30T12:49:12Z</time>
      </trkpt>
      <trkpt lat="49.26683" lon="4.10076">
        <ele>164</ele>
        <time>2019-03-30T12:49:13Z</time>
      </trkpt>
      <trkpt lat="49.26688" lon="4.1008">
        <ele>164</ele>
        <time>2019-03-30T12:49:14Z</time>
      </trkpt>
      <trkpt lat="49.26694" lon="4.10083">
        <ele>164</ele>
        <time>2019-03-30T12:49:15Z</time>
      </trkpt>
      <trkpt lat="49.26699" lon="4.10084">
        <ele>164</ele>
        <time>2019-03-30T12:49:16Z</time>
      </trkpt>
      <trkpt lat="49.26704" lon="4.10085">
        <ele>164</ele>
        <time>2019-03-30T12:49:17Z</time>
      </trkpt>
      <trkpt lat="49.26709" lon="4.10084">
        <ele>164</ele>
        <time>2019-03-30T12:49:18Z</time>
      </trkpt>
      <trkpt lat="49.26714" lon="4.10082">
        <ele>164</ele>
        <time>2019-03-30T12:49:19Z</time>
      </trkpt>
      <trkpt lat="49.26719" lon="4.10078">
        <ele>164</ele>
        <time>2019-03-30T12:49:20Z</time>
      </trkpt>
      <trkpt lat="49.26724" lon="4.10073">
        <ele>164</ele>
        <time>2019-03-30T12:49:21Z</time>
      </trkpt>
      <trkpt lat="49.26728" lon="4.10069">
        <ele>164</ele>
        <time>2019-03-30T12:49:22Z</time>
      </trkpt>
      <trkpt lat="49.26731" lon="4.10063">
        <ele>163</ele>
        <time>2019-03-30T12:49:23Z</time>
      </trkpt>
      <trkpt lat="49.26735" lon="4.10057">
        <ele>163</ele>
        <time>2019-03-30T12:49:24Z</time>
      </trkpt>
      <trkpt lat="49.2674" lon="4.10051">
        <ele>163</ele>
        <time>2019-03-30T12:49:25Z</time>
      </trkpt>
      <trkpt lat="49.26743" lon="4.10045">
        <ele>163</ele>
        <time>2019-03-30T12:49:26Z</time>
      </trkpt>
      <trkpt lat="49.26747" lon="4.10039">
        <ele>163</ele>
        <time>2019-03-30T12:49:27Z</time>
      </trkpt>
      <trkpt lat="49.26751" lon="4.10033">
        <ele>163</ele>
        <time>2019-03-30T12:49:28Z</time>
      </trkpt>
      <trkpt lat="49.26754" lon="4.10026">
        <ele>163</ele>
        <time>2019-03-30T12:49:29Z</time>
      </trkpt>
      <trkpt lat="49.26758" lon="4.1002">
        <ele>163</ele>
        <time>2019-03-30T12:49:30Z</time>
      </trkpt>
      <trkpt lat="49.26761" lon="4.10013">
        <ele>163</ele>
        <time>2019-03-30T12:49:31Z</time>
      </trkpt>
      <trkpt lat="49.26765" lon="4.10007">
        <ele>163</ele>
        <time>2019-03-30T12:49:32Z</time>
      </trkpt>
      <trkpt lat="49.26768" lon="4.1">
        <ele>163</ele>
        <time>2019-03-30T12:49:33Z</time>
      </trkpt>
      <trkpt lat="49.2677" lon="4.09994">
        <ele>163</ele>
        <time>2019-03-30T12:49:34Z</time>
      </trkpt>
      <trkpt lat="49.26773" lon="4.09988">
        <ele>164</ele>
        <time>2019-03-30T12:49:35Z</time>
      </trkpt>
      <trkpt lat="49.26776" lon="4.09983">
        <ele>164</ele>
        <time>2019-03-30T12:49:36Z</time>
      </trkpt>
      <trkpt lat="49.26779" lon="4.09978">
        <ele>164</ele>
        <time>2019-03-30T12:49:37Z</time>
      </trkpt>
      <trkpt lat="49.26782" lon="4.09972">
        <ele>164</ele>
        <time>2019-03-30T12:49:38Z</time>
      </trkpt>
      <trkpt lat="49.26785" lon="4.09968">
        <ele>164</ele>
        <time>2019-03-30T12:49:39Z</time>
      </trkpt>
      <trkpt lat="49.26787" lon="4.09964">
        <ele>164</ele>
        <time>2019-03-30T12:49:40Z</time>
      </trkpt>
      <trkpt lat="49.26789" lon="4.09959">
        <ele>165</ele>
        <time>2019-03-30T12:49:41Z</time>
      </trkpt>
      <trkpt lat="49.26792" lon="4.09954">
        <ele>165</ele>
        <time>2019-03-30T12:49:42Z</time>
      </trkpt>
      <trkpt lat="49.26794" lon="4.0995">
        <ele>165</ele>
        <time>2019-03-30T12:49:43Z</time>
      </trkpt>
      <trkpt lat="49.26797" lon="4.09946">
        <ele>165</ele>
        <time>2019-03-30T12:49:44Z</time>
      </trkpt>
      <trkpt lat="49.26799" lon="4.09941">
        <ele>165</ele>
        <time>2019-03-30T12:49:45Z</time>
      </trkpt>
      <trkpt lat="49.26801" lon="4.09937">
        <ele>166</ele>
        <time>2019-03-30T12:49:46Z</time>
      </trkpt>
      <trkpt lat="49.26804" lon="4.09933">
        <ele>166</ele>
        <time>2019-03-30T12:49:47Z</time>
      </trkpt>
      <trkpt lat="49.26806" lon="4.09928">
        <ele>166</ele>
        <time>2019-03-30T12:49:48Z</time>
      </trkpt>
      <trkpt lat="49.26809" lon="4.09924">
        <ele>166</ele>
        <time>2019-03-30T12:49:49Z</time>
      </trkpt>
      <trkpt lat="49.26812" lon="4.09919">
        <ele>166</ele>
        <time>2019-03-30T12:49:50Z</time>
      </trkpt>
      <trkpt lat="49.26814" lon="4.09915">
        <ele>166</ele>
        <time>2019-03-30T12:49:51Z</time>
      </trkpt>
      <trkpt lat="49.26817" lon="4.09909">
        <ele>167</ele>
        <time>2019-03-30T12:49:52Z</time>
      </trkpt>
      <trkpt lat="49.2682" lon="4.09905">
        <ele>167</ele>
        <time>2019-03-30T12:49:53Z</time>
      </trkpt>
      <trkpt lat="49.26822" lon="4.09899">
        <ele>168</ele>
        <time>2019-03-30T12:49:54Z</time>
      </trkpt>
      <trkpt lat="49.26825" lon="4.09895">
        <ele>168</ele>
        <time>2019-03-30T12:49:55Z</time>
      </trkpt>
      <trkpt lat="49.26827" lon="4.09891">
        <ele>168</ele>
        <time>2019-03-30T12:49:56Z</time>
      </trkpt>
      <trkpt lat="49.2683" lon="4.09886">
        <ele>168</ele>
        <time>2019-03-30T12:49:57Z</time>
      </trkpt>
      <trkpt lat="49.26833" lon="4.09881">
        <ele>168</ele>
        <time>2019-03-30T12:49:58Z</time>
      </trkpt>
      <trkpt lat="49.26835" lon="4.09876">
        <ele>169</ele>
        <time>2019-03-30T12:49:59Z</time>
      </trkpt>
      <trkpt lat="49.26838" lon="4.09872">
        <ele>169</ele>
        <time>2019-03-30T12:50:00Z</time>
      </trkpt>
      <trkpt lat="49.26841" lon="4.09867">
        <ele>169</ele>
        <time>2019-03-30T12:50:01Z</time>
      </trkpt>
      <trkpt lat="49.26843" lon="4.09862">
        <ele>169</ele>
        <time>2019-03-30T12:50:02Z</time>
      </trkpt>
      <trkpt lat="49.26846" lon="4.09858">
        <ele>169</ele>
        <time>2019-03-30T12:50:03Z</time>
      </trkpt>
      <trkpt lat="49.26849" lon="4.09853">
        <ele>169</ele>
        <time>2019-03-30T12:50:04Z</time>
      </trkpt>
      <trkpt lat="49.26851" lon="4.09847">
        <ele>169</ele>
        <time>2019-03-30T12:50:05Z</time>
      </trkpt>
      <trkpt lat="49.26854" lon="4.09842">
        <ele>170</ele>
        <time>2019-03-30T12:50:06Z</time>
      </trkpt>
      <trkpt lat="49.26857" lon="4.09838">
        <ele>170</ele>
        <time>2019-03-30T12:50:07Z</time>
      </trkpt>
      <trkpt lat="49.2686" lon="4.09833">
        <ele>170</ele>
        <time>2019-03-30T12:50:08Z</time>
      </trkpt>
      <trkpt lat="49.26863" lon="4.09828">
        <ele>170</ele>
        <time>2019-03-30T12:50:09Z</time>
      </trkpt>
      <trkpt lat="49.26866" lon="4.09823">
        <ele>170</ele>
        <time>2019-03-30T12:50:10Z</time>
      </trkpt>
      <trkpt lat="49.26869" lon="4.09818">
        <ele>170</ele>
        <time>2019-03-30T12:50:11Z</time>
      </trkpt>
      <trkpt lat="49.26872" lon="4.09813">
        <ele>170</ele>
        <time>2019-03-30T12:50:12Z</time>
      </trkpt>
      <trkpt lat="49.26875" lon="4.09808">
        <ele>170</ele>
        <time>2019-03-30T12:50:13Z</time>
      </trkpt>
      <trkpt lat="49.26877" lon="4.09803">
        <ele>170</ele>
        <time>2019-03-30T12:50:14Z</time>
      </trkpt>
      <trkpt lat="49.2688" lon="4.09797">
        <ele>170</ele>
        <time>2019-03-30T12:50:15Z</time>
      </trkpt>
      <trkpt lat="49.26883" lon="4.09792">
        <ele>170</ele>
        <time>2019-03-30T12:50:16Z</time>
      </trkpt>
      <trkpt lat="49.26886" lon="4.09788">
        <ele>170</ele>
        <time>2019-03-30T12:50:17Z</time>
      </trkpt>
      <trkpt lat="49.26888" lon="4.09783">
        <ele>170</ele>
        <time>2019-03-30T12:50:18Z</time>
      </trkpt>
      <trkpt lat="49.26891" lon="4.09778">
        <ele>170</ele>
        <time>2019-03-30T12:50:19Z</time>
      </trkpt>
      <trkpt lat="49.26893" lon="4.09773">
        <ele>170</ele>
        <time>2019-03-30T12:50:20Z</time>
      </trkpt>
      <trkpt lat="49.26896" lon="4.09769">
        <ele>171</ele>
        <time>2019-03-30T12:50:21Z</time>
      </trkpt>
      <trkpt lat="49.26898" lon="4.09764">
        <ele>171</ele>
        <time>2019-03-30T12:50:22Z</time>
      </trkpt>
      <trkpt lat="49.26901" lon="4.0976">
        <ele>171</ele>
        <time>2019-03-30T12:50:23Z</time>
      </trkpt>
      <trkpt lat="49.26903" lon="4.09755">
        <ele>171</ele>
        <time>2019-03-30T12:50:24Z</time>
      </trkpt>
      <trkpt lat="49.26905" lon="4.0975">
        <ele>171</ele>
        <time>2019-03-30T12:50:25Z</time>
      </trkpt>
      <trkpt lat="49.26907" lon="4.09746">
        <ele>171</ele>
        <time>2019-03-30T12:50:26Z</time>
      </trkpt>
      <trkpt lat="49.26909" lon="4.0974">
        <ele>172</ele>
        <time>2019-03-30T12:50:27Z</time>
      </trkpt>
      <trkpt lat="49.26911" lon="4.09736">
        <ele>172</ele>
        <time>2019-03-30T12:50:28Z</time>
      </trkpt>
      <trkpt lat="49.26913" lon="4.09731">
        <ele>172</ele>
        <time>2019-03-30T12:50:29Z</time>
      </trkpt>
      <trkpt lat="49.26916" lon="4.09726">
        <ele>172</ele>
        <time>2019-03-30T12:50:30Z</time>
      </trkpt>
      <trkpt lat="49.26918" lon="4.09721">
        <ele>172</ele>
        <time>2019-03-30T12:50:31Z</time>
      </trkpt>
      <trkpt lat="49.26919" lon="4.09716">
        <ele>172</ele>
        <time>2019-03-30T12:50:32Z</time>
      </trkpt>
      <trkpt lat="49.26921" lon="4.09711">
        <ele>172</ele>
        <time>2019-03-30T12:50:33Z</time>
      </trkpt>
      <trkpt lat="49.26923" lon="4.09705">
        <ele>173</ele>
        <time>2019-03-30T12:50:34Z</time>
      </trkpt>
      <trkpt lat="49.26925" lon="4.097">
        <ele>173</ele>
        <time>2019-03-30T12:50:35Z</time>
      </trkpt>
      <trkpt lat="49.26927" lon="4.09695">
        <ele>173</ele>
        <time>2019-03-30T12:50:36Z</time>
      </trkpt>
      <trkpt lat="49.26929" lon="4.0969">
        <ele>173</ele>
        <time>2019-03-30T12:50:37Z</time>
      </trkpt>
      <trkpt lat="49.26931" lon="4.09685">
        <ele>173</ele>
        <time>2019-03-30T12:50:38Z</time>
      </trkpt>
      <trkpt lat="49.26934" lon="4.09679">
        <ele>174</ele>
        <time>2019-03-30T12:50:39Z</time>
      </trkpt>
      <trkpt lat="49.26936" lon="4.09674">
        <ele>174</ele>
        <time>2019-03-30T12:50:40Z</time>
      </trkpt>
      <trkpt lat="49.26938" lon="4.0967">
        <ele>174</ele>
        <time>2019-03-30T12:50:41Z</time>
      </trkpt>
      <trkpt lat="49.2694" lon="4.09665">
        <ele>174</ele>
        <time>2019-03-30T12:50:42Z</time>
      </trkpt>
      <trkpt lat="49.26942" lon="4.09659">
        <ele>174</ele>
        <time>2019-03-30T12:50:43Z</time>
      </trkpt>
      <trkpt lat="49.26944" lon="4.09654">
        <ele>174</ele>
        <time>2019-03-30T12:50:44Z</time>
      </trkpt>
      <trkpt lat="49.26946" lon="4.09649">
        <ele>175</ele>
        <time>2019-03-30T12:50:45Z</time>
      </trkpt>
      <trkpt lat="49.26947" lon="4.09645">
        <ele>175</ele>
        <time>2019-03-30T12:50:46Z</time>
      </trkpt>
      <trkpt lat="49.2695" lon="4.0964">
        <ele>175</ele>
        <time>2019-03-30T12:50:47Z</time>
      </trkpt>
      <trkpt lat="49.26952" lon="4.09635">
        <ele>175</ele>
        <time>2019-03-30T12:50:48Z</time>
      </trkpt>
      <trkpt lat="49.26954" lon="4.09629">
        <ele>175</ele>
        <time>2019-03-30T12:50:49Z</time>
      </trkpt>
      <trkpt lat="49.26956" lon="4.09625">
        <ele>175</ele>
        <time>2019-03-30T12:50:50Z</time>
      </trkpt>
      <trkpt lat="49.26958" lon="4.0962">
        <ele>175</ele>
        <time>2019-03-30T12:50:51Z</time>
      </trkpt>
      <trkpt lat="49.26959" lon="4.09616">
        <ele>175</ele>
        <time>2019-03-30T12:50:52Z</time>
      </trkpt>
      <trkpt lat="49.26961" lon="4.09611">
        <ele>176</ele>
        <time>2019-03-30T12:50:53Z</time>
      </trkpt>
      <trkpt lat="49.26963" lon="4.09606">
        <ele>176</ele>
        <time>2019-03-30T12:50:54Z</time>
      </trkpt>
      <trkpt lat="49.26965" lon="4.09602">
        <ele>176</ele>
        <time>2019-03-30T12:50:55Z</time>
      </trkpt>
      <trkpt lat="49.26967" lon="4.09597">
        <ele>176</ele>
        <time>2019-03-30T12:50:56Z</time>
      </trkpt>
      <trkpt lat="49.26969" lon="4.09593">
        <ele>177</ele>
        <time>2019-03-30T12:50:57Z</time>
      </trkpt>
      <trkpt lat="49.26971" lon="4.09589">
        <ele>177</ele>
        <time>2019-03-30T12:50:58Z</time>
      </trkpt>
      <trkpt lat="49.26972" lon="4.09585">
        <ele>177</ele>
        <time>2019-03-30T12:50:59Z</time>
      </trkpt>
      <trkpt lat="49.26974" lon="4.0958">
        <ele>177</ele>
        <time>2019-03-30T12:51:00Z</time>
      </trkpt>
      <trkpt lat="49.26976" lon="4.09575">
        <ele>177</ele>
        <time>2019-03-30T12:51:01Z</time>
      </trkpt>
      <trkpt lat="49.26978" lon="4.09571">
        <ele>177</ele>
        <time>2019-03-30T12:51:02Z</time>
      </trkpt>
      <trkpt lat="49.2698" lon="4.09566">
        <ele>177</ele>
        <time>2019-03-30T12:51:03Z</time>
      </trkpt>
      <trkpt lat="49.26982" lon="4.09561">
        <ele>177</ele>
        <time>2019-03-30T12:51:04Z</time>
      </trkpt>
      <trkpt lat="49.26984" lon="4.09556">
        <ele>178</ele>
        <time>2019-03-30T12:51:05Z</time>
      </trkpt>
      <trkpt lat="49.26986" lon="4.09552">
        <ele>178</ele>
        <time>2019-03-30T12:51:06Z</time>
      </trkpt>
      <trkpt lat="49.26988" lon="4.09547">
        <ele>179</ele>
        <time>2019-03-30T12:51:07Z</time>
      </trkpt>
      <trkpt lat="49.26989" lon="4.09542">
        <ele>179</ele>
        <time>2019-03-30T12:51:08Z</time>
      </trkpt>
      <trkpt lat="49.26991" lon="4.09537">
        <ele>179</ele>
        <time>2019-03-30T12:51:09Z</time>
      </trkpt>
      <trkpt lat="49.26993" lon="4.09533">
        <ele>179</ele>
        <time>2019-03-30T12:51:10Z</time>
      </trkpt>
      <trkpt lat="49.26994" lon="4.09528">
        <ele>179</ele>
        <time>2019-03-30T12:51:11Z</time>
      </trkpt>
      <trkpt lat="49.26996" lon="4.09523">
        <ele>179</ele>
        <time>2019-03-30T12:51:12Z</time>
      </trkpt>
      <trkpt lat="49.26998" lon="4.09518">
        <ele>179</ele>
        <time>2019-03-30T12:51:13Z</time>
      </trkpt>
      <trkpt lat="49.27" lon="4.09513">
        <ele>179</ele>
        <time>2019-03-30T12:51:14Z</time>
      </trkpt>
      <trkpt lat="49.27001" lon="4.09508">
        <ele>179</ele>
        <time>2019-03-30T12:51:15Z</time>
      </trkpt>
      <trkpt lat="49.27003" lon="4.09503">
        <ele>179</ele>
        <time>2019-03-30T12:51:16Z</time>
      </trkpt>
      <trkpt lat="49.27005" lon="4.09497">
        <ele>179</ele>
        <time>2019-03-30T12:51:17Z</time>
      </trkpt>
      <trkpt lat="49.27007" lon="4.09491">
        <ele>179</ele>
        <time>2019-03-30T12:51:18Z</time>
      </trkpt>
      <trkpt lat="49.27009" lon="4.09485">
        <ele>179</ele>
        <time>2019-03-30T12:51:19Z</time>
      </trkpt>
      <trkpt lat="49.2701" lon="4.09481">
        <ele>179</ele>
        <time>2019-03-30T12:51:20Z</time>
      </trkpt>
      <trkpt lat="49.27011" lon="4.09479">
        <ele>179</ele>
        <time>2019-03-30T12:51:21Z</time>
      </trkpt>
      <trkpt lat="49.27012" lon="4.09477">
        <ele>179</ele>
        <time>2019-03-30T12:51:22Z</time>
      </trkpt>
      <trkpt lat="49.27012" lon="4.09475">
        <ele>179</ele>
        <time>2019-03-30T12:51:23Z</time>
      </trkpt>
      <trkpt lat="49.27011" lon="4.09473">
        <ele>179</ele>
        <time>2019-03-30T12:51:24Z</time>
      </trkpt>
      <trkpt lat="49.27009" lon="4.09473">
        <ele>179</ele>
        <time>2019-03-30T12:51:25Z</time>
      </trkpt>
      <trkpt lat="49.27007" lon="4.09475">
        <ele>179</ele>
        <time>2019-03-30T12:51:26Z</time>
      </trkpt>
      <trkpt lat="49.27007" lon="4.09478">
        <ele>179</ele>
        <time>2019-03-30T12:51:27Z</time>
      </trkpt>
      <trkpt lat="49.27006" lon="4.0948">
        <ele>179</ele>
        <time>2019-03-30T12:51:28Z</time>
      </trkpt>
      <trkpt lat="49.27005" lon="4.09482">
        <ele>179</ele>
        <time>2019-03-30T12:51:29Z</time>
      </trkpt>
      <trkpt lat="49.27005" lon="4.09485">
        <ele>179</ele>
        <time>2019-03-30T12:51:30Z</time>
      </trkpt>
      <trkpt lat="49.27004" lon="4.09487">
        <ele>180</ele>
        <time>2019-03-30T12:51:31Z</time>
      </trkpt>
      <trkpt lat="49.27003" lon="4.0949">
        <ele>180</ele>
        <time>2019-03-30T12:51:32Z</time>
      </trkpt>
      <trkpt lat="49.27002" lon="4.09492">
        <ele>180</ele>
        <time>2019-03-30T12:51:33Z</time>
      </trkpt>
      <trkpt lat="49.27002" lon="4.09494">
        <ele>180</ele>
        <time>2019-03-30T12:51:34Z</time>
      </trkpt>
      <trkpt lat="49.27001" lon="4.09498">
        <ele>179</ele>
        <time>2019-03-30T12:51:35Z</time>
      </trkpt>
      <trkpt lat="49.27" lon="4.09502">
        <ele>179</ele>
        <time>2019-03-30T12:51:36Z</time>
      </trkpt>
      <trkpt lat="49.26999" lon="4.09507">
        <ele>179</ele>
        <time>2019-03-30T12:51:37Z</time>
      </trkpt>
      <trkpt lat="49.26998" lon="4.09512">
        <ele>179</ele>
        <time>2019-03-30T12:51:38Z</time>
      </trkpt>
      <trkpt lat="49.26997" lon="4.09515">
        <ele>179</ele>
        <time>2019-03-30T12:51:39Z</time>
      </trkpt>
      <trkpt lat="49.26995" lon="4.09519">
        <ele>179</ele>
        <time>2019-03-30T12:51:40Z</time>
      </trkpt>
      <trkpt lat="49.26993" lon="4.09523">
        <ele>179</ele>
        <time>2019-03-30T12:51:41Z</time>
      </trkpt>
      <trkpt lat="49.26992" lon="4.09527">
        <ele>180</ele>
        <time>2019-03-30T12:51:42Z</time>
      </trkpt>
      <trkpt lat="49.26991" lon="4.09531">
        <ele>180</ele>
        <time>2019-03-30T12:51:43Z</time>
      </trkpt>
      <trkpt lat="49.26989" lon="4.09535">
        <ele>179</ele>
        <time>2019-03-30T12:51:44Z</time>
      </trkpt>
      <trkpt lat="49.26987" lon="4.09539">
        <ele>179</ele>
        <time>2019-03-30T12:51:45Z</time>
      </trkpt>
      <trkpt lat="49.26985" lon="4.09544">
        <ele>179</ele>
        <time>2019-03-30T12:51:46Z</time>
      </trkpt>
      <trkpt lat="49.26983" lon="4.09549">
        <ele>179</ele>
        <time>2019-03-30T12:51:47Z</time>
      </trkpt>
      <trkpt lat="49.2698" lon="4.09554">
        <ele>179</ele>
        <time>2019-03-30T12:51:48Z</time>
      </trkpt>
      <trkpt lat="49.26978" lon="4.09559">
        <ele>179</ele>
        <time>2019-03-30T12:51:49Z</time>
      </trkpt>
      <trkpt lat="49.26976" lon="4.09565">
        <ele>178</ele>
        <time>2019-03-30T12:51:50Z</time>
      </trkpt>
      <trkpt lat="49.26973" lon="4.09571">
        <ele>178</ele>
        <time>2019-03-30T12:51:51Z</time>
      </trkpt>
      <trkpt lat="49.26971" lon="4.09578">
        <ele>178</ele>
        <time>2019-03-30T12:51:52Z</time>
      </trkpt>
      <trkpt lat="49.26968" lon="4.09584">
        <ele>178</ele>
        <time>2019-03-30T12:51:53Z</time>
      </trkpt>
      <trkpt lat="49.26965" lon="4.09591">
        <ele>177</ele>
        <time>2019-03-30T12:51:54Z</time>
      </trkpt>
      <trkpt lat="49.26962" lon="4.09598">
        <ele>177</ele>
        <time>2019-03-30T12:51:55Z</time>
      </trkpt>
      <trkpt lat="49.26959" lon="4.09606">
        <ele>177</ele>
        <time>2019-03-30T12:51:56Z</time>
      </trkpt>
      <trkpt lat="49.26956" lon="4.09614">
        <ele>177</ele>
        <time>2019-03-30T12:51:57Z</time>
      </trkpt>
      <trkpt lat="49.26952" lon="4.09621">
        <ele>177</ele>
        <time>2019-03-30T12:51:58Z</time>
      </trkpt>
      <trkpt lat="49.26949" lon="4.0963">
        <ele>177</ele>
        <time>2019-03-30T12:51:59Z</time>
      </trkpt>
      <trkpt lat="49.26946" lon="4.09639">
        <ele>176</ele>
        <time>2019-03-30T12:52:00Z</time>
      </trkpt>
      <trkpt lat="49.26942" lon="4.09648">
        <ele>176</ele>
        <time>2019-03-30T12:52:01Z</time>
      </trkpt>
      <trkpt lat="49.26938" lon="4.09658">
        <ele>176</ele>
        <time>2019-03-30T12:52:02Z</time>
      </trkpt>
      <trkpt lat="49.26934" lon="4.09668">
        <ele>175</ele>
        <time>2019-03-30T12:52:03Z</time>
      </trkpt>
      <trkpt lat="49.2693" lon="4.09677">
        <ele>175</ele>
        <time>2019-03-30T12:52:04Z</time>
      </trkpt>
      <trkpt lat="49.26926" lon="4.09687">
        <ele>175</ele>
        <time>2019-03-30T12:52:05Z</time>
      </trkpt>
      <trkpt lat="49.26922" lon="4.09697">
        <ele>175</ele>
        <time>2019-03-30T12:52:06Z</time>
      </trkpt>
      <trkpt lat="49.26918" lon="4.09707">
        <ele>174</ele>
        <time>2019-03-30T12:52:07Z</time>
      </trkpt>
      <trkpt lat="49.26914" lon="4.09718">
        <ele>174</ele>
        <time>2019-03-30T12:52:08Z</time>
      </trkpt>
      <trkpt lat="49.26909" lon="4.09728">
        <ele>173</ele>
        <time>2019-03-30T12:52:09Z</time>
      </trkpt>
      <trkpt lat="49.26905" lon="4.09739">
        <ele>173</ele>
        <time>2019-03-30T12:52:10Z</time>
      </trkpt>
      <trkpt lat="49.269" lon="4.0975">
        <ele>172</ele>
        <time>2019-03-30T12:52:11Z</time>
      </trkpt>
      <trkpt lat="49.26896" lon="4.0976">
        <ele>172</ele>
        <time>2019-03-30T12:52:12Z</time>
      </trkpt>
      <trkpt lat="49.26891" lon="4.0977">
        <ele>172</ele>
        <time>2019-03-30T12:52:13Z</time>
      </trkpt>
      <trkpt lat="49.26885" lon="4.09781">
        <ele>171</ele>
        <time>2019-03-30T12:52:14Z</time>
      </trkpt>
      <trkpt lat="49.26879" lon="4.09791">
        <ele>170</ele>
        <time>2019-03-30T12:52:15Z</time>
      </trkpt>
      <trkpt lat="49.26874" lon="4.09801">
        <ele>170</ele>
        <time>2019-03-30T12:52:16Z</time>
      </trkpt>
      <trkpt lat="49.26868" lon="4.09811">
        <ele>169</ele>
        <time>2019-03-30T12:52:17Z</time>
      </trkpt>
      <trkpt lat="49.26862" lon="4.09821">
        <ele>169</ele>
        <time>2019-03-30T12:52:18Z</time>
      </trkpt>
      <trkpt lat="49.26857" lon="4.09832">
        <ele>168</ele>
        <time>2019-03-30T12:52:19Z</time>
      </trkpt>
      <trkpt lat="49.26851" lon="4.09842">
        <ele>168</ele>
        <time>2019-03-30T12:52:20Z</time>
      </trkpt>
      <trkpt lat="49.26845" lon="4.09853">
        <ele>168</ele>
        <time>2019-03-30T12:52:21Z</time>
      </trkpt>
      <trkpt lat="49.2684" lon="4.09864">
        <ele>168</ele>
        <time>2019-03-30T12:52:22Z</time>
      </trkpt>
      <trkpt lat="49.26834" lon="4.09874">
        <ele>168</ele>
        <time>2019-03-30T12:52:23Z</time>
      </trkpt>
      <trkpt lat="49.26828" lon="4.09884">
        <ele>168</ele>
        <time>2019-03-30T12:52:24Z</time>
      </trkpt>
      <trkpt lat="49.26822" lon="4.09895">
        <ele>167</ele>
        <time>2019-03-30T12:52:25Z</time>
      </trkpt>
      <trkpt lat="49.26816" lon="4.09906">
        <ele>167</ele>
        <time>2019-03-30T12:52:26Z</time>
      </trkpt>
      <trkpt lat="49.26811" lon="4.09916">
        <ele>167</ele>
        <time>2019-03-30T12:52:27Z</time>
      </trkpt>
      <trkpt lat="49.26805" lon="4.09927">
        <ele>167</ele>
        <time>2019-03-30T12:52:28Z</time>
      </trkpt>
      <trkpt lat="49.268" lon="4.09938">
        <ele>166</ele>
        <time>2019-03-30T12:52:29Z</time>
      </trkpt>
      <trkpt lat="49.26794" lon="4.0995">
        <ele>166</ele>
        <time>2019-03-30T12:52:30Z</time>
      </trkpt>
      <trkpt lat="49.26789" lon="4.0996">
        <ele>166</ele>
        <time>2019-03-30T12:52:31Z</time>
      </trkpt>
      <trkpt lat="49.26782" lon="4.0997">
        <ele>165</ele>
        <time>2019-03-30T12:52:32Z</time>
      </trkpt>
      <trkpt lat="49.26776" lon="4.09979">
        <ele>165</ele>
        <time>2019-03-30T12:52:33Z</time>
      </trkpt>
      <trkpt lat="49.2677" lon="4.09989">
        <ele>165</ele>
        <time>2019-03-30T12:52:34Z</time>
      </trkpt>
      <trkpt lat="49.26765" lon="4.1">
        <ele>165</ele>
        <time>2019-03-30T12:52:35Z</time>
      </trkpt>
      <trkpt lat="49.2676" lon="4.1001">
        <ele>165</ele>
        <time>2019-03-30T12:52:36Z</time>
      </trkpt>
      <trkpt lat="49.26755" lon="4.1002">
        <ele>165</ele>
        <time>2019-03-30T12:52:37Z</time>
      </trkpt>
      <trkpt lat="49.2675" lon="4.10029">
        <ele>165</ele>
        <time>2019-03-30T12:52:38Z</time>
      </trkpt>
      <trkpt lat="49.26745" lon="4.10039">
        <ele>165</ele>
        <time>2019-03-30T12:52:39Z</time>
      </trkpt>
      <trkpt lat="49.2674" lon="4.10048">
        <ele>165</ele>
        <time>2019-03-30T12:52:40Z</time>
      </trkpt>
      <trkpt lat="49.26736" lon="4.10057">
        <ele>165</ele>
        <time>2019-03-30T12:52:41Z</time>
      </trkpt>
      <trkpt lat="49.2673" lon="4.10064">
        <ele>164</ele>
        <time>2019-03-30T12:52:42Z</time>
      </trkpt>
      <trkpt lat="49.26725" lon="4.1007">
        <ele>164</ele>
        <time>2019-03-30T12:52:43Z</time>
      </trkpt>
      <trkpt lat="49.26719" lon="4.10075">
        <ele>164</ele>
        <time>2019-03-30T12:52:44Z</time>
      </trkpt>
      <trkpt lat="49.26713" lon="4.10077">
        <ele>164</ele>
        <time>2019-03-30T12:52:45Z</time>
      </trkpt>
      <trkpt lat="49.26708" lon="4.1008">
        <ele>164</ele>
        <time>2019-03-30T12:52:46Z</time>
      </trkpt>
      <trkpt lat="49.26704" lon="4.10085">
        <ele>165</ele>
        <time>2019-03-30T12:52:47Z</time>
      </trkpt>
      <trkpt lat="49.26701" lon="4.10094">
        <ele>165</ele>
        <time>2019-03-30T12:52:48Z</time>
      </trkpt>
      <trkpt lat="49.26699" lon="4.10102">
        <ele>165</ele>
        <time>2019-03-30T12:52:49Z</time>
      </trkpt>
      <trkpt lat="49.26697" lon="4.10112">
        <ele>165</ele>
        <time>2019-03-30T12:52:50Z</time>
      </trkpt>
      <trkpt lat="49.26695" lon="4.10121">
        <ele>165</ele>
        <time>2019-03-30T12:52:51Z</time>
      </trkpt>
      <trkpt lat="49.26692" lon="4.1013">
        <ele>166</ele>
        <time>2019-03-30T12:52:52Z</time>
      </trkpt>
      <trkpt lat="49.26689" lon="4.10138">
        <ele>166</ele>
        <time>2019-03-30T12:52:53Z</time>
      </trkpt>
      <trkpt lat="49.26685" lon="4.10146">
        <ele>167</ele>
        <time>2019-03-30T12:52:54Z</time>
      </trkpt>
      <trkpt lat="49.26683" lon="4.10155">
        <ele>167</ele>
        <time>2019-03-30T12:52:55Z</time>
      </trkpt>
      <trkpt lat="49.2668" lon="4.10163">
        <ele>168</ele>
        <time>2019-03-30T12:52:56Z</time>
      </trkpt>
      <trkpt lat="49.26678" lon="4.1017">
        <ele>169</ele>
        <time>2019-03-30T12:52:57Z</time>
      </trkpt>
      <trkpt lat="49.26675" lon="4.10178">
        <ele>169</ele>
        <time>2019-03-30T12:52:58Z</time>
      </trkpt>
      <trkpt lat="49.26673" lon="4.10186">
        <ele>169</ele>
        <time>2019-03-30T12:52:59Z</time>
      </trkpt>
      <trkpt lat="49.2667" lon="4.10194">
        <ele>170</ele>
        <time>2019-03-30T12:53:00Z</time>
      </trkpt>
      <trkpt lat="49.26669" lon="4.10201">
        <ele>170</ele>
        <time>2019-03-30T12:53:01Z</time>
      </trkpt>
      <trkpt lat="49.26666" lon="4.10207">
        <ele>170</ele>
        <time>2019-03-30T12:53:02Z</time>
      </trkpt>
      <trkpt lat="49.26664" lon="4.10214">
        <ele>170</ele>
        <time>2019-03-30T12:53:03Z</time>
      </trkpt>
      <trkpt lat="49.26661" lon="4.1022">
        <ele>170</ele>
        <time>2019-03-30T12:53:04Z</time>
      </trkpt>
      <trkpt lat="49.26659" lon="4.10227">
        <ele>171</ele>
        <time>2019-03-30T12:53:05Z</time>
      </trkpt>
      <trkpt lat="49.26657" lon="4.10233">
        <ele>171</ele>
        <time>2019-03-30T12:53:06Z</time>
      </trkpt>
      <trkpt lat="49.26655" lon="4.10239">
        <ele>172</ele>
        <time>2019-03-30T12:53:07Z</time>
      </trkpt>
      <trkpt lat="49.26653" lon="4.10245">
        <ele>172</ele>
        <time>2019-03-30T12:53:08Z</time>
      </trkpt>
      <trkpt lat="49.26651" lon="4.1025">
        <ele>173</ele>
        <time>2019-03-30T12:53:09Z</time>
      </trkpt>
      <trkpt lat="49.26649" lon="4.10255">
        <ele>173</ele>
        <time>2019-03-30T12:53:10Z</time>
      </trkpt>
      <trkpt lat="49.26647" lon="4.10259">
        <ele>174</ele>
        <time>2019-03-30T12:53:11Z</time>
      </trkpt>
      <trkpt lat="49.26645" lon="4.10263">
        <ele>174</ele>
        <time>2019-03-30T12:53:12Z</time>
      </trkpt>
      <trkpt lat="49.26643" lon="4.10268">
        <ele>174</ele>
        <time>2019-03-30T12:53:13Z</time>
      </trkpt>
      <trkpt lat="49.26641" lon="4.10271">
        <ele>174</ele>
        <time>2019-03-30T12:53:14Z</time>
      </trkpt>
      <trkpt lat="49.26639" lon="4.10276">
        <ele>174</ele>
        <time>2019-03-30T12:53:15Z</time>
      </trkpt>
      <trkpt lat="49.26637" lon="4.10279">
        <ele>174</ele>
        <time>2019-03-30T12:53:16Z</time>
      </trkpt>
      <trkpt lat="49.26635" lon="4.10284">
        <ele>174</ele>
        <time>2019-03-30T12:53:17Z</time>
      </trkpt>
      <trkpt lat="49.26633" lon="4.10288">
        <ele>174</ele>
        <time>2019-03-30T12:53:18Z</time>
      </trkpt>
      <trkpt lat="49.26631" lon="4.10293">
        <ele>175</ele>
        <time>2019-03-30T12:53:19Z</time>
      </trkpt>
      <trkpt lat="49.26629" lon="4.10297">
        <ele>175</ele>
        <time>2019-03-30T12:53:20Z</time>
      </trkpt>
      <trkpt lat="49.26627" lon="4.10301">
        <ele>175</ele>
        <time>2019-03-30T12:53:21Z</time>
      </trkpt>
      <trkpt lat="49.26625" lon="4.10305">
        <ele>175</ele>
        <time>2019-03-30T12:53:22Z</time>
      </trkpt>
      <trkpt lat="49.26623" lon="4.1031">
        <ele>175</ele>
        <time>2019-03-30T12:53:23Z</time>
      </trkpt>
      <trkpt lat="49.26621" lon="4.10315">
        <ele>175</ele>
        <time>2019-03-30T12:53:24Z</time>
      </trkpt>
      <trkpt lat="49.26619" lon="4.10319">
        <ele>175</ele>
        <time>2019-03-30T12:53:25Z</time>
      </trkpt>
      <trkpt lat="49.26617" lon="4.10324">
        <ele>175</ele>
        <time>2019-03-30T12:53:26Z</time>
      </trkpt>
      <trkpt lat="49.26614" lon="4.10328">
        <ele>175</ele>
        <time>2019-03-30T12:53:27Z</time>
      </trkpt>
      <trkpt lat="49.26611" lon="4.10332">
        <ele>175</ele>
        <time>2019-03-30T12:53:28Z</time>
      </trkpt>
      <trkpt lat="49.26609" lon="4.10335">
        <ele>176</ele>
        <time>2019-03-30T12:53:29Z</time>
      </trkpt>
      <trkpt lat="49.26607" lon="4.1034">
        <ele>176</ele>
        <time>2019-03-30T12:53:30Z</time>
      </trkpt>
      <trkpt lat="49.26604" lon="4.10343">
        <ele>176</ele>
        <time>2019-03-30T12:53:31Z</time>
      </trkpt>
      <trkpt lat="49.26602" lon="4.10349">
        <ele>176</ele>
        <time>2019-03-30T12:53:32Z</time>
      </trkpt>
      <trkpt lat="49.266" lon="4.10353">
        <ele>177</ele>
        <time>2019-03-30T12:53:33Z</time>
      </trkpt>
      <trkpt lat="49.26598" lon="4.10358">
        <ele>177</ele>
        <time>2019-03-30T12:53:34Z</time>
      </trkpt>
      <trkpt lat="49.26596" lon="4.10363">
        <ele>177</ele>
        <time>2019-03-30T12:53:35Z</time>
      </trkpt>
      <trkpt lat="49.26594" lon="4.10368">
        <ele>178</ele>
        <time>2019-03-30T12:53:36Z</time>
      </trkpt>
      <trkpt lat="49.26591" lon="4.10372">
        <ele>178</ele>
        <time>2019-03-30T12:53:37Z</time>
      </trkpt>
      <trkpt lat="49.26589" lon="4.10377">
        <ele>178</ele>
        <time>2019-03-30T12:53:38Z</time>
      </trkpt>
      <trkpt lat="49.26586" lon="4.10381">
        <ele>179</ele>
        <time>2019-03-30T12:53:39Z</time>
      </trkpt>
      <trkpt lat="49.26585" lon="4.10386">
        <ele>179</ele>
        <time>2019-03-30T12:53:40Z</time>
      </trkpt>
      <trkpt lat="49.26583" lon="4.1039">
        <ele>179</ele>
        <time>2019-03-30T12:53:41Z</time>
      </trkpt>
      <trkpt lat="49.26581" lon="4.10395">
        <ele>179</ele>
        <time>2019-03-30T12:53:42Z</time>
      </trkpt>
      <trkpt lat="49.26579" lon="4.10398">
        <ele>179</ele>
        <time>2019-03-30T12:53:43Z</time>
      </trkpt>
      <trkpt lat="49.26577" lon="4.10402">
        <ele>179</ele>
        <time>2019-03-30T12:53:44Z</time>
      </trkpt>
      <trkpt lat="49.26575" lon="4.10406">
        <ele>180</ele>
        <time>2019-03-30T12:53:45Z</time>
      </trkpt>
      <trkpt lat="49.26573" lon="4.1041">
        <ele>180</ele>
        <time>2019-03-30T12:53:46Z</time>
      </trkpt>
      <trkpt lat="49.26572" lon="4.10413">
        <ele>180</ele>
        <time>2019-03-30T12:53:47Z</time>
      </trkpt>
      <trkpt lat="49.2657" lon="4.10416">
        <ele>180</ele>
        <time>2019-03-30T12:53:48Z</time>
      </trkpt>
      <trkpt lat="49.26568" lon="4.1042">
        <ele>180</ele>
        <time>2019-03-30T12:53:49Z</time>
      </trkpt>
      <trkpt lat="49.26567" lon="4.10424">
        <ele>180</ele>
        <time>2019-03-30T12:53:50Z</time>
      </trkpt>
      <trkpt lat="49.26565" lon="4.10427">
        <ele>180</ele>
        <time>2019-03-30T12:53:51Z</time>
      </trkpt>
      <trkpt lat="49.26563" lon="4.10431">
        <ele>180</ele>
        <time>2019-03-30T12:53:52Z</time>
      </trkpt>
      <trkpt lat="49.26561" lon="4.10435">
        <ele>180</ele>
        <time>2019-03-30T12:53:53Z</time>
      </trkpt>
      <trkpt lat="49.26559" lon="4.10439">
        <ele>180</ele>
        <time>2019-03-30T12:53:54Z</time>
      </trkpt>
      <trkpt lat="49.26557" lon="4.10443">
        <ele>180</ele>
        <time>2019-03-30T12:53:55Z</time>
      </trkpt>
      <trkpt lat="49.26555" lon="4.10447">
        <ele>181</ele>
        <time>2019-03-30T12:53:56Z</time>
      </trkpt>
      <trkpt lat="49.26553" lon="4.10451">
        <ele>181</ele>
        <time>2019-03-30T12:53:57Z</time>
      </trkpt>
      <trkpt lat="49.26551" lon="4.10455">
        <ele>181</ele>
        <time>2019-03-30T12:53:58Z</time>
      </trkpt>
      <trkpt lat="49.2655" lon="4.10459">
        <ele>181</ele>
        <time>2019-03-30T12:53:59Z</time>
      </trkpt>
      <trkpt lat="49.26548" lon="4.10462">
        <ele>181</ele>
        <time>2019-03-30T12:54:00Z</time>
      </trkpt>
      <trkpt lat="49.26546" lon="4.10466">
        <ele>181</ele>
        <time>2019-03-30T12:54:01Z</time>
      </trkpt>
      <trkpt lat="49.26545" lon="4.10469">
        <ele>181</ele>
        <time>2019-03-30T12:54:02Z</time>
      </trkpt>
      <trkpt lat="49.26544" lon="4.10473">
        <ele>182</ele>
        <time>2019-03-30T12:54:03Z</time>
      </trkpt>
      <trkpt lat="49.26543" lon="4.10475">
        <ele>182</ele>
        <time>2019-03-30T12:54:04Z</time>
      </trkpt>
      <trkpt lat="49.26543" lon="4.10476">
        <ele>182</ele>
        <time>2019-03-30T12:54:05Z</time>
      </trkpt>
      <trkpt lat="49.26541" lon="4.10478">
        <ele>182</ele>
        <time>2019-03-30T12:54:06Z</time>
      </trkpt>
      <trkpt lat="49.26541" lon="4.1048">
        <ele>183</ele>
        <time>2019-03-30T12:54:07Z</time>
      </trkpt>
      <trkpt lat="49.26541" lon="4.10483">
        <ele>183</ele>
        <time>2019-03-30T12:54:08Z</time>
      </trkpt>
      <trkpt lat="49.26542" lon="4.10487">
        <ele>183</ele>
        <time>2019-03-30T12:54:09Z</time>
      </trkpt>
      <trkpt lat="49.26545" lon="4.10491">
        <ele>183</ele>
        <time>2019-03-30T12:54:10Z</time>
      </trkpt>
      <trkpt lat="49.26548" lon="4.10495">
        <ele>183</ele>
        <time>2019-03-30T12:54:11Z</time>
      </trkpt>
      <trkpt lat="49.2655" lon="4.10499">
        <ele>182</ele>
        <time>2019-03-30T12:54:12Z</time>
      </trkpt>
      <trkpt lat="49.26554" lon="4.10502">
        <ele>182</ele>
        <time>2019-03-30T12:54:13Z</time>
      </trkpt>
      <trkpt lat="49.26557" lon="4.10505">
        <ele>182</ele>
        <time>2019-03-30T12:54:14Z</time>
      </trkpt>
      <trkpt lat="49.26561" lon="4.10509">
        <ele>181</ele>
        <time>2019-03-30T12:54:15Z</time>
      </trkpt>
      <trkpt lat="49.26564" lon="4.10513">
        <ele>181</ele>
        <time>2019-03-30T12:54:16Z</time>
      </trkpt>
      <trkpt lat="49.26567" lon="4.10517">
        <ele>181</ele>
        <time>2019-03-30T12:54:17Z</time>
      </trkpt>
      <trkpt lat="49.2657" lon="4.1052">
        <ele>181</ele>
        <time>2019-03-30T12:54:18Z</time>
      </trkpt>
      <trkpt lat="49.26573" lon="4.10524">
        <ele>181</ele>
        <time>2019-03-30T12:54:19Z</time>
      </trkpt>
      <trkpt lat="49.26577" lon="4.10528">
        <ele>181</ele>
        <time>2019-03-30T12:54:20Z</time>
      </trkpt>
      <trkpt lat="49.2658" lon="4.10532">
        <ele>181</ele>
        <time>2019-03-30T12:54:21Z</time>
      </trkpt>
      <trkpt lat="49.26583" lon="4.10536">
        <ele>181</ele>
        <time>2019-03-30T12:54:22Z</time>
      </trkpt>
      <trkpt lat="49.26587" lon="4.1054">
        <ele>181</ele>
        <time>2019-03-30T12:54:23Z</time>
      </trkpt>
      <trkpt lat="49.26591" lon="4.10544">
        <ele>181</ele>
        <time>2019-03-30T12:54:24Z</time>
      </trkpt>
      <trkpt lat="49.26595" lon="4.10548">
        <ele>181</ele>
        <time>2019-03-30T12:54:25Z</time>
      </trkpt>
      <trkpt lat="49.26599" lon="4.10553">
        <ele>181</ele>
        <time>2019-03-30T12:54:26Z</time>
      </trkpt>
      <trkpt lat="49.26603" lon="4.10558">
        <ele>181</ele>
        <time>2019-03-30T12:54:27Z</time>
      </trkpt>
      <trkpt lat="49.26607" lon="4.10563">
        <ele>181</ele>
        <time>2019-03-30T12:54:28Z</time>
      </trkpt>
      <trkpt lat="49.26611" lon="4.10567">
        <ele>181</ele>
        <time>2019-03-30T12:54:29Z</time>
      </trkpt>
      <trkpt lat="49.26615" lon="4.10572">
        <ele>181</ele>
        <time>2019-03-30T12:54:30Z</time>
      </trkpt>
      <trkpt lat="49.26619" lon="4.10577">
        <ele>181</ele>
        <time>2019-03-30T12:54:31Z</time>
      </trkpt>
      <trkpt lat="49.26622" lon="4.10582">
        <ele>180</ele>
        <time>2019-03-30T12:54:32Z</time>
      </trkpt>
      <trkpt lat="49.26626" lon="4.10587">
        <ele>181</ele>
        <time>2019-03-30T12:54:33Z</time>
      </trkpt>
      <trkpt lat="49.2663" lon="4.10591">
        <ele>180</ele>
        <time>2019-03-30T12:54:34Z</time>
      </trkpt>
      <trkpt lat="49.26634" lon="4.10596">
        <ele>180</ele>
        <time>2019-03-30T12:54:35Z</time>
      </trkpt>
      <trkpt lat="49.26638" lon="4.106">
        <ele>180</ele>
        <time>2019-03-30T12:54:36Z</time>
      </trkpt>
      <trkpt lat="49.26642" lon="4.10604">
        <ele>180</ele>
        <time>2019-03-30T12:54:37Z</time>
      </trkpt>
      <trkpt lat="49.26647" lon="4.10607">
        <ele>180</ele>
        <time>2019-03-30T12:54:38Z</time>
      </trkpt>
      <trkpt lat="49.26652" lon="4.10609">
        <ele>180</ele>
        <time>2019-03-30T12:54:39Z</time>
      </trkpt>
      <trkpt lat="49.26658" lon="4.10612">
        <ele>180</ele>
        <time>2019-03-30T12:54:40Z</time>
      </trkpt>
      <trkpt lat="49.26665" lon="4.10614">
        <ele>180</ele>
        <time>2019-03-30T12:54:41Z</time>
      </trkpt>
      <trkpt lat="49.26672" lon="4.10615">
        <ele>179</ele>
        <time>2019-03-30T12:54:42Z</time>
      </trkpt>
      <trkpt lat="49.26679" lon="4.10617">
        <ele>179</ele>
        <time>2019-03-30T12:54:43Z</time>
      </trkpt>
      <trkpt lat="49.26686" lon="4.10617">
        <ele>179</ele>
        <time>2019-03-30T12:54:44Z</time>
      </trkpt>
      <trkpt lat="49.26694" lon="4.10616">
        <ele>179</ele>
        <time>2019-03-30T12:54:45Z</time>
      </trkpt>
      <trkpt lat="49.26702" lon="4.10615">
        <ele>179</ele>
        <time>2019-03-30T12:54:46Z</time>
      </trkpt>
      <trkpt lat="49.26711" lon="4.10614">
        <ele>179</ele>
        <time>2019-03-30T12:54:47Z</time>
      </trkpt>
      <trkpt lat="49.26719" lon="4.10614">
        <ele>178</ele>
        <time>2019-03-30T12:54:48Z</time>
      </trkpt>
      <trkpt lat="49.26728" lon="4.10614">
        <ele>178</ele>
        <time>2019-03-30T12:54:49Z</time>
      </trkpt>
      <trkpt lat="49.26736" lon="4.10613">
        <ele>177</ele>
        <time>2019-03-30T12:54:50Z</time>
      </trkpt>
      <trkpt lat="49.26745" lon="4.10613">
        <ele>177</ele>
        <time>2019-03-30T12:54:51Z</time>
      </trkpt>
      <trkpt lat="49.26754" lon="4.10613">
        <ele>177</ele>
        <time>2019-03-30T12:54:52Z</time>
      </trkpt>
      <trkpt lat="49.26763" lon="4.10612">
        <ele>177</ele>
        <time>2019-03-30T12:54:53Z</time>
      </trkpt>
      <trkpt lat="49.26772" lon="4.10611">
        <ele>176</ele>
        <time>2019-03-30T12:54:54Z</time>
      </trkpt>
      <trkpt lat="49.26781" lon="4.1061">
        <ele>176</ele>
        <time>2019-03-30T12:54:55Z</time>
      </trkpt>
      <trkpt lat="49.2679" lon="4.1061">
        <ele>176</ele>
        <time>2019-03-30T12:54:56Z</time>
      </trkpt>
      <trkpt lat="49.26799" lon="4.1061">
        <ele>175</ele>
        <time>2019-03-30T12:54:57Z</time>
      </trkpt>
      <trkpt lat="49.26808" lon="4.10609">
        <ele>175</ele>
        <time>2019-03-30T12:54:58Z</time>
      </trkpt>
      <trkpt lat="49.26818" lon="4.10608">
        <ele>175</ele>
        <time>2019-03-30T12:54:59Z</time>
      </trkpt>
      <trkpt lat="49.26827" lon="4.10608">
        <ele>175</ele>
        <time>2019-03-30T12:55:00Z</time>
      </trkpt>
      <trkpt lat="49.26836" lon="4.10607">
        <ele>174</ele>
        <time>2019-03-30T12:55:01Z</time>
      </trkpt>
      <trkpt lat="49.26845" lon="4.10606">
        <ele>174</ele>
        <time>2019-03-30T12:55:02Z</time>
      </trkpt>
      <trkpt lat="49.26855" lon="4.10605">
        <ele>174</ele>
        <time>2019-03-30T12:55:03Z</time>
      </trkpt>
      <trkpt lat="49.26864" lon="4.10602">
        <ele>174</ele>
        <time>2019-03-30T12:55:04Z</time>
      </trkpt>
      <trkpt lat="49.26873" lon="4.10599">
        <ele>174</ele>
        <time>2019-03-30T12:55:05Z</time>
      </trkpt>
      <trkpt lat="49.26882" lon="4.10596">
        <ele>174</ele>
        <time>2019-03-30T12:55:06Z</time>
      </trkpt>
      <trkpt lat="49.26891" lon="4.10591">
        <ele>174</ele>
        <time>2019-03-30T12:55:07Z</time>
      </trkpt>
      <trkpt lat="49.26899" lon="4.10586">
        <ele>174</ele>
        <time>2019-03-30T12:55:08Z</time>
      </trkpt>
      <trkpt lat="49.26908" lon="4.1058">
        <ele>174</ele>
        <time>2019-03-30T12:55:09Z</time>
      </trkpt>
      <trkpt lat="49.26916" lon="4.10574">
        <ele>174</ele>
        <time>2019-03-30T12:55:10Z</time>
      </trkpt>
      <trkpt lat="49.26925" lon="4.10568">
        <ele>174</ele>
        <time>2019-03-30T12:55:11Z</time>
      </trkpt>
      <trkpt lat="49.26933" lon="4.10563">
        <ele>174</ele>
        <time>2019-03-30T12:55:12Z</time>
      </trkpt>
      <trkpt lat="49.26941" lon="4.10556">
        <ele>174</ele>
        <time>2019-03-30T12:55:13Z</time>
      </trkpt>
      <trkpt lat="49.26949" lon="4.1055">
        <ele>174</ele>
        <time>2019-03-30T12:55:14Z</time>
      </trkpt>
      <trkpt lat="49.26957" lon="4.10545">
        <ele>174</ele>
        <time>2019-03-30T12:55:15Z</time>
      </trkpt>
      <trkpt lat="49.26965" lon="4.10539">
        <ele>174</ele>
        <time>2019-03-30T12:55:16Z</time>
      </trkpt>
      <trkpt lat="49.26972" lon="4.10534">
        <ele>174</ele>
        <time>2019-03-30T12:55:17Z</time>
      </trkpt>
      <trkpt lat="49.26979" lon="4.10528">
        <ele>173</ele>
        <time>2019-03-30T12:55:18Z</time>
      </trkpt>
      <trkpt lat="49.26987" lon="4.10523">
        <ele>174</ele>
        <time>2019-03-30T12:55:19Z</time>
      </trkpt>
      <trkpt lat="49.26994" lon="4.10518">
        <ele>174</ele>
        <time>2019-03-30T12:55:20Z</time>
      </trkpt>
      <trkpt lat="49.27001" lon="4.10512">
        <ele>174</ele>
        <time>2019-03-30T12:55:21Z</time>
      </trkpt>
      <trkpt lat="49.27007" lon="4.10507">
        <ele>174</ele>
        <time>2019-03-30T12:55:22Z</time>
      </trkpt>
      <trkpt lat="49.27014" lon="4.10502">
        <ele>174</ele>
        <time>2019-03-30T12:55:23Z</time>
      </trkpt>
      <trkpt lat="49.27021" lon="4.10497">
        <ele>174</ele>
        <time>2019-03-30T12:55:24Z</time>
      </trkpt>
      <trkpt lat="49.27028" lon="4.10492">
        <ele>174</ele>
        <time>2019-03-30T12:55:25Z</time>
      </trkpt>
      <trkpt lat="49.27034" lon="4.10487">
        <ele>174</ele>
        <time>2019-03-30T12:55:26Z</time>
      </trkpt>
      <trkpt lat="49.27041" lon="4.10482">
        <ele>174</ele>
        <time>2019-03-30T12:55:27Z</time>
      </trkpt>
      <trkpt lat="49.27054" lon="4.10474">
        <ele>174</ele>
        <time>2019-03-30T12:55:29Z</time>
      </trkpt>
      <trkpt lat="49.2706" lon="4.10471">
        <ele>174</ele>
        <time>2019-03-30T12:55:30Z</time>
      </trkpt>
      <trkpt lat="49.27066" lon="4.10468">
        <ele>175</ele>
        <time>2019-03-30T12:55:31Z</time>
      </trkpt>
      <trkpt lat="49.27073" lon="4.10465">
        <ele>175</ele>
        <time>2019-03-30T12:55:32Z</time>
      </trkpt>
      <trkpt lat="49.27079" lon="4.10463">
        <ele>175</ele>
        <time>2019-03-30T12:55:33Z</time>
      </trkpt>
      <trkpt lat="49.27085" lon="4.10461">
        <ele>175</ele>
        <time>2019-03-30T12:55:34Z</time>
      </trkpt>
      <trkpt lat="49.27091" lon="4.10459">
        <ele>175</ele>
        <time>2019-03-30T12:55:35Z</time>
      </trkpt>
      <trkpt lat="49.27097" lon="4.10458">
        <ele>176</ele>
        <time>2019-03-30T12:55:36Z</time>
      </trkpt>
      <trkpt lat="49.27103" lon="4.10457">
        <ele>176</ele>
        <time>2019-03-30T12:55:37Z</time>
      </trkpt>
      <trkpt lat="49.27108" lon="4.10456">
        <ele>176</ele>
        <time>2019-03-30T12:55:38Z</time>
      </trkpt>
      <trkpt lat="49.27113" lon="4.10455">
        <ele>176</ele>
        <time>2019-03-30T12:55:39Z</time>
      </trkpt>
      <trkpt lat="49.27117" lon="4.10455">
        <ele>177</ele>
        <time>2019-03-30T12:55:40Z</time>
      </trkpt>
      <trkpt lat="49.27122" lon="4.10455">
        <ele>177</ele>
        <time>2019-03-30T12:55:41Z</time>
      </trkpt>
      <trkpt lat="49.27126" lon="4.10454">
        <ele>177</ele>
        <time>2019-03-30T12:55:42Z</time>
      </trkpt>
      <trkpt lat="49.2713" lon="4.10453">
        <ele>177</ele>
        <time>2019-03-30T12:55:43Z</time>
      </trkpt>
      <trkpt lat="49.27134" lon="4.10453">
        <ele>178</ele>
        <time>2019-03-30T12:55:44Z</time>
      </trkpt>
      <trkpt lat="49.27138" lon="4.10452">
        <ele>178</ele>
        <time>2019-03-30T12:55:45Z</time>
      </trkpt>
      <trkpt lat="49.27141" lon="4.10452">
        <ele>179</ele>
        <time>2019-03-30T12:55:46Z</time>
      </trkpt>
      <trkpt lat="49.27145" lon="4.10452">
        <ele>179</ele>
        <time>2019-03-30T12:55:47Z</time>
      </trkpt>
      <trkpt lat="49.27148" lon="4.10451">
        <ele>179</ele>
        <time>2019-03-30T12:55:48Z</time>
      </trkpt>
      <trkpt lat="49.27152" lon="4.10451">
        <ele>179</ele>
        <time>2019-03-30T12:55:49Z</time>
      </trkpt>
      <trkpt lat="49.27155" lon="4.1045">
        <ele>179</ele>
        <time>2019-03-30T12:55:50Z</time>
      </trkpt>
      <trkpt lat="49.27158" lon="4.1045">
        <ele>179</ele>
        <time>2019-03-30T12:55:51Z</time>
      </trkpt>
      <trkpt lat="49.27162" lon="4.1045">
        <ele>180</ele>
        <time>2019-03-30T12:55:52Z</time>
      </trkpt>
      <trkpt lat="49.27165" lon="4.10449">
        <ele>180</ele>
        <time>2019-03-30T12:55:53Z</time>
      </trkpt>
      <trkpt lat="49.27168" lon="4.10449">
        <ele>180</ele>
        <time>2019-03-30T12:55:54Z</time>
      </trkpt>
      <trkpt lat="49.27171" lon="4.10449">
        <ele>180</ele>
        <time>2019-03-30T12:55:55Z</time>
      </trkpt>
      <trkpt lat="49.27175" lon="4.10448">
        <ele>181</ele>
        <time>2019-03-30T12:55:56Z</time>
      </trkpt>
      <trkpt lat="49.27178" lon="4.10448">
        <ele>181</ele>
        <time>2019-03-30T12:55:57Z</time>
      </trkpt>
      <trkpt lat="49.27182" lon="4.10448">
        <ele>181</ele>
        <time>2019-03-30T12:55:58Z</time>
      </trkpt>
      <trkpt lat="49.27185" lon="4.10448">
        <ele>181</ele>
        <time>2019-03-30T12:55:59Z</time>
      </trkpt>
      <trkpt lat="49.27188" lon="4.10447">
        <ele>181</ele>
        <time>2019-03-30T12:56:00Z</time>
      </trkpt>
      <trkpt lat="49.27191" lon="4.10447">
        <ele>182</ele>
        <time>2019-03-30T12:56:01Z</time>
      </trkpt>
      <trkpt lat="49.27194" lon="4.10447">
        <ele>182</ele>
        <time>2019-03-30T12:56:02Z</time>
      </trkpt>
      <trkpt lat="49.27196" lon="4.10445">
        <ele>182</ele>
        <time>2019-03-30T12:56:03Z</time>
      </trkpt>
      <trkpt lat="49.27199" lon="4.10445">
        <ele>182</ele>
        <time>2019-03-30T12:56:04Z</time>
      </trkpt>
      <trkpt lat="49.27202" lon="4.10444">
        <ele>183</ele>
        <time>2019-03-30T12:56:05Z</time>
      </trkpt>
      <trkpt lat="49.27205" lon="4.10444">
        <ele>183</ele>
        <time>2019-03-30T12:56:06Z</time>
      </trkpt>
      <trkpt lat="49.27208" lon="4.10443">
        <ele>183</ele>
        <time>2019-03-30T12:56:07Z</time>
      </trkpt>
      <trkpt lat="49.27211" lon="4.10443">
        <ele>183</ele>
        <time>2019-03-30T12:56:08Z</time>
      </trkpt>
      <trkpt lat="49.27213" lon="4.10444">
        <ele>184</ele>
        <time>2019-03-30T12:56:09Z</time>
      </trkpt>
      <trkpt lat="49.27215" lon="4.10444">
        <ele>184</ele>
        <time>2019-03-30T12:56:10Z</time>
      </trkpt>
      <trkpt lat="49.27218" lon="4.10444">
        <ele>184</ele>
        <time>2019-03-30T12:56:11Z</time>
      </trkpt>
      <trkpt lat="49.27221" lon="4.10443">
        <ele>184</ele>
        <time>2019-03-30T12:56:12Z</time>
      </trkpt>
      <trkpt lat="49.27223" lon="4.10443">
        <ele>184</ele>
        <time>2019-03-30T12:56:13Z</time>
      </trkpt>
      <trkpt lat="49.27226" lon="4.10443">
        <ele>185</ele>
        <time>2019-03-30T12:56:14Z</time>
      </trkpt>
      <trkpt lat="49.27228" lon="4.10443">
        <ele>185</ele>
        <time>2019-03-30T12:56:15Z</time>
      </trkpt>
      <trkpt lat="49.27231" lon="4.10444">
        <ele>185</ele>
        <time>2019-03-30T12:56:16Z</time>
      </trkpt>
      <trkpt lat="49.27234" lon="4.10444">
        <ele>185</ele>
        <time>2019-03-30T12:56:17Z</time>
      </trkpt>
      <trkpt lat="49.27236" lon="4.10444">
        <ele>186</ele>
        <time>2019-03-30T12:56:18Z</time>
      </trkpt>
      <trkpt lat="49.27239" lon="4.10445">
        <ele>186</ele>
        <time>2019-03-30T12:56:19Z</time>
      </trkpt>
      <trkpt lat="49.27241" lon="4.10446">
        <ele>186</ele>
        <time>2019-03-30T12:56:20Z</time>
      </trkpt>
      <trkpt lat="49.27244" lon="4.10446">
        <ele>186</ele>
        <time>2019-03-30T12:56:21Z</time>
      </trkpt>
      <trkpt lat="49.27246" lon="4.10447">
        <ele>186</ele>
        <time>2019-03-30T12:56:22Z</time>
      </trkpt>
      <trkpt lat="49.27249" lon="4.10449">
        <ele>187</ele>
        <time>2019-03-30T12:56:23Z</time>
      </trkpt>
      <trkpt lat="49.27251" lon="4.10451">
        <ele>187</ele>
        <time>2019-03-30T12:56:24Z</time>
      </trkpt>
      <trkpt lat="49.27254" lon="4.10453">
        <ele>187</ele>
        <time>2019-03-30T12:56:25Z</time>
      </trkpt>
      <trkpt lat="49.27256" lon="4.10455">
        <ele>187</ele>
        <time>2019-03-30T12:56:26Z</time>
      </trkpt>
      <trkpt lat="49.27259" lon="4.10457">
        <ele>187</ele>
        <time>2019-03-30T12:56:27Z</time>
      </trkpt>
      <trkpt lat="49.27261" lon="4.10459">
        <ele>187</ele>
        <time>2019-03-30T12:56:28Z</time>
      </trkpt>
      <trkpt lat="49.27263" lon="4.10462">
        <ele>187</ele>
        <time>2019-03-30T12:56:29Z</time>
      </trkpt>
      <trkpt lat="49.27265" lon="4.10465">
        <ele>187</ele>
        <time>2019-03-30T12:56:30Z</time>
      </trkpt>
      <trkpt lat="49.27267" lon="4.10467">
        <ele>188</ele>
        <time>2019-03-30T12:56:31Z</time>
      </trkpt>
      <trkpt lat="49.27269" lon="4.1047">
        <ele>188</ele>
        <time>2019-03-30T12:56:32Z</time>
      </trkpt>
      <trkpt lat="49.27271" lon="4.10473">
        <ele>188</ele>
        <time>2019-03-30T12:56:33Z</time>
      </trkpt>
      <trkpt lat="49.27273" lon="4.10476">
        <ele>188</ele>
        <time>2019-03-30T12:56:34Z</time>
      </trkpt>
      <trkpt lat="49.27276" lon="4.10479">
        <ele>188</ele>
        <time>2019-03-30T12:56:35Z</time>
      </trkpt>
      <trkpt lat="49.27278" lon="4.10482">
        <ele>188</ele>
        <time>2019-03-30T12:56:36Z</time>
      </trkpt>
      <trkpt lat="49.2728" lon="4.10486">
        <ele>188</ele>
        <time>2019-03-30T12:56:37Z</time>
      </trkpt>
      <trkpt lat="49.27282" lon="4.10489">
        <ele>188</ele>
        <time>2019-03-30T12:56:38Z</time>
      </trkpt>
      <trkpt lat="49.27284" lon="4.10492">
        <ele>188</ele>
        <time>2019-03-30T12:56:39Z</time>
      </trkpt>
      <trkpt lat="49.27287" lon="4.10496">
        <ele>188</ele>
        <time>2019-03-30T12:56:40Z</time>
      </trkpt>
      <trkpt lat="49.27289" lon="4.10499">
        <ele>188</ele>
        <time>2019-03-30T12:56:41Z</time>
      </trkpt>
      <trkpt lat="49.27291" lon="4.10503">
        <ele>188</ele>
        <time>2019-03-30T12:56:42Z</time>
      </trkpt>
      <trkpt lat="49.27293" lon="4.10506">
        <ele>189</ele>
        <time>2019-03-30T12:56:43Z</time>
      </trkpt>
      <trkpt lat="49.27295" lon="4.1051">
        <ele>189</ele>
        <time>2019-03-30T12:56:44Z</time>
      </trkpt>
      <trkpt lat="49.27298" lon="4.10513">
        <ele>189</ele>
        <time>2019-03-30T12:56:45Z</time>
      </trkpt>
      <trkpt lat="49.273" lon="4.10517">
        <ele>189</ele>
        <time>2019-03-30T12:56:46Z</time>
      </trkpt>
      <trkpt lat="49.27302" lon="4.1052">
        <ele>189</ele>
        <time>2019-03-30T12:56:47Z</time>
      </trkpt>
      <trkpt lat="49.27305" lon="4.10524">
        <ele>189</ele>
        <time>2019-03-30T12:56:48Z</time>
      </trkpt>
      <trkpt lat="49.27306" lon="4.10527">
        <ele>189</ele>
        <time>2019-03-30T12:56:49Z</time>
      </trkpt>
      <trkpt lat="49.27309" lon="4.1053">
        <ele>189</ele>
        <time>2019-03-30T12:56:50Z</time>
      </trkpt>
      <trkpt lat="49.27311" lon="4.10533">
        <ele>190</ele>
        <time>2019-03-30T12:56:51Z</time>
      </trkpt>
      <trkpt lat="49.27314" lon="4.10537">
        <ele>190</ele>
        <time>2019-03-30T12:56:52Z</time>
      </trkpt>
      <trkpt lat="49.27316" lon="4.10541">
        <ele>190</ele>
        <time>2019-03-30T12:56:53Z</time>
      </trkpt>
      <trkpt lat="49.27319" lon="4.10544">
        <ele>190</ele>
        <time>2019-03-30T12:56:54Z</time>
      </trkpt>
      <trkpt lat="49.27321" lon="4.10548">
        <ele>191</ele>
        <time>2019-03-30T12:56:55Z</time>
      </trkpt>
      <trkpt lat="49.27323" lon="4.10552">
        <ele>191</ele>
        <time>2019-03-30T12:56:56Z</time>
      </trkpt>
      <trkpt lat="49.27326" lon="4.10556">
        <ele>191</ele>
        <time>2019-03-30T12:56:57Z</time>
      </trkpt>
      <trkpt lat="49.27327" lon="4.10559">
        <ele>191</ele>
        <time>2019-03-30T12:56:58Z</time>
      </trkpt>
      <trkpt lat="49.27329" lon="4.10563">
        <ele>191</ele>
        <time>2019-03-30T12:56:59Z</time>
      </trkpt>
      <trkpt lat="49.27331" lon="4.10566">
        <ele>191</ele>
        <time>2019-03-30T12:57:00Z</time>
      </trkpt>
      <trkpt lat="49.27333" lon="4.1057">
        <ele>191</ele>
        <time>2019-03-30T12:57:01Z</time>
      </trkpt>
      <trkpt lat="49.27334" lon="4.10573">
        <ele>191</ele>
        <time>2019-03-30T12:57:02Z</time>
      </trkpt>
      <trkpt lat="49.27336" lon="4.10577">
        <ele>191</ele>
        <time>2019-03-30T12:57:03Z</time>
      </trkpt>
      <trkpt lat="49.27337" lon="4.1058">
        <ele>191</ele>
        <time>2019-03-30T12:57:04Z</time>
      </trkpt>
      <trkpt lat="49.27337" lon="4.10584">
        <ele>191</ele>
        <time>2019-03-30T12:57:05Z</time>
      </trkpt>
      <trkpt lat="49.27338" lon="4.10589">
        <ele>191</ele>
        <time>2019-03-30T12:57:06Z</time>
      </trkpt>
      <trkpt lat="49.27339" lon="4.10594">
        <ele>191</ele>
        <time>2019-03-30T12:57:07Z</time>
      </trkpt>
      <trkpt lat="49.2734" lon="4.10599">
        <ele>191</ele>
        <time>2019-03-30T12:57:08Z</time>
      </trkpt>
      <trkpt lat="49.2734" lon="4.10604">
        <ele>192</ele>
        <time>2019-03-30T12:57:09Z</time>
      </trkpt>
      <trkpt lat="49.27342" lon="4.10611">
        <ele>191</ele>
        <time>2019-03-30T12:57:10Z</time>
      </trkpt>
      <trkpt lat="49.27342" lon="4.10616">
        <ele>191</ele>
        <time>2019-03-30T12:57:11Z</time>
      </trkpt>
      <trkpt lat="49.27344" lon="4.10622">
        <ele>191</ele>
        <time>2019-03-30T12:57:12Z</time>
      </trkpt>
      <trkpt lat="49.27345" lon="4.10629">
        <ele>191</ele>
        <time>2019-03-30T12:57:13Z</time>
      </trkpt>
      <trkpt lat="49.27346" lon="4.10635">
        <ele>191</ele>
        <time>2019-03-30T12:57:14Z</time>
      </trkpt>
      <trkpt lat="49.27348" lon="4.10642">
        <ele>192</ele>
        <time>2019-03-30T12:57:15Z</time>
      </trkpt>
      <trkpt lat="49.2735" lon="4.10648">
        <ele>192</ele>
        <time>2019-03-30T12:57:16Z</time>
      </trkpt>
      <trkpt lat="49.27353" lon="4.10654">
        <ele>192</ele>
        <time>2019-03-30T12:57:17Z</time>
      </trkpt>
      <trkpt lat="49.27355" lon="4.1066">
        <ele>192</ele>
        <time>2019-03-30T12:57:18Z</time>
      </trkpt>
      <trkpt lat="49.27358" lon="4.10666">
        <ele>192</ele>
        <time>2019-03-30T12:57:19Z</time>
      </trkpt>
      <trkpt lat="49.27361" lon="4.10671">
        <ele>192</ele>
        <time>2019-03-30T12:57:20Z</time>
      </trkpt>
      <trkpt lat="49.27365" lon="4.10676">
        <ele>192</ele>
        <time>2019-03-30T12:57:21Z</time>
      </trkpt>
      <trkpt lat="49.27368" lon="4.10679">
        <ele>192</ele>
        <time>2019-03-30T12:57:22Z</time>
      </trkpt>
      <trkpt lat="49.27372" lon="4.10683">
        <ele>192</ele>
        <time>2019-03-30T12:57:23Z</time>
      </trkpt>
      <trkpt lat="49.27376" lon="4.10686">
        <ele>192</ele>
        <time>2019-03-30T12:57:24Z</time>
      </trkpt>
      <trkpt lat="49.2738" lon="4.10689">
        <ele>192</ele>
        <time>2019-03-30T12:57:25Z</time>
      </trkpt>
      <trkpt lat="49.27384" lon="4.10692">
        <ele>192</ele>
        <time>2019-03-30T12:57:26Z</time>
      </trkpt>
      <trkpt lat="49.27388" lon="4.10694">
        <ele>192</ele>
        <time>2019-03-30T12:57:27Z</time>
      </trkpt>
      <trkpt lat="49.27392" lon="4.10697">
        <ele>193</ele>
        <time>2019-03-30T12:57:28Z</time>
      </trkpt>
      <trkpt lat="49.27396" lon="4.107">
        <ele>193</ele>
        <time>2019-03-30T12:57:29Z</time>
      </trkpt>
      <trkpt lat="49.274" lon="4.10703">
        <ele>193</ele>
        <time>2019-03-30T12:57:30Z</time>
      </trkpt>
      <trkpt lat="49.27404" lon="4.10706">
        <ele>193</ele>
        <time>2019-03-30T12:57:31Z</time>
      </trkpt>
      <trkpt lat="49.27407" lon="4.10709">
        <ele>193</ele>
        <time>2019-03-30T12:57:32Z</time>
      </trkpt>
      <trkpt lat="49.2741" lon="4.10711">
        <ele>194</ele>
        <time>2019-03-30T12:57:33Z</time>
      </trkpt>
      <trkpt lat="49.27414" lon="4.10714">
        <ele>194</ele>
        <time>2019-03-30T12:57:34Z</time>
      </trkpt>
      <trkpt lat="49.27417" lon="4.10716">
        <ele>194</ele>
        <time>2019-03-30T12:57:35Z</time>
      </trkpt>
      <trkpt lat="49.2742" lon="4.10718">
        <ele>194</ele>
        <time>2019-03-30T12:57:36Z</time>
      </trkpt>
      <trkpt lat="49.27423" lon="4.1072">
        <ele>195</ele>
        <time>2019-03-30T12:57:37Z</time>
      </trkpt>
      <trkpt lat="49.27426" lon="4.10722">
        <ele>195</ele>
        <time>2019-03-30T12:57:38Z</time>
      </trkpt>
      <trkpt lat="49.2743" lon="4.10724">
        <ele>195</ele>
        <time>2019-03-30T12:57:39Z</time>
      </trkpt>
      <trkpt lat="49.27433" lon="4.10726">
        <ele>195</ele>
        <time>2019-03-30T12:57:40Z</time>
      </trkpt>
      <trkpt lat="49.27436" lon="4.10728">
        <ele>195</ele>
        <time>2019-03-30T12:57:41Z</time>
      </trkpt>
      <trkpt lat="49.27439" lon="4.1073">
        <ele>195</ele>
        <time>2019-03-30T12:57:42Z</time>
      </trkpt>
      <trkpt lat="49.27442" lon="4.10732">
        <ele>195</ele>
        <time>2019-03-30T12:57:43Z</time>
      </trkpt>
      <trkpt lat="49.27445" lon="4.10734">
        <ele>195</ele>
        <time>2019-03-30T12:57:44Z</time>
      </trkpt>
      <trkpt lat="49.27449" lon="4.10736">
        <ele>195</ele>
        <time>2019-03-30T12:57:45Z</time>
      </trkpt>
      <trkpt lat="49.27452" lon="4.10738">
        <ele>195</ele>
        <time>2019-03-30T12:57:46Z</time>
      </trkpt>
      <trkpt lat="49.27455" lon="4.1074">
        <ele>195</ele>
        <time>2019-03-30T12:57:47Z</time>
      </trkpt>
      <trkpt lat="49.27459" lon="4.10742">
        <ele>196</ele>
        <time>2019-03-30T12:57:48Z</time>
      </trkpt>
      <trkpt lat="49.27462" lon="4.10744">
        <ele>196</ele>
        <time>2019-03-30T12:57:49Z</time>
      </trkpt>
      <trkpt lat="49.27466" lon="4.10746">
        <ele>196</ele>
        <time>2019-03-30T12:57:50Z</time>
      </trkpt>
      <trkpt lat="49.27469" lon="4.10747">
        <ele>197</ele>
        <time>2019-03-30T12:57:51Z</time>
      </trkpt>
      <trkpt lat="49.27472" lon="4.10749">
        <ele>197</ele>
        <time>2019-03-30T12:57:52Z</time>
      </trkpt>
      <trkpt lat="49.27476" lon="4.10751">
        <ele>197</ele>
        <time>2019-03-30T12:57:53Z</time>
      </trkpt>
      <trkpt lat="49.27479" lon="4.10752">
        <ele>197</ele>
        <time>2019-03-30T12:57:54Z</time>
      </trkpt>
      <trkpt lat="49.27482" lon="4.10753">
        <ele>198</ele>
        <time>2019-03-30T12:57:55Z</time>
      </trkpt>
      <trkpt lat="49.27485" lon="4.10755">
        <ele>198</ele>
        <time>2019-03-30T12:57:56Z</time>
      </trkpt>
      <trkpt lat="49.27488" lon="4.10756">
        <ele>198</ele>
        <time>2019-03-30T12:57:57Z</time>
      </trkpt>
      <trkpt lat="49.27492" lon="4.10757">
        <ele>198</ele>
        <time>2019-03-30T12:57:58Z</time>
      </trkpt>
      <trkpt lat="49.27495" lon="4.10759">
        <ele>198</ele>
        <time>2019-03-30T12:57:59Z</time>
      </trkpt>
      <trkpt lat="49.27498" lon="4.1076">
        <ele>198</ele>
        <time>2019-03-30T12:58:00Z</time>
      </trkpt>
      <trkpt lat="49.27501" lon="4.10761">
        <ele>198</ele>
        <time>2019-03-30T12:58:01Z</time>
      </trkpt>
      <trkpt lat="49.27504" lon="4.10762">
        <ele>198</ele>
        <time>2019-03-30T12:58:02Z</time>
      </trkpt>
      <trkpt lat="49.27507" lon="4.10763">
        <ele>198</ele>
        <time>2019-03-30T12:58:03Z</time>
      </trkpt>
      <trkpt lat="49.27511" lon="4.10764">
        <ele>199</ele>
        <time>2019-03-30T12:58:04Z</time>
      </trkpt>
      <trkpt lat="49.27514" lon="4.10765">
        <ele>199</ele>
        <time>2019-03-30T12:58:05Z</time>
      </trkpt>
      <trkpt lat="49.27518" lon="4.10766">
        <ele>199</ele>
        <time>2019-03-30T12:58:06Z</time>
      </trkpt>
      <trkpt lat="49.27521" lon="4.10766">
        <ele>199</ele>
        <time>2019-03-30T12:58:07Z</time>
      </trkpt>
      <trkpt lat="49.27524" lon="4.10767">
        <ele>199</ele>
        <time>2019-03-30T12:58:08Z</time>
      </trkpt>
      <trkpt lat="49.27527" lon="4.10768">
        <ele>199</ele>
        <time>2019-03-30T12:58:09Z</time>
      </trkpt>
      <trkpt lat="49.27529" lon="4.10769">
        <ele>199</ele>
        <time>2019-03-30T12:58:10Z</time>
      </trkpt>
      <trkpt lat="49.27532" lon="4.10769">
        <ele>200</ele>
        <time>2019-03-30T12:58:11Z</time>
      </trkpt>
      <trkpt lat="49.27535" lon="4.1077">
        <ele>200</ele>
        <time>2019-03-30T12:58:12Z</time>
      </trkpt>
      <trkpt lat="49.27538" lon="4.1077">
        <ele>200</ele>
        <time>2019-03-30T12:58:13Z</time>
      </trkpt>
      <trkpt lat="49.27541" lon="4.10771">
        <ele>200</ele>
        <time>2019-03-30T12:58:14Z</time>
      </trkpt>
      <trkpt lat="49.27543" lon="4.10771">
        <ele>201</ele>
        <time>2019-03-30T12:58:15Z</time>
      </trkpt>
      <trkpt lat="49.27546" lon="4.10772">
        <ele>201</ele>
        <time>2019-03-30T12:58:16Z</time>
      </trkpt>
      <trkpt lat="49.27548" lon="4.10772">
        <ele>201</ele>
        <time>2019-03-30T12:58:17Z</time>
      </trkpt>
      <trkpt lat="49.27551" lon="4.10773">
        <ele>201</ele>
        <time>2019-03-30T12:58:18Z</time>
      </trkpt>
      <trkpt lat="49.27553" lon="4.10773">
        <ele>201</ele>
        <time>2019-03-30T12:58:19Z</time>
      </trkpt>
      <trkpt lat="49.27555" lon="4.10773">
        <ele>201</ele>
        <time>2019-03-30T12:58:20Z</time>
      </trkpt>
      <trkpt lat="49.27557" lon="4.10774">
        <ele>202</ele>
        <time>2019-03-30T12:58:21Z</time>
      </trkpt>
      <trkpt lat="49.2756" lon="4.10774">
        <ele>202</ele>
        <time>2019-03-30T12:58:22Z</time>
      </trkpt>
      <trkpt lat="49.27562" lon="4.10774">
        <ele>202</ele>
        <time>2019-03-30T12:58:23Z</time>
      </trkpt>
      <trkpt lat="49.27564" lon="4.10775">
        <ele>202</ele>
        <time>2019-03-30T12:58:24Z</time>
      </trkpt>
      <trkpt lat="49.27566" lon="4.10775">
        <ele>202</ele>
        <time>2019-03-30T12:58:25Z</time>
      </trkpt>
      <trkpt lat="49.27568" lon="4.10776">
        <ele>202</ele>
        <time>2019-03-30T12:58:26Z</time>
      </trkpt>
      <trkpt lat="49.2757" lon="4.10777">
        <ele>202</ele>
        <time>2019-03-30T12:58:27Z</time>
      </trkpt>
      <trkpt lat="49.27573" lon="4.10777">
        <ele>202</ele>
        <time>2019-03-30T12:58:28Z</time>
      </trkpt>
      <trkpt lat="49.27575" lon="4.10777">
        <ele>202</ele>
        <time>2019-03-30T12:58:29Z</time>
      </trkpt>
      <trkpt lat="49.27577" lon="4.10777">
        <ele>202</ele>
        <time>2019-03-30T12:58:30Z</time>
      </trkpt>
      <trkpt lat="49.27579" lon="4.10778">
        <ele>202</ele>
        <time>2019-03-30T12:58:31Z</time>
      </trkpt>
      <trkpt lat="49.27581" lon="4.10778">
        <ele>203</ele>
        <time>2019-03-30T12:58:32Z</time>
      </trkpt>
      <trkpt lat="49.27583" lon="4.10778">
        <ele>203</ele>
        <time>2019-03-30T12:58:33Z</time>
      </trkpt>
      <trkpt lat="49.27586" lon="4.10779">
        <ele>203</ele>
        <time>2019-03-30T12:58:34Z</time>
      </trkpt>
      <trkpt lat="49.27589" lon="4.10779">
        <ele>203</ele>
        <time>2019-03-30T12:58:35Z</time>
      </trkpt>
      <trkpt lat="49.27592" lon="4.1078">
        <ele>203</ele>
        <time>2019-03-30T12:58:36Z</time>
      </trkpt>
      <trkpt lat="49.27594" lon="4.1078">
        <ele>203</ele>
        <time>2019-03-30T12:58:37Z</time>
      </trkpt>
      <trkpt lat="49.27597" lon="4.10781">
        <ele>203</ele>
        <time>2019-03-30T12:58:38Z</time>
      </trkpt>
      <trkpt lat="49.27601" lon="4.10781">
        <ele>204</ele>
        <time>2019-03-30T12:58:39Z</time>
      </trkpt>
      <trkpt lat="49.27604" lon="4.10782">
        <ele>204</ele>
        <time>2019-03-30T12:58:40Z</time>
      </trkpt>
      <trkpt lat="49.27607" lon="4.10782">
        <ele>204</ele>
        <time>2019-03-30T12:58:41Z</time>
      </trkpt>
      <trkpt lat="49.2761" lon="4.10782">
        <ele>204</ele>
        <time>2019-03-30T12:58:42Z</time>
      </trkpt>
      <trkpt lat="49.27613" lon="4.10782">
        <ele>204</ele>
        <time>2019-03-30T12:58:43Z</time>
      </trkpt>
      <trkpt lat="49.27616" lon="4.10783">
        <ele>204</ele>
        <time>2019-03-30T12:58:44Z</time>
      </trkpt>
      <trkpt lat="49.27619" lon="4.10783">
        <ele>205</ele>
        <time>2019-03-30T12:58:45Z</time>
      </trkpt>
      <trkpt lat="49.27622" lon="4.10784">
        <ele>205</ele>
        <time>2019-03-30T12:58:46Z</time>
      </trkpt>
      <trkpt lat="49.27625" lon="4.10784">
        <ele>205</ele>
        <time>2019-03-30T12:58:47Z</time>
      </trkpt>
      <trkpt lat="49.27628" lon="4.10785">
        <ele>205</ele>
        <time>2019-03-30T12:58:48Z</time>
      </trkpt>
      <trkpt lat="49.27631" lon="4.10785">
        <ele>205</ele>
        <time>2019-03-30T12:58:49Z</time>
      </trkpt>
      <trkpt lat="49.27634" lon="4.10785">
        <ele>205</ele>
        <time>2019-03-30T12:58:50Z</time>
      </trkpt>
      <trkpt lat="49.27638" lon="4.10785">
        <ele>205</ele>
        <time>2019-03-30T12:58:51Z</time>
      </trkpt>
      <trkpt lat="49.27641" lon="4.10785">
        <ele>205</ele>
        <time>2019-03-30T12:58:52Z</time>
      </trkpt>
      <trkpt lat="49.27644" lon="4.10785">
        <ele>205</ele>
        <time>2019-03-30T12:58:53Z</time>
      </trkpt>
      <trkpt lat="49.27647" lon="4.10786">
        <ele>205</ele>
        <time>2019-03-30T12:58:54Z</time>
      </trkpt>
      <trkpt lat="49.2765" lon="4.10786">
        <ele>206</ele>
        <time>2019-03-30T12:58:55Z</time>
      </trkpt>
      <trkpt lat="49.27653" lon="4.10787">
        <ele>206</ele>
        <time>2019-03-30T12:58:56Z</time>
      </trkpt>
      <trkpt lat="49.27655" lon="4.10787">
        <ele>206</ele>
        <time>2019-03-30T12:58:57Z</time>
      </trkpt>
      <trkpt lat="49.27658" lon="4.10787">
        <ele>206</ele>
        <time>2019-03-30T12:58:58Z</time>
      </trkpt>
      <trkpt lat="49.27662" lon="4.10788">
        <ele>206</ele>
        <time>2019-03-30T12:58:59Z</time>
      </trkpt>
      <trkpt lat="49.27665" lon="4.10788">
        <ele>206</ele>
        <time>2019-03-30T12:59:00Z</time>
      </trkpt>
      <trkpt lat="49.27668" lon="4.10788">
        <ele>206</ele>
        <time>2019-03-30T12:59:01Z</time>
      </trkpt>
      <trkpt lat="49.27671" lon="4.10789">
        <ele>207</ele>
        <time>2019-03-30T12:59:02Z</time>
      </trkpt>
      <trkpt lat="49.27674" lon="4.10789">
        <ele>207</ele>
        <time>2019-03-30T12:59:03Z</time>
      </trkpt>
      <trkpt lat="49.27676" lon="4.10789">
        <ele>207</ele>
        <time>2019-03-30T12:59:04Z</time>
      </trkpt>
      <trkpt lat="49.2768" lon="4.1079">
        <ele>207</ele>
        <time>2019-03-30T12:59:05Z</time>
      </trkpt>
      <trkpt lat="49.27682" lon="4.1079">
        <ele>207</ele>
        <time>2019-03-30T12:59:06Z</time>
      </trkpt>
      <trkpt lat="49.27685" lon="4.1079">
        <ele>207</ele>
        <time>2019-03-30T12:59:07Z</time>
      </trkpt>
      <trkpt lat="49.27688" lon="4.1079">
        <ele>207</ele>
        <time>2019-03-30T12:59:08Z</time>
      </trkpt>
      <trkpt lat="49.27691" lon="4.1079">
        <ele>207</ele>
        <time>2019-03-30T12:59:09Z</time>
      </trkpt>
      <trkpt lat="49.27693" lon="4.1079">
        <ele>207</ele>
        <time>2019-03-30T12:59:10Z</time>
      </trkpt>
      <trkpt lat="49.27696" lon="4.1079">
        <ele>208</ele>
        <time>2019-03-30T12:59:11Z</time>
      </trkpt>
      <trkpt lat="49.27699" lon="4.10791">
        <ele>208</ele>
        <time>2019-03-30T12:59:12Z</time>
      </trkpt>
      <trkpt lat="49.27702" lon="4.10791">
        <ele>208</ele>
        <time>2019-03-30T12:59:13Z</time>
      </trkpt>
      <trkpt lat="49.27705" lon="4.10791">
        <ele>208</ele>
        <time>2019-03-30T12:59:14Z</time>
      </trkpt>
      <trkpt lat="49.27707" lon="4.10791">
        <ele>208</ele>
        <time>2019-03-30T12:59:15Z</time>
      </trkpt>
      <trkpt lat="49.2771" lon="4.10792">
        <ele>209</ele>
        <time>2019-03-30T12:59:16Z</time>
      </trkpt>
      <trkpt lat="49.27713" lon="4.10792">
        <ele>208</ele>
        <time>2019-03-30T12:59:17Z</time>
      </trkpt>
      <trkpt lat="49.27715" lon="4.10792">
        <ele>209</ele>
        <time>2019-03-30T12:59:18Z</time>
      </trkpt>
      <trkpt lat="49.27718" lon="4.10792">
        <ele>208</ele>
        <time>2019-03-30T12:59:19Z</time>
      </trkpt>
      <trkpt lat="49.27721" lon="4.10792">
        <ele>208</ele>
        <time>2019-03-30T12:59:20Z</time>
      </trkpt>
      <trkpt lat="49.27724" lon="4.10792">
        <ele>209</ele>
        <time>2019-03-30T12:59:21Z</time>
      </trkpt>
      <trkpt lat="49.27726" lon="4.10793">
        <ele>209</ele>
        <time>2019-03-30T12:59:22Z</time>
      </trkpt>
      <trkpt lat="49.27729" lon="4.10793">
        <ele>209</ele>
        <time>2019-03-30T12:59:23Z</time>
      </trkpt>
      <trkpt lat="49.27732" lon="4.10794">
        <ele>209</ele>
        <time>2019-03-30T12:59:24Z</time>
      </trkpt>
      <trkpt lat="49.27735" lon="4.10794">
        <ele>210</ele>
        <time>2019-03-30T12:59:25Z</time>
      </trkpt>
      <trkpt lat="49.27738" lon="4.10794">
        <ele>210</ele>
        <time>2019-03-30T12:59:26Z</time>
      </trkpt>
      <trkpt lat="49.27741" lon="4.10794">
        <ele>210</ele>
        <time>2019-03-30T12:59:27Z</time>
      </trkpt>
      <trkpt lat="49.27743" lon="4.10794">
        <ele>210</ele>
        <time>2019-03-30T12:59:28Z</time>
      </trkpt>
      <trkpt lat="49.27746" lon="4.10795">
        <ele>210</ele>
        <time>2019-03-30T12:59:29Z</time>
      </trkpt>
      <trkpt lat="49.27749" lon="4.10795">
        <ele>210</ele>
        <time>2019-03-30T12:59:30Z</time>
      </trkpt>
      <trkpt lat="49.27752" lon="4.10794">
        <ele>210</ele>
        <time>2019-03-30T12:59:31Z</time>
      </trkpt>
      <trkpt lat="49.27755" lon="4.10795">
        <ele>210</ele>
        <time>2019-03-30T12:59:32Z</time>
      </trkpt>
      <trkpt lat="49.27758" lon="4.10795">
        <ele>211</ele>
        <time>2019-03-30T12:59:33Z</time>
      </trkpt>
      <trkpt lat="49.27761" lon="4.10796">
        <ele>211</ele>
        <time>2019-03-30T12:59:34Z</time>
      </trkpt>
      <trkpt lat="49.27763" lon="4.10796">
        <ele>211</ele>
        <time>2019-03-30T12:59:35Z</time>
      </trkpt>
      <trkpt lat="49.27766" lon="4.10796">
        <ele>211</ele>
        <time>2019-03-30T12:59:36Z</time>
      </trkpt>
      <trkpt lat="49.27769" lon="4.10797">
        <ele>211</ele>
        <time>2019-03-30T12:59:37Z</time>
      </trkpt>
      <trkpt lat="49.27772" lon="4.10797">
        <ele>211</ele>
        <time>2019-03-30T12:59:38Z</time>
      </trkpt>
      <trkpt lat="49.27774" lon="4.10797">
        <ele>211</ele>
        <time>2019-03-30T12:59:39Z</time>
      </trkpt>
      <trkpt lat="49.27777" lon="4.10797">
        <ele>211</ele>
        <time>2019-03-30T12:59:40Z</time>
      </trkpt>
      <trkpt lat="49.2778" lon="4.10798">
        <ele>210</ele>
        <time>2019-03-30T12:59:41Z</time>
      </trkpt>
      <trkpt lat="49.27783" lon="4.10798">
        <ele>211</ele>
        <time>2019-03-30T12:59:42Z</time>
      </trkpt>
      <trkpt lat="49.27786" lon="4.10798">
        <ele>210</ele>
        <time>2019-03-30T12:59:43Z</time>
      </trkpt>
      <trkpt lat="49.27789" lon="4.10798">
        <ele>210</ele>
        <time>2019-03-30T12:59:44Z</time>
      </trkpt>
      <trkpt lat="49.27792" lon="4.10798">
        <ele>211</ele>
        <time>2019-03-30T12:59:45Z</time>
      </trkpt>
      <trkpt lat="49.27796" lon="4.10798">
        <ele>210</ele>
        <time>2019-03-30T12:59:46Z</time>
      </trkpt>
      <trkpt lat="49.27799" lon="4.10798">
        <ele>211</ele>
        <time>2019-03-30T12:59:47Z</time>
      </trkpt>
      <trkpt lat="49.27803" lon="4.10798">
        <ele>211</ele>
        <time>2019-03-30T12:59:48Z</time>
      </trkpt>
      <trkpt lat="49.27806" lon="4.10798">
        <ele>211</ele>
        <time>2019-03-30T12:59:49Z</time>
      </trkpt>
      <trkpt lat="49.2781" lon="4.10799">
        <ele>210</ele>
        <time>2019-03-30T12:59:50Z</time>
      </trkpt>
      <trkpt lat="49.27814" lon="4.10799">
        <ele>210</ele>
        <time>2019-03-30T12:59:51Z</time>
      </trkpt>
      <trkpt lat="49.27818" lon="4.10799">
        <ele>210</ele>
        <time>2019-03-30T12:59:52Z</time>
      </trkpt>
      <trkpt lat="49.27822" lon="4.10799">
        <ele>210</ele>
        <time>2019-03-30T12:59:53Z</time>
      </trkpt>
      <trkpt lat="49.27827" lon="4.108">
        <ele>210</ele>
        <time>2019-03-30T12:59:54Z</time>
      </trkpt>
      <trkpt lat="49.27832" lon="4.10801">
        <ele>210</ele>
        <time>2019-03-30T12:59:55Z</time>
      </trkpt>
      <trkpt lat="49.27837" lon="4.10801">
        <ele>210</ele>
        <time>2019-03-30T12:59:56Z</time>
      </trkpt>
      <trkpt lat="49.27842" lon="4.10802">
        <ele>210</ele>
        <time>2019-03-30T12:59:57Z</time>
      </trkpt>
      <trkpt lat="49.27847" lon="4.10803">
        <ele>210</ele>
        <time>2019-03-30T12:59:58Z</time>
      </trkpt>
      <trkpt lat="49.27851" lon="4.10803">
        <ele>210</ele>
        <time>2019-03-30T12:59:59Z</time>
      </trkpt>
      <trkpt lat="49.27856" lon="4.10804">
        <ele>210</ele>
        <time>2019-03-30T13:00:00Z</time>
      </trkpt>
      <trkpt lat="49.2786" lon="4.10804">
        <ele>210</ele>
        <time>2019-03-30T13:00:01Z</time>
      </trkpt>
      <trkpt lat="49.27864" lon="4.10804">
        <ele>210</ele>
        <time>2019-03-30T13:00:02Z</time>
      </trkpt>
      <trkpt lat="49.27868" lon="4.10804">
        <ele>210</ele>
        <time>2019-03-30T13:00:03Z</time>
      </trkpt>
      <trkpt lat="49.27873" lon="4.10805">
        <ele>210</ele>
        <time>2019-03-30T13:00:04Z</time>
      </trkpt>
      <trkpt lat="49.27878" lon="4.10805">
        <ele>210</ele>
        <time>2019-03-30T13:00:05Z</time>
      </trkpt>
      <trkpt lat="49.27882" lon="4.10805">
        <ele>210</ele>
        <time>2019-03-30T13:00:06Z</time>
      </trkpt>
      <trkpt lat="49.27887" lon="4.10805">
        <ele>210</ele>
        <time>2019-03-30T13:00:07Z</time>
      </trkpt>
      <trkpt lat="49.27892" lon="4.10805">
        <ele>210</ele>
        <time>2019-03-30T13:00:08Z</time>
      </trkpt>
      <trkpt lat="49.27896" lon="4.10805">
        <ele>209</ele>
        <time>2019-03-30T13:00:09Z</time>
      </trkpt>
      <trkpt lat="49.27901" lon="4.10805">
        <ele>209</ele>
        <time>2019-03-30T13:00:10Z</time>
      </trkpt>
      <trkpt lat="49.27906" lon="4.10805">
        <ele>209</ele>
        <time>2019-03-30T13:00:11Z</time>
      </trkpt>
      <trkpt lat="49.27911" lon="4.10805">
        <ele>209</ele>
        <time>2019-03-30T13:00:12Z</time>
      </trkpt>
      <trkpt lat="49.27917" lon="4.10804">
        <ele>209</ele>
        <time>2019-03-30T13:00:13Z</time>
      </trkpt>
      <trkpt lat="49.27922" lon="4.10804">
        <ele>209</ele>
        <time>2019-03-30T13:00:14Z</time>
      </trkpt>
      <trkpt lat="49.27928" lon="4.10803">
        <ele>209</ele>
        <time>2019-03-30T13:00:15Z</time>
      </trkpt>
      <trkpt lat="49.27934" lon="4.10802">
        <ele>208</ele>
        <time>2019-03-30T13:00:16Z</time>
      </trkpt>
      <trkpt lat="49.2794" lon="4.10802">
        <ele>208</ele>
        <time>2019-03-30T13:00:17Z</time>
      </trkpt>
      <trkpt lat="49.27947" lon="4.10801">
        <ele>208</ele>
        <time>2019-03-30T13:00:18Z</time>
      </trkpt>
      <trkpt lat="49.27953" lon="4.108">
        <ele>208</ele>
        <time>2019-03-30T13:00:19Z</time>
      </trkpt>
      <trkpt lat="49.2796" lon="4.10799">
        <ele>208</ele>
        <time>2019-03-30T13:00:20Z</time>
      </trkpt>
      <trkpt lat="49.27967" lon="4.10797">
        <ele>208</ele>
        <time>2019-03-30T13:00:21Z</time>
      </trkpt>
      <trkpt lat="49.27975" lon="4.10795">
        <ele>208</ele>
        <time>2019-03-30T13:00:22Z</time>
      </trkpt>
      <trkpt lat="49.27982" lon="4.10793">
        <ele>208</ele>
        <time>2019-03-30T13:00:23Z</time>
      </trkpt>
      <trkpt lat="49.27989" lon="4.10791">
        <ele>208</ele>
        <time>2019-03-30T13:00:24Z</time>
      </trkpt>
      <trkpt lat="49.27997" lon="4.10789">
        <ele>207</ele>
        <time>2019-03-30T13:00:25Z</time>
      </trkpt>
      <trkpt lat="49.28005" lon="4.10788">
        <ele>207</ele>
        <time>2019-03-30T13:00:26Z</time>
      </trkpt>
      <trkpt lat="49.28013" lon="4.10785">
        <ele>206</ele>
        <time>2019-03-30T13:00:27Z</time>
      </trkpt>
      <trkpt lat="49.28022" lon="4.10783">
        <ele>206</ele>
        <time>2019-03-30T13:00:28Z</time>
      </trkpt>
      <trkpt lat="49.28031" lon="4.10781">
        <ele>205</ele>
        <time>2019-03-30T13:00:29Z</time>
      </trkpt>
      <trkpt lat="49.28039" lon="4.10778">
        <ele>204</ele>
        <time>2019-03-30T13:00:30Z</time>
      </trkpt>
      <trkpt lat="49.28049" lon="4.10776">
        <ele>203</ele>
        <time>2019-03-30T13:00:31Z</time>
      </trkpt>
      <trkpt lat="49.28058" lon="4.10774">
        <ele>203</ele>
        <time>2019-03-30T13:00:32Z</time>
      </trkpt>
      <trkpt lat="49.28067" lon="4.10771">
        <ele>203</ele>
        <time>2019-03-30T13:00:33Z</time>
      </trkpt>
      <trkpt lat="49.28076" lon="4.10768">
        <ele>202</ele>
        <time>2019-03-30T13:00:34Z</time>
      </trkpt>
      <trkpt lat="49.28085" lon="4.10765">
        <ele>202</ele>
        <time>2019-03-30T13:00:35Z</time>
      </trkpt>
      <trkpt lat="49.28093" lon="4.10763">
        <ele>201</ele>
        <time>2019-03-30T13:00:36Z</time>
      </trkpt>
      <trkpt lat="49.28102" lon="4.1076">
        <ele>201</ele>
        <time>2019-03-30T13:00:37Z</time>
      </trkpt>
      <trkpt lat="49.2811" lon="4.10757">
        <ele>200</ele>
        <time>2019-03-30T13:00:38Z</time>
      </trkpt>
      <trkpt lat="49.28118" lon="4.10754">
        <ele>200</ele>
        <time>2019-03-30T13:00:39Z</time>
      </trkpt>
      <trkpt lat="49.28126" lon="4.10752">
        <ele>200</ele>
        <time>2019-03-30T13:00:40Z</time>
      </trkpt>
      <trkpt lat="49.28134" lon="4.1075">
        <ele>200</ele>
        <time>2019-03-30T13:00:41Z</time>
      </trkpt>
      <trkpt lat="49.28143" lon="4.10749">
        <ele>200</ele>
        <time>2019-03-30T13:00:42Z</time>
      </trkpt>
      <trkpt lat="49.28152" lon="4.10747">
        <ele>199</ele>
        <time>2019-03-30T13:00:43Z</time>
      </trkpt>
      <trkpt lat="49.2816" lon="4.10745">
        <ele>199</ele>
        <time>2019-03-30T13:00:44Z</time>
      </trkpt>
      <trkpt lat="49.28169" lon="4.10742">
        <ele>198</ele>
        <time>2019-03-30T13:00:45Z</time>
      </trkpt>
      <trkpt lat="49.28178" lon="4.10739">
        <ele>198</ele>
        <time>2019-03-30T13:00:46Z</time>
      </trkpt>
      <trkpt lat="49.28187" lon="4.10734">
        <ele>197</ele>
        <time>2019-03-30T13:00:47Z</time>
      </trkpt>
      <trkpt lat="49.28196" lon="4.1073">
        <ele>196</ele>
        <time>2019-03-30T13:00:48Z</time>
      </trkpt>
      <trkpt lat="49.28204" lon="4.10724">
        <ele>196</ele>
        <time>2019-03-30T13:00:49Z</time>
      </trkpt>
      <trkpt lat="49.28212" lon="4.10718">
        <ele>196</ele>
        <time>2019-03-30T13:00:50Z</time>
      </trkpt>
      <trkpt lat="49.2822" lon="4.10713">
        <ele>196</ele>
        <time>2019-03-30T13:00:51Z</time>
      </trkpt>
      <trkpt lat="49.28227" lon="4.10709">
        <ele>196</ele>
        <time>2019-03-30T13:00:52Z</time>
      </trkpt>
      <trkpt lat="49.28235" lon="4.10707">
        <ele>196</ele>
        <time>2019-03-30T13:00:53Z</time>
      </trkpt>
      <trkpt lat="49.28243" lon="4.10708">
        <ele>196</ele>
        <time>2019-03-30T13:00:54Z</time>
      </trkpt>
      <trkpt lat="49.2825" lon="4.1071">
        <ele>195</ele>
        <time>2019-03-30T13:00:55Z</time>
      </trkpt>
      <trkpt lat="49.28258" lon="4.10713">
        <ele>195</ele>
        <time>2019-03-30T13:00:56Z</time>
      </trkpt>
      <trkpt lat="49.28264" lon="4.10719">
        <ele>195</ele>
        <time>2019-03-30T13:00:57Z</time>
      </trkpt>
      <trkpt lat="49.2827" lon="4.10726">
        <ele>195</ele>
        <time>2019-03-30T13:00:58Z</time>
      </trkpt>
      <trkpt lat="49.28274" lon="4.10735">
        <ele>195</ele>
        <time>2019-03-30T13:00:59Z</time>
      </trkpt>
      <trkpt lat="49.28278" lon="4.10745">
        <ele>195</ele>
        <time>2019-03-30T13:01:00Z</time>
      </trkpt>
      <trkpt lat="49.28282" lon="4.10755">
        <ele>195</ele>
        <time>2019-03-30T13:01:01Z</time>
      </trkpt>
      <trkpt lat="49.28285" lon="4.10766">
        <ele>195</ele>
        <time>2019-03-30T13:01:02Z</time>
      </trkpt>
      <trkpt lat="49.28289" lon="4.10776">
        <ele>195</ele>
        <time>2019-03-30T13:01:03Z</time>
      </trkpt>
      <trkpt lat="49.28292" lon="4.10786">
        <ele>195</ele>
        <time>2019-03-30T13:01:04Z</time>
      </trkpt>
      <trkpt lat="49.28296" lon="4.10796">
        <ele>195</ele>
        <time>2019-03-30T13:01:05Z</time>
      </trkpt>
      <trkpt lat="49.28299" lon="4.10806">
        <ele>195</ele>
        <time>2019-03-30T13:01:06Z</time>
      </trkpt>
      <trkpt lat="49.28303" lon="4.10816">
        <ele>195</ele>
        <time>2019-03-30T13:01:07Z</time>
      </trkpt>
      <trkpt lat="49.28306" lon="4.10824">
        <ele>195</ele>
        <time>2019-03-30T13:01:08Z</time>
      </trkpt>
      <trkpt lat="49.28309" lon="4.10832">
        <ele>195</ele>
        <time>2019-03-30T13:01:09Z</time>
      </trkpt>
      <trkpt lat="49.28312" lon="4.1084">
        <ele>195</ele>
        <time>2019-03-30T13:01:10Z</time>
      </trkpt>
      <trkpt lat="49.28314" lon="4.10848">
        <ele>195</ele>
        <time>2019-03-30T13:01:11Z</time>
      </trkpt>
      <trkpt lat="49.28317" lon="4.10855">
        <ele>195</ele>
        <time>2019-03-30T13:01:12Z</time>
      </trkpt>
      <trkpt lat="49.28319" lon="4.10863">
        <ele>196</ele>
        <time>2019-03-30T13:01:13Z</time>
      </trkpt>
      <trkpt lat="49.28321" lon="4.1087">
        <ele>196</ele>
        <time>2019-03-30T13:01:14Z</time>
      </trkpt>
      <trkpt lat="49.28324" lon="4.10877">
        <ele>196</ele>
        <time>2019-03-30T13:01:15Z</time>
      </trkpt>
      <trkpt lat="49.28326" lon="4.10883">
        <ele>196</ele>
        <time>2019-03-30T13:01:16Z</time>
      </trkpt>
      <trkpt lat="49.28328" lon="4.10889">
        <ele>197</ele>
        <time>2019-03-30T13:01:17Z</time>
      </trkpt>
      <trkpt lat="49.2833" lon="4.10896">
        <ele>197</ele>
        <time>2019-03-30T13:01:18Z</time>
      </trkpt>
      <trkpt lat="49.28333" lon="4.10902">
        <ele>197</ele>
        <time>2019-03-30T13:01:19Z</time>
      </trkpt>
      <trkpt lat="49.28335" lon="4.10908">
        <ele>197</ele>
        <time>2019-03-30T13:01:20Z</time>
      </trkpt>
      <trkpt lat="49.28338" lon="4.10916">
        <ele>197</ele>
        <time>2019-03-30T13:01:21Z</time>
      </trkpt>
      <trkpt lat="49.28341" lon="4.10923">
        <ele>197</ele>
        <time>2019-03-30T13:01:22Z</time>
      </trkpt>
      <trkpt lat="49.28344" lon="4.1093">
        <ele>197</ele>
        <time>2019-03-30T13:01:23Z</time>
      </trkpt>
      <trkpt lat="49.28347" lon="4.10936">
        <ele>197</ele>
        <time>2019-03-30T13:01:24Z</time>
      </trkpt>
      <trkpt lat="49.2835" lon="4.10943">
        <ele>197</ele>
        <time>2019-03-30T13:01:25Z</time>
      </trkpt>
      <trkpt lat="49.28353" lon="4.10951">
        <ele>197</ele>
        <time>2019-03-30T13:01:26Z</time>
      </trkpt>
      <trkpt lat="49.28356" lon="4.10958">
        <ele>196</ele>
        <time>2019-03-30T13:01:27Z</time>
      </trkpt>
      <trkpt lat="49.28359" lon="4.10966">
        <ele>196</ele>
        <time>2019-03-30T13:01:28Z</time>
      </trkpt>
      <trkpt lat="49.28362" lon="4.10974">
        <ele>196</ele>
        <time>2019-03-30T13:01:29Z</time>
      </trkpt>
      <trkpt lat="49.28365" lon="4.10983">
        <ele>196</ele>
        <time>2019-03-30T13:01:30Z</time>
      </trkpt>
      <trkpt lat="49.28368" lon="4.10991">
        <ele>196</ele>
        <time>2019-03-30T13:01:31Z</time>
      </trkpt>
      <trkpt lat="49.2837" lon="4.11">
        <ele>196</ele>
        <time>2019-03-30T13:01:32Z</time>
      </trkpt>
      <trkpt lat="49.28371" lon="4.11009">
        <ele>196</ele>
        <time>2019-03-30T13:01:33Z</time>
      </trkpt>
      <trkpt lat="49.28372" lon="4.11017">
        <ele>196</ele>
        <time>2019-03-30T13:01:34Z</time>
      </trkpt>
      <trkpt lat="49.28374" lon="4.11024">
        <ele>196</ele>
        <time>2019-03-30T13:01:35Z</time>
      </trkpt>
      <trkpt lat="49.28378" lon="4.1103">
        <ele>196</ele>
        <time>2019-03-30T13:01:36Z</time>
      </trkpt>
      <trkpt lat="49.28383" lon="4.11035">
        <ele>196</ele>
        <time>2019-03-30T13:01:37Z</time>
      </trkpt>
      <trkpt lat="49.28387" lon="4.1104">
        <ele>196</ele>
        <time>2019-03-30T13:01:38Z</time>
      </trkpt>
      <trkpt lat="49.28391" lon="4.11047">
        <ele>196</ele>
        <time>2019-03-30T13:01:39Z</time>
      </trkpt>
      <trkpt lat="49.28393" lon="4.11054">
        <ele>195</ele>
        <time>2019-03-30T13:01:40Z</time>
      </trkpt>
      <trkpt lat="49.28396" lon="4.11062">
        <ele>195</ele>
        <time>2019-03-30T13:01:41Z</time>
      </trkpt>
      <trkpt lat="49.284" lon="4.11069">
        <ele>195</ele>
        <time>2019-03-30T13:01:42Z</time>
      </trkpt>
      <trkpt lat="49.28403" lon="4.11076">
        <ele>195</ele>
        <time>2019-03-30T13:01:43Z</time>
      </trkpt>
      <trkpt lat="49.28406" lon="4.11084">
        <ele>195</ele>
        <time>2019-03-30T13:01:44Z</time>
      </trkpt>
      <trkpt lat="49.2841" lon="4.11092">
        <ele>195</ele>
        <time>2019-03-30T13:01:45Z</time>
      </trkpt>
      <trkpt lat="49.28414" lon="4.11099">
        <ele>195</ele>
        <time>2019-03-30T13:01:46Z</time>
      </trkpt>
      <trkpt lat="49.28417" lon="4.11107">
        <ele>195</ele>
        <time>2019-03-30T13:01:47Z</time>
      </trkpt>
      <trkpt lat="49.28421" lon="4.11114">
        <ele>196</ele>
        <time>2019-03-30T13:01:48Z</time>
      </trkpt>
      <trkpt lat="49.28425" lon="4.11122">
        <ele>196</ele>
        <time>2019-03-30T13:01:49Z</time>
      </trkpt>
      <trkpt lat="49.2843" lon="4.11129">
        <ele>196</ele>
        <time>2019-03-30T13:01:50Z</time>
      </trkpt>
      <trkpt lat="49.28434" lon="4.11137">
        <ele>196</ele>
        <time>2019-03-30T13:01:51Z</time>
      </trkpt>
      <trkpt lat="49.28438" lon="4.11145">
        <ele>196</ele>
        <time>2019-03-30T13:01:52Z</time>
      </trkpt>
      <trkpt lat="49.28442" lon="4.11152">
        <ele>196</ele>
        <time>2019-03-30T13:01:53Z</time>
      </trkpt>
      <trkpt lat="49.28447" lon="4.11159">
        <ele>196</ele>
        <time>2019-03-30T13:01:54Z</time>
      </trkpt>
      <trkpt lat="49.28452" lon="4.11166">
        <ele>196</ele>
        <time>2019-03-30T13:01:55Z</time>
      </trkpt>
      <trkpt lat="49.28456" lon="4.11173">
        <ele>196</ele>
        <time>2019-03-30T13:01:56Z</time>
      </trkpt>
      <trkpt lat="49.2846" lon="4.11182">
        <ele>195</ele>
        <time>2019-03-30T13:01:57Z</time>
      </trkpt>
      <trkpt lat="49.28465" lon="4.1119">
        <ele>195</ele>
        <time>2019-03-30T13:01:58Z</time>
      </trkpt>
      <trkpt lat="49.28469" lon="4.11197">
        <ele>195</ele>
        <time>2019-03-30T13:01:59Z</time>
      </trkpt>
      <trkpt lat="49.28473" lon="4.11204">
        <ele>195</ele>
        <time>2019-03-30T13:02:00Z</time>
      </trkpt>
      <trkpt lat="49.28478" lon="4.1121">
        <ele>195</ele>
        <time>2019-03-30T13:02:01Z</time>
      </trkpt>
      <trkpt lat="49.28481" lon="4.11216">
        <ele>196</ele>
        <time>2019-03-30T13:02:02Z</time>
      </trkpt>
      <trkpt lat="49.28485" lon="4.1122">
        <ele>196</ele>
        <time>2019-03-30T13:02:03Z</time>
      </trkpt>
      <trkpt lat="49.28489" lon="4.11225">
        <ele>195</ele>
        <time>2019-03-30T13:02:04Z</time>
      </trkpt>
      <trkpt lat="49.28493" lon="4.11229">
        <ele>195</ele>
        <time>2019-03-30T13:02:05Z</time>
      </trkpt>
      <trkpt lat="49.28497" lon="4.11235">
        <ele>195</ele>
        <time>2019-03-30T13:02:06Z</time>
      </trkpt>
      <trkpt lat="49.28501" lon="4.11241">
        <ele>194</ele>
        <time>2019-03-30T13:02:07Z</time>
      </trkpt>
      <trkpt lat="49.28506" lon="4.11248">
        <ele>194</ele>
        <time>2019-03-30T13:02:08Z</time>
      </trkpt>
      <trkpt lat="49.28511" lon="4.11254">
        <ele>194</ele>
        <time>2019-03-30T13:02:09Z</time>
      </trkpt>
      <trkpt lat="49.28516" lon="4.11261">
        <ele>194</ele>
        <time>2019-03-30T13:02:10Z</time>
      </trkpt>
      <trkpt lat="49.2852" lon="4.11268">
        <ele>193</ele>
        <time>2019-03-30T13:02:11Z</time>
      </trkpt>
      <trkpt lat="49.28524" lon="4.11275">
        <ele>193</ele>
        <time>2019-03-30T13:02:12Z</time>
      </trkpt>
      <trkpt lat="49.28529" lon="4.11282">
        <ele>194</ele>
        <time>2019-03-30T13:02:13Z</time>
      </trkpt>
      <trkpt lat="49.28534" lon="4.11288">
        <ele>194</ele>
        <time>2019-03-30T13:02:14Z</time>
      </trkpt>
      <trkpt lat="49.2854" lon="4.11293">
        <ele>194</ele>
        <time>2019-03-30T13:02:15Z</time>
      </trkpt>
      <trkpt lat="49.28546" lon="4.11294">
        <ele>194</ele>
        <time>2019-03-30T13:02:16Z</time>
      </trkpt>
      <trkpt lat="49.28552" lon="4.1129">
        <ele>194</ele>
        <time>2019-03-30T13:02:17Z</time>
      </trkpt>
      <trkpt lat="49.28557" lon="4.11282">
        <ele>194</ele>
        <time>2019-03-30T13:02:18Z</time>
      </trkpt>
      <trkpt lat="49.28562" lon="4.11275">
        <ele>194</ele>
        <time>2019-03-30T13:02:19Z</time>
      </trkpt>
      <trkpt lat="49.28567" lon="4.11268">
        <ele>193</ele>
        <time>2019-03-30T13:02:20Z</time>
      </trkpt>
      <trkpt lat="49.28573" lon="4.11261">
        <ele>193</ele>
        <time>2019-03-30T13:02:21Z</time>
      </trkpt>
      <trkpt lat="49.28578" lon="4.11255">
        <ele>193</ele>
        <time>2019-03-30T13:02:22Z</time>
      </trkpt>
      <trkpt lat="49.28584" lon="4.11249">
        <ele>193</ele>
        <time>2019-03-30T13:02:23Z</time>
      </trkpt>
      <trkpt lat="49.28589" lon="4.11243">
        <ele>193</ele>
        <time>2019-03-30T13:02:24Z</time>
      </trkpt>
      <trkpt lat="49.28594" lon="4.11236">
        <ele>193</ele>
        <time>2019-03-30T13:02:25Z</time>
      </trkpt>
      <trkpt lat="49.28599" lon="4.1123">
        <ele>193</ele>
        <time>2019-03-30T13:02:26Z</time>
      </trkpt>
      <trkpt lat="49.28605" lon="4.11224">
        <ele>193</ele>
        <time>2019-03-30T13:02:27Z</time>
      </trkpt>
      <trkpt lat="49.2861" lon="4.11218">
        <ele>193</ele>
        <time>2019-03-30T13:02:28Z</time>
      </trkpt>
      <trkpt lat="49.28616" lon="4.11212">
        <ele>192</ele>
        <time>2019-03-30T13:02:29Z</time>
      </trkpt>
      <trkpt lat="49.28621" lon="4.11206">
        <ele>192</ele>
        <time>2019-03-30T13:02:30Z</time>
      </trkpt>
      <trkpt lat="49.28626" lon="4.112">
        <ele>192</ele>
        <time>2019-03-30T13:02:31Z</time>
      </trkpt>
      <trkpt lat="49.28631" lon="4.11193">
        <ele>192</ele>
        <time>2019-03-30T13:02:32Z</time>
      </trkpt>
      <trkpt lat="49.28636" lon="4.11187">
        <ele>192</ele>
        <time>2019-03-30T13:02:33Z</time>
      </trkpt>
      <trkpt lat="49.28641" lon="4.1118">
        <ele>192</ele>
        <time>2019-03-30T13:02:34Z</time>
      </trkpt>
      <trkpt lat="49.28647" lon="4.11174">
        <ele>191</ele>
        <time>2019-03-30T13:02:35Z</time>
      </trkpt>
      <trkpt lat="49.28652" lon="4.11168">
        <ele>191</ele>
        <time>2019-03-30T13:02:36Z</time>
      </trkpt>
      <trkpt lat="49.28657" lon="4.11161">
        <ele>191</ele>
        <time>2019-03-30T13:02:37Z</time>
      </trkpt>
      <trkpt lat="49.28663" lon="4.11155">
        <ele>191</ele>
        <time>2019-03-30T13:02:38Z</time>
      </trkpt>
      <trkpt lat="49.28668" lon="4.11148">
        <ele>191</ele>
        <time>2019-03-30T13:02:39Z</time>
      </trkpt>
      <trkpt lat="49.28674" lon="4.1114">
        <ele>190</ele>
        <time>2019-03-30T13:02:40Z</time>
      </trkpt>
      <trkpt lat="49.2868" lon="4.11133">
        <ele>190</ele>
        <time>2019-03-30T13:02:41Z</time>
      </trkpt>
      <trkpt lat="49.28686" lon="4.11126">
        <ele>190</ele>
        <time>2019-03-30T13:02:42Z</time>
      </trkpt>
      <trkpt lat="49.28692" lon="4.11118">
        <ele>190</ele>
        <time>2019-03-30T13:02:43Z</time>
      </trkpt>
      <trkpt lat="49.28699" lon="4.11111">
        <ele>190</ele>
        <time>2019-03-30T13:02:44Z</time>
      </trkpt>
      <trkpt lat="49.28704" lon="4.11104">
        <ele>189</ele>
        <time>2019-03-30T13:02:45Z</time>
      </trkpt>
      <trkpt lat="49.2871" lon="4.11098">
        <ele>189</ele>
        <time>2019-03-30T13:02:46Z</time>
      </trkpt>
      <trkpt lat="49.28715" lon="4.11093">
        <ele>189</ele>
        <time>2019-03-30T13:02:47Z</time>
      </trkpt>
      <trkpt lat="49.2872" lon="4.11089">
        <ele>188</ele>
        <time>2019-03-30T13:02:48Z</time>
      </trkpt>
      <trkpt lat="49.28727" lon="4.11085">
        <ele>187</ele>
        <time>2019-03-30T13:02:49Z</time>
      </trkpt>
      <trkpt lat="49.28733" lon="4.11082">
        <ele>187</ele>
        <time>2019-03-30T13:02:50Z</time>
      </trkpt>
      <trkpt lat="49.2874" lon="4.11079">
        <ele>187</ele>
        <time>2019-03-30T13:02:51Z</time>
      </trkpt>
      <trkpt lat="49.28748" lon="4.11077">
        <ele>186</ele>
        <time>2019-03-30T13:02:52Z</time>
      </trkpt>
      <trkpt lat="49.28756" lon="4.11077">
        <ele>186</ele>
        <time>2019-03-30T13:02:53Z</time>
      </trkpt>
      <trkpt lat="49.28765" lon="4.11079">
        <ele>186</ele>
        <time>2019-03-30T13:02:54Z</time>
      </trkpt>
      <trkpt lat="49.28773" lon="4.11081">
        <ele>184</ele>
        <time>2019-03-30T13:02:55Z</time>
      </trkpt>
      <trkpt lat="49.28781" lon="4.11082">
        <ele>184</ele>
        <time>2019-03-30T13:02:56Z</time>
      </trkpt>
      <trkpt lat="49.28789" lon="4.11084">
        <ele>183</ele>
        <time>2019-03-30T13:02:57Z</time>
      </trkpt>
      <trkpt lat="49.28797" lon="4.11085">
        <ele>183</ele>
        <time>2019-03-30T13:02:58Z</time>
      </trkpt>
      <trkpt lat="49.28806" lon="4.11085">
        <ele>182</ele>
        <time>2019-03-30T13:02:59Z</time>
      </trkpt>
      <trkpt lat="49.28813" lon="4.11086">
        <ele>182</ele>
        <time>2019-03-30T13:03:00Z</time>
      </trkpt>
      <trkpt lat="49.2882" lon="4.11086">
        <ele>182</ele>
        <time>2019-03-30T13:03:01Z</time>
      </trkpt>
      <trkpt lat="49.28827" lon="4.11087">
        <ele>181</ele>
        <time>2019-03-30T13:03:02Z</time>
      </trkpt>
      <trkpt lat="49.28834" lon="4.11089">
        <ele>181</ele>
        <time>2019-03-30T13:03:03Z</time>
      </trkpt>
      <trkpt lat="49.2884" lon="4.1109">
        <ele>180</ele>
        <time>2019-03-30T13:03:04Z</time>
      </trkpt>
      <trkpt lat="49.28845" lon="4.11092">
        <ele>180</ele>
        <time>2019-03-30T13:03:05Z</time>
      </trkpt>
      <trkpt lat="49.28849" lon="4.11092">
        <ele>180</ele>
        <time>2019-03-30T13:03:06Z</time>
      </trkpt>
      <trkpt lat="49.28854" lon="4.11094">
        <ele>180</ele>
        <time>2019-03-30T13:03:07Z</time>
      </trkpt>
      <trkpt lat="49.2886" lon="4.11096">
        <ele>180</ele>
        <time>2019-03-30T13:03:08Z</time>
      </trkpt>
      <trkpt lat="49.28866" lon="4.11098">
        <ele>180</ele>
        <time>2019-03-30T13:03:09Z</time>
      </trkpt>
      <trkpt lat="49.28872" lon="4.11098">
        <ele>180</ele>
        <time>2019-03-30T13:03:10Z</time>
      </trkpt>
      <trkpt lat="49.28879" lon="4.11097">
        <ele>180</ele>
        <time>2019-03-30T13:03:11Z</time>
      </trkpt>
      <trkpt lat="49.28886" lon="4.11096">
        <ele>179</ele>
        <time>2019-03-30T13:03:12Z</time>
      </trkpt>
      <trkpt lat="49.28894" lon="4.11096">
        <ele>179</ele>
        <time>2019-03-30T13:03:13Z</time>
      </trkpt>
      <trkpt lat="49.28902" lon="4.11096">
        <ele>179</ele>
        <time>2019-03-30T13:03:14Z</time>
      </trkpt>
      <trkpt lat="49.2891" lon="4.11097">
        <ele>179</ele>
        <time>2019-03-30T13:03:15Z</time>
      </trkpt>
      <trkpt lat="49.28918" lon="4.11099">
        <ele>178</ele>
        <time>2019-03-30T13:03:16Z</time>
      </trkpt>
      <trkpt lat="49.28927" lon="4.111">
        <ele>177</ele>
        <time>2019-03-30T13:03:17Z</time>
      </trkpt>
      <trkpt lat="49.28935" lon="4.11101">
        <ele>177</ele>
        <time>2019-03-30T13:03:18Z</time>
      </trkpt>
      <trkpt lat="49.28943" lon="4.11103">
        <ele>176</ele>
        <time>2019-03-30T13:03:19Z</time>
      </trkpt>
      <trkpt lat="49.28952" lon="4.11103">
        <ele>176</ele>
        <time>2019-03-30T13:03:20Z</time>
      </trkpt>
      <trkpt lat="49.28961" lon="4.11105">
        <ele>175</ele>
        <time>2019-03-30T13:03:21Z</time>
      </trkpt>
      <trkpt lat="49.2897" lon="4.11106">
        <ele>175</ele>
        <time>2019-03-30T13:03:22Z</time>
      </trkpt>
      <trkpt lat="49.28979" lon="4.11107">
        <ele>174</ele>
        <time>2019-03-30T13:03:23Z</time>
      </trkpt>
      <trkpt lat="49.28988" lon="4.1111">
        <ele>174</ele>
        <time>2019-03-30T13:03:24Z</time>
      </trkpt>
      <trkpt lat="49.28997" lon="4.11112">
        <ele>173</ele>
        <time>2019-03-30T13:03:25Z</time>
      </trkpt>
      <trkpt lat="49.29005" lon="4.11113">
        <ele>173</ele>
        <time>2019-03-30T13:03:26Z</time>
      </trkpt>
      <trkpt lat="49.29012" lon="4.11114">
        <ele>173</ele>
        <time>2019-03-30T13:03:27Z</time>
      </trkpt>
      <trkpt lat="49.29019" lon="4.11115">
        <ele>173</ele>
        <time>2019-03-30T13:03:28Z</time>
      </trkpt>
      <trkpt lat="49.29025" lon="4.11116">
        <ele>172</ele>
        <time>2019-03-30T13:03:29Z</time>
      </trkpt>
      <trkpt lat="49.29031" lon="4.11117">
        <ele>172</ele>
        <time>2019-03-30T13:03:30Z</time>
      </trkpt>
      <trkpt lat="49.29037" lon="4.1112">
        <ele>172</ele>
        <time>2019-03-30T13:03:31Z</time>
      </trkpt>
      <trkpt lat="49.29044" lon="4.11123">
        <ele>171</ele>
        <time>2019-03-30T13:03:32Z</time>
      </trkpt>
      <trkpt lat="49.29051" lon="4.11125">
        <ele>171</ele>
        <time>2019-03-30T13:03:33Z</time>
      </trkpt>
      <trkpt lat="49.29057" lon="4.11124">
        <ele>170</ele>
        <time>2019-03-30T13:03:34Z</time>
      </trkpt>
      <trkpt lat="49.29065" lon="4.11123">
        <ele>170</ele>
        <time>2019-03-30T13:03:35Z</time>
      </trkpt>
      <trkpt lat="49.29072" lon="4.11123">
        <ele>169</ele>
        <time>2019-03-30T13:03:36Z</time>
      </trkpt>
      <trkpt lat="49.29079" lon="4.11124">
        <ele>169</ele>
        <time>2019-03-30T13:03:37Z</time>
      </trkpt>
      <trkpt lat="49.29086" lon="4.11125">
        <ele>169</ele>
        <time>2019-03-30T13:03:38Z</time>
      </trkpt>
      <trkpt lat="49.29093" lon="4.11126">
        <ele>169</ele>
        <time>2019-03-30T13:03:39Z</time>
      </trkpt>
      <trkpt lat="49.29101" lon="4.11127">
        <ele>168</ele>
        <time>2019-03-30T13:03:40Z</time>
      </trkpt>
      <trkpt lat="49.29109" lon="4.11127">
        <ele>167</ele>
        <time>2019-03-30T13:03:41Z</time>
      </trkpt>
      <trkpt lat="49.29117" lon="4.11128">
        <ele>167</ele>
        <time>2019-03-30T13:03:42Z</time>
      </trkpt>
      <trkpt lat="49.29125" lon="4.11128">
        <ele>167</ele>
        <time>2019-03-30T13:03:43Z</time>
      </trkpt>
      <trkpt lat="49.29133" lon="4.11128">
        <ele>166</ele>
        <time>2019-03-30T13:03:44Z</time>
      </trkpt>
      <trkpt lat="49.29141" lon="4.11129">
        <ele>166</ele>
        <time>2019-03-30T13:03:45Z</time>
      </trkpt>
      <trkpt lat="49.29155" lon="4.11132">
        <ele>166</ele>
        <time>2019-03-30T13:03:47Z</time>
      </trkpt>
      <trkpt lat="49.29161" lon="4.11134">
        <ele>166</ele>
        <time>2019-03-30T13:03:48Z</time>
      </trkpt>
      <trkpt lat="49.29167" lon="4.11137">
        <ele>166</ele>
        <time>2019-03-30T13:03:49Z</time>
      </trkpt>
      <trkpt lat="49.29172" lon="4.11142">
        <ele>166</ele>
        <time>2019-03-30T13:03:50Z</time>
      </trkpt>
      <trkpt lat="49.29178" lon="4.11147">
        <ele>166</ele>
        <time>2019-03-30T13:03:51Z</time>
      </trkpt>
      <trkpt lat="49.2919" lon="4.1115">
        <ele>165</ele>
        <time>2019-03-30T13:03:53Z</time>
      </trkpt>
      <trkpt lat="49.29196" lon="4.11144">
        <ele>165</ele>
        <time>2019-03-30T13:03:54Z</time>
      </trkpt>
      <trkpt lat="49.29199" lon="4.11136">
        <ele>165</ele>
        <time>2019-03-30T13:03:55Z</time>
      </trkpt>
      <trkpt lat="49.29201" lon="4.11127">
        <ele>165</ele>
        <time>2019-03-30T13:03:56Z</time>
      </trkpt>
      <trkpt lat="49.29203" lon="4.11118">
        <ele>164</ele>
        <time>2019-03-30T13:03:57Z</time>
      </trkpt>
      <trkpt lat="49.29207" lon="4.11109">
        <ele>164</ele>
        <time>2019-03-30T13:03:58Z</time>
      </trkpt>
      <trkpt lat="49.29211" lon="4.11101">
        <ele>165</ele>
        <time>2019-03-30T13:03:59Z</time>
      </trkpt>
      <trkpt lat="49.29216" lon="4.11093">
        <ele>164</ele>
        <time>2019-03-30T13:04:00Z</time>
      </trkpt>
      <trkpt lat="49.29219" lon="4.11084">
        <ele>164</ele>
        <time>2019-03-30T13:04:01Z</time>
      </trkpt>
      <trkpt lat="49.29223" lon="4.11075">
        <ele>164</ele>
        <time>2019-03-30T13:04:02Z</time>
      </trkpt>
      <trkpt lat="49.29226" lon="4.11067">
        <ele>164</ele>
        <time>2019-03-30T13:04:03Z</time>
      </trkpt>
      <trkpt lat="49.2923" lon="4.11057">
        <ele>164</ele>
        <time>2019-03-30T13:04:04Z</time>
      </trkpt>
      <trkpt lat="49.29233" lon="4.11049">
        <ele>164</ele>
        <time>2019-03-30T13:04:05Z</time>
      </trkpt>
      <trkpt lat="49.29237" lon="4.1104">
        <ele>164</ele>
        <time>2019-03-30T13:04:06Z</time>
      </trkpt>
      <trkpt lat="49.29241" lon="4.1103">
        <ele>164</ele>
        <time>2019-03-30T13:04:07Z</time>
      </trkpt>
      <trkpt lat="49.29244" lon="4.11021">
        <ele>164</ele>
        <time>2019-03-30T13:04:08Z</time>
      </trkpt>
      <trkpt lat="49.29247" lon="4.11012">
        <ele>164</ele>
        <time>2019-03-30T13:04:09Z</time>
      </trkpt>
      <trkpt lat="49.29251" lon="4.11003">
        <ele>164</ele>
        <time>2019-03-30T13:04:10Z</time>
      </trkpt>
      <trkpt lat="49.29255" lon="4.10994">
        <ele>164</ele>
        <time>2019-03-30T13:04:11Z</time>
      </trkpt>
      <trkpt lat="49.29259" lon="4.10985">
        <ele>163</ele>
        <time>2019-03-30T13:04:12Z</time>
      </trkpt>
      <trkpt lat="49.29263" lon="4.10977">
        <ele>163</ele>
        <time>2019-03-30T13:04:13Z</time>
      </trkpt>
      <trkpt lat="49.29267" lon="4.10968">
        <ele>163</ele>
        <time>2019-03-30T13:04:14Z</time>
      </trkpt>
      <trkpt lat="49.2927" lon="4.1096">
        <ele>163</ele>
        <time>2019-03-30T13:04:15Z</time>
      </trkpt>
      <trkpt lat="49.29273" lon="4.10952">
        <ele>163</ele>
        <time>2019-03-30T13:04:16Z</time>
      </trkpt>
      <trkpt lat="49.29276" lon="4.10944">
        <ele>163</ele>
        <time>2019-03-30T13:04:17Z</time>
      </trkpt>
      <trkpt lat="49.29279" lon="4.10937">
        <ele>163</ele>
        <time>2019-03-30T13:04:18Z</time>
      </trkpt>
      <trkpt lat="49.29281" lon="4.1093">
        <ele>163</ele>
        <time>2019-03-30T13:04:19Z</time>
      </trkpt>
      <trkpt lat="49.29284" lon="4.10922">
        <ele>163</ele>
        <time>2019-03-30T13:04:20Z</time>
      </trkpt>
      <trkpt lat="49.29287" lon="4.10915">
        <ele>162</ele>
        <time>2019-03-30T13:04:21Z</time>
      </trkpt>
      <trkpt lat="49.2929" lon="4.10908">
        <ele>162</ele>
        <time>2019-03-30T13:04:22Z</time>
      </trkpt>
      <trkpt lat="49.29293" lon="4.10901">
        <ele>162</ele>
        <time>2019-03-30T13:04:23Z</time>
      </trkpt>
      <trkpt lat="49.29296" lon="4.10893">
        <ele>161</ele>
        <time>2019-03-30T13:04:24Z</time>
      </trkpt>
      <trkpt lat="49.293" lon="4.10885">
        <ele>161</ele>
        <time>2019-03-30T13:04:25Z</time>
      </trkpt>
      <trkpt lat="49.29304" lon="4.10877">
        <ele>161</ele>
        <time>2019-03-30T13:04:26Z</time>
      </trkpt>
      <trkpt lat="49.29307" lon="4.10869">
        <ele>161</ele>
        <time>2019-03-30T13:04:27Z</time>
      </trkpt>
      <trkpt lat="49.29311" lon="4.10861">
        <ele>160</ele>
        <time>2019-03-30T13:04:28Z</time>
      </trkpt>
      <trkpt lat="49.29314" lon="4.10852">
        <ele>160</ele>
        <time>2019-03-30T13:04:29Z</time>
      </trkpt>
      <trkpt lat="49.29318" lon="4.10843">
        <ele>160</ele>
        <time>2019-03-30T13:04:30Z</time>
      </trkpt>
      <trkpt lat="49.29321" lon="4.10835">
        <ele>160</ele>
        <time>2019-03-30T13:04:31Z</time>
      </trkpt>
      <trkpt lat="49.29325" lon="4.10827">
        <ele>159</ele>
        <time>2019-03-30T13:04:32Z</time>
      </trkpt>
      <trkpt lat="49.29328" lon="4.1082">
        <ele>159</ele>
        <time>2019-03-30T13:04:33Z</time>
      </trkpt>
      <trkpt lat="49.29331" lon="4.10814">
        <ele>159</ele>
        <time>2019-03-30T13:04:34Z</time>
      </trkpt>
      <trkpt lat="49.29333" lon="4.1081">
        <ele>159</ele>
        <time>2019-03-30T13:04:35Z</time>
      </trkpt>
      <trkpt lat="49.29334" lon="4.10806">
        <ele>159</ele>
        <time>2019-03-30T13:04:36Z</time>
      </trkpt>
      <trkpt lat="49.29335" lon="4.10804">
        <ele>158</ele>
        <time>2019-03-30T13:04:37Z</time>
      </trkpt>
      <trkpt lat="49.29336" lon="4.10802">
        <ele>158</ele>
        <time>2019-03-30T13:04:38Z</time>
      </trkpt>
      <trkpt lat="49.29338" lon="4.10799">
        <ele>158</ele>
        <time>2019-03-30T13:04:39Z</time>
      </trkpt>
      <trkpt lat="49.29339" lon="4.10796">
        <ele>158</ele>
        <time>2019-03-30T13:04:40Z</time>
      </trkpt>
      <trkpt lat="49.29341" lon="4.10792">
        <ele>158</ele>
        <time>2019-03-30T13:04:41Z</time>
      </trkpt>
      <trkpt lat="49.29343" lon="4.10787">
        <ele>158</ele>
        <time>2019-03-30T13:04:42Z</time>
      </trkpt>
      <trkpt lat="49.29345" lon="4.10781">
        <ele>157</ele>
        <time>2019-03-30T13:04:43Z</time>
      </trkpt>
      <trkpt lat="49.29348" lon="4.10775">
        <ele>157</ele>
        <time>2019-03-30T13:04:44Z</time>
      </trkpt>
      <trkpt lat="49.29351" lon="4.10769">
        <ele>156</ele>
        <time>2019-03-30T13:04:45Z</time>
      </trkpt>
      <trkpt lat="49.29355" lon="4.10762">
        <ele>156</ele>
        <time>2019-03-30T13:04:46Z</time>
      </trkpt>
      <trkpt lat="49.29358" lon="4.10755">
        <ele>156</ele>
        <time>2019-03-30T13:04:47Z</time>
      </trkpt>
      <trkpt lat="49.29365" lon="4.1074">
        <ele>156</ele>
        <time>2019-03-30T13:04:49Z</time>
      </trkpt>
      <trkpt lat="49.29368" lon="4.10733">
        <ele>156</ele>
        <time>2019-03-30T13:04:50Z</time>
      </trkpt>
      <trkpt lat="49.29371" lon="4.10725">
        <ele>156</ele>
        <time>2019-03-30T13:04:51Z</time>
      </trkpt>
      <trkpt lat="49.29373" lon="4.10718">
        <ele>156</ele>
        <time>2019-03-30T13:04:52Z</time>
      </trkpt>
      <trkpt lat="49.29375" lon="4.1071">
        <ele>157</ele>
        <time>2019-03-30T13:04:53Z</time>
      </trkpt>
      <trkpt lat="49.29377" lon="4.10703">
        <ele>157</ele>
        <time>2019-03-30T13:04:54Z</time>
      </trkpt>
      <trkpt lat="49.29378" lon="4.10695">
        <ele>157</ele>
        <time>2019-03-30T13:04:55Z</time>
      </trkpt>
      <trkpt lat="49.2938" lon="4.10687">
        <ele>157</ele>
        <time>2019-03-30T13:04:56Z</time>
      </trkpt>
      <trkpt lat="49.29382" lon="4.1068">
        <ele>157</ele>
        <time>2019-03-30T13:04:57Z</time>
      </trkpt>
      <trkpt lat="49.29384" lon="4.10673">
        <ele>157</ele>
        <time>2019-03-30T13:04:58Z</time>
      </trkpt>
      <trkpt lat="49.29386" lon="4.10666">
        <ele>157</ele>
        <time>2019-03-30T13:04:59Z</time>
      </trkpt>
      <trkpt lat="49.29388" lon="4.10658">
        <ele>157</ele>
        <time>2019-03-30T13:05:00Z</time>
      </trkpt>
      <trkpt lat="49.2939" lon="4.10651">
        <ele>157</ele>
        <time>2019-03-30T13:05:01Z</time>
      </trkpt>
      <trkpt lat="49.29392" lon="4.10644">
        <ele>157</ele>
        <time>2019-03-30T13:05:02Z</time>
      </trkpt>
      <trkpt lat="49.29394" lon="4.10639">
        <ele>157</ele>
        <time>2019-03-30T13:05:03Z</time>
      </trkpt>
      <trkpt lat="49.29395" lon="4.10633">
        <ele>157</ele>
        <time>2019-03-30T13:05:04Z</time>
      </trkpt>
      <trkpt lat="49.29397" lon="4.10627">
        <ele>157</ele>
        <time>2019-03-30T13:05:05Z</time>
      </trkpt>
      <trkpt lat="49.29398" lon="4.10621">
        <ele>158</ele>
        <time>2019-03-30T13:05:06Z</time>
      </trkpt>
      <trkpt lat="49.29399" lon="4.10614">
        <ele>158</ele>
        <time>2019-03-30T13:05:07Z</time>
      </trkpt>
      <trkpt lat="49.29399" lon="4.10607">
        <ele>158</ele>
        <time>2019-03-30T13:05:08Z</time>
      </trkpt>
      <trkpt lat="49.29399" lon="4.10601">
        <ele>158</ele>
        <time>2019-03-30T13:05:09Z</time>
      </trkpt>
      <trkpt lat="49.29399" lon="4.10594">
        <ele>158</ele>
        <time>2019-03-30T13:05:10Z</time>
      </trkpt>
      <trkpt lat="49.29399" lon="4.10587">
        <ele>158</ele>
        <time>2019-03-30T13:05:11Z</time>
      </trkpt>
      <trkpt lat="49.29399" lon="4.10581">
        <ele>158</ele>
        <time>2019-03-30T13:05:12Z</time>
      </trkpt>
      <trkpt lat="49.29397" lon="4.10573">
        <ele>158</ele>
        <time>2019-03-30T13:05:13Z</time>
      </trkpt>
      <trkpt lat="49.29396" lon="4.10566">
        <ele>158</ele>
        <time>2019-03-30T13:05:14Z</time>
      </trkpt>
      <trkpt lat="49.29395" lon="4.10558">
        <ele>158</ele>
        <time>2019-03-30T13:05:15Z</time>
      </trkpt>
      <trkpt lat="49.29394" lon="4.1055">
        <ele>158</ele>
        <time>2019-03-30T13:05:16Z</time>
      </trkpt>
      <trkpt lat="49.29392" lon="4.10543">
        <ele>157</ele>
        <time>2019-03-30T13:05:17Z</time>
      </trkpt>
      <trkpt lat="49.29391" lon="4.10536">
        <ele>157</ele>
        <time>2019-03-30T13:05:18Z</time>
      </trkpt>
      <trkpt lat="49.2939" lon="4.10529">
        <ele>157</ele>
        <time>2019-03-30T13:05:19Z</time>
      </trkpt>
      <trkpt lat="49.2939" lon="4.10523">
        <ele>157</ele>
        <time>2019-03-30T13:05:20Z</time>
      </trkpt>
      <trkpt lat="49.29389" lon="4.10516">
        <ele>157</ele>
        <time>2019-03-30T13:05:21Z</time>
      </trkpt>
      <trkpt lat="49.29389" lon="4.1051">
        <ele>157</ele>
        <time>2019-03-30T13:05:22Z</time>
      </trkpt>
      <trkpt lat="49.29388" lon="4.10503">
        <ele>157</ele>
        <time>2019-03-30T13:05:23Z</time>
      </trkpt>
      <trkpt lat="49.29387" lon="4.10496">
        <ele>157</ele>
        <time>2019-03-30T13:05:24Z</time>
      </trkpt>
      <trkpt lat="49.29386" lon="4.1049">
        <ele>157</ele>
        <time>2019-03-30T13:05:25Z</time>
      </trkpt>
      <trkpt lat="49.29385" lon="4.10484">
        <ele>157</ele>
        <time>2019-03-30T13:05:26Z</time>
      </trkpt>
      <trkpt lat="49.29385" lon="4.10477">
        <ele>157</ele>
        <time>2019-03-30T13:05:27Z</time>
      </trkpt>
      <trkpt lat="49.29384" lon="4.1047">
        <ele>157</ele>
        <time>2019-03-30T13:05:28Z</time>
      </trkpt>
      <trkpt lat="49.29384" lon="4.10463">
        <ele>157</ele>
        <time>2019-03-30T13:05:29Z</time>
      </trkpt>
      <trkpt lat="49.29383" lon="4.10455">
        <ele>157</ele>
        <time>2019-03-30T13:05:30Z</time>
      </trkpt>
      <trkpt lat="49.29382" lon="4.10447">
        <ele>157</ele>
        <time>2019-03-30T13:05:31Z</time>
      </trkpt>
      <trkpt lat="49.29381" lon="4.10439">
        <ele>157</ele>
        <time>2019-03-30T13:05:32Z</time>
      </trkpt>
      <trkpt lat="49.2938" lon="4.1043">
        <ele>157</ele>
        <time>2019-03-30T13:05:33Z</time>
      </trkpt>
      <trkpt lat="49.29379" lon="4.10422">
        <ele>157</ele>
        <time>2019-03-30T13:05:34Z</time>
      </trkpt>
      <trkpt lat="49.29377" lon="4.10414">
        <ele>157</ele>
        <time>2019-03-30T13:05:35Z</time>
      </trkpt>
      <trkpt lat="49.29376" lon="4.10405">
        <ele>157</ele>
        <time>2019-03-30T13:05:36Z</time>
      </trkpt>
      <trkpt lat="49.29375" lon="4.10397">
        <ele>157</ele>
        <time>2019-03-30T13:05:37Z</time>
      </trkpt>
      <trkpt lat="49.29374" lon="4.10388">
        <ele>157</ele>
        <time>2019-03-30T13:05:38Z</time>
      </trkpt>
      <trkpt lat="49.29373" lon="4.10379">
        <ele>157</ele>
        <time>2019-03-30T13:05:39Z</time>
      </trkpt>
      <trkpt lat="49.29372" lon="4.10371">
        <ele>157</ele>
        <time>2019-03-30T13:05:40Z</time>
      </trkpt>
      <trkpt lat="49.29371" lon="4.10362">
        <ele>157</ele>
        <time>2019-03-30T13:05:41Z</time>
      </trkpt>
      <trkpt lat="49.29369" lon="4.10354">
        <ele>157</ele>
        <time>2019-03-30T13:05:42Z</time>
      </trkpt>
      <trkpt lat="49.29368" lon="4.10345">
        <ele>157</ele>
        <time>2019-03-30T13:05:43Z</time>
      </trkpt>
      <trkpt lat="49.29367" lon="4.10336">
        <ele>156</ele>
        <time>2019-03-30T13:05:44Z</time>
      </trkpt>
      <trkpt lat="49.29366" lon="4.10327">
        <ele>156</ele>
        <time>2019-03-30T13:05:45Z</time>
      </trkpt>
      <trkpt lat="49.29364" lon="4.10318">
        <ele>156</ele>
        <time>2019-03-30T13:05:46Z</time>
      </trkpt>
      <trkpt lat="49.29363" lon="4.10309">
        <ele>156</ele>
        <time>2019-03-30T13:05:47Z</time>
      </trkpt>
      <trkpt lat="49.29362" lon="4.10299">
        <ele>156</ele>
        <time>2019-03-30T13:05:48Z</time>
      </trkpt>
      <trkpt lat="49.29361" lon="4.1029">
        <ele>156</ele>
        <time>2019-03-30T13:05:49Z</time>
      </trkpt>
      <trkpt lat="49.29359" lon="4.10282">
        <ele>156</ele>
        <time>2019-03-30T13:05:50Z</time>
      </trkpt>
      <trkpt lat="49.29359" lon="4.10273">
        <ele>156</ele>
        <time>2019-03-30T13:05:51Z</time>
      </trkpt>
      <trkpt lat="49.29358" lon="4.10264">
        <ele>156</ele>
        <time>2019-03-30T13:05:52Z</time>
      </trkpt>
      <trkpt lat="49.29357" lon="4.10255">
        <ele>156</ele>
        <time>2019-03-30T13:05:53Z</time>
      </trkpt>
      <trkpt lat="49.29357" lon="4.10247">
        <ele>155</ele>
        <time>2019-03-30T13:05:54Z</time>
      </trkpt>
      <trkpt lat="49.29356" lon="4.10238">
        <ele>155</ele>
        <time>2019-03-30T13:05:55Z</time>
      </trkpt>
      <trkpt lat="49.29355" lon="4.1023">
        <ele>155</ele>
        <time>2019-03-30T13:05:56Z</time>
      </trkpt>
      <trkpt lat="49.29355" lon="4.10221">
        <ele>155</ele>
        <time>2019-03-30T13:05:57Z</time>
      </trkpt>
      <trkpt lat="49.29355" lon="4.10212">
        <ele>155</ele>
        <time>2019-03-30T13:05:58Z</time>
      </trkpt>
      <trkpt lat="49.29354" lon="4.10203">
        <ele>155</ele>
        <time>2019-03-30T13:05:59Z</time>
      </trkpt>
      <trkpt lat="49.29354" lon="4.10194">
        <ele>155</ele>
        <time>2019-03-30T13:06:00Z</time>
      </trkpt>
      <trkpt lat="49.29354" lon="4.10185">
        <ele>155</ele>
        <time>2019-03-30T13:06:01Z</time>
      </trkpt>
      <trkpt lat="49.29355" lon="4.10176">
        <ele>155</ele>
        <time>2019-03-30T13:06:02Z</time>
      </trkpt>
      <trkpt lat="49.29355" lon="4.10167">
        <ele>155</ele>
        <time>2019-03-30T13:06:03Z</time>
      </trkpt>
      <trkpt lat="49.29356" lon="4.10158">
        <ele>156</ele>
        <time>2019-03-30T13:06:04Z</time>
      </trkpt>
      <trkpt lat="49.29357" lon="4.10149">
        <ele>156</ele>
        <time>2019-03-30T13:06:05Z</time>
      </trkpt>
      <trkpt lat="49.29358" lon="4.10141">
        <ele>156</ele>
        <time>2019-03-30T13:06:06Z</time>
      </trkpt>
      <trkpt lat="49.29359" lon="4.10132">
        <ele>156</ele>
        <time>2019-03-30T13:06:07Z</time>
      </trkpt>
      <trkpt lat="49.2936" lon="4.10124">
        <ele>156</ele>
        <time>2019-03-30T13:06:08Z</time>
      </trkpt>
      <trkpt lat="49.29361" lon="4.10115">
        <ele>156</ele>
        <time>2019-03-30T13:06:09Z</time>
      </trkpt>
      <trkpt lat="49.29362" lon="4.10107">
        <ele>156</ele>
        <time>2019-03-30T13:06:10Z</time>
      </trkpt>
      <trkpt lat="49.29364" lon="4.10098">
        <ele>156</ele>
        <time>2019-03-30T13:06:11Z</time>
      </trkpt>
      <trkpt lat="49.29365" lon="4.1009">
        <ele>156</ele>
        <time>2019-03-30T13:06:12Z</time>
      </trkpt>
      <trkpt lat="49.29366" lon="4.10081">
        <ele>156</ele>
        <time>2019-03-30T13:06:13Z</time>
      </trkpt>
      <trkpt lat="49.29367" lon="4.10073">
        <ele>157</ele>
        <time>2019-03-30T13:06:14Z</time>
      </trkpt>
      <trkpt lat="49.29368" lon="4.10065">
        <ele>157</ele>
        <time>2019-03-30T13:06:15Z</time>
      </trkpt>
      <trkpt lat="49.29369" lon="4.10056">
        <ele>156</ele>
        <time>2019-03-30T13:06:16Z</time>
      </trkpt>
      <trkpt lat="49.2937" lon="4.10046">
        <ele>156</ele>
        <time>2019-03-30T13:06:17Z</time>
      </trkpt>
      <trkpt lat="49.29371" lon="4.10037">
        <ele>156</ele>
        <time>2019-03-30T13:06:18Z</time>
      </trkpt>
      <trkpt lat="49.29372" lon="4.10027">
        <ele>156</ele>
        <time>2019-03-30T13:06:19Z</time>
      </trkpt>
      <trkpt lat="49.29372" lon="4.10018">
        <ele>156</ele>
        <time>2019-03-30T13:06:20Z</time>
      </trkpt>
      <trkpt lat="49.29372" lon="4.10009">
        <ele>155</ele>
        <time>2019-03-30T13:06:21Z</time>
      </trkpt>
      <trkpt lat="49.29372" lon="4.09999">
        <ele>155</ele>
        <time>2019-03-30T13:06:22Z</time>
      </trkpt>
      <trkpt lat="49.29372" lon="4.09989">
        <ele>155</ele>
        <time>2019-03-30T13:06:23Z</time>
      </trkpt>
      <trkpt lat="49.29371" lon="4.0998">
        <ele>155</ele>
        <time>2019-03-30T13:06:24Z</time>
      </trkpt>
      <trkpt lat="49.29371" lon="4.0997">
        <ele>155</ele>
        <time>2019-03-30T13:06:25Z</time>
      </trkpt>
      <trkpt lat="49.2937" lon="4.0996">
        <ele>155</ele>
        <time>2019-03-30T13:06:26Z</time>
      </trkpt>
      <trkpt lat="49.2937" lon="4.09951">
        <ele>155</ele>
        <time>2019-03-30T13:06:27Z</time>
      </trkpt>
      <trkpt lat="49.29369" lon="4.09941">
        <ele>155</ele>
        <time>2019-03-30T13:06:28Z</time>
      </trkpt>
      <trkpt lat="49.29367" lon="4.09932">
        <ele>155</ele>
        <time>2019-03-30T13:06:29Z</time>
      </trkpt>
      <trkpt lat="49.29366" lon="4.09922">
        <ele>154</ele>
        <time>2019-03-30T13:06:30Z</time>
      </trkpt>
      <trkpt lat="49.29366" lon="4.09912">
        <ele>154</ele>
        <time>2019-03-30T13:06:31Z</time>
      </trkpt>
      <trkpt lat="49.29364" lon="4.09902">
        <ele>154</ele>
        <time>2019-03-30T13:06:32Z</time>
      </trkpt>
      <trkpt lat="49.29363" lon="4.09893">
        <ele>154</ele>
        <time>2019-03-30T13:06:33Z</time>
      </trkpt>
      <trkpt lat="49.29361" lon="4.09883">
        <ele>154</ele>
        <time>2019-03-30T13:06:34Z</time>
      </trkpt>
      <trkpt lat="49.2936" lon="4.09872">
        <ele>154</ele>
        <time>2019-03-30T13:06:35Z</time>
      </trkpt>
      <trkpt lat="49.29359" lon="4.09862">
        <ele>154</ele>
        <time>2019-03-30T13:06:36Z</time>
      </trkpt>
      <trkpt lat="49.29358" lon="4.09852">
        <ele>154</ele>
        <time>2019-03-30T13:06:37Z</time>
      </trkpt>
      <trkpt lat="49.29357" lon="4.09842">
        <ele>154</ele>
        <time>2019-03-30T13:06:38Z</time>
      </trkpt>
      <trkpt lat="49.29355" lon="4.09832">
        <ele>154</ele>
        <time>2019-03-30T13:06:39Z</time>
      </trkpt>
      <trkpt lat="49.29354" lon="4.09822">
        <ele>154</ele>
        <time>2019-03-30T13:06:40Z</time>
      </trkpt>
      <trkpt lat="49.29353" lon="4.09813">
        <ele>154</ele>
        <time>2019-03-30T13:06:41Z</time>
      </trkpt>
      <trkpt lat="49.29352" lon="4.09803">
        <ele>154</ele>
        <time>2019-03-30T13:06:42Z</time>
      </trkpt>
      <trkpt lat="49.29351" lon="4.09793">
        <ele>154</ele>
        <time>2019-03-30T13:06:43Z</time>
      </trkpt>
      <trkpt lat="49.2935" lon="4.09783">
        <ele>154</ele>
        <time>2019-03-30T13:06:44Z</time>
      </trkpt>
      <trkpt lat="49.2935" lon="4.09774">
        <ele>154</ele>
        <time>2019-03-30T13:06:45Z</time>
      </trkpt>
      <trkpt lat="49.29349" lon="4.09764">
        <ele>154</ele>
        <time>2019-03-30T13:06:46Z</time>
      </trkpt>
      <trkpt lat="49.29348" lon="4.09754">
        <ele>154</ele>
        <time>2019-03-30T13:06:47Z</time>
      </trkpt>
      <trkpt lat="49.29348" lon="4.09745">
        <ele>154</ele>
        <time>2019-03-30T13:06:48Z</time>
      </trkpt>
      <trkpt lat="49.29348" lon="4.09735">
        <ele>154</ele>
        <time>2019-03-30T13:06:49Z</time>
      </trkpt>
      <trkpt lat="49.29348" lon="4.09725">
        <ele>154</ele>
        <time>2019-03-30T13:06:50Z</time>
      </trkpt>
      <trkpt lat="49.29348" lon="4.09716">
        <ele>154</ele>
        <time>2019-03-30T13:06:51Z</time>
      </trkpt>
      <trkpt lat="49.29348" lon="4.09706">
        <ele>154</ele>
        <time>2019-03-30T13:06:52Z</time>
      </trkpt>
      <trkpt lat="49.29348" lon="4.09696">
        <ele>154</ele>
        <time>2019-03-30T13:06:53Z</time>
      </trkpt>
      <trkpt lat="49.29348" lon="4.09685">
        <ele>155</ele>
        <time>2019-03-30T13:06:54Z</time>
      </trkpt>
      <trkpt lat="49.29347" lon="4.09675">
        <ele>155</ele>
        <time>2019-03-30T13:06:55Z</time>
      </trkpt>
      <trkpt lat="49.29347" lon="4.09665">
        <ele>155</ele>
        <time>2019-03-30T13:06:56Z</time>
      </trkpt>
      <trkpt lat="49.29346" lon="4.09655">
        <ele>155</ele>
        <time>2019-03-30T13:06:57Z</time>
      </trkpt>
      <trkpt lat="49.29344" lon="4.09644">
        <ele>155</ele>
        <time>2019-03-30T13:06:58Z</time>
      </trkpt>
      <trkpt lat="49.29343" lon="4.09635">
        <ele>155</ele>
        <time>2019-03-30T13:06:59Z</time>
      </trkpt>
      <trkpt lat="49.29341" lon="4.09625">
        <ele>155</ele>
        <time>2019-03-30T13:07:00Z</time>
      </trkpt>
      <trkpt lat="49.29339" lon="4.09615">
        <ele>154</ele>
        <time>2019-03-30T13:07:01Z</time>
      </trkpt>
      <trkpt lat="49.29336" lon="4.09605">
        <ele>154</ele>
        <time>2019-03-30T13:07:02Z</time>
      </trkpt>
      <trkpt lat="49.29334" lon="4.09596">
        <ele>154</ele>
        <time>2019-03-30T13:07:03Z</time>
      </trkpt>
      <trkpt lat="49.29332" lon="4.09586">
        <ele>154</ele>
        <time>2019-03-30T13:07:04Z</time>
      </trkpt>
      <trkpt lat="49.29329" lon="4.09577">
        <ele>154</ele>
        <time>2019-03-30T13:07:05Z</time>
      </trkpt>
      <trkpt lat="49.29326" lon="4.09567">
        <ele>154</ele>
        <time>2019-03-30T13:07:06Z</time>
      </trkpt>
      <trkpt lat="49.29323" lon="4.09558">
        <ele>154</ele>
        <time>2019-03-30T13:07:07Z</time>
      </trkpt>
      <trkpt lat="49.2932" lon="4.09549">
        <ele>154</ele>
        <time>2019-03-30T13:07:08Z</time>
      </trkpt>
      <trkpt lat="49.29318" lon="4.0954">
        <ele>154</ele>
        <time>2019-03-30T13:07:09Z</time>
      </trkpt>
      <trkpt lat="49.29315" lon="4.09531">
        <ele>154</ele>
        <time>2019-03-30T13:07:10Z</time>
      </trkpt>
      <trkpt lat="49.29313" lon="4.09521">
        <ele>154</ele>
        <time>2019-03-30T13:07:11Z</time>
      </trkpt>
      <trkpt lat="49.2931" lon="4.09512">
        <ele>154</ele>
        <time>2019-03-30T13:07:12Z</time>
      </trkpt>
      <trkpt lat="49.29308" lon="4.09502">
        <ele>154</ele>
        <time>2019-03-30T13:07:13Z</time>
      </trkpt>
      <trkpt lat="49.29305" lon="4.09493">
        <ele>154</ele>
        <time>2019-03-30T13:07:14Z</time>
      </trkpt>
      <trkpt lat="49.29302" lon="4.09483">
        <ele>154</ele>
        <time>2019-03-30T13:07:15Z</time>
      </trkpt>
      <trkpt lat="49.293" lon="4.09473">
        <ele>154</ele>
        <time>2019-03-30T13:07:16Z</time>
      </trkpt>
      <trkpt lat="49.29297" lon="4.09463">
        <ele>155</ele>
        <time>2019-03-30T13:07:17Z</time>
      </trkpt>
      <trkpt lat="49.29294" lon="4.09454">
        <ele>155</ele>
        <time>2019-03-30T13:07:18Z</time>
      </trkpt>
      <trkpt lat="49.29292" lon="4.09444">
        <ele>155</ele>
        <time>2019-03-30T13:07:19Z</time>
      </trkpt>
      <trkpt lat="49.29289" lon="4.09435">
        <ele>155</ele>
        <time>2019-03-30T13:07:20Z</time>
      </trkpt>
      <trkpt lat="49.29287" lon="4.09425">
        <ele>156</ele>
        <time>2019-03-30T13:07:21Z</time>
      </trkpt>
      <trkpt lat="49.29285" lon="4.09416">
        <ele>156</ele>
        <time>2019-03-30T13:07:22Z</time>
      </trkpt>
      <trkpt lat="49.29282" lon="4.09407">
        <ele>156</ele>
        <time>2019-03-30T13:07:23Z</time>
      </trkpt>
      <trkpt lat="49.2928" lon="4.09397">
        <ele>156</ele>
        <time>2019-03-30T13:07:24Z</time>
      </trkpt>
      <trkpt lat="49.29278" lon="4.09388">
        <ele>156</ele>
        <time>2019-03-30T13:07:25Z</time>
      </trkpt>
      <trkpt lat="49.29276" lon="4.09379">
        <ele>156</ele>
        <time>2019-03-30T13:07:26Z</time>
      </trkpt>
      <trkpt lat="49.29275" lon="4.09371">
        <ele>156</ele>
        <time>2019-03-30T13:07:27Z</time>
      </trkpt>
      <trkpt lat="49.29273" lon="4.09362">
        <ele>156</ele>
        <time>2019-03-30T13:07:28Z</time>
      </trkpt>
      <trkpt lat="49.29272" lon="4.09354">
        <ele>156</ele>
        <time>2019-03-30T13:07:29Z</time>
      </trkpt>
      <trkpt lat="49.2927" lon="4.09346">
        <ele>156</ele>
        <time>2019-03-30T13:07:30Z</time>
      </trkpt>
      <trkpt lat="49.29268" lon="4.09337">
        <ele>157</ele>
        <time>2019-03-30T13:07:31Z</time>
      </trkpt>
      <trkpt lat="49.29266" lon="4.09328">
        <ele>157</ele>
        <time>2019-03-30T13:07:32Z</time>
      </trkpt>
      <trkpt lat="49.29264" lon="4.09319">
        <ele>157</ele>
        <time>2019-03-30T13:07:33Z</time>
      </trkpt>
      <trkpt lat="49.29262" lon="4.09311">
        <ele>157</ele>
        <time>2019-03-30T13:07:34Z</time>
      </trkpt>
      <trkpt lat="49.29261" lon="4.09301">
        <ele>157</ele>
        <time>2019-03-30T13:07:35Z</time>
      </trkpt>
      <trkpt lat="49.29259" lon="4.09292">
        <ele>157</ele>
        <time>2019-03-30T13:07:36Z</time>
      </trkpt>
      <trkpt lat="49.29257" lon="4.09284">
        <ele>157</ele>
        <time>2019-03-30T13:07:37Z</time>
      </trkpt>
      <trkpt lat="49.29255" lon="4.09274">
        <ele>157</ele>
        <time>2019-03-30T13:07:38Z</time>
      </trkpt>
      <trkpt lat="49.29253" lon="4.09265">
        <ele>157</ele>
        <time>2019-03-30T13:07:39Z</time>
      </trkpt>
      <trkpt lat="49.29252" lon="4.09256">
        <ele>157</ele>
        <time>2019-03-30T13:07:40Z</time>
      </trkpt>
      <trkpt lat="49.2925" lon="4.09246">
        <ele>156</ele>
        <time>2019-03-30T13:07:41Z</time>
      </trkpt>
      <trkpt lat="49.29249" lon="4.09236">
        <ele>156</ele>
        <time>2019-03-30T13:07:42Z</time>
      </trkpt>
      <trkpt lat="49.29248" lon="4.09226">
        <ele>156</ele>
        <time>2019-03-30T13:07:43Z</time>
      </trkpt>
      <trkpt lat="49.29247" lon="4.09217">
        <ele>156</ele>
        <time>2019-03-30T13:07:44Z</time>
      </trkpt>
      <trkpt lat="49.29247" lon="4.09207">
        <ele>156</ele>
        <time>2019-03-30T13:07:45Z</time>
      </trkpt>
      <trkpt lat="49.29247" lon="4.09197">
        <ele>156</ele>
        <time>2019-03-30T13:07:46Z</time>
      </trkpt>
      <trkpt lat="49.29247" lon="4.09186">
        <ele>156</ele>
        <time>2019-03-30T13:07:47Z</time>
      </trkpt>
      <trkpt lat="49.29248" lon="4.09175">
        <ele>156</ele>
        <time>2019-03-30T13:07:48Z</time>
      </trkpt>
      <trkpt lat="49.29249" lon="4.09164">
        <ele>156</ele>
        <time>2019-03-30T13:07:49Z</time>
      </trkpt>
      <trkpt lat="49.2925" lon="4.09154">
        <ele>156</ele>
        <time>2019-03-30T13:07:50Z</time>
      </trkpt>
      <trkpt lat="49.29251" lon="4.09143">
        <ele>156</ele>
        <time>2019-03-30T13:07:51Z</time>
      </trkpt>
      <trkpt lat="49.29252" lon="4.09132">
        <ele>156</ele>
        <time>2019-03-30T13:07:52Z</time>
      </trkpt>
      <trkpt lat="49.29253" lon="4.09121">
        <ele>156</ele>
        <time>2019-03-30T13:07:53Z</time>
      </trkpt>
      <trkpt lat="49.29253" lon="4.09109">
        <ele>156</ele>
        <time>2019-03-30T13:07:54Z</time>
      </trkpt>
      <trkpt lat="49.29254" lon="4.09098">
        <ele>156</ele>
        <time>2019-03-30T13:07:55Z</time>
      </trkpt>
      <trkpt lat="49.29255" lon="4.09088">
        <ele>155</ele>
        <time>2019-03-30T13:07:56Z</time>
      </trkpt>
      <trkpt lat="49.29255" lon="4.09077">
        <ele>155</ele>
        <time>2019-03-30T13:07:57Z</time>
      </trkpt>
      <trkpt lat="49.29256" lon="4.09066">
        <ele>155</ele>
        <time>2019-03-30T13:07:58Z</time>
      </trkpt>
      <trkpt lat="49.29258" lon="4.09055">
        <ele>155</ele>
        <time>2019-03-30T13:07:59Z</time>
      </trkpt>
      <trkpt lat="49.29259" lon="4.09044">
        <ele>155</ele>
        <time>2019-03-30T13:08:00Z</time>
      </trkpt>
      <trkpt lat="49.29259" lon="4.09032">
        <ele>155</ele>
        <time>2019-03-30T13:08:01Z</time>
      </trkpt>
      <trkpt lat="49.2926" lon="4.0902">
        <ele>155</ele>
        <time>2019-03-30T13:08:02Z</time>
      </trkpt>
      <trkpt lat="49.29261" lon="4.09008">
        <ele>155</ele>
        <time>2019-03-30T13:08:03Z</time>
      </trkpt>
      <trkpt lat="49.29262" lon="4.08996">
        <ele>155</ele>
        <time>2019-03-30T13:08:04Z</time>
      </trkpt>
      <trkpt lat="49.29263" lon="4.08985">
        <ele>154</ele>
        <time>2019-03-30T13:08:05Z</time>
      </trkpt>
      <trkpt lat="49.29263" lon="4.08973">
        <ele>154</ele>
        <time>2019-03-30T13:08:06Z</time>
      </trkpt>
      <trkpt lat="49.29264" lon="4.08961">
        <ele>154</ele>
        <time>2019-03-30T13:08:07Z</time>
      </trkpt>
      <trkpt lat="49.29264" lon="4.0895">
        <ele>154</ele>
        <time>2019-03-30T13:08:08Z</time>
      </trkpt>
      <trkpt lat="49.29265" lon="4.08939">
        <ele>154</ele>
        <time>2019-03-30T13:08:09Z</time>
      </trkpt>
      <trkpt lat="49.29266" lon="4.08928">
        <ele>154</ele>
        <time>2019-03-30T13:08:10Z</time>
      </trkpt>
      <trkpt lat="49.29267" lon="4.08917">
        <ele>154</ele>
        <time>2019-03-30T13:08:11Z</time>
      </trkpt>
      <trkpt lat="49.29268" lon="4.08906">
        <ele>154</ele>
        <time>2019-03-30T13:08:12Z</time>
      </trkpt>
      <trkpt lat="49.29269" lon="4.08895">
        <ele>154</ele>
        <time>2019-03-30T13:08:13Z</time>
      </trkpt>
      <trkpt lat="49.29269" lon="4.08884">
        <ele>154</ele>
        <time>2019-03-30T13:08:14Z</time>
      </trkpt>
      <trkpt lat="49.2927" lon="4.08873">
        <ele>154</ele>
        <time>2019-03-30T13:08:15Z</time>
      </trkpt>
      <trkpt lat="49.29271" lon="4.08863">
        <ele>154</ele>
        <time>2019-03-30T13:08:16Z</time>
      </trkpt>
      <trkpt lat="49.29271" lon="4.08852">
        <ele>154</ele>
        <time>2019-03-30T13:08:17Z</time>
      </trkpt>
      <trkpt lat="49.29272" lon="4.08842">
        <ele>154</ele>
        <time>2019-03-30T13:08:18Z</time>
      </trkpt>
      <trkpt lat="49.29272" lon="4.08831">
        <ele>154</ele>
        <time>2019-03-30T13:08:19Z</time>
      </trkpt>
      <trkpt lat="49.29273" lon="4.0882">
        <ele>154</ele>
        <time>2019-03-30T13:08:20Z</time>
      </trkpt>
      <trkpt lat="49.29274" lon="4.08809">
        <ele>154</ele>
        <time>2019-03-30T13:08:21Z</time>
      </trkpt>
      <trkpt lat="49.29275" lon="4.08798">
        <ele>153</ele>
        <time>2019-03-30T13:08:22Z</time>
      </trkpt>
      <trkpt lat="49.29276" lon="4.08787">
        <ele>153</ele>
        <time>2019-03-30T13:08:23Z</time>
      </trkpt>
      <trkpt lat="49.29277" lon="4.08775">
        <ele>153</ele>
        <time>2019-03-30T13:08:24Z</time>
      </trkpt>
      <trkpt lat="49.29277" lon="4.08764">
        <ele>153</ele>
        <time>2019-03-30T13:08:25Z</time>
      </trkpt>
      <trkpt lat="49.29278" lon="4.08753">
        <ele>153</ele>
        <time>2019-03-30T13:08:26Z</time>
      </trkpt>
      <trkpt lat="49.29279" lon="4.08742">
        <ele>153</ele>
        <time>2019-03-30T13:08:27Z</time>
      </trkpt>
      <trkpt lat="49.29279" lon="4.08731">
        <ele>152</ele>
        <time>2019-03-30T13:08:28Z</time>
      </trkpt>
      <trkpt lat="49.2928" lon="4.0872">
        <ele>152</ele>
        <time>2019-03-30T13:08:29Z</time>
      </trkpt>
      <trkpt lat="49.2928" lon="4.0871">
        <ele>153</ele>
        <time>2019-03-30T13:08:30Z</time>
      </trkpt>
      <trkpt lat="49.29281" lon="4.08699">
        <ele>152</ele>
        <time>2019-03-30T13:08:31Z</time>
      </trkpt>
      <trkpt lat="49.29282" lon="4.08688">
        <ele>152</ele>
        <time>2019-03-30T13:08:32Z</time>
      </trkpt>
      <trkpt lat="49.29283" lon="4.08678">
        <ele>152</ele>
        <time>2019-03-30T13:08:33Z</time>
      </trkpt>
      <trkpt lat="49.29284" lon="4.08668">
        <ele>152</ele>
        <time>2019-03-30T13:08:34Z</time>
      </trkpt>
      <trkpt lat="49.29285" lon="4.08658">
        <ele>152</ele>
        <time>2019-03-30T13:08:35Z</time>
      </trkpt>
      <trkpt lat="49.29285" lon="4.08649">
        <ele>152</ele>
        <time>2019-03-30T13:08:36Z</time>
      </trkpt>
      <trkpt lat="49.29286" lon="4.08639">
        <ele>152</ele>
        <time>2019-03-30T13:08:37Z</time>
      </trkpt>
      <trkpt lat="49.29286" lon="4.0863">
        <ele>152</ele>
        <time>2019-03-30T13:08:38Z</time>
      </trkpt>
      <trkpt lat="49.29287" lon="4.0862">
        <ele>152</ele>
        <time>2019-03-30T13:08:39Z</time>
      </trkpt>
      <trkpt lat="49.29288" lon="4.0861">
        <ele>152</ele>
        <time>2019-03-30T13:08:40Z</time>
      </trkpt>
      <trkpt lat="49.29289" lon="4.08599">
        <ele>152</ele>
        <time>2019-03-30T13:08:41Z</time>
      </trkpt>
      <trkpt lat="49.2929" lon="4.08589">
        <ele>152</ele>
        <time>2019-03-30T13:08:42Z</time>
      </trkpt>
      <trkpt lat="49.29291" lon="4.08579">
        <ele>152</ele>
        <time>2019-03-30T13:08:43Z</time>
      </trkpt>
      <trkpt lat="49.29292" lon="4.08568">
        <ele>152</ele>
        <time>2019-03-30T13:08:44Z</time>
      </trkpt>
      <trkpt lat="49.29292" lon="4.08558">
        <ele>152</ele>
        <time>2019-03-30T13:08:45Z</time>
      </trkpt>
      <trkpt lat="49.29293" lon="4.08547">
        <ele>152</ele>
        <time>2019-03-30T13:08:46Z</time>
      </trkpt>
      <trkpt lat="49.29293" lon="4.08537">
        <ele>152</ele>
        <time>2019-03-30T13:08:47Z</time>
      </trkpt>
      <trkpt lat="49.29293" lon="4.08526">
        <ele>151</ele>
        <time>2019-03-30T13:08:48Z</time>
      </trkpt>
      <trkpt lat="49.29293" lon="4.08516">
        <ele>151</ele>
        <time>2019-03-30T13:08:49Z</time>
      </trkpt>
      <trkpt lat="49.29292" lon="4.08506">
        <ele>151</ele>
        <time>2019-03-30T13:08:50Z</time>
      </trkpt>
      <trkpt lat="49.29291" lon="4.08496">
        <ele>151</ele>
        <time>2019-03-30T13:08:51Z</time>
      </trkpt>
      <trkpt lat="49.2929" lon="4.08485">
        <ele>151</ele>
        <time>2019-03-30T13:08:52Z</time>
      </trkpt>
      <trkpt lat="49.29289" lon="4.08475">
        <ele>151</ele>
        <time>2019-03-30T13:08:53Z</time>
      </trkpt>
      <trkpt lat="49.29287" lon="4.08465">
        <ele>151</ele>
        <time>2019-03-30T13:08:54Z</time>
      </trkpt>
      <trkpt lat="49.29285" lon="4.08455">
        <ele>150</ele>
        <time>2019-03-30T13:08:55Z</time>
      </trkpt>
      <trkpt lat="49.29283" lon="4.08445">
        <ele>150</ele>
        <time>2019-03-30T13:08:56Z</time>
      </trkpt>
      <trkpt lat="49.29281" lon="4.08435">
        <ele>151</ele>
        <time>2019-03-30T13:08:57Z</time>
      </trkpt>
      <trkpt lat="49.29279" lon="4.08424">
        <ele>150</ele>
        <time>2019-03-30T13:08:58Z</time>
      </trkpt>
      <trkpt lat="49.29277" lon="4.08414">
        <ele>151</ele>
        <time>2019-03-30T13:08:59Z</time>
      </trkpt>
      <trkpt lat="49.29276" lon="4.08404">
        <ele>151</ele>
        <time>2019-03-30T13:09:00Z</time>
      </trkpt>
      <trkpt lat="49.29273" lon="4.08394">
        <ele>151</ele>
        <time>2019-03-30T13:09:01Z</time>
      </trkpt>
      <trkpt lat="49.29271" lon="4.08384">
        <ele>151</ele>
        <time>2019-03-30T13:09:02Z</time>
      </trkpt>
      <trkpt lat="49.2927" lon="4.08374">
        <ele>151</ele>
        <time>2019-03-30T13:09:03Z</time>
      </trkpt>
      <trkpt lat="49.29268" lon="4.08364">
        <ele>151</ele>
        <time>2019-03-30T13:09:04Z</time>
      </trkpt>
      <trkpt lat="49.29267" lon="4.08354">
        <ele>151</ele>
        <time>2019-03-30T13:09:05Z</time>
      </trkpt>
      <trkpt lat="49.29265" lon="4.08345">
        <ele>152</ele>
        <time>2019-03-30T13:09:06Z</time>
      </trkpt>
      <trkpt lat="49.29263" lon="4.08336">
        <ele>151</ele>
        <time>2019-03-30T13:09:07Z</time>
      </trkpt>
      <trkpt lat="49.29261" lon="4.08327">
        <ele>152</ele>
        <time>2019-03-30T13:09:08Z</time>
      </trkpt>
      <trkpt lat="49.2926" lon="4.08318">
        <ele>151</ele>
        <time>2019-03-30T13:09:09Z</time>
      </trkpt>
      <trkpt lat="49.29258" lon="4.08309">
        <ele>151</ele>
        <time>2019-03-30T13:09:10Z</time>
      </trkpt>
      <trkpt lat="49.29257" lon="4.083">
        <ele>151</ele>
        <time>2019-03-30T13:09:11Z</time>
      </trkpt>
      <trkpt lat="49.29255" lon="4.0829">
        <ele>151</ele>
        <time>2019-03-30T13:09:12Z</time>
      </trkpt>
      <trkpt lat="49.29253" lon="4.08281">
        <ele>151</ele>
        <time>2019-03-30T13:09:13Z</time>
      </trkpt>
      <trkpt lat="49.29251" lon="4.08272">
        <ele>151</ele>
        <time>2019-03-30T13:09:14Z</time>
      </trkpt>
      <trkpt lat="49.29249" lon="4.08263">
        <ele>152</ele>
        <time>2019-03-30T13:09:15Z</time>
      </trkpt>
      <trkpt lat="49.29248" lon="4.08254">
        <ele>152</ele>
        <time>2019-03-30T13:09:16Z</time>
      </trkpt>
      <trkpt lat="49.29246" lon="4.08245">
        <ele>152</ele>
        <time>2019-03-30T13:09:17Z</time>
      </trkpt>
      <trkpt lat="49.29245" lon="4.08237">
        <ele>152</ele>
        <time>2019-03-30T13:09:18Z</time>
      </trkpt>
      <trkpt lat="49.29243" lon="4.08228">
        <ele>151</ele>
        <time>2019-03-30T13:09:19Z</time>
      </trkpt>
      <trkpt lat="49.29242" lon="4.08219">
        <ele>151</ele>
        <time>2019-03-30T13:09:20Z</time>
      </trkpt>
      <trkpt lat="49.2924" lon="4.08211">
        <ele>151</ele>
        <time>2019-03-30T13:09:21Z</time>
      </trkpt>
      <trkpt lat="49.29238" lon="4.08202">
        <ele>151</ele>
        <time>2019-03-30T13:09:22Z</time>
      </trkpt>
      <trkpt lat="49.29236" lon="4.08193">
        <ele>151</ele>
        <time>2019-03-30T13:09:23Z</time>
      </trkpt>
      <trkpt lat="49.29235" lon="4.08184">
        <ele>151</ele>
        <time>2019-03-30T13:09:24Z</time>
      </trkpt>
      <trkpt lat="49.29233" lon="4.08175">
        <ele>151</ele>
        <time>2019-03-30T13:09:25Z</time>
      </trkpt>
      <trkpt lat="49.29231" lon="4.08166">
        <ele>150</ele>
        <time>2019-03-30T13:09:26Z</time>
      </trkpt>
      <trkpt lat="49.29228" lon="4.08157">
        <ele>150</ele>
        <time>2019-03-30T13:09:27Z</time>
      </trkpt>
      <trkpt lat="49.29227" lon="4.08147">
        <ele>150</ele>
        <time>2019-03-30T13:09:28Z</time>
      </trkpt>
      <trkpt lat="49.29225" lon="4.08138">
        <ele>150</ele>
        <time>2019-03-30T13:09:29Z</time>
      </trkpt>
      <trkpt lat="49.29223" lon="4.08129">
        <ele>150</ele>
        <time>2019-03-30T13:09:30Z</time>
      </trkpt>
      <trkpt lat="49.29221" lon="4.08119">
        <ele>150</ele>
        <time>2019-03-30T13:09:31Z</time>
      </trkpt>
      <trkpt lat="49.29219" lon="4.0811">
        <ele>150</ele>
        <time>2019-03-30T13:09:32Z</time>
      </trkpt>
      <trkpt lat="49.29218" lon="4.081">
        <ele>150</ele>
        <time>2019-03-30T13:09:33Z</time>
      </trkpt>
      <trkpt lat="49.29216" lon="4.08091">
        <ele>150</ele>
        <time>2019-03-30T13:09:34Z</time>
      </trkpt>
      <trkpt lat="49.29214" lon="4.08082">
        <ele>150</ele>
        <time>2019-03-30T13:09:35Z</time>
      </trkpt>
      <trkpt lat="49.29212" lon="4.08072">
        <ele>150</ele>
        <time>2019-03-30T13:09:36Z</time>
      </trkpt>
      <trkpt lat="49.2921" lon="4.08062">
        <ele>150</ele>
        <time>2019-03-30T13:09:37Z</time>
      </trkpt>
      <trkpt lat="49.29208" lon="4.08052">
        <ele>150</ele>
        <time>2019-03-30T13:09:38Z</time>
      </trkpt>
      <trkpt lat="49.29207" lon="4.08043">
        <ele>150</ele>
        <time>2019-03-30T13:09:39Z</time>
      </trkpt>
      <trkpt lat="49.29205" lon="4.08034">
        <ele>149</ele>
        <time>2019-03-30T13:09:40Z</time>
      </trkpt>
      <trkpt lat="49.29202" lon="4.08024">
        <ele>149</ele>
        <time>2019-03-30T13:09:41Z</time>
      </trkpt>
      <trkpt lat="49.29201" lon="4.08014">
        <ele>149</ele>
        <time>2019-03-30T13:09:42Z</time>
      </trkpt>
      <trkpt lat="49.29199" lon="4.08004">
        <ele>149</ele>
        <time>2019-03-30T13:09:43Z</time>
      </trkpt>
      <trkpt lat="49.29197" lon="4.07995">
        <ele>149</ele>
        <time>2019-03-30T13:09:44Z</time>
      </trkpt>
      <trkpt lat="49.29196" lon="4.07984">
        <ele>149</ele>
        <time>2019-03-30T13:09:45Z</time>
      </trkpt>
      <trkpt lat="49.29194" lon="4.07975">
        <ele>149</ele>
        <time>2019-03-30T13:09:46Z</time>
      </trkpt>
      <trkpt lat="49.29193" lon="4.07965">
        <ele>149</ele>
        <time>2019-03-30T13:09:47Z</time>
      </trkpt>
      <trkpt lat="49.29191" lon="4.07955">
        <ele>149</ele>
        <time>2019-03-30T13:09:48Z</time>
      </trkpt>
      <trkpt lat="49.2919" lon="4.07945">
        <ele>149</ele>
        <time>2019-03-30T13:09:49Z</time>
      </trkpt>
      <trkpt lat="49.29188" lon="4.07936">
        <ele>149</ele>
        <time>2019-03-30T13:09:50Z</time>
      </trkpt>
      <trkpt lat="49.29187" lon="4.07926">
        <ele>149</ele>
        <time>2019-03-30T13:09:51Z</time>
      </trkpt>
      <trkpt lat="49.29185" lon="4.07917">
        <ele>149</ele>
        <time>2019-03-30T13:09:52Z</time>
      </trkpt>
      <trkpt lat="49.29184" lon="4.07908">
        <ele>149</ele>
        <time>2019-03-30T13:09:53Z</time>
      </trkpt>
      <trkpt lat="49.29183" lon="4.07899">
        <ele>149</ele>
        <time>2019-03-30T13:09:54Z</time>
      </trkpt>
      <trkpt lat="49.29181" lon="4.0789">
        <ele>149</ele>
        <time>2019-03-30T13:09:55Z</time>
      </trkpt>
      <trkpt lat="49.2918" lon="4.07881">
        <ele>149</ele>
        <time>2019-03-30T13:09:56Z</time>
      </trkpt>
      <trkpt lat="49.29179" lon="4.07872">
        <ele>149</ele>
        <time>2019-03-30T13:09:57Z</time>
      </trkpt>
      <trkpt lat="49.29177" lon="4.07863">
        <ele>149</ele>
        <time>2019-03-30T13:09:58Z</time>
      </trkpt>
      <trkpt lat="49.29176" lon="4.07853">
        <ele>148</ele>
        <time>2019-03-30T13:09:59Z</time>
      </trkpt>
      <trkpt lat="49.29175" lon="4.07843">
        <ele>148</ele>
        <time>2019-03-30T13:10:00Z</time>
      </trkpt>
      <trkpt lat="49.29173" lon="4.07834">
        <ele>148</ele>
        <time>2019-03-30T13:10:01Z</time>
      </trkpt>
      <trkpt lat="49.29172" lon="4.07824">
        <ele>148</ele>
        <time>2019-03-30T13:10:02Z</time>
      </trkpt>
      <trkpt lat="49.29171" lon="4.07815">
        <ele>148</ele>
        <time>2019-03-30T13:10:03Z</time>
      </trkpt>
      <trkpt lat="49.29169" lon="4.07805">
        <ele>148</ele>
        <time>2019-03-30T13:10:04Z</time>
      </trkpt>
      <trkpt lat="49.29168" lon="4.07795">
        <ele>148</ele>
        <time>2019-03-30T13:10:05Z</time>
      </trkpt>
      <trkpt lat="49.29166" lon="4.07785">
        <ele>148</ele>
        <time>2019-03-30T13:10:06Z</time>
      </trkpt>
      <trkpt lat="49.29165" lon="4.07775">
        <ele>148</ele>
        <time>2019-03-30T13:10:07Z</time>
      </trkpt>
      <trkpt lat="49.29164" lon="4.07765">
        <ele>147</ele>
        <time>2019-03-30T13:10:08Z</time>
      </trkpt>
      <trkpt lat="49.29163" lon="4.07755">
        <ele>147</ele>
        <time>2019-03-30T13:10:09Z</time>
      </trkpt>
      <trkpt lat="49.29161" lon="4.07746">
        <ele>147</ele>
        <time>2019-03-30T13:10:10Z</time>
      </trkpt>
      <trkpt lat="49.2916" lon="4.07736">
        <ele>147</ele>
        <time>2019-03-30T13:10:11Z</time>
      </trkpt>
      <trkpt lat="49.29159" lon="4.07726">
        <ele>147</ele>
        <time>2019-03-30T13:10:12Z</time>
      </trkpt>
      <trkpt lat="49.29157" lon="4.07717">
        <ele>147</ele>
        <time>2019-03-30T13:10:13Z</time>
      </trkpt>
      <trkpt lat="49.29156" lon="4.07707">
        <ele>147</ele>
        <time>2019-03-30T13:10:14Z</time>
      </trkpt>
      <trkpt lat="49.29155" lon="4.07697">
        <ele>147</ele>
        <time>2019-03-30T13:10:15Z</time>
      </trkpt>
      <trkpt lat="49.29153" lon="4.07687">
        <ele>147</ele>
        <time>2019-03-30T13:10:16Z</time>
      </trkpt>
      <trkpt lat="49.29151" lon="4.07677">
        <ele>147</ele>
        <time>2019-03-30T13:10:17Z</time>
      </trkpt>
      <trkpt lat="49.29148" lon="4.07668">
        <ele>147</ele>
        <time>2019-03-30T13:10:18Z</time>
      </trkpt>
      <trkpt lat="49.29145" lon="4.07658">
        <ele>147</ele>
        <time>2019-03-30T13:10:19Z</time>
      </trkpt>
      <trkpt lat="49.29142" lon="4.07649">
        <ele>146</ele>
        <time>2019-03-30T13:10:20Z</time>
      </trkpt>
      <trkpt lat="49.29139" lon="4.0764">
        <ele>146</ele>
        <time>2019-03-30T13:10:21Z</time>
      </trkpt>
      <trkpt lat="49.29135" lon="4.07631">
        <ele>146</ele>
        <time>2019-03-30T13:10:22Z</time>
      </trkpt>
      <trkpt lat="49.29131" lon="4.07624">
        <ele>146</ele>
        <time>2019-03-30T13:10:23Z</time>
      </trkpt>
      <trkpt lat="49.29126" lon="4.07616">
        <ele>146</ele>
        <time>2019-03-30T13:10:24Z</time>
      </trkpt>
      <trkpt lat="49.29122" lon="4.07608">
        <ele>146</ele>
        <time>2019-03-30T13:10:25Z</time>
      </trkpt>
      <trkpt lat="49.29118" lon="4.076">
        <ele>146</ele>
        <time>2019-03-30T13:10:26Z</time>
      </trkpt>
      <trkpt lat="49.29114" lon="4.07593">
        <ele>146</ele>
        <time>2019-03-30T13:10:27Z</time>
      </trkpt>
      <trkpt lat="49.29109" lon="4.07586">
        <ele>146</ele>
        <time>2019-03-30T13:10:28Z</time>
      </trkpt>
      <trkpt lat="49.29105" lon="4.07578">
        <ele>146</ele>
        <time>2019-03-30T13:10:29Z</time>
      </trkpt>
      <trkpt lat="49.29101" lon="4.0757">
        <ele>146</ele>
        <time>2019-03-30T13:10:30Z</time>
      </trkpt>
      <trkpt lat="49.29096" lon="4.07563">
        <ele>145</ele>
        <time>2019-03-30T13:10:31Z</time>
      </trkpt>
      <trkpt lat="49.29092" lon="4.07555">
        <ele>145</ele>
        <time>2019-03-30T13:10:32Z</time>
      </trkpt>
      <trkpt lat="49.29087" lon="4.07547">
        <ele>145</ele>
        <time>2019-03-30T13:10:33Z</time>
      </trkpt>
      <trkpt lat="49.29082" lon="4.0754">
        <ele>145</ele>
        <time>2019-03-30T13:10:34Z</time>
      </trkpt>
      <trkpt lat="49.29078" lon="4.07532">
        <ele>145</ele>
        <time>2019-03-30T13:10:35Z</time>
      </trkpt>
      <trkpt lat="49.29074" lon="4.07524">
        <ele>145</ele>
        <time>2019-03-30T13:10:36Z</time>
      </trkpt>
      <trkpt lat="49.29069" lon="4.07517">
        <ele>145</ele>
        <time>2019-03-30T13:10:37Z</time>
      </trkpt>
      <trkpt lat="49.29065" lon="4.0751">
        <ele>145</ele>
        <time>2019-03-30T13:10:38Z</time>
      </trkpt>
      <trkpt lat="49.2906" lon="4.07502">
        <ele>145</ele>
        <time>2019-03-30T13:10:39Z</time>
      </trkpt>
      <trkpt lat="49.29056" lon="4.07495">
        <ele>145</ele>
        <time>2019-03-30T13:10:40Z</time>
      </trkpt>
      <trkpt lat="49.29052" lon="4.07487">
        <ele>145</ele>
        <time>2019-03-30T13:10:41Z</time>
      </trkpt>
      <trkpt lat="49.29048" lon="4.07479">
        <ele>145</ele>
        <time>2019-03-30T13:10:42Z</time>
      </trkpt>
      <trkpt lat="49.29043" lon="4.07472">
        <ele>145</ele>
        <time>2019-03-30T13:10:43Z</time>
      </trkpt>
      <trkpt lat="49.29039" lon="4.07464">
        <ele>145</ele>
        <time>2019-03-30T13:10:44Z</time>
      </trkpt>
      <trkpt lat="49.29034" lon="4.07456">
        <ele>144</ele>
        <time>2019-03-30T13:10:45Z</time>
      </trkpt>
      <trkpt lat="49.2903" lon="4.07448">
        <ele>144</ele>
        <time>2019-03-30T13:10:46Z</time>
      </trkpt>
      <trkpt lat="49.29025" lon="4.0744">
        <ele>144</ele>
        <time>2019-03-30T13:10:47Z</time>
      </trkpt>
      <trkpt lat="49.2902" lon="4.07432">
        <ele>144</ele>
        <time>2019-03-30T13:10:48Z</time>
      </trkpt>
      <trkpt lat="49.29015" lon="4.07424">
        <ele>144</ele>
        <time>2019-03-30T13:10:49Z</time>
      </trkpt>
      <trkpt lat="49.29011" lon="4.07416">
        <ele>144</ele>
        <time>2019-03-30T13:10:50Z</time>
      </trkpt>
      <trkpt lat="49.29006" lon="4.07408">
        <ele>144</ele>
        <time>2019-03-30T13:10:51Z</time>
      </trkpt>
      <trkpt lat="49.29001" lon="4.07399">
        <ele>144</ele>
        <time>2019-03-30T13:10:52Z</time>
      </trkpt>
      <trkpt lat="49.28997" lon="4.07391">
        <ele>143</ele>
        <time>2019-03-30T13:10:53Z</time>
      </trkpt>
      <trkpt lat="49.28993" lon="4.07382">
        <ele>143</ele>
        <time>2019-03-30T13:10:54Z</time>
      </trkpt>
      <trkpt lat="49.28989" lon="4.07373">
        <ele>143</ele>
        <time>2019-03-30T13:10:55Z</time>
      </trkpt>
      <trkpt lat="49.28985" lon="4.07364">
        <ele>143</ele>
        <time>2019-03-30T13:10:56Z</time>
      </trkpt>
      <trkpt lat="49.28982" lon="4.07355">
        <ele>143</ele>
        <time>2019-03-30T13:10:57Z</time>
      </trkpt>
      <trkpt lat="49.28979" lon="4.07345">
        <ele>143</ele>
        <time>2019-03-30T13:10:58Z</time>
      </trkpt>
      <trkpt lat="49.28977" lon="4.07335">
        <ele>143</ele>
        <time>2019-03-30T13:10:59Z</time>
      </trkpt>
      <trkpt lat="49.28975" lon="4.07325">
        <ele>143</ele>
        <time>2019-03-30T13:11:00Z</time>
      </trkpt>
      <trkpt lat="49.28973" lon="4.07316">
        <ele>143</ele>
        <time>2019-03-30T13:11:01Z</time>
      </trkpt>
      <trkpt lat="49.28971" lon="4.07306">
        <ele>143</ele>
        <time>2019-03-30T13:11:02Z</time>
      </trkpt>
      <trkpt lat="49.28969" lon="4.07296">
        <ele>143</ele>
        <time>2019-03-30T13:11:03Z</time>
      </trkpt>
      <trkpt lat="49.28968" lon="4.07286">
        <ele>143</ele>
        <time>2019-03-30T13:11:04Z</time>
      </trkpt>
      <trkpt lat="49.28966" lon="4.07276">
        <ele>142</ele>
        <time>2019-03-30T13:11:05Z</time>
      </trkpt>
      <trkpt lat="49.28964" lon="4.07265">
        <ele>142</ele>
        <time>2019-03-30T13:11:06Z</time>
      </trkpt>
      <trkpt lat="49.28962" lon="4.07255">
        <ele>142</ele>
        <time>2019-03-30T13:11:07Z</time>
      </trkpt>
      <trkpt lat="49.2896" lon="4.07245">
        <ele>142</ele>
        <time>2019-03-30T13:11:08Z</time>
      </trkpt>
      <trkpt lat="49.28958" lon="4.07235">
        <ele>142</ele>
        <time>2019-03-30T13:11:09Z</time>
      </trkpt>
      <trkpt lat="49.28955" lon="4.07225">
        <ele>142</ele>
        <time>2019-03-30T13:11:10Z</time>
      </trkpt>
      <trkpt lat="49.28953" lon="4.07215">
        <ele>142</ele>
        <time>2019-03-30T13:11:11Z</time>
      </trkpt>
      <trkpt lat="49.2895" lon="4.07204">
        <ele>141</ele>
        <time>2019-03-30T13:11:12Z</time>
      </trkpt>
      <trkpt lat="49.28947" lon="4.07194">
        <ele>141</ele>
        <time>2019-03-30T13:11:13Z</time>
      </trkpt>
      <trkpt lat="49.28944" lon="4.07183">
        <ele>141</ele>
        <time>2019-03-30T13:11:14Z</time>
      </trkpt>
      <trkpt lat="49.2894" lon="4.07173">
        <ele>141</ele>
        <time>2019-03-30T13:11:15Z</time>
      </trkpt>
      <trkpt lat="49.28937" lon="4.07163">
        <ele>141</ele>
        <time>2019-03-30T13:11:16Z</time>
      </trkpt>
      <trkpt lat="49.28934" lon="4.07152">
        <ele>141</ele>
        <time>2019-03-30T13:11:17Z</time>
      </trkpt>
      <trkpt lat="49.28931" lon="4.07142">
        <ele>140</ele>
        <time>2019-03-30T13:11:18Z</time>
      </trkpt>
      <trkpt lat="49.28928" lon="4.07132">
        <ele>141</ele>
        <time>2019-03-30T13:11:19Z</time>
      </trkpt>
      <trkpt lat="49.28926" lon="4.07122">
        <ele>141</ele>
        <time>2019-03-30T13:11:20Z</time>
      </trkpt>
      <trkpt lat="49.28923" lon="4.07112">
        <ele>141</ele>
        <time>2019-03-30T13:11:21Z</time>
      </trkpt>
      <trkpt lat="49.28921" lon="4.07103">
        <ele>141</ele>
        <time>2019-03-30T13:11:22Z</time>
      </trkpt>
      <trkpt lat="49.28918" lon="4.07093">
        <ele>141</ele>
        <time>2019-03-30T13:11:23Z</time>
      </trkpt>
      <trkpt lat="49.28915" lon="4.07083">
        <ele>141</ele>
        <time>2019-03-30T13:11:24Z</time>
      </trkpt>
      <trkpt lat="49.28912" lon="4.07072">
        <ele>141</ele>
        <time>2019-03-30T13:11:25Z</time>
      </trkpt>
      <trkpt lat="49.28909" lon="4.07062">
        <ele>141</ele>
        <time>2019-03-30T13:11:26Z</time>
      </trkpt>
      <trkpt lat="49.28906" lon="4.07052">
        <ele>141</ele>
        <time>2019-03-30T13:11:27Z</time>
      </trkpt>
      <trkpt lat="49.28904" lon="4.07042">
        <ele>141</ele>
        <time>2019-03-30T13:11:28Z</time>
      </trkpt>
      <trkpt lat="49.289" lon="4.07032">
        <ele>141</ele>
        <time>2019-03-30T13:11:29Z</time>
      </trkpt>
      <trkpt lat="49.28898" lon="4.07021">
        <ele>141</ele>
        <time>2019-03-30T13:11:30Z</time>
      </trkpt>
      <trkpt lat="49.28895" lon="4.07012">
        <ele>141</ele>
        <time>2019-03-30T13:11:31Z</time>
      </trkpt>
      <trkpt lat="49.28892" lon="4.07002">
        <ele>141</ele>
        <time>2019-03-30T13:11:32Z</time>
      </trkpt>
      <trkpt lat="49.28889" lon="4.06992">
        <ele>141</ele>
        <time>2019-03-30T13:11:33Z</time>
      </trkpt>
      <trkpt lat="49.28886" lon="4.06982">
        <ele>141</ele>
        <time>2019-03-30T13:11:34Z</time>
      </trkpt>
      <trkpt lat="49.28883" lon="4.06972">
        <ele>140</ele>
        <time>2019-03-30T13:11:35Z</time>
      </trkpt>
      <trkpt lat="49.2888" lon="4.06963">
        <ele>140</ele>
        <time>2019-03-30T13:11:36Z</time>
      </trkpt>
      <trkpt lat="49.28878" lon="4.06953">
        <ele>140</ele>
        <time>2019-03-30T13:11:37Z</time>
      </trkpt>
      <trkpt lat="49.28875" lon="4.06944">
        <ele>140</ele>
        <time>2019-03-30T13:11:38Z</time>
      </trkpt>
      <trkpt lat="49.28872" lon="4.06935">
        <ele>140</ele>
        <time>2019-03-30T13:11:39Z</time>
      </trkpt>
      <trkpt lat="49.28869" lon="4.06925">
        <ele>140</ele>
        <time>2019-03-30T13:11:40Z</time>
      </trkpt>
      <trkpt lat="49.28866" lon="4.06915">
        <ele>140</ele>
        <time>2019-03-30T13:11:41Z</time>
      </trkpt>
      <trkpt lat="49.28864" lon="4.06906">
        <ele>140</ele>
        <time>2019-03-30T13:11:42Z</time>
      </trkpt>
      <trkpt lat="49.28861" lon="4.06898">
        <ele>140</ele>
        <time>2019-03-30T13:11:43Z</time>
      </trkpt>
      <trkpt lat="49.28859" lon="4.06889">
        <ele>140</ele>
        <time>2019-03-30T13:11:44Z</time>
      </trkpt>
      <trkpt lat="49.28857" lon="4.06881">
        <ele>141</ele>
        <time>2019-03-30T13:11:45Z</time>
      </trkpt>
      <trkpt lat="49.28854" lon="4.06872">
        <ele>140</ele>
        <time>2019-03-30T13:11:46Z</time>
      </trkpt>
      <trkpt lat="49.28852" lon="4.06865">
        <ele>141</ele>
        <time>2019-03-30T13:11:47Z</time>
      </trkpt>
      <trkpt lat="49.28849" lon="4.06857">
        <ele>141</ele>
        <time>2019-03-30T13:11:48Z</time>
      </trkpt>
      <trkpt lat="49.28847" lon="4.06849">
        <ele>141</ele>
        <time>2019-03-30T13:11:49Z</time>
      </trkpt>
      <trkpt lat="49.28844" lon="4.0684">
        <ele>141</ele>
        <time>2019-03-30T13:11:50Z</time>
      </trkpt>
      <trkpt lat="49.28842" lon="4.06833">
        <ele>141</ele>
        <time>2019-03-30T13:11:51Z</time>
      </trkpt>
      <trkpt lat="49.28839" lon="4.06825">
        <ele>141</ele>
        <time>2019-03-30T13:11:52Z</time>
      </trkpt>
      <trkpt lat="49.28836" lon="4.06818">
        <ele>141</ele>
        <time>2019-03-30T13:11:53Z</time>
      </trkpt>
      <trkpt lat="49.28834" lon="4.0681">
        <ele>141</ele>
        <time>2019-03-30T13:11:54Z</time>
      </trkpt>
      <trkpt lat="49.28831" lon="4.06803">
        <ele>141</ele>
        <time>2019-03-30T13:11:55Z</time>
      </trkpt>
      <trkpt lat="49.28828" lon="4.06795">
        <ele>141</ele>
        <time>2019-03-30T13:11:56Z</time>
      </trkpt>
      <trkpt lat="49.28825" lon="4.06788">
        <ele>141</ele>
        <time>2019-03-30T13:11:57Z</time>
      </trkpt>
      <trkpt lat="49.28822" lon="4.0678">
        <ele>141</ele>
        <time>2019-03-30T13:11:58Z</time>
      </trkpt>
      <trkpt lat="49.28819" lon="4.06773">
        <ele>141</ele>
        <time>2019-03-30T13:11:59Z</time>
      </trkpt>
      <trkpt lat="49.28816" lon="4.06765">
        <ele>142</ele>
        <time>2019-03-30T13:12:00Z</time>
      </trkpt>
      <trkpt lat="49.28813" lon="4.06758">
        <ele>142</ele>
        <time>2019-03-30T13:12:01Z</time>
      </trkpt>
      <trkpt lat="49.2881" lon="4.06751">
        <ele>142</ele>
        <time>2019-03-30T13:12:02Z</time>
      </trkpt>
      <trkpt lat="49.28806" lon="4.06744">
        <ele>142</ele>
        <time>2019-03-30T13:12:03Z</time>
      </trkpt>
      <trkpt lat="49.28804" lon="4.06737">
        <ele>142</ele>
        <time>2019-03-30T13:12:04Z</time>
      </trkpt>
      <trkpt lat="49.28801" lon="4.06729">
        <ele>141</ele>
        <time>2019-03-30T13:12:05Z</time>
      </trkpt>
      <trkpt lat="49.28798" lon="4.06722">
        <ele>142</ele>
        <time>2019-03-30T13:12:06Z</time>
      </trkpt>
      <trkpt lat="49.28794" lon="4.06715">
        <ele>141</ele>
        <time>2019-03-30T13:12:07Z</time>
      </trkpt>
      <trkpt lat="49.28792" lon="4.06708">
        <ele>141</ele>
        <time>2019-03-30T13:12:08Z</time>
      </trkpt>
      <trkpt lat="49.28789" lon="4.06701">
        <ele>141</ele>
        <time>2019-03-30T13:12:09Z</time>
      </trkpt>
      <trkpt lat="49.28787" lon="4.06694">
        <ele>142</ele>
        <time>2019-03-30T13:12:10Z</time>
      </trkpt>
      <trkpt lat="49.28784" lon="4.06687">
        <ele>142</ele>
        <time>2019-03-30T13:12:11Z</time>
      </trkpt>
      <trkpt lat="49.28781" lon="4.06679">
        <ele>141</ele>
        <time>2019-03-30T13:12:12Z</time>
      </trkpt>
      <trkpt lat="49.28778" lon="4.06672">
        <ele>141</ele>
        <time>2019-03-30T13:12:13Z</time>
      </trkpt>
      <trkpt lat="49.28775" lon="4.06665">
        <ele>142</ele>
        <time>2019-03-30T13:12:14Z</time>
      </trkpt>
      <trkpt lat="49.28773" lon="4.06657">
        <ele>142</ele>
        <time>2019-03-30T13:12:15Z</time>
      </trkpt>
      <trkpt lat="49.2877" lon="4.0665">
        <ele>142</ele>
        <time>2019-03-30T13:12:16Z</time>
      </trkpt>
      <trkpt lat="49.28767" lon="4.06642">
        <ele>142</ele>
        <time>2019-03-30T13:12:17Z</time>
      </trkpt>
      <trkpt lat="49.28764" lon="4.06634">
        <ele>142</ele>
        <time>2019-03-30T13:12:18Z</time>
      </trkpt>
      <trkpt lat="49.28762" lon="4.06626">
        <ele>142</ele>
        <time>2019-03-30T13:12:19Z</time>
      </trkpt>
      <trkpt lat="49.28759" lon="4.06619">
        <ele>142</ele>
        <time>2019-03-30T13:12:20Z</time>
      </trkpt>
      <trkpt lat="49.28756" lon="4.06611">
        <ele>142</ele>
        <time>2019-03-30T13:12:21Z</time>
      </trkpt>
      <trkpt lat="49.28753" lon="4.06603">
        <ele>142</ele>
        <time>2019-03-30T13:12:22Z</time>
      </trkpt>
      <trkpt lat="49.2875" lon="4.06595">
        <ele>142</ele>
        <time>2019-03-30T13:12:23Z</time>
      </trkpt>
      <trkpt lat="49.28747" lon="4.06588">
        <ele>142</ele>
        <time>2019-03-30T13:12:24Z</time>
      </trkpt>
      <trkpt lat="49.28745" lon="4.06579">
        <ele>142</ele>
        <time>2019-03-30T13:12:25Z</time>
      </trkpt>
      <trkpt lat="49.28742" lon="4.06571">
        <ele>142</ele>
        <time>2019-03-30T13:12:26Z</time>
      </trkpt>
      <trkpt lat="49.28739" lon="4.06563">
        <ele>142</ele>
        <time>2019-03-30T13:12:27Z</time>
      </trkpt>
      <trkpt lat="49.28736" lon="4.06555">
        <ele>142</ele>
        <time>2019-03-30T13:12:28Z</time>
      </trkpt>
      <trkpt lat="49.28733" lon="4.06547">
        <ele>142</ele>
        <time>2019-03-30T13:12:29Z</time>
      </trkpt>
      <trkpt lat="49.2873" lon="4.06539">
        <ele>141</ele>
        <time>2019-03-30T13:12:30Z</time>
      </trkpt>
      <trkpt lat="49.28727" lon="4.06531">
        <ele>142</ele>
        <time>2019-03-30T13:12:31Z</time>
      </trkpt>
      <trkpt lat="49.28724" lon="4.06523">
        <ele>142</ele>
        <time>2019-03-30T13:12:32Z</time>
      </trkpt>
      <trkpt lat="49.28721" lon="4.06516">
        <ele>142</ele>
        <time>2019-03-30T13:12:33Z</time>
      </trkpt>
      <trkpt lat="49.28717" lon="4.06507">
        <ele>141</ele>
        <time>2019-03-30T13:12:34Z</time>
      </trkpt>
      <trkpt lat="49.28714" lon="4.06499">
        <ele>141</ele>
        <time>2019-03-30T13:12:35Z</time>
      </trkpt>
      <trkpt lat="49.28711" lon="4.06491">
        <ele>141</ele>
        <time>2019-03-30T13:12:36Z</time>
      </trkpt>
      <trkpt lat="49.28708" lon="4.06483">
        <ele>141</ele>
        <time>2019-03-30T13:12:37Z</time>
      </trkpt>
      <trkpt lat="49.28705" lon="4.06475">
        <ele>141</ele>
        <time>2019-03-30T13:12:38Z</time>
      </trkpt>
      <trkpt lat="49.28702" lon="4.06466">
        <ele>141</ele>
        <time>2019-03-30T13:12:39Z</time>
      </trkpt>
      <trkpt lat="49.28699" lon="4.06458">
        <ele>141</ele>
        <time>2019-03-30T13:12:40Z</time>
      </trkpt>
      <trkpt lat="49.28696" lon="4.06449">
        <ele>141</ele>
        <time>2019-03-30T13:12:41Z</time>
      </trkpt>
      <trkpt lat="49.28693" lon="4.06441">
        <ele>141</ele>
        <time>2019-03-30T13:12:42Z</time>
      </trkpt>
      <trkpt lat="49.2869" lon="4.06432">
        <ele>141</ele>
        <time>2019-03-30T13:12:43Z</time>
      </trkpt>
      <trkpt lat="49.28687" lon="4.06424">
        <ele>140</ele>
        <time>2019-03-30T13:12:44Z</time>
      </trkpt>
      <trkpt lat="49.28685" lon="4.06416">
        <ele>140</ele>
        <time>2019-03-30T13:12:45Z</time>
      </trkpt>
      <trkpt lat="49.28681" lon="4.06409">
        <ele>140</ele>
        <time>2019-03-30T13:12:46Z</time>
      </trkpt>
      <trkpt lat="49.28678" lon="4.06401">
        <ele>140</ele>
        <time>2019-03-30T13:12:47Z</time>
      </trkpt>
      <trkpt lat="49.28675" lon="4.06394">
        <ele>140</ele>
        <time>2019-03-30T13:12:48Z</time>
      </trkpt>
      <trkpt lat="49.28673" lon="4.06386">
        <ele>140</ele>
        <time>2019-03-30T13:12:49Z</time>
      </trkpt>
      <trkpt lat="49.2867" lon="4.06378">
        <ele>140</ele>
        <time>2019-03-30T13:12:50Z</time>
      </trkpt>
      <trkpt lat="49.28666" lon="4.0637">
        <ele>140</ele>
        <time>2019-03-30T13:12:51Z</time>
      </trkpt>
      <trkpt lat="49.28662" lon="4.06363">
        <ele>140</ele>
        <time>2019-03-30T13:12:52Z</time>
      </trkpt>
      <trkpt lat="49.28658" lon="4.06355">
        <ele>140</ele>
        <time>2019-03-30T13:12:53Z</time>
      </trkpt>
      <trkpt lat="49.28655" lon="4.06349">
        <ele>139</ele>
        <time>2019-03-30T13:12:54Z</time>
      </trkpt>
      <trkpt lat="49.2865" lon="4.06343">
        <ele>139</ele>
        <time>2019-03-30T13:12:55Z</time>
      </trkpt>
      <trkpt lat="49.28646" lon="4.06338">
        <ele>139</ele>
        <time>2019-03-30T13:12:56Z</time>
      </trkpt>
      <trkpt lat="49.28641" lon="4.06332">
        <ele>139</ele>
        <time>2019-03-30T13:12:57Z</time>
      </trkpt>
      <trkpt lat="49.28637" lon="4.06328">
        <ele>139</ele>
        <time>2019-03-30T13:12:58Z</time>
      </trkpt>
      <trkpt lat="49.28631" lon="4.06324">
        <ele>139</ele>
        <time>2019-03-30T13:12:59Z</time>
      </trkpt>
      <trkpt lat="49.28626" lon="4.0632">
        <ele>139</ele>
        <time>2019-03-30T13:13:00Z</time>
      </trkpt>
      <trkpt lat="49.28621" lon="4.06317">
        <ele>139</ele>
        <time>2019-03-30T13:13:01Z</time>
      </trkpt>
      <trkpt lat="49.28615" lon="4.06315">
        <ele>139</ele>
        <time>2019-03-30T13:13:02Z</time>
      </trkpt>
      <trkpt lat="49.28609" lon="4.06313">
        <ele>139</ele>
        <time>2019-03-30T13:13:03Z</time>
      </trkpt>
      <trkpt lat="49.28604" lon="4.0631">
        <ele>139</ele>
        <time>2019-03-30T13:13:04Z</time>
      </trkpt>
      <trkpt lat="49.28598" lon="4.06309">
        <ele>139</ele>
        <time>2019-03-30T13:13:05Z</time>
      </trkpt>
      <trkpt lat="49.28592" lon="4.06307">
        <ele>139</ele>
        <time>2019-03-30T13:13:06Z</time>
      </trkpt>
      <trkpt lat="49.28586" lon="4.06306">
        <ele>140</ele>
        <time>2019-03-30T13:13:07Z</time>
      </trkpt>
      <trkpt lat="49.28581" lon="4.06304">
        <ele>140</ele>
        <time>2019-03-30T13:13:08Z</time>
      </trkpt>
      <trkpt lat="49.28575" lon="4.06303">
        <ele>139</ele>
        <time>2019-03-30T13:13:09Z</time>
      </trkpt>
      <trkpt lat="49.2857" lon="4.06302">
        <ele>139</ele>
        <time>2019-03-30T13:13:10Z</time>
      </trkpt>
      <trkpt lat="49.28565" lon="4.063">
        <ele>140</ele>
        <time>2019-03-30T13:13:11Z</time>
      </trkpt>
      <trkpt lat="49.28562" lon="4.06298">
        <ele>140</ele>
        <time>2019-03-30T13:13:12Z</time>
      </trkpt>
      <trkpt lat="49.28561" lon="4.06295">
        <ele>140</ele>
        <time>2019-03-30T13:13:13Z</time>
      </trkpt>
      <trkpt lat="49.2856" lon="4.06291">
        <ele>140</ele>
        <time>2019-03-30T13:13:14Z</time>
      </trkpt>
      <trkpt lat="49.2856" lon="4.06287">
        <ele>141</ele>
        <time>2019-03-30T13:13:15Z</time>
      </trkpt>
      <trkpt lat="49.2856" lon="4.06284">
        <ele>140</ele>
        <time>2019-03-30T13:13:16Z</time>
      </trkpt>
      <trkpt lat="49.2856" lon="4.06285">
        <ele>140</ele>
        <time>2019-03-30T13:13:17Z</time>
      </trkpt>
      <trkpt lat="49.28561" lon="4.06285">
        <ele>140</ele>
        <time>2019-03-30T13:13:18Z</time>
      </trkpt>
      <trkpt lat="49.28561" lon="4.06285">
        <ele>140</ele>
        <time>2019-03-30T13:13:19Z</time>
      </trkpt>
      <trkpt lat="49.28561" lon="4.06285">
        <ele>140</ele>
        <time>2019-03-30T13:13:20Z</time>
      </trkpt>
      <trkpt lat="49.28561" lon="4.06285">
        <ele>140</ele>
        <time>2019-03-30T13:13:21Z</time>
      </trkpt>
      <trkpt lat="49.28561" lon="4.06285">
        <ele>140</ele>
        <time>2019-03-30T13:13:22Z</time>
      </trkpt>
      <trkpt lat="49.28561" lon="4.06285">
        <ele>140</ele>
        <time>2019-03-30T13:13:23Z</time>
      </trkpt>
      <trkpt lat="49.28561" lon="4.06284">
        <ele>140</ele>
        <time>2019-03-30T13:13:24Z</time>
      </trkpt>
      <trkpt lat="49.28561" lon="4.06284">
        <ele>140</ele>
        <time>2019-03-30T13:13:25Z</time>
      </trkpt>
      <trkpt lat="49.28561" lon="4.06284">
        <ele>140</ele>
        <time>2019-03-30T13:13:26Z</time>
      </trkpt>
      <trkpt lat="49.28561" lon="4.06284">
        <ele>140</ele>
        <time>2019-03-30T13:13:27Z</time>
      </trkpt>
      <trkpt lat="49.28561" lon="4.06284">
        <ele>140</ele>
        <time>2019-03-30T13:13:28Z</time>
      </trkpt>
      <trkpt lat="49.28561" lon="4.06284">
        <ele>140</ele>
        <time>2019-03-30T13:13:29Z</time>
      </trkpt>
      <trkpt lat="49.28561" lon="4.06284">
        <ele>140</ele>
        <time>2019-03-30T13:13:30Z</time>
      </trkpt>
      <trkpt lat="49.28562" lon="4.06283">
        <ele>140</ele>
        <time>2019-03-30T13:13:31Z</time>
      </trkpt>
      <trkpt lat="49.28563" lon="4.06283">
        <ele>140</ele>
        <time>2019-03-30T13:13:32Z</time>
      </trkpt>
      <trkpt lat="49.28563" lon="4.06283">
        <ele>140</ele>
        <time>2019-03-30T13:13:33Z</time>
      </trkpt>
      <trkpt lat="49.28563" lon="4.06283">
        <ele>140</ele>
        <time>2019-03-30T13:13:34Z</time>
      </trkpt>
      <trkpt lat="49.28563" lon="4.06283">
        <ele>140</ele>
        <time>2019-03-30T13:13:35Z</time>
      </trkpt>
      <trkpt lat="49.28563" lon="4.06283">
        <ele>140</ele>
        <time>2019-03-30T13:13:36Z</time>
      </trkpt>
      <trkpt lat="49.28563" lon="4.06283">
        <ele>140</ele>
        <time>2019-03-30T13:13:37Z</time>
      </trkpt>
      <trkpt lat="49.28563" lon="4.06283">
        <ele>140</ele>
        <time>2019-03-30T13:13:38Z</time>
      </trkpt>
      <trkpt lat="49.28563" lon="4.06283">
        <ele>140</ele>
        <time>2019-03-30T13:13:39Z</time>
      </trkpt>
      <trkpt lat="49.28563" lon="4.06283">
        <ele>140</ele>
        <time>2019-03-30T13:13:40Z</time>
      </trkpt>
      <trkpt lat="49.28563" lon="4.06283">
        <ele>140</ele>
        <time>2019-03-30T13:13:41Z</time>
      </trkpt>
      <trkpt lat="49.28563" lon="4.06283">
        <ele>140</ele>
        <time>2019-03-30T13:13:42Z</time>
      </trkpt>
      <trkpt lat="49.28563" lon="4.06283">
        <ele>140</ele>
        <time>2019-03-30T13:13:43Z</time>
      </trkpt>
      <trkpt lat="49.28563" lon="4.06283">
        <ele>140</ele>
        <time>2019-03-30T13:13:44Z</time>
      </trkpt>
      <trkpt lat="49.28563" lon="4.06283">
        <ele>140</ele>
        <time>2019-03-30T13:13:45Z</time>
      </trkpt>
      <trkpt lat="49.28563" lon="4.06283">
        <ele>140</ele>
        <time>2019-03-30T13:13:46Z</time>
      </trkpt>
      <trkpt lat="49.28563" lon="4.06283">
        <ele>140</ele>
        <time>2019-03-30T13:13:47Z</time>
      </trkpt>
      <trkpt lat="49.28563" lon="4.06283">
        <ele>140</ele>
        <time>2019-03-30T13:13:48Z</time>
      </trkpt>
      <trkpt lat="49.28563" lon="4.06283">
        <ele>140</ele>
        <time>2019-03-30T13:13:49Z</time>
      </trkpt>
      <trkpt lat="49.28563" lon="4.06283">
        <ele>140</ele>
        <time>2019-03-30T13:13:50Z</time>
      </trkpt>
      <trkpt lat="49.28563" lon="4.06283">
        <ele>140</ele>
        <time>2019-03-30T13:13:51Z</time>
      </trkpt>
      <trkpt lat="49.28563" lon="4.06283">
        <ele>140</ele>
        <time>2019-03-30T13:13:52Z</time>
      </trkpt>
      <trkpt lat="49.28563" lon="4.06283">
        <ele>140</ele>
        <time>2019-03-30T13:13:53Z</time>
      </trkpt>
      <trkpt lat="49.28563" lon="4.06283">
        <ele>140</ele>
        <time>2019-03-30T13:13:54Z</time>
      </trkpt>
      <trkpt lat="49.28563" lon="4.06283">
        <ele>140</ele>
        <time>2019-03-30T13:13:55Z</time>
      </trkpt>
      <trkpt lat="49.28563" lon="4.06283">
        <ele>140</ele>
        <time>2019-03-30T13:13:56Z</time>
      </trkpt>
      <trkpt lat="49.28563" lon="4.06283">
        <ele>140</ele>
        <time>2019-03-30T13:13:57Z</time>
      </trkpt>
      <trkpt lat="49.28563" lon="4.06283">
        <ele>140</ele>
        <time>2019-03-30T13:13:58Z</time>
      </trkpt>
      <trkpt lat="49.28563" lon="4.06283">
        <ele>140</ele>
        <time>2019-03-30T13:13:59Z</time>
      </trkpt>
      <trkpt lat="49.28563" lon="4.06283">
        <ele>140</ele>
        <time>2019-03-30T13:14:00Z</time>
      </trkpt>
      <trkpt lat="49.28563" lon="4.06283">
        <ele>140</ele>
        <time>2019-03-30T13:14:01Z</time>
      </trkpt>
      <trkpt lat="49.28563" lon="4.06283">
        <ele>140</ele>
        <time>2019-03-30T13:14:02Z</time>
      </trkpt>
      <trkpt lat="49.28563" lon="4.06283">
        <ele>140</ele>
        <time>2019-03-30T13:14:03Z</time>
      </trkpt>
      <trkpt lat="49.28563" lon="4.06283">
        <ele>140</ele>
        <time>2019-03-30T13:14:04Z</time>
      </trkpt>
      <trkpt lat="49.28563" lon="4.06283">
        <ele>140</ele>
        <time>2019-03-30T13:14:05Z</time>
      </trkpt>
      <trkpt lat="49.28563" lon="4.06283">
        <ele>140</ele>
        <time>2019-03-30T13:14:06Z</time>
      </trkpt>
      <trkpt lat="49.28563" lon="4.06283">
        <ele>140</ele>
        <time>2019-03-30T13:14:07Z</time>
      </trkpt>
      <trkpt lat="49.28563" lon="4.06283">
        <ele>140</ele>
        <time>2019-03-30T13:14:08Z</time>
      </trkpt>
      <trkpt lat="49.28563" lon="4.06283">
        <ele>140</ele>
        <time>2019-03-30T13:14:09Z</time>
      </trkpt>
      <trkpt lat="49.28563" lon="4.06283">
        <ele>140</ele>
        <time>2019-03-30T13:14:10Z</time>
      </trkpt>
      <trkpt lat="49.28563" lon="4.06283">
        <ele>140</ele>
        <time>2019-03-30T13:14:11Z</time>
      </trkpt>
      <trkpt lat="49.28563" lon="4.06283">
        <ele>140</ele>
        <time>2019-03-30T13:14:12Z</time>
      </trkpt>
      <trkpt lat="49.28563" lon="4.06283">
        <ele>140</ele>
        <time>2019-03-30T13:14:13Z</time>
      </trkpt>
      <trkpt lat="49.28563" lon="4.06283">
        <ele>140</ele>
        <time>2019-03-30T13:14:14Z</time>
      </trkpt>
      <trkpt lat="49.28563" lon="4.06283">
        <ele>140</ele>
        <time>2019-03-30T13:14:15Z</time>
      </trkpt>
      <trkpt lat="49.28563" lon="4.06283">
        <ele>140</ele>
        <time>2019-03-30T13:14:16Z</time>
      </trkpt>
      <trkpt lat="49.28563" lon="4.06283">
        <ele>140</ele>
        <time>2019-03-30T13:14:17Z</time>
      </trkpt>
      <trkpt lat="49.28563" lon="4.06283">
        <ele>140</ele>
        <time>2019-03-30T13:14:18Z</time>
      </trkpt>
      <trkpt lat="49.28563" lon="4.06283">
        <ele>140</ele>
        <time>2019-03-30T13:14:19Z</time>
      </trkpt>
      <trkpt lat="49.28563" lon="4.06283">
        <ele>140</ele>
        <time>2019-03-30T13:14:20Z</time>
      </trkpt>
      <trkpt lat="49.28563" lon="4.06283">
        <ele>140</ele>
        <time>2019-03-30T13:14:21Z</time>
      </trkpt>
      <trkpt lat="49.28563" lon="4.06283">
        <ele>140</ele>
        <time>2019-03-30T13:14:22Z</time>
      </trkpt>
      <trkpt lat="49.28563" lon="4.06283">
        <ele>140</ele>
        <time>2019-03-30T13:14:23Z</time>
      </trkpt>
      <trkpt lat="49.28563" lon="4.06283">
        <ele>140</ele>
        <time>2019-03-30T13:14:24Z</time>
      </trkpt>
      <trkpt lat="49.28563" lon="4.06283">
        <ele>140</ele>
        <time>2019-03-30T13:14:25Z</time>
      </trkpt>
      <trkpt lat="49.28563" lon="4.06283">
        <ele>140</ele>
        <time>2019-03-30T13:14:26Z</time>
      </trkpt>
      <trkpt lat="49.28563" lon="4.06283">
        <ele>140</ele>
        <time>2019-03-30T13:14:27Z</time>
      </trkpt>
      <trkpt lat="49.28563" lon="4.06283">
        <ele>140</ele>
        <time>2019-03-30T13:14:28Z</time>
      </trkpt>
      <trkpt lat="49.28563" lon="4.06283">
        <ele>140</ele>
        <time>2019-03-30T13:14:29Z</time>
      </trkpt>
      <trkpt lat="49.28563" lon="4.06283">
        <ele>140</ele>
        <time>2019-03-30T13:14:30Z</time>
      </trkpt>
      <trkpt lat="49.28563" lon="4.06283">
        <ele>140</ele>
        <time>2019-03-30T13:14:31Z</time>
      </trkpt>
      <trkpt lat="49.28563" lon="4.06283">
        <ele>140</ele>
        <time>2019-03-30T13:14:32Z</time>
      </trkpt>
      <trkpt lat="49.28563" lon="4.06283">
        <ele>140</ele>
        <time>2019-03-30T13:14:33Z</time>
      </trkpt>
      <trkpt lat="49.28563" lon="4.06283">
        <ele>140</ele>
        <time>2019-03-30T13:14:34Z</time>
      </trkpt>
      <trkpt lat="49.28563" lon="4.06283">
        <ele>140</ele>
        <time>2019-03-30T13:14:35Z</time>
      </trkpt>
      <trkpt lat="49.28563" lon="4.06283">
        <ele>140</ele>
        <time>2019-03-30T13:14:36Z</time>
      </trkpt>
      <trkpt lat="49.28563" lon="4.06283">
        <ele>140</ele>
        <time>2019-03-30T13:14:37Z</time>
      </trkpt>
      <trkpt lat="49.28563" lon="4.06283">
        <ele>140</ele>
        <time>2019-03-30T13:14:38Z</time>
      </trkpt>
      <trkpt lat="49.28563" lon="4.06283">
        <ele>140</ele>
        <time>2019-03-30T13:14:39Z</time>
      </trkpt>
      <trkpt lat="49.28563" lon="4.06283">
        <ele>140</ele>
        <time>2019-03-30T13:14:40Z</time>
      </trkpt>
      <trkpt lat="49.28563" lon="4.06283">
        <ele>140</ele>
        <time>2019-03-30T13:14:41Z</time>
      </trkpt>
      <trkpt lat="49.28563" lon="4.06283">
        <ele>140</ele>
        <time>2019-03-30T13:14:42Z</time>
      </trkpt>
      <trkpt lat="49.28563" lon="4.06283">
        <ele>140</ele>
        <time>2019-03-30T13:14:43Z</time>
      </trkpt>
      <trkpt lat="49.28563" lon="4.06283">
        <ele>140</ele>
        <time>2019-03-30T13:14:44Z</time>
      </trkpt>
      <trkpt lat="49.28563" lon="4.06283">
        <ele>140</ele>
        <time>2019-03-30T13:14:45Z</time>
      </trkpt>
      <trkpt lat="49.28563" lon="4.06283">
        <ele>140</ele>
        <time>2019-03-30T13:14:46Z</time>
      </trkpt>
      <trkpt lat="49.28563" lon="4.06283">
        <ele>140</ele>
        <time>2019-03-30T13:14:47Z</time>
      </trkpt>
      <trkpt lat="49.28563" lon="4.06283">
        <ele>140</ele>
        <time>2019-03-30T13:14:48Z</time>
      </trkpt>
      <trkpt lat="49.28563" lon="4.06283">
        <ele>140</ele>
        <time>2019-03-30T13:14:49Z</time>
      </trkpt>
      <trkpt lat="49.28563" lon="4.06283">
        <ele>140</ele>
        <time>2019-03-30T13:14:50Z</time>
      </trkpt>
      <trkpt lat="49.28563" lon="4.06283">
        <ele>140</ele>
        <time>2019-03-30T13:14:51Z</time>
      </trkpt>
      <trkpt lat="49.28563" lon="4.06283">
        <ele>140</ele>
        <time>2019-03-30T13:14:52Z</time>
      </trkpt>
      <trkpt lat="49.28563" lon="4.06283">
        <ele>140</ele>
        <time>2019-03-30T13:14:53Z</time>
      </trkpt>
      <trkpt lat="49.28563" lon="4.06283">
        <ele>140</ele>
        <time>2019-03-30T13:14:54Z</time>
      </trkpt>
      <trkpt lat="49.28563" lon="4.06283">
        <ele>140</ele>
        <time>2019-03-30T13:14:55Z</time>
      </trkpt>
      <trkpt lat="49.28563" lon="4.06283">
        <ele>140</ele>
        <time>2019-03-30T13:14:56Z</time>
      </trkpt>
      <trkpt lat="49.28563" lon="4.06283">
        <ele>140</ele>
        <time>2019-03-30T13:14:57Z</time>
      </trkpt>
      <trkpt lat="49.28563" lon="4.06283">
        <ele>140</ele>
        <time>2019-03-30T13:14:58Z</time>
      </trkpt>
      <trkpt lat="49.28563" lon="4.06283">
        <ele>140</ele>
        <time>2019-03-30T13:14:59Z</time>
      </trkpt>
      <trkpt lat="49.28563" lon="4.06283">
        <ele>140</ele>
        <time>2019-03-30T13:15:00Z</time>
      </trkpt>
      <trkpt lat="49.28563" lon="4.06283">
        <ele>140</ele>
        <time>2019-03-30T13:15:01Z</time>
      </trkpt>
      <trkpt lat="49.28563" lon="4.06283">
        <ele>140</ele>
        <time>2019-03-30T13:15:02Z</time>
      </trkpt>
      <trkpt lat="49.28563" lon="4.06283">
        <ele>140</ele>
        <time>2019-03-30T13:15:03Z</time>
      </trkpt>
      <trkpt lat="49.28563" lon="4.06283">
        <ele>140</ele>
        <time>2019-03-30T13:15:04Z</time>
      </trkpt>
      <trkpt lat="49.28563" lon="4.06283">
        <ele>140</ele>
        <time>2019-03-30T13:15:05Z</time>
      </trkpt>
      <trkpt lat="49.28563" lon="4.06283">
        <ele>140</ele>
        <time>2019-03-30T13:15:06Z</time>
      </trkpt>
      <trkpt lat="49.28563" lon="4.06283">
        <ele>140</ele>
        <time>2019-03-30T13:15:07Z</time>
      </trkpt>
      <trkpt lat="49.28563" lon="4.06283">
        <ele>140</ele>
        <time>2019-03-30T13:15:08Z</time>
      </trkpt>
      <trkpt lat="49.28563" lon="4.06283">
        <ele>140</ele>
        <time>2019-03-30T13:15:09Z</time>
      </trkpt>
      <trkpt lat="49.28563" lon="4.06283">
        <ele>140</ele>
        <time>2019-03-30T13:15:10Z</time>
      </trkpt>
      <trkpt lat="49.28563" lon="4.06283">
        <ele>140</ele>
        <time>2019-03-30T13:15:11Z</time>
      </trkpt>
      <trkpt lat="49.28563" lon="4.06283">
        <ele>140</ele>
        <time>2019-03-30T13:15:12Z</time>
      </trkpt>
      <trkpt lat="49.28563" lon="4.06283">
        <ele>140</ele>
        <time>2019-03-30T13:15:13Z</time>
      </trkpt>
      <trkpt lat="49.28563" lon="4.06283">
        <ele>140</ele>
        <time>2019-03-30T13:15:14Z</time>
      </trkpt>
      <trkpt lat="49.28563" lon="4.06283">
        <ele>140</ele>
        <time>2019-03-30T13:15:15Z</time>
      </trkpt>
      <trkpt lat="49.28563" lon="4.06283">
        <ele>140</ele>
        <time>2019-03-30T13:15:16Z</time>
      </trkpt>
      <trkpt lat="49.28563" lon="4.06283">
        <ele>140</ele>
        <time>2019-03-30T13:15:17Z</time>
      </trkpt>
      <trkpt lat="49.28563" lon="4.06283">
        <ele>140</ele>
        <time>2019-03-30T13:15:18Z</time>
      </trkpt>
      <trkpt lat="49.28563" lon="4.06283">
        <ele>140</ele>
        <time>2019-03-30T13:15:19Z</time>
      </trkpt>
      <trkpt lat="49.28563" lon="4.06283">
        <ele>140</ele>
        <time>2019-03-30T13:15:20Z</time>
      </trkpt>
      <trkpt lat="49.28563" lon="4.06283">
        <ele>140</ele>
        <time>2019-03-30T13:15:21Z</time>
      </trkpt>
      <trkpt lat="49.28563" lon="4.06283">
        <ele>140</ele>
        <time>2019-03-30T13:15:22Z</time>
      </trkpt>
      <trkpt lat="49.28563" lon="4.06283">
        <ele>140</ele>
        <time>2019-03-30T13:15:23Z</time>
      </trkpt>
      <trkpt lat="49.28563" lon="4.06283">
        <ele>140</ele>
        <time>2019-03-30T13:15:24Z</time>
      </trkpt>
      <trkpt lat="49.28563" lon="4.06283">
        <ele>140</ele>
        <time>2019-03-30T13:15:25Z</time>
      </trkpt>
      <trkpt lat="49.28563" lon="4.06283">
        <ele>140</ele>
        <time>2019-03-30T13:15:26Z</time>
      </trkpt>
      <trkpt lat="49.28563" lon="4.06283">
        <ele>140</ele>
        <time>2019-03-30T13:15:27Z</time>
      </trkpt>
      <trkpt lat="49.28563" lon="4.06283">
        <ele>140</ele>
        <time>2019-03-30T13:15:28Z</time>
      </trkpt>
      <trkpt lat="49.28563" lon="4.06283">
        <ele>140</ele>
        <time>2019-03-30T13:15:29Z</time>
      </trkpt>
      <trkpt lat="49.28563" lon="4.06283">
        <ele>140</ele>
        <time>2019-03-30T13:15:30Z</time>
      </trkpt>
      <trkpt lat="49.28563" lon="4.06283">
        <ele>140</ele>
        <time>2019-03-30T13:15:31Z</time>
      </trkpt>
      <trkpt lat="49.28563" lon="4.06283">
        <ele>140</ele>
        <time>2019-03-30T13:15:32Z</time>
      </trkpt>
      <trkpt lat="49.28563" lon="4.06283">
        <ele>140</ele>
        <time>2019-03-30T13:15:33Z</time>
      </trkpt>
      <trkpt lat="49.28563" lon="4.06283">
        <ele>140</ele>
        <time>2019-03-30T13:15:34Z</time>
      </trkpt>
      <trkpt lat="49.28563" lon="4.06283">
        <ele>140</ele>
        <time>2019-03-30T13:15:35Z</time>
      </trkpt>
      <trkpt lat="49.28563" lon="4.06283">
        <ele>140</ele>
        <time>2019-03-30T13:15:36Z</time>
      </trkpt>
      <trkpt lat="49.28563" lon="4.06283">
        <ele>140</ele>
        <time>2019-03-30T13:15:37Z</time>
      </trkpt>
      <trkpt lat="49.28563" lon="4.06283">
        <ele>140</ele>
        <time>2019-03-30T13:15:38Z</time>
      </trkpt>
      <trkpt lat="49.28563" lon="4.06283">
        <ele>140</ele>
        <time>2019-03-30T13:15:39Z</time>
      </trkpt>
      <trkpt lat="49.28563" lon="4.06283">
        <ele>140</ele>
        <time>2019-03-30T13:15:40Z</time>
      </trkpt>
      <trkpt lat="49.28563" lon="4.06283">
        <ele>140</ele>
        <time>2019-03-30T13:15:41Z</time>
      </trkpt>
      <trkpt lat="49.28563" lon="4.06283">
        <ele>140</ele>
        <time>2019-03-30T13:15:42Z</time>
      </trkpt>
      <trkpt lat="49.28563" lon="4.06283">
        <ele>140</ele>
        <time>2019-03-30T13:15:43Z</time>
      </trkpt>
      <trkpt lat="49.28563" lon="4.06283">
        <ele>140</ele>
        <time>2019-03-30T13:15:44Z</time>
      </trkpt>
      <trkpt lat="49.28563" lon="4.06283">
        <ele>140</ele>
        <time>2019-03-30T13:15:45Z</time>
      </trkpt>
      <trkpt lat="49.28563" lon="4.06283">
        <ele>140</ele>
        <time>2019-03-30T13:15:46Z</time>
      </trkpt>
      <trkpt lat="49.28563" lon="4.06283">
        <ele>140</ele>
        <time>2019-03-30T13:15:47Z</time>
      </trkpt>
      <trkpt lat="49.28563" lon="4.06283">
        <ele>140</ele>
        <time>2019-03-30T13:15:48Z</time>
      </trkpt>
      <trkpt lat="49.28563" lon="4.06283">
        <ele>140</ele>
        <time>2019-03-30T13:15:49Z</time>
      </trkpt>
      <trkpt lat="49.28563" lon="4.06283">
        <ele>140</ele>
        <time>2019-03-30T13:15:50Z</time>
      </trkpt>
      <trkpt lat="49.28563" lon="4.06283">
        <ele>140</ele>
        <time>2019-03-30T13:15:51Z</time>
      </trkpt>
      <trkpt lat="49.28563" lon="4.06283">
        <ele>140</ele>
        <time>2019-03-30T13:15:52Z</time>
      </trkpt>
      <trkpt lat="49.28563" lon="4.06283">
        <ele>140</ele>
        <time>2019-03-30T13:15:53Z</time>
      </trkpt>
      <trkpt lat="49.28563" lon="4.06283">
        <ele>140</ele>
        <time>2019-03-30T13:15:54Z</time>
      </trkpt>
      <trkpt lat="49.28563" lon="4.06283">
        <ele>140</ele>
        <time>2019-03-30T13:15:55Z</time>
      </trkpt>
      <trkpt lat="49.28563" lon="4.06283">
        <ele>140</ele>
        <time>2019-03-30T13:15:56Z</time>
      </trkpt>
      <trkpt lat="49.28563" lon="4.06283">
        <ele>140</ele>
        <time>2019-03-30T13:15:57Z</time>
      </trkpt>
      <trkpt lat="49.28563" lon="4.06283">
        <ele>140</ele>
        <time>2019-03-30T13:15:58Z</time>
      </trkpt>
      <trkpt lat="49.28563" lon="4.06283">
        <ele>140</ele>
        <time>2019-03-30T13:15:59Z</time>
      </trkpt>
      <trkpt lat="49.28563" lon="4.06283">
        <ele>140</ele>
        <time>2019-03-30T13:16:00Z</time>
      </trkpt>
      <trkpt lat="49.28563" lon="4.06283">
        <ele>140</ele>
        <time>2019-03-30T13:16:01Z</time>
      </trkpt>
      <trkpt lat="49.28563" lon="4.06283">
        <ele>140</ele>
        <time>2019-03-30T13:16:02Z</time>
      </trkpt>
      <trkpt lat="49.28563" lon="4.06283">
        <ele>140</ele>
        <time>2019-03-30T13:16:03Z</time>
      </trkpt>
      <trkpt lat="49.28563" lon="4.06283">
        <ele>140</ele>
        <time>2019-03-30T13:16:04Z</time>
      </trkpt>
      <trkpt lat="49.28563" lon="4.06283">
        <ele>140</ele>
        <time>2019-03-30T13:16:05Z</time>
      </trkpt>
      <trkpt lat="49.28563" lon="4.06283">
        <ele>140</ele>
        <time>2019-03-30T13:16:06Z</time>
      </trkpt>
      <trkpt lat="49.28563" lon="4.06283">
        <ele>140</ele>
        <time>2019-03-30T13:16:07Z</time>
      </trkpt>
      <trkpt lat="49.28563" lon="4.06283">
        <ele>140</ele>
        <time>2019-03-30T13:16:08Z</time>
      </trkpt>
      <trkpt lat="49.28563" lon="4.06283">
        <ele>140</ele>
        <time>2019-03-30T13:16:09Z</time>
      </trkpt>
      <trkpt lat="49.28563" lon="4.06283">
        <ele>140</ele>
        <time>2019-03-30T13:16:10Z</time>
      </trkpt>
      <trkpt lat="49.28563" lon="4.06283">
        <ele>140</ele>
        <time>2019-03-30T13:16:11Z</time>
      </trkpt>
      <trkpt lat="49.28563" lon="4.06283">
        <ele>140</ele>
        <time>2019-03-30T13:16:12Z</time>
      </trkpt>
      <trkpt lat="49.28563" lon="4.06283">
        <ele>140</ele>
        <time>2019-03-30T13:16:13Z</time>
      </trkpt>
      <trkpt lat="49.28563" lon="4.06283">
        <ele>140</ele>
        <time>2019-03-30T13:16:14Z</time>
      </trkpt>
      <trkpt lat="49.28563" lon="4.06283">
        <ele>140</ele>
        <time>2019-03-30T13:16:15Z</time>
      </trkpt>
      <trkpt lat="49.28563" lon="4.06283">
        <ele>140</ele>
        <time>2019-03-30T13:16:16Z</time>
      </trkpt>
      <trkpt lat="49.28563" lon="4.06283">
        <ele>140</ele>
        <time>2019-03-30T13:16:17Z</time>
      </trkpt>
      <trkpt lat="49.28563" lon="4.06283">
        <ele>140</ele>
        <time>2019-03-30T13:16:18Z</time>
      </trkpt>
      <trkpt lat="49.28563" lon="4.06283">
        <ele>140</ele>
        <time>2019-03-30T13:16:19Z</time>
      </trkpt>
      <trkpt lat="49.28563" lon="4.06283">
        <ele>140</ele>
        <time>2019-03-30T13:16:20Z</time>
      </trkpt>
      <trkpt lat="49.28563" lon="4.06283">
        <ele>140</ele>
        <time>2019-03-30T13:16:21Z</time>
      </trkpt>
      <trkpt lat="49.28563" lon="4.06283">
        <ele>140</ele>
        <time>2019-03-30T13:16:22Z</time>
      </trkpt>
      <trkpt lat="49.28563" lon="4.06283">
        <ele>140</ele>
        <time>2019-03-30T13:16:23Z</time>
      </trkpt>
      <trkpt lat="49.28563" lon="4.06283">
        <ele>140</ele>
        <time>2019-03-30T13:16:24Z</time>
      </trkpt>
      <trkpt lat="49.28563" lon="4.06283">
        <ele>140</ele>
        <time>2019-03-30T13:16:25Z</time>
      </trkpt>
      <trkpt lat="49.28563" lon="4.06283">
        <ele>140</ele>
        <time>2019-03-30T13:16:26Z</time>
      </trkpt>
      <trkpt lat="49.28563" lon="4.06283">
        <ele>140</ele>
        <time>2019-03-30T13:16:27Z</time>
      </trkpt>
      <trkpt lat="49.28563" lon="4.06283">
        <ele>140</ele>
        <time>2019-03-30T13:16:28Z</time>
      </trkpt>
      <trkpt lat="49.28563" lon="4.06283">
        <ele>140</ele>
        <time>2019-03-30T13:16:29Z</time>
      </trkpt>
      <trkpt lat="49.28563" lon="4.06283">
        <ele>140</ele>
        <time>2019-03-30T13:16:30Z</time>
      </trkpt>
      <trkpt lat="49.28563" lon="4.06283">
        <ele>140</ele>
        <time>2019-03-30T13:16:31Z</time>
      </trkpt>
      <trkpt lat="49.28563" lon="4.06283">
        <ele>140</ele>
        <time>2019-03-30T13:16:32Z</time>
      </trkpt>
      <trkpt lat="49.28563" lon="4.06283">
        <ele>140</ele>
        <time>2019-03-30T13:16:33Z</time>
      </trkpt>
      <trkpt lat="49.28563" lon="4.06283">
        <ele>140</ele>
        <time>2019-03-30T13:16:34Z</time>
      </trkpt>
      <trkpt lat="49.28563" lon="4.06283">
        <ele>140</ele>
        <time>2019-03-30T13:16:35Z</time>
      </trkpt>
      <trkpt lat="49.28563" lon="4.06283">
        <ele>140</ele>
        <time>2019-03-30T13:16:36Z</time>
      </trkpt>
      <trkpt lat="49.28563" lon="4.06283">
        <ele>140</ele>
        <time>2019-03-30T13:16:37Z</time>
      </trkpt>
      <trkpt lat="49.28563" lon="4.06283">
        <ele>140</ele>
        <time>2019-03-30T13:16:38Z</time>
      </trkpt>
      <trkpt lat="49.28563" lon="4.06283">
        <ele>140</ele>
        <time>2019-03-30T13:16:39Z</time>
      </trkpt>
      <trkpt lat="49.28563" lon="4.06283">
        <ele>140</ele>
        <time>2019-03-30T13:16:40Z</time>
      </trkpt>
      <trkpt lat="49.28563" lon="4.06283">
        <ele>140</ele>
        <time>2019-03-30T13:16:41Z</time>
      </trkpt>
      <trkpt lat="49.28563" lon="4.06283">
        <ele>140</ele>
        <time>2019-03-30T13:16:42Z</time>
      </trkpt>
      <trkpt lat="49.28563" lon="4.06283">
        <ele>140</ele>
        <time>2019-03-30T13:16:43Z</time>
      </trkpt>
      <trkpt lat="49.28563" lon="4.06283">
        <ele>140</ele>
        <time>2019-03-30T13:16:44Z</time>
      </trkpt>
      <trkpt lat="49.28563" lon="4.06283">
        <ele>140</ele>
        <time>2019-03-30T13:16:45Z</time>
      </trkpt>
      <trkpt lat="49.28563" lon="4.06283">
        <ele>140</ele>
        <time>2019-03-30T13:16:46Z</time>
      </trkpt>
      <trkpt lat="49.28563" lon="4.06283">
        <ele>140</ele>
        <time>2019-03-30T13:16:47Z</time>
      </trkpt>
      <trkpt lat="49.28563" lon="4.06283">
        <ele>140</ele>
        <time>2019-03-30T13:16:48Z</time>
      </trkpt>
      <trkpt lat="49.28563" lon="4.06283">
        <ele>140</ele>
        <time>2019-03-30T13:16:49Z</time>
      </trkpt>
      <trkpt lat="49.28563" lon="4.06283">
        <ele>140</ele>
        <time>2019-03-30T13:16:50Z</time>
      </trkpt>
      <trkpt lat="49.28563" lon="4.06283">
        <ele>140</ele>
        <time>2019-03-30T13:16:51Z</time>
      </trkpt>
      <trkpt lat="49.28563" lon="4.06283">
        <ele>140</ele>
        <time>2019-03-30T13:16:52Z</time>
      </trkpt>
      <trkpt lat="49.28563" lon="4.06283">
        <ele>140</ele>
        <time>2019-03-30T13:16:53Z</time>
      </trkpt>
      <trkpt lat="49.28563" lon="4.06283">
        <ele>140</ele>
        <time>2019-03-30T13:16:54Z</time>
      </trkpt>
      <trkpt lat="49.28563" lon="4.06283">
        <ele>140</ele>
        <time>2019-03-30T13:16:55Z</time>
      </trkpt>
      <trkpt lat="49.28563" lon="4.06283">
        <ele>140</ele>
        <time>2019-03-30T13:16:56Z</time>
      </trkpt>
      <trkpt lat="49.28563" lon="4.06283">
        <ele>140</ele>
        <time>2019-03-30T13:16:57Z</time>
      </trkpt>
      <trkpt lat="49.28563" lon="4.06283">
        <ele>140</ele>
        <time>2019-03-30T13:16:58Z</time>
      </trkpt>
      <trkpt lat="49.28563" lon="4.06283">
        <ele>140</ele>
        <time>2019-03-30T13:16:59Z</time>
      </trkpt>
      <trkpt lat="49.28563" lon="4.06283">
        <ele>140</ele>
        <time>2019-03-30T13:17:00Z</time>
      </trkpt>
      <trkpt lat="49.28563" lon="4.06283">
        <ele>140</ele>
        <time>2019-03-30T13:17:01Z</time>
      </trkpt>
      <trkpt lat="49.28563" lon="4.06283">
        <ele>140</ele>
        <time>2019-03-30T13:17:02Z</time>
      </trkpt>
      <trkpt lat="49.28563" lon="4.06283">
        <ele>140</ele>
        <time>2019-03-30T13:17:03Z</time>
      </trkpt>
      <trkpt lat="49.28563" lon="4.06283">
        <ele>140</ele>
        <time>2019-03-30T13:17:04Z</time>
      </trkpt>
      <trkpt lat="49.28563" lon="4.06283">
        <ele>140</ele>
        <time>2019-03-30T13:17:05Z</time>
      </trkpt>
      <trkpt lat="49.28563" lon="4.06283">
        <ele>140</ele>
        <time>2019-03-30T13:17:06Z</time>
      </trkpt>
      <trkpt lat="49.28563" lon="4.06283">
        <ele>140</ele>
        <time>2019-03-30T13:17:07Z</time>
      </trkpt>
      <trkpt lat="49.28563" lon="4.06283">
        <ele>140</ele>
        <time>2019-03-30T13:17:08Z</time>
      </trkpt>
      <trkpt lat="49.28563" lon="4.06283">
        <ele>140</ele>
        <time>2019-03-30T13:17:09Z</time>
      </trkpt>
      <trkpt lat="49.28563" lon="4.06283">
        <ele>140</ele>
        <time>2019-03-30T13:17:10Z</time>
      </trkpt>
      <trkpt lat="49.28563" lon="4.06283">
        <ele>140</ele>
        <time>2019-03-30T13:17:11Z</time>
      </trkpt>
      <trkpt lat="49.28563" lon="4.06283">
        <ele>140</ele>
        <time>2019-03-30T13:17:12Z</time>
      </trkpt>
      <trkpt lat="49.28563" lon="4.06283">
        <ele>140</ele>
        <time>2019-03-30T13:17:13Z</time>
      </trkpt>
      <trkpt lat="49.28563" lon="4.06283">
        <ele>140</ele>
        <time>2019-03-30T13:17:14Z</time>
      </trkpt>
      <trkpt lat="49.28563" lon="4.06283">
        <ele>140</ele>
        <time>2019-03-30T13:17:15Z</time>
      </trkpt>
      <trkpt lat="49.28563" lon="4.06283">
        <ele>140</ele>
        <time>2019-03-30T13:17:16Z</time>
      </trkpt>
      <trkpt lat="49.28563" lon="4.06283">
        <ele>140</ele>
        <time>2019-03-30T13:17:17Z</time>
      </trkpt>
      <trkpt lat="49.28563" lon="4.06283">
        <ele>140</ele>
        <time>2019-03-30T13:17:18Z</time>
      </trkpt>
      <trkpt lat="49.28563" lon="4.06283">
        <ele>140</ele>
        <time>2019-03-30T13:17:19Z</time>
      </trkpt>
      <trkpt lat="49.28563" lon="4.06283">
        <ele>140</ele>
        <time>2019-03-30T13:17:20Z</time>
      </trkpt>
      <trkpt lat="49.28563" lon="4.06283">
        <ele>140</ele>
        <time>2019-03-30T13:17:21Z</time>
      </trkpt>
      <trkpt lat="49.28563" lon="4.06283">
        <ele>140</ele>
        <time>2019-03-30T13:17:22Z</time>
      </trkpt>
      <trkpt lat="49.28563" lon="4.06283">
        <ele>140</ele>
        <time>2019-03-30T13:17:23Z</time>
      </trkpt>
      <trkpt lat="49.28563" lon="4.06283">
        <ele>140</ele>
        <time>2019-03-30T13:17:24Z</time>
      </trkpt>
      <trkpt lat="49.28563" lon="4.06283">
        <ele>140</ele>
        <time>2019-03-30T13:17:25Z</time>
      </trkpt>
      <trkpt lat="49.28563" lon="4.06283">
        <ele>140</ele>
        <time>2019-03-30T13:17:26Z</time>
      </trkpt>
      <trkpt lat="49.28563" lon="4.06283">
        <ele>140</ele>
        <time>2019-03-30T13:17:27Z</time>
      </trkpt>
      <trkpt lat="49.28563" lon="4.06283">
        <ele>140</ele>
        <time>2019-03-30T13:17:28Z</time>
      </trkpt>
      <trkpt lat="49.28563" lon="4.06283">
        <ele>140</ele>
        <time>2019-03-30T13:17:29Z</time>
      </trkpt>
      <trkpt lat="49.28563" lon="4.06283">
        <ele>140</ele>
        <time>2019-03-30T13:17:30Z</time>
      </trkpt>
      <trkpt lat="49.28563" lon="4.06283">
        <ele>140</ele>
        <time>2019-03-30T13:17:31Z</time>
      </trkpt>
      <trkpt lat="49.28563" lon="4.06283">
        <ele>140</ele>
        <time>2019-03-30T13:17:32Z</time>
      </trkpt>
      <trkpt lat="49.28563" lon="4.06283">
        <ele>140</ele>
        <time>2019-03-30T13:17:33Z</time>
      </trkpt>
      <trkpt lat="49.28563" lon="4.06283">
        <ele>140</ele>
        <time>2019-03-30T13:17:34Z</time>
      </trkpt>
      <trkpt lat="49.28563" lon="4.06283">
        <ele>140</ele>
        <time>2019-03-30T13:17:35Z</time>
      </trkpt>
      <trkpt lat="49.28563" lon="4.06283">
        <ele>140</ele>
        <time>2019-03-30T13:17:36Z</time>
      </trkpt>
      <trkpt lat="49.28563" lon="4.06283">
        <ele>140</ele>
        <time>2019-03-30T13:17:37Z</time>
      </trkpt>
      <trkpt lat="49.28563" lon="4.06283">
        <ele>140</ele>
        <time>2019-03-30T13:17:38Z</time>
      </trkpt>
      <trkpt lat="49.28563" lon="4.06283">
        <ele>140</ele>
        <time>2019-03-30T13:17:39Z</time>
      </trkpt>
      <trkpt lat="49.28563" lon="4.06283">
        <ele>140</ele>
        <time>2019-03-30T13:17:40Z</time>
      </trkpt>
      <trkpt lat="49.28563" lon="4.06283">
        <ele>140</ele>
        <time>2019-03-30T13:17:41Z</time>
      </trkpt>
      <trkpt lat="49.28563" lon="4.06283">
        <ele>140</ele>
        <time>2019-03-30T13:17:42Z</time>
      </trkpt>
      <trkpt lat="49.28563" lon="4.06283">
        <ele>140</ele>
        <time>2019-03-30T13:17:43Z</time>
      </trkpt>
      <trkpt lat="49.28563" lon="4.06283">
        <ele>140</ele>
        <time>2019-03-30T13:17:44Z</time>
      </trkpt>
      <trkpt lat="49.28563" lon="4.06283">
        <ele>140</ele>
        <time>2019-03-30T13:17:45Z</time>
      </trkpt>
      <trkpt lat="49.28563" lon="4.06283">
        <ele>140</ele>
        <time>2019-03-30T13:17:46Z</time>
      </trkpt>
      <trkpt lat="49.28563" lon="4.06283">
        <ele>140</ele>
        <time>2019-03-30T13:17:47Z</time>
      </trkpt>
      <trkpt lat="49.28563" lon="4.06283">
        <ele>140</ele>
        <time>2019-03-30T13:17:48Z</time>
      </trkpt>
      <trkpt lat="49.28563" lon="4.06283">
        <ele>140</ele>
        <time>2019-03-30T13:17:49Z</time>
      </trkpt>
      <trkpt lat="49.28563" lon="4.06283">
        <ele>140</ele>
        <time>2019-03-30T13:17:50Z</time>
      </trkpt>
      <trkpt lat="49.28563" lon="4.06283">
        <ele>140</ele>
        <time>2019-03-30T13:17:51Z</time>
      </trkpt>
      <trkpt lat="49.28563" lon="4.06283">
        <ele>140</ele>
        <time>2019-03-30T13:17:52Z</time>
      </trkpt>
      <trkpt lat="49.28563" lon="4.06283">
        <ele>140</ele>
        <time>2019-03-30T13:17:53Z</time>
      </trkpt>
      <trkpt lat="49.28563" lon="4.06283">
        <ele>140</ele>
        <time>2019-03-30T13:17:54Z</time>
      </trkpt>
      <trkpt lat="49.28563" lon="4.06283">
        <ele>140</ele>
        <time>2019-03-30T13:17:55Z</time>
      </trkpt>
      <trkpt lat="49.28563" lon="4.06283">
        <ele>140</ele>
        <time>2019-03-30T13:17:56Z</time>
      </trkpt>
      <trkpt lat="49.28563" lon="4.06283">
        <ele>140</ele>
        <time>2019-03-30T13:17:57Z</time>
      </trkpt>
      <trkpt lat="49.28563" lon="4.06283">
        <ele>140</ele>
        <time>2019-03-30T13:17:58Z</time>
      </trkpt>
      <trkpt lat="49.28563" lon="4.06283">
        <ele>140</ele>
        <time>2019-03-30T13:17:59Z</time>
      </trkpt>
      <trkpt lat="49.28563" lon="4.06283">
        <ele>140</ele>
        <time>2019-03-30T13:18:00Z</time>
      </trkpt>
      <trkpt lat="49.28563" lon="4.06283">
        <ele>140</ele>
        <time>2019-03-30T13:18:01Z</time>
      </trkpt>
      <trkpt lat="49.28563" lon="4.06283">
        <ele>140</ele>
        <time>2019-03-30T13:18:02Z</time>
      </trkpt>
      <trkpt lat="49.28562" lon="4.06283">
        <ele>140</ele>
        <time>2019-03-30T13:18:03Z</time>
      </trkpt>
      <trkpt lat="49.28562" lon="4.06283">
        <ele>140</ele>
        <time>2019-03-30T13:18:04Z</time>
      </trkpt>
      <trkpt lat="49.28562" lon="4.06283">
        <ele>140</ele>
        <time>2019-03-30T13:18:05Z</time>
      </trkpt>
      <trkpt lat="49.28562" lon="4.06283">
        <ele>140</ele>
        <time>2019-03-30T13:18:06Z</time>
      </trkpt>
      <trkpt lat="49.28562" lon="4.06283">
        <ele>140</ele>
        <time>2019-03-30T13:18:07Z</time>
      </trkpt>
      <trkpt lat="49.28562" lon="4.06283">
        <ele>140</ele>
        <time>2019-03-30T13:18:08Z</time>
      </trkpt>
      <trkpt lat="49.28562" lon="4.06283">
        <ele>140</ele>
        <time>2019-03-30T13:18:09Z</time>
      </trkpt>
      <trkpt lat="49.28562" lon="4.06283">
        <ele>140</ele>
        <time>2019-03-30T13:18:10Z</time>
      </trkpt>
      <trkpt lat="49.28562" lon="4.06283">
        <ele>140</ele>
        <time>2019-03-30T13:18:11Z</time>
      </trkpt>
      <trkpt lat="49.28562" lon="4.06283">
        <ele>140</ele>
        <time>2019-03-30T13:18:12Z</time>
      </trkpt>
      <trkpt lat="49.28562" lon="4.06283">
        <ele>140</ele>
        <time>2019-03-30T13:18:13Z</time>
      </trkpt>
      <trkpt lat="49.28562" lon="4.06283">
        <ele>140</ele>
        <time>2019-03-30T13:18:14Z</time>
      </trkpt>
      <trkpt lat="49.28562" lon="4.06283">
        <ele>140</ele>
        <time>2019-03-30T13:18:15Z</time>
      </trkpt>
      <trkpt lat="49.28562" lon="4.06283">
        <ele>140</ele>
        <time>2019-03-30T13:18:16Z</time>
      </trkpt>
      <trkpt lat="49.28562" lon="4.06283">
        <ele>140</ele>
        <time>2019-03-30T13:18:17Z</time>
      </trkpt>
      <trkpt lat="49.28562" lon="4.06283">
        <ele>140</ele>
        <time>2019-03-30T13:18:18Z</time>
      </trkpt>
      <trkpt lat="49.28562" lon="4.06283">
        <ele>140</ele>
        <time>2019-03-30T13:18:19Z</time>
      </trkpt>
      <trkpt lat="49.28562" lon="4.06283">
        <ele>140</ele>
        <time>2019-03-30T13:18:20Z</time>
      </trkpt>
      <trkpt lat="49.28562" lon="4.06283">
        <ele>140</ele>
        <time>2019-03-30T13:18:21Z</time>
      </trkpt>
      <trkpt lat="49.28562" lon="4.06283">
        <ele>140</ele>
        <time>2019-03-30T13:18:22Z</time>
      </trkpt>
      <trkpt lat="49.28562" lon="4.06283">
        <ele>140</ele>
        <time>2019-03-30T13:18:23Z</time>
      </trkpt>
      <trkpt lat="49.28562" lon="4.06283">
        <ele>140</ele>
        <time>2019-03-30T13:18:24Z</time>
      </trkpt>
      <trkpt lat="49.28562" lon="4.06283">
        <ele>140</ele>
        <time>2019-03-30T13:18:25Z</time>
      </trkpt>
      <trkpt lat="49.28562" lon="4.06283">
        <ele>140</ele>
        <time>2019-03-30T13:18:26Z</time>
      </trkpt>
      <trkpt lat="49.28562" lon="4.06283">
        <ele>140</ele>
        <time>2019-03-30T13:18:27Z</time>
      </trkpt>
      <trkpt lat="49.28562" lon="4.06283">
        <ele>140</ele>
        <time>2019-03-30T13:18:28Z</time>
      </trkpt>
      <trkpt lat="49.28562" lon="4.06283">
        <ele>140</ele>
        <time>2019-03-30T13:18:29Z</time>
      </trkpt>
      <trkpt lat="49.28562" lon="4.06283">
        <ele>140</ele>
        <time>2019-03-30T13:18:30Z</time>
      </trkpt>
      <trkpt lat="49.28562" lon="4.06283">
        <ele>140</ele>
        <time>2019-03-30T13:18:31Z</time>
      </trkpt>
      <trkpt lat="49.28562" lon="4.06283">
        <ele>140</ele>
        <time>2019-03-30T13:18:32Z</time>
      </trkpt>
      <trkpt lat="49.28562" lon="4.06283">
        <ele>140</ele>
        <time>2019-03-30T13:18:33Z</time>
      </trkpt>
      <trkpt lat="49.28562" lon="4.06283">
        <ele>140</ele>
        <time>2019-03-30T13:18:34Z</time>
      </trkpt>
      <trkpt lat="49.28562" lon="4.06283">
        <ele>140</ele>
        <time>2019-03-30T13:18:35Z</time>
      </trkpt>
      <trkpt lat="49.28562" lon="4.06283">
        <ele>140</ele>
        <time>2019-03-30T13:18:36Z</time>
      </trkpt>
      <trkpt lat="49.28562" lon="4.06283">
        <ele>140</ele>
        <time>2019-03-30T13:18:37Z</time>
      </trkpt>
      <trkpt lat="49.28562" lon="4.06283">
        <ele>140</ele>
        <time>2019-03-30T13:18:38Z</time>
      </trkpt>
      <trkpt lat="49.28562" lon="4.06283">
        <ele>140</ele>
        <time>2019-03-30T13:18:39Z</time>
      </trkpt>
      <trkpt lat="49.28562" lon="4.06283">
        <ele>140</ele>
        <time>2019-03-30T13:18:40Z</time>
      </trkpt>
      <trkpt lat="49.28562" lon="4.06282">
        <ele>140</ele>
        <time>2019-03-30T13:18:41Z</time>
      </trkpt>
      <trkpt lat="49.28562" lon="4.06282">
        <ele>141</ele>
        <time>2019-03-30T13:18:42Z</time>
      </trkpt>
      <trkpt lat="49.28561" lon="4.06283">
        <ele>141</ele>
        <time>2019-03-30T13:18:43Z</time>
      </trkpt>
      <trkpt lat="49.28561" lon="4.06283">
        <ele>141</ele>
        <time>2019-03-30T13:18:44Z</time>
      </trkpt>
      <trkpt lat="49.28561" lon="4.06283">
        <ele>141</ele>
        <time>2019-03-30T13:18:45Z</time>
      </trkpt>
      <trkpt lat="49.28562" lon="4.06284">
        <ele>141</ele>
        <time>2019-03-30T13:18:46Z</time>
      </trkpt>
      <trkpt lat="49.28562" lon="4.06284">
        <ele>141</ele>
        <time>2019-03-30T13:18:47Z</time>
      </trkpt>
      <trkpt lat="49.28562" lon="4.06284">
        <ele>141</ele>
        <time>2019-03-30T13:18:48Z</time>
      </trkpt>
      <trkpt lat="49.28562" lon="4.06284">
        <ele>141</ele>
        <time>2019-03-30T13:18:49Z</time>
      </trkpt>
      <trkpt lat="49.28562" lon="4.06284">
        <ele>141</ele>
        <time>2019-03-30T13:18:50Z</time>
      </trkpt>
      <trkpt lat="49.28562" lon="4.06284">
        <ele>141</ele>
        <time>2019-03-30T13:18:51Z</time>
      </trkpt>
      <trkpt lat="49.28562" lon="4.06284">
        <ele>141</ele>
        <time>2019-03-30T13:18:52Z</time>
      </trkpt>
      <trkpt lat="49.28562" lon="4.06284">
        <ele>141</ele>
        <time>2019-03-30T13:18:53Z</time>
      </trkpt>
      <trkpt lat="49.28562" lon="4.06284">
        <ele>141</ele>
        <time>2019-03-30T13:18:54Z</time>
      </trkpt>
      <trkpt lat="49.28562" lon="4.06284">
        <ele>141</ele>
        <time>2019-03-30T13:18:55Z</time>
      </trkpt>
      <trkpt lat="49.28562" lon="4.06284">
        <ele>141</ele>
        <time>2019-03-30T13:18:56Z</time>
      </trkpt>
      <trkpt lat="49.28562" lon="4.06284">
        <ele>141</ele>
        <time>2019-03-30T13:18:57Z</time>
      </trkpt>
      <trkpt lat="49.28562" lon="4.06284">
        <ele>141</ele>
        <time>2019-03-30T13:18:58Z</time>
      </trkpt>
      <trkpt lat="49.28562" lon="4.06284">
        <ele>141</ele>
        <time>2019-03-30T13:18:59Z</time>
      </trkpt>
      <trkpt lat="49.28562" lon="4.06284">
        <ele>141</ele>
        <time>2019-03-30T13:19:00Z</time>
      </trkpt>
      <trkpt lat="49.28562" lon="4.06284">
        <ele>141</ele>
        <time>2019-03-30T13:19:01Z</time>
      </trkpt>
      <trkpt lat="49.28562" lon="4.06284">
        <ele>141</ele>
        <time>2019-03-30T13:19:02Z</time>
      </trkpt>
      <trkpt lat="49.28562" lon="4.06284">
        <ele>141</ele>
        <time>2019-03-30T13:19:03Z</time>
      </trkpt>
      <trkpt lat="49.28562" lon="4.06284">
        <ele>141</ele>
        <time>2019-03-30T13:19:04Z</time>
      </trkpt>
      <trkpt lat="49.28562" lon="4.06283">
        <ele>141</ele>
        <time>2019-03-30T13:19:05Z</time>
      </trkpt>
      <trkpt lat="49.28562" lon="4.06284">
        <ele>141</ele>
        <time>2019-03-30T13:19:06Z</time>
      </trkpt>
      <trkpt lat="49.28563" lon="4.06285">
        <ele>141</ele>
        <time>2019-03-30T13:19:07Z</time>
      </trkpt>
      <trkpt lat="49.28563" lon="4.06285">
        <ele>141</ele>
        <time>2019-03-30T13:19:08Z</time>
      </trkpt>
      <trkpt lat="49.28563" lon="4.06286">
        <ele>141</ele>
        <time>2019-03-30T13:19:09Z</time>
      </trkpt>
      <trkpt lat="49.28563" lon="4.06286">
        <ele>141</ele>
        <time>2019-03-30T13:19:10Z</time>
      </trkpt>
      <trkpt lat="49.28563" lon="4.06286">
        <ele>141</ele>
        <time>2019-03-30T13:19:11Z</time>
      </trkpt>
      <trkpt lat="49.28563" lon="4.06286">
        <ele>141</ele>
        <time>2019-03-30T13:19:12Z</time>
      </trkpt>
      <trkpt lat="49.28563" lon="4.06286">
        <ele>141</ele>
        <time>2019-03-30T13:19:13Z</time>
      </trkpt>
      <trkpt lat="49.28563" lon="4.06286">
        <ele>141</ele>
        <time>2019-03-30T13:19:14Z</time>
      </trkpt>
      <trkpt lat="49.28563" lon="4.06286">
        <ele>141</ele>
        <time>2019-03-30T13:19:15Z</time>
      </trkpt>
      <trkpt lat="49.28563" lon="4.06286">
        <ele>141</ele>
        <time>2019-03-30T13:19:16Z</time>
      </trkpt>
      <trkpt lat="49.28563" lon="4.06286">
        <ele>141</ele>
        <time>2019-03-30T13:19:17Z</time>
      </trkpt>
      <trkpt lat="49.28563" lon="4.06286">
        <ele>141</ele>
        <time>2019-03-30T13:19:18Z</time>
      </trkpt>
      <trkpt lat="49.28563" lon="4.06286">
        <ele>141</ele>
        <time>2019-03-30T13:19:19Z</time>
      </trkpt>
      <trkpt lat="49.28563" lon="4.06286">
        <ele>141</ele>
        <time>2019-03-30T13:19:20Z</time>
      </trkpt>
      <trkpt lat="49.28563" lon="4.06286">
        <ele>141</ele>
        <time>2019-03-30T13:19:21Z</time>
      </trkpt>
      <trkpt lat="49.28563" lon="4.06286">
        <ele>141</ele>
        <time>2019-03-30T13:19:22Z</time>
      </trkpt>
      <trkpt lat="49.28563" lon="4.06286">
        <ele>141</ele>
        <time>2019-03-30T13:19:23Z</time>
      </trkpt>
      <trkpt lat="49.28563" lon="4.06286">
        <ele>141</ele>
        <time>2019-03-30T13:19:24Z</time>
      </trkpt>
      <trkpt lat="49.28563" lon="4.06286">
        <ele>141</ele>
        <time>2019-03-30T13:19:25Z</time>
      </trkpt>
      <trkpt lat="49.28563" lon="4.06286">
        <ele>141</ele>
        <time>2019-03-30T13:19:26Z</time>
      </trkpt>
      <trkpt lat="49.28563" lon="4.06286">
        <ele>141</ele>
        <time>2019-03-30T13:19:27Z</time>
      </trkpt>
      <trkpt lat="49.28563" lon="4.06286">
        <ele>141</ele>
        <time>2019-03-30T13:19:28Z</time>
      </trkpt>
      <trkpt lat="49.28563" lon="4.06286">
        <ele>141</ele>
        <time>2019-03-30T13:19:29Z</time>
      </trkpt>
      <trkpt lat="49.28563" lon="4.06286">
        <ele>141</ele>
        <time>2019-03-30T13:19:30Z</time>
      </trkpt>
      <trkpt lat="49.28563" lon="4.06286">
        <ele>141</ele>
        <time>2019-03-30T13:19:31Z</time>
      </trkpt>
      <trkpt lat="49.28563" lon="4.06286">
        <ele>141</ele>
        <time>2019-03-30T13:19:32Z</time>
      </trkpt>
      <trkpt lat="49.28563" lon="4.06286">
        <ele>141</ele>
        <time>2019-03-30T13:19:33Z</time>
      </trkpt>
      <trkpt lat="49.28563" lon="4.06286">
        <ele>141</ele>
        <time>2019-03-30T13:19:34Z</time>
      </trkpt>
      <trkpt lat="49.28563" lon="4.06286">
        <ele>141</ele>
        <time>2019-03-30T13:19:35Z</time>
      </trkpt>
      <trkpt lat="49.28563" lon="4.06286">
        <ele>141</ele>
        <time>2019-03-30T13:19:36Z</time>
      </trkpt>
      <trkpt lat="49.28563" lon="4.06286">
        <ele>141</ele>
        <time>2019-03-30T13:19:37Z</time>
      </trkpt>
      <trkpt lat="49.28563" lon="4.06286">
        <ele>141</ele>
        <time>2019-03-30T13:19:38Z</time>
      </trkpt>
      <trkpt lat="49.28563" lon="4.06286">
        <ele>141</ele>
        <time>2019-03-30T13:19:39Z</time>
      </trkpt>
      <trkpt lat="49.28563" lon="4.06286">
        <ele>141</ele>
        <time>2019-03-30T13:19:40Z</time>
      </trkpt>
      <trkpt lat="49.28563" lon="4.06286">
        <ele>141</ele>
        <time>2019-03-30T13:19:41Z</time>
      </trkpt>
      <trkpt lat="49.28563" lon="4.06286">
        <ele>141</ele>
        <time>2019-03-30T13:19:42Z</time>
      </trkpt>
      <trkpt lat="49.28563" lon="4.06286">
        <ele>141</ele>
        <time>2019-03-30T13:19:43Z</time>
      </trkpt>
      <trkpt lat="49.28563" lon="4.06286">
        <ele>141</ele>
        <time>2019-03-30T13:19:44Z</time>
      </trkpt>
      <trkpt lat="49.28563" lon="4.06286">
        <ele>141</ele>
        <time>2019-03-30T13:19:45Z</time>
      </trkpt>
      <trkpt lat="49.28563" lon="4.06286">
        <ele>141</ele>
        <time>2019-03-30T13:19:46Z</time>
      </trkpt>
      <trkpt lat="49.28563" lon="4.06286">
        <ele>141</ele>
        <time>2019-03-30T13:19:47Z</time>
      </trkpt>
      <trkpt lat="49.28563" lon="4.06286">
        <ele>141</ele>
        <time>2019-03-30T13:19:48Z</time>
      </trkpt>
      <trkpt lat="49.28563" lon="4.06286">
        <ele>141</ele>
        <time>2019-03-30T13:19:49Z</time>
      </trkpt>
      <trkpt lat="49.28563" lon="4.06286">
        <ele>141</ele>
        <time>2019-03-30T13:19:50Z</time>
      </trkpt>
      <trkpt lat="49.28563" lon="4.06286">
        <ele>141</ele>
        <time>2019-03-30T13:19:51Z</time>
      </trkpt>
      <trkpt lat="49.28563" lon="4.06286">
        <ele>141</ele>
        <time>2019-03-30T13:19:52Z</time>
      </trkpt>
      <trkpt lat="49.28563" lon="4.06286">
        <ele>141</ele>
        <time>2019-03-30T13:19:53Z</time>
      </trkpt>
      <trkpt lat="49.28563" lon="4.06286">
        <ele>141</ele>
        <time>2019-03-30T13:19:54Z</time>
      </trkpt>
      <trkpt lat="49.28563" lon="4.06286">
        <ele>141</ele>
        <time>2019-03-30T13:19:55Z</time>
      </trkpt>
      <trkpt lat="49.28563" lon="4.06286">
        <ele>141</ele>
        <time>2019-03-30T13:19:56Z</time>
      </trkpt>
      <trkpt lat="49.28563" lon="4.06286">
        <ele>141</ele>
        <time>2019-03-30T13:19:57Z</time>
      </trkpt>
      <trkpt lat="49.28563" lon="4.06286">
        <ele>141</ele>
        <time>2019-03-30T13:19:58Z</time>
      </trkpt>
      <trkpt lat="49.28563" lon="4.06286">
        <ele>141</ele>
        <time>2019-03-30T13:19:59Z</time>
      </trkpt>
      <trkpt lat="49.28563" lon="4.06286">
        <ele>141</ele>
        <time>2019-03-30T13:20:00Z</time>
      </trkpt>
      <trkpt lat="49.28563" lon="4.06286">
        <ele>141</ele>
        <time>2019-03-30T13:20:01Z</time>
      </trkpt>
      <trkpt lat="49.28563" lon="4.06286">
        <ele>141</ele>
        <time>2019-03-30T13:20:02Z</time>
      </trkpt>
      <trkpt lat="49.28563" lon="4.06286">
        <ele>141</ele>
        <time>2019-03-30T13:20:03Z</time>
      </trkpt>
      <trkpt lat="49.28563" lon="4.06286">
        <ele>141</ele>
        <time>2019-03-30T13:20:04Z</time>
      </trkpt>
      <trkpt lat="49.28563" lon="4.06286">
        <ele>141</ele>
        <time>2019-03-30T13:20:05Z</time>
      </trkpt>
      <trkpt lat="49.28563" lon="4.06286">
        <ele>141</ele>
        <time>2019-03-30T13:20:06Z</time>
      </trkpt>
      <trkpt lat="49.28563" lon="4.06286">
        <ele>141</ele>
        <time>2019-03-30T13:20:07Z</time>
      </trkpt>
      <trkpt lat="49.28563" lon="4.06286">
        <ele>141</ele>
        <time>2019-03-30T13:20:08Z</time>
      </trkpt>
      <trkpt lat="49.28563" lon="4.06286">
        <ele>141</ele>
        <time>2019-03-30T13:20:09Z</time>
      </trkpt>
      <trkpt lat="49.28563" lon="4.06286">
        <ele>141</ele>
        <time>2019-03-30T13:20:10Z</time>
      </trkpt>
      <trkpt lat="49.28563" lon="4.06286">
        <ele>141</ele>
        <time>2019-03-30T13:20:11Z</time>
      </trkpt>
      <trkpt lat="49.28563" lon="4.06286">
        <ele>141</ele>
        <time>2019-03-30T13:20:12Z</time>
      </trkpt>
      <trkpt lat="49.28563" lon="4.06286">
        <ele>141</ele>
        <time>2019-03-30T13:20:13Z</time>
      </trkpt>
      <trkpt lat="49.28563" lon="4.06286">
        <ele>141</ele>
        <time>2019-03-30T13:20:14Z</time>
      </trkpt>
      <trkpt lat="49.28563" lon="4.06286">
        <ele>141</ele>
        <time>2019-03-30T13:20:15Z</time>
      </trkpt>
      <trkpt lat="49.28563" lon="4.06286">
        <ele>141</ele>
        <time>2019-03-30T13:20:16Z</time>
      </trkpt>
      <trkpt lat="49.28563" lon="4.06286">
        <ele>141</ele>
        <time>2019-03-30T13:20:17Z</time>
      </trkpt>
      <trkpt lat="49.28563" lon="4.06286">
        <ele>141</ele>
        <time>2019-03-30T13:20:18Z</time>
      </trkpt>
      <trkpt lat="49.28563" lon="4.06286">
        <ele>141</ele>
        <time>2019-03-30T13:20:19Z</time>
      </trkpt>
      <trkpt lat="49.28563" lon="4.06286">
        <ele>141</ele>
        <time>2019-03-30T13:20:20Z</time>
      </trkpt>
      <trkpt lat="49.28563" lon="4.06286">
        <ele>141</ele>
        <time>2019-03-30T13:20:21Z</time>
      </trkpt>
      <trkpt lat="49.28563" lon="4.06286">
        <ele>141</ele>
        <time>2019-03-30T13:20:22Z</time>
      </trkpt>
      <trkpt lat="49.28562" lon="4.06286">
        <ele>142</ele>
        <time>2019-03-30T13:20:23Z</time>
      </trkpt>
      <trkpt lat="49.28562" lon="4.06285">
        <ele>142</ele>
        <time>2019-03-30T13:20:24Z</time>
      </trkpt>
      <trkpt lat="49.28562" lon="4.06285">
        <ele>142</ele>
        <time>2019-03-30T13:20:25Z</time>
      </trkpt>
      <trkpt lat="49.28562" lon="4.06285">
        <ele>142</ele>
        <time>2019-03-30T13:20:26Z</time>
      </trkpt>
      <trkpt lat="49.28562" lon="4.06285">
        <ele>142</ele>
        <time>2019-03-30T13:20:27Z</time>
      </trkpt>
      <trkpt lat="49.28562" lon="4.06285">
        <ele>142</ele>
        <time>2019-03-30T13:20:28Z</time>
      </trkpt>
      <trkpt lat="49.28562" lon="4.06285">
        <ele>142</ele>
        <time>2019-03-30T13:20:29Z</time>
      </trkpt>
      <trkpt lat="49.28562" lon="4.06285">
        <ele>142</ele>
        <time>2019-03-30T13:20:30Z</time>
      </trkpt>
      <trkpt lat="49.28562" lon="4.06285">
        <ele>142</ele>
        <time>2019-03-30T13:20:31Z</time>
      </trkpt>
      <trkpt lat="49.28562" lon="4.06285">
        <ele>142</ele>
        <time>2019-03-30T13:20:32Z</time>
      </trkpt>
      <trkpt lat="49.28562" lon="4.06285">
        <ele>142</ele>
        <time>2019-03-30T13:20:33Z</time>
      </trkpt>
      <trkpt lat="49.28562" lon="4.06285">
        <ele>142</ele>
        <time>2019-03-30T13:20:34Z</time>
      </trkpt>
      <trkpt lat="49.28562" lon="4.06285">
        <ele>142</ele>
        <time>2019-03-30T13:20:35Z</time>
      </trkpt>
      <trkpt lat="49.28562" lon="4.06285">
        <ele>142</ele>
        <time>2019-03-30T13:20:36Z</time>
      </trkpt>
      <trkpt lat="49.28562" lon="4.06285">
        <ele>143</ele>
        <time>2019-03-30T13:20:37Z</time>
      </trkpt>
      <trkpt lat="49.28563" lon="4.06282">
        <ele>142</ele>
        <time>2019-03-30T13:20:38Z</time>
      </trkpt>
      <trkpt lat="49.28564" lon="4.0628">
        <ele>142</ele>
        <time>2019-03-30T13:20:39Z</time>
      </trkpt>
      <trkpt lat="49.28566" lon="4.0628">
        <ele>142</ele>
        <time>2019-03-30T13:20:40Z</time>
      </trkpt>
      <trkpt lat="49.28569" lon="4.06279">
        <ele>143</ele>
        <time>2019-03-30T13:20:41Z</time>
      </trkpt>
      <trkpt lat="49.28571" lon="4.06279">
        <ele>143</ele>
        <time>2019-03-30T13:20:42Z</time>
      </trkpt>
      <trkpt lat="49.28574" lon="4.06279">
        <ele>143</ele>
        <time>2019-03-30T13:20:43Z</time>
      </trkpt>
      <trkpt lat="49.28577" lon="4.0628">
        <ele>143</ele>
        <time>2019-03-30T13:20:44Z</time>
      </trkpt>
      <trkpt lat="49.2858" lon="4.06282">
        <ele>143</ele>
        <time>2019-03-30T13:20:45Z</time>
      </trkpt>
      <trkpt lat="49.28583" lon="4.06283">
        <ele>143</ele>
        <time>2019-03-30T13:20:46Z</time>
      </trkpt>
      <trkpt lat="49.28586" lon="4.06286">
        <ele>143</ele>
        <time>2019-03-30T13:20:47Z</time>
      </trkpt>
      <trkpt lat="49.2859" lon="4.06288">
        <ele>143</ele>
        <time>2019-03-30T13:20:48Z</time>
      </trkpt>
      <trkpt lat="49.28594" lon="4.0629">
        <ele>142</ele>
        <time>2019-03-30T13:20:49Z</time>
      </trkpt>
      <trkpt lat="49.28599" lon="4.06292">
        <ele>142</ele>
        <time>2019-03-30T13:20:50Z</time>
      </trkpt>
      <trkpt lat="49.28605" lon="4.06293">
        <ele>141</ele>
        <time>2019-03-30T13:20:51Z</time>
      </trkpt>
      <trkpt lat="49.2861" lon="4.06295">
        <ele>141</ele>
        <time>2019-03-30T13:20:52Z</time>
      </trkpt>
      <trkpt lat="49.28616" lon="4.06297">
        <ele>141</ele>
        <time>2019-03-30T13:20:53Z</time>
      </trkpt>
      <trkpt lat="49.28621" lon="4.06298">
        <ele>142</ele>
        <time>2019-03-30T13:20:54Z</time>
      </trkpt>
      <trkpt lat="49.28627" lon="4.063">
        <ele>142</ele>
        <time>2019-03-30T13:20:55Z</time>
      </trkpt>
      <trkpt lat="49.28632" lon="4.06301">
        <ele>143</ele>
        <time>2019-03-30T13:20:56Z</time>
      </trkpt>
      <trkpt lat="49.28638" lon="4.06303">
        <ele>143</ele>
        <time>2019-03-30T13:20:57Z</time>
      </trkpt>
      <trkpt lat="49.28643" lon="4.06304">
        <ele>143</ele>
        <time>2019-03-30T13:20:58Z</time>
      </trkpt>
      <trkpt lat="49.28648" lon="4.06306">
        <ele>143</ele>
        <time>2019-03-30T13:20:59Z</time>
      </trkpt>
      <trkpt lat="49.28653" lon="4.06307">
        <ele>143</ele>
        <time>2019-03-30T13:21:00Z</time>
      </trkpt>
      <trkpt lat="49.28658" lon="4.06309">
        <ele>143</ele>
        <time>2019-03-30T13:21:01Z</time>
      </trkpt>
      <trkpt lat="49.28663" lon="4.0631">
        <ele>143</ele>
        <time>2019-03-30T13:21:02Z</time>
      </trkpt>
      <trkpt lat="49.28668" lon="4.06312">
        <ele>143</ele>
        <time>2019-03-30T13:21:03Z</time>
      </trkpt>
      <trkpt lat="49.28673" lon="4.06313">
        <ele>143</ele>
        <time>2019-03-30T13:21:04Z</time>
      </trkpt>
      <trkpt lat="49.28678" lon="4.06314">
        <ele>143</ele>
        <time>2019-03-30T13:21:05Z</time>
      </trkpt>
      <trkpt lat="49.28683" lon="4.06316">
        <ele>143</ele>
        <time>2019-03-30T13:21:06Z</time>
      </trkpt>
      <trkpt lat="49.28688" lon="4.06317">
        <ele>142</ele>
        <time>2019-03-30T13:21:07Z</time>
      </trkpt>
      <trkpt lat="49.28694" lon="4.06319">
        <ele>142</ele>
        <time>2019-03-30T13:21:08Z</time>
      </trkpt>
      <trkpt lat="49.28699" lon="4.06321">
        <ele>142</ele>
        <time>2019-03-30T13:21:09Z</time>
      </trkpt>
      <trkpt lat="49.28705" lon="4.06322">
        <ele>142</ele>
        <time>2019-03-30T13:21:10Z</time>
      </trkpt>
      <trkpt lat="49.28711" lon="4.06324">
        <ele>142</ele>
        <time>2019-03-30T13:21:11Z</time>
      </trkpt>
      <trkpt lat="49.28717" lon="4.06325">
        <ele>142</ele>
        <time>2019-03-30T13:21:12Z</time>
      </trkpt>
      <trkpt lat="49.28723" lon="4.06327">
        <ele>142</ele>
        <time>2019-03-30T13:21:13Z</time>
      </trkpt>
      <trkpt lat="49.28728" lon="4.06329">
        <ele>141</ele>
        <time>2019-03-30T13:21:14Z</time>
      </trkpt>
      <trkpt lat="49.28734" lon="4.06331">
        <ele>141</ele>
        <time>2019-03-30T13:21:15Z</time>
      </trkpt>
      <trkpt lat="49.2874" lon="4.06332">
        <ele>141</ele>
        <time>2019-03-30T13:21:16Z</time>
      </trkpt>
      <trkpt lat="49.28746" lon="4.06334">
        <ele>141</ele>
        <time>2019-03-30T13:21:17Z</time>
      </trkpt>
      <trkpt lat="49.28752" lon="4.06335">
        <ele>141</ele>
        <time>2019-03-30T13:21:18Z</time>
      </trkpt>
      <trkpt lat="49.28758" lon="4.06337">
        <ele>141</ele>
        <time>2019-03-30T13:21:19Z</time>
      </trkpt>
      <trkpt lat="49.28764" lon="4.06339">
        <ele>141</ele>
        <time>2019-03-30T13:21:20Z</time>
      </trkpt>
      <trkpt lat="49.28771" lon="4.06341">
        <ele>141</ele>
        <time>2019-03-30T13:21:21Z</time>
      </trkpt>
      <trkpt lat="49.28777" lon="4.06342">
        <ele>141</ele>
        <time>2019-03-30T13:21:22Z</time>
      </trkpt>
      <trkpt lat="49.28784" lon="4.06343">
        <ele>141</ele>
        <time>2019-03-30T13:21:23Z</time>
      </trkpt>
      <trkpt lat="49.2879" lon="4.06344">
        <ele>141</ele>
        <time>2019-03-30T13:21:24Z</time>
      </trkpt>
      <trkpt lat="49.28797" lon="4.06347">
        <ele>140</ele>
        <time>2019-03-30T13:21:25Z</time>
      </trkpt>
      <trkpt lat="49.28804" lon="4.06348">
        <ele>140</ele>
        <time>2019-03-30T13:21:26Z</time>
      </trkpt>
      <trkpt lat="49.2881" lon="4.0635">
        <ele>140</ele>
        <time>2019-03-30T13:21:27Z</time>
      </trkpt>
      <trkpt lat="49.28817" lon="4.06351">
        <ele>140</ele>
        <time>2019-03-30T13:21:28Z</time>
      </trkpt>
      <trkpt lat="49.28823" lon="4.06353">
        <ele>140</ele>
        <time>2019-03-30T13:21:29Z</time>
      </trkpt>
      <trkpt lat="49.2883" lon="4.06355">
        <ele>139</ele>
        <time>2019-03-30T13:21:30Z</time>
      </trkpt>
      <trkpt lat="49.28837" lon="4.06356">
        <ele>139</ele>
        <time>2019-03-30T13:21:31Z</time>
      </trkpt>
      <trkpt lat="49.28844" lon="4.06357">
        <ele>139</ele>
        <time>2019-03-30T13:21:32Z</time>
      </trkpt>
      <trkpt lat="49.28851" lon="4.06358">
        <ele>139</ele>
        <time>2019-03-30T13:21:33Z</time>
      </trkpt>
      <trkpt lat="49.28858" lon="4.06359">
        <ele>139</ele>
        <time>2019-03-30T13:21:34Z</time>
      </trkpt>
      <trkpt lat="49.28865" lon="4.06361">
        <ele>139</ele>
        <time>2019-03-30T13:21:35Z</time>
      </trkpt>
      <trkpt lat="49.28873" lon="4.06363">
        <ele>139</ele>
        <time>2019-03-30T13:21:36Z</time>
      </trkpt>
      <trkpt lat="49.2888" lon="4.06364">
        <ele>139</ele>
        <time>2019-03-30T13:21:37Z</time>
      </trkpt>
      <trkpt lat="49.28887" lon="4.06366">
        <ele>139</ele>
        <time>2019-03-30T13:21:38Z</time>
      </trkpt>
      <trkpt lat="49.28894" lon="4.06367">
        <ele>139</ele>
        <time>2019-03-30T13:21:39Z</time>
      </trkpt>
      <trkpt lat="49.28901" lon="4.06368">
        <ele>139</ele>
        <time>2019-03-30T13:21:40Z</time>
      </trkpt>
      <trkpt lat="49.28908" lon="4.06369">
        <ele>139</ele>
        <time>2019-03-30T13:21:41Z</time>
      </trkpt>
      <trkpt lat="49.28916" lon="4.0637">
        <ele>139</ele>
        <time>2019-03-30T13:21:42Z</time>
      </trkpt>
      <trkpt lat="49.28923" lon="4.06371">
        <ele>139</ele>
        <time>2019-03-30T13:21:43Z</time>
      </trkpt>
      <trkpt lat="49.2893" lon="4.06373">
        <ele>139</ele>
        <time>2019-03-30T13:21:44Z</time>
      </trkpt>
      <trkpt lat="49.28937" lon="4.06374">
        <ele>139</ele>
        <time>2019-03-30T13:21:45Z</time>
      </trkpt>
      <trkpt lat="49.28945" lon="4.06375">
        <ele>139</ele>
        <time>2019-03-30T13:21:46Z</time>
      </trkpt>
      <trkpt lat="49.28952" lon="4.06376">
        <ele>139</ele>
        <time>2019-03-30T13:21:47Z</time>
      </trkpt>
      <trkpt lat="49.28959" lon="4.06377">
        <ele>139</ele>
        <time>2019-03-30T13:21:48Z</time>
      </trkpt>
      <trkpt lat="49.28966" lon="4.06379">
        <ele>139</ele>
        <time>2019-03-30T13:21:49Z</time>
      </trkpt>
      <trkpt lat="49.28972" lon="4.06381">
        <ele>139</ele>
        <time>2019-03-30T13:21:50Z</time>
      </trkpt>
      <trkpt lat="49.28979" lon="4.06382">
        <ele>139</ele>
        <time>2019-03-30T13:21:51Z</time>
      </trkpt>
      <trkpt lat="49.28987" lon="4.06383">
        <ele>139</ele>
        <time>2019-03-30T13:21:52Z</time>
      </trkpt>
      <trkpt lat="49.28994" lon="4.06385">
        <ele>139</ele>
        <time>2019-03-30T13:21:53Z</time>
      </trkpt>
      <trkpt lat="49.29002" lon="4.06384">
        <ele>139</ele>
        <time>2019-03-30T13:21:54Z</time>
      </trkpt>
      <trkpt lat="49.29009" lon="4.06383">
        <ele>139</ele>
        <time>2019-03-30T13:21:55Z</time>
      </trkpt>
      <trkpt lat="49.29017" lon="4.06382">
        <ele>139</ele>
        <time>2019-03-30T13:21:56Z</time>
      </trkpt>
      <trkpt lat="49.29024" lon="4.06384">
        <ele>139</ele>
        <time>2019-03-30T13:21:57Z</time>
      </trkpt>
      <trkpt lat="49.29031" lon="4.06386">
        <ele>139</ele>
        <time>2019-03-30T13:21:58Z</time>
      </trkpt>
      <trkpt lat="49.29038" lon="4.06387">
        <ele>139</ele>
        <time>2019-03-30T13:21:59Z</time>
      </trkpt>
      <trkpt lat="49.29044" lon="4.06388">
        <ele>139</ele>
        <time>2019-03-30T13:22:00Z</time>
      </trkpt>
      <trkpt lat="49.29052" lon="4.06388">
        <ele>139</ele>
        <time>2019-03-30T13:22:01Z</time>
      </trkpt>
      <trkpt lat="49.29058" lon="4.06389">
        <ele>139</ele>
        <time>2019-03-30T13:22:02Z</time>
      </trkpt>
      <trkpt lat="49.29065" lon="4.0639">
        <ele>139</ele>
        <time>2019-03-30T13:22:03Z</time>
      </trkpt>
      <trkpt lat="49.29071" lon="4.0639">
        <ele>139</ele>
        <time>2019-03-30T13:22:04Z</time>
      </trkpt>
      <trkpt lat="49.29078" lon="4.06391">
        <ele>140</ele>
        <time>2019-03-30T13:22:05Z</time>
      </trkpt>
      <trkpt lat="49.29084" lon="4.06391">
        <ele>140</ele>
        <time>2019-03-30T13:22:06Z</time>
      </trkpt>
      <trkpt lat="49.2909" lon="4.06392">
        <ele>140</ele>
        <time>2019-03-30T13:22:07Z</time>
      </trkpt>
      <trkpt lat="49.29097" lon="4.06392">
        <ele>140</ele>
        <time>2019-03-30T13:22:08Z</time>
      </trkpt>
      <trkpt lat="49.29103" lon="4.06393">
        <ele>140</ele>
        <time>2019-03-30T13:22:09Z</time>
      </trkpt>
      <trkpt lat="49.2911" lon="4.06394">
        <ele>140</ele>
        <time>2019-03-30T13:22:10Z</time>
      </trkpt>
      <trkpt lat="49.29116" lon="4.06395">
        <ele>141</ele>
        <time>2019-03-30T13:22:11Z</time>
      </trkpt>
      <trkpt lat="49.29123" lon="4.06396">
        <ele>141</ele>
        <time>2019-03-30T13:22:12Z</time>
      </trkpt>
      <trkpt lat="49.29129" lon="4.06396">
        <ele>141</ele>
        <time>2019-03-30T13:22:13Z</time>
      </trkpt>
      <trkpt lat="49.29135" lon="4.06396">
        <ele>141</ele>
        <time>2019-03-30T13:22:14Z</time>
      </trkpt>
      <trkpt lat="49.29141" lon="4.06397">
        <ele>142</ele>
        <time>2019-03-30T13:22:15Z</time>
      </trkpt>
      <trkpt lat="49.29148" lon="4.06398">
        <ele>141</ele>
        <time>2019-03-30T13:22:16Z</time>
      </trkpt>
      <trkpt lat="49.29154" lon="4.06399">
        <ele>141</ele>
        <time>2019-03-30T13:22:17Z</time>
      </trkpt>
      <trkpt lat="49.29161" lon="4.064">
        <ele>141</ele>
        <time>2019-03-30T13:22:18Z</time>
      </trkpt>
      <trkpt lat="49.29168" lon="4.06401">
        <ele>141</ele>
        <time>2019-03-30T13:22:19Z</time>
      </trkpt>
      <trkpt lat="49.29174" lon="4.06402">
        <ele>141</ele>
        <time>2019-03-30T13:22:20Z</time>
      </trkpt>
      <trkpt lat="49.29181" lon="4.06403">
        <ele>141</ele>
        <time>2019-03-30T13:22:21Z</time>
      </trkpt>
      <trkpt lat="49.29187" lon="4.06403">
        <ele>141</ele>
        <time>2019-03-30T13:22:22Z</time>
      </trkpt>
      <trkpt lat="49.29194" lon="4.06404">
        <ele>141</ele>
        <time>2019-03-30T13:22:23Z</time>
      </trkpt>
      <trkpt lat="49.292" lon="4.06404">
        <ele>141</ele>
        <time>2019-03-30T13:22:24Z</time>
      </trkpt>
      <trkpt lat="49.29207" lon="4.06405">
        <ele>141</ele>
        <time>2019-03-30T13:22:25Z</time>
      </trkpt>
      <trkpt lat="49.29214" lon="4.06405">
        <ele>141</ele>
        <time>2019-03-30T13:22:26Z</time>
      </trkpt>
      <trkpt lat="49.29221" lon="4.06406">
        <ele>141</ele>
        <time>2019-03-30T13:22:27Z</time>
      </trkpt>
      <trkpt lat="49.29227" lon="4.06407">
        <ele>141</ele>
        <time>2019-03-30T13:22:28Z</time>
      </trkpt>
      <trkpt lat="49.29235" lon="4.06407">
        <ele>141</ele>
        <time>2019-03-30T13:22:29Z</time>
      </trkpt>
      <trkpt lat="49.29242" lon="4.06408">
        <ele>141</ele>
        <time>2019-03-30T13:22:30Z</time>
      </trkpt>
      <trkpt lat="49.29249" lon="4.06409">
        <ele>140</ele>
        <time>2019-03-30T13:22:31Z</time>
      </trkpt>
      <trkpt lat="49.29256" lon="4.0641">
        <ele>140</ele>
        <time>2019-03-30T13:22:32Z</time>
      </trkpt>
      <trkpt lat="49.29264" lon="4.06411">
        <ele>140</ele>
        <time>2019-03-30T13:22:33Z</time>
      </trkpt>
      <trkpt lat="49.29271" lon="4.06412">
        <ele>140</ele>
        <time>2019-03-30T13:22:34Z</time>
      </trkpt>
      <trkpt lat="49.29278" lon="4.06413">
        <ele>140</ele>
        <time>2019-03-30T13:22:35Z</time>
      </trkpt>
      <trkpt lat="49.29285" lon="4.06413">
        <ele>139</ele>
        <time>2019-03-30T13:22:36Z</time>
      </trkpt>
      <trkpt lat="49.29292" lon="4.06414">
        <ele>139</ele>
        <time>2019-03-30T13:22:37Z</time>
      </trkpt>
      <trkpt lat="49.29299" lon="4.06415">
        <ele>139</ele>
        <time>2019-03-30T13:22:38Z</time>
      </trkpt>
      <trkpt lat="49.29307" lon="4.06416">
        <ele>139</ele>
        <time>2019-03-30T13:22:39Z</time>
      </trkpt>
      <trkpt lat="49.29313" lon="4.06416">
        <ele>140</ele>
        <time>2019-03-30T13:22:40Z</time>
      </trkpt>
      <trkpt lat="49.2932" lon="4.06417">
        <ele>140</ele>
        <time>2019-03-30T13:22:41Z</time>
      </trkpt>
      <trkpt lat="49.29327" lon="4.06418">
        <ele>139</ele>
        <time>2019-03-30T13:22:42Z</time>
      </trkpt>
      <trkpt lat="49.29334" lon="4.06418">
        <ele>139</ele>
        <time>2019-03-30T13:22:43Z</time>
      </trkpt>
      <trkpt lat="49.29341" lon="4.06419">
        <ele>139</ele>
        <time>2019-03-30T13:22:44Z</time>
      </trkpt>
      <trkpt lat="49.29348" lon="4.0642">
        <ele>139</ele>
        <time>2019-03-30T13:22:45Z</time>
      </trkpt>
      <trkpt lat="49.29355" lon="4.06421">
        <ele>139</ele>
        <time>2019-03-30T13:22:46Z</time>
      </trkpt>
      <trkpt lat="49.29362" lon="4.06421">
        <ele>139</ele>
        <time>2019-03-30T13:22:47Z</time>
      </trkpt>
      <trkpt lat="49.2937" lon="4.06422">
        <ele>139</ele>
        <time>2019-03-30T13:22:48Z</time>
      </trkpt>
      <trkpt lat="49.29377" lon="4.06422">
        <ele>139</ele>
        <time>2019-03-30T13:22:49Z</time>
      </trkpt>
      <trkpt lat="49.29384" lon="4.06423">
        <ele>139</ele>
        <time>2019-03-30T13:22:50Z</time>
      </trkpt>
      <trkpt lat="49.29392" lon="4.06424">
        <ele>139</ele>
        <time>2019-03-30T13:22:51Z</time>
      </trkpt>
      <trkpt lat="49.29399" lon="4.06426">
        <ele>139</ele>
        <time>2019-03-30T13:22:52Z</time>
      </trkpt>
      <trkpt lat="49.29406" lon="4.06426">
        <ele>139</ele>
        <time>2019-03-30T13:22:53Z</time>
      </trkpt>
      <trkpt lat="49.29413" lon="4.06427">
        <ele>139</ele>
        <time>2019-03-30T13:22:54Z</time>
      </trkpt>
      <trkpt lat="49.2942" lon="4.06427">
        <ele>139</ele>
        <time>2019-03-30T13:22:55Z</time>
      </trkpt>
      <trkpt lat="49.29428" lon="4.06429">
        <ele>139</ele>
        <time>2019-03-30T13:22:56Z</time>
      </trkpt>
      <trkpt lat="49.29435" lon="4.06429">
        <ele>139</ele>
        <time>2019-03-30T13:22:57Z</time>
      </trkpt>
      <trkpt lat="49.29442" lon="4.0643">
        <ele>139</ele>
        <time>2019-03-30T13:22:58Z</time>
      </trkpt>
      <trkpt lat="49.2945" lon="4.06431">
        <ele>139</ele>
        <time>2019-03-30T13:22:59Z</time>
      </trkpt>
      <trkpt lat="49.29457" lon="4.06432">
        <ele>139</ele>
        <time>2019-03-30T13:23:00Z</time>
      </trkpt>
      <trkpt lat="49.29464" lon="4.06433">
        <ele>139</ele>
        <time>2019-03-30T13:23:01Z</time>
      </trkpt>
      <trkpt lat="49.29471" lon="4.06434">
        <ele>139</ele>
        <time>2019-03-30T13:23:02Z</time>
      </trkpt>
      <trkpt lat="49.29479" lon="4.06435">
        <ele>139</ele>
        <time>2019-03-30T13:23:03Z</time>
      </trkpt>
      <trkpt lat="49.29486" lon="4.06435">
        <ele>139</ele>
        <time>2019-03-30T13:23:04Z</time>
      </trkpt>
      <trkpt lat="49.29492" lon="4.06435">
        <ele>139</ele>
        <time>2019-03-30T13:23:05Z</time>
      </trkpt>
      <trkpt lat="49.29499" lon="4.06435">
        <ele>139</ele>
        <time>2019-03-30T13:23:06Z</time>
      </trkpt>
      <trkpt lat="49.29506" lon="4.06436">
        <ele>139</ele>
        <time>2019-03-30T13:23:07Z</time>
      </trkpt>
      <trkpt lat="49.29512" lon="4.06437">
        <ele>139</ele>
        <time>2019-03-30T13:23:08Z</time>
      </trkpt>
      <trkpt lat="49.29519" lon="4.06438">
        <ele>139</ele>
        <time>2019-03-30T13:23:09Z</time>
      </trkpt>
      <trkpt lat="49.29526" lon="4.06439">
        <ele>139</ele>
        <time>2019-03-30T13:23:10Z</time>
      </trkpt>
      <trkpt lat="49.29533" lon="4.0644">
        <ele>139</ele>
        <time>2019-03-30T13:23:11Z</time>
      </trkpt>
      <trkpt lat="49.2954" lon="4.06441">
        <ele>139</ele>
        <time>2019-03-30T13:23:12Z</time>
      </trkpt>
      <trkpt lat="49.29547" lon="4.06441">
        <ele>139</ele>
        <time>2019-03-30T13:23:13Z</time>
      </trkpt>
      <trkpt lat="49.29554" lon="4.06442">
        <ele>139</ele>
        <time>2019-03-30T13:23:14Z</time>
      </trkpt>
      <trkpt lat="49.2956" lon="4.06443">
        <ele>139</ele>
        <time>2019-03-30T13:23:15Z</time>
      </trkpt>
      <trkpt lat="49.29567" lon="4.06443">
        <ele>139</ele>
        <time>2019-03-30T13:23:16Z</time>
      </trkpt>
      <trkpt lat="49.29574" lon="4.06444">
        <ele>139</ele>
        <time>2019-03-30T13:23:17Z</time>
      </trkpt>
      <trkpt lat="49.29581" lon="4.06445">
        <ele>139</ele>
        <time>2019-03-30T13:23:18Z</time>
      </trkpt>
      <trkpt lat="49.29588" lon="4.06446">
        <ele>139</ele>
        <time>2019-03-30T13:23:19Z</time>
      </trkpt>
      <trkpt lat="49.29595" lon="4.06447">
        <ele>139</ele>
        <time>2019-03-30T13:23:20Z</time>
      </trkpt>
      <trkpt lat="49.29602" lon="4.06448">
        <ele>139</ele>
        <time>2019-03-30T13:23:21Z</time>
      </trkpt>
      <trkpt lat="49.29609" lon="4.06448">
        <ele>138</ele>
        <time>2019-03-30T13:23:22Z</time>
      </trkpt>
      <trkpt lat="49.29616" lon="4.06449">
        <ele>138</ele>
        <time>2019-03-30T13:23:23Z</time>
      </trkpt>
      <trkpt lat="49.29623" lon="4.06449">
        <ele>138</ele>
        <time>2019-03-30T13:23:24Z</time>
      </trkpt>
      <trkpt lat="49.29629" lon="4.0645">
        <ele>139</ele>
        <time>2019-03-30T13:23:25Z</time>
      </trkpt>
      <trkpt lat="49.29636" lon="4.06452">
        <ele>139</ele>
        <time>2019-03-30T13:23:26Z</time>
      </trkpt>
      <trkpt lat="49.29643" lon="4.06453">
        <ele>139</ele>
        <time>2019-03-30T13:23:27Z</time>
      </trkpt>
      <trkpt lat="49.29649" lon="4.06454">
        <ele>139</ele>
        <time>2019-03-30T13:23:28Z</time>
      </trkpt>
      <trkpt lat="49.29656" lon="4.06454">
        <ele>139</ele>
        <time>2019-03-30T13:23:29Z</time>
      </trkpt>
      <trkpt lat="49.29663" lon="4.06455">
        <ele>139</ele>
        <time>2019-03-30T13:23:30Z</time>
      </trkpt>
      <trkpt lat="49.2967" lon="4.06455">
        <ele>139</ele>
        <time>2019-03-30T13:23:31Z</time>
      </trkpt>
      <trkpt lat="49.29677" lon="4.06456">
        <ele>139</ele>
        <time>2019-03-30T13:23:32Z</time>
      </trkpt>
      <trkpt lat="49.29684" lon="4.06457">
        <ele>139</ele>
        <time>2019-03-30T13:23:33Z</time>
      </trkpt>
      <trkpt lat="49.29691" lon="4.06457">
        <ele>139</ele>
        <time>2019-03-30T13:23:34Z</time>
      </trkpt>
      <trkpt lat="49.29697" lon="4.06458">
        <ele>139</ele>
        <time>2019-03-30T13:23:35Z</time>
      </trkpt>
      <trkpt lat="49.29704" lon="4.06458">
        <ele>139</ele>
        <time>2019-03-30T13:23:36Z</time>
      </trkpt>
      <trkpt lat="49.2971" lon="4.06459">
        <ele>139</ele>
        <time>2019-03-30T13:23:37Z</time>
      </trkpt>
      <trkpt lat="49.29717" lon="4.0646">
        <ele>139</ele>
        <time>2019-03-30T13:23:38Z</time>
      </trkpt>
      <trkpt lat="49.29723" lon="4.06461">
        <ele>139</ele>
        <time>2019-03-30T13:23:39Z</time>
      </trkpt>
      <trkpt lat="49.2973" lon="4.06462">
        <ele>139</ele>
        <time>2019-03-30T13:23:40Z</time>
      </trkpt>
      <trkpt lat="49.29736" lon="4.06462">
        <ele>139</ele>
        <time>2019-03-30T13:23:41Z</time>
      </trkpt>
      <trkpt lat="49.29743" lon="4.06463">
        <ele>139</ele>
        <time>2019-03-30T13:23:42Z</time>
      </trkpt>
      <trkpt lat="49.29749" lon="4.06464">
        <ele>139</ele>
        <time>2019-03-30T13:23:43Z</time>
      </trkpt>
      <trkpt lat="49.29755" lon="4.06464">
        <ele>139</ele>
        <time>2019-03-30T13:23:44Z</time>
      </trkpt>
      <trkpt lat="49.29762" lon="4.06465">
        <ele>139</ele>
        <time>2019-03-30T13:23:45Z</time>
      </trkpt>
      <trkpt lat="49.29768" lon="4.06466">
        <ele>139</ele>
        <time>2019-03-30T13:23:46Z</time>
      </trkpt>
      <trkpt lat="49.29775" lon="4.06466">
        <ele>139</ele>
        <time>2019-03-30T13:23:47Z</time>
      </trkpt>
      <trkpt lat="49.29781" lon="4.06467">
        <ele>139</ele>
        <time>2019-03-30T13:23:48Z</time>
      </trkpt>
      <trkpt lat="49.29787" lon="4.06468">
        <ele>139</ele>
        <time>2019-03-30T13:23:49Z</time>
      </trkpt>
      <trkpt lat="49.29793" lon="4.06469">
        <ele>139</ele>
        <time>2019-03-30T13:23:50Z</time>
      </trkpt>
      <trkpt lat="49.29799" lon="4.06469">
        <ele>139</ele>
        <time>2019-03-30T13:23:51Z</time>
      </trkpt>
      <trkpt lat="49.29805" lon="4.0647">
        <ele>140</ele>
        <time>2019-03-30T13:23:52Z</time>
      </trkpt>
      <trkpt lat="49.29811" lon="4.0647">
        <ele>140</ele>
        <time>2019-03-30T13:23:53Z</time>
      </trkpt>
      <trkpt lat="49.29816" lon="4.06471">
        <ele>140</ele>
        <time>2019-03-30T13:23:54Z</time>
      </trkpt>
      <trkpt lat="49.29822" lon="4.06472">
        <ele>140</ele>
        <time>2019-03-30T13:23:55Z</time>
      </trkpt>
      <trkpt lat="49.29828" lon="4.06472">
        <ele>140</ele>
        <time>2019-03-30T13:23:56Z</time>
      </trkpt>
      <trkpt lat="49.29833" lon="4.06472">
        <ele>140</ele>
        <time>2019-03-30T13:23:57Z</time>
      </trkpt>
      <trkpt lat="49.29838" lon="4.06473">
        <ele>141</ele>
        <time>2019-03-30T13:23:58Z</time>
      </trkpt>
      <trkpt lat="49.29844" lon="4.06474">
        <ele>141</ele>
        <time>2019-03-30T13:23:59Z</time>
      </trkpt>
      <trkpt lat="49.29849" lon="4.06474">
        <ele>141</ele>
        <time>2019-03-30T13:24:00Z</time>
      </trkpt>
      <trkpt lat="49.29855" lon="4.06475">
        <ele>141</ele>
        <time>2019-03-30T13:24:01Z</time>
      </trkpt>
      <trkpt lat="49.2986" lon="4.06476">
        <ele>141</ele>
        <time>2019-03-30T13:24:02Z</time>
      </trkpt>
      <trkpt lat="49.29866" lon="4.06476">
        <ele>141</ele>
        <time>2019-03-30T13:24:03Z</time>
      </trkpt>
      <trkpt lat="49.29871" lon="4.06477">
        <ele>141</ele>
        <time>2019-03-30T13:24:04Z</time>
      </trkpt>
      <trkpt lat="49.29877" lon="4.06478">
        <ele>141</ele>
        <time>2019-03-30T13:24:05Z</time>
      </trkpt>
      <trkpt lat="49.29882" lon="4.06478">
        <ele>141</ele>
        <time>2019-03-30T13:24:06Z</time>
      </trkpt>
      <trkpt lat="49.29887" lon="4.06479">
        <ele>142</ele>
        <time>2019-03-30T13:24:07Z</time>
      </trkpt>
      <trkpt lat="49.29893" lon="4.0648">
        <ele>142</ele>
        <time>2019-03-30T13:24:08Z</time>
      </trkpt>
      <trkpt lat="49.29898" lon="4.0648">
        <ele>142</ele>
        <time>2019-03-30T13:24:09Z</time>
      </trkpt>
      <trkpt lat="49.29903" lon="4.06481">
        <ele>142</ele>
        <time>2019-03-30T13:24:10Z</time>
      </trkpt>
      <trkpt lat="49.29909" lon="4.06482">
        <ele>142</ele>
        <time>2019-03-30T13:24:11Z</time>
      </trkpt>
      <trkpt lat="49.29914" lon="4.06483">
        <ele>142</ele>
        <time>2019-03-30T13:24:12Z</time>
      </trkpt>
      <trkpt lat="49.2992" lon="4.06484">
        <ele>142</ele>
        <time>2019-03-30T13:24:13Z</time>
      </trkpt>
      <trkpt lat="49.29925" lon="4.06485">
        <ele>142</ele>
        <time>2019-03-30T13:24:14Z</time>
      </trkpt>
      <trkpt lat="49.2993" lon="4.06485">
        <ele>142</ele>
        <time>2019-03-30T13:24:15Z</time>
      </trkpt>
      <trkpt lat="49.29935" lon="4.06486">
        <ele>142</ele>
        <time>2019-03-30T13:24:16Z</time>
      </trkpt>
      <trkpt lat="49.2994" lon="4.06487">
        <ele>142</ele>
        <time>2019-03-30T13:24:17Z</time>
      </trkpt>
      <trkpt lat="49.29946" lon="4.06488">
        <ele>142</ele>
        <time>2019-03-30T13:24:18Z</time>
      </trkpt>
      <trkpt lat="49.29951" lon="4.0649">
        <ele>142</ele>
        <time>2019-03-30T13:24:19Z</time>
      </trkpt>
      <trkpt lat="49.29956" lon="4.06492">
        <ele>142</ele>
        <time>2019-03-30T13:24:20Z</time>
      </trkpt>
      <trkpt lat="49.29961" lon="4.06494">
        <ele>143</ele>
        <time>2019-03-30T13:24:21Z</time>
      </trkpt>
      <trkpt lat="49.29966" lon="4.06496">
        <ele>143</ele>
        <time>2019-03-30T13:24:22Z</time>
      </trkpt>
      <trkpt lat="49.29972" lon="4.06498">
        <ele>143</ele>
        <time>2019-03-30T13:24:23Z</time>
      </trkpt>
      <trkpt lat="49.29977" lon="4.06499">
        <ele>143</ele>
        <time>2019-03-30T13:24:24Z</time>
      </trkpt>
      <trkpt lat="49.29982" lon="4.06501">
        <ele>143</ele>
        <time>2019-03-30T13:24:25Z</time>
      </trkpt>
      <trkpt lat="49.29987" lon="4.06503">
        <ele>144</ele>
        <time>2019-03-30T13:24:26Z</time>
      </trkpt>
      <trkpt lat="49.29992" lon="4.06505">
        <ele>144</ele>
        <time>2019-03-30T13:24:27Z</time>
      </trkpt>
      <trkpt lat="49.29997" lon="4.06507">
        <ele>144</ele>
        <time>2019-03-30T13:24:28Z</time>
      </trkpt>
      <trkpt lat="49.30003" lon="4.06509">
        <ele>144</ele>
        <time>2019-03-30T13:24:29Z</time>
      </trkpt>
      <trkpt lat="49.30008" lon="4.06512">
        <ele>144</ele>
        <time>2019-03-30T13:24:30Z</time>
      </trkpt>
      <trkpt lat="49.30013" lon="4.06513">
        <ele>144</ele>
        <time>2019-03-30T13:24:31Z</time>
      </trkpt>
      <trkpt lat="49.30019" lon="4.06516">
        <ele>144</ele>
        <time>2019-03-30T13:24:32Z</time>
      </trkpt>
      <trkpt lat="49.30024" lon="4.06517">
        <ele>144</ele>
        <time>2019-03-30T13:24:33Z</time>
      </trkpt>
      <trkpt lat="49.3003" lon="4.0652">
        <ele>145</ele>
        <time>2019-03-30T13:24:34Z</time>
      </trkpt>
      <trkpt lat="49.30035" lon="4.06522">
        <ele>145</ele>
        <time>2019-03-30T13:24:35Z</time>
      </trkpt>
      <trkpt lat="49.30041" lon="4.06524">
        <ele>145</ele>
        <time>2019-03-30T13:24:36Z</time>
      </trkpt>
      <trkpt lat="49.30046" lon="4.06526">
        <ele>145</ele>
        <time>2019-03-30T13:24:37Z</time>
      </trkpt>
      <trkpt lat="49.30052" lon="4.06528">
        <ele>145</ele>
        <time>2019-03-30T13:24:38Z</time>
      </trkpt>
      <trkpt lat="49.30057" lon="4.0653">
        <ele>145</ele>
        <time>2019-03-30T13:24:39Z</time>
      </trkpt>
      <trkpt lat="49.30062" lon="4.06532">
        <ele>145</ele>
        <time>2019-03-30T13:24:40Z</time>
      </trkpt>
      <trkpt lat="49.30068" lon="4.06534">
        <ele>145</ele>
        <time>2019-03-30T13:24:41Z</time>
      </trkpt>
      <trkpt lat="49.30073" lon="4.06536">
        <ele>145</ele>
        <time>2019-03-30T13:24:42Z</time>
      </trkpt>
      <trkpt lat="49.30078" lon="4.06538">
        <ele>145</ele>
        <time>2019-03-30T13:24:43Z</time>
      </trkpt>
      <trkpt lat="49.30084" lon="4.0654">
        <ele>145</ele>
        <time>2019-03-30T13:24:44Z</time>
      </trkpt>
      <trkpt lat="49.30089" lon="4.06542">
        <ele>145</ele>
        <time>2019-03-30T13:24:45Z</time>
      </trkpt>
      <trkpt lat="49.30095" lon="4.06543">
        <ele>145</ele>
        <time>2019-03-30T13:24:46Z</time>
      </trkpt>
      <trkpt lat="49.301" lon="4.06544">
        <ele>145</ele>
        <time>2019-03-30T13:24:47Z</time>
      </trkpt>
      <trkpt lat="49.30106" lon="4.06546">
        <ele>145</ele>
        <time>2019-03-30T13:24:48Z</time>
      </trkpt>
      <trkpt lat="49.30111" lon="4.06549">
        <ele>145</ele>
        <time>2019-03-30T13:24:49Z</time>
      </trkpt>
      <trkpt lat="49.30117" lon="4.06551">
        <ele>145</ele>
        <time>2019-03-30T13:24:50Z</time>
      </trkpt>
      <trkpt lat="49.30122" lon="4.06553">
        <ele>145</ele>
        <time>2019-03-30T13:24:51Z</time>
      </trkpt>
      <trkpt lat="49.30127" lon="4.06555">
        <ele>145</ele>
        <time>2019-03-30T13:24:52Z</time>
      </trkpt>
      <trkpt lat="49.30132" lon="4.06557">
        <ele>145</ele>
        <time>2019-03-30T13:24:53Z</time>
      </trkpt>
      <trkpt lat="49.30138" lon="4.06559">
        <ele>145</ele>
        <time>2019-03-30T13:24:54Z</time>
      </trkpt>
      <trkpt lat="49.30143" lon="4.06561">
        <ele>145</ele>
        <time>2019-03-30T13:24:55Z</time>
      </trkpt>
      <trkpt lat="49.30149" lon="4.06563">
        <ele>145</ele>
        <time>2019-03-30T13:24:56Z</time>
      </trkpt>
      <trkpt lat="49.30154" lon="4.06565">
        <ele>145</ele>
        <time>2019-03-30T13:24:57Z</time>
      </trkpt>
      <trkpt lat="49.3016" lon="4.06567">
        <ele>145</ele>
        <time>2019-03-30T13:24:58Z</time>
      </trkpt>
      <trkpt lat="49.30165" lon="4.06569">
        <ele>145</ele>
        <time>2019-03-30T13:24:59Z</time>
      </trkpt>
      <trkpt lat="49.30171" lon="4.06571">
        <ele>145</ele>
        <time>2019-03-30T13:25:00Z</time>
      </trkpt>
      <trkpt lat="49.30176" lon="4.06573">
        <ele>145</ele>
        <time>2019-03-30T13:25:01Z</time>
      </trkpt>
      <trkpt lat="49.30181" lon="4.06575">
        <ele>145</ele>
        <time>2019-03-30T13:25:02Z</time>
      </trkpt>
      <trkpt lat="49.30187" lon="4.06577">
        <ele>145</ele>
        <time>2019-03-30T13:25:03Z</time>
      </trkpt>
      <trkpt lat="49.30192" lon="4.06579">
        <ele>145</ele>
        <time>2019-03-30T13:25:04Z</time>
      </trkpt>
      <trkpt lat="49.30198" lon="4.06581">
        <ele>145</ele>
        <time>2019-03-30T13:25:05Z</time>
      </trkpt>
      <trkpt lat="49.30203" lon="4.06583">
        <ele>145</ele>
        <time>2019-03-30T13:25:06Z</time>
      </trkpt>
      <trkpt lat="49.30208" lon="4.06585">
        <ele>145</ele>
        <time>2019-03-30T13:25:07Z</time>
      </trkpt>
      <trkpt lat="49.30213" lon="4.06587">
        <ele>146</ele>
        <time>2019-03-30T13:25:08Z</time>
      </trkpt>
      <trkpt lat="49.30219" lon="4.06589">
        <ele>146</ele>
        <time>2019-03-30T13:25:09Z</time>
      </trkpt>
      <trkpt lat="49.30224" lon="4.06591">
        <ele>146</ele>
        <time>2019-03-30T13:25:10Z</time>
      </trkpt>
      <trkpt lat="49.30229" lon="4.06593">
        <ele>146</ele>
        <time>2019-03-30T13:25:11Z</time>
      </trkpt>
      <trkpt lat="49.30234" lon="4.06595">
        <ele>146</ele>
        <time>2019-03-30T13:25:12Z</time>
      </trkpt>
      <trkpt lat="49.3024" lon="4.06597">
        <ele>146</ele>
        <time>2019-03-30T13:25:13Z</time>
      </trkpt>
      <trkpt lat="49.30245" lon="4.066">
        <ele>146</ele>
        <time>2019-03-30T13:25:14Z</time>
      </trkpt>
      <trkpt lat="49.3025" lon="4.06602">
        <ele>146</ele>
        <time>2019-03-30T13:25:15Z</time>
      </trkpt>
      <trkpt lat="49.30255" lon="4.06604">
        <ele>146</ele>
        <time>2019-03-30T13:25:16Z</time>
      </trkpt>
      <trkpt lat="49.3026" lon="4.06606">
        <ele>146</ele>
        <time>2019-03-30T13:25:17Z</time>
      </trkpt>
      <trkpt lat="49.30266" lon="4.06608">
        <ele>146</ele>
        <time>2019-03-30T13:25:18Z</time>
      </trkpt>
      <trkpt lat="49.30271" lon="4.0661">
        <ele>146</ele>
        <time>2019-03-30T13:25:19Z</time>
      </trkpt>
      <trkpt lat="49.30277" lon="4.06611">
        <ele>146</ele>
        <time>2019-03-30T13:25:20Z</time>
      </trkpt>
      <trkpt lat="49.30282" lon="4.06614">
        <ele>146</ele>
        <time>2019-03-30T13:25:21Z</time>
      </trkpt>
      <trkpt lat="49.30288" lon="4.06616">
        <ele>146</ele>
        <time>2019-03-30T13:25:22Z</time>
      </trkpt>
      <trkpt lat="49.30293" lon="4.06618">
        <ele>146</ele>
        <time>2019-03-30T13:25:23Z</time>
      </trkpt>
      <trkpt lat="49.30299" lon="4.0662">
        <ele>146</ele>
        <time>2019-03-30T13:25:24Z</time>
      </trkpt>
      <trkpt lat="49.30305" lon="4.06622">
        <ele>146</ele>
        <time>2019-03-30T13:25:25Z</time>
      </trkpt>
      <trkpt lat="49.30311" lon="4.06624">
        <ele>145</ele>
        <time>2019-03-30T13:25:26Z</time>
      </trkpt>
      <trkpt lat="49.30317" lon="4.06627">
        <ele>145</ele>
        <time>2019-03-30T13:25:27Z</time>
      </trkpt>
      <trkpt lat="49.30323" lon="4.06628">
        <ele>145</ele>
        <time>2019-03-30T13:25:28Z</time>
      </trkpt>
      <trkpt lat="49.30329" lon="4.06631">
        <ele>145</ele>
        <time>2019-03-30T13:25:29Z</time>
      </trkpt>
      <trkpt lat="49.30335" lon="4.06633">
        <ele>145</ele>
        <time>2019-03-30T13:25:30Z</time>
      </trkpt>
      <trkpt lat="49.30341" lon="4.06635">
        <ele>145</ele>
        <time>2019-03-30T13:25:31Z</time>
      </trkpt>
      <trkpt lat="49.30347" lon="4.06638">
        <ele>145</ele>
        <time>2019-03-30T13:25:32Z</time>
      </trkpt>
      <trkpt lat="49.30354" lon="4.0664">
        <ele>145</ele>
        <time>2019-03-30T13:25:33Z</time>
      </trkpt>
      <trkpt lat="49.3036" lon="4.06643">
        <ele>145</ele>
        <time>2019-03-30T13:25:34Z</time>
      </trkpt>
      <trkpt lat="49.30366" lon="4.06645">
        <ele>145</ele>
        <time>2019-03-30T13:25:35Z</time>
      </trkpt>
      <trkpt lat="49.30373" lon="4.06648">
        <ele>145</ele>
        <time>2019-03-30T13:25:36Z</time>
      </trkpt>
      <trkpt lat="49.3038" lon="4.0665">
        <ele>145</ele>
        <time>2019-03-30T13:25:37Z</time>
      </trkpt>
      <trkpt lat="49.30386" lon="4.06653">
        <ele>145</ele>
        <time>2019-03-30T13:25:38Z</time>
      </trkpt>
      <trkpt lat="49.30393" lon="4.06656">
        <ele>145</ele>
        <time>2019-03-30T13:25:39Z</time>
      </trkpt>
      <trkpt lat="49.30399" lon="4.06658">
        <ele>145</ele>
        <time>2019-03-30T13:25:40Z</time>
      </trkpt>
      <trkpt lat="49.30405" lon="4.06661">
        <ele>145</ele>
        <time>2019-03-30T13:25:41Z</time>
      </trkpt>
      <trkpt lat="49.30412" lon="4.06663">
        <ele>145</ele>
        <time>2019-03-30T13:25:42Z</time>
      </trkpt>
      <trkpt lat="49.30418" lon="4.06666">
        <ele>145</ele>
        <time>2019-03-30T13:25:43Z</time>
      </trkpt>
      <trkpt lat="49.30425" lon="4.06669">
        <ele>144</ele>
        <time>2019-03-30T13:25:44Z</time>
      </trkpt>
      <trkpt lat="49.30431" lon="4.06671">
        <ele>144</ele>
        <time>2019-03-30T13:25:45Z</time>
      </trkpt>
      <trkpt lat="49.30438" lon="4.06674">
        <ele>144</ele>
        <time>2019-03-30T13:25:46Z</time>
      </trkpt>
      <trkpt lat="49.30445" lon="4.06677">
        <ele>144</ele>
        <time>2019-03-30T13:25:47Z</time>
      </trkpt>
      <trkpt lat="49.30452" lon="4.0668">
        <ele>145</ele>
        <time>2019-03-30T13:25:48Z</time>
      </trkpt>
      <trkpt lat="49.30459" lon="4.06683">
        <ele>145</ele>
        <time>2019-03-30T13:25:49Z</time>
      </trkpt>
      <trkpt lat="49.30465" lon="4.06686">
        <ele>145</ele>
        <time>2019-03-30T13:25:50Z</time>
      </trkpt>
      <trkpt lat="49.30472" lon="4.06689">
        <ele>145</ele>
        <time>2019-03-30T13:25:51Z</time>
      </trkpt>
      <trkpt lat="49.30479" lon="4.06692">
        <ele>144</ele>
        <time>2019-03-30T13:25:52Z</time>
      </trkpt>
      <trkpt lat="49.30485" lon="4.06696">
        <ele>144</ele>
        <time>2019-03-30T13:25:53Z</time>
      </trkpt>
      <trkpt lat="49.30492" lon="4.06699">
        <ele>144</ele>
        <time>2019-03-30T13:25:54Z</time>
      </trkpt>
      <trkpt lat="49.30499" lon="4.06702">
        <ele>144</ele>
        <time>2019-03-30T13:25:55Z</time>
      </trkpt>
      <trkpt lat="49.30505" lon="4.06706">
        <ele>144</ele>
        <time>2019-03-30T13:25:56Z</time>
      </trkpt>
      <trkpt lat="49.30512" lon="4.0671">
        <ele>144</ele>
        <time>2019-03-30T13:25:57Z</time>
      </trkpt>
      <trkpt lat="49.30519" lon="4.06715">
        <ele>144</ele>
        <time>2019-03-30T13:25:58Z</time>
      </trkpt>
      <trkpt lat="49.30526" lon="4.06719">
        <ele>144</ele>
        <time>2019-03-30T13:25:59Z</time>
      </trkpt>
      <trkpt lat="49.30533" lon="4.06723">
        <ele>144</ele>
        <time>2019-03-30T13:26:00Z</time>
      </trkpt>
      <trkpt lat="49.30539" lon="4.06727">
        <ele>144</ele>
        <time>2019-03-30T13:26:01Z</time>
      </trkpt>
      <trkpt lat="49.30546" lon="4.06732">
        <ele>144</ele>
        <time>2019-03-30T13:26:02Z</time>
      </trkpt>
      <trkpt lat="49.30553" lon="4.06736">
        <ele>144</ele>
        <time>2019-03-30T13:26:03Z</time>
      </trkpt>
      <trkpt lat="49.3056" lon="4.0674">
        <ele>143</ele>
        <time>2019-03-30T13:26:04Z</time>
      </trkpt>
      <trkpt lat="49.30566" lon="4.06745">
        <ele>143</ele>
        <time>2019-03-30T13:26:05Z</time>
      </trkpt>
      <trkpt lat="49.30573" lon="4.06749">
        <ele>143</ele>
        <time>2019-03-30T13:26:06Z</time>
      </trkpt>
      <trkpt lat="49.3058" lon="4.06754">
        <ele>143</ele>
        <time>2019-03-30T13:26:07Z</time>
      </trkpt>
      <trkpt lat="49.30586" lon="4.06759">
        <ele>142</ele>
        <time>2019-03-30T13:26:08Z</time>
      </trkpt>
      <trkpt lat="49.30593" lon="4.06763">
        <ele>142</ele>
        <time>2019-03-30T13:26:09Z</time>
      </trkpt>
      <trkpt lat="49.30599" lon="4.06768">
        <ele>142</ele>
        <time>2019-03-30T13:26:10Z</time>
      </trkpt>
      <trkpt lat="49.30605" lon="4.06773">
        <ele>142</ele>
        <time>2019-03-30T13:26:11Z</time>
      </trkpt>
      <trkpt lat="49.30612" lon="4.06778">
        <ele>142</ele>
        <time>2019-03-30T13:26:12Z</time>
      </trkpt>
      <trkpt lat="49.30618" lon="4.06784">
        <ele>142</ele>
        <time>2019-03-30T13:26:13Z</time>
      </trkpt>
      <trkpt lat="49.30625" lon="4.06789">
        <ele>141</ele>
        <time>2019-03-30T13:26:14Z</time>
      </trkpt>
      <trkpt lat="49.30631" lon="4.06794">
        <ele>141</ele>
        <time>2019-03-30T13:26:15Z</time>
      </trkpt>
      <trkpt lat="49.30638" lon="4.06799">
        <ele>141</ele>
        <time>2019-03-30T13:26:16Z</time>
      </trkpt>
      <trkpt lat="49.30645" lon="4.06804">
        <ele>141</ele>
        <time>2019-03-30T13:26:17Z</time>
      </trkpt>
      <trkpt lat="49.30651" lon="4.06809">
        <ele>141</ele>
        <time>2019-03-30T13:26:18Z</time>
      </trkpt>
      <trkpt lat="49.30658" lon="4.06814">
        <ele>141</ele>
        <time>2019-03-30T13:26:19Z</time>
      </trkpt>
      <trkpt lat="49.30664" lon="4.06819">
        <ele>141</ele>
        <time>2019-03-30T13:26:20Z</time>
      </trkpt>
      <trkpt lat="49.30671" lon="4.06824">
        <ele>141</ele>
        <time>2019-03-30T13:26:21Z</time>
      </trkpt>
      <trkpt lat="49.30677" lon="4.06829">
        <ele>141</ele>
        <time>2019-03-30T13:26:22Z</time>
      </trkpt>
      <trkpt lat="49.30684" lon="4.06834">
        <ele>141</ele>
        <time>2019-03-30T13:26:23Z</time>
      </trkpt>
      <trkpt lat="49.3069" lon="4.0684">
        <ele>141</ele>
        <time>2019-03-30T13:26:24Z</time>
      </trkpt>
      <trkpt lat="49.30697" lon="4.06845">
        <ele>140</ele>
        <time>2019-03-30T13:26:25Z</time>
      </trkpt>
      <trkpt lat="49.30703" lon="4.0685">
        <ele>140</ele>
        <time>2019-03-30T13:26:26Z</time>
      </trkpt>
      <trkpt lat="49.3071" lon="4.06856">
        <ele>140</ele>
        <time>2019-03-30T13:26:27Z</time>
      </trkpt>
      <trkpt lat="49.30717" lon="4.06861">
        <ele>140</ele>
        <time>2019-03-30T13:26:28Z</time>
      </trkpt>
      <trkpt lat="49.30723" lon="4.06866">
        <ele>140</ele>
        <time>2019-03-30T13:26:29Z</time>
      </trkpt>
      <trkpt lat="49.30729" lon="4.06871">
        <ele>140</ele>
        <time>2019-03-30T13:26:30Z</time>
      </trkpt>
      <trkpt lat="49.30735" lon="4.06876">
        <ele>140</ele>
        <time>2019-03-30T13:26:31Z</time>
      </trkpt>
      <trkpt lat="49.30742" lon="4.06881">
        <ele>140</ele>
        <time>2019-03-30T13:26:32Z</time>
      </trkpt>
      <trkpt lat="49.30748" lon="4.06886">
        <ele>140</ele>
        <time>2019-03-30T13:26:33Z</time>
      </trkpt>
      <trkpt lat="49.30755" lon="4.06891">
        <ele>140</ele>
        <time>2019-03-30T13:26:34Z</time>
      </trkpt>
      <trkpt lat="49.30761" lon="4.06896">
        <ele>140</ele>
        <time>2019-03-30T13:26:35Z</time>
      </trkpt>
      <trkpt lat="49.30767" lon="4.06901">
        <ele>140</ele>
        <time>2019-03-30T13:26:36Z</time>
      </trkpt>
      <trkpt lat="49.30773" lon="4.06906">
        <ele>140</ele>
        <time>2019-03-30T13:26:37Z</time>
      </trkpt>
      <trkpt lat="49.30779" lon="4.06911">
        <ele>140</ele>
        <time>2019-03-30T13:26:38Z</time>
      </trkpt>
      <trkpt lat="49.30785" lon="4.06915">
        <ele>140</ele>
        <time>2019-03-30T13:26:39Z</time>
      </trkpt>
      <trkpt lat="49.30791" lon="4.0692">
        <ele>140</ele>
        <time>2019-03-30T13:26:40Z</time>
      </trkpt>
      <trkpt lat="49.30797" lon="4.06925">
        <ele>140</ele>
        <time>2019-03-30T13:26:41Z</time>
      </trkpt>
      <trkpt lat="49.30804" lon="4.06931">
        <ele>139</ele>
        <time>2019-03-30T13:26:42Z</time>
      </trkpt>
      <trkpt lat="49.3081" lon="4.06936">
        <ele>139</ele>
        <time>2019-03-30T13:26:43Z</time>
      </trkpt>
      <trkpt lat="49.30817" lon="4.06941">
        <ele>139</ele>
        <time>2019-03-30T13:26:44Z</time>
      </trkpt>
      <trkpt lat="49.30823" lon="4.06946">
        <ele>139</ele>
        <time>2019-03-30T13:26:45Z</time>
      </trkpt>
      <trkpt lat="49.30829" lon="4.06951">
        <ele>139</ele>
        <time>2019-03-30T13:26:46Z</time>
      </trkpt>
      <trkpt lat="49.30836" lon="4.06956">
        <ele>139</ele>
        <time>2019-03-30T13:26:47Z</time>
      </trkpt>
      <trkpt lat="49.30842" lon="4.06961">
        <ele>139</ele>
        <time>2019-03-30T13:26:48Z</time>
      </trkpt>
      <trkpt lat="49.30847" lon="4.06966">
        <ele>139</ele>
        <time>2019-03-30T13:26:49Z</time>
      </trkpt>
      <trkpt lat="49.30854" lon="4.06972">
        <ele>139</ele>
        <time>2019-03-30T13:26:50Z</time>
      </trkpt>
      <trkpt lat="49.3086" lon="4.06976">
        <ele>139</ele>
        <time>2019-03-30T13:26:51Z</time>
      </trkpt>
      <trkpt lat="49.30867" lon="4.06981">
        <ele>139</ele>
        <time>2019-03-30T13:26:52Z</time>
      </trkpt>
      <trkpt lat="49.30873" lon="4.06986">
        <ele>139</ele>
        <time>2019-03-30T13:26:53Z</time>
      </trkpt>
      <trkpt lat="49.3088" lon="4.06991">
        <ele>139</ele>
        <time>2019-03-30T13:26:54Z</time>
      </trkpt>
      <trkpt lat="49.30886" lon="4.06996">
        <ele>139</ele>
        <time>2019-03-30T13:26:55Z</time>
      </trkpt>
      <trkpt lat="49.30892" lon="4.07001">
        <ele>139</ele>
        <time>2019-03-30T13:26:56Z</time>
      </trkpt>
      <trkpt lat="49.30897" lon="4.07005">
        <ele>139</ele>
        <time>2019-03-30T13:26:57Z</time>
      </trkpt>
      <trkpt lat="49.30904" lon="4.0701">
        <ele>139</ele>
        <time>2019-03-30T13:26:58Z</time>
      </trkpt>
      <trkpt lat="49.3091" lon="4.07016">
        <ele>139</ele>
        <time>2019-03-30T13:26:59Z</time>
      </trkpt>
      <trkpt lat="49.30917" lon="4.07021">
        <ele>139</ele>
        <time>2019-03-30T13:27:00Z</time>
      </trkpt>
      <trkpt lat="49.30923" lon="4.07026">
        <ele>139</ele>
        <time>2019-03-30T13:27:01Z</time>
      </trkpt>
      <trkpt lat="49.3093" lon="4.07031">
        <ele>138</ele>
        <time>2019-03-30T13:27:02Z</time>
      </trkpt>
      <trkpt lat="49.30936" lon="4.07036">
        <ele>138</ele>
        <time>2019-03-30T13:27:03Z</time>
      </trkpt>
      <trkpt lat="49.30942" lon="4.07041">
        <ele>138</ele>
        <time>2019-03-30T13:27:04Z</time>
      </trkpt>
      <trkpt lat="49.30948" lon="4.07045">
        <ele>138</ele>
        <time>2019-03-30T13:27:05Z</time>
      </trkpt>
      <trkpt lat="49.30955" lon="4.0705">
        <ele>138</ele>
        <time>2019-03-30T13:27:06Z</time>
      </trkpt>
      <trkpt lat="49.30961" lon="4.07055">
        <ele>138</ele>
        <time>2019-03-30T13:27:07Z</time>
      </trkpt>
      <trkpt lat="49.30967" lon="4.07059">
        <ele>138</ele>
        <time>2019-03-30T13:27:08Z</time>
      </trkpt>
      <trkpt lat="49.30973" lon="4.07064">
        <ele>138</ele>
        <time>2019-03-30T13:27:09Z</time>
      </trkpt>
      <trkpt lat="49.30979" lon="4.0707">
        <ele>138</ele>
        <time>2019-03-30T13:27:10Z</time>
      </trkpt>
      <trkpt lat="49.30986" lon="4.07075">
        <ele>137</ele>
        <time>2019-03-30T13:27:11Z</time>
      </trkpt>
      <trkpt lat="49.30993" lon="4.0708">
        <ele>138</ele>
        <time>2019-03-30T13:27:12Z</time>
      </trkpt>
      <trkpt lat="49.30999" lon="4.07085">
        <ele>137</ele>
        <time>2019-03-30T13:27:13Z</time>
      </trkpt>
      <trkpt lat="49.31005" lon="4.07091">
        <ele>137</ele>
        <time>2019-03-30T13:27:14Z</time>
      </trkpt>
      <trkpt lat="49.31012" lon="4.07096">
        <ele>137</ele>
        <time>2019-03-30T13:27:15Z</time>
      </trkpt>
      <trkpt lat="49.31018" lon="4.07101">
        <ele>137</ele>
        <time>2019-03-30T13:27:16Z</time>
      </trkpt>
      <trkpt lat="49.31025" lon="4.07106">
        <ele>137</ele>
        <time>2019-03-30T13:27:17Z</time>
      </trkpt>
      <trkpt lat="49.31031" lon="4.07111">
        <ele>137</ele>
        <time>2019-03-30T13:27:18Z</time>
      </trkpt>
      <trkpt lat="49.31037" lon="4.07116">
        <ele>137</ele>
        <time>2019-03-30T13:27:19Z</time>
      </trkpt>
      <trkpt lat="49.31044" lon="4.07121">
        <ele>137</ele>
        <time>2019-03-30T13:27:20Z</time>
      </trkpt>
      <trkpt lat="49.3105" lon="4.07126">
        <ele>137</ele>
        <time>2019-03-30T13:27:21Z</time>
      </trkpt>
      <trkpt lat="49.31057" lon="4.07131">
        <ele>137</ele>
        <time>2019-03-30T13:27:22Z</time>
      </trkpt>
      <trkpt lat="49.31064" lon="4.07137">
        <ele>137</ele>
        <time>2019-03-30T13:27:23Z</time>
      </trkpt>
      <trkpt lat="49.3107" lon="4.07142">
        <ele>137</ele>
        <time>2019-03-30T13:27:24Z</time>
      </trkpt>
      <trkpt lat="49.31077" lon="4.07148">
        <ele>137</ele>
        <time>2019-03-30T13:27:25Z</time>
      </trkpt>
      <trkpt lat="49.31083" lon="4.07153">
        <ele>137</ele>
        <time>2019-03-30T13:27:26Z</time>
      </trkpt>
      <trkpt lat="49.3109" lon="4.07159">
        <ele>137</ele>
        <time>2019-03-30T13:27:27Z</time>
      </trkpt>
      <trkpt lat="49.31096" lon="4.07164">
        <ele>137</ele>
        <time>2019-03-30T13:27:28Z</time>
      </trkpt>
      <trkpt lat="49.31103" lon="4.07169">
        <ele>137</ele>
        <time>2019-03-30T13:27:29Z</time>
      </trkpt>
      <trkpt lat="49.3111" lon="4.07175">
        <ele>137</ele>
        <time>2019-03-30T13:27:30Z</time>
      </trkpt>
      <trkpt lat="49.31116" lon="4.07179">
        <ele>136</ele>
        <time>2019-03-30T13:27:31Z</time>
      </trkpt>
      <trkpt lat="49.31123" lon="4.07184">
        <ele>136</ele>
        <time>2019-03-30T13:27:32Z</time>
      </trkpt>
      <trkpt lat="49.31129" lon="4.0719">
        <ele>136</ele>
        <time>2019-03-30T13:27:33Z</time>
      </trkpt>
      <trkpt lat="49.31135" lon="4.07196">
        <ele>136</ele>
        <time>2019-03-30T13:27:34Z</time>
      </trkpt>
      <trkpt lat="49.31142" lon="4.07201">
        <ele>136</ele>
        <time>2019-03-30T13:27:35Z</time>
      </trkpt>
      <trkpt lat="49.31148" lon="4.07206">
        <ele>136</ele>
        <time>2019-03-30T13:27:36Z</time>
      </trkpt>
      <trkpt lat="49.31155" lon="4.07211">
        <ele>136</ele>
        <time>2019-03-30T13:27:37Z</time>
      </trkpt>
      <trkpt lat="49.31161" lon="4.07216">
        <ele>136</ele>
        <time>2019-03-30T13:27:38Z</time>
      </trkpt>
      <trkpt lat="49.31168" lon="4.07222">
        <ele>136</ele>
        <time>2019-03-30T13:27:39Z</time>
      </trkpt>
      <trkpt lat="49.31175" lon="4.07227">
        <ele>136</ele>
        <time>2019-03-30T13:27:40Z</time>
      </trkpt>
      <trkpt lat="49.31181" lon="4.07232">
        <ele>136</ele>
        <time>2019-03-30T13:27:41Z</time>
      </trkpt>
      <trkpt lat="49.31188" lon="4.07237">
        <ele>136</ele>
        <time>2019-03-30T13:27:42Z</time>
      </trkpt>
      <trkpt lat="49.31194" lon="4.07242">
        <ele>136</ele>
        <time>2019-03-30T13:27:43Z</time>
      </trkpt>
      <trkpt lat="49.31201" lon="4.07247">
        <ele>136</ele>
        <time>2019-03-30T13:27:44Z</time>
      </trkpt>
      <trkpt lat="49.31207" lon="4.07252">
        <ele>136</ele>
        <time>2019-03-30T13:27:45Z</time>
      </trkpt>
      <trkpt lat="49.31213" lon="4.07257">
        <ele>136</ele>
        <time>2019-03-30T13:27:46Z</time>
      </trkpt>
      <trkpt lat="49.31219" lon="4.07261">
        <ele>136</ele>
        <time>2019-03-30T13:27:47Z</time>
      </trkpt>
      <trkpt lat="49.31231" lon="4.07272">
        <ele>136</ele>
        <time>2019-03-30T13:27:49Z</time>
      </trkpt>
      <trkpt lat="49.31238" lon="4.07277">
        <ele>136</ele>
        <time>2019-03-30T13:27:50Z</time>
      </trkpt>
      <trkpt lat="49.31244" lon="4.07282">
        <ele>136</ele>
        <time>2019-03-30T13:27:51Z</time>
      </trkpt>
      <trkpt lat="49.3125" lon="4.07287">
        <ele>136</ele>
        <time>2019-03-30T13:27:52Z</time>
      </trkpt>
      <trkpt lat="49.31257" lon="4.07292">
        <ele>136</ele>
        <time>2019-03-30T13:27:53Z</time>
      </trkpt>
      <trkpt lat="49.31263" lon="4.07297">
        <ele>136</ele>
        <time>2019-03-30T13:27:54Z</time>
      </trkpt>
      <trkpt lat="49.31276" lon="4.07307">
        <ele>136</ele>
        <time>2019-03-30T13:27:56Z</time>
      </trkpt>
      <trkpt lat="49.31283" lon="4.07311">
        <ele>136</ele>
        <time>2019-03-30T13:27:57Z</time>
      </trkpt>
      <trkpt lat="49.3129" lon="4.07316">
        <ele>136</ele>
        <time>2019-03-30T13:27:58Z</time>
      </trkpt>
      <trkpt lat="49.31297" lon="4.0732">
        <ele>135</ele>
        <time>2019-03-30T13:27:59Z</time>
      </trkpt>
      <trkpt lat="49.31303" lon="4.07324">
        <ele>135</ele>
        <time>2019-03-30T13:28:00Z</time>
      </trkpt>
      <trkpt lat="49.3131" lon="4.07328">
        <ele>135</ele>
        <time>2019-03-30T13:28:01Z</time>
      </trkpt>
      <trkpt lat="49.31317" lon="4.07332">
        <ele>135</ele>
        <time>2019-03-30T13:28:02Z</time>
      </trkpt>
      <trkpt lat="49.31324" lon="4.07335">
        <ele>135</ele>
        <time>2019-03-30T13:28:03Z</time>
      </trkpt>
      <trkpt lat="49.31332" lon="4.07338">
        <ele>135</ele>
        <time>2019-03-30T13:28:04Z</time>
      </trkpt>
      <trkpt lat="49.31339" lon="4.07341">
        <ele>135</ele>
        <time>2019-03-30T13:28:05Z</time>
      </trkpt>
      <trkpt lat="49.31346" lon="4.07344">
        <ele>135</ele>
        <time>2019-03-30T13:28:06Z</time>
      </trkpt>
      <trkpt lat="49.31353" lon="4.07347">
        <ele>135</ele>
        <time>2019-03-30T13:28:07Z</time>
      </trkpt>
      <trkpt lat="49.3136" lon="4.0735">
        <ele>135</ele>
        <time>2019-03-30T13:28:08Z</time>
      </trkpt>
      <trkpt lat="49.31367" lon="4.07352">
        <ele>135</ele>
        <time>2019-03-30T13:28:09Z</time>
      </trkpt>
      <trkpt lat="49.31375" lon="4.07354">
        <ele>134</ele>
        <time>2019-03-30T13:28:10Z</time>
      </trkpt>
      <trkpt lat="49.31383" lon="4.07356">
        <ele>134</ele>
        <time>2019-03-30T13:28:11Z</time>
      </trkpt>
      <trkpt lat="49.3139" lon="4.07357">
        <ele>134</ele>
        <time>2019-03-30T13:28:12Z</time>
      </trkpt>
      <trkpt lat="49.31398" lon="4.07358">
        <ele>134</ele>
        <time>2019-03-30T13:28:13Z</time>
      </trkpt>
      <trkpt lat="49.31405" lon="4.0736">
        <ele>134</ele>
        <time>2019-03-30T13:28:14Z</time>
      </trkpt>
      <trkpt lat="49.31413" lon="4.07361">
        <ele>134</ele>
        <time>2019-03-30T13:28:15Z</time>
      </trkpt>
      <trkpt lat="49.31421" lon="4.07362">
        <ele>134</ele>
        <time>2019-03-30T13:28:16Z</time>
      </trkpt>
      <trkpt lat="49.31429" lon="4.07363">
        <ele>134</ele>
        <time>2019-03-30T13:28:17Z</time>
      </trkpt>
      <trkpt lat="49.31436" lon="4.07363">
        <ele>134</ele>
        <time>2019-03-30T13:28:18Z</time>
      </trkpt>
      <trkpt lat="49.31444" lon="4.07363">
        <ele>133</ele>
        <time>2019-03-30T13:28:19Z</time>
      </trkpt>
      <trkpt lat="49.31452" lon="4.07363">
        <ele>133</ele>
        <time>2019-03-30T13:28:20Z</time>
      </trkpt>
      <trkpt lat="49.3146" lon="4.07362">
        <ele>133</ele>
        <time>2019-03-30T13:28:21Z</time>
      </trkpt>
      <trkpt lat="49.31467" lon="4.07362">
        <ele>133</ele>
        <time>2019-03-30T13:28:22Z</time>
      </trkpt>
      <trkpt lat="49.31475" lon="4.07362">
        <ele>133</ele>
        <time>2019-03-30T13:28:23Z</time>
      </trkpt>
      <trkpt lat="49.31483" lon="4.07361">
        <ele>133</ele>
        <time>2019-03-30T13:28:24Z</time>
      </trkpt>
      <trkpt lat="49.31491" lon="4.0736">
        <ele>133</ele>
        <time>2019-03-30T13:28:25Z</time>
      </trkpt>
      <trkpt lat="49.31499" lon="4.07358">
        <ele>133</ele>
        <time>2019-03-30T13:28:26Z</time>
      </trkpt>
      <trkpt lat="49.31507" lon="4.07356">
        <ele>133</ele>
        <time>2019-03-30T13:28:27Z</time>
      </trkpt>
      <trkpt lat="49.31515" lon="4.07354">
        <ele>133</ele>
        <time>2019-03-30T13:28:28Z</time>
      </trkpt>
      <trkpt lat="49.31523" lon="4.07352">
        <ele>133</ele>
        <time>2019-03-30T13:28:29Z</time>
      </trkpt>
      <trkpt lat="49.3153" lon="4.07349">
        <ele>133</ele>
        <time>2019-03-30T13:28:30Z</time>
      </trkpt>
      <trkpt lat="49.31538" lon="4.07347">
        <ele>133</ele>
        <time>2019-03-30T13:28:31Z</time>
      </trkpt>
      <trkpt lat="49.31546" lon="4.07344">
        <ele>132</ele>
        <time>2019-03-30T13:28:32Z</time>
      </trkpt>
      <trkpt lat="49.31554" lon="4.07341">
        <ele>132</ele>
        <time>2019-03-30T13:28:33Z</time>
      </trkpt>
      <trkpt lat="49.31561" lon="4.07338">
        <ele>132</ele>
        <time>2019-03-30T13:28:34Z</time>
      </trkpt>
      <trkpt lat="49.31569" lon="4.07334">
        <ele>132</ele>
        <time>2019-03-30T13:28:35Z</time>
      </trkpt>
      <trkpt lat="49.31576" lon="4.0733">
        <ele>132</ele>
        <time>2019-03-30T13:28:36Z</time>
      </trkpt>
      <trkpt lat="49.31584" lon="4.07327">
        <ele>132</ele>
        <time>2019-03-30T13:28:37Z</time>
      </trkpt>
      <trkpt lat="49.31591" lon="4.07323">
        <ele>132</ele>
        <time>2019-03-30T13:28:38Z</time>
      </trkpt>
      <trkpt lat="49.31599" lon="4.07318">
        <ele>132</ele>
        <time>2019-03-30T13:28:39Z</time>
      </trkpt>
      <trkpt lat="49.31606" lon="4.07313">
        <ele>131</ele>
        <time>2019-03-30T13:28:40Z</time>
      </trkpt>
      <trkpt lat="49.31614" lon="4.07309">
        <ele>131</ele>
        <time>2019-03-30T13:28:41Z</time>
      </trkpt>
      <trkpt lat="49.31621" lon="4.07304">
        <ele>131</ele>
        <time>2019-03-30T13:28:42Z</time>
      </trkpt>
      <trkpt lat="49.31628" lon="4.07299">
        <ele>131</ele>
        <time>2019-03-30T13:28:43Z</time>
      </trkpt>
      <trkpt lat="49.31635" lon="4.07294">
        <ele>131</ele>
        <time>2019-03-30T13:28:44Z</time>
      </trkpt>
      <trkpt lat="49.31642" lon="4.07289">
        <ele>131</ele>
        <time>2019-03-30T13:28:45Z</time>
      </trkpt>
      <trkpt lat="49.31649" lon="4.07285">
        <ele>131</ele>
        <time>2019-03-30T13:28:46Z</time>
      </trkpt>
      <trkpt lat="49.31656" lon="4.0728">
        <ele>131</ele>
        <time>2019-03-30T13:28:47Z</time>
      </trkpt>
      <trkpt lat="49.31663" lon="4.07276">
        <ele>131</ele>
        <time>2019-03-30T13:28:48Z</time>
      </trkpt>
      <trkpt lat="49.3167" lon="4.07271">
        <ele>131</ele>
        <time>2019-03-30T13:28:49Z</time>
      </trkpt>
      <trkpt lat="49.31677" lon="4.07267">
        <ele>131</ele>
        <time>2019-03-30T13:28:50Z</time>
      </trkpt>
      <trkpt lat="49.31684" lon="4.07262">
        <ele>131</ele>
        <time>2019-03-30T13:28:51Z</time>
      </trkpt>
      <trkpt lat="49.31691" lon="4.07258">
        <ele>132</ele>
        <time>2019-03-30T13:28:52Z</time>
      </trkpt>
      <trkpt lat="49.31698" lon="4.07254">
        <ele>132</ele>
        <time>2019-03-30T13:28:53Z</time>
      </trkpt>
      <trkpt lat="49.31705" lon="4.07249">
        <ele>132</ele>
        <time>2019-03-30T13:28:54Z</time>
      </trkpt>
      <trkpt lat="49.31711" lon="4.07245">
        <ele>132</ele>
        <time>2019-03-30T13:28:55Z</time>
      </trkpt>
      <trkpt lat="49.31718" lon="4.07241">
        <ele>133</ele>
        <time>2019-03-30T13:28:56Z</time>
      </trkpt>
      <trkpt lat="49.31725" lon="4.07236">
        <ele>133</ele>
        <time>2019-03-30T13:28:57Z</time>
      </trkpt>
      <trkpt lat="49.31731" lon="4.07232">
        <ele>133</ele>
        <time>2019-03-30T13:28:58Z</time>
      </trkpt>
      <trkpt lat="49.31738" lon="4.07227">
        <ele>133</ele>
        <time>2019-03-30T13:28:59Z</time>
      </trkpt>
      <trkpt lat="49.31744" lon="4.07224">
        <ele>133</ele>
        <time>2019-03-30T13:29:00Z</time>
      </trkpt>
      <trkpt lat="49.3175" lon="4.0722">
        <ele>134</ele>
        <time>2019-03-30T13:29:01Z</time>
      </trkpt>
      <trkpt lat="49.31756" lon="4.07215">
        <ele>134</ele>
        <time>2019-03-30T13:29:02Z</time>
      </trkpt>
      <trkpt lat="49.31763" lon="4.07211">
        <ele>134</ele>
        <time>2019-03-30T13:29:03Z</time>
      </trkpt>
      <trkpt lat="49.31769" lon="4.07207">
        <ele>134</ele>
        <time>2019-03-30T13:29:04Z</time>
      </trkpt>
      <trkpt lat="49.31775" lon="4.07203">
        <ele>134</ele>
        <time>2019-03-30T13:29:05Z</time>
      </trkpt>
      <trkpt lat="49.31781" lon="4.07199">
        <ele>134</ele>
        <time>2019-03-30T13:29:06Z</time>
      </trkpt>
      <trkpt lat="49.31787" lon="4.07195">
        <ele>134</ele>
        <time>2019-03-30T13:29:07Z</time>
      </trkpt>
      <trkpt lat="49.31793" lon="4.07191">
        <ele>134</ele>
        <time>2019-03-30T13:29:08Z</time>
      </trkpt>
      <trkpt lat="49.31799" lon="4.07187">
        <ele>134</ele>
        <time>2019-03-30T13:29:09Z</time>
      </trkpt>
      <trkpt lat="49.31805" lon="4.07183">
        <ele>135</ele>
        <time>2019-03-30T13:29:10Z</time>
      </trkpt>
      <trkpt lat="49.31811" lon="4.07179">
        <ele>135</ele>
        <time>2019-03-30T13:29:11Z</time>
      </trkpt>
      <trkpt lat="49.31817" lon="4.07175">
        <ele>136</ele>
        <time>2019-03-30T13:29:12Z</time>
      </trkpt>
      <trkpt lat="49.31822" lon="4.07171">
        <ele>135</ele>
        <time>2019-03-30T13:29:13Z</time>
      </trkpt>
      <trkpt lat="49.31828" lon="4.07168">
        <ele>136</ele>
        <time>2019-03-30T13:29:14Z</time>
      </trkpt>
      <trkpt lat="49.31834" lon="4.07164">
        <ele>135</ele>
        <time>2019-03-30T13:29:15Z</time>
      </trkpt>
      <trkpt lat="49.31839" lon="4.0716">
        <ele>135</ele>
        <time>2019-03-30T13:29:16Z</time>
      </trkpt>
      <trkpt lat="49.31844" lon="4.07157">
        <ele>136</ele>
        <time>2019-03-30T13:29:17Z</time>
      </trkpt>
      <trkpt lat="49.3185" lon="4.07154">
        <ele>136</ele>
        <time>2019-03-30T13:29:18Z</time>
      </trkpt>
      <trkpt lat="49.31855" lon="4.07151">
        <ele>136</ele>
        <time>2019-03-30T13:29:19Z</time>
      </trkpt>
      <trkpt lat="49.3186" lon="4.07147">
        <ele>136</ele>
        <time>2019-03-30T13:29:20Z</time>
      </trkpt>
      <trkpt lat="49.31865" lon="4.07144">
        <ele>136</ele>
        <time>2019-03-30T13:29:21Z</time>
      </trkpt>
      <trkpt lat="49.3187" lon="4.07141">
        <ele>136</ele>
        <time>2019-03-30T13:29:22Z</time>
      </trkpt>
      <trkpt lat="49.31875" lon="4.07138">
        <ele>136</ele>
        <time>2019-03-30T13:29:23Z</time>
      </trkpt>
      <trkpt lat="49.3188" lon="4.07135">
        <ele>136</ele>
        <time>2019-03-30T13:29:24Z</time>
      </trkpt>
      <trkpt lat="49.31885" lon="4.07131">
        <ele>136</ele>
        <time>2019-03-30T13:29:25Z</time>
      </trkpt>
      <trkpt lat="49.3189" lon="4.07127">
        <ele>136</ele>
        <time>2019-03-30T13:29:26Z</time>
      </trkpt>
      <trkpt lat="49.31896" lon="4.07124">
        <ele>136</ele>
        <time>2019-03-30T13:29:27Z</time>
      </trkpt>
      <trkpt lat="49.31901" lon="4.07121">
        <ele>136</ele>
        <time>2019-03-30T13:29:28Z</time>
      </trkpt>
      <trkpt lat="49.31906" lon="4.07118">
        <ele>136</ele>
        <time>2019-03-30T13:29:29Z</time>
      </trkpt>
      <trkpt lat="49.31911" lon="4.07114">
        <ele>136</ele>
        <time>2019-03-30T13:29:30Z</time>
      </trkpt>
      <trkpt lat="49.31916" lon="4.07111">
        <ele>136</ele>
        <time>2019-03-30T13:29:31Z</time>
      </trkpt>
      <trkpt lat="49.31921" lon="4.07108">
        <ele>136</ele>
        <time>2019-03-30T13:29:32Z</time>
      </trkpt>
      <trkpt lat="49.31927" lon="4.07105">
        <ele>136</ele>
        <time>2019-03-30T13:29:33Z</time>
      </trkpt>
      <trkpt lat="49.31932" lon="4.07103">
        <ele>136</ele>
        <time>2019-03-30T13:29:34Z</time>
      </trkpt>
      <trkpt lat="49.31938" lon="4.07101">
        <ele>136</ele>
        <time>2019-03-30T13:29:35Z</time>
      </trkpt>
      <trkpt lat="49.31943" lon="4.07098">
        <ele>136</ele>
        <time>2019-03-30T13:29:36Z</time>
      </trkpt>
      <trkpt lat="49.31949" lon="4.07095">
        <ele>136</ele>
        <time>2019-03-30T13:29:37Z</time>
      </trkpt>
      <trkpt lat="49.31955" lon="4.07093">
        <ele>136</ele>
        <time>2019-03-30T13:29:38Z</time>
      </trkpt>
      <trkpt lat="49.31961" lon="4.0709">
        <ele>136</ele>
        <time>2019-03-30T13:29:39Z</time>
      </trkpt>
      <trkpt lat="49.31967" lon="4.07088">
        <ele>136</ele>
        <time>2019-03-30T13:29:40Z</time>
      </trkpt>
      <trkpt lat="49.31974" lon="4.07086">
        <ele>136</ele>
        <time>2019-03-30T13:29:41Z</time>
      </trkpt>
      <trkpt lat="49.31979" lon="4.07084">
        <ele>136</ele>
        <time>2019-03-30T13:29:42Z</time>
      </trkpt>
      <trkpt lat="49.31985" lon="4.07082">
        <ele>136</ele>
        <time>2019-03-30T13:29:43Z</time>
      </trkpt>
      <trkpt lat="49.31991" lon="4.07081">
        <ele>136</ele>
        <time>2019-03-30T13:29:44Z</time>
      </trkpt>
      <trkpt lat="49.31997" lon="4.0708">
        <ele>136</ele>
        <time>2019-03-30T13:29:45Z</time>
      </trkpt>
      <trkpt lat="49.32003" lon="4.07078">
        <ele>136</ele>
        <time>2019-03-30T13:29:46Z</time>
      </trkpt>
      <trkpt lat="49.3201" lon="4.07076">
        <ele>136</ele>
        <time>2019-03-30T13:29:47Z</time>
      </trkpt>
      <trkpt lat="49.32016" lon="4.07075">
        <ele>136</ele>
        <time>2019-03-30T13:29:48Z</time>
      </trkpt>
      <trkpt lat="49.32022" lon="4.07074">
        <ele>136</ele>
        <time>2019-03-30T13:29:49Z</time>
      </trkpt>
      <trkpt lat="49.32029" lon="4.07073">
        <ele>136</ele>
        <time>2019-03-30T13:29:50Z</time>
      </trkpt>
      <trkpt lat="49.32035" lon="4.07072">
        <ele>136</ele>
        <time>2019-03-30T13:29:51Z</time>
      </trkpt>
      <trkpt lat="49.32041" lon="4.07071">
        <ele>136</ele>
        <time>2019-03-30T13:29:52Z</time>
      </trkpt>
      <trkpt lat="49.32047" lon="4.07071">
        <ele>136</ele>
        <time>2019-03-30T13:29:53Z</time>
      </trkpt>
      <trkpt lat="49.32054" lon="4.07071">
        <ele>136</ele>
        <time>2019-03-30T13:29:54Z</time>
      </trkpt>
      <trkpt lat="49.3206" lon="4.07071">
        <ele>136</ele>
        <time>2019-03-30T13:29:55Z</time>
      </trkpt>
      <trkpt lat="49.32067" lon="4.0707">
        <ele>136</ele>
        <time>2019-03-30T13:29:56Z</time>
      </trkpt>
      <trkpt lat="49.32073" lon="4.0707">
        <ele>136</ele>
        <time>2019-03-30T13:29:57Z</time>
      </trkpt>
      <trkpt lat="49.32079" lon="4.07069">
        <ele>136</ele>
        <time>2019-03-30T13:29:58Z</time>
      </trkpt>
      <trkpt lat="49.32085" lon="4.07069">
        <ele>136</ele>
        <time>2019-03-30T13:29:59Z</time>
      </trkpt>
      <trkpt lat="49.32092" lon="4.07069">
        <ele>136</ele>
        <time>2019-03-30T13:30:00Z</time>
      </trkpt>
      <trkpt lat="49.32098" lon="4.0707">
        <ele>136</ele>
        <time>2019-03-30T13:30:01Z</time>
      </trkpt>
      <trkpt lat="49.32104" lon="4.0707">
        <ele>136</ele>
        <time>2019-03-30T13:30:02Z</time>
      </trkpt>
      <trkpt lat="49.32111" lon="4.0707">
        <ele>136</ele>
        <time>2019-03-30T13:30:03Z</time>
      </trkpt>
      <trkpt lat="49.32118" lon="4.0707">
        <ele>136</ele>
        <time>2019-03-30T13:30:04Z</time>
      </trkpt>
      <trkpt lat="49.32124" lon="4.07071">
        <ele>136</ele>
        <time>2019-03-30T13:30:05Z</time>
      </trkpt>
      <trkpt lat="49.3213" lon="4.07071">
        <ele>136</ele>
        <time>2019-03-30T13:30:06Z</time>
      </trkpt>
      <trkpt lat="49.32137" lon="4.07071">
        <ele>136</ele>
        <time>2019-03-30T13:30:07Z</time>
      </trkpt>
      <trkpt lat="49.32142" lon="4.07071">
        <ele>136</ele>
        <time>2019-03-30T13:30:08Z</time>
      </trkpt>
      <trkpt lat="49.32149" lon="4.07071">
        <ele>136</ele>
        <time>2019-03-30T13:30:09Z</time>
      </trkpt>
      <trkpt lat="49.32155" lon="4.07071">
        <ele>137</ele>
        <time>2019-03-30T13:30:10Z</time>
      </trkpt>
      <trkpt lat="49.32161" lon="4.07072">
        <ele>137</ele>
        <time>2019-03-30T13:30:11Z</time>
      </trkpt>
      <trkpt lat="49.32168" lon="4.07071">
        <ele>137</ele>
        <time>2019-03-30T13:30:12Z</time>
      </trkpt>
      <trkpt lat="49.32174" lon="4.07071">
        <ele>138</ele>
        <time>2019-03-30T13:30:13Z</time>
      </trkpt>
      <trkpt lat="49.3218" lon="4.07071">
        <ele>138</ele>
        <time>2019-03-30T13:30:14Z</time>
      </trkpt>
      <trkpt lat="49.32186" lon="4.07071">
        <ele>138</ele>
        <time>2019-03-30T13:30:15Z</time>
      </trkpt>
      <trkpt lat="49.32192" lon="4.07071">
        <ele>138</ele>
        <time>2019-03-30T13:30:16Z</time>
      </trkpt>
      <trkpt lat="49.32197" lon="4.07071">
        <ele>138</ele>
        <time>2019-03-30T13:30:17Z</time>
      </trkpt>
      <trkpt lat="49.32203" lon="4.0707">
        <ele>138</ele>
        <time>2019-03-30T13:30:18Z</time>
      </trkpt>
      <trkpt lat="49.32209" lon="4.0707">
        <ele>138</ele>
        <time>2019-03-30T13:30:19Z</time>
      </trkpt>
      <trkpt lat="49.32215" lon="4.0707">
        <ele>139</ele>
        <time>2019-03-30T13:30:20Z</time>
      </trkpt>
      <trkpt lat="49.32221" lon="4.07071">
        <ele>139</ele>
        <time>2019-03-30T13:30:21Z</time>
      </trkpt>
      <trkpt lat="49.32226" lon="4.07071">
        <ele>139</ele>
        <time>2019-03-30T13:30:22Z</time>
      </trkpt>
      <trkpt lat="49.32232" lon="4.07071">
        <ele>139</ele>
        <time>2019-03-30T13:30:23Z</time>
      </trkpt>
      <trkpt lat="49.32237" lon="4.07072">
        <ele>139</ele>
        <time>2019-03-30T13:30:24Z</time>
      </trkpt>
      <trkpt lat="49.32243" lon="4.07072">
        <ele>139</ele>
        <time>2019-03-30T13:30:25Z</time>
      </trkpt>
      <trkpt lat="49.32249" lon="4.07071">
        <ele>139</ele>
        <time>2019-03-30T13:30:26Z</time>
      </trkpt>
      <trkpt lat="49.32254" lon="4.07071">
        <ele>139</ele>
        <time>2019-03-30T13:30:27Z</time>
      </trkpt>
      <trkpt lat="49.3226" lon="4.07071">
        <ele>139</ele>
        <time>2019-03-30T13:30:28Z</time>
      </trkpt>
      <trkpt lat="49.32265" lon="4.07071">
        <ele>139</ele>
        <time>2019-03-30T13:30:29Z</time>
      </trkpt>
      <trkpt lat="49.32271" lon="4.07071">
        <ele>139</ele>
        <time>2019-03-30T13:30:30Z</time>
      </trkpt>
      <trkpt lat="49.32277" lon="4.07071">
        <ele>140</ele>
        <time>2019-03-30T13:30:31Z</time>
      </trkpt>
      <trkpt lat="49.32282" lon="4.07072">
        <ele>140</ele>
        <time>2019-03-30T13:30:32Z</time>
      </trkpt>
      <trkpt lat="49.32288" lon="4.07071">
        <ele>140</ele>
        <time>2019-03-30T13:30:33Z</time>
      </trkpt>
      <trkpt lat="49.32294" lon="4.07072">
        <ele>140</ele>
        <time>2019-03-30T13:30:34Z</time>
      </trkpt>
      <trkpt lat="49.32299" lon="4.07072">
        <ele>140</ele>
        <time>2019-03-30T13:30:35Z</time>
      </trkpt>
      <trkpt lat="49.32305" lon="4.07072">
        <ele>140</ele>
        <time>2019-03-30T13:30:36Z</time>
      </trkpt>
      <trkpt lat="49.3231" lon="4.07072">
        <ele>140</ele>
        <time>2019-03-30T13:30:37Z</time>
      </trkpt>
      <trkpt lat="49.32315" lon="4.07072">
        <ele>140</ele>
        <time>2019-03-30T13:30:38Z</time>
      </trkpt>
      <trkpt lat="49.32321" lon="4.07072">
        <ele>140</ele>
        <time>2019-03-30T13:30:39Z</time>
      </trkpt>
      <trkpt lat="49.32327" lon="4.07073">
        <ele>140</ele>
        <time>2019-03-30T13:30:40Z</time>
      </trkpt>
      <trkpt lat="49.32332" lon="4.07073">
        <ele>140</ele>
        <time>2019-03-30T13:30:41Z</time>
      </trkpt>
      <trkpt lat="49.32337" lon="4.07072">
        <ele>140</ele>
        <time>2019-03-30T13:30:42Z</time>
      </trkpt>
      <trkpt lat="49.32342" lon="4.07073">
        <ele>141</ele>
        <time>2019-03-30T13:30:43Z</time>
      </trkpt>
      <trkpt lat="49.32347" lon="4.07073">
        <ele>141</ele>
        <time>2019-03-30T13:30:44Z</time>
      </trkpt>
      <trkpt lat="49.32353" lon="4.07073">
        <ele>141</ele>
        <time>2019-03-30T13:30:45Z</time>
      </trkpt>
      <trkpt lat="49.32358" lon="4.07073">
        <ele>141</ele>
        <time>2019-03-30T13:30:46Z</time>
      </trkpt>
      <trkpt lat="49.32363" lon="4.07074">
        <ele>141</ele>
        <time>2019-03-30T13:30:47Z</time>
      </trkpt>
      <trkpt lat="49.32368" lon="4.07074">
        <ele>142</ele>
        <time>2019-03-30T13:30:48Z</time>
      </trkpt>
      <trkpt lat="49.32373" lon="4.07074">
        <ele>142</ele>
        <time>2019-03-30T13:30:49Z</time>
      </trkpt>
      <trkpt lat="49.32379" lon="4.07073">
        <ele>142</ele>
        <time>2019-03-30T13:30:50Z</time>
      </trkpt>
      <trkpt lat="49.32384" lon="4.07074">
        <ele>142</ele>
        <time>2019-03-30T13:30:51Z</time>
      </trkpt>
      <trkpt lat="49.32389" lon="4.07074">
        <ele>142</ele>
        <time>2019-03-30T13:30:52Z</time>
      </trkpt>
      <trkpt lat="49.32395" lon="4.07073">
        <ele>142</ele>
        <time>2019-03-30T13:30:53Z</time>
      </trkpt>
      <trkpt lat="49.324" lon="4.07074">
        <ele>142</ele>
        <time>2019-03-30T13:30:54Z</time>
      </trkpt>
      <trkpt lat="49.32405" lon="4.07074">
        <ele>142</ele>
        <time>2019-03-30T13:30:55Z</time>
      </trkpt>
      <trkpt lat="49.32411" lon="4.07074">
        <ele>143</ele>
        <time>2019-03-30T13:30:56Z</time>
      </trkpt>
      <trkpt lat="49.32417" lon="4.07073">
        <ele>143</ele>
        <time>2019-03-30T13:30:57Z</time>
      </trkpt>
      <trkpt lat="49.32423" lon="4.07074">
        <ele>143</ele>
        <time>2019-03-30T13:30:58Z</time>
      </trkpt>
      <trkpt lat="49.32428" lon="4.07074">
        <ele>143</ele>
        <time>2019-03-30T13:30:59Z</time>
      </trkpt>
      <trkpt lat="49.32434" lon="4.07074">
        <ele>143</ele>
        <time>2019-03-30T13:31:00Z</time>
      </trkpt>
      <trkpt lat="49.32439" lon="4.07074">
        <ele>143</ele>
        <time>2019-03-30T13:31:01Z</time>
      </trkpt>
      <trkpt lat="49.32444" lon="4.07073">
        <ele>143</ele>
        <time>2019-03-30T13:31:02Z</time>
      </trkpt>
      <trkpt lat="49.3245" lon="4.07073">
        <ele>143</ele>
        <time>2019-03-30T13:31:03Z</time>
      </trkpt>
      <trkpt lat="49.32455" lon="4.07073">
        <ele>143</ele>
        <time>2019-03-30T13:31:04Z</time>
      </trkpt>
      <trkpt lat="49.3246" lon="4.07073">
        <ele>143</ele>
        <time>2019-03-30T13:31:05Z</time>
      </trkpt>
      <trkpt lat="49.32465" lon="4.07073">
        <ele>143</ele>
        <time>2019-03-30T13:31:06Z</time>
      </trkpt>
      <trkpt lat="49.32471" lon="4.07073">
        <ele>143</ele>
        <time>2019-03-30T13:31:07Z</time>
      </trkpt>
      <trkpt lat="49.32476" lon="4.07073">
        <ele>143</ele>
        <time>2019-03-30T13:31:08Z</time>
      </trkpt>
      <trkpt lat="49.32481" lon="4.07073">
        <ele>143</ele>
        <time>2019-03-30T13:31:09Z</time>
      </trkpt>
      <trkpt lat="49.32486" lon="4.07074">
        <ele>143</ele>
        <time>2019-03-30T13:31:10Z</time>
      </trkpt>
      <trkpt lat="49.3249" lon="4.07074">
        <ele>143</ele>
        <time>2019-03-30T13:31:11Z</time>
      </trkpt>
      <trkpt lat="49.32495" lon="4.07074">
        <ele>143</ele>
        <time>2019-03-30T13:31:12Z</time>
      </trkpt>
      <trkpt lat="49.32501" lon="4.07074">
        <ele>144</ele>
        <time>2019-03-30T13:31:13Z</time>
      </trkpt>
      <trkpt lat="49.32506" lon="4.07075">
        <ele>144</ele>
        <time>2019-03-30T13:31:14Z</time>
      </trkpt>
      <trkpt lat="49.32511" lon="4.07074">
        <ele>144</ele>
        <time>2019-03-30T13:31:15Z</time>
      </trkpt>
      <trkpt lat="49.32516" lon="4.07074">
        <ele>144</ele>
        <time>2019-03-30T13:31:16Z</time>
      </trkpt>
      <trkpt lat="49.32522" lon="4.07074">
        <ele>144</ele>
        <time>2019-03-30T13:31:17Z</time>
      </trkpt>
      <trkpt lat="49.32527" lon="4.07074">
        <ele>144</ele>
        <time>2019-03-30T13:31:18Z</time>
      </trkpt>
      <trkpt lat="49.32532" lon="4.07074">
        <ele>145</ele>
        <time>2019-03-30T13:31:19Z</time>
      </trkpt>
      <trkpt lat="49.32537" lon="4.07074">
        <ele>145</ele>
        <time>2019-03-30T13:31:20Z</time>
      </trkpt>
      <trkpt lat="49.32542" lon="4.07074">
        <ele>145</ele>
        <time>2019-03-30T13:31:21Z</time>
      </trkpt>
      <trkpt lat="49.32547" lon="4.07074">
        <ele>145</ele>
        <time>2019-03-30T13:31:22Z</time>
      </trkpt>
      <trkpt lat="49.32553" lon="4.07074">
        <ele>145</ele>
        <time>2019-03-30T13:31:23Z</time>
      </trkpt>
      <trkpt lat="49.32558" lon="4.07075">
        <ele>146</ele>
        <time>2019-03-30T13:31:24Z</time>
      </trkpt>
      <trkpt lat="49.32563" lon="4.07074">
        <ele>146</ele>
        <time>2019-03-30T13:31:25Z</time>
      </trkpt>
      <trkpt lat="49.32569" lon="4.07074">
        <ele>145</ele>
        <time>2019-03-30T13:31:26Z</time>
      </trkpt>
      <trkpt lat="49.32574" lon="4.07074">
        <ele>146</ele>
        <time>2019-03-30T13:31:27Z</time>
      </trkpt>
      <trkpt lat="49.3258" lon="4.07075">
        <ele>146</ele>
        <time>2019-03-30T13:31:28Z</time>
      </trkpt>
      <trkpt lat="49.32585" lon="4.07075">
        <ele>146</ele>
        <time>2019-03-30T13:31:29Z</time>
      </trkpt>
      <trkpt lat="49.32591" lon="4.07075">
        <ele>146</ele>
        <time>2019-03-30T13:31:30Z</time>
      </trkpt>
      <trkpt lat="49.32596" lon="4.07075">
        <ele>146</ele>
        <time>2019-03-30T13:31:31Z</time>
      </trkpt>
      <trkpt lat="49.32608" lon="4.07074">
        <ele>146</ele>
        <time>2019-03-30T13:31:33Z</time>
      </trkpt>
      <trkpt lat="49.32613" lon="4.07074">
        <ele>146</ele>
        <time>2019-03-30T13:31:34Z</time>
      </trkpt>
      <trkpt lat="49.32619" lon="4.07074">
        <ele>146</ele>
        <time>2019-03-30T13:31:35Z</time>
      </trkpt>
      <trkpt lat="49.32624" lon="4.07074">
        <ele>146</ele>
        <time>2019-03-30T13:31:36Z</time>
      </trkpt>
      <trkpt lat="49.32629" lon="4.07075">
        <ele>146</ele>
        <time>2019-03-30T13:31:37Z</time>
      </trkpt>
      <trkpt lat="49.32635" lon="4.07074">
        <ele>146</ele>
        <time>2019-03-30T13:31:38Z</time>
      </trkpt>
      <trkpt lat="49.3264" lon="4.07075">
        <ele>146</ele>
        <time>2019-03-30T13:31:39Z</time>
      </trkpt>
      <trkpt lat="49.32646" lon="4.07074">
        <ele>146</ele>
        <time>2019-03-30T13:31:40Z</time>
      </trkpt>
      <trkpt lat="49.32652" lon="4.07075">
        <ele>146</ele>
        <time>2019-03-30T13:31:41Z</time>
      </trkpt>
      <trkpt lat="49.32657" lon="4.07075">
        <ele>146</ele>
        <time>2019-03-30T13:31:42Z</time>
      </trkpt>
      <trkpt lat="49.32663" lon="4.07075">
        <ele>146</ele>
        <time>2019-03-30T13:31:43Z</time>
      </trkpt>
      <trkpt lat="49.32669" lon="4.07075">
        <ele>147</ele>
        <time>2019-03-30T13:31:44Z</time>
      </trkpt>
      <trkpt lat="49.32675" lon="4.07074">
        <ele>147</ele>
        <time>2019-03-30T13:31:45Z</time>
      </trkpt>
      <trkpt lat="49.3268" lon="4.07075">
        <ele>146</ele>
        <time>2019-03-30T13:31:46Z</time>
      </trkpt>
      <trkpt lat="49.32685" lon="4.07075">
        <ele>147</ele>
        <time>2019-03-30T13:31:47Z</time>
      </trkpt>
      <trkpt lat="49.3269" lon="4.07075">
        <ele>147</ele>
        <time>2019-03-30T13:31:48Z</time>
      </trkpt>
      <trkpt lat="49.32695" lon="4.07075">
        <ele>146</ele>
        <time>2019-03-30T13:31:49Z</time>
      </trkpt>
      <trkpt lat="49.32701" lon="4.07076">
        <ele>146</ele>
        <time>2019-03-30T13:31:50Z</time>
      </trkpt>
      <trkpt lat="49.32707" lon="4.07077">
        <ele>146</ele>
        <time>2019-03-30T13:31:51Z</time>
      </trkpt>
      <trkpt lat="49.32713" lon="4.07078">
        <ele>146</ele>
        <time>2019-03-30T13:31:52Z</time>
      </trkpt>
      <trkpt lat="49.32719" lon="4.07079">
        <ele>146</ele>
        <time>2019-03-30T13:31:53Z</time>
      </trkpt>
      <trkpt lat="49.32726" lon="4.0708">
        <ele>146</ele>
        <time>2019-03-30T13:31:54Z</time>
      </trkpt>
      <trkpt lat="49.32732" lon="4.07081">
        <ele>145</ele>
        <time>2019-03-30T13:31:55Z</time>
      </trkpt>
      <trkpt lat="49.32739" lon="4.07082">
        <ele>145</ele>
        <time>2019-03-30T13:31:56Z</time>
      </trkpt>
      <trkpt lat="49.32745" lon="4.07083">
        <ele>145</ele>
        <time>2019-03-30T13:31:57Z</time>
      </trkpt>
      <trkpt lat="49.32752" lon="4.07084">
        <ele>145</ele>
        <time>2019-03-30T13:31:58Z</time>
      </trkpt>
      <trkpt lat="49.32759" lon="4.07085">
        <ele>144</ele>
        <time>2019-03-30T13:31:59Z</time>
      </trkpt>
      <trkpt lat="49.32767" lon="4.07086">
        <ele>144</ele>
        <time>2019-03-30T13:32:00Z</time>
      </trkpt>
      <trkpt lat="49.32774" lon="4.07087">
        <ele>144</ele>
        <time>2019-03-30T13:32:01Z</time>
      </trkpt>
      <trkpt lat="49.32781" lon="4.07089">
        <ele>144</ele>
        <time>2019-03-30T13:32:02Z</time>
      </trkpt>
      <trkpt lat="49.32788" lon="4.0709">
        <ele>144</ele>
        <time>2019-03-30T13:32:03Z</time>
      </trkpt>
      <trkpt lat="49.32796" lon="4.07091">
        <ele>144</ele>
        <time>2019-03-30T13:32:04Z</time>
      </trkpt>
      <trkpt lat="49.32804" lon="4.07093">
        <ele>144</ele>
        <time>2019-03-30T13:32:05Z</time>
      </trkpt>
      <trkpt lat="49.32811" lon="4.07093">
        <ele>143</ele>
        <time>2019-03-30T13:32:06Z</time>
      </trkpt>
      <trkpt lat="49.32819" lon="4.07094">
        <ele>143</ele>
        <time>2019-03-30T13:32:07Z</time>
      </trkpt>
      <trkpt lat="49.32827" lon="4.07095">
        <ele>143</ele>
        <time>2019-03-30T13:32:08Z</time>
      </trkpt>
      <trkpt lat="49.32835" lon="4.07096">
        <ele>143</ele>
        <time>2019-03-30T13:32:09Z</time>
      </trkpt>
      <trkpt lat="49.32843" lon="4.07098">
        <ele>143</ele>
        <time>2019-03-30T13:32:10Z</time>
      </trkpt>
      <trkpt lat="49.32851" lon="4.07099">
        <ele>142</ele>
        <time>2019-03-30T13:32:11Z</time>
      </trkpt>
      <trkpt lat="49.32859" lon="4.071">
        <ele>142</ele>
        <time>2019-03-30T13:32:12Z</time>
      </trkpt>
      <trkpt lat="49.32867" lon="4.07101">
        <ele>142</ele>
        <time>2019-03-30T13:32:13Z</time>
      </trkpt>
      <trkpt lat="49.32875" lon="4.07102">
        <ele>142</ele>
        <time>2019-03-30T13:32:14Z</time>
      </trkpt>
      <trkpt lat="49.32883" lon="4.07104">
        <ele>142</ele>
        <time>2019-03-30T13:32:15Z</time>
      </trkpt>
      <trkpt lat="49.32892" lon="4.07105">
        <ele>141</ele>
        <time>2019-03-30T13:32:16Z</time>
      </trkpt>
      <trkpt lat="49.32901" lon="4.07106">
        <ele>141</ele>
        <time>2019-03-30T13:32:17Z</time>
      </trkpt>
      <trkpt lat="49.3291" lon="4.07107">
        <ele>141</ele>
        <time>2019-03-30T13:32:18Z</time>
      </trkpt>
      <trkpt lat="49.32918" lon="4.07109">
        <ele>141</ele>
        <time>2019-03-30T13:32:19Z</time>
      </trkpt>
      <trkpt lat="49.32927" lon="4.07111">
        <ele>141</ele>
        <time>2019-03-30T13:32:20Z</time>
      </trkpt>
      <trkpt lat="49.32936" lon="4.07112">
        <ele>141</ele>
        <time>2019-03-30T13:32:21Z</time>
      </trkpt>
      <trkpt lat="49.32945" lon="4.07113">
        <ele>141</ele>
        <time>2019-03-30T13:32:22Z</time>
      </trkpt>
      <trkpt lat="49.32954" lon="4.07114">
        <ele>141</ele>
        <time>2019-03-30T13:32:23Z</time>
      </trkpt>
      <trkpt lat="49.32963" lon="4.07115">
        <ele>140</ele>
        <time>2019-03-30T13:32:24Z</time>
      </trkpt>
      <trkpt lat="49.32972" lon="4.07116">
        <ele>140</ele>
        <time>2019-03-30T13:32:25Z</time>
      </trkpt>
      <trkpt lat="49.32981" lon="4.07117">
        <ele>140</ele>
        <time>2019-03-30T13:32:26Z</time>
      </trkpt>
      <trkpt lat="49.32999" lon="4.07119">
        <ele>139</ele>
        <time>2019-03-30T13:32:28Z</time>
      </trkpt>
      <trkpt lat="49.33009" lon="4.07121">
        <ele>139</ele>
        <time>2019-03-30T13:32:29Z</time>
      </trkpt>
      <trkpt lat="49.33018" lon="4.07123">
        <ele>139</ele>
        <time>2019-03-30T13:32:30Z</time>
      </trkpt>
      <trkpt lat="49.33026" lon="4.07125">
        <ele>139</ele>
        <time>2019-03-30T13:32:31Z</time>
      </trkpt>
      <trkpt lat="49.33035" lon="4.07126">
        <ele>139</ele>
        <time>2019-03-30T13:32:32Z</time>
      </trkpt>
      <trkpt lat="49.33043" lon="4.07127">
        <ele>139</ele>
        <time>2019-03-30T13:32:33Z</time>
      </trkpt>
      <trkpt lat="49.33052" lon="4.07129">
        <ele>139</ele>
        <time>2019-03-30T13:32:34Z</time>
      </trkpt>
      <trkpt lat="49.3306" lon="4.0713">
        <ele>139</ele>
        <time>2019-03-30T13:32:35Z</time>
      </trkpt>
      <trkpt lat="49.33068" lon="4.07132">
        <ele>139</ele>
        <time>2019-03-30T13:32:36Z</time>
      </trkpt>
      <trkpt lat="49.33076" lon="4.07133">
        <ele>138</ele>
        <time>2019-03-30T13:32:37Z</time>
      </trkpt>
      <trkpt lat="49.33085" lon="4.07134">
        <ele>138</ele>
        <time>2019-03-30T13:32:38Z</time>
      </trkpt>
      <trkpt lat="49.33093" lon="4.07135">
        <ele>138</ele>
        <time>2019-03-30T13:32:39Z</time>
      </trkpt>
      <trkpt lat="49.33101" lon="4.07136">
        <ele>138</ele>
        <time>2019-03-30T13:32:40Z</time>
      </trkpt>
      <trkpt lat="49.33109" lon="4.07137">
        <ele>138</ele>
        <time>2019-03-30T13:32:41Z</time>
      </trkpt>
      <trkpt lat="49.33116" lon="4.07139">
        <ele>137</ele>
        <time>2019-03-30T13:32:42Z</time>
      </trkpt>
      <trkpt lat="49.33124" lon="4.0714">
        <ele>137</ele>
        <time>2019-03-30T13:32:43Z</time>
      </trkpt>
      <trkpt lat="49.33132" lon="4.07142">
        <ele>137</ele>
        <time>2019-03-30T13:32:44Z</time>
      </trkpt>
      <trkpt lat="49.3314" lon="4.07143">
        <ele>137</ele>
        <time>2019-03-30T13:32:45Z</time>
      </trkpt>
      <trkpt lat="49.33147" lon="4.07144">
        <ele>137</ele>
        <time>2019-03-30T13:32:46Z</time>
      </trkpt>
      <trkpt lat="49.33155" lon="4.07145">
        <ele>137</ele>
        <time>2019-03-30T13:32:47Z</time>
      </trkpt>
      <trkpt lat="49.33163" lon="4.07146">
        <ele>137</ele>
        <time>2019-03-30T13:32:48Z</time>
      </trkpt>
      <trkpt lat="49.33171" lon="4.07147">
        <ele>137</ele>
        <time>2019-03-30T13:32:49Z</time>
      </trkpt>
      <trkpt lat="49.33179" lon="4.07148">
        <ele>136</ele>
        <time>2019-03-30T13:32:50Z</time>
      </trkpt>
      <trkpt lat="49.33187" lon="4.0715">
        <ele>136</ele>
        <time>2019-03-30T13:32:51Z</time>
      </trkpt>
      <trkpt lat="49.33195" lon="4.07152">
        <ele>136</ele>
        <time>2019-03-30T13:32:52Z</time>
      </trkpt>
      <trkpt lat="49.33204" lon="4.07153">
        <ele>136</ele>
        <time>2019-03-30T13:32:53Z</time>
      </trkpt>
      <trkpt lat="49.33213" lon="4.07154">
        <ele>136</ele>
        <time>2019-03-30T13:32:54Z</time>
      </trkpt>
      <trkpt lat="49.33221" lon="4.07155">
        <ele>136</ele>
        <time>2019-03-30T13:32:55Z</time>
      </trkpt>
      <trkpt lat="49.3323" lon="4.07156">
        <ele>136</ele>
        <time>2019-03-30T13:32:56Z</time>
      </trkpt>
      <trkpt lat="49.33238" lon="4.07158">
        <ele>136</ele>
        <time>2019-03-30T13:32:57Z</time>
      </trkpt>
      <trkpt lat="49.33247" lon="4.0716">
        <ele>136</ele>
        <time>2019-03-30T13:32:58Z</time>
      </trkpt>
      <trkpt lat="49.33256" lon="4.0716">
        <ele>135</ele>
        <time>2019-03-30T13:32:59Z</time>
      </trkpt>
      <trkpt lat="49.33265" lon="4.07161">
        <ele>135</ele>
        <time>2019-03-30T13:33:00Z</time>
      </trkpt>
      <trkpt lat="49.33274" lon="4.07163">
        <ele>135</ele>
        <time>2019-03-30T13:33:01Z</time>
      </trkpt>
      <trkpt lat="49.33283" lon="4.07165">
        <ele>135</ele>
        <time>2019-03-30T13:33:02Z</time>
      </trkpt>
      <trkpt lat="49.33292" lon="4.07167">
        <ele>135</ele>
        <time>2019-03-30T13:33:03Z</time>
      </trkpt>
      <trkpt lat="49.33302" lon="4.07169">
        <ele>135</ele>
        <time>2019-03-30T13:33:04Z</time>
      </trkpt>
      <trkpt lat="49.33311" lon="4.0717">
        <ele>135</ele>
        <time>2019-03-30T13:33:05Z</time>
      </trkpt>
      <trkpt lat="49.33321" lon="4.07171">
        <ele>135</ele>
        <time>2019-03-30T13:33:06Z</time>
      </trkpt>
      <trkpt lat="49.33329" lon="4.07173">
        <ele>135</ele>
        <time>2019-03-30T13:33:07Z</time>
      </trkpt>
      <trkpt lat="49.33339" lon="4.07174">
        <ele>134</ele>
        <time>2019-03-30T13:33:08Z</time>
      </trkpt>
      <trkpt lat="49.33347" lon="4.07175">
        <ele>134</ele>
        <time>2019-03-30T13:33:09Z</time>
      </trkpt>
      <trkpt lat="49.33356" lon="4.07177">
        <ele>134</ele>
        <time>2019-03-30T13:33:10Z</time>
      </trkpt>
      <trkpt lat="49.33364" lon="4.07178">
        <ele>134</ele>
        <time>2019-03-30T13:33:11Z</time>
      </trkpt>
      <trkpt lat="49.33373" lon="4.0718">
        <ele>134</ele>
        <time>2019-03-30T13:33:12Z</time>
      </trkpt>
      <trkpt lat="49.33382" lon="4.07181">
        <ele>134</ele>
        <time>2019-03-30T13:33:13Z</time>
      </trkpt>
      <trkpt lat="49.3339" lon="4.07182">
        <ele>134</ele>
        <time>2019-03-30T13:33:14Z</time>
      </trkpt>
      <trkpt lat="49.33399" lon="4.07183">
        <ele>133</ele>
        <time>2019-03-30T13:33:15Z</time>
      </trkpt>
      <trkpt lat="49.33407" lon="4.07185">
        <ele>133</ele>
        <time>2019-03-30T13:33:16Z</time>
      </trkpt>
      <trkpt lat="49.33416" lon="4.07186">
        <ele>133</ele>
        <time>2019-03-30T13:33:17Z</time>
      </trkpt>
      <trkpt lat="49.33424" lon="4.07188">
        <ele>133</ele>
        <time>2019-03-30T13:33:18Z</time>
      </trkpt>
      <trkpt lat="49.33433" lon="4.07189">
        <ele>133</ele>
        <time>2019-03-30T13:33:19Z</time>
      </trkpt>
      <trkpt lat="49.33441" lon="4.0719">
        <ele>133</ele>
        <time>2019-03-30T13:33:20Z</time>
      </trkpt>
      <trkpt lat="49.33449" lon="4.07191">
        <ele>133</ele>
        <time>2019-03-30T13:33:21Z</time>
      </trkpt>
      <trkpt lat="49.33458" lon="4.07193">
        <ele>133</ele>
        <time>2019-03-30T13:33:22Z</time>
      </trkpt>
      <trkpt lat="49.33466" lon="4.07195">
        <ele>132</ele>
        <time>2019-03-30T13:33:23Z</time>
      </trkpt>
      <trkpt lat="49.33474" lon="4.07196">
        <ele>132</ele>
        <time>2019-03-30T13:33:24Z</time>
      </trkpt>
      <trkpt lat="49.33482" lon="4.07197">
        <ele>132</ele>
        <time>2019-03-30T13:33:25Z</time>
      </trkpt>
      <trkpt lat="49.3349" lon="4.07198">
        <ele>132</ele>
        <time>2019-03-30T13:33:26Z</time>
      </trkpt>
      <trkpt lat="49.33498" lon="4.07199">
        <ele>132</ele>
        <time>2019-03-30T13:33:27Z</time>
      </trkpt>
      <trkpt lat="49.33506" lon="4.072">
        <ele>132</ele>
        <time>2019-03-30T13:33:28Z</time>
      </trkpt>
      <trkpt lat="49.33514" lon="4.07201">
        <ele>132</ele>
        <time>2019-03-30T13:33:29Z</time>
      </trkpt>
      <trkpt lat="49.33522" lon="4.07203">
        <ele>132</ele>
        <time>2019-03-30T13:33:30Z</time>
      </trkpt>
      <trkpt lat="49.3353" lon="4.07204">
        <ele>132</ele>
        <time>2019-03-30T13:33:31Z</time>
      </trkpt>
      <trkpt lat="49.33538" lon="4.07205">
        <ele>132</ele>
        <time>2019-03-30T13:33:32Z</time>
      </trkpt>
      <trkpt lat="49.33546" lon="4.07206">
        <ele>132</ele>
        <time>2019-03-30T13:33:33Z</time>
      </trkpt>
      <trkpt lat="49.33554" lon="4.07207">
        <ele>132</ele>
        <time>2019-03-30T13:33:34Z</time>
      </trkpt>
      <trkpt lat="49.33562" lon="4.07208">
        <ele>132</ele>
        <time>2019-03-30T13:33:35Z</time>
      </trkpt>
      <trkpt lat="49.3357" lon="4.0721">
        <ele>131</ele>
        <time>2019-03-30T13:33:36Z</time>
      </trkpt>
      <trkpt lat="49.33578" lon="4.07211">
        <ele>132</ele>
        <time>2019-03-30T13:33:37Z</time>
      </trkpt>
      <trkpt lat="49.33586" lon="4.07212">
        <ele>131</ele>
        <time>2019-03-30T13:33:38Z</time>
      </trkpt>
      <trkpt lat="49.33594" lon="4.07214">
        <ele>131</ele>
        <time>2019-03-30T13:33:39Z</time>
      </trkpt>
      <trkpt lat="49.33602" lon="4.07215">
        <ele>131</ele>
        <time>2019-03-30T13:33:40Z</time>
      </trkpt>
      <trkpt lat="49.3361" lon="4.07216">
        <ele>132</ele>
        <time>2019-03-30T13:33:41Z</time>
      </trkpt>
      <trkpt lat="49.33618" lon="4.07217">
        <ele>131</ele>
        <time>2019-03-30T13:33:42Z</time>
      </trkpt>
      <trkpt lat="49.33625" lon="4.07218">
        <ele>131</ele>
        <time>2019-03-30T13:33:43Z</time>
      </trkpt>
      <trkpt lat="49.33633" lon="4.0722">
        <ele>131</ele>
        <time>2019-03-30T13:33:44Z</time>
      </trkpt>
      <trkpt lat="49.33641" lon="4.07221">
        <ele>131</ele>
        <time>2019-03-30T13:33:45Z</time>
      </trkpt>
      <trkpt lat="49.33649" lon="4.07222">
        <ele>131</ele>
        <time>2019-03-30T13:33:46Z</time>
      </trkpt>
      <trkpt lat="49.33657" lon="4.07224">
        <ele>131</ele>
        <time>2019-03-30T13:33:47Z</time>
      </trkpt>
      <trkpt lat="49.33665" lon="4.07225">
        <ele>131</ele>
        <time>2019-03-30T13:33:48Z</time>
      </trkpt>
      <trkpt lat="49.33673" lon="4.07226">
        <ele>131</ele>
        <time>2019-03-30T13:33:49Z</time>
      </trkpt>
      <trkpt lat="49.3368" lon="4.07228">
        <ele>131</ele>
        <time>2019-03-30T13:33:50Z</time>
      </trkpt>
      <trkpt lat="49.33688" lon="4.07229">
        <ele>131</ele>
        <time>2019-03-30T13:33:51Z</time>
      </trkpt>
      <trkpt lat="49.33695" lon="4.0723">
        <ele>132</ele>
        <time>2019-03-30T13:33:52Z</time>
      </trkpt>
      <trkpt lat="49.33703" lon="4.07232">
        <ele>131</ele>
        <time>2019-03-30T13:33:53Z</time>
      </trkpt>
      <trkpt lat="49.3371" lon="4.07233">
        <ele>131</ele>
        <time>2019-03-30T13:33:54Z</time>
      </trkpt>
      <trkpt lat="49.33717" lon="4.07234">
        <ele>131</ele>
        <time>2019-03-30T13:33:55Z</time>
      </trkpt>
      <trkpt lat="49.33725" lon="4.07235">
        <ele>131</ele>
        <time>2019-03-30T13:33:56Z</time>
      </trkpt>
      <trkpt lat="49.33732" lon="4.07236">
        <ele>131</ele>
        <time>2019-03-30T13:33:57Z</time>
      </trkpt>
      <trkpt lat="49.33739" lon="4.07237">
        <ele>131</ele>
        <time>2019-03-30T13:33:58Z</time>
      </trkpt>
      <trkpt lat="49.33746" lon="4.07238">
        <ele>131</ele>
        <time>2019-03-30T13:33:59Z</time>
      </trkpt>
      <trkpt lat="49.33753" lon="4.07239">
        <ele>131</ele>
        <time>2019-03-30T13:34:00Z</time>
      </trkpt>
      <trkpt lat="49.33759" lon="4.0724">
        <ele>132</ele>
        <time>2019-03-30T13:34:01Z</time>
      </trkpt>
      <trkpt lat="49.33766" lon="4.07241">
        <ele>131</ele>
        <time>2019-03-30T13:34:02Z</time>
      </trkpt>
      <trkpt lat="49.33773" lon="4.07242">
        <ele>131</ele>
        <time>2019-03-30T13:34:03Z</time>
      </trkpt>
      <trkpt lat="49.3378" lon="4.07243">
        <ele>131</ele>
        <time>2019-03-30T13:34:04Z</time>
      </trkpt>
      <trkpt lat="49.33787" lon="4.07244">
        <ele>131</ele>
        <time>2019-03-30T13:34:05Z</time>
      </trkpt>
      <trkpt lat="49.33795" lon="4.07245">
        <ele>131</ele>
        <time>2019-03-30T13:34:06Z</time>
      </trkpt>
      <trkpt lat="49.33802" lon="4.07246">
        <ele>131</ele>
        <time>2019-03-30T13:34:07Z</time>
      </trkpt>
      <trkpt lat="49.3381" lon="4.07248">
        <ele>131</ele>
        <time>2019-03-30T13:34:08Z</time>
      </trkpt>
      <trkpt lat="49.33817" lon="4.07249">
        <ele>131</ele>
        <time>2019-03-30T13:34:09Z</time>
      </trkpt>
      <trkpt lat="49.33825" lon="4.0725">
        <ele>131</ele>
        <time>2019-03-30T13:34:10Z</time>
      </trkpt>
      <trkpt lat="49.33832" lon="4.07251">
        <ele>131</ele>
        <time>2019-03-30T13:34:11Z</time>
      </trkpt>
      <trkpt lat="49.3384" lon="4.07253">
        <ele>131</ele>
        <time>2019-03-30T13:34:12Z</time>
      </trkpt>
      <trkpt lat="49.33848" lon="4.07254">
        <ele>131</ele>
        <time>2019-03-30T13:34:13Z</time>
      </trkpt>
      <trkpt lat="49.33855" lon="4.07255">
        <ele>131</ele>
        <time>2019-03-30T13:34:14Z</time>
      </trkpt>
      <trkpt lat="49.33862" lon="4.07256">
        <ele>131</ele>
        <time>2019-03-30T13:34:15Z</time>
      </trkpt>
      <trkpt lat="49.3387" lon="4.07257">
        <ele>131</ele>
        <time>2019-03-30T13:34:16Z</time>
      </trkpt>
      <trkpt lat="49.33878" lon="4.07259">
        <ele>131</ele>
        <time>2019-03-30T13:34:17Z</time>
      </trkpt>
      <trkpt lat="49.33886" lon="4.0726">
        <ele>131</ele>
        <time>2019-03-30T13:34:18Z</time>
      </trkpt>
      <trkpt lat="49.33893" lon="4.07261">
        <ele>131</ele>
        <time>2019-03-30T13:34:19Z</time>
      </trkpt>
      <trkpt lat="49.33901" lon="4.07262">
        <ele>131</ele>
        <time>2019-03-30T13:34:20Z</time>
      </trkpt>
      <trkpt lat="49.33909" lon="4.07263">
        <ele>131</ele>
        <time>2019-03-30T13:34:21Z</time>
      </trkpt>
      <trkpt lat="49.33916" lon="4.07264">
        <ele>131</ele>
        <time>2019-03-30T13:34:22Z</time>
      </trkpt>
      <trkpt lat="49.33924" lon="4.07265">
        <ele>130</ele>
        <time>2019-03-30T13:34:23Z</time>
      </trkpt>
      <trkpt lat="49.33932" lon="4.07266">
        <ele>131</ele>
        <time>2019-03-30T13:34:24Z</time>
      </trkpt>
      <trkpt lat="49.33939" lon="4.07267">
        <ele>130</ele>
        <time>2019-03-30T13:34:25Z</time>
      </trkpt>
      <trkpt lat="49.33947" lon="4.07268">
        <ele>130</ele>
        <time>2019-03-30T13:34:26Z</time>
      </trkpt>
      <trkpt lat="49.33954" lon="4.07269">
        <ele>130</ele>
        <time>2019-03-30T13:34:27Z</time>
      </trkpt>
      <trkpt lat="49.33961" lon="4.0727">
        <ele>130</ele>
        <time>2019-03-30T13:34:28Z</time>
      </trkpt>
      <trkpt lat="49.33968" lon="4.07271">
        <ele>130</ele>
        <time>2019-03-30T13:34:29Z</time>
      </trkpt>
      <trkpt lat="49.33975" lon="4.07272">
        <ele>131</ele>
        <time>2019-03-30T13:34:30Z</time>
      </trkpt>
      <trkpt lat="49.33982" lon="4.07273">
        <ele>131</ele>
        <time>2019-03-30T13:34:31Z</time>
      </trkpt>
      <trkpt lat="49.33989" lon="4.07274">
        <ele>131</ele>
        <time>2019-03-30T13:34:32Z</time>
      </trkpt>
      <trkpt lat="49.33996" lon="4.07276">
        <ele>130</ele>
        <time>2019-03-30T13:34:33Z</time>
      </trkpt>
      <trkpt lat="49.34003" lon="4.07277">
        <ele>130</ele>
        <time>2019-03-30T13:34:34Z</time>
      </trkpt>
      <trkpt lat="49.3401" lon="4.07278">
        <ele>131</ele>
        <time>2019-03-30T13:34:35Z</time>
      </trkpt>
      <trkpt lat="49.34017" lon="4.07279">
        <ele>130</ele>
        <time>2019-03-30T13:34:36Z</time>
      </trkpt>
      <trkpt lat="49.34023" lon="4.0728">
        <ele>131</ele>
        <time>2019-03-30T13:34:37Z</time>
      </trkpt>
      <trkpt lat="49.3403" lon="4.07281">
        <ele>130</ele>
        <time>2019-03-30T13:34:38Z</time>
      </trkpt>
      <trkpt lat="49.34036" lon="4.07282">
        <ele>131</ele>
        <time>2019-03-30T13:34:39Z</time>
      </trkpt>
      <trkpt lat="49.34042" lon="4.07283">
        <ele>130</ele>
        <time>2019-03-30T13:34:40Z</time>
      </trkpt>
      <trkpt lat="49.34049" lon="4.07284">
        <ele>130</ele>
        <time>2019-03-30T13:34:41Z</time>
      </trkpt>
      <trkpt lat="49.34056" lon="4.07285">
        <ele>131</ele>
        <time>2019-03-30T13:34:42Z</time>
      </trkpt>
      <trkpt lat="49.34063" lon="4.07286">
        <ele>131</ele>
        <time>2019-03-30T13:34:43Z</time>
      </trkpt>
      <trkpt lat="49.3407" lon="4.07287">
        <ele>131</ele>
        <time>2019-03-30T13:34:44Z</time>
      </trkpt>
      <trkpt lat="49.34076" lon="4.07288">
        <ele>131</ele>
        <time>2019-03-30T13:34:45Z</time>
      </trkpt>
      <trkpt lat="49.34082" lon="4.07289">
        <ele>131</ele>
        <time>2019-03-30T13:34:46Z</time>
      </trkpt>
      <trkpt lat="49.34089" lon="4.07291">
        <ele>131</ele>
        <time>2019-03-30T13:34:47Z</time>
      </trkpt>
      <trkpt lat="49.34095" lon="4.07292">
        <ele>131</ele>
        <time>2019-03-30T13:34:48Z</time>
      </trkpt>
      <trkpt lat="49.34102" lon="4.07293">
        <ele>131</ele>
        <time>2019-03-30T13:34:49Z</time>
      </trkpt>
      <trkpt lat="49.34109" lon="4.07294">
        <ele>131</ele>
        <time>2019-03-30T13:34:50Z</time>
      </trkpt>
      <trkpt lat="49.34115" lon="4.07295">
        <ele>131</ele>
        <time>2019-03-30T13:34:51Z</time>
      </trkpt>
      <trkpt lat="49.34121" lon="4.07296">
        <ele>131</ele>
        <time>2019-03-30T13:34:52Z</time>
      </trkpt>
      <trkpt lat="49.34128" lon="4.07297">
        <ele>131</ele>
        <time>2019-03-30T13:34:53Z</time>
      </trkpt>
      <trkpt lat="49.34135" lon="4.07298">
        <ele>131</ele>
        <time>2019-03-30T13:34:54Z</time>
      </trkpt>
      <trkpt lat="49.34141" lon="4.07299">
        <ele>131</ele>
        <time>2019-03-30T13:34:55Z</time>
      </trkpt>
      <trkpt lat="49.34147" lon="4.07299">
        <ele>131</ele>
        <time>2019-03-30T13:34:56Z</time>
      </trkpt>
      <trkpt lat="49.34153" lon="4.07301">
        <ele>131</ele>
        <time>2019-03-30T13:34:57Z</time>
      </trkpt>
      <trkpt lat="49.34159" lon="4.07301">
        <ele>131</ele>
        <time>2019-03-30T13:34:58Z</time>
      </trkpt>
      <trkpt lat="49.34165" lon="4.07302">
        <ele>131</ele>
        <time>2019-03-30T13:34:59Z</time>
      </trkpt>
      <trkpt lat="49.34171" lon="4.07302">
        <ele>131</ele>
        <time>2019-03-30T13:35:00Z</time>
      </trkpt>
      <trkpt lat="49.34177" lon="4.07303">
        <ele>131</ele>
        <time>2019-03-30T13:35:01Z</time>
      </trkpt>
      <trkpt lat="49.34183" lon="4.07304">
        <ele>131</ele>
        <time>2019-03-30T13:35:02Z</time>
      </trkpt>
      <trkpt lat="49.34189" lon="4.07305">
        <ele>132</ele>
        <time>2019-03-30T13:35:03Z</time>
      </trkpt>
      <trkpt lat="49.34195" lon="4.07306">
        <ele>132</ele>
        <time>2019-03-30T13:35:04Z</time>
      </trkpt>
      <trkpt lat="49.34201" lon="4.07307">
        <ele>132</ele>
        <time>2019-03-30T13:35:05Z</time>
      </trkpt>
      <trkpt lat="49.34207" lon="4.07308">
        <ele>132</ele>
        <time>2019-03-30T13:35:06Z</time>
      </trkpt>
      <trkpt lat="49.34214" lon="4.07309">
        <ele>132</ele>
        <time>2019-03-30T13:35:07Z</time>
      </trkpt>
      <trkpt lat="49.3422" lon="4.0731">
        <ele>132</ele>
        <time>2019-03-30T13:35:08Z</time>
      </trkpt>
      <trkpt lat="49.34227" lon="4.07311">
        <ele>132</ele>
        <time>2019-03-30T13:35:09Z</time>
      </trkpt>
      <trkpt lat="49.34233" lon="4.07312">
        <ele>132</ele>
        <time>2019-03-30T13:35:10Z</time>
      </trkpt>
      <trkpt lat="49.34239" lon="4.07313">
        <ele>132</ele>
        <time>2019-03-30T13:35:11Z</time>
      </trkpt>
      <trkpt lat="49.34246" lon="4.07314">
        <ele>132</ele>
        <time>2019-03-30T13:35:12Z</time>
      </trkpt>
      <trkpt lat="49.34252" lon="4.07315">
        <ele>131</ele>
        <time>2019-03-30T13:35:13Z</time>
      </trkpt>
      <trkpt lat="49.34259" lon="4.07315">
        <ele>132</ele>
        <time>2019-03-30T13:35:14Z</time>
      </trkpt>
      <trkpt lat="49.34265" lon="4.07316">
        <ele>132</ele>
        <time>2019-03-30T13:35:15Z</time>
      </trkpt>
      <trkpt lat="49.34272" lon="4.07316">
        <ele>131</ele>
        <time>2019-03-30T13:35:16Z</time>
      </trkpt>
      <trkpt lat="49.34278" lon="4.07316">
        <ele>131</ele>
        <time>2019-03-30T13:35:17Z</time>
      </trkpt>
      <trkpt lat="49.34284" lon="4.07315">
        <ele>131</ele>
        <time>2019-03-30T13:35:18Z</time>
      </trkpt>
      <trkpt lat="49.34291" lon="4.07315">
        <ele>131</ele>
        <time>2019-03-30T13:35:19Z</time>
      </trkpt>
      <trkpt lat="49.34297" lon="4.07313">
        <ele>131</ele>
        <time>2019-03-30T13:35:20Z</time>
      </trkpt>
      <trkpt lat="49.34303" lon="4.07311">
        <ele>130</ele>
        <time>2019-03-30T13:35:21Z</time>
      </trkpt>
      <trkpt lat="49.3431" lon="4.0731">
        <ele>130</ele>
        <time>2019-03-30T13:35:22Z</time>
      </trkpt>
      <trkpt lat="49.34316" lon="4.07307">
        <ele>130</ele>
        <time>2019-03-30T13:35:23Z</time>
      </trkpt>
      <trkpt lat="49.34323" lon="4.07305">
        <ele>130</ele>
        <time>2019-03-30T13:35:24Z</time>
      </trkpt>
      <trkpt lat="49.34329" lon="4.07302">
        <ele>130</ele>
        <time>2019-03-30T13:35:25Z</time>
      </trkpt>
      <trkpt lat="49.34336" lon="4.07299">
        <ele>129</ele>
        <time>2019-03-30T13:35:26Z</time>
      </trkpt>
      <trkpt lat="49.34343" lon="4.07296">
        <ele>129</ele>
        <time>2019-03-30T13:35:27Z</time>
      </trkpt>
      <trkpt lat="49.34349" lon="4.07293">
        <ele>129</ele>
        <time>2019-03-30T13:35:28Z</time>
      </trkpt>
      <trkpt lat="49.34356" lon="4.07289">
        <ele>129</ele>
        <time>2019-03-30T13:35:29Z</time>
      </trkpt>
      <trkpt lat="49.34363" lon="4.07286">
        <ele>129</ele>
        <time>2019-03-30T13:35:30Z</time>
      </trkpt>
      <trkpt lat="49.3437" lon="4.07282">
        <ele>129</ele>
        <time>2019-03-30T13:35:31Z</time>
      </trkpt>
      <trkpt lat="49.34377" lon="4.07278">
        <ele>129</ele>
        <time>2019-03-30T13:35:32Z</time>
      </trkpt>
      <trkpt lat="49.34384" lon="4.07275">
        <ele>129</ele>
        <time>2019-03-30T13:35:33Z</time>
      </trkpt>
      <trkpt lat="49.34392" lon="4.07271">
        <ele>129</ele>
        <time>2019-03-30T13:35:34Z</time>
      </trkpt>
      <trkpt lat="49.34399" lon="4.07268">
        <ele>128</ele>
        <time>2019-03-30T13:35:35Z</time>
      </trkpt>
      <trkpt lat="49.34406" lon="4.07264">
        <ele>128</ele>
        <time>2019-03-30T13:35:36Z</time>
      </trkpt>
      <trkpt lat="49.34413" lon="4.0726">
        <ele>128</ele>
        <time>2019-03-30T13:35:37Z</time>
      </trkpt>
      <trkpt lat="49.34421" lon="4.07256">
        <ele>128</ele>
        <time>2019-03-30T13:35:38Z</time>
      </trkpt>
      <trkpt lat="49.34428" lon="4.07253">
        <ele>128</ele>
        <time>2019-03-30T13:35:39Z</time>
      </trkpt>
      <trkpt lat="49.34435" lon="4.07249">
        <ele>128</ele>
        <time>2019-03-30T13:35:40Z</time>
      </trkpt>
      <trkpt lat="49.34442" lon="4.07246">
        <ele>128</ele>
        <time>2019-03-30T13:35:41Z</time>
      </trkpt>
      <trkpt lat="49.34448" lon="4.07242">
        <ele>128</ele>
        <time>2019-03-30T13:35:42Z</time>
      </trkpt>
      <trkpt lat="49.34455" lon="4.07238">
        <ele>128</ele>
        <time>2019-03-30T13:35:43Z</time>
      </trkpt>
      <trkpt lat="49.34462" lon="4.07234">
        <ele>127</ele>
        <time>2019-03-30T13:35:44Z</time>
      </trkpt>
      <trkpt lat="49.34469" lon="4.0723">
        <ele>127</ele>
        <time>2019-03-30T13:35:45Z</time>
      </trkpt>
      <trkpt lat="49.34476" lon="4.07227">
        <ele>127</ele>
        <time>2019-03-30T13:35:46Z</time>
      </trkpt>
      <trkpt lat="49.34483" lon="4.07223">
        <ele>127</ele>
        <time>2019-03-30T13:35:47Z</time>
      </trkpt>
      <trkpt lat="49.3449" lon="4.0722">
        <ele>127</ele>
        <time>2019-03-30T13:35:48Z</time>
      </trkpt>
      <trkpt lat="49.34496" lon="4.07215">
        <ele>127</ele>
        <time>2019-03-30T13:35:49Z</time>
      </trkpt>
      <trkpt lat="49.34503" lon="4.07212">
        <ele>127</ele>
        <time>2019-03-30T13:35:50Z</time>
      </trkpt>
      <trkpt lat="49.3451" lon="4.07208">
        <ele>127</ele>
        <time>2019-03-30T13:35:51Z</time>
      </trkpt>
      <trkpt lat="49.34517" lon="4.07205">
        <ele>127</ele>
        <time>2019-03-30T13:35:52Z</time>
      </trkpt>
      <trkpt lat="49.34524" lon="4.07201">
        <ele>127</ele>
        <time>2019-03-30T13:35:53Z</time>
      </trkpt>
      <trkpt lat="49.34531" lon="4.07198">
        <ele>126</ele>
        <time>2019-03-30T13:35:54Z</time>
      </trkpt>
      <trkpt lat="49.34537" lon="4.07194">
        <ele>126</ele>
        <time>2019-03-30T13:35:55Z</time>
      </trkpt>
      <trkpt lat="49.34544" lon="4.0719">
        <ele>126</ele>
        <time>2019-03-30T13:35:56Z</time>
      </trkpt>
      <trkpt lat="49.3455" lon="4.07187">
        <ele>126</ele>
        <time>2019-03-30T13:35:57Z</time>
      </trkpt>
      <trkpt lat="49.34557" lon="4.07183">
        <ele>126</ele>
        <time>2019-03-30T13:35:58Z</time>
      </trkpt>
      <trkpt lat="49.34564" lon="4.0718">
        <ele>126</ele>
        <time>2019-03-30T13:35:59Z</time>
      </trkpt>
      <trkpt lat="49.3457" lon="4.07177">
        <ele>127</ele>
        <time>2019-03-30T13:36:00Z</time>
      </trkpt>
      <trkpt lat="49.34576" lon="4.07174">
        <ele>127</ele>
        <time>2019-03-30T13:36:01Z</time>
      </trkpt>
      <trkpt lat="49.34582" lon="4.07171">
        <ele>127</ele>
        <time>2019-03-30T13:36:02Z</time>
      </trkpt>
      <trkpt lat="49.34588" lon="4.07168">
        <ele>127</ele>
        <time>2019-03-30T13:36:03Z</time>
      </trkpt>
      <trkpt lat="49.34594" lon="4.07166">
        <ele>127</ele>
        <time>2019-03-30T13:36:04Z</time>
      </trkpt>
      <trkpt lat="49.34601" lon="4.07163">
        <ele>127</ele>
        <time>2019-03-30T13:36:05Z</time>
      </trkpt>
      <trkpt lat="49.34607" lon="4.0716">
        <ele>128</ele>
        <time>2019-03-30T13:36:06Z</time>
      </trkpt>
      <trkpt lat="49.34612" lon="4.07157">
        <ele>127</ele>
        <time>2019-03-30T13:36:07Z</time>
      </trkpt>
      <trkpt lat="49.34618" lon="4.07154">
        <ele>127</ele>
        <time>2019-03-30T13:36:08Z</time>
      </trkpt>
      <trkpt lat="49.34623" lon="4.07151">
        <ele>127</ele>
        <time>2019-03-30T13:36:09Z</time>
      </trkpt>
      <trkpt lat="49.34629" lon="4.07148">
        <ele>127</ele>
        <time>2019-03-30T13:36:10Z</time>
      </trkpt>
      <trkpt lat="49.34634" lon="4.07145">
        <ele>126</ele>
        <time>2019-03-30T13:36:11Z</time>
      </trkpt>
      <trkpt lat="49.3464" lon="4.07142">
        <ele>126</ele>
        <time>2019-03-30T13:36:12Z</time>
      </trkpt>
      <trkpt lat="49.34645" lon="4.07139">
        <ele>126</ele>
        <time>2019-03-30T13:36:13Z</time>
      </trkpt>
      <trkpt lat="49.34651" lon="4.07137">
        <ele>127</ele>
        <time>2019-03-30T13:36:14Z</time>
      </trkpt>
      <trkpt lat="49.34657" lon="4.07134">
        <ele>127</ele>
        <time>2019-03-30T13:36:15Z</time>
      </trkpt>
      <trkpt lat="49.34663" lon="4.07131">
        <ele>127</ele>
        <time>2019-03-30T13:36:16Z</time>
      </trkpt>
      <trkpt lat="49.34669" lon="4.07128">
        <ele>126</ele>
        <time>2019-03-30T13:36:17Z</time>
      </trkpt>
      <trkpt lat="49.34675" lon="4.07125">
        <ele>126</ele>
        <time>2019-03-30T13:36:18Z</time>
      </trkpt>
      <trkpt lat="49.34681" lon="4.07122">
        <ele>126</ele>
        <time>2019-03-30T13:36:19Z</time>
      </trkpt>
      <trkpt lat="49.34687" lon="4.07119">
        <ele>126</ele>
        <time>2019-03-30T13:36:20Z</time>
      </trkpt>
      <trkpt lat="49.34692" lon="4.07115">
        <ele>126</ele>
        <time>2019-03-30T13:36:21Z</time>
      </trkpt>
      <trkpt lat="49.34698" lon="4.07112">
        <ele>127</ele>
        <time>2019-03-30T13:36:22Z</time>
      </trkpt>
      <trkpt lat="49.34703" lon="4.0711">
        <ele>127</ele>
        <time>2019-03-30T13:36:23Z</time>
      </trkpt>
      <trkpt lat="49.34709" lon="4.07107">
        <ele>127</ele>
        <time>2019-03-30T13:36:24Z</time>
      </trkpt>
      <trkpt lat="49.34714" lon="4.07104">
        <ele>127</ele>
        <time>2019-03-30T13:36:25Z</time>
      </trkpt>
      <trkpt lat="49.34719" lon="4.07101">
        <ele>127</ele>
        <time>2019-03-30T13:36:26Z</time>
      </trkpt>
      <trkpt lat="49.34724" lon="4.07098">
        <ele>127</ele>
        <time>2019-03-30T13:36:27Z</time>
      </trkpt>
      <trkpt lat="49.34729" lon="4.07095">
        <ele>127</ele>
        <time>2019-03-30T13:36:28Z</time>
      </trkpt>
      <trkpt lat="49.34734" lon="4.07092">
        <ele>127</ele>
        <time>2019-03-30T13:36:29Z</time>
      </trkpt>
      <trkpt lat="49.34739" lon="4.0709">
        <ele>127</ele>
        <time>2019-03-30T13:36:30Z</time>
      </trkpt>
      <trkpt lat="49.34743" lon="4.07088">
        <ele>127</ele>
        <time>2019-03-30T13:36:31Z</time>
      </trkpt>
      <trkpt lat="49.34747" lon="4.07086">
        <ele>128</ele>
        <time>2019-03-30T13:36:32Z</time>
      </trkpt>
      <trkpt lat="49.34751" lon="4.07085">
        <ele>128</ele>
        <time>2019-03-30T13:36:33Z</time>
      </trkpt>
      <trkpt lat="49.34755" lon="4.07082">
        <ele>128</ele>
        <time>2019-03-30T13:36:34Z</time>
      </trkpt>
      <trkpt lat="49.34759" lon="4.0708">
        <ele>128</ele>
        <time>2019-03-30T13:36:35Z</time>
      </trkpt>
      <trkpt lat="49.34764" lon="4.07077">
        <ele>128</ele>
        <time>2019-03-30T13:36:36Z</time>
      </trkpt>
      <trkpt lat="49.34768" lon="4.07075">
        <ele>129</ele>
        <time>2019-03-30T13:36:37Z</time>
      </trkpt>
      <trkpt lat="49.34773" lon="4.07072">
        <ele>129</ele>
        <time>2019-03-30T13:36:38Z</time>
      </trkpt>
      <trkpt lat="49.34777" lon="4.07069">
        <ele>129</ele>
        <time>2019-03-30T13:36:39Z</time>
      </trkpt>
      <trkpt lat="49.34782" lon="4.07066">
        <ele>129</ele>
        <time>2019-03-30T13:36:40Z</time>
      </trkpt>
      <trkpt lat="49.34787" lon="4.07063">
        <ele>129</ele>
        <time>2019-03-30T13:36:41Z</time>
      </trkpt>
      <trkpt lat="49.34791" lon="4.07061">
        <ele>130</ele>
        <time>2019-03-30T13:36:42Z</time>
      </trkpt>
      <trkpt lat="49.34796" lon="4.07058">
        <ele>130</ele>
        <time>2019-03-30T13:36:43Z</time>
      </trkpt>
      <trkpt lat="49.34802" lon="4.07056">
        <ele>130</ele>
        <time>2019-03-30T13:36:44Z</time>
      </trkpt>
      <trkpt lat="49.34807" lon="4.07055">
        <ele>130</ele>
        <time>2019-03-30T13:36:45Z</time>
      </trkpt>
      <trkpt lat="49.34812" lon="4.07052">
        <ele>131</ele>
        <time>2019-03-30T13:36:46Z</time>
      </trkpt>
      <trkpt lat="49.34817" lon="4.0705">
        <ele>131</ele>
        <time>2019-03-30T13:36:47Z</time>
      </trkpt>
      <trkpt lat="49.34822" lon="4.07048">
        <ele>131</ele>
        <time>2019-03-30T13:36:48Z</time>
      </trkpt>
      <trkpt lat="49.34827" lon="4.07045">
        <ele>130</ele>
        <time>2019-03-30T13:36:49Z</time>
      </trkpt>
      <trkpt lat="49.34831" lon="4.07043">
        <ele>130</ele>
        <time>2019-03-30T13:36:50Z</time>
      </trkpt>
      <trkpt lat="49.34837" lon="4.0704">
        <ele>130</ele>
        <time>2019-03-30T13:36:51Z</time>
      </trkpt>
      <trkpt lat="49.34841" lon="4.07037">
        <ele>131</ele>
        <time>2019-03-30T13:36:52Z</time>
      </trkpt>
      <trkpt lat="49.34847" lon="4.07035">
        <ele>131</ele>
        <time>2019-03-30T13:36:53Z</time>
      </trkpt>
      <trkpt lat="49.34851" lon="4.07032">
        <ele>131</ele>
        <time>2019-03-30T13:36:54Z</time>
      </trkpt>
      <trkpt lat="49.34856" lon="4.07029">
        <ele>131</ele>
        <time>2019-03-30T13:36:55Z</time>
      </trkpt>
      <trkpt lat="49.3486" lon="4.07027">
        <ele>131</ele>
        <time>2019-03-30T13:36:56Z</time>
      </trkpt>
      <trkpt lat="49.34865" lon="4.07024">
        <ele>131</ele>
        <time>2019-03-30T13:36:57Z</time>
      </trkpt>
      <trkpt lat="49.3487" lon="4.07021">
        <ele>131</ele>
        <time>2019-03-30T13:36:58Z</time>
      </trkpt>
      <trkpt lat="49.34875" lon="4.07018">
        <ele>131</ele>
        <time>2019-03-30T13:36:59Z</time>
      </trkpt>
      <trkpt lat="49.34879" lon="4.07016">
        <ele>132</ele>
        <time>2019-03-30T13:37:00Z</time>
      </trkpt>
      <trkpt lat="49.34883" lon="4.07013">
        <ele>132</ele>
        <time>2019-03-30T13:37:01Z</time>
      </trkpt>
      <trkpt lat="49.34887" lon="4.0701">
        <ele>132</ele>
        <time>2019-03-30T13:37:02Z</time>
      </trkpt>
      <trkpt lat="49.34891" lon="4.07007">
        <ele>132</ele>
        <time>2019-03-30T13:37:03Z</time>
      </trkpt>
      <trkpt lat="49.34894" lon="4.07005">
        <ele>132</ele>
        <time>2019-03-30T13:37:04Z</time>
      </trkpt>
      <trkpt lat="49.34897" lon="4.07003">
        <ele>132</ele>
        <time>2019-03-30T13:37:05Z</time>
      </trkpt>
      <trkpt lat="49.349" lon="4.07002">
        <ele>132</ele>
        <time>2019-03-30T13:37:06Z</time>
      </trkpt>
      <trkpt lat="49.34903" lon="4.07001">
        <ele>132</ele>
        <time>2019-03-30T13:37:07Z</time>
      </trkpt>
      <trkpt lat="49.34906" lon="4.07002">
        <ele>132</ele>
        <time>2019-03-30T13:37:08Z</time>
      </trkpt>
      <trkpt lat="49.34907" lon="4.07003">
        <ele>132</ele>
        <time>2019-03-30T13:37:09Z</time>
      </trkpt>
      <trkpt lat="49.34908" lon="4.07005">
        <ele>132</ele>
        <time>2019-03-30T13:37:10Z</time>
      </trkpt>
      <trkpt lat="49.34908" lon="4.07005">
        <ele>132</ele>
        <time>2019-03-30T13:37:11Z</time>
      </trkpt>
      <trkpt lat="49.34908" lon="4.07005">
        <ele>132</ele>
        <time>2019-03-30T13:37:12Z</time>
      </trkpt>
      <trkpt lat="49.34908" lon="4.07005">
        <ele>132</ele>
        <time>2019-03-30T13:37:13Z</time>
      </trkpt>
      <trkpt lat="49.34908" lon="4.07005">
        <ele>132</ele>
        <time>2019-03-30T13:37:14Z</time>
      </trkpt>
      <trkpt lat="49.34908" lon="4.07005">
        <ele>132</ele>
        <time>2019-03-30T13:37:15Z</time>
      </trkpt>
      <trkpt lat="49.34908" lon="4.07005">
        <ele>132</ele>
        <time>2019-03-30T13:37:16Z</time>
      </trkpt>
      <trkpt lat="49.34908" lon="4.07005">
        <ele>132</ele>
        <time>2019-03-30T13:37:17Z</time>
      </trkpt>
      <trkpt lat="49.34908" lon="4.07005">
        <ele>132</ele>
        <time>2019-03-30T13:37:18Z</time>
      </trkpt>
      <trkpt lat="49.34908" lon="4.07005">
        <ele>132</ele>
        <time>2019-03-30T13:37:19Z</time>
      </trkpt>
      <trkpt lat="49.34908" lon="4.07005">
        <ele>132</ele>
        <time>2019-03-30T13:37:20Z</time>
      </trkpt>
      <trkpt lat="49.34908" lon="4.07005">
        <ele>132</ele>
        <time>2019-03-30T13:37:21Z</time>
      </trkpt>
      <trkpt lat="49.34908" lon="4.07005">
        <ele>132</ele>
        <time>2019-03-30T13:37:22Z</time>
      </trkpt>
      <trkpt lat="49.34908" lon="4.07005">
        <ele>132</ele>
        <time>2019-03-30T13:37:23Z</time>
      </trkpt>
      <trkpt lat="49.34908" lon="4.07005">
        <ele>132</ele>
        <time>2019-03-30T13:37:24Z</time>
      </trkpt>
      <trkpt lat="49.34908" lon="4.07005">
        <ele>132</ele>
        <time>2019-03-30T13:37:25Z</time>
      </trkpt>
      <trkpt lat="49.34909" lon="4.07006">
        <ele>132</ele>
        <time>2019-03-30T13:37:26Z</time>
      </trkpt>
      <trkpt lat="49.3491" lon="4.07006">
        <ele>133</ele>
        <time>2019-03-30T13:37:27Z</time>
      </trkpt>
      <trkpt lat="49.34911" lon="4.07006">
        <ele>133</ele>
        <time>2019-03-30T13:37:28Z</time>
      </trkpt>
      <trkpt lat="49.34912" lon="4.07005">
        <ele>133</ele>
        <time>2019-03-30T13:37:29Z</time>
      </trkpt>
      <trkpt lat="49.34914" lon="4.07001">
        <ele>133</ele>
        <time>2019-03-30T13:37:30Z</time>
      </trkpt>
      <trkpt lat="49.34915" lon="4.06997">
        <ele>133</ele>
        <time>2019-03-30T13:37:31Z</time>
      </trkpt>
      <trkpt lat="49.34914" lon="4.06993">
        <ele>133</ele>
        <time>2019-03-30T13:37:32Z</time>
      </trkpt>
      <trkpt lat="49.34914" lon="4.06988">
        <ele>133</ele>
        <time>2019-03-30T13:37:33Z</time>
      </trkpt>
      <trkpt lat="49.34914" lon="4.06984">
        <ele>133</ele>
        <time>2019-03-30T13:37:34Z</time>
      </trkpt>
      <trkpt lat="49.34914" lon="4.0698">
        <ele>133</ele>
        <time>2019-03-30T13:37:35Z</time>
      </trkpt>
      <trkpt lat="49.34915" lon="4.06976">
        <ele>133</ele>
        <time>2019-03-30T13:37:36Z</time>
      </trkpt>
      <trkpt lat="49.34914" lon="4.06971">
        <ele>132</ele>
        <time>2019-03-30T13:37:37Z</time>
      </trkpt>
      <trkpt lat="49.34914" lon="4.06965">
        <ele>132</ele>
        <time>2019-03-30T13:37:38Z</time>
      </trkpt>
      <trkpt lat="49.34914" lon="4.06959">
        <ele>132</ele>
        <time>2019-03-30T13:37:39Z</time>
      </trkpt>
      <trkpt lat="49.34913" lon="4.06952">
        <ele>132</ele>
        <time>2019-03-30T13:37:40Z</time>
      </trkpt>
      <trkpt lat="49.34913" lon="4.06946">
        <ele>132</ele>
        <time>2019-03-30T13:37:41Z</time>
      </trkpt>
      <trkpt lat="49.34913" lon="4.0694">
        <ele>132</ele>
        <time>2019-03-30T13:37:42Z</time>
      </trkpt>
      <trkpt lat="49.34913" lon="4.06936">
        <ele>132</ele>
        <time>2019-03-30T13:37:43Z</time>
      </trkpt>
      <trkpt lat="49.34912" lon="4.06931">
        <ele>132</ele>
        <time>2019-03-30T13:37:44Z</time>
      </trkpt>
      <trkpt lat="49.34912" lon="4.06925">
        <ele>131</ele>
        <time>2019-03-30T13:37:45Z</time>
      </trkpt>
      <trkpt lat="49.34912" lon="4.06919">
        <ele>131</ele>
        <time>2019-03-30T13:37:46Z</time>
      </trkpt>
      <trkpt lat="49.34912" lon="4.06912">
        <ele>131</ele>
        <time>2019-03-30T13:37:47Z</time>
      </trkpt>
      <trkpt lat="49.34912" lon="4.06905">
        <ele>132</ele>
        <time>2019-03-30T13:37:48Z</time>
      </trkpt>
      <trkpt lat="49.34911" lon="4.06897">
        <ele>132</ele>
        <time>2019-03-30T13:37:49Z</time>
      </trkpt>
      <trkpt lat="49.34911" lon="4.06891">
        <ele>132</ele>
        <time>2019-03-30T13:37:50Z</time>
      </trkpt>
      <trkpt lat="49.3491" lon="4.06883">
        <ele>132</ele>
        <time>2019-03-30T13:37:51Z</time>
      </trkpt>
      <trkpt lat="49.34911" lon="4.06877">
        <ele>132</ele>
        <time>2019-03-30T13:37:52Z</time>
      </trkpt>
      <trkpt lat="49.3491" lon="4.0687">
        <ele>132</ele>
        <time>2019-03-30T13:37:53Z</time>
      </trkpt>
      <trkpt lat="49.3491" lon="4.06863">
        <ele>132</ele>
        <time>2019-03-30T13:37:54Z</time>
      </trkpt>
      <trkpt lat="49.3491" lon="4.06857">
        <ele>132</ele>
        <time>2019-03-30T13:37:55Z</time>
      </trkpt>
      <trkpt lat="49.3491" lon="4.0685">
        <ele>132</ele>
        <time>2019-03-30T13:37:56Z</time>
      </trkpt>
      <trkpt lat="49.3491" lon="4.06842">
        <ele>133</ele>
        <time>2019-03-30T13:37:57Z</time>
      </trkpt>
      <trkpt lat="49.34909" lon="4.06834">
        <ele>134</ele>
        <time>2019-03-30T13:37:58Z</time>
      </trkpt>
      <trkpt lat="49.34909" lon="4.06827">
        <ele>135</ele>
        <time>2019-03-30T13:37:59Z</time>
      </trkpt>
      <trkpt lat="49.34909" lon="4.06822">
        <ele>136</ele>
        <time>2019-03-30T13:38:00Z</time>
      </trkpt>
      <trkpt lat="49.34908" lon="4.06814">
        <ele>137</ele>
        <time>2019-03-30T13:38:01Z</time>
      </trkpt>
      <trkpt lat="49.34907" lon="4.06806">
        <ele>138</ele>
        <time>2019-03-30T13:38:02Z</time>
      </trkpt>
      <trkpt lat="49.34906" lon="4.06801">
        <ele>138</ele>
        <time>2019-03-30T13:38:03Z</time>
      </trkpt>
      <trkpt lat="49.34907" lon="4.06795">
        <ele>138</ele>
        <time>2019-03-30T13:38:04Z</time>
      </trkpt>
      <trkpt lat="49.34907" lon="4.06789">
        <ele>138</ele>
        <time>2019-03-30T13:38:05Z</time>
      </trkpt>
      <trkpt lat="49.34907" lon="4.06783">
        <ele>137</ele>
        <time>2019-03-30T13:38:06Z</time>
      </trkpt>
      <trkpt lat="49.34906" lon="4.06777">
        <ele>137</ele>
        <time>2019-03-30T13:38:07Z</time>
      </trkpt>
      <trkpt lat="49.34906" lon="4.0677">
        <ele>137</ele>
        <time>2019-03-30T13:38:08Z</time>
      </trkpt>
      <trkpt lat="49.34906" lon="4.06765">
        <ele>138</ele>
        <time>2019-03-30T13:38:09Z</time>
      </trkpt>
      <trkpt lat="49.34906" lon="4.06759">
        <ele>138</ele>
        <time>2019-03-30T13:38:10Z</time>
      </trkpt>
      <trkpt lat="49.34907" lon="4.06751">
        <ele>138</ele>
        <time>2019-03-30T13:38:11Z</time>
      </trkpt>
      <trkpt lat="49.34907" lon="4.06745">
        <ele>138</ele>
        <time>2019-03-30T13:38:12Z</time>
      </trkpt>
      <trkpt lat="49.34907" lon="4.06738">
        <ele>138</ele>
        <time>2019-03-30T13:38:13Z</time>
      </trkpt>
      <trkpt lat="49.34907" lon="4.06732">
        <ele>138</ele>
        <time>2019-03-30T13:38:14Z</time>
      </trkpt>
      <trkpt lat="49.34907" lon="4.06726">
        <ele>138</ele>
        <time>2019-03-30T13:38:15Z</time>
      </trkpt>
      <trkpt lat="49.34907" lon="4.0672">
        <ele>138</ele>
        <time>2019-03-30T13:38:16Z</time>
      </trkpt>
      <trkpt lat="49.34907" lon="4.06712">
        <ele>139</ele>
        <time>2019-03-30T13:38:17Z</time>
      </trkpt>
      <trkpt lat="49.34908" lon="4.06706">
        <ele>138</ele>
        <time>2019-03-30T13:38:18Z</time>
      </trkpt>
      <trkpt lat="49.34908" lon="4.067">
        <ele>138</ele>
        <time>2019-03-30T13:38:19Z</time>
      </trkpt>
      <trkpt lat="49.34908" lon="4.06695">
        <ele>138</ele>
        <time>2019-03-30T13:38:20Z</time>
      </trkpt>
      <trkpt lat="49.34908" lon="4.0669">
        <ele>138</ele>
        <time>2019-03-30T13:38:21Z</time>
      </trkpt>
      <trkpt lat="49.34908" lon="4.06686">
        <ele>138</ele>
        <time>2019-03-30T13:38:22Z</time>
      </trkpt>
      <trkpt lat="49.34908" lon="4.0668">
        <ele>138</ele>
        <time>2019-03-30T13:38:23Z</time>
      </trkpt>
      <trkpt lat="49.34908" lon="4.06674">
        <ele>138</ele>
        <time>2019-03-30T13:38:24Z</time>
      </trkpt>
      <trkpt lat="49.34905" lon="4.06669">
        <ele>139</ele>
        <time>2019-03-30T13:38:25Z</time>
      </trkpt>
      <trkpt lat="49.34904" lon="4.06664">
        <ele>139</ele>
        <time>2019-03-30T13:38:26Z</time>
      </trkpt>
      <trkpt lat="49.34904" lon="4.06656">
        <ele>139</ele>
        <time>2019-03-30T13:38:27Z</time>
      </trkpt>
      <trkpt lat="49.34904" lon="4.06649">
        <ele>139</ele>
        <time>2019-03-30T13:38:28Z</time>
      </trkpt>
      <trkpt lat="49.34904" lon="4.06643">
        <ele>138</ele>
        <time>2019-03-30T13:38:29Z</time>
      </trkpt>
      <trkpt lat="49.34904" lon="4.06636">
        <ele>138</ele>
        <time>2019-03-30T13:38:30Z</time>
      </trkpt>
      <trkpt lat="49.34904" lon="4.0663">
        <ele>138</ele>
        <time>2019-03-30T13:38:31Z</time>
      </trkpt>
      <trkpt lat="49.34904" lon="4.06624">
        <ele>138</ele>
        <time>2019-03-30T13:38:32Z</time>
      </trkpt>
      <trkpt lat="49.34904" lon="4.06618">
        <ele>138</ele>
        <time>2019-03-30T13:38:33Z</time>
      </trkpt>
      <trkpt lat="49.34904" lon="4.06612">
        <ele>138</ele>
        <time>2019-03-30T13:38:34Z</time>
      </trkpt>
      <trkpt lat="49.34903" lon="4.06605">
        <ele>138</ele>
        <time>2019-03-30T13:38:35Z</time>
      </trkpt>
      <trkpt lat="49.34903" lon="4.06598">
        <ele>138</ele>
        <time>2019-03-30T13:38:36Z</time>
      </trkpt>
      <trkpt lat="49.34903" lon="4.0659">
        <ele>138</ele>
        <time>2019-03-30T13:38:37Z</time>
      </trkpt>
      <trkpt lat="49.34902" lon="4.06583">
        <ele>139</ele>
        <time>2019-03-30T13:38:38Z</time>
      </trkpt>
      <trkpt lat="49.34902" lon="4.06576">
        <ele>139</ele>
        <time>2019-03-30T13:38:39Z</time>
      </trkpt>
      <trkpt lat="49.34902" lon="4.06569">
        <ele>140</ele>
        <time>2019-03-30T13:38:40Z</time>
      </trkpt>
      <trkpt lat="49.34901" lon="4.06562">
        <ele>140</ele>
        <time>2019-03-30T13:38:41Z</time>
      </trkpt>
      <trkpt lat="49.34901" lon="4.06554">
        <ele>140</ele>
        <time>2019-03-30T13:38:42Z</time>
      </trkpt>
      <trkpt lat="49.34901" lon="4.06547">
        <ele>140</ele>
        <time>2019-03-30T13:38:43Z</time>
      </trkpt>
      <trkpt lat="49.349" lon="4.06541">
        <ele>140</ele>
        <time>2019-03-30T13:38:44Z</time>
      </trkpt>
      <trkpt lat="49.349" lon="4.06535">
        <ele>140</ele>
        <time>2019-03-30T13:38:45Z</time>
      </trkpt>
      <trkpt lat="49.349" lon="4.06529">
        <ele>140</ele>
        <time>2019-03-30T13:38:46Z</time>
      </trkpt>
      <trkpt lat="49.349" lon="4.06522">
        <ele>139</ele>
        <time>2019-03-30T13:38:47Z</time>
      </trkpt>
      <trkpt lat="49.34899" lon="4.06514">
        <ele>139</ele>
        <time>2019-03-30T13:38:48Z</time>
      </trkpt>
      <trkpt lat="49.34899" lon="4.06507">
        <ele>139</ele>
        <time>2019-03-30T13:38:49Z</time>
      </trkpt>
      <trkpt lat="49.34899" lon="4.06499">
        <ele>139</ele>
        <time>2019-03-30T13:38:50Z</time>
      </trkpt>
      <trkpt lat="49.34898" lon="4.06492">
        <ele>139</ele>
        <time>2019-03-30T13:38:51Z</time>
      </trkpt>
      <trkpt lat="49.34898" lon="4.06485">
        <ele>139</ele>
        <time>2019-03-30T13:38:52Z</time>
      </trkpt>
      <trkpt lat="49.34897" lon="4.06479">
        <ele>139</ele>
        <time>2019-03-30T13:38:53Z</time>
      </trkpt>
      <trkpt lat="49.34897" lon="4.06473">
        <ele>139</ele>
        <time>2019-03-30T13:38:54Z</time>
      </trkpt>
      <trkpt lat="49.34896" lon="4.06466">
        <ele>140</ele>
        <time>2019-03-30T13:38:55Z</time>
      </trkpt>
      <trkpt lat="49.34896" lon="4.0646">
        <ele>140</ele>
        <time>2019-03-30T13:38:56Z</time>
      </trkpt>
      <trkpt lat="49.34896" lon="4.06453">
        <ele>140</ele>
        <time>2019-03-30T13:38:57Z</time>
      </trkpt>
      <trkpt lat="49.34895" lon="4.06446">
        <ele>140</ele>
        <time>2019-03-30T13:38:58Z</time>
      </trkpt>
      <trkpt lat="49.34895" lon="4.0644">
        <ele>140</ele>
        <time>2019-03-30T13:38:59Z</time>
      </trkpt>
      <trkpt lat="49.34894" lon="4.06433">
        <ele>139</ele>
        <time>2019-03-30T13:39:00Z</time>
      </trkpt>
      <trkpt lat="49.34894" lon="4.06427">
        <ele>140</ele>
        <time>2019-03-30T13:39:01Z</time>
      </trkpt>
      <trkpt lat="49.34893" lon="4.0642">
        <ele>140</ele>
        <time>2019-03-30T13:39:02Z</time>
      </trkpt>
      <trkpt lat="49.34892" lon="4.06413">
        <ele>140</ele>
        <time>2019-03-30T13:39:03Z</time>
      </trkpt>
      <trkpt lat="49.34892" lon="4.06406">
        <ele>139</ele>
        <time>2019-03-30T13:39:04Z</time>
      </trkpt>
      <trkpt lat="49.34891" lon="4.06399">
        <ele>140</ele>
        <time>2019-03-30T13:39:05Z</time>
      </trkpt>
      <trkpt lat="49.34891" lon="4.06392">
        <ele>140</ele>
        <time>2019-03-30T13:39:06Z</time>
      </trkpt>
      <trkpt lat="49.3489" lon="4.06385">
        <ele>140</ele>
        <time>2019-03-30T13:39:07Z</time>
      </trkpt>
      <trkpt lat="49.3489" lon="4.06378">
        <ele>140</ele>
        <time>2019-03-30T13:39:08Z</time>
      </trkpt>
      <trkpt lat="49.34889" lon="4.06371">
        <ele>140</ele>
        <time>2019-03-30T13:39:09Z</time>
      </trkpt>
      <trkpt lat="49.34889" lon="4.06364">
        <ele>140</ele>
        <time>2019-03-30T13:39:10Z</time>
      </trkpt>
      <trkpt lat="49.34888" lon="4.06356">
        <ele>140</ele>
        <time>2019-03-30T13:39:11Z</time>
      </trkpt>
      <trkpt lat="49.34888" lon="4.06349">
        <ele>140</ele>
        <time>2019-03-30T13:39:12Z</time>
      </trkpt>
      <trkpt lat="49.34888" lon="4.06341">
        <ele>140</ele>
        <time>2019-03-30T13:39:13Z</time>
      </trkpt>
      <trkpt lat="49.34887" lon="4.06334">
        <ele>139</ele>
        <time>2019-03-30T13:39:14Z</time>
      </trkpt>
      <trkpt lat="49.34887" lon="4.06326">
        <ele>139</ele>
        <time>2019-03-30T13:39:15Z</time>
      </trkpt>
      <trkpt lat="49.34886" lon="4.06318">
        <ele>139</ele>
        <time>2019-03-30T13:39:16Z</time>
      </trkpt>
      <trkpt lat="49.34885" lon="4.0631">
        <ele>139</ele>
        <time>2019-03-30T13:39:17Z</time>
      </trkpt>
      <trkpt lat="49.34885" lon="4.06303">
        <ele>139</ele>
        <time>2019-03-30T13:39:18Z</time>
      </trkpt>
      <trkpt lat="49.34884" lon="4.06295">
        <ele>140</ele>
        <time>2019-03-30T13:39:19Z</time>
      </trkpt>
      <trkpt lat="49.34883" lon="4.06288">
        <ele>140</ele>
        <time>2019-03-30T13:39:20Z</time>
      </trkpt>
      <trkpt lat="49.34883" lon="4.0628">
        <ele>140</ele>
        <time>2019-03-30T13:39:21Z</time>
      </trkpt>
      <trkpt lat="49.34883" lon="4.06273">
        <ele>139</ele>
        <time>2019-03-30T13:39:22Z</time>
      </trkpt>
      <trkpt lat="49.34882" lon="4.06265">
        <ele>139</ele>
        <time>2019-03-30T13:39:23Z</time>
      </trkpt>
      <trkpt lat="49.34881" lon="4.06257">
        <ele>139</ele>
        <time>2019-03-30T13:39:24Z</time>
      </trkpt>
      <trkpt lat="49.3488" lon="4.06249">
        <ele>139</ele>
        <time>2019-03-30T13:39:25Z</time>
      </trkpt>
      <trkpt lat="49.3488" lon="4.06241">
        <ele>139</ele>
        <time>2019-03-30T13:39:26Z</time>
      </trkpt>
      <trkpt lat="49.34879" lon="4.06233">
        <ele>140</ele>
        <time>2019-03-30T13:39:27Z</time>
      </trkpt>
      <trkpt lat="49.34878" lon="4.06225">
        <ele>140</ele>
        <time>2019-03-30T13:39:28Z</time>
      </trkpt>
      <trkpt lat="49.34877" lon="4.06217">
        <ele>140</ele>
        <time>2019-03-30T13:39:29Z</time>
      </trkpt>
      <trkpt lat="49.34877" lon="4.06209">
        <ele>140</ele>
        <time>2019-03-30T13:39:30Z</time>
      </trkpt>
      <trkpt lat="49.34876" lon="4.06201">
        <ele>140</ele>
        <time>2019-03-30T13:39:31Z</time>
      </trkpt>
      <trkpt lat="49.34875" lon="4.06193">
        <ele>139</ele>
        <time>2019-03-30T13:39:32Z</time>
      </trkpt>
      <trkpt lat="49.34875" lon="4.06185">
        <ele>140</ele>
        <time>2019-03-30T13:39:33Z</time>
      </trkpt>
      <trkpt lat="49.34874" lon="4.06176">
        <ele>140</ele>
        <time>2019-03-30T13:39:34Z</time>
      </trkpt>
      <trkpt lat="49.34874" lon="4.06167">
        <ele>140</ele>
        <time>2019-03-30T13:39:35Z</time>
      </trkpt>
      <trkpt lat="49.34873" lon="4.06159">
        <ele>140</ele>
        <time>2019-03-30T13:39:36Z</time>
      </trkpt>
      <trkpt lat="49.34873" lon="4.0615">
        <ele>140</ele>
        <time>2019-03-30T13:39:37Z</time>
      </trkpt>
      <trkpt lat="49.34872" lon="4.06142">
        <ele>140</ele>
        <time>2019-03-30T13:39:38Z</time>
      </trkpt>
      <trkpt lat="49.34871" lon="4.06134">
        <ele>140</ele>
        <time>2019-03-30T13:39:39Z</time>
      </trkpt>
      <trkpt lat="49.34871" lon="4.06125">
        <ele>140</ele>
        <time>2019-03-30T13:39:40Z</time>
      </trkpt>
      <trkpt lat="49.3487" lon="4.06117">
        <ele>140</ele>
        <time>2019-03-30T13:39:41Z</time>
      </trkpt>
      <trkpt lat="49.3487" lon="4.06109">
        <ele>140</ele>
        <time>2019-03-30T13:39:42Z</time>
      </trkpt>
      <trkpt lat="49.34869" lon="4.061">
        <ele>140</ele>
        <time>2019-03-30T13:39:43Z</time>
      </trkpt>
      <trkpt lat="49.34868" lon="4.06093">
        <ele>140</ele>
        <time>2019-03-30T13:39:44Z</time>
      </trkpt>
      <trkpt lat="49.34868" lon="4.06085">
        <ele>140</ele>
        <time>2019-03-30T13:39:45Z</time>
      </trkpt>
      <trkpt lat="49.34867" lon="4.06078">
        <ele>140</ele>
        <time>2019-03-30T13:39:46Z</time>
      </trkpt>
      <trkpt lat="49.34867" lon="4.06071">
        <ele>140</ele>
        <time>2019-03-30T13:39:47Z</time>
      </trkpt>
      <trkpt lat="49.34866" lon="4.06064">
        <ele>140</ele>
        <time>2019-03-30T13:39:48Z</time>
      </trkpt>
      <trkpt lat="49.34866" lon="4.06057">
        <ele>140</ele>
        <time>2019-03-30T13:39:49Z</time>
      </trkpt>
      <trkpt lat="49.34865" lon="4.06049">
        <ele>140</ele>
        <time>2019-03-30T13:39:50Z</time>
      </trkpt>
      <trkpt lat="49.34864" lon="4.06042">
        <ele>140</ele>
        <time>2019-03-30T13:39:51Z</time>
      </trkpt>
      <trkpt lat="49.34864" lon="4.06034">
        <ele>140</ele>
        <time>2019-03-30T13:39:52Z</time>
      </trkpt>
      <trkpt lat="49.34863" lon="4.06026">
        <ele>140</ele>
        <time>2019-03-30T13:39:53Z</time>
      </trkpt>
      <trkpt lat="49.34863" lon="4.06019">
        <ele>140</ele>
        <time>2019-03-30T13:39:54Z</time>
      </trkpt>
      <trkpt lat="49.34863" lon="4.06011">
        <ele>140</ele>
        <time>2019-03-30T13:39:55Z</time>
      </trkpt>
      <trkpt lat="49.34862" lon="4.06003">
        <ele>140</ele>
        <time>2019-03-30T13:39:56Z</time>
      </trkpt>
      <trkpt lat="49.34862" lon="4.05995">
        <ele>140</ele>
        <time>2019-03-30T13:39:57Z</time>
      </trkpt>
      <trkpt lat="49.34861" lon="4.05987">
        <ele>140</ele>
        <time>2019-03-30T13:39:58Z</time>
      </trkpt>
      <trkpt lat="49.34861" lon="4.05979">
        <ele>140</ele>
        <time>2019-03-30T13:39:59Z</time>
      </trkpt>
      <trkpt lat="49.3486" lon="4.05971">
        <ele>140</ele>
        <time>2019-03-30T13:40:00Z</time>
      </trkpt>
      <trkpt lat="49.3486" lon="4.05964">
        <ele>140</ele>
        <time>2019-03-30T13:40:01Z</time>
      </trkpt>
      <trkpt lat="49.34859" lon="4.05956">
        <ele>140</ele>
        <time>2019-03-30T13:40:02Z</time>
      </trkpt>
      <trkpt lat="49.34859" lon="4.05948">
        <ele>140</ele>
        <time>2019-03-30T13:40:03Z</time>
      </trkpt>
      <trkpt lat="49.34858" lon="4.0594">
        <ele>140</ele>
        <time>2019-03-30T13:40:04Z</time>
      </trkpt>
      <trkpt lat="49.34857" lon="4.05932">
        <ele>141</ele>
        <time>2019-03-30T13:40:05Z</time>
      </trkpt>
      <trkpt lat="49.34857" lon="4.05924">
        <ele>141</ele>
        <time>2019-03-30T13:40:06Z</time>
      </trkpt>
      <trkpt lat="49.34856" lon="4.05917">
        <ele>141</ele>
        <time>2019-03-30T13:40:07Z</time>
      </trkpt>
      <trkpt lat="49.34856" lon="4.05909">
        <ele>141</ele>
        <time>2019-03-30T13:40:08Z</time>
      </trkpt>
      <trkpt lat="49.34855" lon="4.05901">
        <ele>141</ele>
        <time>2019-03-30T13:40:09Z</time>
      </trkpt>
      <trkpt lat="49.34854" lon="4.05893">
        <ele>141</ele>
        <time>2019-03-30T13:40:10Z</time>
      </trkpt>
      <trkpt lat="49.34854" lon="4.05885">
        <ele>141</ele>
        <time>2019-03-30T13:40:11Z</time>
      </trkpt>
      <trkpt lat="49.34853" lon="4.05877">
        <ele>141</ele>
        <time>2019-03-30T13:40:12Z</time>
      </trkpt>
      <trkpt lat="49.34853" lon="4.05869">
        <ele>141</ele>
        <time>2019-03-30T13:40:13Z</time>
      </trkpt>
      <trkpt lat="49.34852" lon="4.05861">
        <ele>141</ele>
        <time>2019-03-30T13:40:14Z</time>
      </trkpt>
      <trkpt lat="49.34851" lon="4.05853">
        <ele>141</ele>
        <time>2019-03-30T13:40:15Z</time>
      </trkpt>
      <trkpt lat="49.34851" lon="4.05845">
        <ele>141</ele>
        <time>2019-03-30T13:40:16Z</time>
      </trkpt>
      <trkpt lat="49.3485" lon="4.05837">
        <ele>142</ele>
        <time>2019-03-30T13:40:17Z</time>
      </trkpt>
      <trkpt lat="49.34849" lon="4.05829">
        <ele>142</ele>
        <time>2019-03-30T13:40:18Z</time>
      </trkpt>
      <trkpt lat="49.34849" lon="4.05821">
        <ele>142</ele>
        <time>2019-03-30T13:40:19Z</time>
      </trkpt>
      <trkpt lat="49.34848" lon="4.05814">
        <ele>142</ele>
        <time>2019-03-30T13:40:20Z</time>
      </trkpt>
      <trkpt lat="49.34848" lon="4.05806">
        <ele>142</ele>
        <time>2019-03-30T13:40:21Z</time>
      </trkpt>
      <trkpt lat="49.34847" lon="4.05799">
        <ele>142</ele>
        <time>2019-03-30T13:40:22Z</time>
      </trkpt>
      <trkpt lat="49.34847" lon="4.05791">
        <ele>142</ele>
        <time>2019-03-30T13:40:23Z</time>
      </trkpt>
      <trkpt lat="49.34846" lon="4.05784">
        <ele>142</ele>
        <time>2019-03-30T13:40:24Z</time>
      </trkpt>
      <trkpt lat="49.34845" lon="4.05769">
        <ele>142</ele>
        <time>2019-03-30T13:40:26Z</time>
      </trkpt>
      <trkpt lat="49.34845" lon="4.05762">
        <ele>142</ele>
        <time>2019-03-30T13:40:27Z</time>
      </trkpt>
      <trkpt lat="49.34844" lon="4.05755">
        <ele>142</ele>
        <time>2019-03-30T13:40:28Z</time>
      </trkpt>
      <trkpt lat="49.34844" lon="4.05748">
        <ele>142</ele>
        <time>2019-03-30T13:40:29Z</time>
      </trkpt>
      <trkpt lat="49.34844" lon="4.05741">
        <ele>142</ele>
        <time>2019-03-30T13:40:30Z</time>
      </trkpt>
      <trkpt lat="49.34843" lon="4.05734">
        <ele>142</ele>
        <time>2019-03-30T13:40:31Z</time>
      </trkpt>
      <trkpt lat="49.34842" lon="4.05719">
        <ele>142</ele>
        <time>2019-03-30T13:40:33Z</time>
      </trkpt>
      <trkpt lat="49.34842" lon="4.05711">
        <ele>142</ele>
        <time>2019-03-30T13:40:34Z</time>
      </trkpt>
      <trkpt lat="49.34841" lon="4.05704">
        <ele>142</ele>
        <time>2019-03-30T13:40:35Z</time>
      </trkpt>
      <trkpt lat="49.3484" lon="4.05697">
        <ele>142</ele>
        <time>2019-03-30T13:40:36Z</time>
      </trkpt>
      <trkpt lat="49.3484" lon="4.0569">
        <ele>142</ele>
        <time>2019-03-30T13:40:37Z</time>
      </trkpt>
      <trkpt lat="49.34839" lon="4.05682">
        <ele>142</ele>
        <time>2019-03-30T13:40:38Z</time>
      </trkpt>
      <trkpt lat="49.34839" lon="4.05675">
        <ele>142</ele>
        <time>2019-03-30T13:40:39Z</time>
      </trkpt>
      <trkpt lat="49.34838" lon="4.05668">
        <ele>143</ele>
        <time>2019-03-30T13:40:40Z</time>
      </trkpt>
      <trkpt lat="49.34837" lon="4.05661">
        <ele>143</ele>
        <time>2019-03-30T13:40:41Z</time>
      </trkpt>
      <trkpt lat="49.34837" lon="4.05653">
        <ele>143</ele>
        <time>2019-03-30T13:40:42Z</time>
      </trkpt>
      <trkpt lat="49.34836" lon="4.05646">
        <ele>143</ele>
        <time>2019-03-30T13:40:43Z</time>
      </trkpt>
      <trkpt lat="49.34836" lon="4.05639">
        <ele>143</ele>
        <time>2019-03-30T13:40:44Z</time>
      </trkpt>
      <trkpt lat="49.34835" lon="4.05632">
        <ele>143</ele>
        <time>2019-03-30T13:40:45Z</time>
      </trkpt>
      <trkpt lat="49.34835" lon="4.05624">
        <ele>143</ele>
        <time>2019-03-30T13:40:46Z</time>
      </trkpt>
      <trkpt lat="49.34834" lon="4.05617">
        <ele>143</ele>
        <time>2019-03-30T13:40:47Z</time>
      </trkpt>
      <trkpt lat="49.34834" lon="4.0561">
        <ele>143</ele>
        <time>2019-03-30T13:40:48Z</time>
      </trkpt>
      <trkpt lat="49.34834" lon="4.05603">
        <ele>143</ele>
        <time>2019-03-30T13:40:49Z</time>
      </trkpt>
      <trkpt lat="49.34833" lon="4.05596">
        <ele>143</ele>
        <time>2019-03-30T13:40:50Z</time>
      </trkpt>
      <trkpt lat="49.34832" lon="4.05589">
        <ele>143</ele>
        <time>2019-03-30T13:40:51Z</time>
      </trkpt>
      <trkpt lat="49.34832" lon="4.05581">
        <ele>143</ele>
        <time>2019-03-30T13:40:52Z</time>
      </trkpt>
      <trkpt lat="49.34831" lon="4.05567">
        <ele>143</ele>
        <time>2019-03-30T13:40:54Z</time>
      </trkpt>
      <trkpt lat="49.3483" lon="4.0556">
        <ele>143</ele>
        <time>2019-03-30T13:40:55Z</time>
      </trkpt>
      <trkpt lat="49.34829" lon="4.05545">
        <ele>143</ele>
        <time>2019-03-30T13:40:57Z</time>
      </trkpt>
      <trkpt lat="49.34829" lon="4.05531">
        <ele>143</ele>
        <time>2019-03-30T13:40:59Z</time>
      </trkpt>
      <trkpt lat="49.34828" lon="4.05524">
        <ele>143</ele>
        <time>2019-03-30T13:41:00Z</time>
      </trkpt>
      <trkpt lat="49.34828" lon="4.05516">
        <ele>143</ele>
        <time>2019-03-30T13:41:01Z</time>
      </trkpt>
      <trkpt lat="49.34828" lon="4.05509">
        <ele>143</ele>
        <time>2019-03-30T13:41:02Z</time>
      </trkpt>
      <trkpt lat="49.34828" lon="4.05501">
        <ele>143</ele>
        <time>2019-03-30T13:41:03Z</time>
      </trkpt>
      <trkpt lat="49.34827" lon="4.05493">
        <ele>143</ele>
        <time>2019-03-30T13:41:04Z</time>
      </trkpt>
      <trkpt lat="49.34827" lon="4.05485">
        <ele>143</ele>
        <time>2019-03-30T13:41:05Z</time>
      </trkpt>
      <trkpt lat="49.34827" lon="4.05478">
        <ele>143</ele>
        <time>2019-03-30T13:41:06Z</time>
      </trkpt>
      <trkpt lat="49.34826" lon="4.05461">
        <ele>143</ele>
        <time>2019-03-30T13:41:08Z</time>
      </trkpt>
      <trkpt lat="49.34826" lon="4.05453">
        <ele>143</ele>
        <time>2019-03-30T13:41:09Z</time>
      </trkpt>
      <trkpt lat="49.34826" lon="4.05445">
        <ele>143</ele>
        <time>2019-03-30T13:41:10Z</time>
      </trkpt>
      <trkpt lat="49.34825" lon="4.05436">
        <ele>143</ele>
        <time>2019-03-30T13:41:11Z</time>
      </trkpt>
      <trkpt lat="49.34825" lon="4.05427">
        <ele>142</ele>
        <time>2019-03-30T13:41:12Z</time>
      </trkpt>
      <trkpt lat="49.34825" lon="4.05418">
        <ele>142</ele>
        <time>2019-03-30T13:41:13Z</time>
      </trkpt>
      <trkpt lat="49.34825" lon="4.05409">
        <ele>142</ele>
        <time>2019-03-30T13:41:14Z</time>
      </trkpt>
      <trkpt lat="49.34825" lon="4.05399">
        <ele>142</ele>
        <time>2019-03-30T13:41:15Z</time>
      </trkpt>
      <trkpt lat="49.34824" lon="4.05389">
        <ele>142</ele>
        <time>2019-03-30T13:41:16Z</time>
      </trkpt>
      <trkpt lat="49.34824" lon="4.0538">
        <ele>142</ele>
        <time>2019-03-30T13:41:17Z</time>
      </trkpt>
      <trkpt lat="49.34824" lon="4.0537">
        <ele>142</ele>
        <time>2019-03-30T13:41:18Z</time>
      </trkpt>
      <trkpt lat="49.34823" lon="4.0536">
        <ele>142</ele>
        <time>2019-03-30T13:41:19Z</time>
      </trkpt>
      <trkpt lat="49.34823" lon="4.0535">
        <ele>142</ele>
        <time>2019-03-30T13:41:20Z</time>
      </trkpt>
      <trkpt lat="49.34823" lon="4.0534">
        <ele>142</ele>
        <time>2019-03-30T13:41:21Z</time>
      </trkpt>
      <trkpt lat="49.34822" lon="4.05329">
        <ele>141</ele>
        <time>2019-03-30T13:41:22Z</time>
      </trkpt>
      <trkpt lat="49.34822" lon="4.05318">
        <ele>141</ele>
        <time>2019-03-30T13:41:23Z</time>
      </trkpt>
      <trkpt lat="49.34822" lon="4.05296">
        <ele>141</ele>
        <time>2019-03-30T13:41:25Z</time>
      </trkpt>
      <trkpt lat="49.34821" lon="4.05285">
        <ele>141</ele>
        <time>2019-03-30T13:41:26Z</time>
      </trkpt>
      <trkpt lat="49.34821" lon="4.05274">
        <ele>141</ele>
        <time>2019-03-30T13:41:27Z</time>
      </trkpt>
      <trkpt lat="49.34821" lon="4.05263">
        <ele>141</ele>
        <time>2019-03-30T13:41:28Z</time>
      </trkpt>
      <trkpt lat="49.3482" lon="4.05252">
        <ele>141</ele>
        <time>2019-03-30T13:41:29Z</time>
      </trkpt>
      <trkpt lat="49.3482" lon="4.05241">
        <ele>141</ele>
        <time>2019-03-30T13:41:30Z</time>
      </trkpt>
      <trkpt lat="49.3482" lon="4.0523">
        <ele>141</ele>
        <time>2019-03-30T13:41:31Z</time>
      </trkpt>
      <trkpt lat="49.3482" lon="4.05218">
        <ele>140</ele>
        <time>2019-03-30T13:41:32Z</time>
      </trkpt>
      <trkpt lat="49.34819" lon="4.05196">
        <ele>140</ele>
        <time>2019-03-30T13:41:34Z</time>
      </trkpt>
      <trkpt lat="49.34819" lon="4.05185">
        <ele>140</ele>
        <time>2019-03-30T13:41:35Z</time>
      </trkpt>
      <trkpt lat="49.34818" lon="4.05174">
        <ele>139</ele>
        <time>2019-03-30T13:41:36Z</time>
      </trkpt>
      <trkpt lat="49.34818" lon="4.05164">
        <ele>139</ele>
        <time>2019-03-30T13:41:37Z</time>
      </trkpt>
      <trkpt lat="49.34818" lon="4.05153">
        <ele>139</ele>
        <time>2019-03-30T13:41:38Z</time>
      </trkpt>
      <trkpt lat="49.34818" lon="4.05141">
        <ele>138</ele>
        <time>2019-03-30T13:41:39Z</time>
      </trkpt>
      <trkpt lat="49.34818" lon="4.0513">
        <ele>138</ele>
        <time>2019-03-30T13:41:40Z</time>
      </trkpt>
      <trkpt lat="49.34818" lon="4.05119">
        <ele>137</ele>
        <time>2019-03-30T13:41:41Z</time>
      </trkpt>
      <trkpt lat="49.34817" lon="4.05107">
        <ele>137</ele>
        <time>2019-03-30T13:41:42Z</time>
      </trkpt>
      <trkpt lat="49.34817" lon="4.05095">
        <ele>137</ele>
        <time>2019-03-30T13:41:43Z</time>
      </trkpt>
      <trkpt lat="49.34816" lon="4.05084">
        <ele>136</ele>
        <time>2019-03-30T13:41:44Z</time>
      </trkpt>
      <trkpt lat="49.34816" lon="4.05072">
        <ele>136</ele>
        <time>2019-03-30T13:41:45Z</time>
      </trkpt>
      <trkpt lat="49.34816" lon="4.0506">
        <ele>136</ele>
        <time>2019-03-30T13:41:46Z</time>
      </trkpt>
      <trkpt lat="49.34815" lon="4.05049">
        <ele>136</ele>
        <time>2019-03-30T13:41:47Z</time>
      </trkpt>
      <trkpt lat="49.34815" lon="4.05037">
        <ele>135</ele>
        <time>2019-03-30T13:41:48Z</time>
      </trkpt>
      <trkpt lat="49.34815" lon="4.05026">
        <ele>135</ele>
        <time>2019-03-30T13:41:49Z</time>
      </trkpt>
      <trkpt lat="49.34815" lon="4.05014">
        <ele>135</ele>
        <time>2019-03-30T13:41:50Z</time>
      </trkpt>
      <trkpt lat="49.34814" lon="4.05003">
        <ele>135</ele>
        <time>2019-03-30T13:41:51Z</time>
      </trkpt>
      <trkpt lat="49.34814" lon="4.04992">
        <ele>134</ele>
        <time>2019-03-30T13:41:52Z</time>
      </trkpt>
      <trkpt lat="49.34814" lon="4.0498">
        <ele>134</ele>
        <time>2019-03-30T13:41:53Z</time>
      </trkpt>
      <trkpt lat="49.34813" lon="4.04958">
        <ele>134</ele>
        <time>2019-03-30T13:41:55Z</time>
      </trkpt>
      <trkpt lat="49.34813" lon="4.04946">
        <ele>134</ele>
        <time>2019-03-30T13:41:56Z</time>
      </trkpt>
      <trkpt lat="49.34812" lon="4.04935">
        <ele>134</ele>
        <time>2019-03-30T13:41:57Z</time>
      </trkpt>
      <trkpt lat="49.34812" lon="4.04923">
        <ele>134</ele>
        <time>2019-03-30T13:41:58Z</time>
      </trkpt>
      <trkpt lat="49.34812" lon="4.04912">
        <ele>134</ele>
        <time>2019-03-30T13:41:59Z</time>
      </trkpt>
      <trkpt lat="49.34811" lon="4.04902">
        <ele>133</ele>
        <time>2019-03-30T13:42:00Z</time>
      </trkpt>
      <trkpt lat="49.34811" lon="4.0488">
        <ele>133</ele>
        <time>2019-03-30T13:42:02Z</time>
      </trkpt>
      <trkpt lat="49.34811" lon="4.04869">
        <ele>133</ele>
        <time>2019-03-30T13:42:03Z</time>
      </trkpt>
      <trkpt lat="49.3481" lon="4.04858">
        <ele>133</ele>
        <time>2019-03-30T13:42:04Z</time>
      </trkpt>
      <trkpt lat="49.3481" lon="4.04847">
        <ele>133</ele>
        <time>2019-03-30T13:42:05Z</time>
      </trkpt>
      <trkpt lat="49.3481" lon="4.04837">
        <ele>133</ele>
        <time>2019-03-30T13:42:06Z</time>
      </trkpt>
      <trkpt lat="49.34809" lon="4.04827">
        <ele>133</ele>
        <time>2019-03-30T13:42:07Z</time>
      </trkpt>
      <trkpt lat="49.34809" lon="4.04816">
        <ele>133</ele>
        <time>2019-03-30T13:42:08Z</time>
      </trkpt>
      <trkpt lat="49.34808" lon="4.04807">
        <ele>133</ele>
        <time>2019-03-30T13:42:09Z</time>
      </trkpt>
      <trkpt lat="49.34808" lon="4.04797">
        <ele>133</ele>
        <time>2019-03-30T13:42:10Z</time>
      </trkpt>
      <trkpt lat="49.34808" lon="4.04789">
        <ele>133</ele>
        <time>2019-03-30T13:42:11Z</time>
      </trkpt>
      <trkpt lat="49.34808" lon="4.0478">
        <ele>133</ele>
        <time>2019-03-30T13:42:12Z</time>
      </trkpt>
      <trkpt lat="49.34808" lon="4.04772">
        <ele>133</ele>
        <time>2019-03-30T13:42:13Z</time>
      </trkpt>
      <trkpt lat="49.34808" lon="4.04764">
        <ele>133</ele>
        <time>2019-03-30T13:42:14Z</time>
      </trkpt>
      <trkpt lat="49.34807" lon="4.04756">
        <ele>134</ele>
        <time>2019-03-30T13:42:15Z</time>
      </trkpt>
      <trkpt lat="49.34807" lon="4.04749">
        <ele>134</ele>
        <time>2019-03-30T13:42:16Z</time>
      </trkpt>
      <trkpt lat="49.34807" lon="4.04741">
        <ele>133</ele>
        <time>2019-03-30T13:42:17Z</time>
      </trkpt>
      <trkpt lat="49.34807" lon="4.04734">
        <ele>133</ele>
        <time>2019-03-30T13:42:18Z</time>
      </trkpt>
      <trkpt lat="49.34806" lon="4.04726">
        <ele>133</ele>
        <time>2019-03-30T13:42:19Z</time>
      </trkpt>
      <trkpt lat="49.34806" lon="4.04719">
        <ele>134</ele>
        <time>2019-03-30T13:42:20Z</time>
      </trkpt>
      <trkpt lat="49.34806" lon="4.04712">
        <ele>134</ele>
        <time>2019-03-30T13:42:21Z</time>
      </trkpt>
      <trkpt lat="49.34806" lon="4.04705">
        <ele>134</ele>
        <time>2019-03-30T13:42:22Z</time>
      </trkpt>
      <trkpt lat="49.34806" lon="4.04697">
        <ele>134</ele>
        <time>2019-03-30T13:42:23Z</time>
      </trkpt>
      <trkpt lat="49.34806" lon="4.0469">
        <ele>134</ele>
        <time>2019-03-30T13:42:24Z</time>
      </trkpt>
      <trkpt lat="49.34806" lon="4.04683">
        <ele>134</ele>
        <time>2019-03-30T13:42:25Z</time>
      </trkpt>
      <trkpt lat="49.34806" lon="4.04676">
        <ele>134</ele>
        <time>2019-03-30T13:42:26Z</time>
      </trkpt>
      <trkpt lat="49.34806" lon="4.04669">
        <ele>134</ele>
        <time>2019-03-30T13:42:27Z</time>
      </trkpt>
      <trkpt lat="49.34806" lon="4.04662">
        <ele>134</ele>
        <time>2019-03-30T13:42:28Z</time>
      </trkpt>
      <trkpt lat="49.34806" lon="4.04655">
        <ele>134</ele>
        <time>2019-03-30T13:42:29Z</time>
      </trkpt>
      <trkpt lat="49.34805" lon="4.04648">
        <ele>134</ele>
        <time>2019-03-30T13:42:30Z</time>
      </trkpt>
      <trkpt lat="49.34805" lon="4.04642">
        <ele>135</ele>
        <time>2019-03-30T13:42:31Z</time>
      </trkpt>
      <trkpt lat="49.34805" lon="4.04635">
        <ele>135</ele>
        <time>2019-03-30T13:42:32Z</time>
      </trkpt>
      <trkpt lat="49.34805" lon="4.04628">
        <ele>135</ele>
        <time>2019-03-30T13:42:33Z</time>
      </trkpt>
      <trkpt lat="49.34804" lon="4.04621">
        <ele>135</ele>
        <time>2019-03-30T13:42:34Z</time>
      </trkpt>
      <trkpt lat="49.34804" lon="4.04614">
        <ele>135</ele>
        <time>2019-03-30T13:42:35Z</time>
      </trkpt>
      <trkpt lat="49.34804" lon="4.04608">
        <ele>135</ele>
        <time>2019-03-30T13:42:36Z</time>
      </trkpt>
      <trkpt lat="49.34804" lon="4.04601">
        <ele>135</ele>
        <time>2019-03-30T13:42:37Z</time>
      </trkpt>
      <trkpt lat="49.34804" lon="4.04594">
        <ele>136</ele>
        <time>2019-03-30T13:42:38Z</time>
      </trkpt>
      <trkpt lat="49.34803" lon="4.04587">
        <ele>136</ele>
        <time>2019-03-30T13:42:39Z</time>
      </trkpt>
      <trkpt lat="49.34803" lon="4.0458">
        <ele>136</ele>
        <time>2019-03-30T13:42:40Z</time>
      </trkpt>
      <trkpt lat="49.34803" lon="4.04573">
        <ele>136</ele>
        <time>2019-03-30T13:42:41Z</time>
      </trkpt>
      <trkpt lat="49.34803" lon="4.04566">
        <ele>136</ele>
        <time>2019-03-30T13:42:42Z</time>
      </trkpt>
      <trkpt lat="49.34803" lon="4.04559">
        <ele>136</ele>
        <time>2019-03-30T13:42:43Z</time>
      </trkpt>
      <trkpt lat="49.34802" lon="4.04544">
        <ele>136</ele>
        <time>2019-03-30T13:42:45Z</time>
      </trkpt>
      <trkpt lat="49.34802" lon="4.04537">
        <ele>136</ele>
        <time>2019-03-30T13:42:46Z</time>
      </trkpt>
      <trkpt lat="49.34802" lon="4.0453">
        <ele>136</ele>
        <time>2019-03-30T13:42:47Z</time>
      </trkpt>
      <trkpt lat="49.34802" lon="4.04523">
        <ele>136</ele>
        <time>2019-03-30T13:42:48Z</time>
      </trkpt>
      <trkpt lat="49.34802" lon="4.04515">
        <ele>136</ele>
        <time>2019-03-30T13:42:49Z</time>
      </trkpt>
      <trkpt lat="49.34801" lon="4.04509">
        <ele>136</ele>
        <time>2019-03-30T13:42:50Z</time>
      </trkpt>
      <trkpt lat="49.34801" lon="4.04495">
        <ele>136</ele>
        <time>2019-03-30T13:42:52Z</time>
      </trkpt>
      <trkpt lat="49.34801" lon="4.04488">
        <ele>136</ele>
        <time>2019-03-30T13:42:53Z</time>
      </trkpt>
      <trkpt lat="49.34801" lon="4.0448">
        <ele>136</ele>
        <time>2019-03-30T13:42:54Z</time>
      </trkpt>
      <trkpt lat="49.34801" lon="4.04473">
        <ele>136</ele>
        <time>2019-03-30T13:42:55Z</time>
      </trkpt>
      <trkpt lat="49.34801" lon="4.04466">
        <ele>136</ele>
        <time>2019-03-30T13:42:56Z</time>
      </trkpt>
      <trkpt lat="49.348" lon="4.0446">
        <ele>136</ele>
        <time>2019-03-30T13:42:57Z</time>
      </trkpt>
      <trkpt lat="49.348" lon="4.04453">
        <ele>136</ele>
        <time>2019-03-30T13:42:58Z</time>
      </trkpt>
      <trkpt lat="49.348" lon="4.04446">
        <ele>136</ele>
        <time>2019-03-30T13:42:59Z</time>
      </trkpt>
      <trkpt lat="49.348" lon="4.04438">
        <ele>136</ele>
        <time>2019-03-30T13:43:00Z</time>
      </trkpt>
      <trkpt lat="49.348" lon="4.04432">
        <ele>136</ele>
        <time>2019-03-30T13:43:01Z</time>
      </trkpt>
      <trkpt lat="49.34799" lon="4.04424">
        <ele>137</ele>
        <time>2019-03-30T13:43:02Z</time>
      </trkpt>
      <trkpt lat="49.34799" lon="4.04417">
        <ele>136</ele>
        <time>2019-03-30T13:43:03Z</time>
      </trkpt>
      <trkpt lat="49.34799" lon="4.0441">
        <ele>136</ele>
        <time>2019-03-30T13:43:04Z</time>
      </trkpt>
      <trkpt lat="49.34799" lon="4.04403">
        <ele>136</ele>
        <time>2019-03-30T13:43:05Z</time>
      </trkpt>
      <trkpt lat="49.34799" lon="4.04396">
        <ele>137</ele>
        <time>2019-03-30T13:43:06Z</time>
      </trkpt>
      <trkpt lat="49.34798" lon="4.0439">
        <ele>137</ele>
        <time>2019-03-30T13:43:07Z</time>
      </trkpt>
      <trkpt lat="49.34798" lon="4.04383">
        <ele>137</ele>
        <time>2019-03-30T13:43:08Z</time>
      </trkpt>
      <trkpt lat="49.34798" lon="4.04377">
        <ele>137</ele>
        <time>2019-03-30T13:43:09Z</time>
      </trkpt>
      <trkpt lat="49.34798" lon="4.0437">
        <ele>137</ele>
        <time>2019-03-30T13:43:10Z</time>
      </trkpt>
      <trkpt lat="49.34798" lon="4.04364">
        <ele>137</ele>
        <time>2019-03-30T13:43:11Z</time>
      </trkpt>
      <trkpt lat="49.34797" lon="4.04357">
        <ele>137</ele>
        <time>2019-03-30T13:43:12Z</time>
      </trkpt>
      <trkpt lat="49.34797" lon="4.04351">
        <ele>137</ele>
        <time>2019-03-30T13:43:13Z</time>
      </trkpt>
      <trkpt lat="49.34797" lon="4.04345">
        <ele>137</ele>
        <time>2019-03-30T13:43:14Z</time>
      </trkpt>
      <trkpt lat="49.34797" lon="4.04338">
        <ele>137</ele>
        <time>2019-03-30T13:43:15Z</time>
      </trkpt>
      <trkpt lat="49.34797" lon="4.04332">
        <ele>137</ele>
        <time>2019-03-30T13:43:16Z</time>
      </trkpt>
      <trkpt lat="49.34797" lon="4.04326">
        <ele>137</ele>
        <time>2019-03-30T13:43:17Z</time>
      </trkpt>
      <trkpt lat="49.34796" lon="4.04319">
        <ele>138</ele>
        <time>2019-03-30T13:43:18Z</time>
      </trkpt>
      <trkpt lat="49.34796" lon="4.04313">
        <ele>138</ele>
        <time>2019-03-30T13:43:19Z</time>
      </trkpt>
      <trkpt lat="49.34796" lon="4.04307">
        <ele>138</ele>
        <time>2019-03-30T13:43:20Z</time>
      </trkpt>
      <trkpt lat="49.34796" lon="4.04301">
        <ele>138</ele>
        <time>2019-03-30T13:43:21Z</time>
      </trkpt>
      <trkpt lat="49.34796" lon="4.04295">
        <ele>138</ele>
        <time>2019-03-30T13:43:22Z</time>
      </trkpt>
      <trkpt lat="49.34796" lon="4.04289">
        <ele>138</ele>
        <time>2019-03-30T13:43:23Z</time>
      </trkpt>
      <trkpt lat="49.34795" lon="4.04283">
        <ele>138</ele>
        <time>2019-03-30T13:43:24Z</time>
      </trkpt>
      <trkpt lat="49.34795" lon="4.04277">
        <ele>138</ele>
        <time>2019-03-30T13:43:25Z</time>
      </trkpt>
      <trkpt lat="49.34795" lon="4.0427">
        <ele>139</ele>
        <time>2019-03-30T13:43:26Z</time>
      </trkpt>
      <trkpt lat="49.34795" lon="4.04264">
        <ele>139</ele>
        <time>2019-03-30T13:43:27Z</time>
      </trkpt>
      <trkpt lat="49.34795" lon="4.04258">
        <ele>139</ele>
        <time>2019-03-30T13:43:28Z</time>
      </trkpt>
      <trkpt lat="49.34794" lon="4.04252">
        <ele>139</ele>
        <time>2019-03-30T13:43:29Z</time>
      </trkpt>
      <trkpt lat="49.34794" lon="4.04245">
        <ele>139</ele>
        <time>2019-03-30T13:43:30Z</time>
      </trkpt>
      <trkpt lat="49.34794" lon="4.04239">
        <ele>139</ele>
        <time>2019-03-30T13:43:31Z</time>
      </trkpt>
      <trkpt lat="49.34794" lon="4.04234">
        <ele>139</ele>
        <time>2019-03-30T13:43:32Z</time>
      </trkpt>
      <trkpt lat="49.34794" lon="4.04228">
        <ele>139</ele>
        <time>2019-03-30T13:43:33Z</time>
      </trkpt>
      <trkpt lat="49.34794" lon="4.04222">
        <ele>139</ele>
        <time>2019-03-30T13:43:34Z</time>
      </trkpt>
      <trkpt lat="49.34794" lon="4.04216">
        <ele>139</ele>
        <time>2019-03-30T13:43:35Z</time>
      </trkpt>
      <trkpt lat="49.34794" lon="4.0421">
        <ele>140</ele>
        <time>2019-03-30T13:43:36Z</time>
      </trkpt>
      <trkpt lat="49.34794" lon="4.04204">
        <ele>140</ele>
        <time>2019-03-30T13:43:37Z</time>
      </trkpt>
      <trkpt lat="49.34794" lon="4.04198">
        <ele>140</ele>
        <time>2019-03-30T13:43:38Z</time>
      </trkpt>
      <trkpt lat="49.34794" lon="4.04192">
        <ele>140</ele>
        <time>2019-03-30T13:43:39Z</time>
      </trkpt>
      <trkpt lat="49.34793" lon="4.04186">
        <ele>140</ele>
        <time>2019-03-30T13:43:40Z</time>
      </trkpt>
      <trkpt lat="49.34793" lon="4.0418">
        <ele>140</ele>
        <time>2019-03-30T13:43:41Z</time>
      </trkpt>
      <trkpt lat="49.34793" lon="4.04174">
        <ele>140</ele>
        <time>2019-03-30T13:43:42Z</time>
      </trkpt>
      <trkpt lat="49.34792" lon="4.04168">
        <ele>140</ele>
        <time>2019-03-30T13:43:43Z</time>
      </trkpt>
      <trkpt lat="49.34792" lon="4.04163">
        <ele>141</ele>
        <time>2019-03-30T13:43:44Z</time>
      </trkpt>
      <trkpt lat="49.34792" lon="4.04157">
        <ele>141</ele>
        <time>2019-03-30T13:43:45Z</time>
      </trkpt>
      <trkpt lat="49.34792" lon="4.04151">
        <ele>141</ele>
        <time>2019-03-30T13:43:46Z</time>
      </trkpt>
      <trkpt lat="49.34792" lon="4.04145">
        <ele>141</ele>
        <time>2019-03-30T13:43:47Z</time>
      </trkpt>
      <trkpt lat="49.34792" lon="4.04139">
        <ele>141</ele>
        <time>2019-03-30T13:43:48Z</time>
      </trkpt>
      <trkpt lat="49.34792" lon="4.04133">
        <ele>141</ele>
        <time>2019-03-30T13:43:49Z</time>
      </trkpt>
      <trkpt lat="49.34792" lon="4.04128">
        <ele>141</ele>
        <time>2019-03-30T13:43:50Z</time>
      </trkpt>
      <trkpt lat="49.34791" lon="4.04121">
        <ele>141</ele>
        <time>2019-03-30T13:43:51Z</time>
      </trkpt>
      <trkpt lat="49.34791" lon="4.04115">
        <ele>141</ele>
        <time>2019-03-30T13:43:52Z</time>
      </trkpt>
      <trkpt lat="49.34791" lon="4.0411">
        <ele>141</ele>
        <time>2019-03-30T13:43:53Z</time>
      </trkpt>
      <trkpt lat="49.34791" lon="4.04104">
        <ele>141</ele>
        <time>2019-03-30T13:43:54Z</time>
      </trkpt>
      <trkpt lat="49.34791" lon="4.04097">
        <ele>141</ele>
        <time>2019-03-30T13:43:55Z</time>
      </trkpt>
      <trkpt lat="49.3479" lon="4.04091">
        <ele>141</ele>
        <time>2019-03-30T13:43:56Z</time>
      </trkpt>
      <trkpt lat="49.3479" lon="4.04084">
        <ele>141</ele>
        <time>2019-03-30T13:43:57Z</time>
      </trkpt>
      <trkpt lat="49.3479" lon="4.04078">
        <ele>141</ele>
        <time>2019-03-30T13:43:58Z</time>
      </trkpt>
      <trkpt lat="49.3479" lon="4.04071">
        <ele>141</ele>
        <time>2019-03-30T13:43:59Z</time>
      </trkpt>
      <trkpt lat="49.3479" lon="4.04064">
        <ele>141</ele>
        <time>2019-03-30T13:44:00Z</time>
      </trkpt>
      <trkpt lat="49.3479" lon="4.04058">
        <ele>141</ele>
        <time>2019-03-30T13:44:01Z</time>
      </trkpt>
      <trkpt lat="49.34789" lon="4.0405">
        <ele>141</ele>
        <time>2019-03-30T13:44:02Z</time>
      </trkpt>
      <trkpt lat="49.34789" lon="4.04043">
        <ele>140</ele>
        <time>2019-03-30T13:44:03Z</time>
      </trkpt>
      <trkpt lat="49.34789" lon="4.04036">
        <ele>140</ele>
        <time>2019-03-30T13:44:04Z</time>
      </trkpt>
      <trkpt lat="49.34789" lon="4.04029">
        <ele>140</ele>
        <time>2019-03-30T13:44:05Z</time>
      </trkpt>
      <trkpt lat="49.34789" lon="4.04022">
        <ele>140</ele>
        <time>2019-03-30T13:44:06Z</time>
      </trkpt>
      <trkpt lat="49.34789" lon="4.04014">
        <ele>140</ele>
        <time>2019-03-30T13:44:07Z</time>
      </trkpt>
      <trkpt lat="49.34788" lon="4.04007">
        <ele>140</ele>
        <time>2019-03-30T13:44:08Z</time>
      </trkpt>
      <trkpt lat="49.34788" lon="4.04">
        <ele>140</ele>
        <time>2019-03-30T13:44:09Z</time>
      </trkpt>
      <trkpt lat="49.34788" lon="4.03992">
        <ele>140</ele>
        <time>2019-03-30T13:44:10Z</time>
      </trkpt>
      <trkpt lat="49.34788" lon="4.03985">
        <ele>140</ele>
        <time>2019-03-30T13:44:11Z</time>
      </trkpt>
      <trkpt lat="49.34787" lon="4.03978">
        <ele>140</ele>
        <time>2019-03-30T13:44:12Z</time>
      </trkpt>
      <trkpt lat="49.34787" lon="4.0397">
        <ele>140</ele>
        <time>2019-03-30T13:44:13Z</time>
      </trkpt>
      <trkpt lat="49.34787" lon="4.03962">
        <ele>140</ele>
        <time>2019-03-30T13:44:14Z</time>
      </trkpt>
      <trkpt lat="49.34787" lon="4.03954">
        <ele>140</ele>
        <time>2019-03-30T13:44:15Z</time>
      </trkpt>
      <trkpt lat="49.34787" lon="4.03946">
        <ele>140</ele>
        <time>2019-03-30T13:44:16Z</time>
      </trkpt>
      <trkpt lat="49.34787" lon="4.03938">
        <ele>139</ele>
        <time>2019-03-30T13:44:17Z</time>
      </trkpt>
      <trkpt lat="49.34786" lon="4.0393">
        <ele>139</ele>
        <time>2019-03-30T13:44:18Z</time>
      </trkpt>
      <trkpt lat="49.34786" lon="4.03921">
        <ele>139</ele>
        <time>2019-03-30T13:44:19Z</time>
      </trkpt>
      <trkpt lat="49.34785" lon="4.03913">
        <ele>139</ele>
        <time>2019-03-30T13:44:20Z</time>
      </trkpt>
      <trkpt lat="49.34785" lon="4.03905">
        <ele>139</ele>
        <time>2019-03-30T13:44:21Z</time>
      </trkpt>
      <trkpt lat="49.34783" lon="4.03889">
        <ele>139</ele>
        <time>2019-03-30T13:44:23Z</time>
      </trkpt>
      <trkpt lat="49.34783" lon="4.03881">
        <ele>139</ele>
        <time>2019-03-30T13:44:24Z</time>
      </trkpt>
      <trkpt lat="49.34783" lon="4.03874">
        <ele>139</ele>
        <time>2019-03-30T13:44:25Z</time>
      </trkpt>
      <trkpt lat="49.34783" lon="4.03866">
        <ele>139</ele>
        <time>2019-03-30T13:44:26Z</time>
      </trkpt>
      <trkpt lat="49.34783" lon="4.03859">
        <ele>139</ele>
        <time>2019-03-30T13:44:27Z</time>
      </trkpt>
      <trkpt lat="49.34783" lon="4.03852">
        <ele>139</ele>
        <time>2019-03-30T13:44:28Z</time>
      </trkpt>
      <trkpt lat="49.34783" lon="4.03845">
        <ele>139</ele>
        <time>2019-03-30T13:44:29Z</time>
      </trkpt>
      <trkpt lat="49.34783" lon="4.03838">
        <ele>138</ele>
        <time>2019-03-30T13:44:30Z</time>
      </trkpt>
      <trkpt lat="49.34782" lon="4.03831">
        <ele>138</ele>
        <time>2019-03-30T13:44:31Z</time>
      </trkpt>
      <trkpt lat="49.34782" lon="4.03825">
        <ele>139</ele>
        <time>2019-03-30T13:44:32Z</time>
      </trkpt>
      <trkpt lat="49.34782" lon="4.03818">
        <ele>139</ele>
        <time>2019-03-30T13:44:33Z</time>
      </trkpt>
      <trkpt lat="49.34782" lon="4.03812">
        <ele>138</ele>
        <time>2019-03-30T13:44:34Z</time>
      </trkpt>
      <trkpt lat="49.34781" lon="4.03805">
        <ele>139</ele>
        <time>2019-03-30T13:44:35Z</time>
      </trkpt>
      <trkpt lat="49.34781" lon="4.03793">
        <ele>139</ele>
        <time>2019-03-30T13:44:37Z</time>
      </trkpt>
      <trkpt lat="49.3478" lon="4.03787">
        <ele>139</ele>
        <time>2019-03-30T13:44:38Z</time>
      </trkpt>
      <trkpt lat="49.3478" lon="4.03781">
        <ele>139</ele>
        <time>2019-03-30T13:44:39Z</time>
      </trkpt>
      <trkpt lat="49.3478" lon="4.03777">
        <ele>139</ele>
        <time>2019-03-30T13:44:40Z</time>
      </trkpt>
      <trkpt lat="49.34781" lon="4.03772">
        <ele>139</ele>
        <time>2019-03-30T13:44:41Z</time>
      </trkpt>
      <trkpt lat="49.34781" lon="4.03766">
        <ele>139</ele>
        <time>2019-03-30T13:44:42Z</time>
      </trkpt>
      <trkpt lat="49.34781" lon="4.0375">
        <ele>139</ele>
        <time>2019-03-30T13:44:44Z</time>
      </trkpt>
      <trkpt lat="49.34781" lon="4.03742">
        <ele>139</ele>
        <time>2019-03-30T13:44:45Z</time>
      </trkpt>
      <trkpt lat="49.34781" lon="4.03735">
        <ele>139</ele>
        <time>2019-03-30T13:44:46Z</time>
      </trkpt>
      <trkpt lat="49.34781" lon="4.03727">
        <ele>139</ele>
        <time>2019-03-30T13:44:47Z</time>
      </trkpt>
      <trkpt lat="49.34781" lon="4.0372">
        <ele>139</ele>
        <time>2019-03-30T13:44:48Z</time>
      </trkpt>
      <trkpt lat="49.3478" lon="4.03713">
        <ele>140</ele>
        <time>2019-03-30T13:44:49Z</time>
      </trkpt>
      <trkpt lat="49.3478" lon="4.03706">
        <ele>139</ele>
        <time>2019-03-30T13:44:50Z</time>
      </trkpt>
      <trkpt lat="49.3478" lon="4.037">
        <ele>139</ele>
        <time>2019-03-30T13:44:51Z</time>
      </trkpt>
      <trkpt lat="49.3478" lon="4.03693">
        <ele>139</ele>
        <time>2019-03-30T13:44:52Z</time>
      </trkpt>
      <trkpt lat="49.3478" lon="4.03687">
        <ele>140</ele>
        <time>2019-03-30T13:44:53Z</time>
      </trkpt>
      <trkpt lat="49.3478" lon="4.0368">
        <ele>140</ele>
        <time>2019-03-30T13:44:54Z</time>
      </trkpt>
      <trkpt lat="49.34779" lon="4.03673">
        <ele>140</ele>
        <time>2019-03-30T13:44:55Z</time>
      </trkpt>
      <trkpt lat="49.34779" lon="4.03666">
        <ele>140</ele>
        <time>2019-03-30T13:44:56Z</time>
      </trkpt>
      <trkpt lat="49.34779" lon="4.03659">
        <ele>140</ele>
        <time>2019-03-30T13:44:57Z</time>
      </trkpt>
      <trkpt lat="49.34779" lon="4.03652">
        <ele>140</ele>
        <time>2019-03-30T13:44:58Z</time>
      </trkpt>
      <trkpt lat="49.34778" lon="4.03645">
        <ele>140</ele>
        <time>2019-03-30T13:44:59Z</time>
      </trkpt>
      <trkpt lat="49.34778" lon="4.03639">
        <ele>140</ele>
        <time>2019-03-30T13:45:00Z</time>
      </trkpt>
      <trkpt lat="49.34778" lon="4.03632">
        <ele>141</ele>
        <time>2019-03-30T13:45:01Z</time>
      </trkpt>
      <trkpt lat="49.34778" lon="4.03625">
        <ele>141</ele>
        <time>2019-03-30T13:45:02Z</time>
      </trkpt>
      <trkpt lat="49.34778" lon="4.03619">
        <ele>141</ele>
        <time>2019-03-30T13:45:03Z</time>
      </trkpt>
      <trkpt lat="49.34777" lon="4.03612">
        <ele>141</ele>
        <time>2019-03-30T13:45:04Z</time>
      </trkpt>
      <trkpt lat="49.34777" lon="4.03605">
        <ele>141</ele>
        <time>2019-03-30T13:45:05Z</time>
      </trkpt>
      <trkpt lat="49.34777" lon="4.03599">
        <ele>141</ele>
        <time>2019-03-30T13:45:06Z</time>
      </trkpt>
      <trkpt lat="49.34776" lon="4.03592">
        <ele>141</ele>
        <time>2019-03-30T13:45:07Z</time>
      </trkpt>
      <trkpt lat="49.34776" lon="4.03585">
        <ele>141</ele>
        <time>2019-03-30T13:45:08Z</time>
      </trkpt>
      <trkpt lat="49.34776" lon="4.03579">
        <ele>141</ele>
        <time>2019-03-30T13:45:09Z</time>
      </trkpt>
      <trkpt lat="49.34776" lon="4.03573">
        <ele>141</ele>
        <time>2019-03-30T13:45:10Z</time>
      </trkpt>
      <trkpt lat="49.34776" lon="4.03567">
        <ele>141</ele>
        <time>2019-03-30T13:45:11Z</time>
      </trkpt>
      <trkpt lat="49.34776" lon="4.0356">
        <ele>141</ele>
        <time>2019-03-30T13:45:12Z</time>
      </trkpt>
      <trkpt lat="49.34775" lon="4.03554">
        <ele>142</ele>
        <time>2019-03-30T13:45:13Z</time>
      </trkpt>
      <trkpt lat="49.34775" lon="4.03548">
        <ele>142</ele>
        <time>2019-03-30T13:45:14Z</time>
      </trkpt>
      <trkpt lat="49.34775" lon="4.03542">
        <ele>142</ele>
        <time>2019-03-30T13:45:15Z</time>
      </trkpt>
      <trkpt lat="49.34775" lon="4.03537">
        <ele>143</ele>
        <time>2019-03-30T13:45:16Z</time>
      </trkpt>
      <trkpt lat="49.34775" lon="4.03532">
        <ele>143</ele>
        <time>2019-03-30T13:45:17Z</time>
      </trkpt>
      <trkpt lat="49.34775" lon="4.03526">
        <ele>144</ele>
        <time>2019-03-30T13:45:18Z</time>
      </trkpt>
      <trkpt lat="49.34775" lon="4.0352">
        <ele>144</ele>
        <time>2019-03-30T13:45:19Z</time>
      </trkpt>
      <trkpt lat="49.34775" lon="4.03514">
        <ele>144</ele>
        <time>2019-03-30T13:45:20Z</time>
      </trkpt>
      <trkpt lat="49.34775" lon="4.03508">
        <ele>145</ele>
        <time>2019-03-30T13:45:21Z</time>
      </trkpt>
      <trkpt lat="49.34776" lon="4.03502">
        <ele>145</ele>
        <time>2019-03-30T13:45:22Z</time>
      </trkpt>
      <trkpt lat="49.34776" lon="4.03496">
        <ele>145</ele>
        <time>2019-03-30T13:45:23Z</time>
      </trkpt>
      <trkpt lat="49.34777" lon="4.0349">
        <ele>145</ele>
        <time>2019-03-30T13:45:24Z</time>
      </trkpt>
      <trkpt lat="49.34778" lon="4.03485">
        <ele>146</ele>
        <time>2019-03-30T13:45:25Z</time>
      </trkpt>
      <trkpt lat="49.3478" lon="4.03479">
        <ele>146</ele>
        <time>2019-03-30T13:45:26Z</time>
      </trkpt>
      <trkpt lat="49.34782" lon="4.03474">
        <ele>147</ele>
        <time>2019-03-30T13:45:27Z</time>
      </trkpt>
      <trkpt lat="49.34785" lon="4.03469">
        <ele>147</ele>
        <time>2019-03-30T13:45:28Z</time>
      </trkpt>
      <trkpt lat="49.34787" lon="4.03464">
        <ele>147</ele>
        <time>2019-03-30T13:45:29Z</time>
      </trkpt>
      <trkpt lat="49.34789" lon="4.03458">
        <ele>147</ele>
        <time>2019-03-30T13:45:30Z</time>
      </trkpt>
      <trkpt lat="49.3479" lon="4.03452">
        <ele>147</ele>
        <time>2019-03-30T13:45:31Z</time>
      </trkpt>
      <trkpt lat="49.3479" lon="4.03444">
        <ele>148</ele>
        <time>2019-03-30T13:45:32Z</time>
      </trkpt>
      <trkpt lat="49.34789" lon="4.03437">
        <ele>148</ele>
        <time>2019-03-30T13:45:33Z</time>
      </trkpt>
      <trkpt lat="49.34787" lon="4.03431">
        <ele>148</ele>
        <time>2019-03-30T13:45:34Z</time>
      </trkpt>
      <trkpt lat="49.34785" lon="4.03425">
        <ele>148</ele>
        <time>2019-03-30T13:45:35Z</time>
      </trkpt>
      <trkpt lat="49.34782" lon="4.0342">
        <ele>149</ele>
        <time>2019-03-30T13:45:36Z</time>
      </trkpt>
      <trkpt lat="49.34779" lon="4.03415">
        <ele>149</ele>
        <time>2019-03-30T13:45:37Z</time>
      </trkpt>
      <trkpt lat="49.34776" lon="4.0341">
        <ele>150</ele>
        <time>2019-03-30T13:45:38Z</time>
      </trkpt>
      <trkpt lat="49.34774" lon="4.03405">
        <ele>150</ele>
        <time>2019-03-30T13:45:39Z</time>
      </trkpt>
      <trkpt lat="49.34774" lon="4.03399">
        <ele>151</ele>
        <time>2019-03-30T13:45:40Z</time>
      </trkpt>
      <trkpt lat="49.34773" lon="4.03393">
        <ele>151</ele>
        <time>2019-03-30T13:45:41Z</time>
      </trkpt>
      <trkpt lat="49.34773" lon="4.03388">
        <ele>151</ele>
        <time>2019-03-30T13:45:42Z</time>
      </trkpt>
      <trkpt lat="49.34773" lon="4.03383">
        <ele>151</ele>
        <time>2019-03-30T13:45:43Z</time>
      </trkpt>
      <trkpt lat="49.34772" lon="4.03377">
        <ele>152</ele>
        <time>2019-03-30T13:45:44Z</time>
      </trkpt>
      <trkpt lat="49.34772" lon="4.03372">
        <ele>152</ele>
        <time>2019-03-30T13:45:45Z</time>
      </trkpt>
      <trkpt lat="49.34772" lon="4.03367">
        <ele>152</ele>
        <time>2019-03-30T13:45:46Z</time>
      </trkpt>
      <trkpt lat="49.34771" lon="4.03362">
        <ele>152</ele>
        <time>2019-03-30T13:45:47Z</time>
      </trkpt>
      <trkpt lat="49.34771" lon="4.03357">
        <ele>152</ele>
        <time>2019-03-30T13:45:48Z</time>
      </trkpt>
      <trkpt lat="49.34771" lon="4.03352">
        <ele>152</ele>
        <time>2019-03-30T13:45:49Z</time>
      </trkpt>
      <trkpt lat="49.34771" lon="4.03347">
        <ele>152</ele>
        <time>2019-03-30T13:45:50Z</time>
      </trkpt>
      <trkpt lat="49.3477" lon="4.03342">
        <ele>152</ele>
        <time>2019-03-30T13:45:51Z</time>
      </trkpt>
      <trkpt lat="49.3477" lon="4.03338">
        <ele>153</ele>
        <time>2019-03-30T13:45:52Z</time>
      </trkpt>
      <trkpt lat="49.3477" lon="4.03333">
        <ele>153</ele>
        <time>2019-03-30T13:45:53Z</time>
      </trkpt>
      <trkpt lat="49.3477" lon="4.03328">
        <ele>153</ele>
        <time>2019-03-30T13:45:54Z</time>
      </trkpt>
      <trkpt lat="49.3477" lon="4.03323">
        <ele>153</ele>
        <time>2019-03-30T13:45:55Z</time>
      </trkpt>
      <trkpt lat="49.3477" lon="4.03317">
        <ele>153</ele>
        <time>2019-03-30T13:45:56Z</time>
      </trkpt>
      <trkpt lat="49.34769" lon="4.03312">
        <ele>153</ele>
        <time>2019-03-30T13:45:57Z</time>
      </trkpt>
      <trkpt lat="49.34769" lon="4.03307">
        <ele>153</ele>
        <time>2019-03-30T13:45:58Z</time>
      </trkpt>
      <trkpt lat="49.34769" lon="4.03302">
        <ele>153</ele>
        <time>2019-03-30T13:45:59Z</time>
      </trkpt>
      <trkpt lat="49.34769" lon="4.03297">
        <ele>153</ele>
        <time>2019-03-30T13:46:00Z</time>
      </trkpt>
      <trkpt lat="49.34768" lon="4.03292">
        <ele>153</ele>
        <time>2019-03-30T13:46:01Z</time>
      </trkpt>
      <trkpt lat="49.34768" lon="4.03287">
        <ele>153</ele>
        <time>2019-03-30T13:46:02Z</time>
      </trkpt>
      <trkpt lat="49.34768" lon="4.03282">
        <ele>154</ele>
        <time>2019-03-30T13:46:03Z</time>
      </trkpt>
      <trkpt lat="49.34768" lon="4.03277">
        <ele>154</ele>
        <time>2019-03-30T13:46:04Z</time>
      </trkpt>
      <trkpt lat="49.34768" lon="4.03272">
        <ele>154</ele>
        <time>2019-03-30T13:46:05Z</time>
      </trkpt>
      <trkpt lat="49.34768" lon="4.03268">
        <ele>154</ele>
        <time>2019-03-30T13:46:06Z</time>
      </trkpt>
      <trkpt lat="49.34768" lon="4.03263">
        <ele>154</ele>
        <time>2019-03-30T13:46:07Z</time>
      </trkpt>
      <trkpt lat="49.34768" lon="4.03258">
        <ele>154</ele>
        <time>2019-03-30T13:46:08Z</time>
      </trkpt>
      <trkpt lat="49.34768" lon="4.03253">
        <ele>154</ele>
        <time>2019-03-30T13:46:09Z</time>
      </trkpt>
      <trkpt lat="49.34768" lon="4.03248">
        <ele>154</ele>
        <time>2019-03-30T13:46:10Z</time>
      </trkpt>
      <trkpt lat="49.34768" lon="4.03243">
        <ele>154</ele>
        <time>2019-03-30T13:46:11Z</time>
      </trkpt>
      <trkpt lat="49.34768" lon="4.03238">
        <ele>154</ele>
        <time>2019-03-30T13:46:12Z</time>
      </trkpt>
      <trkpt lat="49.34768" lon="4.03233">
        <ele>154</ele>
        <time>2019-03-30T13:46:13Z</time>
      </trkpt>
      <trkpt lat="49.34768" lon="4.03228">
        <ele>155</ele>
        <time>2019-03-30T13:46:14Z</time>
      </trkpt>
      <trkpt lat="49.34768" lon="4.03224">
        <ele>155</ele>
        <time>2019-03-30T13:46:15Z</time>
      </trkpt>
      <trkpt lat="49.34768" lon="4.03219">
        <ele>155</ele>
        <time>2019-03-30T13:46:16Z</time>
      </trkpt>
      <trkpt lat="49.34768" lon="4.03215">
        <ele>155</ele>
        <time>2019-03-30T13:46:17Z</time>
      </trkpt>
      <trkpt lat="49.34768" lon="4.0321">
        <ele>155</ele>
        <time>2019-03-30T13:46:18Z</time>
      </trkpt>
      <trkpt lat="49.34769" lon="4.03205">
        <ele>155</ele>
        <time>2019-03-30T13:46:19Z</time>
      </trkpt>
      <trkpt lat="49.34769" lon="4.032">
        <ele>155</ele>
        <time>2019-03-30T13:46:20Z</time>
      </trkpt>
      <trkpt lat="49.34769" lon="4.03196">
        <ele>155</ele>
        <time>2019-03-30T13:46:21Z</time>
      </trkpt>
      <trkpt lat="49.3477" lon="4.03191">
        <ele>155</ele>
        <time>2019-03-30T13:46:22Z</time>
      </trkpt>
      <trkpt lat="49.3477" lon="4.03187">
        <ele>155</ele>
        <time>2019-03-30T13:46:23Z</time>
      </trkpt>
      <trkpt lat="49.3477" lon="4.03183">
        <ele>155</ele>
        <time>2019-03-30T13:46:24Z</time>
      </trkpt>
      <trkpt lat="49.34771" lon="4.03178">
        <ele>156</ele>
        <time>2019-03-30T13:46:25Z</time>
      </trkpt>
      <trkpt lat="49.34771" lon="4.03174">
        <ele>155</ele>
        <time>2019-03-30T13:46:26Z</time>
      </trkpt>
      <trkpt lat="49.34771" lon="4.03169">
        <ele>156</ele>
        <time>2019-03-30T13:46:27Z</time>
      </trkpt>
      <trkpt lat="49.34772" lon="4.03164">
        <ele>156</ele>
        <time>2019-03-30T13:46:28Z</time>
      </trkpt>
      <trkpt lat="49.34772" lon="4.0316">
        <ele>156</ele>
        <time>2019-03-30T13:46:29Z</time>
      </trkpt>
      <trkpt lat="49.34773" lon="4.03155">
        <ele>156</ele>
        <time>2019-03-30T13:46:30Z</time>
      </trkpt>
      <trkpt lat="49.34774" lon="4.0315">
        <ele>156</ele>
        <time>2019-03-30T13:46:31Z</time>
      </trkpt>
      <trkpt lat="49.34775" lon="4.03146">
        <ele>156</ele>
        <time>2019-03-30T13:46:32Z</time>
      </trkpt>
      <trkpt lat="49.34775" lon="4.03141">
        <ele>156</ele>
        <time>2019-03-30T13:46:33Z</time>
      </trkpt>
      <trkpt lat="49.34776" lon="4.03136">
        <ele>156</ele>
        <time>2019-03-30T13:46:34Z</time>
      </trkpt>
      <trkpt lat="49.34776" lon="4.03131">
        <ele>156</ele>
        <time>2019-03-30T13:46:35Z</time>
      </trkpt>
      <trkpt lat="49.34777" lon="4.03127">
        <ele>156</ele>
        <time>2019-03-30T13:46:36Z</time>
      </trkpt>
      <trkpt lat="49.34778" lon="4.03123">
        <ele>156</ele>
        <time>2019-03-30T13:46:37Z</time>
      </trkpt>
      <trkpt lat="49.34778" lon="4.03119">
        <ele>156</ele>
        <time>2019-03-30T13:46:38Z</time>
      </trkpt>
      <trkpt lat="49.34779" lon="4.03115">
        <ele>156</ele>
        <time>2019-03-30T13:46:39Z</time>
      </trkpt>
      <trkpt lat="49.34779" lon="4.03112">
        <ele>156</ele>
        <time>2019-03-30T13:46:40Z</time>
      </trkpt>
      <trkpt lat="49.3478" lon="4.03109">
        <ele>156</ele>
        <time>2019-03-30T13:46:41Z</time>
      </trkpt>
      <trkpt lat="49.3478" lon="4.03106">
        <ele>156</ele>
        <time>2019-03-30T13:46:42Z</time>
      </trkpt>
      <trkpt lat="49.34781" lon="4.03103">
        <ele>156</ele>
        <time>2019-03-30T13:46:43Z</time>
      </trkpt>
      <trkpt lat="49.34782" lon="4.031">
        <ele>156</ele>
        <time>2019-03-30T13:46:44Z</time>
      </trkpt>
      <trkpt lat="49.34782" lon="4.03098">
        <ele>156</ele>
        <time>2019-03-30T13:46:45Z</time>
      </trkpt>
      <trkpt lat="49.34782" lon="4.03095">
        <ele>156</ele>
        <time>2019-03-30T13:46:46Z</time>
      </trkpt>
      <trkpt lat="49.34783" lon="4.03093">
        <ele>157</ele>
        <time>2019-03-30T13:46:47Z</time>
      </trkpt>
      <trkpt lat="49.34783" lon="4.03091">
        <ele>156</ele>
        <time>2019-03-30T13:46:48Z</time>
      </trkpt>
      <trkpt lat="49.34784" lon="4.03088">
        <ele>156</ele>
        <time>2019-03-30T13:46:49Z</time>
      </trkpt>
      <trkpt lat="49.34784" lon="4.03086">
        <ele>156</ele>
        <time>2019-03-30T13:46:50Z</time>
      </trkpt>
      <trkpt lat="49.34785" lon="4.03084">
        <ele>157</ele>
        <time>2019-03-30T13:46:51Z</time>
      </trkpt>
      <trkpt lat="49.34785" lon="4.03082">
        <ele>156</ele>
        <time>2019-03-30T13:46:52Z</time>
      </trkpt>
      <trkpt lat="49.34786" lon="4.03081">
        <ele>157</ele>
        <time>2019-03-30T13:46:53Z</time>
      </trkpt>
      <trkpt lat="49.34787" lon="4.03081">
        <ele>157</ele>
        <time>2019-03-30T13:46:54Z</time>
      </trkpt>
      <trkpt lat="49.34787" lon="4.03082">
        <ele>157</ele>
        <time>2019-03-30T13:46:55Z</time>
      </trkpt>
      <trkpt lat="49.34787" lon="4.03082">
        <ele>157</ele>
        <time>2019-03-30T13:46:56Z</time>
      </trkpt>
      <trkpt lat="49.34787" lon="4.03083">
        <ele>157</ele>
        <time>2019-03-30T13:46:57Z</time>
      </trkpt>
      <trkpt lat="49.34787" lon="4.03083">
        <ele>157</ele>
        <time>2019-03-30T13:46:58Z</time>
      </trkpt>
      <trkpt lat="49.34787" lon="4.03083">
        <ele>157</ele>
        <time>2019-03-30T13:46:59Z</time>
      </trkpt>
      <trkpt lat="49.34787" lon="4.03083">
        <ele>157</ele>
        <time>2019-03-30T13:47:00Z</time>
      </trkpt>
      <trkpt lat="49.34787" lon="4.03083">
        <ele>157</ele>
        <time>2019-03-30T13:47:01Z</time>
      </trkpt>
      <trkpt lat="49.34787" lon="4.03083">
        <ele>157</ele>
        <time>2019-03-30T13:47:02Z</time>
      </trkpt>
      <trkpt lat="49.34787" lon="4.03083">
        <ele>157</ele>
        <time>2019-03-30T13:47:03Z</time>
      </trkpt>
      <trkpt lat="49.34787" lon="4.03083">
        <ele>157</ele>
        <time>2019-03-30T13:47:04Z</time>
      </trkpt>
      <trkpt lat="49.34787" lon="4.03083">
        <ele>157</ele>
        <time>2019-03-30T13:47:05Z</time>
      </trkpt>
      <trkpt lat="49.34787" lon="4.03083">
        <ele>157</ele>
        <time>2019-03-30T13:47:06Z</time>
      </trkpt>
      <trkpt lat="49.34787" lon="4.03083">
        <ele>157</ele>
        <time>2019-03-30T13:47:07Z</time>
      </trkpt>
      <trkpt lat="49.34787" lon="4.03083">
        <ele>157</ele>
        <time>2019-03-30T13:47:08Z</time>
      </trkpt>
      <trkpt lat="49.34787" lon="4.03083">
        <ele>157</ele>
        <time>2019-03-30T13:47:09Z</time>
      </trkpt>
      <trkpt lat="49.34787" lon="4.03083">
        <ele>157</ele>
        <time>2019-03-30T13:47:10Z</time>
      </trkpt>
      <trkpt lat="49.34787" lon="4.03083">
        <ele>157</ele>
        <time>2019-03-30T13:47:11Z</time>
      </trkpt>
      <trkpt lat="49.34787" lon="4.03083">
        <ele>157</ele>
        <time>2019-03-30T13:47:12Z</time>
      </trkpt>
      <trkpt lat="49.34787" lon="4.03083">
        <ele>157</ele>
        <time>2019-03-30T13:47:13Z</time>
      </trkpt>
      <trkpt lat="49.34787" lon="4.03083">
        <ele>157</ele>
        <time>2019-03-30T13:47:14Z</time>
      </trkpt>
      <trkpt lat="49.34787" lon="4.03083">
        <ele>157</ele>
        <time>2019-03-30T13:47:15Z</time>
      </trkpt>
      <trkpt lat="49.34787" lon="4.03083">
        <ele>157</ele>
        <time>2019-03-30T13:47:16Z</time>
      </trkpt>
      <trkpt lat="49.34787" lon="4.03083">
        <ele>157</ele>
        <time>2019-03-30T13:47:17Z</time>
      </trkpt>
      <trkpt lat="49.34787" lon="4.03083">
        <ele>157</ele>
        <time>2019-03-30T13:47:18Z</time>
      </trkpt>
      <trkpt lat="49.34787" lon="4.03083">
        <ele>157</ele>
        <time>2019-03-30T13:47:19Z</time>
      </trkpt>
      <trkpt lat="49.34787" lon="4.03083">
        <ele>157</ele>
        <time>2019-03-30T13:47:20Z</time>
      </trkpt>
      <trkpt lat="49.34787" lon="4.03083">
        <ele>157</ele>
        <time>2019-03-30T13:47:21Z</time>
      </trkpt>
      <trkpt lat="49.34787" lon="4.03083">
        <ele>157</ele>
        <time>2019-03-30T13:47:22Z</time>
      </trkpt>
      <trkpt lat="49.34787" lon="4.03083">
        <ele>157</ele>
        <time>2019-03-30T13:47:23Z</time>
      </trkpt>
      <trkpt lat="49.34787" lon="4.03083">
        <ele>157</ele>
        <time>2019-03-30T13:47:24Z</time>
      </trkpt>
      <trkpt lat="49.34787" lon="4.03083">
        <ele>157</ele>
        <time>2019-03-30T13:47:25Z</time>
      </trkpt>
      <trkpt lat="49.34787" lon="4.03083">
        <ele>157</ele>
        <time>2019-03-30T13:47:26Z</time>
      </trkpt>
      <trkpt lat="49.34787" lon="4.03083">
        <ele>157</ele>
        <time>2019-03-30T13:47:27Z</time>
      </trkpt>
      <trkpt lat="49.34787" lon="4.03083">
        <ele>157</ele>
        <time>2019-03-30T13:47:28Z</time>
      </trkpt>
      <trkpt lat="49.34787" lon="4.03083">
        <ele>157</ele>
        <time>2019-03-30T13:47:29Z</time>
      </trkpt>
      <trkpt lat="49.34787" lon="4.03083">
        <ele>157</ele>
        <time>2019-03-30T13:47:30Z</time>
      </trkpt>
      <trkpt lat="49.34787" lon="4.03083">
        <ele>157</ele>
        <time>2019-03-30T13:47:31Z</time>
      </trkpt>
      <trkpt lat="49.34787" lon="4.03083">
        <ele>157</ele>
        <time>2019-03-30T13:47:32Z</time>
      </trkpt>
      <trkpt lat="49.34787" lon="4.03083">
        <ele>157</ele>
        <time>2019-03-30T13:47:33Z</time>
      </trkpt>
      <trkpt lat="49.34787" lon="4.03083">
        <ele>157</ele>
        <time>2019-03-30T13:47:34Z</time>
      </trkpt>
      <trkpt lat="49.34787" lon="4.03083">
        <ele>157</ele>
        <time>2019-03-30T13:47:35Z</time>
      </trkpt>
      <trkpt lat="49.34787" lon="4.03083">
        <ele>157</ele>
        <time>2019-03-30T13:47:36Z</time>
      </trkpt>
      <trkpt lat="49.34787" lon="4.03083">
        <ele>157</ele>
        <time>2019-03-30T13:47:37Z</time>
      </trkpt>
      <trkpt lat="49.34787" lon="4.03083">
        <ele>157</ele>
        <time>2019-03-30T13:47:38Z</time>
      </trkpt>
      <trkpt lat="49.34787" lon="4.03083">
        <ele>157</ele>
        <time>2019-03-30T13:47:39Z</time>
      </trkpt>
      <trkpt lat="49.34787" lon="4.03083">
        <ele>157</ele>
        <time>2019-03-30T13:47:40Z</time>
      </trkpt>
      <trkpt lat="49.34787" lon="4.03083">
        <ele>157</ele>
        <time>2019-03-30T13:47:41Z</time>
      </trkpt>
      <trkpt lat="49.34787" lon="4.03083">
        <ele>157</ele>
        <time>2019-03-30T13:47:42Z</time>
      </trkpt>
      <trkpt lat="49.34787" lon="4.03083">
        <ele>157</ele>
        <time>2019-03-30T13:47:43Z</time>
      </trkpt>
      <trkpt lat="49.34787" lon="4.03083">
        <ele>157</ele>
        <time>2019-03-30T13:47:44Z</time>
      </trkpt>
      <trkpt lat="49.34787" lon="4.03083">
        <ele>157</ele>
        <time>2019-03-30T13:47:45Z</time>
      </trkpt>
      <trkpt lat="49.34787" lon="4.03083">
        <ele>157</ele>
        <time>2019-03-30T13:47:46Z</time>
      </trkpt>
      <trkpt lat="49.34787" lon="4.03083">
        <ele>157</ele>
        <time>2019-03-30T13:47:47Z</time>
      </trkpt>
      <trkpt lat="49.34787" lon="4.03083">
        <ele>157</ele>
        <time>2019-03-30T13:47:48Z</time>
      </trkpt>
      <trkpt lat="49.34787" lon="4.03083">
        <ele>157</ele>
        <time>2019-03-30T13:47:49Z</time>
      </trkpt>
      <trkpt lat="49.34787" lon="4.03083">
        <ele>157</ele>
        <time>2019-03-30T13:47:50Z</time>
      </trkpt>
      <trkpt lat="49.34787" lon="4.03083">
        <ele>157</ele>
        <time>2019-03-30T13:47:51Z</time>
      </trkpt>
      <trkpt lat="49.34787" lon="4.03083">
        <ele>157</ele>
        <time>2019-03-30T13:47:52Z</time>
      </trkpt>
      <trkpt lat="49.34787" lon="4.03083">
        <ele>157</ele>
        <time>2019-03-30T13:47:53Z</time>
      </trkpt>
      <trkpt lat="49.34787" lon="4.03083">
        <ele>157</ele>
        <time>2019-03-30T13:47:54Z</time>
      </trkpt>
      <trkpt lat="49.34787" lon="4.03083">
        <ele>157</ele>
        <time>2019-03-30T13:47:55Z</time>
      </trkpt>
      <trkpt lat="49.34787" lon="4.03083">
        <ele>157</ele>
        <time>2019-03-30T13:47:56Z</time>
      </trkpt>
      <trkpt lat="49.34787" lon="4.03083">
        <ele>157</ele>
        <time>2019-03-30T13:47:57Z</time>
      </trkpt>
      <trkpt lat="49.34787" lon="4.03083">
        <ele>157</ele>
        <time>2019-03-30T13:47:58Z</time>
      </trkpt>
      <trkpt lat="49.34787" lon="4.03083">
        <ele>157</ele>
        <time>2019-03-30T13:47:59Z</time>
      </trkpt>
      <trkpt lat="49.34787" lon="4.03083">
        <ele>157</ele>
        <time>2019-03-30T13:48:00Z</time>
      </trkpt>
      <trkpt lat="49.34787" lon="4.03083">
        <ele>157</ele>
        <time>2019-03-30T13:48:01Z</time>
      </trkpt>
      <trkpt lat="49.34787" lon="4.03083">
        <ele>157</ele>
        <time>2019-03-30T13:48:02Z</time>
      </trkpt>
      <trkpt lat="49.34787" lon="4.03083">
        <ele>157</ele>
        <time>2019-03-30T13:48:03Z</time>
      </trkpt>
      <trkpt lat="49.34787" lon="4.03083">
        <ele>157</ele>
        <time>2019-03-30T13:48:04Z</time>
      </trkpt>
      <trkpt lat="49.34787" lon="4.03083">
        <ele>157</ele>
        <time>2019-03-30T13:48:05Z</time>
      </trkpt>
      <trkpt lat="49.34787" lon="4.03083">
        <ele>157</ele>
        <time>2019-03-30T13:48:06Z</time>
      </trkpt>
      <trkpt lat="49.34786" lon="4.03082">
        <ele>157</ele>
        <time>2019-03-30T13:48:07Z</time>
      </trkpt>
      <trkpt lat="49.34786" lon="4.03082">
        <ele>157</ele>
        <time>2019-03-30T13:48:08Z</time>
      </trkpt>
      <trkpt lat="49.34787" lon="4.03082">
        <ele>156</ele>
        <time>2019-03-30T13:48:09Z</time>
      </trkpt>
      <trkpt lat="49.34787" lon="4.03082">
        <ele>156</ele>
        <time>2019-03-30T13:48:10Z</time>
      </trkpt>
      <trkpt lat="49.34787" lon="4.03082">
        <ele>156</ele>
        <time>2019-03-30T13:48:11Z</time>
      </trkpt>
      <trkpt lat="49.34787" lon="4.03082">
        <ele>156</ele>
        <time>2019-03-30T13:48:12Z</time>
      </trkpt>
      <trkpt lat="49.34787" lon="4.03082">
        <ele>156</ele>
        <time>2019-03-30T13:48:13Z</time>
      </trkpt>
      <trkpt lat="49.34787" lon="4.03082">
        <ele>156</ele>
        <time>2019-03-30T13:48:14Z</time>
      </trkpt>
      <trkpt lat="49.34787" lon="4.03082">
        <ele>156</ele>
        <time>2019-03-30T13:48:15Z</time>
      </trkpt>
      <trkpt lat="49.34787" lon="4.03082">
        <ele>156</ele>
        <time>2019-03-30T13:48:16Z</time>
      </trkpt>
      <trkpt lat="49.34787" lon="4.03082">
        <ele>156</ele>
        <time>2019-03-30T13:48:17Z</time>
      </trkpt>
      <trkpt lat="49.34787" lon="4.03082">
        <ele>156</ele>
        <time>2019-03-30T13:48:18Z</time>
      </trkpt>
      <trkpt lat="49.34787" lon="4.03082">
        <ele>156</ele>
        <time>2019-03-30T13:48:19Z</time>
      </trkpt>
      <trkpt lat="49.34787" lon="4.03082">
        <ele>156</ele>
        <time>2019-03-30T13:48:20Z</time>
      </trkpt>
      <trkpt lat="49.34787" lon="4.03082">
        <ele>156</ele>
        <time>2019-03-30T13:48:21Z</time>
      </trkpt>
      <trkpt lat="49.34787" lon="4.03082">
        <ele>156</ele>
        <time>2019-03-30T13:48:22Z</time>
      </trkpt>
      <trkpt lat="49.34787" lon="4.03082">
        <ele>156</ele>
        <time>2019-03-30T13:48:23Z</time>
      </trkpt>
      <trkpt lat="49.34787" lon="4.03082">
        <ele>156</ele>
        <time>2019-03-30T13:48:24Z</time>
      </trkpt>
      <trkpt lat="49.34787" lon="4.03082">
        <ele>156</ele>
        <time>2019-03-30T13:48:25Z</time>
      </trkpt>
      <trkpt lat="49.34787" lon="4.03082">
        <ele>156</ele>
        <time>2019-03-30T13:48:26Z</time>
      </trkpt>
      <trkpt lat="49.34787" lon="4.03082">
        <ele>156</ele>
        <time>2019-03-30T13:48:27Z</time>
      </trkpt>
      <trkpt lat="49.34787" lon="4.03082">
        <ele>156</ele>
        <time>2019-03-30T13:48:28Z</time>
      </trkpt>
      <trkpt lat="49.34787" lon="4.03082">
        <ele>156</ele>
        <time>2019-03-30T13:48:29Z</time>
      </trkpt>
      <trkpt lat="49.34787" lon="4.03082">
        <ele>156</ele>
        <time>2019-03-30T13:48:30Z</time>
      </trkpt>
      <trkpt lat="49.34787" lon="4.03082">
        <ele>156</ele>
        <time>2019-03-30T13:48:31Z</time>
      </trkpt>
      <trkpt lat="49.34787" lon="4.03082">
        <ele>156</ele>
        <time>2019-03-30T13:48:32Z</time>
      </trkpt>
      <trkpt lat="49.34787" lon="4.03082">
        <ele>156</ele>
        <time>2019-03-30T13:48:33Z</time>
      </trkpt>
      <trkpt lat="49.34787" lon="4.03082">
        <ele>156</ele>
        <time>2019-03-30T13:48:34Z</time>
      </trkpt>
      <trkpt lat="49.34787" lon="4.03082">
        <ele>156</ele>
        <time>2019-03-30T13:48:35Z</time>
      </trkpt>
      <trkpt lat="49.34787" lon="4.03082">
        <ele>156</ele>
        <time>2019-03-30T13:48:36Z</time>
      </trkpt>
      <trkpt lat="49.34787" lon="4.03082">
        <ele>156</ele>
        <time>2019-03-30T13:48:37Z</time>
      </trkpt>
      <trkpt lat="49.34787" lon="4.03082">
        <ele>156</ele>
        <time>2019-03-30T13:48:38Z</time>
      </trkpt>
      <trkpt lat="49.34787" lon="4.03082">
        <ele>156</ele>
        <time>2019-03-30T13:48:39Z</time>
      </trkpt>
      <trkpt lat="49.34787" lon="4.03082">
        <ele>156</ele>
        <time>2019-03-30T13:48:40Z</time>
      </trkpt>
      <trkpt lat="49.34787" lon="4.03082">
        <ele>156</ele>
        <time>2019-03-30T13:48:41Z</time>
      </trkpt>
      <trkpt lat="49.34787" lon="4.03082">
        <ele>156</ele>
        <time>2019-03-30T13:48:42Z</time>
      </trkpt>
      <trkpt lat="49.34787" lon="4.03082">
        <ele>156</ele>
        <time>2019-03-30T13:48:43Z</time>
      </trkpt>
      <trkpt lat="49.34787" lon="4.03082">
        <ele>156</ele>
        <time>2019-03-30T13:48:44Z</time>
      </trkpt>
      <trkpt lat="49.34787" lon="4.03082">
        <ele>156</ele>
        <time>2019-03-30T13:48:45Z</time>
      </trkpt>
      <trkpt lat="49.34787" lon="4.03082">
        <ele>156</ele>
        <time>2019-03-30T13:48:46Z</time>
      </trkpt>
      <trkpt lat="49.34787" lon="4.03082">
        <ele>156</ele>
        <time>2019-03-30T13:48:47Z</time>
      </trkpt>
      <trkpt lat="49.34787" lon="4.03082">
        <ele>156</ele>
        <time>2019-03-30T13:48:48Z</time>
      </trkpt>
      <trkpt lat="49.34787" lon="4.03082">
        <ele>156</ele>
        <time>2019-03-30T13:48:49Z</time>
      </trkpt>
      <trkpt lat="49.34787" lon="4.03082">
        <ele>156</ele>
        <time>2019-03-30T13:48:50Z</time>
      </trkpt>
      <trkpt lat="49.34787" lon="4.03082">
        <ele>156</ele>
        <time>2019-03-30T13:48:51Z</time>
      </trkpt>
      <trkpt lat="49.34787" lon="4.03082">
        <ele>156</ele>
        <time>2019-03-30T13:48:52Z</time>
      </trkpt>
      <trkpt lat="49.34787" lon="4.03082">
        <ele>156</ele>
        <time>2019-03-30T13:48:53Z</time>
      </trkpt>
      <trkpt lat="49.34787" lon="4.03082">
        <ele>156</ele>
        <time>2019-03-30T13:48:54Z</time>
      </trkpt>
      <trkpt lat="49.34787" lon="4.03082">
        <ele>156</ele>
        <time>2019-03-30T13:48:55Z</time>
      </trkpt>
      <trkpt lat="49.34787" lon="4.03082">
        <ele>156</ele>
        <time>2019-03-30T13:48:56Z</time>
      </trkpt>
      <trkpt lat="49.34787" lon="4.03082">
        <ele>156</ele>
        <time>2019-03-30T13:48:57Z</time>
      </trkpt>
      <trkpt lat="49.34787" lon="4.03082">
        <ele>156</ele>
        <time>2019-03-30T13:48:58Z</time>
      </trkpt>
      <trkpt lat="49.34787" lon="4.03082">
        <ele>156</ele>
        <time>2019-03-30T13:48:59Z</time>
      </trkpt>
      <trkpt lat="49.34787" lon="4.03082">
        <ele>156</ele>
        <time>2019-03-30T13:49:00Z</time>
      </trkpt>
      <trkpt lat="49.34787" lon="4.03082">
        <ele>156</ele>
        <time>2019-03-30T13:49:01Z</time>
      </trkpt>
      <trkpt lat="49.34787" lon="4.03082">
        <ele>156</ele>
        <time>2019-03-30T13:49:02Z</time>
      </trkpt>
      <trkpt lat="49.34787" lon="4.03082">
        <ele>156</ele>
        <time>2019-03-30T13:49:03Z</time>
      </trkpt>
      <trkpt lat="49.34787" lon="4.03082">
        <ele>156</ele>
        <time>2019-03-30T13:49:04Z</time>
      </trkpt>
      <trkpt lat="49.34787" lon="4.03082">
        <ele>156</ele>
        <time>2019-03-30T13:49:05Z</time>
      </trkpt>
      <trkpt lat="49.34787" lon="4.03082">
        <ele>157</ele>
        <time>2019-03-30T13:49:06Z</time>
      </trkpt>
      <trkpt lat="49.34787" lon="4.03082">
        <ele>157</ele>
        <time>2019-03-30T13:49:07Z</time>
      </trkpt>
      <trkpt lat="49.34787" lon="4.03082">
        <ele>157</ele>
        <time>2019-03-30T13:49:08Z</time>
      </trkpt>
      <trkpt lat="49.34787" lon="4.03082">
        <ele>157</ele>
        <time>2019-03-30T13:49:09Z</time>
      </trkpt>
      <trkpt lat="49.34787" lon="4.03082">
        <ele>157</ele>
        <time>2019-03-30T13:49:10Z</time>
      </trkpt>
      <trkpt lat="49.34786" lon="4.03082">
        <ele>157</ele>
        <time>2019-03-30T13:49:11Z</time>
      </trkpt>
      <trkpt lat="49.34786" lon="4.03082">
        <ele>157</ele>
        <time>2019-03-30T13:49:12Z</time>
      </trkpt>
      <trkpt lat="49.34786" lon="4.03082">
        <ele>157</ele>
        <time>2019-03-30T13:49:13Z</time>
      </trkpt>
      <trkpt lat="49.34786" lon="4.03082">
        <ele>157</ele>
        <time>2019-03-30T13:49:14Z</time>
      </trkpt>
      <trkpt lat="49.34786" lon="4.03082">
        <ele>157</ele>
        <time>2019-03-30T13:49:15Z</time>
      </trkpt>
      <trkpt lat="49.34786" lon="4.03082">
        <ele>157</ele>
        <time>2019-03-30T13:49:16Z</time>
      </trkpt>
      <trkpt lat="49.34786" lon="4.03082">
        <ele>157</ele>
        <time>2019-03-30T13:49:17Z</time>
      </trkpt>
      <trkpt lat="49.34786" lon="4.03082">
        <ele>157</ele>
        <time>2019-03-30T13:49:18Z</time>
      </trkpt>
      <trkpt lat="49.34786" lon="4.03082">
        <ele>157</ele>
        <time>2019-03-30T13:49:19Z</time>
      </trkpt>
      <trkpt lat="49.34786" lon="4.03082">
        <ele>157</ele>
        <time>2019-03-30T13:49:20Z</time>
      </trkpt>
      <trkpt lat="49.34786" lon="4.03082">
        <ele>157</ele>
        <time>2019-03-30T13:49:21Z</time>
      </trkpt>
      <trkpt lat="49.34786" lon="4.03082">
        <ele>157</ele>
        <time>2019-03-30T13:49:22Z</time>
      </trkpt>
      <trkpt lat="49.34786" lon="4.03082">
        <ele>157</ele>
        <time>2019-03-30T13:49:23Z</time>
      </trkpt>
      <trkpt lat="49.34786" lon="4.03082">
        <ele>157</ele>
        <time>2019-03-30T13:49:24Z</time>
      </trkpt>
      <trkpt lat="49.34786" lon="4.03082">
        <ele>157</ele>
        <time>2019-03-30T13:49:25Z</time>
      </trkpt>
      <trkpt lat="49.34786" lon="4.03082">
        <ele>157</ele>
        <time>2019-03-30T13:49:26Z</time>
      </trkpt>
      <trkpt lat="49.34786" lon="4.03082">
        <ele>157</ele>
        <time>2019-03-30T13:49:27Z</time>
      </trkpt>
      <trkpt lat="49.34786" lon="4.03082">
        <ele>157</ele>
        <time>2019-03-30T13:49:28Z</time>
      </trkpt>
      <trkpt lat="49.34786" lon="4.03082">
        <ele>157</ele>
        <time>2019-03-30T13:49:29Z</time>
      </trkpt>
      <trkpt lat="49.34786" lon="4.03082">
        <ele>157</ele>
        <time>2019-03-30T13:49:30Z</time>
      </trkpt>
      <trkpt lat="49.34786" lon="4.03082">
        <ele>157</ele>
        <time>2019-03-30T13:49:31Z</time>
      </trkpt>
      <trkpt lat="49.34786" lon="4.03082">
        <ele>157</ele>
        <time>2019-03-30T13:49:32Z</time>
      </trkpt>
      <trkpt lat="49.34786" lon="4.03082">
        <ele>157</ele>
        <time>2019-03-30T13:49:33Z</time>
      </trkpt>
      <trkpt lat="49.34786" lon="4.03082">
        <ele>157</ele>
        <time>2019-03-30T13:49:34Z</time>
      </trkpt>
      <trkpt lat="49.34786" lon="4.03082">
        <ele>157</ele>
        <time>2019-03-30T13:49:35Z</time>
      </trkpt>
      <trkpt lat="49.34786" lon="4.03082">
        <ele>157</ele>
        <time>2019-03-30T13:49:36Z</time>
      </trkpt>
      <trkpt lat="49.34786" lon="4.03082">
        <ele>157</ele>
        <time>2019-03-30T13:49:37Z</time>
      </trkpt>
      <trkpt lat="49.34786" lon="4.03082">
        <ele>157</ele>
        <time>2019-03-30T13:49:38Z</time>
      </trkpt>
      <trkpt lat="49.34786" lon="4.03082">
        <ele>157</ele>
        <time>2019-03-30T13:49:39Z</time>
      </trkpt>
      <trkpt lat="49.34786" lon="4.03082">
        <ele>157</ele>
        <time>2019-03-30T13:49:40Z</time>
      </trkpt>
      <trkpt lat="49.34786" lon="4.03082">
        <ele>157</ele>
        <time>2019-03-30T13:49:41Z</time>
      </trkpt>
      <trkpt lat="49.34786" lon="4.03082">
        <ele>157</ele>
        <time>2019-03-30T13:49:42Z</time>
      </trkpt>
      <trkpt lat="49.34786" lon="4.03082">
        <ele>157</ele>
        <time>2019-03-30T13:49:43Z</time>
      </trkpt>
      <trkpt lat="49.34786" lon="4.03082">
        <ele>157</ele>
        <time>2019-03-30T13:49:44Z</time>
      </trkpt>
      <trkpt lat="49.34786" lon="4.03082">
        <ele>157</ele>
        <time>2019-03-30T13:49:45Z</time>
      </trkpt>
      <trkpt lat="49.34786" lon="4.0308">
        <ele>157</ele>
        <time>2019-03-30T13:49:46Z</time>
      </trkpt>
      <trkpt lat="49.34786" lon="4.03077">
        <ele>157</ele>
        <time>2019-03-30T13:49:47Z</time>
      </trkpt>
      <trkpt lat="49.34785" lon="4.03075">
        <ele>157</ele>
        <time>2019-03-30T13:49:48Z</time>
      </trkpt>
      <trkpt lat="49.34786" lon="4.03073">
        <ele>157</ele>
        <time>2019-03-30T13:49:49Z</time>
      </trkpt>
      <trkpt lat="49.34787" lon="4.0307">
        <ele>157</ele>
        <time>2019-03-30T13:49:50Z</time>
      </trkpt>
      <trkpt lat="49.34787" lon="4.03067">
        <ele>157</ele>
        <time>2019-03-30T13:49:51Z</time>
      </trkpt>
      <trkpt lat="49.34788" lon="4.03062">
        <ele>156</ele>
        <time>2019-03-30T13:49:52Z</time>
      </trkpt>
      <trkpt lat="49.34789" lon="4.03057">
        <ele>156</ele>
        <time>2019-03-30T13:49:53Z</time>
      </trkpt>
      <trkpt lat="49.34789" lon="4.03053">
        <ele>156</ele>
        <time>2019-03-30T13:49:54Z</time>
      </trkpt>
      <trkpt lat="49.3479" lon="4.03048">
        <ele>156</ele>
        <time>2019-03-30T13:49:55Z</time>
      </trkpt>
      <trkpt lat="49.3479" lon="4.03044">
        <ele>156</ele>
        <time>2019-03-30T13:49:56Z</time>
      </trkpt>
      <trkpt lat="49.34791" lon="4.03039">
        <ele>156</ele>
        <time>2019-03-30T13:49:57Z</time>
      </trkpt>
      <trkpt lat="49.34792" lon="4.03034">
        <ele>155</ele>
        <time>2019-03-30T13:49:58Z</time>
      </trkpt>
      <trkpt lat="49.34792" lon="4.03028">
        <ele>156</ele>
        <time>2019-03-30T13:49:59Z</time>
      </trkpt>
      <trkpt lat="49.34793" lon="4.03023">
        <ele>156</ele>
        <time>2019-03-30T13:50:00Z</time>
      </trkpt>
      <trkpt lat="49.34794" lon="4.03017">
        <ele>156</ele>
        <time>2019-03-30T13:50:01Z</time>
      </trkpt>
      <trkpt lat="49.34795" lon="4.03011">
        <ele>156</ele>
        <time>2019-03-30T13:50:02Z</time>
      </trkpt>
      <trkpt lat="49.34796" lon="4.03005">
        <ele>157</ele>
        <time>2019-03-30T13:50:03Z</time>
      </trkpt>
      <trkpt lat="49.34797" lon="4.02997">
        <ele>156</ele>
        <time>2019-03-30T13:50:04Z</time>
      </trkpt>
      <trkpt lat="49.34798" lon="4.0299">
        <ele>156</ele>
        <time>2019-03-30T13:50:05Z</time>
      </trkpt>
      <trkpt lat="49.348" lon="4.02982">
        <ele>156</ele>
        <time>2019-03-30T13:50:06Z</time>
      </trkpt>
      <trkpt lat="49.34801" lon="4.02973">
        <ele>156</ele>
        <time>2019-03-30T13:50:07Z</time>
      </trkpt>
      <trkpt lat="49.34802" lon="4.02964">
        <ele>156</ele>
        <time>2019-03-30T13:50:08Z</time>
      </trkpt>
      <trkpt lat="49.34804" lon="4.02955">
        <ele>156</ele>
        <time>2019-03-30T13:50:09Z</time>
      </trkpt>
      <trkpt lat="49.34806" lon="4.02946">
        <ele>156</ele>
        <time>2019-03-30T13:50:10Z</time>
      </trkpt>
      <trkpt lat="49.34807" lon="4.02936">
        <ele>156</ele>
        <time>2019-03-30T13:50:11Z</time>
      </trkpt>
      <trkpt lat="49.34808" lon="4.02927">
        <ele>156</ele>
        <time>2019-03-30T13:50:12Z</time>
      </trkpt>
      <trkpt lat="49.3481" lon="4.02917">
        <ele>156</ele>
        <time>2019-03-30T13:50:13Z</time>
      </trkpt>
      <trkpt lat="49.34812" lon="4.02906">
        <ele>155</ele>
        <time>2019-03-30T13:50:14Z</time>
      </trkpt>
      <trkpt lat="49.34814" lon="4.02896">
        <ele>155</ele>
        <time>2019-03-30T13:50:15Z</time>
      </trkpt>
      <trkpt lat="49.34816" lon="4.02885">
        <ele>155</ele>
        <time>2019-03-30T13:50:16Z</time>
      </trkpt>
      <trkpt lat="49.34817" lon="4.02875">
        <ele>155</ele>
        <time>2019-03-30T13:50:17Z</time>
      </trkpt>
      <trkpt lat="49.34819" lon="4.02864">
        <ele>155</ele>
        <time>2019-03-30T13:50:18Z</time>
      </trkpt>
      <trkpt lat="49.34821" lon="4.02853">
        <ele>154</ele>
        <time>2019-03-30T13:50:19Z</time>
      </trkpt>
      <trkpt lat="49.34823" lon="4.02842">
        <ele>154</ele>
        <time>2019-03-30T13:50:20Z</time>
      </trkpt>
      <trkpt lat="49.34825" lon="4.02831">
        <ele>153</ele>
        <time>2019-03-30T13:50:21Z</time>
      </trkpt>
      <trkpt lat="49.34827" lon="4.0282">
        <ele>153</ele>
        <time>2019-03-30T13:50:22Z</time>
      </trkpt>
      <trkpt lat="49.34829" lon="4.02808">
        <ele>152</ele>
        <time>2019-03-30T13:50:23Z</time>
      </trkpt>
      <trkpt lat="49.3483" lon="4.02797">
        <ele>152</ele>
        <time>2019-03-30T13:50:24Z</time>
      </trkpt>
      <trkpt lat="49.34832" lon="4.02785">
        <ele>152</ele>
        <time>2019-03-30T13:50:25Z</time>
      </trkpt>
      <trkpt lat="49.34834" lon="4.02772">
        <ele>152</ele>
        <time>2019-03-30T13:50:26Z</time>
      </trkpt>
      <trkpt lat="49.34835" lon="4.0276">
        <ele>152</ele>
        <time>2019-03-30T13:50:27Z</time>
      </trkpt>
      <trkpt lat="49.34837" lon="4.02748">
        <ele>152</ele>
        <time>2019-03-30T13:50:28Z</time>
      </trkpt>
      <trkpt lat="49.34839" lon="4.02736">
        <ele>152</ele>
        <time>2019-03-30T13:50:29Z</time>
      </trkpt>
      <trkpt lat="49.34841" lon="4.02724">
        <ele>151</ele>
        <time>2019-03-30T13:50:30Z</time>
      </trkpt>
      <trkpt lat="49.34843" lon="4.02711">
        <ele>151</ele>
        <time>2019-03-30T13:50:31Z</time>
      </trkpt>
      <trkpt lat="49.34845" lon="4.02698">
        <ele>152</ele>
        <time>2019-03-30T13:50:32Z</time>
      </trkpt>
      <trkpt lat="49.34847" lon="4.02685">
        <ele>151</ele>
        <time>2019-03-30T13:50:33Z</time>
      </trkpt>
      <trkpt lat="49.34849" lon="4.02671">
        <ele>151</ele>
        <time>2019-03-30T13:50:34Z</time>
      </trkpt>
      <trkpt lat="49.34852" lon="4.02657">
        <ele>151</ele>
        <time>2019-03-30T13:50:35Z</time>
      </trkpt>
      <trkpt lat="49.34855" lon="4.02643">
        <ele>150</ele>
        <time>2019-03-30T13:50:36Z</time>
      </trkpt>
      <trkpt lat="49.34858" lon="4.02629">
        <ele>150</ele>
        <time>2019-03-30T13:50:37Z</time>
      </trkpt>
      <trkpt lat="49.3486" lon="4.02615">
        <ele>149</ele>
        <time>2019-03-30T13:50:38Z</time>
      </trkpt>
      <trkpt lat="49.34862" lon="4.02601">
        <ele>148</ele>
        <time>2019-03-30T13:50:39Z</time>
      </trkpt>
      <trkpt lat="49.34865" lon="4.02587">
        <ele>148</ele>
        <time>2019-03-30T13:50:40Z</time>
      </trkpt>
      <trkpt lat="49.34868" lon="4.02572">
        <ele>148</ele>
        <time>2019-03-30T13:50:41Z</time>
      </trkpt>
      <trkpt lat="49.3487" lon="4.02557">
        <ele>148</ele>
        <time>2019-03-30T13:50:42Z</time>
      </trkpt>
      <trkpt lat="49.34872" lon="4.02542">
        <ele>147</ele>
        <time>2019-03-30T13:50:43Z</time>
      </trkpt>
      <trkpt lat="49.34875" lon="4.02528">
        <ele>147</ele>
        <time>2019-03-30T13:50:44Z</time>
      </trkpt>
      <trkpt lat="49.34878" lon="4.02514">
        <ele>147</ele>
        <time>2019-03-30T13:50:45Z</time>
      </trkpt>
      <trkpt lat="49.3488" lon="4.02499">
        <ele>147</ele>
        <time>2019-03-30T13:50:46Z</time>
      </trkpt>
      <trkpt lat="49.34882" lon="4.02484">
        <ele>146</ele>
        <time>2019-03-30T13:50:47Z</time>
      </trkpt>
      <trkpt lat="49.34884" lon="4.02469">
        <ele>146</ele>
        <time>2019-03-30T13:50:48Z</time>
      </trkpt>
      <trkpt lat="49.34887" lon="4.02454">
        <ele>146</ele>
        <time>2019-03-30T13:50:49Z</time>
      </trkpt>
      <trkpt lat="49.34889" lon="4.02439">
        <ele>145</ele>
        <time>2019-03-30T13:50:50Z</time>
      </trkpt>
      <trkpt lat="49.34892" lon="4.02424">
        <ele>145</ele>
        <time>2019-03-30T13:50:51Z</time>
      </trkpt>
      <trkpt lat="49.34894" lon="4.0241">
        <ele>145</ele>
        <time>2019-03-30T13:50:52Z</time>
      </trkpt>
      <trkpt lat="49.34896" lon="4.02396">
        <ele>145</ele>
        <time>2019-03-30T13:50:53Z</time>
      </trkpt>
      <trkpt lat="49.34899" lon="4.02382">
        <ele>144</ele>
        <time>2019-03-30T13:50:54Z</time>
      </trkpt>
      <trkpt lat="49.34901" lon="4.02368">
        <ele>144</ele>
        <time>2019-03-30T13:50:55Z</time>
      </trkpt>
      <trkpt lat="49.34904" lon="4.02353">
        <ele>144</ele>
        <time>2019-03-30T13:50:56Z</time>
      </trkpt>
      <trkpt lat="49.34906" lon="4.02339">
        <ele>143</ele>
        <time>2019-03-30T13:50:57Z</time>
      </trkpt>
      <trkpt lat="49.34909" lon="4.02325">
        <ele>143</ele>
        <time>2019-03-30T13:50:58Z</time>
      </trkpt>
      <trkpt lat="49.34911" lon="4.0231">
        <ele>143</ele>
        <time>2019-03-30T13:50:59Z</time>
      </trkpt>
      <trkpt lat="49.34913" lon="4.02295">
        <ele>142</ele>
        <time>2019-03-30T13:51:00Z</time>
      </trkpt>
      <trkpt lat="49.34916" lon="4.02281">
        <ele>142</ele>
        <time>2019-03-30T13:51:01Z</time>
      </trkpt>
      <trkpt lat="49.34918" lon="4.02267">
        <ele>142</ele>
        <time>2019-03-30T13:51:02Z</time>
      </trkpt>
      <trkpt lat="49.3492" lon="4.02253">
        <ele>141</ele>
        <time>2019-03-30T13:51:03Z</time>
      </trkpt>
      <trkpt lat="49.34923" lon="4.0224">
        <ele>141</ele>
        <time>2019-03-30T13:51:04Z</time>
      </trkpt>
      <trkpt lat="49.34925" lon="4.02226">
        <ele>141</ele>
        <time>2019-03-30T13:51:05Z</time>
      </trkpt>
      <trkpt lat="49.34927" lon="4.02212">
        <ele>141</ele>
        <time>2019-03-30T13:51:06Z</time>
      </trkpt>
      <trkpt lat="49.34929" lon="4.02198">
        <ele>141</ele>
        <time>2019-03-30T13:51:07Z</time>
      </trkpt>
      <trkpt lat="49.34931" lon="4.02184">
        <ele>141</ele>
        <time>2019-03-30T13:51:08Z</time>
      </trkpt>
      <trkpt lat="49.34934" lon="4.0217">
        <ele>141</ele>
        <time>2019-03-30T13:51:09Z</time>
      </trkpt>
      <trkpt lat="49.34936" lon="4.02156">
        <ele>141</ele>
        <time>2019-03-30T13:51:10Z</time>
      </trkpt>
      <trkpt lat="49.34938" lon="4.02142">
        <ele>140</ele>
        <time>2019-03-30T13:51:11Z</time>
      </trkpt>
      <trkpt lat="49.3494" lon="4.02128">
        <ele>140</ele>
        <time>2019-03-30T13:51:12Z</time>
      </trkpt>
      <trkpt lat="49.34942" lon="4.02115">
        <ele>140</ele>
        <time>2019-03-30T13:51:13Z</time>
      </trkpt>
      <trkpt lat="49.34944" lon="4.02101">
        <ele>141</ele>
        <time>2019-03-30T13:51:14Z</time>
      </trkpt>
      <trkpt lat="49.34946" lon="4.02088">
        <ele>141</ele>
        <time>2019-03-30T13:51:15Z</time>
      </trkpt>
      <trkpt lat="49.34948" lon="4.02074">
        <ele>140</ele>
        <time>2019-03-30T13:51:16Z</time>
      </trkpt>
      <trkpt lat="49.3495" lon="4.02061">
        <ele>140</ele>
        <time>2019-03-30T13:51:17Z</time>
      </trkpt>
      <trkpt lat="49.34952" lon="4.02047">
        <ele>140</ele>
        <time>2019-03-30T13:51:18Z</time>
      </trkpt>
      <trkpt lat="49.34954" lon="4.02034">
        <ele>140</ele>
        <time>2019-03-30T13:51:19Z</time>
      </trkpt>
      <trkpt lat="49.34956" lon="4.02021">
        <ele>140</ele>
        <time>2019-03-30T13:51:20Z</time>
      </trkpt>
      <trkpt lat="49.34959" lon="4.02008">
        <ele>140</ele>
        <time>2019-03-30T13:51:21Z</time>
      </trkpt>
      <trkpt lat="49.34961" lon="4.01994">
        <ele>140</ele>
        <time>2019-03-30T13:51:22Z</time>
      </trkpt>
      <trkpt lat="49.34963" lon="4.01981">
        <ele>140</ele>
        <time>2019-03-30T13:51:23Z</time>
      </trkpt>
      <trkpt lat="49.34965" lon="4.01967">
        <ele>140</ele>
        <time>2019-03-30T13:51:24Z</time>
      </trkpt>
      <trkpt lat="49.34967" lon="4.01954">
        <ele>139</ele>
        <time>2019-03-30T13:51:25Z</time>
      </trkpt>
      <trkpt lat="49.3497" lon="4.0194">
        <ele>139</ele>
        <time>2019-03-30T13:51:26Z</time>
      </trkpt>
      <trkpt lat="49.34972" lon="4.01927">
        <ele>139</ele>
        <time>2019-03-30T13:51:27Z</time>
      </trkpt>
      <trkpt lat="49.34974" lon="4.01915">
        <ele>139</ele>
        <time>2019-03-30T13:51:28Z</time>
      </trkpt>
      <trkpt lat="49.34976" lon="4.01902">
        <ele>139</ele>
        <time>2019-03-30T13:51:29Z</time>
      </trkpt>
      <trkpt lat="49.34979" lon="4.01889">
        <ele>139</ele>
        <time>2019-03-30T13:51:30Z</time>
      </trkpt>
      <trkpt lat="49.34981" lon="4.01876">
        <ele>138</ele>
        <time>2019-03-30T13:51:31Z</time>
      </trkpt>
      <trkpt lat="49.34982" lon="4.01863">
        <ele>138</ele>
        <time>2019-03-30T13:51:32Z</time>
      </trkpt>
      <trkpt lat="49.34985" lon="4.01849">
        <ele>138</ele>
        <time>2019-03-30T13:51:33Z</time>
      </trkpt>
      <trkpt lat="49.34987" lon="4.01837">
        <ele>138</ele>
        <time>2019-03-30T13:51:34Z</time>
      </trkpt>
      <trkpt lat="49.34989" lon="4.01823">
        <ele>138</ele>
        <time>2019-03-30T13:51:35Z</time>
      </trkpt>
      <trkpt lat="49.34991" lon="4.0181">
        <ele>138</ele>
        <time>2019-03-30T13:51:36Z</time>
      </trkpt>
      <trkpt lat="49.34993" lon="4.01798">
        <ele>138</ele>
        <time>2019-03-30T13:51:37Z</time>
      </trkpt>
      <trkpt lat="49.34996" lon="4.01784">
        <ele>138</ele>
        <time>2019-03-30T13:51:38Z</time>
      </trkpt>
      <trkpt lat="49.34998" lon="4.01772">
        <ele>138</ele>
        <time>2019-03-30T13:51:39Z</time>
      </trkpt>
      <trkpt lat="49.34999" lon="4.01759">
        <ele>137</ele>
        <time>2019-03-30T13:51:40Z</time>
      </trkpt>
      <trkpt lat="49.35002" lon="4.01746">
        <ele>137</ele>
        <time>2019-03-30T13:51:41Z</time>
      </trkpt>
      <trkpt lat="49.35004" lon="4.01734">
        <ele>137</ele>
        <time>2019-03-30T13:51:42Z</time>
      </trkpt>
      <trkpt lat="49.35006" lon="4.01721">
        <ele>137</ele>
        <time>2019-03-30T13:51:43Z</time>
      </trkpt>
      <trkpt lat="49.35008" lon="4.01708">
        <ele>137</ele>
        <time>2019-03-30T13:51:44Z</time>
      </trkpt>
      <trkpt lat="49.3501" lon="4.01696">
        <ele>137</ele>
        <time>2019-03-30T13:51:45Z</time>
      </trkpt>
      <trkpt lat="49.35012" lon="4.01683">
        <ele>137</ele>
        <time>2019-03-30T13:51:46Z</time>
      </trkpt>
      <trkpt lat="49.35014" lon="4.01671">
        <ele>137</ele>
        <time>2019-03-30T13:51:47Z</time>
      </trkpt>
      <trkpt lat="49.35016" lon="4.01658">
        <ele>137</ele>
        <time>2019-03-30T13:51:48Z</time>
      </trkpt>
      <trkpt lat="49.35018" lon="4.01645">
        <ele>137</ele>
        <time>2019-03-30T13:51:49Z</time>
      </trkpt>
      <trkpt lat="49.35019" lon="4.01633">
        <ele>137</ele>
        <time>2019-03-30T13:51:50Z</time>
      </trkpt>
      <trkpt lat="49.35022" lon="4.0162">
        <ele>137</ele>
        <time>2019-03-30T13:51:51Z</time>
      </trkpt>
      <trkpt lat="49.35024" lon="4.01608">
        <ele>137</ele>
        <time>2019-03-30T13:51:52Z</time>
      </trkpt>
      <trkpt lat="49.35026" lon="4.01595">
        <ele>136</ele>
        <time>2019-03-30T13:51:53Z</time>
      </trkpt>
      <trkpt lat="49.35028" lon="4.01582">
        <ele>136</ele>
        <time>2019-03-30T13:51:54Z</time>
      </trkpt>
      <trkpt lat="49.3503" lon="4.01569">
        <ele>136</ele>
        <time>2019-03-30T13:51:55Z</time>
      </trkpt>
      <trkpt lat="49.35032" lon="4.01557">
        <ele>136</ele>
        <time>2019-03-30T13:51:56Z</time>
      </trkpt>
      <trkpt lat="49.35034" lon="4.01544">
        <ele>136</ele>
        <time>2019-03-30T13:51:57Z</time>
      </trkpt>
      <trkpt lat="49.35036" lon="4.01532">
        <ele>135</ele>
        <time>2019-03-30T13:51:58Z</time>
      </trkpt>
      <trkpt lat="49.35038" lon="4.01519">
        <ele>135</ele>
        <time>2019-03-30T13:51:59Z</time>
      </trkpt>
      <trkpt lat="49.3504" lon="4.01507">
        <ele>135</ele>
        <time>2019-03-30T13:52:00Z</time>
      </trkpt>
      <trkpt lat="49.35042" lon="4.01494">
        <ele>135</ele>
        <time>2019-03-30T13:52:01Z</time>
      </trkpt>
      <trkpt lat="49.35044" lon="4.01482">
        <ele>135</ele>
        <time>2019-03-30T13:52:02Z</time>
      </trkpt>
      <trkpt lat="49.35047" lon="4.0147">
        <ele>135</ele>
        <time>2019-03-30T13:52:03Z</time>
      </trkpt>
      <trkpt lat="49.35049" lon="4.01458">
        <ele>135</ele>
        <time>2019-03-30T13:52:04Z</time>
      </trkpt>
      <trkpt lat="49.35051" lon="4.01446">
        <ele>135</ele>
        <time>2019-03-30T13:52:05Z</time>
      </trkpt>
      <trkpt lat="49.35053" lon="4.01434">
        <ele>135</ele>
        <time>2019-03-30T13:52:06Z</time>
      </trkpt>
      <trkpt lat="49.35054" lon="4.01422">
        <ele>134</ele>
        <time>2019-03-30T13:52:07Z</time>
      </trkpt>
      <trkpt lat="49.35056" lon="4.0141">
        <ele>134</ele>
        <time>2019-03-30T13:52:08Z</time>
      </trkpt>
      <trkpt lat="49.35058" lon="4.01398">
        <ele>135</ele>
        <time>2019-03-30T13:52:09Z</time>
      </trkpt>
      <trkpt lat="49.3506" lon="4.01386">
        <ele>135</ele>
        <time>2019-03-30T13:52:10Z</time>
      </trkpt>
      <trkpt lat="49.35062" lon="4.01374">
        <ele>135</ele>
        <time>2019-03-30T13:52:11Z</time>
      </trkpt>
      <trkpt lat="49.35064" lon="4.01363">
        <ele>135</ele>
        <time>2019-03-30T13:52:12Z</time>
      </trkpt>
      <trkpt lat="49.35065" lon="4.01351">
        <ele>135</ele>
        <time>2019-03-30T13:52:13Z</time>
      </trkpt>
      <trkpt lat="49.35067" lon="4.0134">
        <ele>135</ele>
        <time>2019-03-30T13:52:14Z</time>
      </trkpt>
      <trkpt lat="49.35068" lon="4.01328">
        <ele>135</ele>
        <time>2019-03-30T13:52:15Z</time>
      </trkpt>
      <trkpt lat="49.3507" lon="4.01318">
        <ele>135</ele>
        <time>2019-03-30T13:52:16Z</time>
      </trkpt>
      <trkpt lat="49.35072" lon="4.01307">
        <ele>135</ele>
        <time>2019-03-30T13:52:17Z</time>
      </trkpt>
      <trkpt lat="49.35073" lon="4.01296">
        <ele>135</ele>
        <time>2019-03-30T13:52:18Z</time>
      </trkpt>
      <trkpt lat="49.35075" lon="4.01286">
        <ele>135</ele>
        <time>2019-03-30T13:52:19Z</time>
      </trkpt>
      <trkpt lat="49.35077" lon="4.01275">
        <ele>135</ele>
        <time>2019-03-30T13:52:20Z</time>
      </trkpt>
      <trkpt lat="49.35078" lon="4.01265">
        <ele>135</ele>
        <time>2019-03-30T13:52:21Z</time>
      </trkpt>
      <trkpt lat="49.3508" lon="4.01255">
        <ele>135</ele>
        <time>2019-03-30T13:52:22Z</time>
      </trkpt>
      <trkpt lat="49.35082" lon="4.01245">
        <ele>135</ele>
        <time>2019-03-30T13:52:23Z</time>
      </trkpt>
      <trkpt lat="49.35083" lon="4.01235">
        <ele>135</ele>
        <time>2019-03-30T13:52:24Z</time>
      </trkpt>
      <trkpt lat="49.35085" lon="4.01225">
        <ele>136</ele>
        <time>2019-03-30T13:52:25Z</time>
      </trkpt>
      <trkpt lat="49.35087" lon="4.01215">
        <ele>136</ele>
        <time>2019-03-30T13:52:26Z</time>
      </trkpt>
      <trkpt lat="49.35088" lon="4.01205">
        <ele>136</ele>
        <time>2019-03-30T13:52:27Z</time>
      </trkpt>
      <trkpt lat="49.3509" lon="4.01196">
        <ele>136</ele>
        <time>2019-03-30T13:52:28Z</time>
      </trkpt>
      <trkpt lat="49.35091" lon="4.01186">
        <ele>136</ele>
        <time>2019-03-30T13:52:29Z</time>
      </trkpt>
      <trkpt lat="49.35093" lon="4.01177">
        <ele>136</ele>
        <time>2019-03-30T13:52:30Z</time>
      </trkpt>
      <trkpt lat="49.35095" lon="4.01167">
        <ele>136</ele>
        <time>2019-03-30T13:52:31Z</time>
      </trkpt>
      <trkpt lat="49.35096" lon="4.01158">
        <ele>136</ele>
        <time>2019-03-30T13:52:32Z</time>
      </trkpt>
      <trkpt lat="49.35098" lon="4.01149">
        <ele>136</ele>
        <time>2019-03-30T13:52:33Z</time>
      </trkpt>
      <trkpt lat="49.35099" lon="4.01141">
        <ele>136</ele>
        <time>2019-03-30T13:52:34Z</time>
      </trkpt>
      <trkpt lat="49.351" lon="4.01132">
        <ele>136</ele>
        <time>2019-03-30T13:52:35Z</time>
      </trkpt>
      <trkpt lat="49.35101" lon="4.01123">
        <ele>137</ele>
        <time>2019-03-30T13:52:36Z</time>
      </trkpt>
      <trkpt lat="49.35102" lon="4.01115">
        <ele>136</ele>
        <time>2019-03-30T13:52:37Z</time>
      </trkpt>
      <trkpt lat="49.35104" lon="4.01106">
        <ele>136</ele>
        <time>2019-03-30T13:52:38Z</time>
      </trkpt>
      <trkpt lat="49.35106" lon="4.01098">
        <ele>136</ele>
        <time>2019-03-30T13:52:39Z</time>
      </trkpt>
      <trkpt lat="49.35107" lon="4.01089">
        <ele>136</ele>
        <time>2019-03-30T13:52:40Z</time>
      </trkpt>
      <trkpt lat="49.35108" lon="4.01081">
        <ele>136</ele>
        <time>2019-03-30T13:52:41Z</time>
      </trkpt>
      <trkpt lat="49.35109" lon="4.01072">
        <ele>136</ele>
        <time>2019-03-30T13:52:42Z</time>
      </trkpt>
      <trkpt lat="49.35111" lon="4.01064">
        <ele>136</ele>
        <time>2019-03-30T13:52:43Z</time>
      </trkpt>
      <trkpt lat="49.35112" lon="4.01056">
        <ele>136</ele>
        <time>2019-03-30T13:52:44Z</time>
      </trkpt>
      <trkpt lat="49.35113" lon="4.01048">
        <ele>136</ele>
        <time>2019-03-30T13:52:45Z</time>
      </trkpt>
      <trkpt lat="49.35114" lon="4.0104">
        <ele>136</ele>
        <time>2019-03-30T13:52:46Z</time>
      </trkpt>
      <trkpt lat="49.35116" lon="4.01032">
        <ele>136</ele>
        <time>2019-03-30T13:52:47Z</time>
      </trkpt>
      <trkpt lat="49.35117" lon="4.01024">
        <ele>136</ele>
        <time>2019-03-30T13:52:48Z</time>
      </trkpt>
      <trkpt lat="49.35119" lon="4.01016">
        <ele>136</ele>
        <time>2019-03-30T13:52:49Z</time>
      </trkpt>
      <trkpt lat="49.3512" lon="4.01008">
        <ele>136</ele>
        <time>2019-03-30T13:52:50Z</time>
      </trkpt>
      <trkpt lat="49.35122" lon="4.01">
        <ele>136</ele>
        <time>2019-03-30T13:52:51Z</time>
      </trkpt>
      <trkpt lat="49.35123" lon="4.00993">
        <ele>136</ele>
        <time>2019-03-30T13:52:52Z</time>
      </trkpt>
      <trkpt lat="49.35124" lon="4.00984">
        <ele>136</ele>
        <time>2019-03-30T13:52:53Z</time>
      </trkpt>
      <trkpt lat="49.35126" lon="4.00977">
        <ele>137</ele>
        <time>2019-03-30T13:52:54Z</time>
      </trkpt>
      <trkpt lat="49.35127" lon="4.00969">
        <ele>137</ele>
        <time>2019-03-30T13:52:55Z</time>
      </trkpt>
      <trkpt lat="49.35128" lon="4.00961">
        <ele>137</ele>
        <time>2019-03-30T13:52:56Z</time>
      </trkpt>
      <trkpt lat="49.3513" lon="4.00952">
        <ele>137</ele>
        <time>2019-03-30T13:52:57Z</time>
      </trkpt>
      <trkpt lat="49.35131" lon="4.00944">
        <ele>137</ele>
        <time>2019-03-30T13:52:58Z</time>
      </trkpt>
      <trkpt lat="49.35132" lon="4.00936">
        <ele>137</ele>
        <time>2019-03-30T13:52:59Z</time>
      </trkpt>
      <trkpt lat="49.35134" lon="4.00928">
        <ele>137</ele>
        <time>2019-03-30T13:53:00Z</time>
      </trkpt>
      <trkpt lat="49.35135" lon="4.0092">
        <ele>137</ele>
        <time>2019-03-30T13:53:01Z</time>
      </trkpt>
      <trkpt lat="49.35137" lon="4.00912">
        <ele>137</ele>
        <time>2019-03-30T13:53:02Z</time>
      </trkpt>
      <trkpt lat="49.35138" lon="4.00903">
        <ele>137</ele>
        <time>2019-03-30T13:53:03Z</time>
      </trkpt>
      <trkpt lat="49.35139" lon="4.00896">
        <ele>137</ele>
        <time>2019-03-30T13:53:04Z</time>
      </trkpt>
      <trkpt lat="49.35141" lon="4.00888">
        <ele>137</ele>
        <time>2019-03-30T13:53:05Z</time>
      </trkpt>
      <trkpt lat="49.35142" lon="4.0088">
        <ele>137</ele>
        <time>2019-03-30T13:53:06Z</time>
      </trkpt>
      <trkpt lat="49.35143" lon="4.00872">
        <ele>137</ele>
        <time>2019-03-30T13:53:07Z</time>
      </trkpt>
      <trkpt lat="49.35144" lon="4.00864">
        <ele>137</ele>
        <time>2019-03-30T13:53:08Z</time>
      </trkpt>
      <trkpt lat="49.35145" lon="4.00856">
        <ele>137</ele>
        <time>2019-03-30T13:53:09Z</time>
      </trkpt>
      <trkpt lat="49.35146" lon="4.00849">
        <ele>137</ele>
        <time>2019-03-30T13:53:10Z</time>
      </trkpt>
      <trkpt lat="49.35148" lon="4.00841">
        <ele>137</ele>
        <time>2019-03-30T13:53:11Z</time>
      </trkpt>
      <trkpt lat="49.35149" lon="4.00833">
        <ele>137</ele>
        <time>2019-03-30T13:53:12Z</time>
      </trkpt>
      <trkpt lat="49.3515" lon="4.00826">
        <ele>137</ele>
        <time>2019-03-30T13:53:13Z</time>
      </trkpt>
      <trkpt lat="49.35152" lon="4.00818">
        <ele>137</ele>
        <time>2019-03-30T13:53:14Z</time>
      </trkpt>
      <trkpt lat="49.35153" lon="4.0081">
        <ele>137</ele>
        <time>2019-03-30T13:53:15Z</time>
      </trkpt>
      <trkpt lat="49.35154" lon="4.00803">
        <ele>137</ele>
        <time>2019-03-30T13:53:16Z</time>
      </trkpt>
      <trkpt lat="49.35155" lon="4.00795">
        <ele>137</ele>
        <time>2019-03-30T13:53:17Z</time>
      </trkpt>
      <trkpt lat="49.35156" lon="4.00788">
        <ele>137</ele>
        <time>2019-03-30T13:53:18Z</time>
      </trkpt>
      <trkpt lat="49.35158" lon="4.00781">
        <ele>137</ele>
        <time>2019-03-30T13:53:19Z</time>
      </trkpt>
      <trkpt lat="49.35159" lon="4.00774">
        <ele>137</ele>
        <time>2019-03-30T13:53:20Z</time>
      </trkpt>
      <trkpt lat="49.3516" lon="4.00767">
        <ele>137</ele>
        <time>2019-03-30T13:53:21Z</time>
      </trkpt>
      <trkpt lat="49.35161" lon="4.0076">
        <ele>137</ele>
        <time>2019-03-30T13:53:22Z</time>
      </trkpt>
      <trkpt lat="49.35162" lon="4.00753">
        <ele>137</ele>
        <time>2019-03-30T13:53:23Z</time>
      </trkpt>
      <trkpt lat="49.35163" lon="4.00745">
        <ele>137</ele>
        <time>2019-03-30T13:53:24Z</time>
      </trkpt>
      <trkpt lat="49.35164" lon="4.00738">
        <ele>137</ele>
        <time>2019-03-30T13:53:25Z</time>
      </trkpt>
      <trkpt lat="49.35165" lon="4.0073">
        <ele>137</ele>
        <time>2019-03-30T13:53:26Z</time>
      </trkpt>
      <trkpt lat="49.35167" lon="4.00723">
        <ele>137</ele>
        <time>2019-03-30T13:53:27Z</time>
      </trkpt>
      <trkpt lat="49.35168" lon="4.00715">
        <ele>137</ele>
        <time>2019-03-30T13:53:28Z</time>
      </trkpt>
      <trkpt lat="49.35169" lon="4.00707">
        <ele>137</ele>
        <time>2019-03-30T13:53:29Z</time>
      </trkpt>
      <trkpt lat="49.35171" lon="4.00699">
        <ele>137</ele>
        <time>2019-03-30T13:53:30Z</time>
      </trkpt>
      <trkpt lat="49.35172" lon="4.00691">
        <ele>137</ele>
        <time>2019-03-30T13:53:31Z</time>
      </trkpt>
      <trkpt lat="49.35173" lon="4.00683">
        <ele>137</ele>
        <time>2019-03-30T13:53:32Z</time>
      </trkpt>
      <trkpt lat="49.35174" lon="4.00674">
        <ele>137</ele>
        <time>2019-03-30T13:53:33Z</time>
      </trkpt>
      <trkpt lat="49.35175" lon="4.00666">
        <ele>137</ele>
        <time>2019-03-30T13:53:34Z</time>
      </trkpt>
      <trkpt lat="49.35176" lon="4.00657">
        <ele>137</ele>
        <time>2019-03-30T13:53:35Z</time>
      </trkpt>
      <trkpt lat="49.35177" lon="4.00649">
        <ele>137</ele>
        <time>2019-03-30T13:53:36Z</time>
      </trkpt>
      <trkpt lat="49.35178" lon="4.0064">
        <ele>137</ele>
        <time>2019-03-30T13:53:37Z</time>
      </trkpt>
      <trkpt lat="49.35178" lon="4.00631">
        <ele>137</ele>
        <time>2019-03-30T13:53:38Z</time>
      </trkpt>
      <trkpt lat="49.35178" lon="4.00622">
        <ele>137</ele>
        <time>2019-03-30T13:53:39Z</time>
      </trkpt>
      <trkpt lat="49.35178" lon="4.00613">
        <ele>137</ele>
        <time>2019-03-30T13:53:40Z</time>
      </trkpt>
      <trkpt lat="49.35179" lon="4.00604">
        <ele>137</ele>
        <time>2019-03-30T13:53:41Z</time>
      </trkpt>
      <trkpt lat="49.35179" lon="4.00596">
        <ele>137</ele>
        <time>2019-03-30T13:53:42Z</time>
      </trkpt>
      <trkpt lat="49.35178" lon="4.00586">
        <ele>137</ele>
        <time>2019-03-30T13:53:43Z</time>
      </trkpt>
      <trkpt lat="49.35178" lon="4.00577">
        <ele>137</ele>
        <time>2019-03-30T13:53:44Z</time>
      </trkpt>
      <trkpt lat="49.35177" lon="4.00568">
        <ele>137</ele>
        <time>2019-03-30T13:53:45Z</time>
      </trkpt>
      <trkpt lat="49.35177" lon="4.00559">
        <ele>137</ele>
        <time>2019-03-30T13:53:46Z</time>
      </trkpt>
      <trkpt lat="49.35176" lon="4.0055">
        <ele>137</ele>
        <time>2019-03-30T13:53:47Z</time>
      </trkpt>
      <trkpt lat="49.35175" lon="4.00541">
        <ele>137</ele>
        <time>2019-03-30T13:53:48Z</time>
      </trkpt>
      <trkpt lat="49.35174" lon="4.00531">
        <ele>137</ele>
        <time>2019-03-30T13:53:49Z</time>
      </trkpt>
      <trkpt lat="49.35173" lon="4.00522">
        <ele>137</ele>
        <time>2019-03-30T13:53:50Z</time>
      </trkpt>
      <trkpt lat="49.35171" lon="4.00514">
        <ele>136</ele>
        <time>2019-03-30T13:53:51Z</time>
      </trkpt>
      <trkpt lat="49.3517" lon="4.00505">
        <ele>136</ele>
        <time>2019-03-30T13:53:52Z</time>
      </trkpt>
      <trkpt lat="49.35169" lon="4.00496">
        <ele>136</ele>
        <time>2019-03-30T13:53:53Z</time>
      </trkpt>
      <trkpt lat="49.35168" lon="4.00487">
        <ele>136</ele>
        <time>2019-03-30T13:53:54Z</time>
      </trkpt>
      <trkpt lat="49.35166" lon="4.00478">
        <ele>136</ele>
        <time>2019-03-30T13:53:55Z</time>
      </trkpt>
      <trkpt lat="49.35165" lon="4.00469">
        <ele>136</ele>
        <time>2019-03-30T13:53:56Z</time>
      </trkpt>
      <trkpt lat="49.35164" lon="4.0046">
        <ele>136</ele>
        <time>2019-03-30T13:53:57Z</time>
      </trkpt>
      <trkpt lat="49.35162" lon="4.00451">
        <ele>136</ele>
        <time>2019-03-30T13:53:58Z</time>
      </trkpt>
      <trkpt lat="49.35161" lon="4.00442">
        <ele>136</ele>
        <time>2019-03-30T13:53:59Z</time>
      </trkpt>
      <trkpt lat="49.3516" lon="4.00433">
        <ele>136</ele>
        <time>2019-03-30T13:54:00Z</time>
      </trkpt>
      <trkpt lat="49.35158" lon="4.00424">
        <ele>136</ele>
        <time>2019-03-30T13:54:01Z</time>
      </trkpt>
      <trkpt lat="49.35157" lon="4.00415">
        <ele>136</ele>
        <time>2019-03-30T13:54:02Z</time>
      </trkpt>
      <trkpt lat="49.35155" lon="4.00406">
        <ele>136</ele>
        <time>2019-03-30T13:54:03Z</time>
      </trkpt>
      <trkpt lat="49.35154" lon="4.00397">
        <ele>136</ele>
        <time>2019-03-30T13:54:04Z</time>
      </trkpt>
      <trkpt lat="49.35153" lon="4.00389">
        <ele>136</ele>
        <time>2019-03-30T13:54:05Z</time>
      </trkpt>
      <trkpt lat="49.35152" lon="4.0038">
        <ele>135</ele>
        <time>2019-03-30T13:54:06Z</time>
      </trkpt>
      <trkpt lat="49.3515" lon="4.00371">
        <ele>135</ele>
        <time>2019-03-30T13:54:07Z</time>
      </trkpt>
      <trkpt lat="49.35149" lon="4.00362">
        <ele>135</ele>
        <time>2019-03-30T13:54:08Z</time>
      </trkpt>
      <trkpt lat="49.35148" lon="4.00354">
        <ele>135</ele>
        <time>2019-03-30T13:54:09Z</time>
      </trkpt>
      <trkpt lat="49.35147" lon="4.00345">
        <ele>135</ele>
        <time>2019-03-30T13:54:10Z</time>
      </trkpt>
      <trkpt lat="49.35146" lon="4.00336">
        <ele>135</ele>
        <time>2019-03-30T13:54:11Z</time>
      </trkpt>
      <trkpt lat="49.35145" lon="4.00328">
        <ele>134</ele>
        <time>2019-03-30T13:54:12Z</time>
      </trkpt>
      <trkpt lat="49.35143" lon="4.00319">
        <ele>134</ele>
        <time>2019-03-30T13:54:13Z</time>
      </trkpt>
      <trkpt lat="49.35142" lon="4.0031">
        <ele>134</ele>
        <time>2019-03-30T13:54:14Z</time>
      </trkpt>
      <trkpt lat="49.3514" lon="4.00301">
        <ele>134</ele>
        <time>2019-03-30T13:54:15Z</time>
      </trkpt>
      <trkpt lat="49.35139" lon="4.00292">
        <ele>134</ele>
        <time>2019-03-30T13:54:16Z</time>
      </trkpt>
      <trkpt lat="49.35138" lon="4.00284">
        <ele>134</ele>
        <time>2019-03-30T13:54:17Z</time>
      </trkpt>
      <trkpt lat="49.35137" lon="4.00275">
        <ele>135</ele>
        <time>2019-03-30T13:54:18Z</time>
      </trkpt>
      <trkpt lat="49.35135" lon="4.00267">
        <ele>134</ele>
        <time>2019-03-30T13:54:19Z</time>
      </trkpt>
      <trkpt lat="49.35134" lon="4.00258">
        <ele>134</ele>
        <time>2019-03-30T13:54:20Z</time>
      </trkpt>
      <trkpt lat="49.35133" lon="4.0025">
        <ele>134</ele>
        <time>2019-03-30T13:54:21Z</time>
      </trkpt>
      <trkpt lat="49.35132" lon="4.00242">
        <ele>134</ele>
        <time>2019-03-30T13:54:22Z</time>
      </trkpt>
      <trkpt lat="49.3513" lon="4.00233">
        <ele>134</ele>
        <time>2019-03-30T13:54:23Z</time>
      </trkpt>
      <trkpt lat="49.35129" lon="4.00225">
        <ele>134</ele>
        <time>2019-03-30T13:54:24Z</time>
      </trkpt>
      <trkpt lat="49.35127" lon="4.00216">
        <ele>134</ele>
        <time>2019-03-30T13:54:25Z</time>
      </trkpt>
      <trkpt lat="49.35126" lon="4.00207">
        <ele>134</ele>
        <time>2019-03-30T13:54:26Z</time>
      </trkpt>
      <trkpt lat="49.35125" lon="4.00199">
        <ele>134</ele>
        <time>2019-03-30T13:54:27Z</time>
      </trkpt>
      <trkpt lat="49.35123" lon="4.0019">
        <ele>134</ele>
        <time>2019-03-30T13:54:28Z</time>
      </trkpt>
      <trkpt lat="49.35122" lon="4.00181">
        <ele>134</ele>
        <time>2019-03-30T13:54:29Z</time>
      </trkpt>
      <trkpt lat="49.35121" lon="4.00172">
        <ele>134</ele>
        <time>2019-03-30T13:54:30Z</time>
      </trkpt>
      <trkpt lat="49.3512" lon="4.00164">
        <ele>134</ele>
        <time>2019-03-30T13:54:31Z</time>
      </trkpt>
      <trkpt lat="49.35118" lon="4.00155">
        <ele>134</ele>
        <time>2019-03-30T13:54:32Z</time>
      </trkpt>
      <trkpt lat="49.35117" lon="4.00147">
        <ele>134</ele>
        <time>2019-03-30T13:54:33Z</time>
      </trkpt>
      <trkpt lat="49.35116" lon="4.00138">
        <ele>134</ele>
        <time>2019-03-30T13:54:34Z</time>
      </trkpt>
      <trkpt lat="49.35115" lon="4.0013">
        <ele>134</ele>
        <time>2019-03-30T13:54:35Z</time>
      </trkpt>
      <trkpt lat="49.35113" lon="4.00122">
        <ele>134</ele>
        <time>2019-03-30T13:54:36Z</time>
      </trkpt>
      <trkpt lat="49.35112" lon="4.00113">
        <ele>134</ele>
        <time>2019-03-30T13:54:37Z</time>
      </trkpt>
      <trkpt lat="49.35111" lon="4.00104">
        <ele>133</ele>
        <time>2019-03-30T13:54:38Z</time>
      </trkpt>
      <trkpt lat="49.3511" lon="4.00096">
        <ele>133</ele>
        <time>2019-03-30T13:54:39Z</time>
      </trkpt>
      <trkpt lat="49.35109" lon="4.00087">
        <ele>133</ele>
        <time>2019-03-30T13:54:40Z</time>
      </trkpt>
      <trkpt lat="49.35108" lon="4.00079">
        <ele>133</ele>
        <time>2019-03-30T13:54:41Z</time>
      </trkpt>
      <trkpt lat="49.35106" lon="4.0007">
        <ele>133</ele>
        <time>2019-03-30T13:54:42Z</time>
      </trkpt>
      <trkpt lat="49.35105" lon="4.00062">
        <ele>133</ele>
        <time>2019-03-30T13:54:43Z</time>
      </trkpt>
      <trkpt lat="49.35104" lon="4.00054">
        <ele>133</ele>
        <time>2019-03-30T13:54:44Z</time>
      </trkpt>
      <trkpt lat="49.35103" lon="4.00045">
        <ele>133</ele>
        <time>2019-03-30T13:54:45Z</time>
      </trkpt>
      <trkpt lat="49.35101" lon="4.00037">
        <ele>133</ele>
        <time>2019-03-30T13:54:46Z</time>
      </trkpt>
      <trkpt lat="49.351" lon="4.0003">
        <ele>133</ele>
        <time>2019-03-30T13:54:47Z</time>
      </trkpt>
      <trkpt lat="49.35099" lon="4.00021">
        <ele>133</ele>
        <time>2019-03-30T13:54:48Z</time>
      </trkpt>
      <trkpt lat="49.35098" lon="4.00013">
        <ele>133</ele>
        <time>2019-03-30T13:54:49Z</time>
      </trkpt>
      <trkpt lat="49.35096" lon="4.00005">
        <ele>133</ele>
        <time>2019-03-30T13:54:50Z</time>
      </trkpt>
      <trkpt lat="49.35095" lon="3.99997">
        <ele>133</ele>
        <time>2019-03-30T13:54:51Z</time>
      </trkpt>
      <trkpt lat="49.35093" lon="3.99989">
        <ele>133</ele>
        <time>2019-03-30T13:54:52Z</time>
      </trkpt>
      <trkpt lat="49.35092" lon="3.99981">
        <ele>133</ele>
        <time>2019-03-30T13:54:53Z</time>
      </trkpt>
      <trkpt lat="49.3509" lon="3.99972">
        <ele>133</ele>
        <time>2019-03-30T13:54:54Z</time>
      </trkpt>
      <trkpt lat="49.35088" lon="3.99964">
        <ele>133</ele>
        <time>2019-03-30T13:54:55Z</time>
      </trkpt>
      <trkpt lat="49.35087" lon="3.99956">
        <ele>133</ele>
        <time>2019-03-30T13:54:56Z</time>
      </trkpt>
      <trkpt lat="49.35084" lon="3.99947">
        <ele>133</ele>
        <time>2019-03-30T13:54:57Z</time>
      </trkpt>
      <trkpt lat="49.35082" lon="3.99939">
        <ele>133</ele>
        <time>2019-03-30T13:54:58Z</time>
      </trkpt>
      <trkpt lat="49.3508" lon="3.99931">
        <ele>133</ele>
        <time>2019-03-30T13:54:59Z</time>
      </trkpt>
      <trkpt lat="49.35078" lon="3.99923">
        <ele>133</ele>
        <time>2019-03-30T13:55:00Z</time>
      </trkpt>
      <trkpt lat="49.35076" lon="3.99915">
        <ele>133</ele>
        <time>2019-03-30T13:55:01Z</time>
      </trkpt>
      <trkpt lat="49.35073" lon="3.99907">
        <ele>134</ele>
        <time>2019-03-30T13:55:02Z</time>
      </trkpt>
      <trkpt lat="49.3507" lon="3.99899">
        <ele>134</ele>
        <time>2019-03-30T13:55:03Z</time>
      </trkpt>
      <trkpt lat="49.35068" lon="3.99892">
        <ele>134</ele>
        <time>2019-03-30T13:55:04Z</time>
      </trkpt>
      <trkpt lat="49.35065" lon="3.99885">
        <ele>133</ele>
        <time>2019-03-30T13:55:05Z</time>
      </trkpt>
      <trkpt lat="49.35062" lon="3.99877">
        <ele>133</ele>
        <time>2019-03-30T13:55:06Z</time>
      </trkpt>
      <trkpt lat="49.35059" lon="3.99869">
        <ele>133</ele>
        <time>2019-03-30T13:55:07Z</time>
      </trkpt>
      <trkpt lat="49.35055" lon="3.99862">
        <ele>133</ele>
        <time>2019-03-30T13:55:08Z</time>
      </trkpt>
      <trkpt lat="49.35051" lon="3.99854">
        <ele>133</ele>
        <time>2019-03-30T13:55:09Z</time>
      </trkpt>
      <trkpt lat="49.35048" lon="3.99846">
        <ele>133</ele>
        <time>2019-03-30T13:55:10Z</time>
      </trkpt>
      <trkpt lat="49.35044" lon="3.99839">
        <ele>133</ele>
        <time>2019-03-30T13:55:11Z</time>
      </trkpt>
      <trkpt lat="49.35041" lon="3.99832">
        <ele>133</ele>
        <time>2019-03-30T13:55:12Z</time>
      </trkpt>
      <trkpt lat="49.35036" lon="3.99825">
        <ele>133</ele>
        <time>2019-03-30T13:55:13Z</time>
      </trkpt>
      <trkpt lat="49.35033" lon="3.99817">
        <ele>133</ele>
        <time>2019-03-30T13:55:14Z</time>
      </trkpt>
      <trkpt lat="49.35029" lon="3.99811">
        <ele>133</ele>
        <time>2019-03-30T13:55:15Z</time>
      </trkpt>
      <trkpt lat="49.35024" lon="3.99804">
        <ele>132</ele>
        <time>2019-03-30T13:55:16Z</time>
      </trkpt>
      <trkpt lat="49.3502" lon="3.99796">
        <ele>132</ele>
        <time>2019-03-30T13:55:17Z</time>
      </trkpt>
      <trkpt lat="49.35016" lon="3.99789">
        <ele>132</ele>
        <time>2019-03-30T13:55:18Z</time>
      </trkpt>
      <trkpt lat="49.35011" lon="3.99782">
        <ele>132</ele>
        <time>2019-03-30T13:55:19Z</time>
      </trkpt>
      <trkpt lat="49.35007" lon="3.99775">
        <ele>132</ele>
        <time>2019-03-30T13:55:20Z</time>
      </trkpt>
      <trkpt lat="49.35002" lon="3.99768">
        <ele>132</ele>
        <time>2019-03-30T13:55:21Z</time>
      </trkpt>
      <trkpt lat="49.34998" lon="3.9976">
        <ele>132</ele>
        <time>2019-03-30T13:55:22Z</time>
      </trkpt>
      <trkpt lat="49.34993" lon="3.99753">
        <ele>132</ele>
        <time>2019-03-30T13:55:23Z</time>
      </trkpt>
      <trkpt lat="49.34989" lon="3.99746">
        <ele>132</ele>
        <time>2019-03-30T13:55:24Z</time>
      </trkpt>
      <trkpt lat="49.34984" lon="3.99739">
        <ele>132</ele>
        <time>2019-03-30T13:55:25Z</time>
      </trkpt>
      <trkpt lat="49.3498" lon="3.99732">
        <ele>132</ele>
        <time>2019-03-30T13:55:26Z</time>
      </trkpt>
      <trkpt lat="49.34976" lon="3.99724">
        <ele>132</ele>
        <time>2019-03-30T13:55:27Z</time>
      </trkpt>
      <trkpt lat="49.34971" lon="3.99717">
        <ele>132</ele>
        <time>2019-03-30T13:55:28Z</time>
      </trkpt>
      <trkpt lat="49.34966" lon="3.99709">
        <ele>132</ele>
        <time>2019-03-30T13:55:29Z</time>
      </trkpt>
      <trkpt lat="49.34962" lon="3.99702">
        <ele>132</ele>
        <time>2019-03-30T13:55:30Z</time>
      </trkpt>
      <trkpt lat="49.34957" lon="3.99695">
        <ele>132</ele>
        <time>2019-03-30T13:55:31Z</time>
      </trkpt>
      <trkpt lat="49.34953" lon="3.99687">
        <ele>131</ele>
        <time>2019-03-30T13:55:32Z</time>
      </trkpt>
      <trkpt lat="49.34948" lon="3.9968">
        <ele>131</ele>
        <time>2019-03-30T13:55:33Z</time>
      </trkpt>
      <trkpt lat="49.34943" lon="3.99673">
        <ele>131</ele>
        <time>2019-03-30T13:55:34Z</time>
      </trkpt>
      <trkpt lat="49.34939" lon="3.99665">
        <ele>131</ele>
        <time>2019-03-30T13:55:35Z</time>
      </trkpt>
      <trkpt lat="49.34934" lon="3.99658">
        <ele>131</ele>
        <time>2019-03-30T13:55:36Z</time>
      </trkpt>
      <trkpt lat="49.3493" lon="3.9965">
        <ele>131</ele>
        <time>2019-03-30T13:55:37Z</time>
      </trkpt>
      <trkpt lat="49.34925" lon="3.99643">
        <ele>131</ele>
        <time>2019-03-30T13:55:38Z</time>
      </trkpt>
      <trkpt lat="49.34921" lon="3.99636">
        <ele>131</ele>
        <time>2019-03-30T13:55:39Z</time>
      </trkpt>
      <trkpt lat="49.34916" lon="3.99629">
        <ele>131</ele>
        <time>2019-03-30T13:55:40Z</time>
      </trkpt>
      <trkpt lat="49.34911" lon="3.99621">
        <ele>131</ele>
        <time>2019-03-30T13:55:41Z</time>
      </trkpt>
      <trkpt lat="49.34906" lon="3.99613">
        <ele>130</ele>
        <time>2019-03-30T13:55:42Z</time>
      </trkpt>
      <trkpt lat="49.34901" lon="3.99606">
        <ele>131</ele>
        <time>2019-03-30T13:55:43Z</time>
      </trkpt>
      <trkpt lat="49.34897" lon="3.99598">
        <ele>130</ele>
        <time>2019-03-30T13:55:44Z</time>
      </trkpt>
      <trkpt lat="49.34892" lon="3.9959">
        <ele>131</ele>
        <time>2019-03-30T13:55:45Z</time>
      </trkpt>
      <trkpt lat="49.34888" lon="3.99582">
        <ele>130</ele>
        <time>2019-03-30T13:55:46Z</time>
      </trkpt>
      <trkpt lat="49.34883" lon="3.99574">
        <ele>130</ele>
        <time>2019-03-30T13:55:47Z</time>
      </trkpt>
      <trkpt lat="49.34878" lon="3.99567">
        <ele>130</ele>
        <time>2019-03-30T13:55:48Z</time>
      </trkpt>
      <trkpt lat="49.34873" lon="3.99559">
        <ele>130</ele>
        <time>2019-03-30T13:55:49Z</time>
      </trkpt>
      <trkpt lat="49.34869" lon="3.99551">
        <ele>130</ele>
        <time>2019-03-30T13:55:50Z</time>
      </trkpt>
      <trkpt lat="49.34864" lon="3.99543">
        <ele>130</ele>
        <time>2019-03-30T13:55:51Z</time>
      </trkpt>
      <trkpt lat="49.34859" lon="3.99535">
        <ele>130</ele>
        <time>2019-03-30T13:55:52Z</time>
      </trkpt>
      <trkpt lat="49.34855" lon="3.99527">
        <ele>130</ele>
        <time>2019-03-30T13:55:53Z</time>
      </trkpt>
      <trkpt lat="49.3485" lon="3.99519">
        <ele>130</ele>
        <time>2019-03-30T13:55:54Z</time>
      </trkpt>
      <trkpt lat="49.34845" lon="3.99512">
        <ele>130</ele>
        <time>2019-03-30T13:55:55Z</time>
      </trkpt>
      <trkpt lat="49.3484" lon="3.99504">
        <ele>129</ele>
        <time>2019-03-30T13:55:56Z</time>
      </trkpt>
      <trkpt lat="49.34835" lon="3.99496">
        <ele>129</ele>
        <time>2019-03-30T13:55:57Z</time>
      </trkpt>
      <trkpt lat="49.3483" lon="3.99488">
        <ele>129</ele>
        <time>2019-03-30T13:55:58Z</time>
      </trkpt>
      <trkpt lat="49.34826" lon="3.99481">
        <ele>129</ele>
        <time>2019-03-30T13:55:59Z</time>
      </trkpt>
      <trkpt lat="49.34821" lon="3.99473">
        <ele>129</ele>
        <time>2019-03-30T13:56:00Z</time>
      </trkpt>
      <trkpt lat="49.34816" lon="3.99465">
        <ele>129</ele>
        <time>2019-03-30T13:56:01Z</time>
      </trkpt>
      <trkpt lat="49.34811" lon="3.99457">
        <ele>128</ele>
        <time>2019-03-30T13:56:02Z</time>
      </trkpt>
      <trkpt lat="49.34806" lon="3.9945">
        <ele>128</ele>
        <time>2019-03-30T13:56:03Z</time>
      </trkpt>
      <trkpt lat="49.34801" lon="3.99442">
        <ele>128</ele>
        <time>2019-03-30T13:56:04Z</time>
      </trkpt>
      <trkpt lat="49.34797" lon="3.99435">
        <ele>128</ele>
        <time>2019-03-30T13:56:05Z</time>
      </trkpt>
      <trkpt lat="49.34792" lon="3.99427">
        <ele>128</ele>
        <time>2019-03-30T13:56:06Z</time>
      </trkpt>
      <trkpt lat="49.34787" lon="3.99419">
        <ele>128</ele>
        <time>2019-03-30T13:56:07Z</time>
      </trkpt>
      <trkpt lat="49.34782" lon="3.99412">
        <ele>127</ele>
        <time>2019-03-30T13:56:08Z</time>
      </trkpt>
      <trkpt lat="49.34778" lon="3.99404">
        <ele>127</ele>
        <time>2019-03-30T13:56:09Z</time>
      </trkpt>
      <trkpt lat="49.34773" lon="3.99396">
        <ele>127</ele>
        <time>2019-03-30T13:56:10Z</time>
      </trkpt>
      <trkpt lat="49.34769" lon="3.99389">
        <ele>127</ele>
        <time>2019-03-30T13:56:11Z</time>
      </trkpt>
      <trkpt lat="49.34764" lon="3.99381">
        <ele>126</ele>
        <time>2019-03-30T13:56:12Z</time>
      </trkpt>
      <trkpt lat="49.34759" lon="3.99374">
        <ele>126</ele>
        <time>2019-03-30T13:56:13Z</time>
      </trkpt>
      <trkpt lat="49.34755" lon="3.99367">
        <ele>126</ele>
        <time>2019-03-30T13:56:14Z</time>
      </trkpt>
      <trkpt lat="49.34751" lon="3.9936">
        <ele>126</ele>
        <time>2019-03-30T13:56:15Z</time>
      </trkpt>
      <trkpt lat="49.34747" lon="3.99353">
        <ele>126</ele>
        <time>2019-03-30T13:56:16Z</time>
      </trkpt>
      <trkpt lat="49.34742" lon="3.99346">
        <ele>126</ele>
        <time>2019-03-30T13:56:17Z</time>
      </trkpt>
      <trkpt lat="49.34738" lon="3.99339">
        <ele>126</ele>
        <time>2019-03-30T13:56:18Z</time>
      </trkpt>
      <trkpt lat="49.34735" lon="3.99332">
        <ele>126</ele>
        <time>2019-03-30T13:56:19Z</time>
      </trkpt>
      <trkpt lat="49.34731" lon="3.99326">
        <ele>126</ele>
        <time>2019-03-30T13:56:20Z</time>
      </trkpt>
      <trkpt lat="49.34727" lon="3.99319">
        <ele>126</ele>
        <time>2019-03-30T13:56:21Z</time>
      </trkpt>
      <trkpt lat="49.34722" lon="3.99313">
        <ele>126</ele>
        <time>2019-03-30T13:56:22Z</time>
      </trkpt>
      <trkpt lat="49.34719" lon="3.99307">
        <ele>126</ele>
        <time>2019-03-30T13:56:23Z</time>
      </trkpt>
      <trkpt lat="49.34715" lon="3.993">
        <ele>126</ele>
        <time>2019-03-30T13:56:24Z</time>
      </trkpt>
      <trkpt lat="49.34711" lon="3.99294">
        <ele>126</ele>
        <time>2019-03-30T13:56:25Z</time>
      </trkpt>
      <trkpt lat="49.34707" lon="3.99288">
        <ele>125</ele>
        <time>2019-03-30T13:56:26Z</time>
      </trkpt>
      <trkpt lat="49.34703" lon="3.99282">
        <ele>125</ele>
        <time>2019-03-30T13:56:27Z</time>
      </trkpt>
      <trkpt lat="49.34699" lon="3.99276">
        <ele>125</ele>
        <time>2019-03-30T13:56:28Z</time>
      </trkpt>
      <trkpt lat="49.34695" lon="3.99269">
        <ele>124</ele>
        <time>2019-03-30T13:56:29Z</time>
      </trkpt>
      <trkpt lat="49.34691" lon="3.99263">
        <ele>124</ele>
        <time>2019-03-30T13:56:30Z</time>
      </trkpt>
      <trkpt lat="49.34687" lon="3.99257">
        <ele>124</ele>
        <time>2019-03-30T13:56:31Z</time>
      </trkpt>
      <trkpt lat="49.34684" lon="3.99251">
        <ele>124</ele>
        <time>2019-03-30T13:56:32Z</time>
      </trkpt>
      <trkpt lat="49.3468" lon="3.99244">
        <ele>124</ele>
        <time>2019-03-30T13:56:33Z</time>
      </trkpt>
      <trkpt lat="49.34675" lon="3.99237">
        <ele>124</ele>
        <time>2019-03-30T13:56:34Z</time>
      </trkpt>
      <trkpt lat="49.34671" lon="3.99231">
        <ele>124</ele>
        <time>2019-03-30T13:56:35Z</time>
      </trkpt>
      <trkpt lat="49.34667" lon="3.99224">
        <ele>124</ele>
        <time>2019-03-30T13:56:36Z</time>
      </trkpt>
      <trkpt lat="49.34663" lon="3.99218">
        <ele>124</ele>
        <time>2019-03-30T13:56:37Z</time>
      </trkpt>
      <trkpt lat="49.3466" lon="3.99212">
        <ele>124</ele>
        <time>2019-03-30T13:56:38Z</time>
      </trkpt>
      <trkpt lat="49.34656" lon="3.99207">
        <ele>124</ele>
        <time>2019-03-30T13:56:39Z</time>
      </trkpt>
      <trkpt lat="49.34652" lon="3.99201">
        <ele>124</ele>
        <time>2019-03-30T13:56:40Z</time>
      </trkpt>
      <trkpt lat="49.34648" lon="3.99195">
        <ele>124</ele>
        <time>2019-03-30T13:56:41Z</time>
      </trkpt>
      <trkpt lat="49.34644" lon="3.99189">
        <ele>124</ele>
        <time>2019-03-30T13:56:42Z</time>
      </trkpt>
      <trkpt lat="49.34639" lon="3.99183">
        <ele>124</ele>
        <time>2019-03-30T13:56:43Z</time>
      </trkpt>
      <trkpt lat="49.34636" lon="3.99177">
        <ele>124</ele>
        <time>2019-03-30T13:56:44Z</time>
      </trkpt>
      <trkpt lat="49.34633" lon="3.99171">
        <ele>124</ele>
        <time>2019-03-30T13:56:45Z</time>
      </trkpt>
      <trkpt lat="49.34628" lon="3.99167">
        <ele>124</ele>
        <time>2019-03-30T13:56:46Z</time>
      </trkpt>
      <trkpt lat="49.34622" lon="3.99165">
        <ele>124</ele>
        <time>2019-03-30T13:56:47Z</time>
      </trkpt>
      <trkpt lat="49.34617" lon="3.99164">
        <ele>123</ele>
        <time>2019-03-30T13:56:48Z</time>
      </trkpt>
      <trkpt lat="49.34611" lon="3.99164">
        <ele>123</ele>
        <time>2019-03-30T13:56:49Z</time>
      </trkpt>
      <trkpt lat="49.34605" lon="3.99163">
        <ele>123</ele>
        <time>2019-03-30T13:56:50Z</time>
      </trkpt>
      <trkpt lat="49.34599" lon="3.99161">
        <ele>122</ele>
        <time>2019-03-30T13:56:51Z</time>
      </trkpt>
      <trkpt lat="49.34593" lon="3.99158">
        <ele>122</ele>
        <time>2019-03-30T13:56:52Z</time>
      </trkpt>
      <trkpt lat="49.34588" lon="3.99155">
        <ele>122</ele>
        <time>2019-03-30T13:56:53Z</time>
      </trkpt>
      <trkpt lat="49.34582" lon="3.9915">
        <ele>121</ele>
        <time>2019-03-30T13:56:54Z</time>
      </trkpt>
      <trkpt lat="49.34577" lon="3.99144">
        <ele>121</ele>
        <time>2019-03-30T13:56:55Z</time>
      </trkpt>
      <trkpt lat="49.34572" lon="3.99137">
        <ele>121</ele>
        <time>2019-03-30T13:56:56Z</time>
      </trkpt>
      <trkpt lat="49.34567" lon="3.99131">
        <ele>121</ele>
        <time>2019-03-30T13:56:57Z</time>
      </trkpt>
      <trkpt lat="49.34562" lon="3.99123">
        <ele>120</ele>
        <time>2019-03-30T13:56:58Z</time>
      </trkpt>
      <trkpt lat="49.34558" lon="3.99115">
        <ele>120</ele>
        <time>2019-03-30T13:56:59Z</time>
      </trkpt>
      <trkpt lat="49.34554" lon="3.99107">
        <ele>120</ele>
        <time>2019-03-30T13:57:00Z</time>
      </trkpt>
      <trkpt lat="49.34551" lon="3.991">
        <ele>119</ele>
        <time>2019-03-30T13:57:01Z</time>
      </trkpt>
      <trkpt lat="49.34549" lon="3.99091">
        <ele>119</ele>
        <time>2019-03-30T13:57:02Z</time>
      </trkpt>
      <trkpt lat="49.34546" lon="3.99081">
        <ele>119</ele>
        <time>2019-03-30T13:57:03Z</time>
      </trkpt>
      <trkpt lat="49.34543" lon="3.99073">
        <ele>119</ele>
        <time>2019-03-30T13:57:04Z</time>
      </trkpt>
      <trkpt lat="49.34539" lon="3.99065">
        <ele>119</ele>
        <time>2019-03-30T13:57:05Z</time>
      </trkpt>
      <trkpt lat="49.34536" lon="3.99057">
        <ele>118</ele>
        <time>2019-03-30T13:57:06Z</time>
      </trkpt>
      <trkpt lat="49.34533" lon="3.99049">
        <ele>118</ele>
        <time>2019-03-30T13:57:07Z</time>
      </trkpt>
      <trkpt lat="49.3453" lon="3.99041">
        <ele>118</ele>
        <time>2019-03-30T13:57:08Z</time>
      </trkpt>
      <trkpt lat="49.34527" lon="3.99033">
        <ele>117</ele>
        <time>2019-03-30T13:57:09Z</time>
      </trkpt>
      <trkpt lat="49.34524" lon="3.99025">
        <ele>117</ele>
        <time>2019-03-30T13:57:10Z</time>
      </trkpt>
      <trkpt lat="49.3452" lon="3.99016">
        <ele>116</ele>
        <time>2019-03-30T13:57:11Z</time>
      </trkpt>
      <trkpt lat="49.34516" lon="3.99007">
        <ele>117</ele>
        <time>2019-03-30T13:57:12Z</time>
      </trkpt>
      <trkpt lat="49.34512" lon="3.98998">
        <ele>116</ele>
        <time>2019-03-30T13:57:13Z</time>
      </trkpt>
      <trkpt lat="49.34507" lon="3.9899">
        <ele>116</ele>
        <time>2019-03-30T13:57:14Z</time>
      </trkpt>
      <trkpt lat="49.34502" lon="3.98982">
        <ele>116</ele>
        <time>2019-03-30T13:57:15Z</time>
      </trkpt>
      <trkpt lat="49.34497" lon="3.98975">
        <ele>116</ele>
        <time>2019-03-30T13:57:16Z</time>
      </trkpt>
      <trkpt lat="49.34491" lon="3.98968">
        <ele>116</ele>
        <time>2019-03-30T13:57:17Z</time>
      </trkpt>
      <trkpt lat="49.34485" lon="3.98962">
        <ele>115</ele>
        <time>2019-03-30T13:57:18Z</time>
      </trkpt>
      <trkpt lat="49.3448" lon="3.98955">
        <ele>115</ele>
        <time>2019-03-30T13:57:19Z</time>
      </trkpt>
      <trkpt lat="49.34474" lon="3.98949">
        <ele>115</ele>
        <time>2019-03-30T13:57:20Z</time>
      </trkpt>
      <trkpt lat="49.34468" lon="3.98943">
        <ele>115</ele>
        <time>2019-03-30T13:57:21Z</time>
      </trkpt>
      <trkpt lat="49.34462" lon="3.98936">
        <ele>115</ele>
        <time>2019-03-30T13:57:22Z</time>
      </trkpt>
      <trkpt lat="49.34456" lon="3.9893">
        <ele>115</ele>
        <time>2019-03-30T13:57:23Z</time>
      </trkpt>
      <trkpt lat="49.3445" lon="3.98923">
        <ele>115</ele>
        <time>2019-03-30T13:57:24Z</time>
      </trkpt>
      <trkpt lat="49.34444" lon="3.98917">
        <ele>115</ele>
        <time>2019-03-30T13:57:25Z</time>
      </trkpt>
      <trkpt lat="49.34439" lon="3.9891">
        <ele>115</ele>
        <time>2019-03-30T13:57:26Z</time>
      </trkpt>
      <trkpt lat="49.34433" lon="3.98903">
        <ele>115</ele>
        <time>2019-03-30T13:57:27Z</time>
      </trkpt>
      <trkpt lat="49.34427" lon="3.98897">
        <ele>115</ele>
        <time>2019-03-30T13:57:28Z</time>
      </trkpt>
      <trkpt lat="49.34421" lon="3.9889">
        <ele>116</ele>
        <time>2019-03-30T13:57:29Z</time>
      </trkpt>
      <trkpt lat="49.34416" lon="3.98883">
        <ele>116</ele>
        <time>2019-03-30T13:57:30Z</time>
      </trkpt>
      <trkpt lat="49.34411" lon="3.98876">
        <ele>116</ele>
        <time>2019-03-30T13:57:31Z</time>
      </trkpt>
      <trkpt lat="49.34405" lon="3.98869">
        <ele>116</ele>
        <time>2019-03-30T13:57:32Z</time>
      </trkpt>
      <trkpt lat="49.344" lon="3.98863">
        <ele>116</ele>
        <time>2019-03-30T13:57:33Z</time>
      </trkpt>
      <trkpt lat="49.34395" lon="3.98857">
        <ele>116</ele>
        <time>2019-03-30T13:57:34Z</time>
      </trkpt>
      <trkpt lat="49.34389" lon="3.98852">
        <ele>116</ele>
        <time>2019-03-30T13:57:35Z</time>
      </trkpt>
      <trkpt lat="49.34384" lon="3.98847">
        <ele>116</ele>
        <time>2019-03-30T13:57:36Z</time>
      </trkpt>
      <trkpt lat="49.3438" lon="3.98843">
        <ele>117</ele>
        <time>2019-03-30T13:57:37Z</time>
      </trkpt>
      <trkpt lat="49.34376" lon="3.98839">
        <ele>117</ele>
        <time>2019-03-30T13:57:38Z</time>
      </trkpt>
      <trkpt lat="49.34372" lon="3.98835">
        <ele>117</ele>
        <time>2019-03-30T13:57:39Z</time>
      </trkpt>
      <trkpt lat="49.3437" lon="3.98832">
        <ele>117</ele>
        <time>2019-03-30T13:57:40Z</time>
      </trkpt>
      <trkpt lat="49.34367" lon="3.98828">
        <ele>117</ele>
        <time>2019-03-30T13:57:41Z</time>
      </trkpt>
      <trkpt lat="49.34365" lon="3.98825">
        <ele>117</ele>
        <time>2019-03-30T13:57:42Z</time>
      </trkpt>
      <trkpt lat="49.34363" lon="3.98823">
        <ele>117</ele>
        <time>2019-03-30T13:57:43Z</time>
      </trkpt>
      <trkpt lat="49.3436" lon="3.9882">
        <ele>117</ele>
        <time>2019-03-30T13:57:44Z</time>
      </trkpt>
      <trkpt lat="49.34358" lon="3.98818">
        <ele>117</ele>
        <time>2019-03-30T13:57:45Z</time>
      </trkpt>
      <trkpt lat="49.34356" lon="3.98815">
        <ele>117</ele>
        <time>2019-03-30T13:57:46Z</time>
      </trkpt>
      <trkpt lat="49.34353" lon="3.98812">
        <ele>117</ele>
        <time>2019-03-30T13:57:47Z</time>
      </trkpt>
      <trkpt lat="49.3435" lon="3.98809">
        <ele>117</ele>
        <time>2019-03-30T13:57:48Z</time>
      </trkpt>
      <trkpt lat="49.34347" lon="3.98806">
        <ele>117</ele>
        <time>2019-03-30T13:57:49Z</time>
      </trkpt>
      <trkpt lat="49.34344" lon="3.98802">
        <ele>117</ele>
        <time>2019-03-30T13:57:50Z</time>
      </trkpt>
      <trkpt lat="49.3434" lon="3.98799">
        <ele>118</ele>
        <time>2019-03-30T13:57:51Z</time>
      </trkpt>
      <trkpt lat="49.34336" lon="3.98795">
        <ele>117</ele>
        <time>2019-03-30T13:57:52Z</time>
      </trkpt>
      <trkpt lat="49.34331" lon="3.9879">
        <ele>117</ele>
        <time>2019-03-30T13:57:53Z</time>
      </trkpt>
      <trkpt lat="49.34327" lon="3.98785">
        <ele>117</ele>
        <time>2019-03-30T13:57:54Z</time>
      </trkpt>
      <trkpt lat="49.34323" lon="3.9878">
        <ele>118</ele>
        <time>2019-03-30T13:57:55Z</time>
      </trkpt>
      <trkpt lat="49.34318" lon="3.98774">
        <ele>117</ele>
        <time>2019-03-30T13:57:56Z</time>
      </trkpt>
      <trkpt lat="49.34313" lon="3.98769">
        <ele>117</ele>
        <time>2019-03-30T13:57:57Z</time>
      </trkpt>
      <trkpt lat="49.34308" lon="3.98763">
        <ele>117</ele>
        <time>2019-03-30T13:57:58Z</time>
      </trkpt>
      <trkpt lat="49.34304" lon="3.98758">
        <ele>117</ele>
        <time>2019-03-30T13:57:59Z</time>
      </trkpt>
      <trkpt lat="49.34299" lon="3.98752">
        <ele>117</ele>
        <time>2019-03-30T13:58:00Z</time>
      </trkpt>
      <trkpt lat="49.34294" lon="3.98747">
        <ele>117</ele>
        <time>2019-03-30T13:58:01Z</time>
      </trkpt>
      <trkpt lat="49.34289" lon="3.98742">
        <ele>117</ele>
        <time>2019-03-30T13:58:02Z</time>
      </trkpt>
      <trkpt lat="49.34285" lon="3.98737">
        <ele>117</ele>
        <time>2019-03-30T13:58:03Z</time>
      </trkpt>
      <trkpt lat="49.3428" lon="3.98731">
        <ele>117</ele>
        <time>2019-03-30T13:58:04Z</time>
      </trkpt>
      <trkpt lat="49.34276" lon="3.98725">
        <ele>117</ele>
        <time>2019-03-30T13:58:05Z</time>
      </trkpt>
      <trkpt lat="49.34272" lon="3.9872">
        <ele>117</ele>
        <time>2019-03-30T13:58:06Z</time>
      </trkpt>
      <trkpt lat="49.34268" lon="3.98714">
        <ele>118</ele>
        <time>2019-03-30T13:58:07Z</time>
      </trkpt>
      <trkpt lat="49.34264" lon="3.98709">
        <ele>118</ele>
        <time>2019-03-30T13:58:08Z</time>
      </trkpt>
      <trkpt lat="49.34261" lon="3.98704">
        <ele>118</ele>
        <time>2019-03-30T13:58:09Z</time>
      </trkpt>
      <trkpt lat="49.34257" lon="3.987">
        <ele>118</ele>
        <time>2019-03-30T13:58:10Z</time>
      </trkpt>
      <trkpt lat="49.34253" lon="3.98695">
        <ele>118</ele>
        <time>2019-03-30T13:58:11Z</time>
      </trkpt>
      <trkpt lat="49.3425" lon="3.98691">
        <ele>118</ele>
        <time>2019-03-30T13:58:12Z</time>
      </trkpt>
      <trkpt lat="49.34246" lon="3.98686">
        <ele>119</ele>
        <time>2019-03-30T13:58:13Z</time>
      </trkpt>
      <trkpt lat="49.34242" lon="3.98682">
        <ele>118</ele>
        <time>2019-03-30T13:58:14Z</time>
      </trkpt>
      <trkpt lat="49.34239" lon="3.98677">
        <ele>118</ele>
        <time>2019-03-30T13:58:15Z</time>
      </trkpt>
      <trkpt lat="49.34236" lon="3.98673">
        <ele>118</ele>
        <time>2019-03-30T13:58:16Z</time>
      </trkpt>
      <trkpt lat="49.34232" lon="3.98668">
        <ele>118</ele>
        <time>2019-03-30T13:58:17Z</time>
      </trkpt>
      <trkpt lat="49.34229" lon="3.98663">
        <ele>118</ele>
        <time>2019-03-30T13:58:18Z</time>
      </trkpt>
      <trkpt lat="49.34226" lon="3.98658">
        <ele>118</ele>
        <time>2019-03-30T13:58:19Z</time>
      </trkpt>
      <trkpt lat="49.34222" lon="3.98654">
        <ele>118</ele>
        <time>2019-03-30T13:58:20Z</time>
      </trkpt>
      <trkpt lat="49.3422" lon="3.98649">
        <ele>118</ele>
        <time>2019-03-30T13:58:21Z</time>
      </trkpt>
      <trkpt lat="49.34217" lon="3.98645">
        <ele>119</ele>
        <time>2019-03-30T13:58:22Z</time>
      </trkpt>
      <trkpt lat="49.34213" lon="3.98641">
        <ele>119</ele>
        <time>2019-03-30T13:58:23Z</time>
      </trkpt>
      <trkpt lat="49.3421" lon="3.98637">
        <ele>119</ele>
        <time>2019-03-30T13:58:24Z</time>
      </trkpt>
      <trkpt lat="49.34207" lon="3.98633">
        <ele>119</ele>
        <time>2019-03-30T13:58:25Z</time>
      </trkpt>
      <trkpt lat="49.34204" lon="3.98628">
        <ele>119</ele>
        <time>2019-03-30T13:58:26Z</time>
      </trkpt>
      <trkpt lat="49.342" lon="3.98623">
        <ele>119</ele>
        <time>2019-03-30T13:58:27Z</time>
      </trkpt>
      <trkpt lat="49.34197" lon="3.98618">
        <ele>119</ele>
        <time>2019-03-30T13:58:28Z</time>
      </trkpt>
      <trkpt lat="49.34194" lon="3.98613">
        <ele>119</ele>
        <time>2019-03-30T13:58:29Z</time>
      </trkpt>
      <trkpt lat="49.3419" lon="3.98609">
        <ele>119</ele>
        <time>2019-03-30T13:58:30Z</time>
      </trkpt>
      <trkpt lat="49.34187" lon="3.98605">
        <ele>119</ele>
        <time>2019-03-30T13:58:31Z</time>
      </trkpt>
      <trkpt lat="49.34184" lon="3.986">
        <ele>119</ele>
        <time>2019-03-30T13:58:32Z</time>
      </trkpt>
      <trkpt lat="49.34181" lon="3.98595">
        <ele>120</ele>
        <time>2019-03-30T13:58:33Z</time>
      </trkpt>
      <trkpt lat="49.34178" lon="3.98591">
        <ele>120</ele>
        <time>2019-03-30T13:58:34Z</time>
      </trkpt>
      <trkpt lat="49.34176" lon="3.98585">
        <ele>120</ele>
        <time>2019-03-30T13:58:35Z</time>
      </trkpt>
      <trkpt lat="49.34173" lon="3.9858">
        <ele>120</ele>
        <time>2019-03-30T13:58:36Z</time>
      </trkpt>
      <trkpt lat="49.3417" lon="3.98577">
        <ele>119</ele>
        <time>2019-03-30T13:58:37Z</time>
      </trkpt>
      <trkpt lat="49.34167" lon="3.98573">
        <ele>119</ele>
        <time>2019-03-30T13:58:38Z</time>
      </trkpt>
      <trkpt lat="49.34165" lon="3.98569">
        <ele>119</ele>
        <time>2019-03-30T13:58:39Z</time>
      </trkpt>
      <trkpt lat="49.34162" lon="3.98566">
        <ele>120</ele>
        <time>2019-03-30T13:58:40Z</time>
      </trkpt>
      <trkpt lat="49.3416" lon="3.98563">
        <ele>120</ele>
        <time>2019-03-30T13:58:41Z</time>
      </trkpt>
      <trkpt lat="49.34158" lon="3.9856">
        <ele>120</ele>
        <time>2019-03-30T13:58:42Z</time>
      </trkpt>
      <trkpt lat="49.34156" lon="3.98557">
        <ele>120</ele>
        <time>2019-03-30T13:58:43Z</time>
      </trkpt>
      <trkpt lat="49.34154" lon="3.98554">
        <ele>120</ele>
        <time>2019-03-30T13:58:44Z</time>
      </trkpt>
      <trkpt lat="49.34152" lon="3.9855">
        <ele>120</ele>
        <time>2019-03-30T13:58:45Z</time>
      </trkpt>
      <trkpt lat="49.34149" lon="3.98546">
        <ele>120</ele>
        <time>2019-03-30T13:58:46Z</time>
      </trkpt>
      <trkpt lat="49.34146" lon="3.98543">
        <ele>120</ele>
        <time>2019-03-30T13:58:47Z</time>
      </trkpt>
      <trkpt lat="49.34144" lon="3.98539">
        <ele>120</ele>
        <time>2019-03-30T13:58:48Z</time>
      </trkpt>
      <trkpt lat="49.34141" lon="3.98536">
        <ele>120</ele>
        <time>2019-03-30T13:58:49Z</time>
      </trkpt>
      <trkpt lat="49.34138" lon="3.98535">
        <ele>120</ele>
        <time>2019-03-30T13:58:50Z</time>
      </trkpt>
      <trkpt lat="49.34135" lon="3.98537">
        <ele>120</ele>
        <time>2019-03-30T13:58:51Z</time>
      </trkpt>
      <trkpt lat="49.34132" lon="3.98541">
        <ele>120</ele>
        <time>2019-03-30T13:58:52Z</time>
      </trkpt>
      <trkpt lat="49.3413" lon="3.98545">
        <ele>120</ele>
        <time>2019-03-30T13:58:53Z</time>
      </trkpt>
      <trkpt lat="49.34127" lon="3.98549">
        <ele>120</ele>
        <time>2019-03-30T13:58:54Z</time>
      </trkpt>
      <trkpt lat="49.34125" lon="3.98553">
        <ele>120</ele>
        <time>2019-03-30T13:58:55Z</time>
      </trkpt>
      <trkpt lat="49.34122" lon="3.98557">
        <ele>120</ele>
        <time>2019-03-30T13:58:56Z</time>
      </trkpt>
      <trkpt lat="49.34119" lon="3.98561">
        <ele>120</ele>
        <time>2019-03-30T13:58:57Z</time>
      </trkpt>
      <trkpt lat="49.34116" lon="3.98565">
        <ele>119</ele>
        <time>2019-03-30T13:58:58Z</time>
      </trkpt>
      <trkpt lat="49.34113" lon="3.98568">
        <ele>119</ele>
        <time>2019-03-30T13:58:59Z</time>
      </trkpt>
      <trkpt lat="49.3411" lon="3.98571">
        <ele>119</ele>
        <time>2019-03-30T13:59:00Z</time>
      </trkpt>
      <trkpt lat="49.34106" lon="3.98574">
        <ele>120</ele>
        <time>2019-03-30T13:59:01Z</time>
      </trkpt>
      <trkpt lat="49.34104" lon="3.98578">
        <ele>120</ele>
        <time>2019-03-30T13:59:02Z</time>
      </trkpt>
      <trkpt lat="49.34101" lon="3.98581">
        <ele>120</ele>
        <time>2019-03-30T13:59:03Z</time>
      </trkpt>
      <trkpt lat="49.34098" lon="3.98584">
        <ele>120</ele>
        <time>2019-03-30T13:59:04Z</time>
      </trkpt>
      <trkpt lat="49.34095" lon="3.98587">
        <ele>120</ele>
        <time>2019-03-30T13:59:05Z</time>
      </trkpt>
      <trkpt lat="49.34092" lon="3.9859">
        <ele>120</ele>
        <time>2019-03-30T13:59:06Z</time>
      </trkpt>
      <trkpt lat="49.34088" lon="3.98593">
        <ele>120</ele>
        <time>2019-03-30T13:59:07Z</time>
      </trkpt>
      <trkpt lat="49.34085" lon="3.98596">
        <ele>120</ele>
        <time>2019-03-30T13:59:08Z</time>
      </trkpt>
      <trkpt lat="49.34082" lon="3.986">
        <ele>121</ele>
        <time>2019-03-30T13:59:09Z</time>
      </trkpt>
      <trkpt lat="49.34079" lon="3.98604">
        <ele>121</ele>
        <time>2019-03-30T13:59:10Z</time>
      </trkpt>
      <trkpt lat="49.34076" lon="3.98607">
        <ele>121</ele>
        <time>2019-03-30T13:59:11Z</time>
      </trkpt>
      <trkpt lat="49.34072" lon="3.98611">
        <ele>121</ele>
        <time>2019-03-30T13:59:12Z</time>
      </trkpt>
      <trkpt lat="49.34069" lon="3.98614">
        <ele>121</ele>
        <time>2019-03-30T13:59:13Z</time>
      </trkpt>
      <trkpt lat="49.34066" lon="3.98617">
        <ele>121</ele>
        <time>2019-03-30T13:59:14Z</time>
      </trkpt>
      <trkpt lat="49.34063" lon="3.9862">
        <ele>121</ele>
        <time>2019-03-30T13:59:15Z</time>
      </trkpt>
      <trkpt lat="49.34059" lon="3.98623">
        <ele>121</ele>
        <time>2019-03-30T13:59:16Z</time>
      </trkpt>
      <trkpt lat="49.34056" lon="3.98627">
        <ele>121</ele>
        <time>2019-03-30T13:59:17Z</time>
      </trkpt>
      <trkpt lat="49.34053" lon="3.9863">
        <ele>121</ele>
        <time>2019-03-30T13:59:18Z</time>
      </trkpt>
      <trkpt lat="49.3405" lon="3.98633">
        <ele>121</ele>
        <time>2019-03-30T13:59:19Z</time>
      </trkpt>
      <trkpt lat="49.34047" lon="3.98637">
        <ele>121</ele>
        <time>2019-03-30T13:59:20Z</time>
      </trkpt>
      <trkpt lat="49.34043" lon="3.9864">
        <ele>121</ele>
        <time>2019-03-30T13:59:21Z</time>
      </trkpt>
      <trkpt lat="49.3404" lon="3.98643">
        <ele>121</ele>
        <time>2019-03-30T13:59:22Z</time>
      </trkpt>
      <trkpt lat="49.34037" lon="3.98646">
        <ele>121</ele>
        <time>2019-03-30T13:59:23Z</time>
      </trkpt>
      <trkpt lat="49.34034" lon="3.9865">
        <ele>121</ele>
        <time>2019-03-30T13:59:24Z</time>
      </trkpt>
      <trkpt lat="49.34031" lon="3.98653">
        <ele>121</ele>
        <time>2019-03-30T13:59:25Z</time>
      </trkpt>
      <trkpt lat="49.34027" lon="3.98656">
        <ele>121</ele>
        <time>2019-03-30T13:59:26Z</time>
      </trkpt>
      <trkpt lat="49.34024" lon="3.98659">
        <ele>121</ele>
        <time>2019-03-30T13:59:27Z</time>
      </trkpt>
      <trkpt lat="49.34021" lon="3.98663">
        <ele>122</ele>
        <time>2019-03-30T13:59:28Z</time>
      </trkpt>
      <trkpt lat="49.34018" lon="3.98667">
        <ele>122</ele>
        <time>2019-03-30T13:59:29Z</time>
      </trkpt>
      <trkpt lat="49.34014" lon="3.98671">
        <ele>122</ele>
        <time>2019-03-30T13:59:30Z</time>
      </trkpt>
      <trkpt lat="49.34011" lon="3.98674">
        <ele>122</ele>
        <time>2019-03-30T13:59:31Z</time>
      </trkpt>
      <trkpt lat="49.34007" lon="3.98678">
        <ele>122</ele>
        <time>2019-03-30T13:59:32Z</time>
      </trkpt>
      <trkpt lat="49.34004" lon="3.98681">
        <ele>122</ele>
        <time>2019-03-30T13:59:33Z</time>
      </trkpt>
      <trkpt lat="49.34001" lon="3.98685">
        <ele>122</ele>
        <time>2019-03-30T13:59:34Z</time>
      </trkpt>
      <trkpt lat="49.33997" lon="3.98688">
        <ele>122</ele>
        <time>2019-03-30T13:59:35Z</time>
      </trkpt>
      <trkpt lat="49.33994" lon="3.98692">
        <ele>122</ele>
        <time>2019-03-30T13:59:36Z</time>
      </trkpt>
      <trkpt lat="49.3399" lon="3.98696">
        <ele>122</ele>
        <time>2019-03-30T13:59:37Z</time>
      </trkpt>
      <trkpt lat="49.33987" lon="3.98699">
        <ele>122</ele>
        <time>2019-03-30T13:59:38Z</time>
      </trkpt>
      <trkpt lat="49.33984" lon="3.98702">
        <ele>123</ele>
        <time>2019-03-30T13:59:39Z</time>
      </trkpt>
      <trkpt lat="49.3398" lon="3.98706">
        <ele>123</ele>
        <time>2019-03-30T13:59:40Z</time>
      </trkpt>
      <trkpt lat="49.33977" lon="3.9871">
        <ele>123</ele>
        <time>2019-03-30T13:59:41Z</time>
      </trkpt>
      <trkpt lat="49.33973" lon="3.98713">
        <ele>123</ele>
        <time>2019-03-30T13:59:42Z</time>
      </trkpt>
      <trkpt lat="49.3397" lon="3.98717">
        <ele>123</ele>
        <time>2019-03-30T13:59:43Z</time>
      </trkpt>
      <trkpt lat="49.33967" lon="3.98721">
        <ele>123</ele>
        <time>2019-03-30T13:59:44Z</time>
      </trkpt>
      <trkpt lat="49.33963" lon="3.98724">
        <ele>123</ele>
        <time>2019-03-30T13:59:45Z</time>
      </trkpt>
      <trkpt lat="49.33959" lon="3.98728">
        <ele>123</ele>
        <time>2019-03-30T13:59:46Z</time>
      </trkpt>
      <trkpt lat="49.33956" lon="3.98731">
        <ele>123</ele>
        <time>2019-03-30T13:59:47Z</time>
      </trkpt>
      <trkpt lat="49.33952" lon="3.98735">
        <ele>123</ele>
        <time>2019-03-30T13:59:48Z</time>
      </trkpt>
      <trkpt lat="49.33949" lon="3.98739">
        <ele>123</ele>
        <time>2019-03-30T13:59:49Z</time>
      </trkpt>
      <trkpt lat="49.33945" lon="3.98743">
        <ele>123</ele>
        <time>2019-03-30T13:59:50Z</time>
      </trkpt>
      <trkpt lat="49.33942" lon="3.98746">
        <ele>123</ele>
        <time>2019-03-30T13:59:51Z</time>
      </trkpt>
      <trkpt lat="49.33938" lon="3.9875">
        <ele>123</ele>
        <time>2019-03-30T13:59:52Z</time>
      </trkpt>
      <trkpt lat="49.33935" lon="3.98753">
        <ele>123</ele>
        <time>2019-03-30T13:59:53Z</time>
      </trkpt>
      <trkpt lat="49.33932" lon="3.98756">
        <ele>123</ele>
        <time>2019-03-30T13:59:54Z</time>
      </trkpt>
      <trkpt lat="49.33928" lon="3.98759">
        <ele>123</ele>
        <time>2019-03-30T13:59:55Z</time>
      </trkpt>
      <trkpt lat="49.33925" lon="3.98763">
        <ele>123</ele>
        <time>2019-03-30T13:59:56Z</time>
      </trkpt>
      <trkpt lat="49.33922" lon="3.98766">
        <ele>123</ele>
        <time>2019-03-30T13:59:57Z</time>
      </trkpt>
      <trkpt lat="49.33919" lon="3.9877">
        <ele>123</ele>
        <time>2019-03-30T13:59:58Z</time>
      </trkpt>
      <trkpt lat="49.33915" lon="3.98773">
        <ele>123</ele>
        <time>2019-03-30T13:59:59Z</time>
      </trkpt>
      <trkpt lat="49.33912" lon="3.98777">
        <ele>123</ele>
        <time>2019-03-30T14:00:00Z</time>
      </trkpt>
      <trkpt lat="49.33909" lon="3.9878">
        <ele>123</ele>
        <time>2019-03-30T14:00:01Z</time>
      </trkpt>
      <trkpt lat="49.33905" lon="3.98783">
        <ele>123</ele>
        <time>2019-03-30T14:00:02Z</time>
      </trkpt>
      <trkpt lat="49.33902" lon="3.98786">
        <ele>123</ele>
        <time>2019-03-30T14:00:03Z</time>
      </trkpt>
      <trkpt lat="49.33899" lon="3.9879">
        <ele>123</ele>
        <time>2019-03-30T14:00:04Z</time>
      </trkpt>
      <trkpt lat="49.33895" lon="3.98793">
        <ele>123</ele>
        <time>2019-03-30T14:00:05Z</time>
      </trkpt>
      <trkpt lat="49.33892" lon="3.98797">
        <ele>123</ele>
        <time>2019-03-30T14:00:06Z</time>
      </trkpt>
      <trkpt lat="49.33889" lon="3.98801">
        <ele>123</ele>
        <time>2019-03-30T14:00:07Z</time>
      </trkpt>
      <trkpt lat="49.33885" lon="3.98805">
        <ele>124</ele>
        <time>2019-03-30T14:00:08Z</time>
      </trkpt>
      <trkpt lat="49.33882" lon="3.98808">
        <ele>124</ele>
        <time>2019-03-30T14:00:09Z</time>
      </trkpt>
      <trkpt lat="49.33878" lon="3.98811">
        <ele>124</ele>
        <time>2019-03-30T14:00:10Z</time>
      </trkpt>
      <trkpt lat="49.33875" lon="3.98815">
        <ele>124</ele>
        <time>2019-03-30T14:00:11Z</time>
      </trkpt>
      <trkpt lat="49.33871" lon="3.98818">
        <ele>123</ele>
        <time>2019-03-30T14:00:12Z</time>
      </trkpt>
      <trkpt lat="49.33867" lon="3.98823">
        <ele>123</ele>
        <time>2019-03-30T14:00:13Z</time>
      </trkpt>
      <trkpt lat="49.33863" lon="3.98827">
        <ele>123</ele>
        <time>2019-03-30T14:00:14Z</time>
      </trkpt>
      <trkpt lat="49.33859" lon="3.98831">
        <ele>123</ele>
        <time>2019-03-30T14:00:15Z</time>
      </trkpt>
      <trkpt lat="49.33855" lon="3.98835">
        <ele>123</ele>
        <time>2019-03-30T14:00:16Z</time>
      </trkpt>
      <trkpt lat="49.33851" lon="3.98839">
        <ele>123</ele>
        <time>2019-03-30T14:00:17Z</time>
      </trkpt>
      <trkpt lat="49.33846" lon="3.98843">
        <ele>123</ele>
        <time>2019-03-30T14:00:18Z</time>
      </trkpt>
      <trkpt lat="49.33842" lon="3.98848">
        <ele>123</ele>
        <time>2019-03-30T14:00:19Z</time>
      </trkpt>
      <trkpt lat="49.33838" lon="3.98851">
        <ele>123</ele>
        <time>2019-03-30T14:00:20Z</time>
      </trkpt>
      <trkpt lat="49.33834" lon="3.98855">
        <ele>123</ele>
        <time>2019-03-30T14:00:21Z</time>
      </trkpt>
      <trkpt lat="49.33831" lon="3.98859">
        <ele>123</ele>
        <time>2019-03-30T14:00:22Z</time>
      </trkpt>
      <trkpt lat="49.33827" lon="3.98863">
        <ele>123</ele>
        <time>2019-03-30T14:00:23Z</time>
      </trkpt>
      <trkpt lat="49.33823" lon="3.98867">
        <ele>123</ele>
        <time>2019-03-30T14:00:24Z</time>
      </trkpt>
      <trkpt lat="49.3382" lon="3.9887">
        <ele>123</ele>
        <time>2019-03-30T14:00:25Z</time>
      </trkpt>
      <trkpt lat="49.33816" lon="3.98874">
        <ele>123</ele>
        <time>2019-03-30T14:00:26Z</time>
      </trkpt>
      <trkpt lat="49.33813" lon="3.98878">
        <ele>123</ele>
        <time>2019-03-30T14:00:27Z</time>
      </trkpt>
      <trkpt lat="49.33809" lon="3.98881">
        <ele>123</ele>
        <time>2019-03-30T14:00:28Z</time>
      </trkpt>
      <trkpt lat="49.33806" lon="3.98885">
        <ele>122</ele>
        <time>2019-03-30T14:00:29Z</time>
      </trkpt>
      <trkpt lat="49.33802" lon="3.98888">
        <ele>122</ele>
        <time>2019-03-30T14:00:30Z</time>
      </trkpt>
      <trkpt lat="49.33797" lon="3.98892">
        <ele>122</ele>
        <time>2019-03-30T14:00:31Z</time>
      </trkpt>
      <trkpt lat="49.33793" lon="3.98895">
        <ele>122</ele>
        <time>2019-03-30T14:00:32Z</time>
      </trkpt>
      <trkpt lat="49.33788" lon="3.98899">
        <ele>121</ele>
        <time>2019-03-30T14:00:33Z</time>
      </trkpt>
      <trkpt lat="49.33784" lon="3.98904">
        <ele>121</ele>
        <time>2019-03-30T14:00:34Z</time>
      </trkpt>
      <trkpt lat="49.33779" lon="3.98908">
        <ele>121</ele>
        <time>2019-03-30T14:00:35Z</time>
      </trkpt>
      <trkpt lat="49.33774" lon="3.98913">
        <ele>121</ele>
        <time>2019-03-30T14:00:36Z</time>
      </trkpt>
      <trkpt lat="49.33769" lon="3.98918">
        <ele>121</ele>
        <time>2019-03-30T14:00:37Z</time>
      </trkpt>
      <trkpt lat="49.33765" lon="3.98923">
        <ele>121</ele>
        <time>2019-03-30T14:00:38Z</time>
      </trkpt>
      <trkpt lat="49.3376" lon="3.98927">
        <ele>121</ele>
        <time>2019-03-30T14:00:39Z</time>
      </trkpt>
      <trkpt lat="49.33755" lon="3.98931">
        <ele>121</ele>
        <time>2019-03-30T14:00:40Z</time>
      </trkpt>
      <trkpt lat="49.3375" lon="3.98936">
        <ele>121</ele>
        <time>2019-03-30T14:00:41Z</time>
      </trkpt>
      <trkpt lat="49.33746" lon="3.9894">
        <ele>121</ele>
        <time>2019-03-30T14:00:42Z</time>
      </trkpt>
      <trkpt lat="49.33742" lon="3.98944">
        <ele>120</ele>
        <time>2019-03-30T14:00:43Z</time>
      </trkpt>
      <trkpt lat="49.33737" lon="3.98948">
        <ele>120</ele>
        <time>2019-03-30T14:00:44Z</time>
      </trkpt>
      <trkpt lat="49.33733" lon="3.98952">
        <ele>120</ele>
        <time>2019-03-30T14:00:45Z</time>
      </trkpt>
      <trkpt lat="49.33729" lon="3.98957">
        <ele>120</ele>
        <time>2019-03-30T14:00:46Z</time>
      </trkpt>
      <trkpt lat="49.33725" lon="3.98961">
        <ele>120</ele>
        <time>2019-03-30T14:00:47Z</time>
      </trkpt>
      <trkpt lat="49.3372" lon="3.98965">
        <ele>120</ele>
        <time>2019-03-30T14:00:48Z</time>
      </trkpt>
      <trkpt lat="49.33716" lon="3.9897">
        <ele>120</ele>
        <time>2019-03-30T14:00:49Z</time>
      </trkpt>
      <trkpt lat="49.33711" lon="3.98974">
        <ele>120</ele>
        <time>2019-03-30T14:00:50Z</time>
      </trkpt>
      <trkpt lat="49.33705" lon="3.98978">
        <ele>120</ele>
        <time>2019-03-30T14:00:51Z</time>
      </trkpt>
      <trkpt lat="49.337" lon="3.98982">
        <ele>120</ele>
        <time>2019-03-30T14:00:52Z</time>
      </trkpt>
      <trkpt lat="49.33695" lon="3.98987">
        <ele>120</ele>
        <time>2019-03-30T14:00:53Z</time>
      </trkpt>
      <trkpt lat="49.3369" lon="3.98992">
        <ele>120</ele>
        <time>2019-03-30T14:00:54Z</time>
      </trkpt>
      <trkpt lat="49.33685" lon="3.98997">
        <ele>121</ele>
        <time>2019-03-30T14:00:55Z</time>
      </trkpt>
      <trkpt lat="49.3368" lon="3.99001">
        <ele>121</ele>
        <time>2019-03-30T14:00:56Z</time>
      </trkpt>
      <trkpt lat="49.33675" lon="3.99006">
        <ele>121</ele>
        <time>2019-03-30T14:00:57Z</time>
      </trkpt>
      <trkpt lat="49.3367" lon="3.99011">
        <ele>121</ele>
        <time>2019-03-30T14:00:58Z</time>
      </trkpt>
      <trkpt lat="49.33665" lon="3.99016">
        <ele>121</ele>
        <time>2019-03-30T14:00:59Z</time>
      </trkpt>
      <trkpt lat="49.33659" lon="3.99021">
        <ele>121</ele>
        <time>2019-03-30T14:01:00Z</time>
      </trkpt>
      <trkpt lat="49.33654" lon="3.99026">
        <ele>121</ele>
        <time>2019-03-30T14:01:01Z</time>
      </trkpt>
      <trkpt lat="49.33649" lon="3.99031">
        <ele>121</ele>
        <time>2019-03-30T14:01:02Z</time>
      </trkpt>
      <trkpt lat="49.33644" lon="3.99036">
        <ele>121</ele>
        <time>2019-03-30T14:01:03Z</time>
      </trkpt>
      <trkpt lat="49.33639" lon="3.9904">
        <ele>122</ele>
        <time>2019-03-30T14:01:04Z</time>
      </trkpt>
      <trkpt lat="49.33634" lon="3.99045">
        <ele>122</ele>
        <time>2019-03-30T14:01:05Z</time>
      </trkpt>
      <trkpt lat="49.33629" lon="3.99049">
        <ele>122</ele>
        <time>2019-03-30T14:01:06Z</time>
      </trkpt>
      <trkpt lat="49.33625" lon="3.99053">
        <ele>122</ele>
        <time>2019-03-30T14:01:07Z</time>
      </trkpt>
      <trkpt lat="49.33621" lon="3.99056">
        <ele>122</ele>
        <time>2019-03-30T14:01:08Z</time>
      </trkpt>
      <trkpt lat="49.33617" lon="3.99061">
        <ele>122</ele>
        <time>2019-03-30T14:01:09Z</time>
      </trkpt>
      <trkpt lat="49.33612" lon="3.99065">
        <ele>122</ele>
        <time>2019-03-30T14:01:10Z</time>
      </trkpt>
      <trkpt lat="49.33608" lon="3.99069">
        <ele>122</ele>
        <time>2019-03-30T14:01:11Z</time>
      </trkpt>
      <trkpt lat="49.33604" lon="3.99073">
        <ele>122</ele>
        <time>2019-03-30T14:01:12Z</time>
      </trkpt>
      <trkpt lat="49.336" lon="3.99077">
        <ele>122</ele>
        <time>2019-03-30T14:01:13Z</time>
      </trkpt>
      <trkpt lat="49.33595" lon="3.99081">
        <ele>123</ele>
        <time>2019-03-30T14:01:14Z</time>
      </trkpt>
      <trkpt lat="49.33591" lon="3.99085">
        <ele>123</ele>
        <time>2019-03-30T14:01:15Z</time>
      </trkpt>
      <trkpt lat="49.33587" lon="3.99088">
        <ele>123</ele>
        <time>2019-03-30T14:01:16Z</time>
      </trkpt>
      <trkpt lat="49.33582" lon="3.99092">
        <ele>123</ele>
        <time>2019-03-30T14:01:17Z</time>
      </trkpt>
      <trkpt lat="49.33578" lon="3.99097">
        <ele>123</ele>
        <time>2019-03-30T14:01:18Z</time>
      </trkpt>
      <trkpt lat="49.33574" lon="3.991">
        <ele>123</ele>
        <time>2019-03-30T14:01:19Z</time>
      </trkpt>
      <trkpt lat="49.3357" lon="3.99104">
        <ele>123</ele>
        <time>2019-03-30T14:01:20Z</time>
      </trkpt>
      <trkpt lat="49.33566" lon="3.99108">
        <ele>124</ele>
        <time>2019-03-30T14:01:21Z</time>
      </trkpt>
      <trkpt lat="49.33562" lon="3.99112">
        <ele>124</ele>
        <time>2019-03-30T14:01:22Z</time>
      </trkpt>
      <trkpt lat="49.33557" lon="3.99116">
        <ele>124</ele>
        <time>2019-03-30T14:01:23Z</time>
      </trkpt>
      <trkpt lat="49.33554" lon="3.9912">
        <ele>124</ele>
        <time>2019-03-30T14:01:24Z</time>
      </trkpt>
      <trkpt lat="49.3355" lon="3.99123">
        <ele>124</ele>
        <time>2019-03-30T14:01:25Z</time>
      </trkpt>
      <trkpt lat="49.33545" lon="3.99127">
        <ele>124</ele>
        <time>2019-03-30T14:01:26Z</time>
      </trkpt>
      <trkpt lat="49.33542" lon="3.99131">
        <ele>124</ele>
        <time>2019-03-30T14:01:27Z</time>
      </trkpt>
      <trkpt lat="49.33538" lon="3.99135">
        <ele>124</ele>
        <time>2019-03-30T14:01:28Z</time>
      </trkpt>
      <trkpt lat="49.33534" lon="3.99139">
        <ele>124</ele>
        <time>2019-03-30T14:01:29Z</time>
      </trkpt>
      <trkpt lat="49.3353" lon="3.99143">
        <ele>124</ele>
        <time>2019-03-30T14:01:30Z</time>
      </trkpt>
      <trkpt lat="49.33525" lon="3.99146">
        <ele>124</ele>
        <time>2019-03-30T14:01:31Z</time>
      </trkpt>
      <trkpt lat="49.33521" lon="3.99149">
        <ele>124</ele>
        <time>2019-03-30T14:01:32Z</time>
      </trkpt>
      <trkpt lat="49.33517" lon="3.99153">
        <ele>124</ele>
        <time>2019-03-30T14:01:33Z</time>
      </trkpt>
      <trkpt lat="49.33513" lon="3.99156">
        <ele>124</ele>
        <time>2019-03-30T14:01:34Z</time>
      </trkpt>
      <trkpt lat="49.33509" lon="3.9916">
        <ele>124</ele>
        <time>2019-03-30T14:01:35Z</time>
      </trkpt>
      <trkpt lat="49.33505" lon="3.99164">
        <ele>125</ele>
        <time>2019-03-30T14:01:36Z</time>
      </trkpt>
      <trkpt lat="49.33502" lon="3.99168">
        <ele>125</ele>
        <time>2019-03-30T14:01:37Z</time>
      </trkpt>
      <trkpt lat="49.33497" lon="3.99171">
        <ele>125</ele>
        <time>2019-03-30T14:01:38Z</time>
      </trkpt>
      <trkpt lat="49.33493" lon="3.99175">
        <ele>125</ele>
        <time>2019-03-30T14:01:39Z</time>
      </trkpt>
      <trkpt lat="49.33489" lon="3.99179">
        <ele>125</ele>
        <time>2019-03-30T14:01:40Z</time>
      </trkpt>
      <trkpt lat="49.33485" lon="3.99183">
        <ele>125</ele>
        <time>2019-03-30T14:01:41Z</time>
      </trkpt>
      <trkpt lat="49.33481" lon="3.99187">
        <ele>125</ele>
        <time>2019-03-30T14:01:42Z</time>
      </trkpt>
      <trkpt lat="49.33477" lon="3.9919">
        <ele>125</ele>
        <time>2019-03-30T14:01:43Z</time>
      </trkpt>
      <trkpt lat="49.33473" lon="3.99194">
        <ele>125</ele>
        <time>2019-03-30T14:01:44Z</time>
      </trkpt>
      <trkpt lat="49.3347" lon="3.99198">
        <ele>125</ele>
        <time>2019-03-30T14:01:45Z</time>
      </trkpt>
      <trkpt lat="49.33466" lon="3.99201">
        <ele>125</ele>
        <time>2019-03-30T14:01:46Z</time>
      </trkpt>
      <trkpt lat="49.33462" lon="3.99204">
        <ele>125</ele>
        <time>2019-03-30T14:01:47Z</time>
      </trkpt>
      <trkpt lat="49.33458" lon="3.99208">
        <ele>125</ele>
        <time>2019-03-30T14:01:48Z</time>
      </trkpt>
      <trkpt lat="49.33453" lon="3.99211">
        <ele>125</ele>
        <time>2019-03-30T14:01:49Z</time>
      </trkpt>
      <trkpt lat="49.33449" lon="3.99215">
        <ele>125</ele>
        <time>2019-03-30T14:01:50Z</time>
      </trkpt>
      <trkpt lat="49.33446" lon="3.99219">
        <ele>125</ele>
        <time>2019-03-30T14:01:51Z</time>
      </trkpt>
      <trkpt lat="49.33442" lon="3.99222">
        <ele>125</ele>
        <time>2019-03-30T14:01:52Z</time>
      </trkpt>
      <trkpt lat="49.33438" lon="3.99225">
        <ele>125</ele>
        <time>2019-03-30T14:01:53Z</time>
      </trkpt>
      <trkpt lat="49.33434" lon="3.99228">
        <ele>125</ele>
        <time>2019-03-30T14:01:54Z</time>
      </trkpt>
      <trkpt lat="49.3343" lon="3.99232">
        <ele>125</ele>
        <time>2019-03-30T14:01:55Z</time>
      </trkpt>
      <trkpt lat="49.33427" lon="3.99235">
        <ele>125</ele>
        <time>2019-03-30T14:01:56Z</time>
      </trkpt>
      <trkpt lat="49.33423" lon="3.99239">
        <ele>125</ele>
        <time>2019-03-30T14:01:57Z</time>
      </trkpt>
      <trkpt lat="49.33419" lon="3.99242">
        <ele>125</ele>
        <time>2019-03-30T14:01:58Z</time>
      </trkpt>
      <trkpt lat="49.33415" lon="3.99245">
        <ele>124</ele>
        <time>2019-03-30T14:01:59Z</time>
      </trkpt>
      <trkpt lat="49.33412" lon="3.99248">
        <ele>124</ele>
        <time>2019-03-30T14:02:00Z</time>
      </trkpt>
      <trkpt lat="49.33408" lon="3.99251">
        <ele>124</ele>
        <time>2019-03-30T14:02:01Z</time>
      </trkpt>
      <trkpt lat="49.33404" lon="3.99255">
        <ele>124</ele>
        <time>2019-03-30T14:02:02Z</time>
      </trkpt>
      <trkpt lat="49.33401" lon="3.99258">
        <ele>125</ele>
        <time>2019-03-30T14:02:03Z</time>
      </trkpt>
      <trkpt lat="49.33397" lon="3.99261">
        <ele>125</ele>
        <time>2019-03-30T14:02:04Z</time>
      </trkpt>
      <trkpt lat="49.33393" lon="3.99264">
        <ele>125</ele>
        <time>2019-03-30T14:02:05Z</time>
      </trkpt>
      <trkpt lat="49.3339" lon="3.99267">
        <ele>125</ele>
        <time>2019-03-30T14:02:06Z</time>
      </trkpt>
      <trkpt lat="49.33386" lon="3.9927">
        <ele>126</ele>
        <time>2019-03-30T14:02:07Z</time>
      </trkpt>
      <trkpt lat="49.33383" lon="3.99273">
        <ele>125</ele>
        <time>2019-03-30T14:02:08Z</time>
      </trkpt>
      <trkpt lat="49.33379" lon="3.99276">
        <ele>125</ele>
        <time>2019-03-30T14:02:09Z</time>
      </trkpt>
      <trkpt lat="49.33376" lon="3.99279">
        <ele>125</ele>
        <time>2019-03-30T14:02:10Z</time>
      </trkpt>
      <trkpt lat="49.33373" lon="3.99283">
        <ele>125</ele>
        <time>2019-03-30T14:02:11Z</time>
      </trkpt>
      <trkpt lat="49.33369" lon="3.99285">
        <ele>125</ele>
        <time>2019-03-30T14:02:12Z</time>
      </trkpt>
      <trkpt lat="49.33366" lon="3.99288">
        <ele>125</ele>
        <time>2019-03-30T14:02:13Z</time>
      </trkpt>
      <trkpt lat="49.33363" lon="3.99291">
        <ele>125</ele>
        <time>2019-03-30T14:02:14Z</time>
      </trkpt>
      <trkpt lat="49.3336" lon="3.99294">
        <ele>125</ele>
        <time>2019-03-30T14:02:15Z</time>
      </trkpt>
      <trkpt lat="49.33357" lon="3.99296">
        <ele>126</ele>
        <time>2019-03-30T14:02:16Z</time>
      </trkpt>
      <trkpt lat="49.33354" lon="3.99299">
        <ele>126</ele>
        <time>2019-03-30T14:02:17Z</time>
      </trkpt>
      <trkpt lat="49.33351" lon="3.99302">
        <ele>125</ele>
        <time>2019-03-30T14:02:18Z</time>
      </trkpt>
      <trkpt lat="49.33348" lon="3.99305">
        <ele>125</ele>
        <time>2019-03-30T14:02:19Z</time>
      </trkpt>
      <trkpt lat="49.33345" lon="3.99307">
        <ele>125</ele>
        <time>2019-03-30T14:02:20Z</time>
      </trkpt>
      <trkpt lat="49.33342" lon="3.99309">
        <ele>125</ele>
        <time>2019-03-30T14:02:21Z</time>
      </trkpt>
      <trkpt lat="49.3334" lon="3.99312">
        <ele>125</ele>
        <time>2019-03-30T14:02:22Z</time>
      </trkpt>
      <trkpt lat="49.33337" lon="3.99314">
        <ele>125</ele>
        <time>2019-03-30T14:02:23Z</time>
      </trkpt>
      <trkpt lat="49.33334" lon="3.99316">
        <ele>125</ele>
        <time>2019-03-30T14:02:24Z</time>
      </trkpt>
      <trkpt lat="49.33332" lon="3.99318">
        <ele>125</ele>
        <time>2019-03-30T14:02:25Z</time>
      </trkpt>
      <trkpt lat="49.33329" lon="3.99321">
        <ele>125</ele>
        <time>2019-03-30T14:02:26Z</time>
      </trkpt>
      <trkpt lat="49.33326" lon="3.99323">
        <ele>125</ele>
        <time>2019-03-30T14:02:27Z</time>
      </trkpt>
      <trkpt lat="49.33323" lon="3.99326">
        <ele>125</ele>
        <time>2019-03-30T14:02:28Z</time>
      </trkpt>
      <trkpt lat="49.33321" lon="3.99328">
        <ele>124</ele>
        <time>2019-03-30T14:02:29Z</time>
      </trkpt>
      <trkpt lat="49.33318" lon="3.9933">
        <ele>124</ele>
        <time>2019-03-30T14:02:30Z</time>
      </trkpt>
      <trkpt lat="49.33316" lon="3.99332">
        <ele>125</ele>
        <time>2019-03-30T14:02:31Z</time>
      </trkpt>
      <trkpt lat="49.33313" lon="3.99334">
        <ele>125</ele>
        <time>2019-03-30T14:02:32Z</time>
      </trkpt>
      <trkpt lat="49.3331" lon="3.99336">
        <ele>124</ele>
        <time>2019-03-30T14:02:33Z</time>
      </trkpt>
      <trkpt lat="49.33307" lon="3.99338">
        <ele>124</ele>
        <time>2019-03-30T14:02:34Z</time>
      </trkpt>
      <trkpt lat="49.33305" lon="3.99341">
        <ele>124</ele>
        <time>2019-03-30T14:02:35Z</time>
      </trkpt>
      <trkpt lat="49.33302" lon="3.99343">
        <ele>124</ele>
        <time>2019-03-30T14:02:36Z</time>
      </trkpt>
      <trkpt lat="49.33299" lon="3.99346">
        <ele>124</ele>
        <time>2019-03-30T14:02:37Z</time>
      </trkpt>
      <trkpt lat="49.33296" lon="3.99349">
        <ele>125</ele>
        <time>2019-03-30T14:02:38Z</time>
      </trkpt>
      <trkpt lat="49.33293" lon="3.99351">
        <ele>125</ele>
        <time>2019-03-30T14:02:39Z</time>
      </trkpt>
      <trkpt lat="49.3329" lon="3.99354">
        <ele>124</ele>
        <time>2019-03-30T14:02:40Z</time>
      </trkpt>
      <trkpt lat="49.33287" lon="3.99356">
        <ele>124</ele>
        <time>2019-03-30T14:02:41Z</time>
      </trkpt>
      <trkpt lat="49.33284" lon="3.99358">
        <ele>124</ele>
        <time>2019-03-30T14:02:42Z</time>
      </trkpt>
      <trkpt lat="49.33281" lon="3.99361">
        <ele>124</ele>
        <time>2019-03-30T14:02:43Z</time>
      </trkpt>
      <trkpt lat="49.33278" lon="3.99364">
        <ele>124</ele>
        <time>2019-03-30T14:02:44Z</time>
      </trkpt>
      <trkpt lat="49.33276" lon="3.99366">
        <ele>124</ele>
        <time>2019-03-30T14:02:45Z</time>
      </trkpt>
      <trkpt lat="49.33273" lon="3.99368">
        <ele>124</ele>
        <time>2019-03-30T14:02:46Z</time>
      </trkpt>
      <trkpt lat="49.3327" lon="3.99371">
        <ele>125</ele>
        <time>2019-03-30T14:02:47Z</time>
      </trkpt>
      <trkpt lat="49.33268" lon="3.99373">
        <ele>125</ele>
        <time>2019-03-30T14:02:48Z</time>
      </trkpt>
      <trkpt lat="49.33265" lon="3.99376">
        <ele>125</ele>
        <time>2019-03-30T14:02:49Z</time>
      </trkpt>
      <trkpt lat="49.33262" lon="3.99378">
        <ele>125</ele>
        <time>2019-03-30T14:02:50Z</time>
      </trkpt>
      <trkpt lat="49.33259" lon="3.99381">
        <ele>125</ele>
        <time>2019-03-30T14:02:51Z</time>
      </trkpt>
      <trkpt lat="49.33256" lon="3.99383">
        <ele>125</ele>
        <time>2019-03-30T14:02:52Z</time>
      </trkpt>
      <trkpt lat="49.33254" lon="3.99386">
        <ele>125</ele>
        <time>2019-03-30T14:02:53Z</time>
      </trkpt>
      <trkpt lat="49.33251" lon="3.99388">
        <ele>125</ele>
        <time>2019-03-30T14:02:54Z</time>
      </trkpt>
      <trkpt lat="49.33248" lon="3.99391">
        <ele>125</ele>
        <time>2019-03-30T14:02:55Z</time>
      </trkpt>
      <trkpt lat="49.33246" lon="3.99394">
        <ele>125</ele>
        <time>2019-03-30T14:02:56Z</time>
      </trkpt>
      <trkpt lat="49.33243" lon="3.99397">
        <ele>125</ele>
        <time>2019-03-30T14:02:57Z</time>
      </trkpt>
      <trkpt lat="49.3324" lon="3.99399">
        <ele>124</ele>
        <time>2019-03-30T14:02:58Z</time>
      </trkpt>
      <trkpt lat="49.33237" lon="3.99401">
        <ele>124</ele>
        <time>2019-03-30T14:02:59Z</time>
      </trkpt>
      <trkpt lat="49.33234" lon="3.99403">
        <ele>125</ele>
        <time>2019-03-30T14:03:00Z</time>
      </trkpt>
      <trkpt lat="49.33231" lon="3.99406">
        <ele>125</ele>
        <time>2019-03-30T14:03:01Z</time>
      </trkpt>
      <trkpt lat="49.33229" lon="3.99408">
        <ele>125</ele>
        <time>2019-03-30T14:03:02Z</time>
      </trkpt>
      <trkpt lat="49.33226" lon="3.9941">
        <ele>125</ele>
        <time>2019-03-30T14:03:03Z</time>
      </trkpt>
      <trkpt lat="49.33223" lon="3.99412">
        <ele>125</ele>
        <time>2019-03-30T14:03:04Z</time>
      </trkpt>
      <trkpt lat="49.33221" lon="3.99414">
        <ele>125</ele>
        <time>2019-03-30T14:03:05Z</time>
      </trkpt>
      <trkpt lat="49.33218" lon="3.99416">
        <ele>125</ele>
        <time>2019-03-30T14:03:06Z</time>
      </trkpt>
      <trkpt lat="49.33216" lon="3.99419">
        <ele>125</ele>
        <time>2019-03-30T14:03:07Z</time>
      </trkpt>
      <trkpt lat="49.33214" lon="3.99421">
        <ele>125</ele>
        <time>2019-03-30T14:03:08Z</time>
      </trkpt>
      <trkpt lat="49.33211" lon="3.99423">
        <ele>125</ele>
        <time>2019-03-30T14:03:09Z</time>
      </trkpt>
      <trkpt lat="49.33208" lon="3.99425">
        <ele>125</ele>
        <time>2019-03-30T14:03:10Z</time>
      </trkpt>
      <trkpt lat="49.33205" lon="3.99428">
        <ele>125</ele>
        <time>2019-03-30T14:03:11Z</time>
      </trkpt>
      <trkpt lat="49.33203" lon="3.9943">
        <ele>126</ele>
        <time>2019-03-30T14:03:12Z</time>
      </trkpt>
      <trkpt lat="49.332" lon="3.99432">
        <ele>126</ele>
        <time>2019-03-30T14:03:13Z</time>
      </trkpt>
      <trkpt lat="49.33198" lon="3.99434">
        <ele>126</ele>
        <time>2019-03-30T14:03:14Z</time>
      </trkpt>
      <trkpt lat="49.33195" lon="3.99437">
        <ele>126</ele>
        <time>2019-03-30T14:03:15Z</time>
      </trkpt>
      <trkpt lat="49.33193" lon="3.99439">
        <ele>126</ele>
        <time>2019-03-30T14:03:16Z</time>
      </trkpt>
      <trkpt lat="49.3319" lon="3.99441">
        <ele>126</ele>
        <time>2019-03-30T14:03:17Z</time>
      </trkpt>
      <trkpt lat="49.33187" lon="3.99443">
        <ele>126</ele>
        <time>2019-03-30T14:03:18Z</time>
      </trkpt>
      <trkpt lat="49.33184" lon="3.99445">
        <ele>126</ele>
        <time>2019-03-30T14:03:19Z</time>
      </trkpt>
      <trkpt lat="49.33181" lon="3.99448">
        <ele>127</ele>
        <time>2019-03-30T14:03:20Z</time>
      </trkpt>
      <trkpt lat="49.33179" lon="3.9945">
        <ele>127</ele>
        <time>2019-03-30T14:03:21Z</time>
      </trkpt>
      <trkpt lat="49.33176" lon="3.99453">
        <ele>127</ele>
        <time>2019-03-30T14:03:22Z</time>
      </trkpt>
      <trkpt lat="49.33174" lon="3.99455">
        <ele>127</ele>
        <time>2019-03-30T14:03:23Z</time>
      </trkpt>
      <trkpt lat="49.33171" lon="3.99457">
        <ele>127</ele>
        <time>2019-03-30T14:03:24Z</time>
      </trkpt>
      <trkpt lat="49.33169" lon="3.9946">
        <ele>127</ele>
        <time>2019-03-30T14:03:25Z</time>
      </trkpt>
      <trkpt lat="49.33166" lon="3.99462">
        <ele>127</ele>
        <time>2019-03-30T14:03:26Z</time>
      </trkpt>
      <trkpt lat="49.33163" lon="3.99464">
        <ele>127</ele>
        <time>2019-03-30T14:03:27Z</time>
      </trkpt>
      <trkpt lat="49.33161" lon="3.99467">
        <ele>127</ele>
        <time>2019-03-30T14:03:28Z</time>
      </trkpt>
      <trkpt lat="49.33158" lon="3.99469">
        <ele>128</ele>
        <time>2019-03-30T14:03:29Z</time>
      </trkpt>
      <trkpt lat="49.33156" lon="3.99471">
        <ele>128</ele>
        <time>2019-03-30T14:03:30Z</time>
      </trkpt>
      <trkpt lat="49.33153" lon="3.99473">
        <ele>128</ele>
        <time>2019-03-30T14:03:31Z</time>
      </trkpt>
      <trkpt lat="49.33151" lon="3.99476">
        <ele>128</ele>
        <time>2019-03-30T14:03:32Z</time>
      </trkpt>
      <trkpt lat="49.33149" lon="3.99478">
        <ele>128</ele>
        <time>2019-03-30T14:03:33Z</time>
      </trkpt>
      <trkpt lat="49.33146" lon="3.99479">
        <ele>128</ele>
        <time>2019-03-30T14:03:34Z</time>
      </trkpt>
      <trkpt lat="49.33144" lon="3.99481">
        <ele>128</ele>
        <time>2019-03-30T14:03:35Z</time>
      </trkpt>
      <trkpt lat="49.33141" lon="3.99483">
        <ele>128</ele>
        <time>2019-03-30T14:03:36Z</time>
      </trkpt>
      <trkpt lat="49.33139" lon="3.99485">
        <ele>128</ele>
        <time>2019-03-30T14:03:37Z</time>
      </trkpt>
      <trkpt lat="49.33136" lon="3.99487">
        <ele>128</ele>
        <time>2019-03-30T14:03:38Z</time>
      </trkpt>
      <trkpt lat="49.33134" lon="3.99489">
        <ele>128</ele>
        <time>2019-03-30T14:03:39Z</time>
      </trkpt>
      <trkpt lat="49.33132" lon="3.99491">
        <ele>129</ele>
        <time>2019-03-30T14:03:40Z</time>
      </trkpt>
      <trkpt lat="49.3313" lon="3.99493">
        <ele>129</ele>
        <time>2019-03-30T14:03:41Z</time>
      </trkpt>
      <trkpt lat="49.33127" lon="3.99495">
        <ele>128</ele>
        <time>2019-03-30T14:03:42Z</time>
      </trkpt>
      <trkpt lat="49.33125" lon="3.99497">
        <ele>128</ele>
        <time>2019-03-30T14:03:43Z</time>
      </trkpt>
      <trkpt lat="49.33123" lon="3.99499">
        <ele>129</ele>
        <time>2019-03-30T14:03:44Z</time>
      </trkpt>
      <trkpt lat="49.33121" lon="3.99501">
        <ele>129</ele>
        <time>2019-03-30T14:03:45Z</time>
      </trkpt>
      <trkpt lat="49.33119" lon="3.99503">
        <ele>129</ele>
        <time>2019-03-30T14:03:46Z</time>
      </trkpt>
      <trkpt lat="49.33117" lon="3.99505">
        <ele>129</ele>
        <time>2019-03-30T14:03:47Z</time>
      </trkpt>
      <trkpt lat="49.33115" lon="3.99508">
        <ele>129</ele>
        <time>2019-03-30T14:03:48Z</time>
      </trkpt>
      <trkpt lat="49.33112" lon="3.9951">
        <ele>129</ele>
        <time>2019-03-30T14:03:49Z</time>
      </trkpt>
      <trkpt lat="49.3311" lon="3.99512">
        <ele>129</ele>
        <time>2019-03-30T14:03:50Z</time>
      </trkpt>
      <trkpt lat="49.33107" lon="3.99513">
        <ele>129</ele>
        <time>2019-03-30T14:03:51Z</time>
      </trkpt>
      <trkpt lat="49.33105" lon="3.99515">
        <ele>130</ele>
        <time>2019-03-30T14:03:52Z</time>
      </trkpt>
      <trkpt lat="49.33103" lon="3.99517">
        <ele>130</ele>
        <time>2019-03-30T14:03:53Z</time>
      </trkpt>
      <trkpt lat="49.331" lon="3.99519">
        <ele>130</ele>
        <time>2019-03-30T14:03:54Z</time>
      </trkpt>
      <trkpt lat="49.33098" lon="3.99521">
        <ele>130</ele>
        <time>2019-03-30T14:03:55Z</time>
      </trkpt>
      <trkpt lat="49.33096" lon="3.99523">
        <ele>130</ele>
        <time>2019-03-30T14:03:56Z</time>
      </trkpt>
      <trkpt lat="49.33094" lon="3.99524">
        <ele>130</ele>
        <time>2019-03-30T14:03:57Z</time>
      </trkpt>
      <trkpt lat="49.33091" lon="3.99526">
        <ele>131</ele>
        <time>2019-03-30T14:03:58Z</time>
      </trkpt>
      <trkpt lat="49.33089" lon="3.99528">
        <ele>131</ele>
        <time>2019-03-30T14:03:59Z</time>
      </trkpt>
      <trkpt lat="49.33087" lon="3.9953">
        <ele>131</ele>
        <time>2019-03-30T14:04:00Z</time>
      </trkpt>
      <trkpt lat="49.33084" lon="3.99533">
        <ele>131</ele>
        <time>2019-03-30T14:04:01Z</time>
      </trkpt>
      <trkpt lat="49.33082" lon="3.99535">
        <ele>131</ele>
        <time>2019-03-30T14:04:02Z</time>
      </trkpt>
      <trkpt lat="49.3308" lon="3.99537">
        <ele>131</ele>
        <time>2019-03-30T14:04:03Z</time>
      </trkpt>
      <trkpt lat="49.33077" lon="3.99539">
        <ele>132</ele>
        <time>2019-03-30T14:04:04Z</time>
      </trkpt>
      <trkpt lat="49.33075" lon="3.99541">
        <ele>132</ele>
        <time>2019-03-30T14:04:05Z</time>
      </trkpt>
      <trkpt lat="49.33073" lon="3.99543">
        <ele>132</ele>
        <time>2019-03-30T14:04:06Z</time>
      </trkpt>
      <trkpt lat="49.33071" lon="3.99545">
        <ele>132</ele>
        <time>2019-03-30T14:04:07Z</time>
      </trkpt>
      <trkpt lat="49.33068" lon="3.99547">
        <ele>132</ele>
        <time>2019-03-30T14:04:08Z</time>
      </trkpt>
      <trkpt lat="49.33066" lon="3.99548">
        <ele>132</ele>
        <time>2019-03-30T14:04:09Z</time>
      </trkpt>
      <trkpt lat="49.33063" lon="3.99551">
        <ele>132</ele>
        <time>2019-03-30T14:04:10Z</time>
      </trkpt>
      <trkpt lat="49.33061" lon="3.99553">
        <ele>133</ele>
        <time>2019-03-30T14:04:11Z</time>
      </trkpt>
      <trkpt lat="49.33058" lon="3.99555">
        <ele>133</ele>
        <time>2019-03-30T14:04:12Z</time>
      </trkpt>
      <trkpt lat="49.33056" lon="3.99557">
        <ele>133</ele>
        <time>2019-03-30T14:04:13Z</time>
      </trkpt>
      <trkpt lat="49.33054" lon="3.9956">
        <ele>133</ele>
        <time>2019-03-30T14:04:14Z</time>
      </trkpt>
      <trkpt lat="49.33051" lon="3.99562">
        <ele>134</ele>
        <time>2019-03-30T14:04:15Z</time>
      </trkpt>
      <trkpt lat="49.33049" lon="3.99564">
        <ele>134</ele>
        <time>2019-03-30T14:04:16Z</time>
      </trkpt>
      <trkpt lat="49.33047" lon="3.99566">
        <ele>134</ele>
        <time>2019-03-30T14:04:17Z</time>
      </trkpt>
      <trkpt lat="49.33046" lon="3.99568">
        <ele>134</ele>
        <time>2019-03-30T14:04:18Z</time>
      </trkpt>
      <trkpt lat="49.33044" lon="3.9957">
        <ele>134</ele>
        <time>2019-03-30T14:04:19Z</time>
      </trkpt>
      <trkpt lat="49.33042" lon="3.99571">
        <ele>134</ele>
        <time>2019-03-30T14:04:20Z</time>
      </trkpt>
      <trkpt lat="49.33041" lon="3.99572">
        <ele>135</ele>
        <time>2019-03-30T14:04:21Z</time>
      </trkpt>
      <trkpt lat="49.33039" lon="3.99573">
        <ele>135</ele>
        <time>2019-03-30T14:04:22Z</time>
      </trkpt>
      <trkpt lat="49.33037" lon="3.99575">
        <ele>135</ele>
        <time>2019-03-30T14:04:23Z</time>
      </trkpt>
      <trkpt lat="49.33035" lon="3.99577">
        <ele>135</ele>
        <time>2019-03-30T14:04:24Z</time>
      </trkpt>
      <trkpt lat="49.33033" lon="3.99579">
        <ele>135</ele>
        <time>2019-03-30T14:04:25Z</time>
      </trkpt>
      <trkpt lat="49.33031" lon="3.99581">
        <ele>135</ele>
        <time>2019-03-30T14:04:26Z</time>
      </trkpt>
      <trkpt lat="49.33029" lon="3.99583">
        <ele>135</ele>
        <time>2019-03-30T14:04:27Z</time>
      </trkpt>
      <trkpt lat="49.33026" lon="3.99584">
        <ele>135</ele>
        <time>2019-03-30T14:04:28Z</time>
      </trkpt>
      <trkpt lat="49.33024" lon="3.99586">
        <ele>136</ele>
        <time>2019-03-30T14:04:29Z</time>
      </trkpt>
      <trkpt lat="49.33022" lon="3.99588">
        <ele>136</ele>
        <time>2019-03-30T14:04:30Z</time>
      </trkpt>
      <trkpt lat="49.3302" lon="3.9959">
        <ele>136</ele>
        <time>2019-03-30T14:04:31Z</time>
      </trkpt>
      <trkpt lat="49.33017" lon="3.99592">
        <ele>136</ele>
        <time>2019-03-30T14:04:32Z</time>
      </trkpt>
      <trkpt lat="49.33015" lon="3.99594">
        <ele>135</ele>
        <time>2019-03-30T14:04:33Z</time>
      </trkpt>
      <trkpt lat="49.33012" lon="3.99596">
        <ele>135</ele>
        <time>2019-03-30T14:04:34Z</time>
      </trkpt>
      <trkpt lat="49.33009" lon="3.99599">
        <ele>135</ele>
        <time>2019-03-30T14:04:35Z</time>
      </trkpt>
      <trkpt lat="49.33007" lon="3.99602">
        <ele>134</ele>
        <time>2019-03-30T14:04:36Z</time>
      </trkpt>
      <trkpt lat="49.33004" lon="3.99605">
        <ele>134</ele>
        <time>2019-03-30T14:04:37Z</time>
      </trkpt>
      <trkpt lat="49.33001" lon="3.99608">
        <ele>134</ele>
        <time>2019-03-30T14:04:38Z</time>
      </trkpt>
      <trkpt lat="49.32998" lon="3.99611">
        <ele>135</ele>
        <time>2019-03-30T14:04:39Z</time>
      </trkpt>
      <trkpt lat="49.32994" lon="3.99614">
        <ele>135</ele>
        <time>2019-03-30T14:04:40Z</time>
      </trkpt>
      <trkpt lat="49.3299" lon="3.99619">
        <ele>135</ele>
        <time>2019-03-30T14:04:41Z</time>
      </trkpt>
      <trkpt lat="49.32986" lon="3.99622">
        <ele>135</ele>
        <time>2019-03-30T14:04:42Z</time>
      </trkpt>
      <trkpt lat="49.32982" lon="3.99626">
        <ele>135</ele>
        <time>2019-03-30T14:04:43Z</time>
      </trkpt>
      <trkpt lat="49.32978" lon="3.9963">
        <ele>135</ele>
        <time>2019-03-30T14:04:44Z</time>
      </trkpt>
      <trkpt lat="49.32973" lon="3.99635">
        <ele>135</ele>
        <time>2019-03-30T14:04:45Z</time>
      </trkpt>
      <trkpt lat="49.32969" lon="3.99639">
        <ele>135</ele>
        <time>2019-03-30T14:04:46Z</time>
      </trkpt>
      <trkpt lat="49.32964" lon="3.99644">
        <ele>135</ele>
        <time>2019-03-30T14:04:47Z</time>
      </trkpt>
      <trkpt lat="49.32959" lon="3.99649">
        <ele>135</ele>
        <time>2019-03-30T14:04:48Z</time>
      </trkpt>
      <trkpt lat="49.32954" lon="3.99654">
        <ele>134</ele>
        <time>2019-03-30T14:04:49Z</time>
      </trkpt>
      <trkpt lat="49.32949" lon="3.99659">
        <ele>134</ele>
        <time>2019-03-30T14:04:50Z</time>
      </trkpt>
      <trkpt lat="49.32944" lon="3.99665">
        <ele>134</ele>
        <time>2019-03-30T14:04:51Z</time>
      </trkpt>
      <trkpt lat="49.32939" lon="3.99671">
        <ele>133</ele>
        <time>2019-03-30T14:04:52Z</time>
      </trkpt>
      <trkpt lat="49.32934" lon="3.99676">
        <ele>133</ele>
        <time>2019-03-30T14:04:53Z</time>
      </trkpt>
      <trkpt lat="49.32928" lon="3.99681">
        <ele>133</ele>
        <time>2019-03-30T14:04:54Z</time>
      </trkpt>
      <trkpt lat="49.32923" lon="3.99687">
        <ele>133</ele>
        <time>2019-03-30T14:04:55Z</time>
      </trkpt>
      <trkpt lat="49.32917" lon="3.99693">
        <ele>132</ele>
        <time>2019-03-30T14:04:56Z</time>
      </trkpt>
      <trkpt lat="49.32911" lon="3.99699">
        <ele>132</ele>
        <time>2019-03-30T14:04:57Z</time>
      </trkpt>
      <trkpt lat="49.32905" lon="3.99705">
        <ele>132</ele>
        <time>2019-03-30T14:04:58Z</time>
      </trkpt>
      <trkpt lat="49.32898" lon="3.99712">
        <ele>132</ele>
        <time>2019-03-30T14:04:59Z</time>
      </trkpt>
      <trkpt lat="49.32892" lon="3.99719">
        <ele>132</ele>
        <time>2019-03-30T14:05:00Z</time>
      </trkpt>
      <trkpt lat="49.32886" lon="3.99726">
        <ele>132</ele>
        <time>2019-03-30T14:05:01Z</time>
      </trkpt>
      <trkpt lat="49.32879" lon="3.99732">
        <ele>131</ele>
        <time>2019-03-30T14:05:02Z</time>
      </trkpt>
      <trkpt lat="49.32873" lon="3.99739">
        <ele>131</ele>
        <time>2019-03-30T14:05:03Z</time>
      </trkpt>
      <trkpt lat="49.32867" lon="3.99746">
        <ele>131</ele>
        <time>2019-03-30T14:05:04Z</time>
      </trkpt>
      <trkpt lat="49.3286" lon="3.99752">
        <ele>131</ele>
        <time>2019-03-30T14:05:05Z</time>
      </trkpt>
      <trkpt lat="49.32854" lon="3.99758">
        <ele>131</ele>
        <time>2019-03-30T14:05:06Z</time>
      </trkpt>
      <trkpt lat="49.32848" lon="3.99764">
        <ele>131</ele>
        <time>2019-03-30T14:05:07Z</time>
      </trkpt>
      <trkpt lat="49.32842" lon="3.99771">
        <ele>131</ele>
        <time>2019-03-30T14:05:08Z</time>
      </trkpt>
      <trkpt lat="49.32836" lon="3.99778">
        <ele>131</ele>
        <time>2019-03-30T14:05:09Z</time>
      </trkpt>
      <trkpt lat="49.3283" lon="3.99784">
        <ele>131</ele>
        <time>2019-03-30T14:05:10Z</time>
      </trkpt>
      <trkpt lat="49.32824" lon="3.9979">
        <ele>131</ele>
        <time>2019-03-30T14:05:11Z</time>
      </trkpt>
      <trkpt lat="49.32818" lon="3.99795">
        <ele>131</ele>
        <time>2019-03-30T14:05:12Z</time>
      </trkpt>
      <trkpt lat="49.32813" lon="3.99801">
        <ele>131</ele>
        <time>2019-03-30T14:05:13Z</time>
      </trkpt>
      <trkpt lat="49.32807" lon="3.99807">
        <ele>131</ele>
        <time>2019-03-30T14:05:14Z</time>
      </trkpt>
      <trkpt lat="49.32802" lon="3.99812">
        <ele>131</ele>
        <time>2019-03-30T14:05:15Z</time>
      </trkpt>
      <trkpt lat="49.32796" lon="3.99817">
        <ele>131</ele>
        <time>2019-03-30T14:05:16Z</time>
      </trkpt>
      <trkpt lat="49.32791" lon="3.99822">
        <ele>131</ele>
        <time>2019-03-30T14:05:17Z</time>
      </trkpt>
      <trkpt lat="49.32786" lon="3.99826">
        <ele>131</ele>
        <time>2019-03-30T14:05:18Z</time>
      </trkpt>
      <trkpt lat="49.32782" lon="3.99831">
        <ele>131</ele>
        <time>2019-03-30T14:05:19Z</time>
      </trkpt>
      <trkpt lat="49.32778" lon="3.99836">
        <ele>131</ele>
        <time>2019-03-30T14:05:20Z</time>
      </trkpt>
      <trkpt lat="49.32773" lon="3.9984">
        <ele>131</ele>
        <time>2019-03-30T14:05:21Z</time>
      </trkpt>
      <trkpt lat="49.32769" lon="3.99843">
        <ele>131</ele>
        <time>2019-03-30T14:05:22Z</time>
      </trkpt>
      <trkpt lat="49.32765" lon="3.99847">
        <ele>131</ele>
        <time>2019-03-30T14:05:23Z</time>
      </trkpt>
      <trkpt lat="49.32761" lon="3.99851">
        <ele>131</ele>
        <time>2019-03-30T14:05:24Z</time>
      </trkpt>
      <trkpt lat="49.32757" lon="3.99856">
        <ele>131</ele>
        <time>2019-03-30T14:05:25Z</time>
      </trkpt>
      <trkpt lat="49.32752" lon="3.9986">
        <ele>131</ele>
        <time>2019-03-30T14:05:26Z</time>
      </trkpt>
      <trkpt lat="49.32748" lon="3.99863">
        <ele>131</ele>
        <time>2019-03-30T14:05:27Z</time>
      </trkpt>
      <trkpt lat="49.32744" lon="3.99867">
        <ele>131</ele>
        <time>2019-03-30T14:05:28Z</time>
      </trkpt>
      <trkpt lat="49.32741" lon="3.9987">
        <ele>131</ele>
        <time>2019-03-30T14:05:29Z</time>
      </trkpt>
      <trkpt lat="49.32737" lon="3.99873">
        <ele>132</ele>
        <time>2019-03-30T14:05:30Z</time>
      </trkpt>
      <trkpt lat="49.32733" lon="3.99876">
        <ele>132</ele>
        <time>2019-03-30T14:05:31Z</time>
      </trkpt>
      <trkpt lat="49.3273" lon="3.99879">
        <ele>132</ele>
        <time>2019-03-30T14:05:32Z</time>
      </trkpt>
      <trkpt lat="49.32726" lon="3.99882">
        <ele>132</ele>
        <time>2019-03-30T14:05:33Z</time>
      </trkpt>
      <trkpt lat="49.32723" lon="3.99885">
        <ele>132</ele>
        <time>2019-03-30T14:05:34Z</time>
      </trkpt>
      <trkpt lat="49.32719" lon="3.99887">
        <ele>132</ele>
        <time>2019-03-30T14:05:35Z</time>
      </trkpt>
      <trkpt lat="49.32716" lon="3.9989">
        <ele>132</ele>
        <time>2019-03-30T14:05:36Z</time>
      </trkpt>
      <trkpt lat="49.32713" lon="3.99893">
        <ele>132</ele>
        <time>2019-03-30T14:05:37Z</time>
      </trkpt>
      <trkpt lat="49.32709" lon="3.99895">
        <ele>132</ele>
        <time>2019-03-30T14:05:38Z</time>
      </trkpt>
      <trkpt lat="49.32706" lon="3.99898">
        <ele>132</ele>
        <time>2019-03-30T14:05:39Z</time>
      </trkpt>
      <trkpt lat="49.32703" lon="3.999">
        <ele>132</ele>
        <time>2019-03-30T14:05:40Z</time>
      </trkpt>
      <trkpt lat="49.327" lon="3.99902">
        <ele>132</ele>
        <time>2019-03-30T14:05:41Z</time>
      </trkpt>
      <trkpt lat="49.32697" lon="3.99905">
        <ele>132</ele>
        <time>2019-03-30T14:05:42Z</time>
      </trkpt>
      <trkpt lat="49.32694" lon="3.99907">
        <ele>132</ele>
        <time>2019-03-30T14:05:43Z</time>
      </trkpt>
      <trkpt lat="49.32691" lon="3.99909">
        <ele>132</ele>
        <time>2019-03-30T14:05:44Z</time>
      </trkpt>
      <trkpt lat="49.32688" lon="3.99911">
        <ele>132</ele>
        <time>2019-03-30T14:05:45Z</time>
      </trkpt>
      <trkpt lat="49.32685" lon="3.99913">
        <ele>132</ele>
        <time>2019-03-30T14:05:46Z</time>
      </trkpt>
      <trkpt lat="49.32682" lon="3.99915">
        <ele>132</ele>
        <time>2019-03-30T14:05:47Z</time>
      </trkpt>
      <trkpt lat="49.32679" lon="3.99917">
        <ele>132</ele>
        <time>2019-03-30T14:05:48Z</time>
      </trkpt>
      <trkpt lat="49.32677" lon="3.99918">
        <ele>132</ele>
        <time>2019-03-30T14:05:49Z</time>
      </trkpt>
      <trkpt lat="49.32674" lon="3.9992">
        <ele>132</ele>
        <time>2019-03-30T14:05:50Z</time>
      </trkpt>
      <trkpt lat="49.32671" lon="3.99922">
        <ele>132</ele>
        <time>2019-03-30T14:05:51Z</time>
      </trkpt>
      <trkpt lat="49.32668" lon="3.99924">
        <ele>133</ele>
        <time>2019-03-30T14:05:52Z</time>
      </trkpt>
      <trkpt lat="49.32665" lon="3.99925">
        <ele>133</ele>
        <time>2019-03-30T14:05:53Z</time>
      </trkpt>
      <trkpt lat="49.32662" lon="3.99926">
        <ele>133</ele>
        <time>2019-03-30T14:05:54Z</time>
      </trkpt>
      <trkpt lat="49.3266" lon="3.99928">
        <ele>133</ele>
        <time>2019-03-30T14:05:55Z</time>
      </trkpt>
      <trkpt lat="49.32657" lon="3.99929">
        <ele>133</ele>
        <time>2019-03-30T14:05:56Z</time>
      </trkpt>
      <trkpt lat="49.32655" lon="3.99931">
        <ele>133</ele>
        <time>2019-03-30T14:05:57Z</time>
      </trkpt>
      <trkpt lat="49.32653" lon="3.99933">
        <ele>133</ele>
        <time>2019-03-30T14:05:58Z</time>
      </trkpt>
      <trkpt lat="49.3265" lon="3.99934">
        <ele>133</ele>
        <time>2019-03-30T14:05:59Z</time>
      </trkpt>
      <trkpt lat="49.32648" lon="3.99936">
        <ele>133</ele>
        <time>2019-03-30T14:06:00Z</time>
      </trkpt>
      <trkpt lat="49.32646" lon="3.99938">
        <ele>133</ele>
        <time>2019-03-30T14:06:01Z</time>
      </trkpt>
      <trkpt lat="49.32644" lon="3.9994">
        <ele>133</ele>
        <time>2019-03-30T14:06:02Z</time>
      </trkpt>
      <trkpt lat="49.32641" lon="3.99941">
        <ele>133</ele>
        <time>2019-03-30T14:06:03Z</time>
      </trkpt>
      <trkpt lat="49.32639" lon="3.99943">
        <ele>134</ele>
        <time>2019-03-30T14:06:04Z</time>
      </trkpt>
      <trkpt lat="49.32636" lon="3.99944">
        <ele>134</ele>
        <time>2019-03-30T14:06:05Z</time>
      </trkpt>
      <trkpt lat="49.32634" lon="3.99945">
        <ele>134</ele>
        <time>2019-03-30T14:06:06Z</time>
      </trkpt>
      <trkpt lat="49.32631" lon="3.99947">
        <ele>134</ele>
        <time>2019-03-30T14:06:07Z</time>
      </trkpt>
      <trkpt lat="49.32628" lon="3.99949">
        <ele>135</ele>
        <time>2019-03-30T14:06:08Z</time>
      </trkpt>
      <trkpt lat="49.32625" lon="3.99951">
        <ele>135</ele>
        <time>2019-03-30T14:06:09Z</time>
      </trkpt>
      <trkpt lat="49.32621" lon="3.99952">
        <ele>135</ele>
        <time>2019-03-30T14:06:10Z</time>
      </trkpt>
      <trkpt lat="49.32619" lon="3.99953">
        <ele>135</ele>
        <time>2019-03-30T14:06:11Z</time>
      </trkpt>
      <trkpt lat="49.32616" lon="3.99954">
        <ele>135</ele>
        <time>2019-03-30T14:06:12Z</time>
      </trkpt>
      <trkpt lat="49.32613" lon="3.99956">
        <ele>135</ele>
        <time>2019-03-30T14:06:13Z</time>
      </trkpt>
      <trkpt lat="49.32611" lon="3.99958">
        <ele>135</ele>
        <time>2019-03-30T14:06:14Z</time>
      </trkpt>
      <trkpt lat="49.32608" lon="3.99959">
        <ele>135</ele>
        <time>2019-03-30T14:06:15Z</time>
      </trkpt>
      <trkpt lat="49.32605" lon="3.99961">
        <ele>135</ele>
        <time>2019-03-30T14:06:16Z</time>
      </trkpt>
      <trkpt lat="49.32603" lon="3.99963">
        <ele>135</ele>
        <time>2019-03-30T14:06:17Z</time>
      </trkpt>
      <trkpt lat="49.326" lon="3.99965">
        <ele>135</ele>
        <time>2019-03-30T14:06:18Z</time>
      </trkpt>
      <trkpt lat="49.32597" lon="3.99967">
        <ele>135</ele>
        <time>2019-03-30T14:06:19Z</time>
      </trkpt>
      <trkpt lat="49.32595" lon="3.99968">
        <ele>135</ele>
        <time>2019-03-30T14:06:20Z</time>
      </trkpt>
      <trkpt lat="49.32592" lon="3.9997">
        <ele>135</ele>
        <time>2019-03-30T14:06:21Z</time>
      </trkpt>
      <trkpt lat="49.3259" lon="3.99972">
        <ele>135</ele>
        <time>2019-03-30T14:06:22Z</time>
      </trkpt>
      <trkpt lat="49.32587" lon="3.99973">
        <ele>135</ele>
        <time>2019-03-30T14:06:23Z</time>
      </trkpt>
      <trkpt lat="49.32585" lon="3.99975">
        <ele>135</ele>
        <time>2019-03-30T14:06:24Z</time>
      </trkpt>
      <trkpt lat="49.32583" lon="3.99977">
        <ele>135</ele>
        <time>2019-03-30T14:06:25Z</time>
      </trkpt>
      <trkpt lat="49.3258" lon="3.99978">
        <ele>135</ele>
        <time>2019-03-30T14:06:26Z</time>
      </trkpt>
      <trkpt lat="49.32578" lon="3.9998">
        <ele>135</ele>
        <time>2019-03-30T14:06:27Z</time>
      </trkpt>
      <trkpt lat="49.32576" lon="3.99981">
        <ele>135</ele>
        <time>2019-03-30T14:06:28Z</time>
      </trkpt>
      <trkpt lat="49.32575" lon="3.99983">
        <ele>135</ele>
        <time>2019-03-30T14:06:29Z</time>
      </trkpt>
      <trkpt lat="49.32573" lon="3.99985">
        <ele>135</ele>
        <time>2019-03-30T14:06:30Z</time>
      </trkpt>
      <trkpt lat="49.32571" lon="3.99986">
        <ele>135</ele>
        <time>2019-03-30T14:06:31Z</time>
      </trkpt>
      <trkpt lat="49.32568" lon="3.99988">
        <ele>135</ele>
        <time>2019-03-30T14:06:32Z</time>
      </trkpt>
      <trkpt lat="49.32567" lon="3.9999">
        <ele>135</ele>
        <time>2019-03-30T14:06:33Z</time>
      </trkpt>
      <trkpt lat="49.32565" lon="3.99991">
        <ele>135</ele>
        <time>2019-03-30T14:06:34Z</time>
      </trkpt>
      <trkpt lat="49.32563" lon="3.99993">
        <ele>135</ele>
        <time>2019-03-30T14:06:35Z</time>
      </trkpt>
      <trkpt lat="49.32561" lon="3.99995">
        <ele>135</ele>
        <time>2019-03-30T14:06:36Z</time>
      </trkpt>
      <trkpt lat="49.32559" lon="3.99997">
        <ele>135</ele>
        <time>2019-03-30T14:06:37Z</time>
      </trkpt>
      <trkpt lat="49.32557" lon="3.99999">
        <ele>135</ele>
        <time>2019-03-30T14:06:38Z</time>
      </trkpt>
      <trkpt lat="49.32554" lon="4.00002">
        <ele>136</ele>
        <time>2019-03-30T14:06:39Z</time>
      </trkpt>
      <trkpt lat="49.32551" lon="4.00005">
        <ele>136</ele>
        <time>2019-03-30T14:06:40Z</time>
      </trkpt>
      <trkpt lat="49.32548" lon="4.00007">
        <ele>136</ele>
        <time>2019-03-30T14:06:41Z</time>
      </trkpt>
      <trkpt lat="49.32545" lon="4.0001">
        <ele>136</ele>
        <time>2019-03-30T14:06:42Z</time>
      </trkpt>
      <trkpt lat="49.3254" lon="4.00014">
        <ele>136</ele>
        <time>2019-03-30T14:06:43Z</time>
      </trkpt>
      <trkpt lat="49.32536" lon="4.00017">
        <ele>135</ele>
        <time>2019-03-30T14:06:44Z</time>
      </trkpt>
      <trkpt lat="49.32532" lon="4.00021">
        <ele>135</ele>
        <time>2019-03-30T14:06:45Z</time>
      </trkpt>
      <trkpt lat="49.32528" lon="4.00025">
        <ele>135</ele>
        <time>2019-03-30T14:06:46Z</time>
      </trkpt>
      <trkpt lat="49.32523" lon="4.00028">
        <ele>135</ele>
        <time>2019-03-30T14:06:47Z</time>
      </trkpt>
      <trkpt lat="49.32519" lon="4.00032">
        <ele>135</ele>
        <time>2019-03-30T14:06:48Z</time>
      </trkpt>
      <trkpt lat="49.32514" lon="4.00035">
        <ele>134</ele>
        <time>2019-03-30T14:06:49Z</time>
      </trkpt>
      <trkpt lat="49.32508" lon="4.00039">
        <ele>134</ele>
        <time>2019-03-30T14:06:50Z</time>
      </trkpt>
      <trkpt lat="49.32503" lon="4.00042">
        <ele>133</ele>
        <time>2019-03-30T14:06:51Z</time>
      </trkpt>
      <trkpt lat="49.32498" lon="4.00046">
        <ele>133</ele>
        <time>2019-03-30T14:06:52Z</time>
      </trkpt>
      <trkpt lat="49.32493" lon="4.0005">
        <ele>133</ele>
        <time>2019-03-30T14:06:53Z</time>
      </trkpt>
      <trkpt lat="49.32487" lon="4.00055">
        <ele>133</ele>
        <time>2019-03-30T14:06:54Z</time>
      </trkpt>
      <trkpt lat="49.32482" lon="4.0006">
        <ele>133</ele>
        <time>2019-03-30T14:06:55Z</time>
      </trkpt>
      <trkpt lat="49.32477" lon="4.00064">
        <ele>132</ele>
        <time>2019-03-30T14:06:56Z</time>
      </trkpt>
      <trkpt lat="49.32472" lon="4.00069">
        <ele>132</ele>
        <time>2019-03-30T14:06:57Z</time>
      </trkpt>
      <trkpt lat="49.32466" lon="4.00075">
        <ele>132</ele>
        <time>2019-03-30T14:06:58Z</time>
      </trkpt>
      <trkpt lat="49.32461" lon="4.0008">
        <ele>132</ele>
        <time>2019-03-30T14:06:59Z</time>
      </trkpt>
      <trkpt lat="49.32455" lon="4.00086">
        <ele>132</ele>
        <time>2019-03-30T14:07:00Z</time>
      </trkpt>
      <trkpt lat="49.32449" lon="4.00092">
        <ele>131</ele>
        <time>2019-03-30T14:07:01Z</time>
      </trkpt>
      <trkpt lat="49.32443" lon="4.00097">
        <ele>131</ele>
        <time>2019-03-30T14:07:02Z</time>
      </trkpt>
      <trkpt lat="49.32437" lon="4.00104">
        <ele>131</ele>
        <time>2019-03-30T14:07:03Z</time>
      </trkpt>
      <trkpt lat="49.3243" lon="4.0011">
        <ele>131</ele>
        <time>2019-03-30T14:07:04Z</time>
      </trkpt>
      <trkpt lat="49.32424" lon="4.00116">
        <ele>131</ele>
        <time>2019-03-30T14:07:05Z</time>
      </trkpt>
      <trkpt lat="49.32417" lon="4.00121">
        <ele>130</ele>
        <time>2019-03-30T14:07:06Z</time>
      </trkpt>
      <trkpt lat="49.32411" lon="4.00126">
        <ele>130</ele>
        <time>2019-03-30T14:07:07Z</time>
      </trkpt>
      <trkpt lat="49.32406" lon="4.00132">
        <ele>130</ele>
        <time>2019-03-30T14:07:08Z</time>
      </trkpt>
      <trkpt lat="49.32401" lon="4.00137">
        <ele>130</ele>
        <time>2019-03-30T14:07:09Z</time>
      </trkpt>
      <trkpt lat="49.32395" lon="4.00142">
        <ele>129</ele>
        <time>2019-03-30T14:07:10Z</time>
      </trkpt>
      <trkpt lat="49.32389" lon="4.00148">
        <ele>129</ele>
        <time>2019-03-30T14:07:11Z</time>
      </trkpt>
      <trkpt lat="49.32383" lon="4.00153">
        <ele>129</ele>
        <time>2019-03-30T14:07:12Z</time>
      </trkpt>
      <trkpt lat="49.32377" lon="4.0016">
        <ele>129</ele>
        <time>2019-03-30T14:07:13Z</time>
      </trkpt>
      <trkpt lat="49.32371" lon="4.00166">
        <ele>129</ele>
        <time>2019-03-30T14:07:14Z</time>
      </trkpt>
      <trkpt lat="49.32365" lon="4.00171">
        <ele>129</ele>
        <time>2019-03-30T14:07:15Z</time>
      </trkpt>
      <trkpt lat="49.3236" lon="4.00176">
        <ele>129</ele>
        <time>2019-03-30T14:07:16Z</time>
      </trkpt>
      <trkpt lat="49.32354" lon="4.0018">
        <ele>129</ele>
        <time>2019-03-30T14:07:17Z</time>
      </trkpt>
      <trkpt lat="49.32348" lon="4.00183">
        <ele>129</ele>
        <time>2019-03-30T14:07:18Z</time>
      </trkpt>
      <trkpt lat="49.32342" lon="4.00188">
        <ele>129</ele>
        <time>2019-03-30T14:07:19Z</time>
      </trkpt>
      <trkpt lat="49.32337" lon="4.00192">
        <ele>129</ele>
        <time>2019-03-30T14:07:20Z</time>
      </trkpt>
      <trkpt lat="49.32332" lon="4.00197">
        <ele>128</ele>
        <time>2019-03-30T14:07:21Z</time>
      </trkpt>
      <trkpt lat="49.32327" lon="4.00202">
        <ele>128</ele>
        <time>2019-03-30T14:07:22Z</time>
      </trkpt>
      <trkpt lat="49.32321" lon="4.00205">
        <ele>127</ele>
        <time>2019-03-30T14:07:23Z</time>
      </trkpt>
      <trkpt lat="49.32315" lon="4.00208">
        <ele>127</ele>
        <time>2019-03-30T14:07:24Z</time>
      </trkpt>
      <trkpt lat="49.32309" lon="4.00211">
        <ele>127</ele>
        <time>2019-03-30T14:07:25Z</time>
      </trkpt>
      <trkpt lat="49.32303" lon="4.00214">
        <ele>127</ele>
        <time>2019-03-30T14:07:26Z</time>
      </trkpt>
      <trkpt lat="49.32298" lon="4.00217">
        <ele>127</ele>
        <time>2019-03-30T14:07:27Z</time>
      </trkpt>
      <trkpt lat="49.32293" lon="4.0022">
        <ele>126</ele>
        <time>2019-03-30T14:07:28Z</time>
      </trkpt>
      <trkpt lat="49.32288" lon="4.00224">
        <ele>126</ele>
        <time>2019-03-30T14:07:29Z</time>
      </trkpt>
      <trkpt lat="49.32283" lon="4.00228">
        <ele>125</ele>
        <time>2019-03-30T14:07:30Z</time>
      </trkpt>
      <trkpt lat="49.32279" lon="4.00232">
        <ele>125</ele>
        <time>2019-03-30T14:07:31Z</time>
      </trkpt>
      <trkpt lat="49.32274" lon="4.00236">
        <ele>124</ele>
        <time>2019-03-30T14:07:32Z</time>
      </trkpt>
      <trkpt lat="49.3227" lon="4.00239">
        <ele>124</ele>
        <time>2019-03-30T14:07:33Z</time>
      </trkpt>
      <trkpt lat="49.32265" lon="4.00242">
        <ele>124</ele>
        <time>2019-03-30T14:07:34Z</time>
      </trkpt>
      <trkpt lat="49.3226" lon="4.00245">
        <ele>124</ele>
        <time>2019-03-30T14:07:35Z</time>
      </trkpt>
      <trkpt lat="49.32255" lon="4.00248">
        <ele>123</ele>
        <time>2019-03-30T14:07:36Z</time>
      </trkpt>
      <trkpt lat="49.3225" lon="4.0025">
        <ele>124</ele>
        <time>2019-03-30T14:07:37Z</time>
      </trkpt>
      <trkpt lat="49.32245" lon="4.00253">
        <ele>124</ele>
        <time>2019-03-30T14:07:38Z</time>
      </trkpt>
      <trkpt lat="49.32241" lon="4.00257">
        <ele>124</ele>
        <time>2019-03-30T14:07:39Z</time>
      </trkpt>
      <trkpt lat="49.32236" lon="4.0026">
        <ele>124</ele>
        <time>2019-03-30T14:07:40Z</time>
      </trkpt>
      <trkpt lat="49.32231" lon="4.00264">
        <ele>123</ele>
        <time>2019-03-30T14:07:41Z</time>
      </trkpt>
      <trkpt lat="49.32226" lon="4.00267">
        <ele>123</ele>
        <time>2019-03-30T14:07:42Z</time>
      </trkpt>
      <trkpt lat="49.32221" lon="4.0027">
        <ele>123</ele>
        <time>2019-03-30T14:07:43Z</time>
      </trkpt>
      <trkpt lat="49.32216" lon="4.00273">
        <ele>123</ele>
        <time>2019-03-30T14:07:44Z</time>
      </trkpt>
      <trkpt lat="49.32212" lon="4.00274">
        <ele>123</ele>
        <time>2019-03-30T14:07:45Z</time>
      </trkpt>
      <trkpt lat="49.32206" lon="4.00276">
        <ele>122</ele>
        <time>2019-03-30T14:07:46Z</time>
      </trkpt>
      <trkpt lat="49.32202" lon="4.00277">
        <ele>122</ele>
        <time>2019-03-30T14:07:47Z</time>
      </trkpt>
      <trkpt lat="49.32197" lon="4.00279">
        <ele>122</ele>
        <time>2019-03-30T14:07:48Z</time>
      </trkpt>
      <trkpt lat="49.32193" lon="4.00282">
        <ele>122</ele>
        <time>2019-03-30T14:07:49Z</time>
      </trkpt>
      <trkpt lat="49.32188" lon="4.00285">
        <ele>122</ele>
        <time>2019-03-30T14:07:50Z</time>
      </trkpt>
      <trkpt lat="49.32184" lon="4.00288">
        <ele>123</ele>
        <time>2019-03-30T14:07:51Z</time>
      </trkpt>
      <trkpt lat="49.32179" lon="4.0029">
        <ele>123</ele>
        <time>2019-03-30T14:07:52Z</time>
      </trkpt>
      <trkpt lat="49.32174" lon="4.00292">
        <ele>123</ele>
        <time>2019-03-30T14:07:53Z</time>
      </trkpt>
      <trkpt lat="49.3217" lon="4.00293">
        <ele>123</ele>
        <time>2019-03-30T14:07:54Z</time>
      </trkpt>
      <trkpt lat="49.32165" lon="4.00292">
        <ele>123</ele>
        <time>2019-03-30T14:07:55Z</time>
      </trkpt>
      <trkpt lat="49.32161" lon="4.00292">
        <ele>123</ele>
        <time>2019-03-30T14:07:56Z</time>
      </trkpt>
      <trkpt lat="49.32156" lon="4.0029">
        <ele>124</ele>
        <time>2019-03-30T14:07:57Z</time>
      </trkpt>
      <trkpt lat="49.32152" lon="4.00287">
        <ele>123</ele>
        <time>2019-03-30T14:07:58Z</time>
      </trkpt>
      <trkpt lat="49.32147" lon="4.00285">
        <ele>124</ele>
        <time>2019-03-30T14:07:59Z</time>
      </trkpt>
      <trkpt lat="49.32143" lon="4.00282">
        <ele>124</ele>
        <time>2019-03-30T14:08:00Z</time>
      </trkpt>
      <trkpt lat="49.32139" lon="4.0028">
        <ele>123</ele>
        <time>2019-03-30T14:08:01Z</time>
      </trkpt>
      <trkpt lat="49.32134" lon="4.00278">
        <ele>123</ele>
        <time>2019-03-30T14:08:02Z</time>
      </trkpt>
      <trkpt lat="49.3213" lon="4.00276">
        <ele>124</ele>
        <time>2019-03-30T14:08:03Z</time>
      </trkpt>
      <trkpt lat="49.32126" lon="4.00273">
        <ele>124</ele>
        <time>2019-03-30T14:08:04Z</time>
      </trkpt>
      <trkpt lat="49.32122" lon="4.00271">
        <ele>124</ele>
        <time>2019-03-30T14:08:05Z</time>
      </trkpt>
      <trkpt lat="49.32117" lon="4.0027">
        <ele>124</ele>
        <time>2019-03-30T14:08:06Z</time>
      </trkpt>
      <trkpt lat="49.32113" lon="4.00268">
        <ele>124</ele>
        <time>2019-03-30T14:08:07Z</time>
      </trkpt>
      <trkpt lat="49.32108" lon="4.00265">
        <ele>124</ele>
        <time>2019-03-30T14:08:08Z</time>
      </trkpt>
      <trkpt lat="49.32103" lon="4.00262">
        <ele>124</ele>
        <time>2019-03-30T14:08:09Z</time>
      </trkpt>
      <trkpt lat="49.32099" lon="4.00259">
        <ele>124</ele>
        <time>2019-03-30T14:08:10Z</time>
      </trkpt>
      <trkpt lat="49.32095" lon="4.00256">
        <ele>124</ele>
        <time>2019-03-30T14:08:11Z</time>
      </trkpt>
      <trkpt lat="49.32091" lon="4.00253">
        <ele>124</ele>
        <time>2019-03-30T14:08:12Z</time>
      </trkpt>
      <trkpt lat="49.32086" lon="4.00249">
        <ele>124</ele>
        <time>2019-03-30T14:08:13Z</time>
      </trkpt>
      <trkpt lat="49.32082" lon="4.00245">
        <ele>124</ele>
        <time>2019-03-30T14:08:14Z</time>
      </trkpt>
      <trkpt lat="49.32079" lon="4.00242">
        <ele>124</ele>
        <time>2019-03-30T14:08:15Z</time>
      </trkpt>
      <trkpt lat="49.32075" lon="4.00239">
        <ele>124</ele>
        <time>2019-03-30T14:08:16Z</time>
      </trkpt>
      <trkpt lat="49.32071" lon="4.00235">
        <ele>125</ele>
        <time>2019-03-30T14:08:17Z</time>
      </trkpt>
      <trkpt lat="49.32068" lon="4.0023">
        <ele>125</ele>
        <time>2019-03-30T14:08:18Z</time>
      </trkpt>
      <trkpt lat="49.32064" lon="4.00227">
        <ele>125</ele>
        <time>2019-03-30T14:08:19Z</time>
      </trkpt>
      <trkpt lat="49.32061" lon="4.00223">
        <ele>124</ele>
        <time>2019-03-30T14:08:20Z</time>
      </trkpt>
      <trkpt lat="49.32057" lon="4.00219">
        <ele>124</ele>
        <time>2019-03-30T14:08:21Z</time>
      </trkpt>
      <trkpt lat="49.32053" lon="4.00215">
        <ele>124</ele>
        <time>2019-03-30T14:08:22Z</time>
      </trkpt>
      <trkpt lat="49.3205" lon="4.00211">
        <ele>124</ele>
        <time>2019-03-30T14:08:23Z</time>
      </trkpt>
      <trkpt lat="49.32047" lon="4.00207">
        <ele>124</ele>
        <time>2019-03-30T14:08:24Z</time>
      </trkpt>
      <trkpt lat="49.32044" lon="4.00204">
        <ele>124</ele>
        <time>2019-03-30T14:08:25Z</time>
      </trkpt>
      <trkpt lat="49.3204" lon="4.00201">
        <ele>124</ele>
        <time>2019-03-30T14:08:26Z</time>
      </trkpt>
      <trkpt lat="49.32037" lon="4.00197">
        <ele>124</ele>
        <time>2019-03-30T14:08:27Z</time>
      </trkpt>
      <trkpt lat="49.32034" lon="4.00194">
        <ele>125</ele>
        <time>2019-03-30T14:08:28Z</time>
      </trkpt>
      <trkpt lat="49.32031" lon="4.00191">
        <ele>124</ele>
        <time>2019-03-30T14:08:29Z</time>
      </trkpt>
      <trkpt lat="49.32028" lon="4.00188">
        <ele>125</ele>
        <time>2019-03-30T14:08:30Z</time>
      </trkpt>
      <trkpt lat="49.32026" lon="4.00184">
        <ele>125</ele>
        <time>2019-03-30T14:08:31Z</time>
      </trkpt>
      <trkpt lat="49.32023" lon="4.00181">
        <ele>125</ele>
        <time>2019-03-30T14:08:32Z</time>
      </trkpt>
      <trkpt lat="49.3202" lon="4.00178">
        <ele>125</ele>
        <time>2019-03-30T14:08:33Z</time>
      </trkpt>
      <trkpt lat="49.32017" lon="4.00175">
        <ele>125</ele>
        <time>2019-03-30T14:08:34Z</time>
      </trkpt>
      <trkpt lat="49.32013" lon="4.00171">
        <ele>125</ele>
        <time>2019-03-30T14:08:35Z</time>
      </trkpt>
      <trkpt lat="49.3201" lon="4.00167">
        <ele>125</ele>
        <time>2019-03-30T14:08:36Z</time>
      </trkpt>
      <trkpt lat="49.32007" lon="4.00164">
        <ele>125</ele>
        <time>2019-03-30T14:08:37Z</time>
      </trkpt>
      <trkpt lat="49.32004" lon="4.00161">
        <ele>126</ele>
        <time>2019-03-30T14:08:38Z</time>
      </trkpt>
      <trkpt lat="49.32002" lon="4.00157">
        <ele>126</ele>
        <time>2019-03-30T14:08:39Z</time>
      </trkpt>
      <trkpt lat="49.31999" lon="4.00153">
        <ele>126</ele>
        <time>2019-03-30T14:08:40Z</time>
      </trkpt>
      <trkpt lat="49.31996" lon="4.00149">
        <ele>126</ele>
        <time>2019-03-30T14:08:41Z</time>
      </trkpt>
      <trkpt lat="49.31995" lon="4.00144">
        <ele>126</ele>
        <time>2019-03-30T14:08:42Z</time>
      </trkpt>
      <trkpt lat="49.31993" lon="4.0014">
        <ele>127</ele>
        <time>2019-03-30T14:08:43Z</time>
      </trkpt>
      <trkpt lat="49.31991" lon="4.00135">
        <ele>127</ele>
        <time>2019-03-30T14:08:44Z</time>
      </trkpt>
      <trkpt lat="49.31989" lon="4.00131">
        <ele>127</ele>
        <time>2019-03-30T14:08:45Z</time>
      </trkpt>
      <trkpt lat="49.31987" lon="4.00127">
        <ele>127</ele>
        <time>2019-03-30T14:08:46Z</time>
      </trkpt>
      <trkpt lat="49.31986" lon="4.00123">
        <ele>127</ele>
        <time>2019-03-30T14:08:47Z</time>
      </trkpt>
      <trkpt lat="49.31984" lon="4.00118">
        <ele>127</ele>
        <time>2019-03-30T14:08:48Z</time>
      </trkpt>
      <trkpt lat="49.31983" lon="4.00114">
        <ele>127</ele>
        <time>2019-03-30T14:08:49Z</time>
      </trkpt>
      <trkpt lat="49.31981" lon="4.0011">
        <ele>128</ele>
        <time>2019-03-30T14:08:50Z</time>
      </trkpt>
      <trkpt lat="49.31979" lon="4.00106">
        <ele>127</ele>
        <time>2019-03-30T14:08:51Z</time>
      </trkpt>
      <trkpt lat="49.31977" lon="4.00102">
        <ele>128</ele>
        <time>2019-03-30T14:08:52Z</time>
      </trkpt>
      <trkpt lat="49.31975" lon="4.00097">
        <ele>128</ele>
        <time>2019-03-30T14:08:53Z</time>
      </trkpt>
      <trkpt lat="49.31974" lon="4.00093">
        <ele>128</ele>
        <time>2019-03-30T14:08:54Z</time>
      </trkpt>
      <trkpt lat="49.31972" lon="4.00089">
        <ele>128</ele>
        <time>2019-03-30T14:08:55Z</time>
      </trkpt>
      <trkpt lat="49.31971" lon="4.00085">
        <ele>128</ele>
        <time>2019-03-30T14:08:56Z</time>
      </trkpt>
      <trkpt lat="49.31969" lon="4.0008">
        <ele>128</ele>
        <time>2019-03-30T14:08:57Z</time>
      </trkpt>
      <trkpt lat="49.31968" lon="4.00075">
        <ele>128</ele>
        <time>2019-03-30T14:08:58Z</time>
      </trkpt>
      <trkpt lat="49.31966" lon="4.00071">
        <ele>128</ele>
        <time>2019-03-30T14:08:59Z</time>
      </trkpt>
      <trkpt lat="49.31965" lon="4.00067">
        <ele>128</ele>
        <time>2019-03-30T14:09:00Z</time>
      </trkpt>
      <trkpt lat="49.31963" lon="4.00062">
        <ele>128</ele>
        <time>2019-03-30T14:09:01Z</time>
      </trkpt>
      <trkpt lat="49.31962" lon="4.00058">
        <ele>128</ele>
        <time>2019-03-30T14:09:02Z</time>
      </trkpt>
      <trkpt lat="49.31961" lon="4.00054">
        <ele>128</ele>
        <time>2019-03-30T14:09:03Z</time>
      </trkpt>
      <trkpt lat="49.31959" lon="4.00049">
        <ele>128</ele>
        <time>2019-03-30T14:09:04Z</time>
      </trkpt>
      <trkpt lat="49.31958" lon="4.00045">
        <ele>128</ele>
        <time>2019-03-30T14:09:05Z</time>
      </trkpt>
      <trkpt lat="49.31956" lon="4.0004">
        <ele>128</ele>
        <time>2019-03-30T14:09:06Z</time>
      </trkpt>
      <trkpt lat="49.31955" lon="4.00035">
        <ele>128</ele>
        <time>2019-03-30T14:09:07Z</time>
      </trkpt>
      <trkpt lat="49.31953" lon="4.00031">
        <ele>128</ele>
        <time>2019-03-30T14:09:08Z</time>
      </trkpt>
      <trkpt lat="49.31952" lon="4.00026">
        <ele>128</ele>
        <time>2019-03-30T14:09:09Z</time>
      </trkpt>
      <trkpt lat="49.3195" lon="4.00021">
        <ele>128</ele>
        <time>2019-03-30T14:09:10Z</time>
      </trkpt>
      <trkpt lat="49.31948" lon="4.00016">
        <ele>128</ele>
        <time>2019-03-30T14:09:11Z</time>
      </trkpt>
      <trkpt lat="49.31946" lon="4.00011">
        <ele>128</ele>
        <time>2019-03-30T14:09:12Z</time>
      </trkpt>
      <trkpt lat="49.31945" lon="4.00006">
        <ele>128</ele>
        <time>2019-03-30T14:09:13Z</time>
      </trkpt>
      <trkpt lat="49.31943" lon="4.00001">
        <ele>128</ele>
        <time>2019-03-30T14:09:14Z</time>
      </trkpt>
      <trkpt lat="49.31941" lon="3.99996">
        <ele>128</ele>
        <time>2019-03-30T14:09:15Z</time>
      </trkpt>
      <trkpt lat="49.31939" lon="3.99991">
        <ele>128</ele>
        <time>2019-03-30T14:09:16Z</time>
      </trkpt>
      <trkpt lat="49.31937" lon="3.99986">
        <ele>128</ele>
        <time>2019-03-30T14:09:17Z</time>
      </trkpt>
      <trkpt lat="49.31936" lon="3.99982">
        <ele>128</ele>
        <time>2019-03-30T14:09:18Z</time>
      </trkpt>
      <trkpt lat="49.31934" lon="3.99976">
        <ele>128</ele>
        <time>2019-03-30T14:09:19Z</time>
      </trkpt>
      <trkpt lat="49.31933" lon="3.99971">
        <ele>129</ele>
        <time>2019-03-30T14:09:20Z</time>
      </trkpt>
      <trkpt lat="49.31931" lon="3.99967">
        <ele>129</ele>
        <time>2019-03-30T14:09:21Z</time>
      </trkpt>
      <trkpt lat="49.31929" lon="3.99962">
        <ele>129</ele>
        <time>2019-03-30T14:09:22Z</time>
      </trkpt>
      <trkpt lat="49.31927" lon="3.99956">
        <ele>129</ele>
        <time>2019-03-30T14:09:23Z</time>
      </trkpt>
      <trkpt lat="49.31925" lon="3.99951">
        <ele>129</ele>
        <time>2019-03-30T14:09:24Z</time>
      </trkpt>
      <trkpt lat="49.31923" lon="3.99947">
        <ele>129</ele>
        <time>2019-03-30T14:09:25Z</time>
      </trkpt>
      <trkpt lat="49.31921" lon="3.99942">
        <ele>129</ele>
        <time>2019-03-30T14:09:26Z</time>
      </trkpt>
      <trkpt lat="49.3192" lon="3.99936">
        <ele>129</ele>
        <time>2019-03-30T14:09:27Z</time>
      </trkpt>
      <trkpt lat="49.31918" lon="3.99931">
        <ele>129</ele>
        <time>2019-03-30T14:09:28Z</time>
      </trkpt>
      <trkpt lat="49.31916" lon="3.99926">
        <ele>129</ele>
        <time>2019-03-30T14:09:29Z</time>
      </trkpt>
      <trkpt lat="49.31914" lon="3.99921">
        <ele>129</ele>
        <time>2019-03-30T14:09:30Z</time>
      </trkpt>
      <trkpt lat="49.31911" lon="3.99916">
        <ele>128</ele>
        <time>2019-03-30T14:09:31Z</time>
      </trkpt>
      <trkpt lat="49.31909" lon="3.9991">
        <ele>128</ele>
        <time>2019-03-30T14:09:32Z</time>
      </trkpt>
      <trkpt lat="49.31907" lon="3.99904">
        <ele>129</ele>
        <time>2019-03-30T14:09:33Z</time>
      </trkpt>
      <trkpt lat="49.31905" lon="3.99899">
        <ele>129</ele>
        <time>2019-03-30T14:09:34Z</time>
      </trkpt>
      <trkpt lat="49.31903" lon="3.99894">
        <ele>129</ele>
        <time>2019-03-30T14:09:35Z</time>
      </trkpt>
      <trkpt lat="49.319" lon="3.99889">
        <ele>129</ele>
        <time>2019-03-30T14:09:36Z</time>
      </trkpt>
      <trkpt lat="49.31898" lon="3.99883">
        <ele>129</ele>
        <time>2019-03-30T14:09:37Z</time>
      </trkpt>
      <trkpt lat="49.31896" lon="3.99878">
        <ele>129</ele>
        <time>2019-03-30T14:09:38Z</time>
      </trkpt>
      <trkpt lat="49.31894" lon="3.99872">
        <ele>129</ele>
        <time>2019-03-30T14:09:39Z</time>
      </trkpt>
      <trkpt lat="49.31892" lon="3.99867">
        <ele>129</ele>
        <time>2019-03-30T14:09:40Z</time>
      </trkpt>
      <trkpt lat="49.31891" lon="3.99861">
        <ele>129</ele>
        <time>2019-03-30T14:09:41Z</time>
      </trkpt>
      <trkpt lat="49.31889" lon="3.99856">
        <ele>129</ele>
        <time>2019-03-30T14:09:42Z</time>
      </trkpt>
      <trkpt lat="49.31887" lon="3.9985">
        <ele>129</ele>
        <time>2019-03-30T14:09:43Z</time>
      </trkpt>
      <trkpt lat="49.31886" lon="3.99845">
        <ele>129</ele>
        <time>2019-03-30T14:09:44Z</time>
      </trkpt>
      <trkpt lat="49.31884" lon="3.9984">
        <ele>128</ele>
        <time>2019-03-30T14:09:45Z</time>
      </trkpt>
      <trkpt lat="49.31881" lon="3.99834">
        <ele>128</ele>
        <time>2019-03-30T14:09:46Z</time>
      </trkpt>
      <trkpt lat="49.31879" lon="3.99829">
        <ele>128</ele>
        <time>2019-03-30T14:09:47Z</time>
      </trkpt>
      <trkpt lat="49.31877" lon="3.99823">
        <ele>129</ele>
        <time>2019-03-30T14:09:48Z</time>
      </trkpt>
      <trkpt lat="49.31875" lon="3.99816">
        <ele>129</ele>
        <time>2019-03-30T14:09:49Z</time>
      </trkpt>
      <trkpt lat="49.31873" lon="3.9981">
        <ele>129</ele>
        <time>2019-03-30T14:09:50Z</time>
      </trkpt>
      <trkpt lat="49.3187" lon="3.99803">
        <ele>129</ele>
        <time>2019-03-30T14:09:51Z</time>
      </trkpt>
      <trkpt lat="49.31868" lon="3.99798">
        <ele>129</ele>
        <time>2019-03-30T14:09:52Z</time>
      </trkpt>
      <trkpt lat="49.31865" lon="3.99791">
        <ele>129</ele>
        <time>2019-03-30T14:09:53Z</time>
      </trkpt>
      <trkpt lat="49.31863" lon="3.99785">
        <ele>129</ele>
        <time>2019-03-30T14:09:54Z</time>
      </trkpt>
      <trkpt lat="49.31861" lon="3.99778">
        <ele>129</ele>
        <time>2019-03-30T14:09:55Z</time>
      </trkpt>
      <trkpt lat="49.31858" lon="3.99771">
        <ele>129</ele>
        <time>2019-03-30T14:09:56Z</time>
      </trkpt>
      <trkpt lat="49.31855" lon="3.99764">
        <ele>128</ele>
        <time>2019-03-30T14:09:57Z</time>
      </trkpt>
      <trkpt lat="49.31853" lon="3.99757">
        <ele>129</ele>
        <time>2019-03-30T14:09:58Z</time>
      </trkpt>
      <trkpt lat="49.3185" lon="3.9975">
        <ele>129</ele>
        <time>2019-03-30T14:09:59Z</time>
      </trkpt>
      <trkpt lat="49.31848" lon="3.99743">
        <ele>129</ele>
        <time>2019-03-30T14:10:00Z</time>
      </trkpt>
      <trkpt lat="49.31845" lon="3.99737">
        <ele>129</ele>
        <time>2019-03-30T14:10:01Z</time>
      </trkpt>
      <trkpt lat="49.31843" lon="3.9973">
        <ele>129</ele>
        <time>2019-03-30T14:10:02Z</time>
      </trkpt>
      <trkpt lat="49.31841" lon="3.99724">
        <ele>129</ele>
        <time>2019-03-30T14:10:03Z</time>
      </trkpt>
      <trkpt lat="49.31839" lon="3.99718">
        <ele>129</ele>
        <time>2019-03-30T14:10:04Z</time>
      </trkpt>
      <trkpt lat="49.31836" lon="3.99712">
        <ele>129</ele>
        <time>2019-03-30T14:10:05Z</time>
      </trkpt>
      <trkpt lat="49.31833" lon="3.99705">
        <ele>129</ele>
        <time>2019-03-30T14:10:06Z</time>
      </trkpt>
      <trkpt lat="49.3183" lon="3.99698">
        <ele>129</ele>
        <time>2019-03-30T14:10:07Z</time>
      </trkpt>
      <trkpt lat="49.31828" lon="3.99691">
        <ele>129</ele>
        <time>2019-03-30T14:10:08Z</time>
      </trkpt>
      <trkpt lat="49.31825" lon="3.99684">
        <ele>130</ele>
        <time>2019-03-30T14:10:09Z</time>
      </trkpt>
      <trkpt lat="49.31822" lon="3.99677">
        <ele>130</ele>
        <time>2019-03-30T14:10:10Z</time>
      </trkpt>
      <trkpt lat="49.3182" lon="3.9967">
        <ele>129</ele>
        <time>2019-03-30T14:10:11Z</time>
      </trkpt>
      <trkpt lat="49.31818" lon="3.99664">
        <ele>129</ele>
        <time>2019-03-30T14:10:12Z</time>
      </trkpt>
      <trkpt lat="49.31816" lon="3.99657">
        <ele>130</ele>
        <time>2019-03-30T14:10:13Z</time>
      </trkpt>
      <trkpt lat="49.31815" lon="3.99651">
        <ele>130</ele>
        <time>2019-03-30T14:10:14Z</time>
      </trkpt>
      <trkpt lat="49.31813" lon="3.99644">
        <ele>130</ele>
        <time>2019-03-30T14:10:15Z</time>
      </trkpt>
      <trkpt lat="49.3181" lon="3.99639">
        <ele>130</ele>
        <time>2019-03-30T14:10:16Z</time>
      </trkpt>
      <trkpt lat="49.31808" lon="3.99633">
        <ele>130</ele>
        <time>2019-03-30T14:10:17Z</time>
      </trkpt>
      <trkpt lat="49.31806" lon="3.99628">
        <ele>130</ele>
        <time>2019-03-30T14:10:18Z</time>
      </trkpt>
      <trkpt lat="49.31804" lon="3.99622">
        <ele>130</ele>
        <time>2019-03-30T14:10:19Z</time>
      </trkpt>
      <trkpt lat="49.31802" lon="3.99616">
        <ele>129</ele>
        <time>2019-03-30T14:10:20Z</time>
      </trkpt>
      <trkpt lat="49.318" lon="3.99611">
        <ele>129</ele>
        <time>2019-03-30T14:10:21Z</time>
      </trkpt>
      <trkpt lat="49.31798" lon="3.99605">
        <ele>130</ele>
        <time>2019-03-30T14:10:22Z</time>
      </trkpt>
      <trkpt lat="49.31796" lon="3.996">
        <ele>129</ele>
        <time>2019-03-30T14:10:23Z</time>
      </trkpt>
      <trkpt lat="49.31794" lon="3.99595">
        <ele>130</ele>
        <time>2019-03-30T14:10:24Z</time>
      </trkpt>
      <trkpt lat="49.31792" lon="3.99589">
        <ele>130</ele>
        <time>2019-03-30T14:10:25Z</time>
      </trkpt>
      <trkpt lat="49.31791" lon="3.99584">
        <ele>130</ele>
        <time>2019-03-30T14:10:26Z</time>
      </trkpt>
      <trkpt lat="49.31789" lon="3.99579">
        <ele>131</ele>
        <time>2019-03-30T14:10:27Z</time>
      </trkpt>
      <trkpt lat="49.31787" lon="3.99575">
        <ele>131</ele>
        <time>2019-03-30T14:10:28Z</time>
      </trkpt>
      <trkpt lat="49.31785" lon="3.9957">
        <ele>131</ele>
        <time>2019-03-30T14:10:29Z</time>
      </trkpt>
      <trkpt lat="49.31784" lon="3.99565">
        <ele>131</ele>
        <time>2019-03-30T14:10:30Z</time>
      </trkpt>
      <trkpt lat="49.31782" lon="3.99561">
        <ele>131</ele>
        <time>2019-03-30T14:10:31Z</time>
      </trkpt>
      <trkpt lat="49.3178" lon="3.99556">
        <ele>131</ele>
        <time>2019-03-30T14:10:32Z</time>
      </trkpt>
      <trkpt lat="49.31778" lon="3.99551">
        <ele>132</ele>
        <time>2019-03-30T14:10:33Z</time>
      </trkpt>
      <trkpt lat="49.31777" lon="3.99547">
        <ele>132</ele>
        <time>2019-03-30T14:10:34Z</time>
      </trkpt>
      <trkpt lat="49.31775" lon="3.99543">
        <ele>132</ele>
        <time>2019-03-30T14:10:35Z</time>
      </trkpt>
      <trkpt lat="49.31774" lon="3.99538">
        <ele>132</ele>
        <time>2019-03-30T14:10:36Z</time>
      </trkpt>
      <trkpt lat="49.31772" lon="3.99534">
        <ele>132</ele>
        <time>2019-03-30T14:10:37Z</time>
      </trkpt>
      <trkpt lat="49.3177" lon="3.99529">
        <ele>132</ele>
        <time>2019-03-30T14:10:38Z</time>
      </trkpt>
      <trkpt lat="49.31769" lon="3.99525">
        <ele>132</ele>
        <time>2019-03-30T14:10:39Z</time>
      </trkpt>
      <trkpt lat="49.31767" lon="3.99521">
        <ele>132</ele>
        <time>2019-03-30T14:10:40Z</time>
      </trkpt>
      <trkpt lat="49.31766" lon="3.99517">
        <ele>133</ele>
        <time>2019-03-30T14:10:41Z</time>
      </trkpt>
      <trkpt lat="49.31764" lon="3.99514">
        <ele>133</ele>
        <time>2019-03-30T14:10:42Z</time>
      </trkpt>
      <trkpt lat="49.31762" lon="3.9951">
        <ele>133</ele>
        <time>2019-03-30T14:10:43Z</time>
      </trkpt>
      <trkpt lat="49.3176" lon="3.99505">
        <ele>133</ele>
        <time>2019-03-30T14:10:44Z</time>
      </trkpt>
      <trkpt lat="49.31758" lon="3.99501">
        <ele>133</ele>
        <time>2019-03-30T14:10:45Z</time>
      </trkpt>
      <trkpt lat="49.31757" lon="3.99497">
        <ele>133</ele>
        <time>2019-03-30T14:10:46Z</time>
      </trkpt>
      <trkpt lat="49.31755" lon="3.99494">
        <ele>133</ele>
        <time>2019-03-30T14:10:47Z</time>
      </trkpt>
      <trkpt lat="49.31753" lon="3.9949">
        <ele>133</ele>
        <time>2019-03-30T14:10:48Z</time>
      </trkpt>
      <trkpt lat="49.31751" lon="3.99487">
        <ele>133</ele>
        <time>2019-03-30T14:10:49Z</time>
      </trkpt>
      <trkpt lat="49.31749" lon="3.99483">
        <ele>134</ele>
        <time>2019-03-30T14:10:50Z</time>
      </trkpt>
      <trkpt lat="49.31747" lon="3.99479">
        <ele>134</ele>
        <time>2019-03-30T14:10:51Z</time>
      </trkpt>
      <trkpt lat="49.31745" lon="3.99476">
        <ele>134</ele>
        <time>2019-03-30T14:10:52Z</time>
      </trkpt>
      <trkpt lat="49.31744" lon="3.99473">
        <ele>134</ele>
        <time>2019-03-30T14:10:53Z</time>
      </trkpt>
      <trkpt lat="49.31742" lon="3.9947">
        <ele>134</ele>
        <time>2019-03-30T14:10:54Z</time>
      </trkpt>
      <trkpt lat="49.3174" lon="3.99467">
        <ele>134</ele>
        <time>2019-03-30T14:10:55Z</time>
      </trkpt>
      <trkpt lat="49.31738" lon="3.99465">
        <ele>134</ele>
        <time>2019-03-30T14:10:56Z</time>
      </trkpt>
      <trkpt lat="49.31736" lon="3.99462">
        <ele>134</ele>
        <time>2019-03-30T14:10:57Z</time>
      </trkpt>
      <trkpt lat="49.31735" lon="3.99459">
        <ele>134</ele>
        <time>2019-03-30T14:10:58Z</time>
      </trkpt>
      <trkpt lat="49.31733" lon="3.99456">
        <ele>134</ele>
        <time>2019-03-30T14:10:59Z</time>
      </trkpt>
      <trkpt lat="49.31731" lon="3.99454">
        <ele>134</ele>
        <time>2019-03-30T14:11:00Z</time>
      </trkpt>
      <trkpt lat="49.3173" lon="3.99451">
        <ele>134</ele>
        <time>2019-03-30T14:11:01Z</time>
      </trkpt>
      <trkpt lat="49.31728" lon="3.99448">
        <ele>134</ele>
        <time>2019-03-30T14:11:02Z</time>
      </trkpt>
      <trkpt lat="49.31726" lon="3.99445">
        <ele>134</ele>
        <time>2019-03-30T14:11:03Z</time>
      </trkpt>
      <trkpt lat="49.31725" lon="3.99442">
        <ele>134</ele>
        <time>2019-03-30T14:11:04Z</time>
      </trkpt>
      <trkpt lat="49.31723" lon="3.9944">
        <ele>134</ele>
        <time>2019-03-30T14:11:05Z</time>
      </trkpt>
      <trkpt lat="49.31721" lon="3.99438">
        <ele>134</ele>
        <time>2019-03-30T14:11:06Z</time>
      </trkpt>
      <trkpt lat="49.3172" lon="3.99435">
        <ele>134</ele>
        <time>2019-03-30T14:11:07Z</time>
      </trkpt>
      <trkpt lat="49.31718" lon="3.99432">
        <ele>134</ele>
        <time>2019-03-30T14:11:08Z</time>
      </trkpt>
      <trkpt lat="49.31716" lon="3.9943">
        <ele>134</ele>
        <time>2019-03-30T14:11:09Z</time>
      </trkpt>
      <trkpt lat="49.31715" lon="3.99427">
        <ele>134</ele>
        <time>2019-03-30T14:11:10Z</time>
      </trkpt>
      <trkpt lat="49.31713" lon="3.99424">
        <ele>134</ele>
        <time>2019-03-30T14:11:11Z</time>
      </trkpt>
      <trkpt lat="49.31711" lon="3.99421">
        <ele>134</ele>
        <time>2019-03-30T14:11:12Z</time>
      </trkpt>
      <trkpt lat="49.31709" lon="3.99418">
        <ele>134</ele>
        <time>2019-03-30T14:11:13Z</time>
      </trkpt>
      <trkpt lat="49.31707" lon="3.99416">
        <ele>134</ele>
        <time>2019-03-30T14:11:14Z</time>
      </trkpt>
      <trkpt lat="49.31705" lon="3.99413">
        <ele>134</ele>
        <time>2019-03-30T14:11:15Z</time>
      </trkpt>
      <trkpt lat="49.31703" lon="3.9941">
        <ele>134</ele>
        <time>2019-03-30T14:11:16Z</time>
      </trkpt>
      <trkpt lat="49.31701" lon="3.99407">
        <ele>134</ele>
        <time>2019-03-30T14:11:17Z</time>
      </trkpt>
      <trkpt lat="49.31699" lon="3.99404">
        <ele>134</ele>
        <time>2019-03-30T14:11:18Z</time>
      </trkpt>
      <trkpt lat="49.31698" lon="3.99402">
        <ele>134</ele>
        <time>2019-03-30T14:11:19Z</time>
      </trkpt>
      <trkpt lat="49.31696" lon="3.99399">
        <ele>134</ele>
        <time>2019-03-30T14:11:20Z</time>
      </trkpt>
      <trkpt lat="49.31694" lon="3.99397">
        <ele>135</ele>
        <time>2019-03-30T14:11:21Z</time>
      </trkpt>
      <trkpt lat="49.31692" lon="3.99394">
        <ele>135</ele>
        <time>2019-03-30T14:11:22Z</time>
      </trkpt>
      <trkpt lat="49.3169" lon="3.99391">
        <ele>135</ele>
        <time>2019-03-30T14:11:23Z</time>
      </trkpt>
      <trkpt lat="49.31688" lon="3.99388">
        <ele>135</ele>
        <time>2019-03-30T14:11:24Z</time>
      </trkpt>
      <trkpt lat="49.31686" lon="3.99385">
        <ele>135</ele>
        <time>2019-03-30T14:11:25Z</time>
      </trkpt>
      <trkpt lat="49.31685" lon="3.99382">
        <ele>135</ele>
        <time>2019-03-30T14:11:26Z</time>
      </trkpt>
      <trkpt lat="49.31683" lon="3.99379">
        <ele>135</ele>
        <time>2019-03-30T14:11:27Z</time>
      </trkpt>
      <trkpt lat="49.31681" lon="3.99376">
        <ele>135</ele>
        <time>2019-03-30T14:11:28Z</time>
      </trkpt>
      <trkpt lat="49.31679" lon="3.99373">
        <ele>135</ele>
        <time>2019-03-30T14:11:29Z</time>
      </trkpt>
      <trkpt lat="49.31677" lon="3.9937">
        <ele>135</ele>
        <time>2019-03-30T14:11:30Z</time>
      </trkpt>
      <trkpt lat="49.31676" lon="3.99367">
        <ele>136</ele>
        <time>2019-03-30T14:11:31Z</time>
      </trkpt>
      <trkpt lat="49.31674" lon="3.99365">
        <ele>136</ele>
        <time>2019-03-30T14:11:32Z</time>
      </trkpt>
      <trkpt lat="49.31672" lon="3.99362">
        <ele>136</ele>
        <time>2019-03-30T14:11:33Z</time>
      </trkpt>
      <trkpt lat="49.3167" lon="3.99359">
        <ele>136</ele>
        <time>2019-03-30T14:11:34Z</time>
      </trkpt>
      <trkpt lat="49.31668" lon="3.99356">
        <ele>136</ele>
        <time>2019-03-30T14:11:35Z</time>
      </trkpt>
      <trkpt lat="49.31667" lon="3.99354">
        <ele>137</ele>
        <time>2019-03-30T14:11:36Z</time>
      </trkpt>
      <trkpt lat="49.31665" lon="3.99351">
        <ele>137</ele>
        <time>2019-03-30T14:11:37Z</time>
      </trkpt>
      <trkpt lat="49.31663" lon="3.99348">
        <ele>137</ele>
        <time>2019-03-30T14:11:38Z</time>
      </trkpt>
      <trkpt lat="49.31661" lon="3.99346">
        <ele>137</ele>
        <time>2019-03-30T14:11:39Z</time>
      </trkpt>
      <trkpt lat="49.31659" lon="3.99343">
        <ele>137</ele>
        <time>2019-03-30T14:11:40Z</time>
      </trkpt>
      <trkpt lat="49.31658" lon="3.9934">
        <ele>137</ele>
        <time>2019-03-30T14:11:41Z</time>
      </trkpt>
      <trkpt lat="49.31656" lon="3.99338">
        <ele>137</ele>
        <time>2019-03-30T14:11:42Z</time>
      </trkpt>
      <trkpt lat="49.31654" lon="3.99335">
        <ele>138</ele>
        <time>2019-03-30T14:11:43Z</time>
      </trkpt>
      <trkpt lat="49.31653" lon="3.99333">
        <ele>138</ele>
        <time>2019-03-30T14:11:44Z</time>
      </trkpt>
      <trkpt lat="49.31651" lon="3.9933">
        <ele>138</ele>
        <time>2019-03-30T14:11:45Z</time>
      </trkpt>
      <trkpt lat="49.31649" lon="3.99327">
        <ele>138</ele>
        <time>2019-03-30T14:11:46Z</time>
      </trkpt>
      <trkpt lat="49.31648" lon="3.99325">
        <ele>139</ele>
        <time>2019-03-30T14:11:47Z</time>
      </trkpt>
      <trkpt lat="49.31646" lon="3.99323">
        <ele>139</ele>
        <time>2019-03-30T14:11:48Z</time>
      </trkpt>
      <trkpt lat="49.31644" lon="3.9932">
        <ele>139</ele>
        <time>2019-03-30T14:11:49Z</time>
      </trkpt>
      <trkpt lat="49.31642" lon="3.99316">
        <ele>139</ele>
        <time>2019-03-30T14:11:50Z</time>
      </trkpt>
      <trkpt lat="49.3164" lon="3.99314">
        <ele>139</ele>
        <time>2019-03-30T14:11:51Z</time>
      </trkpt>
      <trkpt lat="49.31639" lon="3.99311">
        <ele>139</ele>
        <time>2019-03-30T14:11:52Z</time>
      </trkpt>
      <trkpt lat="49.31637" lon="3.99308">
        <ele>140</ele>
        <time>2019-03-30T14:11:53Z</time>
      </trkpt>
      <trkpt lat="49.31635" lon="3.99306">
        <ele>140</ele>
        <time>2019-03-30T14:11:54Z</time>
      </trkpt>
      <trkpt lat="49.31633" lon="3.99303">
        <ele>140</ele>
        <time>2019-03-30T14:11:55Z</time>
      </trkpt>
      <trkpt lat="49.31631" lon="3.993">
        <ele>140</ele>
        <time>2019-03-30T14:11:56Z</time>
      </trkpt>
      <trkpt lat="49.3163" lon="3.99298">
        <ele>140</ele>
        <time>2019-03-30T14:11:57Z</time>
      </trkpt>
      <trkpt lat="49.31628" lon="3.99295">
        <ele>140</ele>
        <time>2019-03-30T14:11:58Z</time>
      </trkpt>
      <trkpt lat="49.31626" lon="3.99292">
        <ele>141</ele>
        <time>2019-03-30T14:11:59Z</time>
      </trkpt>
      <trkpt lat="49.31625" lon="3.99289">
        <ele>141</ele>
        <time>2019-03-30T14:12:00Z</time>
      </trkpt>
      <trkpt lat="49.31623" lon="3.99287">
        <ele>141</ele>
        <time>2019-03-30T14:12:01Z</time>
      </trkpt>
      <trkpt lat="49.31621" lon="3.99283">
        <ele>141</ele>
        <time>2019-03-30T14:12:02Z</time>
      </trkpt>
      <trkpt lat="49.3162" lon="3.99281">
        <ele>141</ele>
        <time>2019-03-30T14:12:03Z</time>
      </trkpt>
      <trkpt lat="49.31618" lon="3.99278">
        <ele>141</ele>
        <time>2019-03-30T14:12:04Z</time>
      </trkpt>
      <trkpt lat="49.31617" lon="3.99275">
        <ele>141</ele>
        <time>2019-03-30T14:12:05Z</time>
      </trkpt>
      <trkpt lat="49.31615" lon="3.99272">
        <ele>141</ele>
        <time>2019-03-30T14:12:06Z</time>
      </trkpt>
      <trkpt lat="49.31613" lon="3.9927">
        <ele>141</ele>
        <time>2019-03-30T14:12:07Z</time>
      </trkpt>
      <trkpt lat="49.31612" lon="3.99267">
        <ele>141</ele>
        <time>2019-03-30T14:12:08Z</time>
      </trkpt>
      <trkpt lat="49.3161" lon="3.99264">
        <ele>141</ele>
        <time>2019-03-30T14:12:09Z</time>
      </trkpt>
      <trkpt lat="49.31608" lon="3.9926">
        <ele>141</ele>
        <time>2019-03-30T14:12:10Z</time>
      </trkpt>
      <trkpt lat="49.31607" lon="3.99257">
        <ele>141</ele>
        <time>2019-03-30T14:12:11Z</time>
      </trkpt>
      <trkpt lat="49.31605" lon="3.99255">
        <ele>141</ele>
        <time>2019-03-30T14:12:12Z</time>
      </trkpt>
      <trkpt lat="49.31604" lon="3.99252">
        <ele>142</ele>
        <time>2019-03-30T14:12:13Z</time>
      </trkpt>
      <trkpt lat="49.31602" lon="3.99249">
        <ele>142</ele>
        <time>2019-03-30T14:12:14Z</time>
      </trkpt>
      <trkpt lat="49.31601" lon="3.99245">
        <ele>142</ele>
        <time>2019-03-30T14:12:15Z</time>
      </trkpt>
      <trkpt lat="49.31599" lon="3.99242">
        <ele>142</ele>
        <time>2019-03-30T14:12:16Z</time>
      </trkpt>
      <trkpt lat="49.31598" lon="3.99239">
        <ele>142</ele>
        <time>2019-03-30T14:12:17Z</time>
      </trkpt>
      <trkpt lat="49.31596" lon="3.99236">
        <ele>142</ele>
        <time>2019-03-30T14:12:18Z</time>
      </trkpt>
      <trkpt lat="49.31595" lon="3.99233">
        <ele>142</ele>
        <time>2019-03-30T14:12:19Z</time>
      </trkpt>
      <trkpt lat="49.31593" lon="3.9923">
        <ele>142</ele>
        <time>2019-03-30T14:12:20Z</time>
      </trkpt>
      <trkpt lat="49.31592" lon="3.99227">
        <ele>142</ele>
        <time>2019-03-30T14:12:21Z</time>
      </trkpt>
      <trkpt lat="49.31591" lon="3.99224">
        <ele>142</ele>
        <time>2019-03-30T14:12:22Z</time>
      </trkpt>
      <trkpt lat="49.31589" lon="3.99221">
        <ele>142</ele>
        <time>2019-03-30T14:12:23Z</time>
      </trkpt>
      <trkpt lat="49.31588" lon="3.99218">
        <ele>143</ele>
        <time>2019-03-30T14:12:24Z</time>
      </trkpt>
      <trkpt lat="49.31587" lon="3.99215">
        <ele>143</ele>
        <time>2019-03-30T14:12:25Z</time>
      </trkpt>
      <trkpt lat="49.31585" lon="3.99212">
        <ele>143</ele>
        <time>2019-03-30T14:12:26Z</time>
      </trkpt>
      <trkpt lat="49.31584" lon="3.99209">
        <ele>143</ele>
        <time>2019-03-30T14:12:27Z</time>
      </trkpt>
      <trkpt lat="49.31582" lon="3.99206">
        <ele>143</ele>
        <time>2019-03-30T14:12:28Z</time>
      </trkpt>
      <trkpt lat="49.31581" lon="3.99202">
        <ele>143</ele>
        <time>2019-03-30T14:12:29Z</time>
      </trkpt>
      <trkpt lat="49.3158" lon="3.99198">
        <ele>143</ele>
        <time>2019-03-30T14:12:30Z</time>
      </trkpt>
      <trkpt lat="49.31578" lon="3.99195">
        <ele>144</ele>
        <time>2019-03-30T14:12:31Z</time>
      </trkpt>
      <trkpt lat="49.31577" lon="3.99191">
        <ele>144</ele>
        <time>2019-03-30T14:12:32Z</time>
      </trkpt>
      <trkpt lat="49.31575" lon="3.99188">
        <ele>144</ele>
        <time>2019-03-30T14:12:33Z</time>
      </trkpt>
      <trkpt lat="49.31573" lon="3.99185">
        <ele>144</ele>
        <time>2019-03-30T14:12:34Z</time>
      </trkpt>
      <trkpt lat="49.31572" lon="3.99181">
        <ele>144</ele>
        <time>2019-03-30T14:12:35Z</time>
      </trkpt>
      <trkpt lat="49.31571" lon="3.99178">
        <ele>144</ele>
        <time>2019-03-30T14:12:36Z</time>
      </trkpt>
      <trkpt lat="49.3157" lon="3.99174">
        <ele>144</ele>
        <time>2019-03-30T14:12:37Z</time>
      </trkpt>
      <trkpt lat="49.31568" lon="3.99171">
        <ele>144</ele>
        <time>2019-03-30T14:12:38Z</time>
      </trkpt>
      <trkpt lat="49.31567" lon="3.99167">
        <ele>144</ele>
        <time>2019-03-30T14:12:39Z</time>
      </trkpt>
      <trkpt lat="49.31565" lon="3.99164">
        <ele>144</ele>
        <time>2019-03-30T14:12:40Z</time>
      </trkpt>
      <trkpt lat="49.31564" lon="3.9916">
        <ele>144</ele>
        <time>2019-03-30T14:12:41Z</time>
      </trkpt>
      <trkpt lat="49.31562" lon="3.99156">
        <ele>144</ele>
        <time>2019-03-30T14:12:42Z</time>
      </trkpt>
      <trkpt lat="49.3156" lon="3.99152">
        <ele>143</ele>
        <time>2019-03-30T14:12:43Z</time>
      </trkpt>
      <trkpt lat="49.31558" lon="3.99147">
        <ele>144</ele>
        <time>2019-03-30T14:12:44Z</time>
      </trkpt>
      <trkpt lat="49.31557" lon="3.99144">
        <ele>143</ele>
        <time>2019-03-30T14:12:45Z</time>
      </trkpt>
      <trkpt lat="49.31555" lon="3.99139">
        <ele>144</ele>
        <time>2019-03-30T14:12:46Z</time>
      </trkpt>
      <trkpt lat="49.31553" lon="3.99135">
        <ele>143</ele>
        <time>2019-03-30T14:12:47Z</time>
      </trkpt>
      <trkpt lat="49.31552" lon="3.9913">
        <ele>143</ele>
        <time>2019-03-30T14:12:48Z</time>
      </trkpt>
      <trkpt lat="49.3155" lon="3.99125">
        <ele>144</ele>
        <time>2019-03-30T14:12:49Z</time>
      </trkpt>
      <trkpt lat="49.31547" lon="3.9912">
        <ele>143</ele>
        <time>2019-03-30T14:12:50Z</time>
      </trkpt>
      <trkpt lat="49.31545" lon="3.99115">
        <ele>144</ele>
        <time>2019-03-30T14:12:51Z</time>
      </trkpt>
      <trkpt lat="49.31543" lon="3.9911">
        <ele>144</ele>
        <time>2019-03-30T14:12:52Z</time>
      </trkpt>
      <trkpt lat="49.31541" lon="3.99105">
        <ele>144</ele>
        <time>2019-03-30T14:12:53Z</time>
      </trkpt>
      <trkpt lat="49.31539" lon="3.991">
        <ele>144</ele>
        <time>2019-03-30T14:12:54Z</time>
      </trkpt>
      <trkpt lat="49.31537" lon="3.99094">
        <ele>144</ele>
        <time>2019-03-30T14:12:55Z</time>
      </trkpt>
      <trkpt lat="49.31535" lon="3.99088">
        <ele>143</ele>
        <time>2019-03-30T14:12:56Z</time>
      </trkpt>
      <trkpt lat="49.31533" lon="3.99083">
        <ele>143</ele>
        <time>2019-03-30T14:12:57Z</time>
      </trkpt>
      <trkpt lat="49.31531" lon="3.99079">
        <ele>143</ele>
        <time>2019-03-30T14:12:58Z</time>
      </trkpt>
      <trkpt lat="49.3153" lon="3.99074">
        <ele>143</ele>
        <time>2019-03-30T14:12:59Z</time>
      </trkpt>
      <trkpt lat="49.31528" lon="3.9907">
        <ele>143</ele>
        <time>2019-03-30T14:13:00Z</time>
      </trkpt>
      <trkpt lat="49.31527" lon="3.99065">
        <ele>143</ele>
        <time>2019-03-30T14:13:01Z</time>
      </trkpt>
      <trkpt lat="49.31525" lon="3.99061">
        <ele>143</ele>
        <time>2019-03-30T14:13:02Z</time>
      </trkpt>
      <trkpt lat="49.31523" lon="3.99055">
        <ele>143</ele>
        <time>2019-03-30T14:13:03Z</time>
      </trkpt>
      <trkpt lat="49.31521" lon="3.9905">
        <ele>143</ele>
        <time>2019-03-30T14:13:04Z</time>
      </trkpt>
      <trkpt lat="49.31519" lon="3.99046">
        <ele>143</ele>
        <time>2019-03-30T14:13:05Z</time>
      </trkpt>
      <trkpt lat="49.31517" lon="3.9904">
        <ele>143</ele>
        <time>2019-03-30T14:13:06Z</time>
      </trkpt>
      <trkpt lat="49.31515" lon="3.99035">
        <ele>143</ele>
        <time>2019-03-30T14:13:07Z</time>
      </trkpt>
      <trkpt lat="49.31513" lon="3.9903">
        <ele>143</ele>
        <time>2019-03-30T14:13:08Z</time>
      </trkpt>
      <trkpt lat="49.3151" lon="3.99025">
        <ele>143</ele>
        <time>2019-03-30T14:13:09Z</time>
      </trkpt>
      <trkpt lat="49.31509" lon="3.99021">
        <ele>144</ele>
        <time>2019-03-30T14:13:10Z</time>
      </trkpt>
      <trkpt lat="49.31507" lon="3.99016">
        <ele>143</ele>
        <time>2019-03-30T14:13:11Z</time>
      </trkpt>
      <trkpt lat="49.31505" lon="3.99011">
        <ele>143</ele>
        <time>2019-03-30T14:13:12Z</time>
      </trkpt>
      <trkpt lat="49.31503" lon="3.99007">
        <ele>144</ele>
        <time>2019-03-30T14:13:13Z</time>
      </trkpt>
      <trkpt lat="49.31502" lon="3.99002">
        <ele>144</ele>
        <time>2019-03-30T14:13:14Z</time>
      </trkpt>
      <trkpt lat="49.31502" lon="3.98997">
        <ele>144</ele>
        <time>2019-03-30T14:13:15Z</time>
      </trkpt>
      <trkpt lat="49.31501" lon="3.98993">
        <ele>144</ele>
        <time>2019-03-30T14:13:16Z</time>
      </trkpt>
      <trkpt lat="49.315" lon="3.98988">
        <ele>144</ele>
        <time>2019-03-30T14:13:17Z</time>
      </trkpt>
      <trkpt lat="49.31498" lon="3.98984">
        <ele>144</ele>
        <time>2019-03-30T14:13:18Z</time>
      </trkpt>
      <trkpt lat="49.31496" lon="3.98981">
        <ele>144</ele>
        <time>2019-03-30T14:13:19Z</time>
      </trkpt>
      <trkpt lat="49.31494" lon="3.98979">
        <ele>144</ele>
        <time>2019-03-30T14:13:20Z</time>
      </trkpt>
      <trkpt lat="49.31492" lon="3.98977">
        <ele>144</ele>
        <time>2019-03-30T14:13:21Z</time>
      </trkpt>
      <trkpt lat="49.31491" lon="3.98974">
        <ele>144</ele>
        <time>2019-03-30T14:13:22Z</time>
      </trkpt>
      <trkpt lat="49.31491" lon="3.98972">
        <ele>144</ele>
        <time>2019-03-30T14:13:23Z</time>
      </trkpt>
      <trkpt lat="49.31491" lon="3.98972">
        <ele>144</ele>
        <time>2019-03-30T14:13:24Z</time>
      </trkpt>
      <trkpt lat="49.31491" lon="3.98971">
        <ele>144</ele>
        <time>2019-03-30T14:13:25Z</time>
      </trkpt>
      <trkpt lat="49.31491" lon="3.98971">
        <ele>144</ele>
        <time>2019-03-30T14:13:26Z</time>
      </trkpt>
      <trkpt lat="49.31491" lon="3.98971">
        <ele>144</ele>
        <time>2019-03-30T14:13:27Z</time>
      </trkpt>
      <trkpt lat="49.31491" lon="3.98971">
        <ele>144</ele>
        <time>2019-03-30T14:13:28Z</time>
      </trkpt>
      <trkpt lat="49.31491" lon="3.98971">
        <ele>144</ele>
        <time>2019-03-30T14:13:29Z</time>
      </trkpt>
      <trkpt lat="49.31491" lon="3.98971">
        <ele>144</ele>
        <time>2019-03-30T14:13:30Z</time>
      </trkpt>
      <trkpt lat="49.31491" lon="3.98971">
        <ele>144</ele>
        <time>2019-03-30T14:13:31Z</time>
      </trkpt>
      <trkpt lat="49.31491" lon="3.98971">
        <ele>144</ele>
        <time>2019-03-30T14:13:32Z</time>
      </trkpt>
      <trkpt lat="49.31491" lon="3.98971">
        <ele>144</ele>
        <time>2019-03-30T14:13:33Z</time>
      </trkpt>
      <trkpt lat="49.31491" lon="3.98971">
        <ele>144</ele>
        <time>2019-03-30T14:13:34Z</time>
      </trkpt>
      <trkpt lat="49.31491" lon="3.98971">
        <ele>144</ele>
        <time>2019-03-30T14:13:35Z</time>
      </trkpt>
      <trkpt lat="49.31491" lon="3.98971">
        <ele>144</ele>
        <time>2019-03-30T14:13:36Z</time>
      </trkpt>
      <trkpt lat="49.31491" lon="3.98971">
        <ele>144</ele>
        <time>2019-03-30T14:13:37Z</time>
      </trkpt>
      <trkpt lat="49.31491" lon="3.98971">
        <ele>144</ele>
        <time>2019-03-30T14:13:38Z</time>
      </trkpt>
      <trkpt lat="49.31491" lon="3.98971">
        <ele>144</ele>
        <time>2019-03-30T14:13:39Z</time>
      </trkpt>
      <trkpt lat="49.31491" lon="3.98971">
        <ele>144</ele>
        <time>2019-03-30T14:13:40Z</time>
      </trkpt>
      <trkpt lat="49.31491" lon="3.98971">
        <ele>144</ele>
        <time>2019-03-30T14:13:41Z</time>
      </trkpt>
      <trkpt lat="49.31491" lon="3.98971">
        <ele>144</ele>
        <time>2019-03-30T14:13:42Z</time>
      </trkpt>
      <trkpt lat="49.31491" lon="3.98971">
        <ele>144</ele>
        <time>2019-03-30T14:13:43Z</time>
      </trkpt>
      <trkpt lat="49.31491" lon="3.98971">
        <ele>144</ele>
        <time>2019-03-30T14:13:44Z</time>
      </trkpt>
      <trkpt lat="49.31491" lon="3.98971">
        <ele>144</ele>
        <time>2019-03-30T14:13:45Z</time>
      </trkpt>
      <trkpt lat="49.31491" lon="3.98971">
        <ele>144</ele>
        <time>2019-03-30T14:13:46Z</time>
      </trkpt>
      <trkpt lat="49.31491" lon="3.98971">
        <ele>144</ele>
        <time>2019-03-30T14:13:47Z</time>
      </trkpt>
      <trkpt lat="49.31491" lon="3.98971">
        <ele>144</ele>
        <time>2019-03-30T14:13:48Z</time>
      </trkpt>
      <trkpt lat="49.31491" lon="3.98971">
        <ele>144</ele>
        <time>2019-03-30T14:13:49Z</time>
      </trkpt>
      <trkpt lat="49.31491" lon="3.98971">
        <ele>144</ele>
        <time>2019-03-30T14:13:50Z</time>
      </trkpt>
      <trkpt lat="49.31491" lon="3.98971">
        <ele>144</ele>
        <time>2019-03-30T14:13:51Z</time>
      </trkpt>
      <trkpt lat="49.31491" lon="3.98971">
        <ele>144</ele>
        <time>2019-03-30T14:13:52Z</time>
      </trkpt>
      <trkpt lat="49.31491" lon="3.98971">
        <ele>144</ele>
        <time>2019-03-30T14:13:53Z</time>
      </trkpt>
      <trkpt lat="49.31491" lon="3.98971">
        <ele>144</ele>
        <time>2019-03-30T14:13:54Z</time>
      </trkpt>
      <trkpt lat="49.31491" lon="3.98971">
        <ele>144</ele>
        <time>2019-03-30T14:13:55Z</time>
      </trkpt>
      <trkpt lat="49.31491" lon="3.98971">
        <ele>144</ele>
        <time>2019-03-30T14:13:56Z</time>
      </trkpt>
      <trkpt lat="49.31491" lon="3.98971">
        <ele>144</ele>
        <time>2019-03-30T14:13:57Z</time>
      </trkpt>
      <trkpt lat="49.31491" lon="3.98971">
        <ele>144</ele>
        <time>2019-03-30T14:13:58Z</time>
      </trkpt>
      <trkpt lat="49.31491" lon="3.98971">
        <ele>144</ele>
        <time>2019-03-30T14:13:59Z</time>
      </trkpt>
      <trkpt lat="49.31491" lon="3.98971">
        <ele>144</ele>
        <time>2019-03-30T14:14:00Z</time>
      </trkpt>
      <trkpt lat="49.31491" lon="3.98971">
        <ele>144</ele>
        <time>2019-03-30T14:14:01Z</time>
      </trkpt>
      <trkpt lat="49.31491" lon="3.98971">
        <ele>144</ele>
        <time>2019-03-30T14:14:02Z</time>
      </trkpt>
      <trkpt lat="49.31491" lon="3.98971">
        <ele>144</ele>
        <time>2019-03-30T14:14:03Z</time>
      </trkpt>
      <trkpt lat="49.31491" lon="3.98971">
        <ele>144</ele>
        <time>2019-03-30T14:14:04Z</time>
      </trkpt>
      <trkpt lat="49.31491" lon="3.98971">
        <ele>144</ele>
        <time>2019-03-30T14:14:05Z</time>
      </trkpt>
      <trkpt lat="49.31491" lon="3.98971">
        <ele>144</ele>
        <time>2019-03-30T14:14:06Z</time>
      </trkpt>
      <trkpt lat="49.31491" lon="3.98971">
        <ele>144</ele>
        <time>2019-03-30T14:14:07Z</time>
      </trkpt>
      <trkpt lat="49.31491" lon="3.98971">
        <ele>144</ele>
        <time>2019-03-30T14:14:08Z</time>
      </trkpt>
      <trkpt lat="49.31491" lon="3.98971">
        <ele>144</ele>
        <time>2019-03-30T14:14:09Z</time>
      </trkpt>
      <trkpt lat="49.31491" lon="3.98971">
        <ele>144</ele>
        <time>2019-03-30T14:14:10Z</time>
      </trkpt>
      <trkpt lat="49.31491" lon="3.98971">
        <ele>144</ele>
        <time>2019-03-30T14:14:11Z</time>
      </trkpt>
      <trkpt lat="49.31491" lon="3.98971">
        <ele>144</ele>
        <time>2019-03-30T14:14:12Z</time>
      </trkpt>
      <trkpt lat="49.31491" lon="3.98971">
        <ele>144</ele>
        <time>2019-03-30T14:14:13Z</time>
      </trkpt>
      <trkpt lat="49.31491" lon="3.98971">
        <ele>144</ele>
        <time>2019-03-30T14:14:14Z</time>
      </trkpt>
      <trkpt lat="49.31491" lon="3.98971">
        <ele>144</ele>
        <time>2019-03-30T14:14:15Z</time>
      </trkpt>
      <trkpt lat="49.31491" lon="3.9897">
        <ele>144</ele>
        <time>2019-03-30T14:14:16Z</time>
      </trkpt>
      <trkpt lat="49.3149" lon="3.98968">
        <ele>144</ele>
        <time>2019-03-30T14:14:17Z</time>
      </trkpt>
      <trkpt lat="49.31489" lon="3.98966">
        <ele>144</ele>
        <time>2019-03-30T14:14:18Z</time>
      </trkpt>
      <trkpt lat="49.31488" lon="3.98965">
        <ele>144</ele>
        <time>2019-03-30T14:14:19Z</time>
      </trkpt>
      <trkpt lat="49.31487" lon="3.98963">
        <ele>144</ele>
        <time>2019-03-30T14:14:20Z</time>
      </trkpt>
      <trkpt lat="49.31486" lon="3.98961">
        <ele>144</ele>
        <time>2019-03-30T14:14:21Z</time>
      </trkpt>
      <trkpt lat="49.31485" lon="3.98958">
        <ele>144</ele>
        <time>2019-03-30T14:14:22Z</time>
      </trkpt>
      <trkpt lat="49.31484" lon="3.98955">
        <ele>143</ele>
        <time>2019-03-30T14:14:23Z</time>
      </trkpt>
      <trkpt lat="49.31483" lon="3.98952">
        <ele>143</ele>
        <time>2019-03-30T14:14:24Z</time>
      </trkpt>
      <trkpt lat="49.31481" lon="3.98948">
        <ele>143</ele>
        <time>2019-03-30T14:14:25Z</time>
      </trkpt>
      <trkpt lat="49.3148" lon="3.98944">
        <ele>143</ele>
        <time>2019-03-30T14:14:26Z</time>
      </trkpt>
      <trkpt lat="49.31478" lon="3.9894">
        <ele>143</ele>
        <time>2019-03-30T14:14:27Z</time>
      </trkpt>
      <trkpt lat="49.31477" lon="3.98937">
        <ele>143</ele>
        <time>2019-03-30T14:14:28Z</time>
      </trkpt>
      <trkpt lat="49.31475" lon="3.98933">
        <ele>143</ele>
        <time>2019-03-30T14:14:29Z</time>
      </trkpt>
      <trkpt lat="49.31474" lon="3.98929">
        <ele>143</ele>
        <time>2019-03-30T14:14:30Z</time>
      </trkpt>
      <trkpt lat="49.31472" lon="3.98924">
        <ele>143</ele>
        <time>2019-03-30T14:14:31Z</time>
      </trkpt>
      <trkpt lat="49.3147" lon="3.9892">
        <ele>143</ele>
        <time>2019-03-30T14:14:32Z</time>
      </trkpt>
      <trkpt lat="49.31469" lon="3.98915">
        <ele>143</ele>
        <time>2019-03-30T14:14:33Z</time>
      </trkpt>
      <trkpt lat="49.31467" lon="3.9891">
        <ele>143</ele>
        <time>2019-03-30T14:14:34Z</time>
      </trkpt>
      <trkpt lat="49.31465" lon="3.98906">
        <ele>143</ele>
        <time>2019-03-30T14:14:35Z</time>
      </trkpt>
      <trkpt lat="49.31463" lon="3.98901">
        <ele>143</ele>
        <time>2019-03-30T14:14:36Z</time>
      </trkpt>
      <trkpt lat="49.31461" lon="3.98896">
        <ele>143</ele>
        <time>2019-03-30T14:14:37Z</time>
      </trkpt>
      <trkpt lat="49.31459" lon="3.9889">
        <ele>142</ele>
        <time>2019-03-30T14:14:38Z</time>
      </trkpt>
      <trkpt lat="49.31457" lon="3.98885">
        <ele>142</ele>
        <time>2019-03-30T14:14:39Z</time>
      </trkpt>
      <trkpt lat="49.31455" lon="3.98881">
        <ele>142</ele>
        <time>2019-03-30T14:14:40Z</time>
      </trkpt>
      <trkpt lat="49.31453" lon="3.98876">
        <ele>142</ele>
        <time>2019-03-30T14:14:41Z</time>
      </trkpt>
      <trkpt lat="49.31451" lon="3.98871">
        <ele>142</ele>
        <time>2019-03-30T14:14:42Z</time>
      </trkpt>
      <trkpt lat="49.31449" lon="3.98866">
        <ele>142</ele>
        <time>2019-03-30T14:14:43Z</time>
      </trkpt>
      <trkpt lat="49.31447" lon="3.98861">
        <ele>143</ele>
        <time>2019-03-30T14:14:44Z</time>
      </trkpt>
      <trkpt lat="49.31445" lon="3.98856">
        <ele>143</ele>
        <time>2019-03-30T14:14:45Z</time>
      </trkpt>
      <trkpt lat="49.31444" lon="3.98852">
        <ele>143</ele>
        <time>2019-03-30T14:14:46Z</time>
      </trkpt>
      <trkpt lat="49.31442" lon="3.98847">
        <ele>143</ele>
        <time>2019-03-30T14:14:47Z</time>
      </trkpt>
      <trkpt lat="49.3144" lon="3.98842">
        <ele>143</ele>
        <time>2019-03-30T14:14:48Z</time>
      </trkpt>
      <trkpt lat="49.31438" lon="3.98837">
        <ele>143</ele>
        <time>2019-03-30T14:14:49Z</time>
      </trkpt>
      <trkpt lat="49.31436" lon="3.98832">
        <ele>143</ele>
        <time>2019-03-30T14:14:50Z</time>
      </trkpt>
      <trkpt lat="49.31434" lon="3.98827">
        <ele>143</ele>
        <time>2019-03-30T14:14:51Z</time>
      </trkpt>
      <trkpt lat="49.31432" lon="3.98822">
        <ele>143</ele>
        <time>2019-03-30T14:14:52Z</time>
      </trkpt>
      <trkpt lat="49.3143" lon="3.98817">
        <ele>143</ele>
        <time>2019-03-30T14:14:53Z</time>
      </trkpt>
      <trkpt lat="49.31428" lon="3.98812">
        <ele>143</ele>
        <time>2019-03-30T14:14:54Z</time>
      </trkpt>
      <trkpt lat="49.31426" lon="3.98807">
        <ele>144</ele>
        <time>2019-03-30T14:14:55Z</time>
      </trkpt>
      <trkpt lat="49.31424" lon="3.98802">
        <ele>144</ele>
        <time>2019-03-30T14:14:56Z</time>
      </trkpt>
      <trkpt lat="49.31422" lon="3.98796">
        <ele>144</ele>
        <time>2019-03-30T14:14:57Z</time>
      </trkpt>
      <trkpt lat="49.3142" lon="3.98791">
        <ele>144</ele>
        <time>2019-03-30T14:14:58Z</time>
      </trkpt>
      <trkpt lat="49.31418" lon="3.98785">
        <ele>144</ele>
        <time>2019-03-30T14:14:59Z</time>
      </trkpt>
      <trkpt lat="49.31416" lon="3.9878">
        <ele>144</ele>
        <time>2019-03-30T14:15:00Z</time>
      </trkpt>
      <trkpt lat="49.31414" lon="3.98774">
        <ele>144</ele>
        <time>2019-03-30T14:15:01Z</time>
      </trkpt>
      <trkpt lat="49.31412" lon="3.98769">
        <ele>144</ele>
        <time>2019-03-30T14:15:02Z</time>
      </trkpt>
      <trkpt lat="49.31409" lon="3.98763">
        <ele>144</ele>
        <time>2019-03-30T14:15:03Z</time>
      </trkpt>
      <trkpt lat="49.31407" lon="3.98758">
        <ele>144</ele>
        <time>2019-03-30T14:15:04Z</time>
      </trkpt>
      <trkpt lat="49.31405" lon="3.98752">
        <ele>144</ele>
        <time>2019-03-30T14:15:05Z</time>
      </trkpt>
      <trkpt lat="49.31403" lon="3.98747">
        <ele>144</ele>
        <time>2019-03-30T14:15:06Z</time>
      </trkpt>
      <trkpt lat="49.31402" lon="3.98742">
        <ele>144</ele>
        <time>2019-03-30T14:15:07Z</time>
      </trkpt>
      <trkpt lat="49.31399" lon="3.98736">
        <ele>144</ele>
        <time>2019-03-30T14:15:08Z</time>
      </trkpt>
      <trkpt lat="49.31397" lon="3.98731">
        <ele>144</ele>
        <time>2019-03-30T14:15:09Z</time>
      </trkpt>
      <trkpt lat="49.31395" lon="3.98726">
        <ele>144</ele>
        <time>2019-03-30T14:15:10Z</time>
      </trkpt>
      <trkpt lat="49.31393" lon="3.98721">
        <ele>144</ele>
        <time>2019-03-30T14:15:11Z</time>
      </trkpt>
      <trkpt lat="49.31391" lon="3.98715">
        <ele>144</ele>
        <time>2019-03-30T14:15:12Z</time>
      </trkpt>
      <trkpt lat="49.31389" lon="3.9871">
        <ele>144</ele>
        <time>2019-03-30T14:15:13Z</time>
      </trkpt>
      <trkpt lat="49.31387" lon="3.98705">
        <ele>144</ele>
        <time>2019-03-30T14:15:14Z</time>
      </trkpt>
      <trkpt lat="49.31384" lon="3.987">
        <ele>144</ele>
        <time>2019-03-30T14:15:15Z</time>
      </trkpt>
      <trkpt lat="49.31383" lon="3.98694">
        <ele>143</ele>
        <time>2019-03-30T14:15:16Z</time>
      </trkpt>
      <trkpt lat="49.31381" lon="3.98689">
        <ele>143</ele>
        <time>2019-03-30T14:15:17Z</time>
      </trkpt>
      <trkpt lat="49.31377" lon="3.98679">
        <ele>143</ele>
        <time>2019-03-30T14:15:19Z</time>
      </trkpt>
      <trkpt lat="49.31375" lon="3.98674">
        <ele>143</ele>
        <time>2019-03-30T14:15:20Z</time>
      </trkpt>
      <trkpt lat="49.31373" lon="3.98669">
        <ele>143</ele>
        <time>2019-03-30T14:15:21Z</time>
      </trkpt>
      <trkpt lat="49.31371" lon="3.98664">
        <ele>143</ele>
        <time>2019-03-30T14:15:22Z</time>
      </trkpt>
      <trkpt lat="49.31368" lon="3.98659">
        <ele>143</ele>
        <time>2019-03-30T14:15:23Z</time>
      </trkpt>
      <trkpt lat="49.31366" lon="3.98654">
        <ele>143</ele>
        <time>2019-03-30T14:15:24Z</time>
      </trkpt>
      <trkpt lat="49.31362" lon="3.98644">
        <ele>143</ele>
        <time>2019-03-30T14:15:26Z</time>
      </trkpt>
      <trkpt lat="49.3136" lon="3.98639">
        <ele>143</ele>
        <time>2019-03-30T14:15:27Z</time>
      </trkpt>
      <trkpt lat="49.31358" lon="3.98634">
        <ele>143</ele>
        <time>2019-03-30T14:15:28Z</time>
      </trkpt>
      <trkpt lat="49.31356" lon="3.9863">
        <ele>143</ele>
        <time>2019-03-30T14:15:29Z</time>
      </trkpt>
      <trkpt lat="49.31351" lon="3.9862">
        <ele>143</ele>
        <time>2019-03-30T14:15:31Z</time>
      </trkpt>
      <trkpt lat="49.31349" lon="3.98615">
        <ele>143</ele>
        <time>2019-03-30T14:15:32Z</time>
      </trkpt>
      <trkpt lat="49.31347" lon="3.98611">
        <ele>143</ele>
        <time>2019-03-30T14:15:33Z</time>
      </trkpt>
      <trkpt lat="49.31344" lon="3.98606">
        <ele>143</ele>
        <time>2019-03-30T14:15:34Z</time>
      </trkpt>
      <trkpt lat="49.31342" lon="3.98601">
        <ele>143</ele>
        <time>2019-03-30T14:15:35Z</time>
      </trkpt>
      <trkpt lat="49.3134" lon="3.98597">
        <ele>143</ele>
        <time>2019-03-30T14:15:36Z</time>
      </trkpt>
      <trkpt lat="49.31337" lon="3.98594">
        <ele>143</ele>
        <time>2019-03-30T14:15:37Z</time>
      </trkpt>
      <trkpt lat="49.31335" lon="3.9859">
        <ele>143</ele>
        <time>2019-03-30T14:15:38Z</time>
      </trkpt>
      <trkpt lat="49.31333" lon="3.98586">
        <ele>144</ele>
        <time>2019-03-30T14:15:39Z</time>
      </trkpt>
      <trkpt lat="49.31331" lon="3.98581">
        <ele>143</ele>
        <time>2019-03-30T14:15:40Z</time>
      </trkpt>
      <trkpt lat="49.31329" lon="3.98578">
        <ele>143</ele>
        <time>2019-03-30T14:15:41Z</time>
      </trkpt>
      <trkpt lat="49.31326" lon="3.98574">
        <ele>143</ele>
        <time>2019-03-30T14:15:42Z</time>
      </trkpt>
      <trkpt lat="49.31323" lon="3.98569">
        <ele>143</ele>
        <time>2019-03-30T14:15:43Z</time>
      </trkpt>
      <trkpt lat="49.31321" lon="3.98565">
        <ele>143</ele>
        <time>2019-03-30T14:15:44Z</time>
      </trkpt>
      <trkpt lat="49.31318" lon="3.98561">
        <ele>143</ele>
        <time>2019-03-30T14:15:45Z</time>
      </trkpt>
      <trkpt lat="49.31316" lon="3.98558">
        <ele>143</ele>
        <time>2019-03-30T14:15:46Z</time>
      </trkpt>
      <trkpt lat="49.31314" lon="3.98554">
        <ele>143</ele>
        <time>2019-03-30T14:15:47Z</time>
      </trkpt>
      <trkpt lat="49.31311" lon="3.98549">
        <ele>143</ele>
        <time>2019-03-30T14:15:48Z</time>
      </trkpt>
      <trkpt lat="49.31309" lon="3.98545">
        <ele>143</ele>
        <time>2019-03-30T14:15:49Z</time>
      </trkpt>
      <trkpt lat="49.31306" lon="3.98541">
        <ele>143</ele>
        <time>2019-03-30T14:15:50Z</time>
      </trkpt>
      <trkpt lat="49.31304" lon="3.98537">
        <ele>143</ele>
        <time>2019-03-30T14:15:51Z</time>
      </trkpt>
      <trkpt lat="49.31301" lon="3.98532">
        <ele>143</ele>
        <time>2019-03-30T14:15:52Z</time>
      </trkpt>
      <trkpt lat="49.31299" lon="3.98528">
        <ele>143</ele>
        <time>2019-03-30T14:15:53Z</time>
      </trkpt>
      <trkpt lat="49.31296" lon="3.98524">
        <ele>143</ele>
        <time>2019-03-30T14:15:54Z</time>
      </trkpt>
      <trkpt lat="49.31294" lon="3.9852">
        <ele>143</ele>
        <time>2019-03-30T14:15:55Z</time>
      </trkpt>
      <trkpt lat="49.31291" lon="3.98515">
        <ele>143</ele>
        <time>2019-03-30T14:15:56Z</time>
      </trkpt>
      <trkpt lat="49.31289" lon="3.98511">
        <ele>143</ele>
        <time>2019-03-30T14:15:57Z</time>
      </trkpt>
      <trkpt lat="49.31286" lon="3.98507">
        <ele>143</ele>
        <time>2019-03-30T14:15:58Z</time>
      </trkpt>
      <trkpt lat="49.31283" lon="3.98503">
        <ele>142</ele>
        <time>2019-03-30T14:15:59Z</time>
      </trkpt>
      <trkpt lat="49.3128" lon="3.98498">
        <ele>142</ele>
        <time>2019-03-30T14:16:00Z</time>
      </trkpt>
      <trkpt lat="49.31277" lon="3.98493">
        <ele>142</ele>
        <time>2019-03-30T14:16:01Z</time>
      </trkpt>
      <trkpt lat="49.31275" lon="3.98488">
        <ele>142</ele>
        <time>2019-03-30T14:16:02Z</time>
      </trkpt>
      <trkpt lat="49.31272" lon="3.98483">
        <ele>142</ele>
        <time>2019-03-30T14:16:03Z</time>
      </trkpt>
      <trkpt lat="49.31269" lon="3.98479">
        <ele>143</ele>
        <time>2019-03-30T14:16:04Z</time>
      </trkpt>
      <trkpt lat="49.31266" lon="3.98475">
        <ele>142</ele>
        <time>2019-03-30T14:16:05Z</time>
      </trkpt>
      <trkpt lat="49.31263" lon="3.9847">
        <ele>142</ele>
        <time>2019-03-30T14:16:06Z</time>
      </trkpt>
      <trkpt lat="49.3126" lon="3.98465">
        <ele>142</ele>
        <time>2019-03-30T14:16:07Z</time>
      </trkpt>
      <trkpt lat="49.31257" lon="3.9846">
        <ele>143</ele>
        <time>2019-03-30T14:16:08Z</time>
      </trkpt>
      <trkpt lat="49.31254" lon="3.98455">
        <ele>143</ele>
        <time>2019-03-30T14:16:09Z</time>
      </trkpt>
      <trkpt lat="49.31251" lon="3.9845">
        <ele>143</ele>
        <time>2019-03-30T14:16:10Z</time>
      </trkpt>
      <trkpt lat="49.31248" lon="3.98445">
        <ele>143</ele>
        <time>2019-03-30T14:16:11Z</time>
      </trkpt>
      <trkpt lat="49.31245" lon="3.9844">
        <ele>143</ele>
        <time>2019-03-30T14:16:12Z</time>
      </trkpt>
      <trkpt lat="49.31242" lon="3.98435">
        <ele>143</ele>
        <time>2019-03-30T14:16:13Z</time>
      </trkpt>
      <trkpt lat="49.31239" lon="3.9843">
        <ele>143</ele>
        <time>2019-03-30T14:16:14Z</time>
      </trkpt>
      <trkpt lat="49.31237" lon="3.98425">
        <ele>143</ele>
        <time>2019-03-30T14:16:15Z</time>
      </trkpt>
      <trkpt lat="49.31234" lon="3.98421">
        <ele>143</ele>
        <time>2019-03-30T14:16:16Z</time>
      </trkpt>
      <trkpt lat="49.31232" lon="3.98416">
        <ele>143</ele>
        <time>2019-03-30T14:16:17Z</time>
      </trkpt>
      <trkpt lat="49.31229" lon="3.98411">
        <ele>142</ele>
        <time>2019-03-30T14:16:18Z</time>
      </trkpt>
      <trkpt lat="49.31226" lon="3.98407">
        <ele>142</ele>
        <time>2019-03-30T14:16:19Z</time>
      </trkpt>
      <trkpt lat="49.31224" lon="3.98403">
        <ele>142</ele>
        <time>2019-03-30T14:16:20Z</time>
      </trkpt>
      <trkpt lat="49.31221" lon="3.98399">
        <ele>142</ele>
        <time>2019-03-30T14:16:21Z</time>
      </trkpt>
      <trkpt lat="49.31219" lon="3.98395">
        <ele>142</ele>
        <time>2019-03-30T14:16:22Z</time>
      </trkpt>
      <trkpt lat="49.31216" lon="3.98391">
        <ele>142</ele>
        <time>2019-03-30T14:16:23Z</time>
      </trkpt>
      <trkpt lat="49.31214" lon="3.98387">
        <ele>142</ele>
        <time>2019-03-30T14:16:24Z</time>
      </trkpt>
      <trkpt lat="49.31211" lon="3.98383">
        <ele>142</ele>
        <time>2019-03-30T14:16:25Z</time>
      </trkpt>
      <trkpt lat="49.31209" lon="3.98379">
        <ele>142</ele>
        <time>2019-03-30T14:16:26Z</time>
      </trkpt>
      <trkpt lat="49.31207" lon="3.98375">
        <ele>141</ele>
        <time>2019-03-30T14:16:27Z</time>
      </trkpt>
      <trkpt lat="49.31205" lon="3.98371">
        <ele>141</ele>
        <time>2019-03-30T14:16:28Z</time>
      </trkpt>
      <trkpt lat="49.31202" lon="3.98368">
        <ele>141</ele>
        <time>2019-03-30T14:16:29Z</time>
      </trkpt>
      <trkpt lat="49.312" lon="3.98364">
        <ele>141</ele>
        <time>2019-03-30T14:16:30Z</time>
      </trkpt>
      <trkpt lat="49.31198" lon="3.9836">
        <ele>141</ele>
        <time>2019-03-30T14:16:31Z</time>
      </trkpt>
      <trkpt lat="49.31196" lon="3.98356">
        <ele>141</ele>
        <time>2019-03-30T14:16:32Z</time>
      </trkpt>
      <trkpt lat="49.31194" lon="3.98353">
        <ele>141</ele>
        <time>2019-03-30T14:16:33Z</time>
      </trkpt>
      <trkpt lat="49.31191" lon="3.98349">
        <ele>141</ele>
        <time>2019-03-30T14:16:34Z</time>
      </trkpt>
      <trkpt lat="49.31189" lon="3.98345">
        <ele>141</ele>
        <time>2019-03-30T14:16:35Z</time>
      </trkpt>
      <trkpt lat="49.31186" lon="3.9834">
        <ele>140</ele>
        <time>2019-03-30T14:16:36Z</time>
      </trkpt>
      <trkpt lat="49.31184" lon="3.98337">
        <ele>140</ele>
        <time>2019-03-30T14:16:37Z</time>
      </trkpt>
      <trkpt lat="49.31182" lon="3.98333">
        <ele>140</ele>
        <time>2019-03-30T14:16:38Z</time>
      </trkpt>
      <trkpt lat="49.3118" lon="3.98329">
        <ele>140</ele>
        <time>2019-03-30T14:16:39Z</time>
      </trkpt>
      <trkpt lat="49.31178" lon="3.98326">
        <ele>139</ele>
        <time>2019-03-30T14:16:40Z</time>
      </trkpt>
      <trkpt lat="49.31177" lon="3.98322">
        <ele>139</ele>
        <time>2019-03-30T14:16:41Z</time>
      </trkpt>
      <trkpt lat="49.31177" lon="3.98319">
        <ele>139</ele>
        <time>2019-03-30T14:16:42Z</time>
      </trkpt>
      <trkpt lat="49.31177" lon="3.98317">
        <ele>139</ele>
        <time>2019-03-30T14:16:43Z</time>
      </trkpt>
      <trkpt lat="49.31176" lon="3.98315">
        <ele>139</ele>
        <time>2019-03-30T14:16:44Z</time>
      </trkpt>
      <trkpt lat="49.31176" lon="3.98314">
        <ele>139</ele>
        <time>2019-03-30T14:16:45Z</time>
      </trkpt>
      <trkpt lat="49.31175" lon="3.98313">
        <ele>139</ele>
        <time>2019-03-30T14:16:46Z</time>
      </trkpt>
      <trkpt lat="49.31175" lon="3.98311">
        <ele>139</ele>
        <time>2019-03-30T14:16:47Z</time>
      </trkpt>
      <trkpt lat="49.31175" lon="3.9831">
        <ele>139</ele>
        <time>2019-03-30T14:16:48Z</time>
      </trkpt>
      <trkpt lat="49.31174" lon="3.98309">
        <ele>139</ele>
        <time>2019-03-30T14:16:49Z</time>
      </trkpt>
      <trkpt lat="49.31174" lon="3.98307">
        <ele>138</ele>
        <time>2019-03-30T14:16:50Z</time>
      </trkpt>
      <trkpt lat="49.31174" lon="3.98305">
        <ele>138</ele>
        <time>2019-03-30T14:16:51Z</time>
      </trkpt>
      <trkpt lat="49.31172" lon="3.98302">
        <ele>139</ele>
        <time>2019-03-30T14:16:52Z</time>
      </trkpt>
      <trkpt lat="49.31169" lon="3.983">
        <ele>139</ele>
        <time>2019-03-30T14:16:53Z</time>
      </trkpt>
      <trkpt lat="49.31166" lon="3.98301">
        <ele>139</ele>
        <time>2019-03-30T14:16:54Z</time>
      </trkpt>
      <trkpt lat="49.31164" lon="3.98304">
        <ele>139</ele>
        <time>2019-03-30T14:16:55Z</time>
      </trkpt>
      <trkpt lat="49.31161" lon="3.98308">
        <ele>139</ele>
        <time>2019-03-30T14:16:56Z</time>
      </trkpt>
      <trkpt lat="49.3116" lon="3.98311">
        <ele>139</ele>
        <time>2019-03-30T14:16:57Z</time>
      </trkpt>
      <trkpt lat="49.31157" lon="3.98313">
        <ele>139</ele>
        <time>2019-03-30T14:16:58Z</time>
      </trkpt>
      <trkpt lat="49.31154" lon="3.98315">
        <ele>138</ele>
        <time>2019-03-30T14:16:59Z</time>
      </trkpt>
      <trkpt lat="49.3115" lon="3.98317">
        <ele>138</ele>
        <time>2019-03-30T14:17:00Z</time>
      </trkpt>
      <trkpt lat="49.31147" lon="3.9832">
        <ele>138</ele>
        <time>2019-03-30T14:17:01Z</time>
      </trkpt>
      <trkpt lat="49.31144" lon="3.98323">
        <ele>138</ele>
        <time>2019-03-30T14:17:02Z</time>
      </trkpt>
      <trkpt lat="49.31141" lon="3.98327">
        <ele>138</ele>
        <time>2019-03-30T14:17:03Z</time>
      </trkpt>
      <trkpt lat="49.31137" lon="3.98331">
        <ele>138</ele>
        <time>2019-03-30T14:17:04Z</time>
      </trkpt>
      <trkpt lat="49.31133" lon="3.98334">
        <ele>138</ele>
        <time>2019-03-30T14:17:05Z</time>
      </trkpt>
      <trkpt lat="49.31129" lon="3.98337">
        <ele>138</ele>
        <time>2019-03-30T14:17:06Z</time>
      </trkpt>
      <trkpt lat="49.31125" lon="3.98341">
        <ele>138</ele>
        <time>2019-03-30T14:17:07Z</time>
      </trkpt>
      <trkpt lat="49.31121" lon="3.98345">
        <ele>138</ele>
        <time>2019-03-30T14:17:08Z</time>
      </trkpt>
      <trkpt lat="49.31117" lon="3.98349">
        <ele>138</ele>
        <time>2019-03-30T14:17:09Z</time>
      </trkpt>
      <trkpt lat="49.31113" lon="3.98353">
        <ele>138</ele>
        <time>2019-03-30T14:17:10Z</time>
      </trkpt>
      <trkpt lat="49.31108" lon="3.98357">
        <ele>138</ele>
        <time>2019-03-30T14:17:11Z</time>
      </trkpt>
      <trkpt lat="49.31104" lon="3.98361">
        <ele>138</ele>
        <time>2019-03-30T14:17:12Z</time>
      </trkpt>
      <trkpt lat="49.311" lon="3.98365">
        <ele>138</ele>
        <time>2019-03-30T14:17:13Z</time>
      </trkpt>
      <trkpt lat="49.31096" lon="3.9837">
        <ele>138</ele>
        <time>2019-03-30T14:17:14Z</time>
      </trkpt>
      <trkpt lat="49.31092" lon="3.98374">
        <ele>138</ele>
        <time>2019-03-30T14:17:15Z</time>
      </trkpt>
      <trkpt lat="49.31088" lon="3.98378">
        <ele>138</ele>
        <time>2019-03-30T14:17:16Z</time>
      </trkpt>
      <trkpt lat="49.31084" lon="3.98381">
        <ele>138</ele>
        <time>2019-03-30T14:17:17Z</time>
      </trkpt>
      <trkpt lat="49.31079" lon="3.98386">
        <ele>138</ele>
        <time>2019-03-30T14:17:18Z</time>
      </trkpt>
      <trkpt lat="49.31075" lon="3.98391">
        <ele>138</ele>
        <time>2019-03-30T14:17:19Z</time>
      </trkpt>
      <trkpt lat="49.31071" lon="3.98395">
        <ele>138</ele>
        <time>2019-03-30T14:17:20Z</time>
      </trkpt>
      <trkpt lat="49.31067" lon="3.984">
        <ele>139</ele>
        <time>2019-03-30T14:17:21Z</time>
      </trkpt>
      <trkpt lat="49.31062" lon="3.98404">
        <ele>139</ele>
        <time>2019-03-30T14:17:22Z</time>
      </trkpt>
      <trkpt lat="49.31058" lon="3.98409">
        <ele>139</ele>
        <time>2019-03-30T14:17:23Z</time>
      </trkpt>
      <trkpt lat="49.31053" lon="3.98414">
        <ele>139</ele>
        <time>2019-03-30T14:17:24Z</time>
      </trkpt>
      <trkpt lat="49.31048" lon="3.98418">
        <ele>139</ele>
        <time>2019-03-30T14:17:25Z</time>
      </trkpt>
      <trkpt lat="49.31043" lon="3.98424">
        <ele>139</ele>
        <time>2019-03-30T14:17:26Z</time>
      </trkpt>
      <trkpt lat="49.31038" lon="3.98429">
        <ele>139</ele>
        <time>2019-03-30T14:17:27Z</time>
      </trkpt>
      <trkpt lat="49.31033" lon="3.98434">
        <ele>139</ele>
        <time>2019-03-30T14:17:28Z</time>
      </trkpt>
      <trkpt lat="49.31028" lon="3.98439">
        <ele>139</ele>
        <time>2019-03-30T14:17:29Z</time>
      </trkpt>
      <trkpt lat="49.31022" lon="3.98444">
        <ele>139</ele>
        <time>2019-03-30T14:17:30Z</time>
      </trkpt>
      <trkpt lat="49.31017" lon="3.9845">
        <ele>139</ele>
        <time>2019-03-30T14:17:31Z</time>
      </trkpt>
      <trkpt lat="49.31012" lon="3.98455">
        <ele>139</ele>
        <time>2019-03-30T14:17:32Z</time>
      </trkpt>
      <trkpt lat="49.31006" lon="3.9846">
        <ele>140</ele>
        <time>2019-03-30T14:17:33Z</time>
      </trkpt>
      <trkpt lat="49.31001" lon="3.98466">
        <ele>140</ele>
        <time>2019-03-30T14:17:34Z</time>
      </trkpt>
      <trkpt lat="49.30996" lon="3.98471">
        <ele>140</ele>
        <time>2019-03-30T14:17:35Z</time>
      </trkpt>
      <trkpt lat="49.3099" lon="3.98477">
        <ele>140</ele>
        <time>2019-03-30T14:17:36Z</time>
      </trkpt>
      <trkpt lat="49.30985" lon="3.98482">
        <ele>140</ele>
        <time>2019-03-30T14:17:37Z</time>
      </trkpt>
      <trkpt lat="49.30979" lon="3.98488">
        <ele>140</ele>
        <time>2019-03-30T14:17:38Z</time>
      </trkpt>
      <trkpt lat="49.30974" lon="3.98493">
        <ele>140</ele>
        <time>2019-03-30T14:17:39Z</time>
      </trkpt>
      <trkpt lat="49.30968" lon="3.98499">
        <ele>140</ele>
        <time>2019-03-30T14:17:40Z</time>
      </trkpt>
      <trkpt lat="49.30962" lon="3.98504">
        <ele>140</ele>
        <time>2019-03-30T14:17:41Z</time>
      </trkpt>
      <trkpt lat="49.30956" lon="3.9851">
        <ele>140</ele>
        <time>2019-03-30T14:17:42Z</time>
      </trkpt>
      <trkpt lat="49.3095" lon="3.98516">
        <ele>140</ele>
        <time>2019-03-30T14:17:43Z</time>
      </trkpt>
      <trkpt lat="49.30944" lon="3.98521">
        <ele>139</ele>
        <time>2019-03-30T14:17:44Z</time>
      </trkpt>
      <trkpt lat="49.30938" lon="3.98527">
        <ele>139</ele>
        <time>2019-03-30T14:17:45Z</time>
      </trkpt>
      <trkpt lat="49.30932" lon="3.98533">
        <ele>140</ele>
        <time>2019-03-30T14:17:46Z</time>
      </trkpt>
      <trkpt lat="49.30926" lon="3.98539">
        <ele>139</ele>
        <time>2019-03-30T14:17:47Z</time>
      </trkpt>
      <trkpt lat="49.3092" lon="3.98544">
        <ele>139</ele>
        <time>2019-03-30T14:17:48Z</time>
      </trkpt>
      <trkpt lat="49.30914" lon="3.98549">
        <ele>139</ele>
        <time>2019-03-30T14:17:49Z</time>
      </trkpt>
      <trkpt lat="49.30908" lon="3.98555">
        <ele>139</ele>
        <time>2019-03-30T14:17:50Z</time>
      </trkpt>
      <trkpt lat="49.30902" lon="3.9856">
        <ele>139</ele>
        <time>2019-03-30T14:17:51Z</time>
      </trkpt>
      <trkpt lat="49.30896" lon="3.98565">
        <ele>139</ele>
        <time>2019-03-30T14:17:52Z</time>
      </trkpt>
      <trkpt lat="49.3089" lon="3.98571">
        <ele>138</ele>
        <time>2019-03-30T14:17:53Z</time>
      </trkpt>
      <trkpt lat="49.30884" lon="3.98577">
        <ele>138</ele>
        <time>2019-03-30T14:17:54Z</time>
      </trkpt>
      <trkpt lat="49.30878" lon="3.98582">
        <ele>138</ele>
        <time>2019-03-30T14:17:55Z</time>
      </trkpt>
      <trkpt lat="49.30872" lon="3.98588">
        <ele>138</ele>
        <time>2019-03-30T14:17:56Z</time>
      </trkpt>
      <trkpt lat="49.30866" lon="3.98595">
        <ele>138</ele>
        <time>2019-03-30T14:17:57Z</time>
      </trkpt>
      <trkpt lat="49.30861" lon="3.98601">
        <ele>138</ele>
        <time>2019-03-30T14:17:58Z</time>
      </trkpt>
      <trkpt lat="49.30855" lon="3.98607">
        <ele>138</ele>
        <time>2019-03-30T14:17:59Z</time>
      </trkpt>
      <trkpt lat="49.30849" lon="3.98613">
        <ele>138</ele>
        <time>2019-03-30T14:18:00Z</time>
      </trkpt>
      <trkpt lat="49.30843" lon="3.98619">
        <ele>139</ele>
        <time>2019-03-30T14:18:01Z</time>
      </trkpt>
      <trkpt lat="49.30837" lon="3.98626">
        <ele>138</ele>
        <time>2019-03-30T14:18:02Z</time>
      </trkpt>
      <trkpt lat="49.30832" lon="3.98632">
        <ele>139</ele>
        <time>2019-03-30T14:18:03Z</time>
      </trkpt>
      <trkpt lat="49.30826" lon="3.98638">
        <ele>139</ele>
        <time>2019-03-30T14:18:04Z</time>
      </trkpt>
      <trkpt lat="49.3082" lon="3.98644">
        <ele>139</ele>
        <time>2019-03-30T14:18:05Z</time>
      </trkpt>
      <trkpt lat="49.30815" lon="3.9865">
        <ele>139</ele>
        <time>2019-03-30T14:18:06Z</time>
      </trkpt>
      <trkpt lat="49.30809" lon="3.98655">
        <ele>139</ele>
        <time>2019-03-30T14:18:07Z</time>
      </trkpt>
      <trkpt lat="49.30803" lon="3.9866">
        <ele>139</ele>
        <time>2019-03-30T14:18:08Z</time>
      </trkpt>
      <trkpt lat="49.30798" lon="3.98666">
        <ele>139</ele>
        <time>2019-03-30T14:18:09Z</time>
      </trkpt>
      <trkpt lat="49.30792" lon="3.98671">
        <ele>139</ele>
        <time>2019-03-30T14:18:10Z</time>
      </trkpt>
      <trkpt lat="49.30786" lon="3.98677">
        <ele>138</ele>
        <time>2019-03-30T14:18:11Z</time>
      </trkpt>
      <trkpt lat="49.30781" lon="3.98683">
        <ele>138</ele>
        <time>2019-03-30T14:18:12Z</time>
      </trkpt>
      <trkpt lat="49.30775" lon="3.98689">
        <ele>138</ele>
        <time>2019-03-30T14:18:13Z</time>
      </trkpt>
      <trkpt lat="49.30769" lon="3.98695">
        <ele>138</ele>
        <time>2019-03-30T14:18:14Z</time>
      </trkpt>
      <trkpt lat="49.30764" lon="3.98701">
        <ele>138</ele>
        <time>2019-03-30T14:18:15Z</time>
      </trkpt>
      <trkpt lat="49.30758" lon="3.98707">
        <ele>138</ele>
        <time>2019-03-30T14:18:16Z</time>
      </trkpt>
      <trkpt lat="49.30752" lon="3.98712">
        <ele>138</ele>
        <time>2019-03-30T14:18:17Z</time>
      </trkpt>
      <trkpt lat="49.30747" lon="3.98717">
        <ele>138</ele>
        <time>2019-03-30T14:18:18Z</time>
      </trkpt>
      <trkpt lat="49.30742" lon="3.98723">
        <ele>138</ele>
        <time>2019-03-30T14:18:19Z</time>
      </trkpt>
      <trkpt lat="49.30736" lon="3.98729">
        <ele>138</ele>
        <time>2019-03-30T14:18:20Z</time>
      </trkpt>
      <trkpt lat="49.30731" lon="3.98734">
        <ele>138</ele>
        <time>2019-03-30T14:18:21Z</time>
      </trkpt>
      <trkpt lat="49.30726" lon="3.9874">
        <ele>138</ele>
        <time>2019-03-30T14:18:22Z</time>
      </trkpt>
      <trkpt lat="49.30721" lon="3.98745">
        <ele>138</ele>
        <time>2019-03-30T14:18:23Z</time>
      </trkpt>
      <trkpt lat="49.30716" lon="3.9875">
        <ele>138</ele>
        <time>2019-03-30T14:18:24Z</time>
      </trkpt>
      <trkpt lat="49.30711" lon="3.98755">
        <ele>138</ele>
        <time>2019-03-30T14:18:25Z</time>
      </trkpt>
      <trkpt lat="49.30706" lon="3.98761">
        <ele>139</ele>
        <time>2019-03-30T14:18:26Z</time>
      </trkpt>
      <trkpt lat="49.30701" lon="3.98766">
        <ele>139</ele>
        <time>2019-03-30T14:18:27Z</time>
      </trkpt>
      <trkpt lat="49.30696" lon="3.9877">
        <ele>139</ele>
        <time>2019-03-30T14:18:28Z</time>
      </trkpt>
      <trkpt lat="49.30691" lon="3.98775">
        <ele>138</ele>
        <time>2019-03-30T14:18:29Z</time>
      </trkpt>
      <trkpt lat="49.30686" lon="3.9878">
        <ele>138</ele>
        <time>2019-03-30T14:18:30Z</time>
      </trkpt>
      <trkpt lat="49.30681" lon="3.98785">
        <ele>139</ele>
        <time>2019-03-30T14:18:31Z</time>
      </trkpt>
      <trkpt lat="49.30676" lon="3.9879">
        <ele>139</ele>
        <time>2019-03-30T14:18:32Z</time>
      </trkpt>
      <trkpt lat="49.30671" lon="3.98795">
        <ele>139</ele>
        <time>2019-03-30T14:18:33Z</time>
      </trkpt>
      <trkpt lat="49.30666" lon="3.988">
        <ele>139</ele>
        <time>2019-03-30T14:18:34Z</time>
      </trkpt>
      <trkpt lat="49.30661" lon="3.98804">
        <ele>139</ele>
        <time>2019-03-30T14:18:35Z</time>
      </trkpt>
      <trkpt lat="49.30656" lon="3.98809">
        <ele>139</ele>
        <time>2019-03-30T14:18:36Z</time>
      </trkpt>
      <trkpt lat="49.30651" lon="3.98813">
        <ele>139</ele>
        <time>2019-03-30T14:18:37Z</time>
      </trkpt>
      <trkpt lat="49.30647" lon="3.98818">
        <ele>139</ele>
        <time>2019-03-30T14:18:38Z</time>
      </trkpt>
      <trkpt lat="49.30642" lon="3.98822">
        <ele>139</ele>
        <time>2019-03-30T14:18:39Z</time>
      </trkpt>
      <trkpt lat="49.30637" lon="3.98827">
        <ele>139</ele>
        <time>2019-03-30T14:18:40Z</time>
      </trkpt>
      <trkpt lat="49.30632" lon="3.98832">
        <ele>139</ele>
        <time>2019-03-30T14:18:41Z</time>
      </trkpt>
      <trkpt lat="49.30627" lon="3.98836">
        <ele>139</ele>
        <time>2019-03-30T14:18:42Z</time>
      </trkpt>
      <trkpt lat="49.30622" lon="3.98841">
        <ele>139</ele>
        <time>2019-03-30T14:18:43Z</time>
      </trkpt>
      <trkpt lat="49.30618" lon="3.98846">
        <ele>139</ele>
        <time>2019-03-30T14:18:44Z</time>
      </trkpt>
      <trkpt lat="49.30613" lon="3.98851">
        <ele>139</ele>
        <time>2019-03-30T14:18:45Z</time>
      </trkpt>
      <trkpt lat="49.30608" lon="3.98856">
        <ele>139</ele>
        <time>2019-03-30T14:18:46Z</time>
      </trkpt>
      <trkpt lat="49.30603" lon="3.9886">
        <ele>139</ele>
        <time>2019-03-30T14:18:47Z</time>
      </trkpt>
      <trkpt lat="49.30599" lon="3.98865">
        <ele>139</ele>
        <time>2019-03-30T14:18:48Z</time>
      </trkpt>
      <trkpt lat="49.30594" lon="3.9887">
        <ele>139</ele>
        <time>2019-03-30T14:18:49Z</time>
      </trkpt>
      <trkpt lat="49.30589" lon="3.98875">
        <ele>139</ele>
        <time>2019-03-30T14:18:50Z</time>
      </trkpt>
      <trkpt lat="49.30585" lon="3.9888">
        <ele>139</ele>
        <time>2019-03-30T14:18:51Z</time>
      </trkpt>
      <trkpt lat="49.3058" lon="3.98884">
        <ele>139</ele>
        <time>2019-03-30T14:18:52Z</time>
      </trkpt>
      <trkpt lat="49.30575" lon="3.98889">
        <ele>139</ele>
        <time>2019-03-30T14:18:53Z</time>
      </trkpt>
      <trkpt lat="49.3057" lon="3.98894">
        <ele>139</ele>
        <time>2019-03-30T14:18:54Z</time>
      </trkpt>
      <trkpt lat="49.30565" lon="3.98899">
        <ele>139</ele>
        <time>2019-03-30T14:18:55Z</time>
      </trkpt>
      <trkpt lat="49.30561" lon="3.98903">
        <ele>139</ele>
        <time>2019-03-30T14:18:56Z</time>
      </trkpt>
      <trkpt lat="49.30556" lon="3.98908">
        <ele>139</ele>
        <time>2019-03-30T14:18:57Z</time>
      </trkpt>
      <trkpt lat="49.30551" lon="3.98913">
        <ele>139</ele>
        <time>2019-03-30T14:18:58Z</time>
      </trkpt>
      <trkpt lat="49.30546" lon="3.98918">
        <ele>138</ele>
        <time>2019-03-30T14:18:59Z</time>
      </trkpt>
      <trkpt lat="49.30542" lon="3.98922">
        <ele>138</ele>
        <time>2019-03-30T14:19:00Z</time>
      </trkpt>
      <trkpt lat="49.30537" lon="3.98927">
        <ele>138</ele>
        <time>2019-03-30T14:19:01Z</time>
      </trkpt>
      <trkpt lat="49.30533" lon="3.98932">
        <ele>138</ele>
        <time>2019-03-30T14:19:02Z</time>
      </trkpt>
      <trkpt lat="49.30527" lon="3.98936">
        <ele>138</ele>
        <time>2019-03-30T14:19:03Z</time>
      </trkpt>
      <trkpt lat="49.30522" lon="3.98941">
        <ele>138</ele>
        <time>2019-03-30T14:19:04Z</time>
      </trkpt>
      <trkpt lat="49.30517" lon="3.98946">
        <ele>138</ele>
        <time>2019-03-30T14:19:05Z</time>
      </trkpt>
      <trkpt lat="49.30512" lon="3.98951">
        <ele>137</ele>
        <time>2019-03-30T14:19:06Z</time>
      </trkpt>
      <trkpt lat="49.30507" lon="3.98956">
        <ele>137</ele>
        <time>2019-03-30T14:19:07Z</time>
      </trkpt>
      <trkpt lat="49.30502" lon="3.98961">
        <ele>137</ele>
        <time>2019-03-30T14:19:08Z</time>
      </trkpt>
      <trkpt lat="49.30497" lon="3.98966">
        <ele>137</ele>
        <time>2019-03-30T14:19:09Z</time>
      </trkpt>
      <trkpt lat="49.30492" lon="3.98972">
        <ele>137</ele>
        <time>2019-03-30T14:19:10Z</time>
      </trkpt>
      <trkpt lat="49.30487" lon="3.98976">
        <ele>137</ele>
        <time>2019-03-30T14:19:11Z</time>
      </trkpt>
      <trkpt lat="49.30482" lon="3.98981">
        <ele>137</ele>
        <time>2019-03-30T14:19:12Z</time>
      </trkpt>
      <trkpt lat="49.30477" lon="3.98986">
        <ele>137</ele>
        <time>2019-03-30T14:19:13Z</time>
      </trkpt>
      <trkpt lat="49.30472" lon="3.98991">
        <ele>137</ele>
        <time>2019-03-30T14:19:14Z</time>
      </trkpt>
      <trkpt lat="49.30466" lon="3.98997">
        <ele>136</ele>
        <time>2019-03-30T14:19:15Z</time>
      </trkpt>
      <trkpt lat="49.30461" lon="3.99002">
        <ele>136</ele>
        <time>2019-03-30T14:19:16Z</time>
      </trkpt>
      <trkpt lat="49.30456" lon="3.99007">
        <ele>136</ele>
        <time>2019-03-30T14:19:17Z</time>
      </trkpt>
      <trkpt lat="49.30451" lon="3.99013">
        <ele>137</ele>
        <time>2019-03-30T14:19:18Z</time>
      </trkpt>
      <trkpt lat="49.30446" lon="3.99018">
        <ele>137</ele>
        <time>2019-03-30T14:19:19Z</time>
      </trkpt>
      <trkpt lat="49.3044" lon="3.99023">
        <ele>136</ele>
        <time>2019-03-30T14:19:20Z</time>
      </trkpt>
      <trkpt lat="49.30435" lon="3.99028">
        <ele>136</ele>
        <time>2019-03-30T14:19:21Z</time>
      </trkpt>
      <trkpt lat="49.3043" lon="3.99032">
        <ele>136</ele>
        <time>2019-03-30T14:19:22Z</time>
      </trkpt>
      <trkpt lat="49.30425" lon="3.99037">
        <ele>136</ele>
        <time>2019-03-30T14:19:23Z</time>
      </trkpt>
      <trkpt lat="49.3042" lon="3.99042">
        <ele>135</ele>
        <time>2019-03-30T14:19:24Z</time>
      </trkpt>
      <trkpt lat="49.30415" lon="3.99047">
        <ele>135</ele>
        <time>2019-03-30T14:19:25Z</time>
      </trkpt>
      <trkpt lat="49.3041" lon="3.99052">
        <ele>135</ele>
        <time>2019-03-30T14:19:26Z</time>
      </trkpt>
      <trkpt lat="49.30405" lon="3.99057">
        <ele>135</ele>
        <time>2019-03-30T14:19:27Z</time>
      </trkpt>
      <trkpt lat="49.304" lon="3.99062">
        <ele>135</ele>
        <time>2019-03-30T14:19:28Z</time>
      </trkpt>
      <trkpt lat="49.30395" lon="3.99067">
        <ele>135</ele>
        <time>2019-03-30T14:19:29Z</time>
      </trkpt>
      <trkpt lat="49.3039" lon="3.99072">
        <ele>135</ele>
        <time>2019-03-30T14:19:30Z</time>
      </trkpt>
      <trkpt lat="49.30385" lon="3.99077">
        <ele>135</ele>
        <time>2019-03-30T14:19:31Z</time>
      </trkpt>
      <trkpt lat="49.30379" lon="3.99081">
        <ele>135</ele>
        <time>2019-03-30T14:19:32Z</time>
      </trkpt>
      <trkpt lat="49.30374" lon="3.99085">
        <ele>135</ele>
        <time>2019-03-30T14:19:33Z</time>
      </trkpt>
      <trkpt lat="49.30368" lon="3.9909">
        <ele>135</ele>
        <time>2019-03-30T14:19:34Z</time>
      </trkpt>
      <trkpt lat="49.30363" lon="3.99094">
        <ele>134</ele>
        <time>2019-03-30T14:19:35Z</time>
      </trkpt>
      <trkpt lat="49.30357" lon="3.99099">
        <ele>134</ele>
        <time>2019-03-30T14:19:36Z</time>
      </trkpt>
      <trkpt lat="49.30351" lon="3.99104">
        <ele>134</ele>
        <time>2019-03-30T14:19:37Z</time>
      </trkpt>
      <trkpt lat="49.30345" lon="3.99109">
        <ele>134</ele>
        <time>2019-03-30T14:19:38Z</time>
      </trkpt>
      <trkpt lat="49.3034" lon="3.99114">
        <ele>134</ele>
        <time>2019-03-30T14:19:39Z</time>
      </trkpt>
      <trkpt lat="49.30334" lon="3.99118">
        <ele>133</ele>
        <time>2019-03-30T14:19:40Z</time>
      </trkpt>
      <trkpt lat="49.30328" lon="3.99123">
        <ele>133</ele>
        <time>2019-03-30T14:19:41Z</time>
      </trkpt>
      <trkpt lat="49.30322" lon="3.99127">
        <ele>133</ele>
        <time>2019-03-30T14:19:42Z</time>
      </trkpt>
      <trkpt lat="49.30316" lon="3.99131">
        <ele>133</ele>
        <time>2019-03-30T14:19:43Z</time>
      </trkpt>
      <trkpt lat="49.3031" lon="3.99135">
        <ele>132</ele>
        <time>2019-03-30T14:19:44Z</time>
      </trkpt>
      <trkpt lat="49.30304" lon="3.99139">
        <ele>132</ele>
        <time>2019-03-30T14:19:45Z</time>
      </trkpt>
      <trkpt lat="49.30298" lon="3.99144">
        <ele>132</ele>
        <time>2019-03-30T14:19:46Z</time>
      </trkpt>
      <trkpt lat="49.30293" lon="3.99147">
        <ele>132</ele>
        <time>2019-03-30T14:19:47Z</time>
      </trkpt>
      <trkpt lat="49.30287" lon="3.99152">
        <ele>132</ele>
        <time>2019-03-30T14:19:48Z</time>
      </trkpt>
      <trkpt lat="49.3028" lon="3.99156">
        <ele>132</ele>
        <time>2019-03-30T14:19:49Z</time>
      </trkpt>
      <trkpt lat="49.30274" lon="3.99159">
        <ele>131</ele>
        <time>2019-03-30T14:19:50Z</time>
      </trkpt>
      <trkpt lat="49.30268" lon="3.99162">
        <ele>132</ele>
        <time>2019-03-30T14:19:51Z</time>
      </trkpt>
      <trkpt lat="49.30262" lon="3.99166">
        <ele>131</ele>
        <time>2019-03-30T14:19:52Z</time>
      </trkpt>
      <trkpt lat="49.30255" lon="3.9917">
        <ele>131</ele>
        <time>2019-03-30T14:19:53Z</time>
      </trkpt>
      <trkpt lat="49.30249" lon="3.99173">
        <ele>131</ele>
        <time>2019-03-30T14:19:54Z</time>
      </trkpt>
      <trkpt lat="49.30243" lon="3.99176">
        <ele>131</ele>
        <time>2019-03-30T14:19:55Z</time>
      </trkpt>
      <trkpt lat="49.30237" lon="3.9918">
        <ele>131</ele>
        <time>2019-03-30T14:19:56Z</time>
      </trkpt>
      <trkpt lat="49.3023" lon="3.99183">
        <ele>131</ele>
        <time>2019-03-30T14:19:57Z</time>
      </trkpt>
      <trkpt lat="49.30224" lon="3.99186">
        <ele>130</ele>
        <time>2019-03-30T14:19:58Z</time>
      </trkpt>
      <trkpt lat="49.30218" lon="3.99189">
        <ele>130</ele>
        <time>2019-03-30T14:19:59Z</time>
      </trkpt>
      <trkpt lat="49.30212" lon="3.99193">
        <ele>130</ele>
        <time>2019-03-30T14:20:00Z</time>
      </trkpt>
      <trkpt lat="49.30207" lon="3.99195">
        <ele>130</ele>
        <time>2019-03-30T14:20:01Z</time>
      </trkpt>
      <trkpt lat="49.30201" lon="3.99198">
        <ele>130</ele>
        <time>2019-03-30T14:20:02Z</time>
      </trkpt>
      <trkpt lat="49.30195" lon="3.99201">
        <ele>130</ele>
        <time>2019-03-30T14:20:03Z</time>
      </trkpt>
      <trkpt lat="49.3019" lon="3.99204">
        <ele>130</ele>
        <time>2019-03-30T14:20:04Z</time>
      </trkpt>
      <trkpt lat="49.30184" lon="3.99207">
        <ele>130</ele>
        <time>2019-03-30T14:20:05Z</time>
      </trkpt>
      <trkpt lat="49.30178" lon="3.9921">
        <ele>130</ele>
        <time>2019-03-30T14:20:06Z</time>
      </trkpt>
      <trkpt lat="49.30173" lon="3.99213">
        <ele>130</ele>
        <time>2019-03-30T14:20:07Z</time>
      </trkpt>
      <trkpt lat="49.30168" lon="3.99215">
        <ele>130</ele>
        <time>2019-03-30T14:20:08Z</time>
      </trkpt>
      <trkpt lat="49.30163" lon="3.99217">
        <ele>130</ele>
        <time>2019-03-30T14:20:09Z</time>
      </trkpt>
      <trkpt lat="49.30158" lon="3.99219">
        <ele>130</ele>
        <time>2019-03-30T14:20:10Z</time>
      </trkpt>
      <trkpt lat="49.30153" lon="3.99222">
        <ele>130</ele>
        <time>2019-03-30T14:20:11Z</time>
      </trkpt>
      <trkpt lat="49.30149" lon="3.99224">
        <ele>130</ele>
        <time>2019-03-30T14:20:12Z</time>
      </trkpt>
      <trkpt lat="49.30144" lon="3.99226">
        <ele>130</ele>
        <time>2019-03-30T14:20:13Z</time>
      </trkpt>
      <trkpt lat="49.3014" lon="3.99228">
        <ele>130</ele>
        <time>2019-03-30T14:20:14Z</time>
      </trkpt>
      <trkpt lat="49.30135" lon="3.9923">
        <ele>130</ele>
        <time>2019-03-30T14:20:15Z</time>
      </trkpt>
      <trkpt lat="49.30131" lon="3.99232">
        <ele>130</ele>
        <time>2019-03-30T14:20:16Z</time>
      </trkpt>
      <trkpt lat="49.30127" lon="3.99235">
        <ele>129</ele>
        <time>2019-03-30T14:20:17Z</time>
      </trkpt>
      <trkpt lat="49.30123" lon="3.99237">
        <ele>129</ele>
        <time>2019-03-30T14:20:18Z</time>
      </trkpt>
      <trkpt lat="49.30119" lon="3.99239">
        <ele>129</ele>
        <time>2019-03-30T14:20:19Z</time>
      </trkpt>
      <trkpt lat="49.30114" lon="3.99242">
        <ele>129</ele>
        <time>2019-03-30T14:20:20Z</time>
      </trkpt>
      <trkpt lat="49.30109" lon="3.99244">
        <ele>129</ele>
        <time>2019-03-30T14:20:21Z</time>
      </trkpt>
      <trkpt lat="49.30105" lon="3.99247">
        <ele>129</ele>
        <time>2019-03-30T14:20:22Z</time>
      </trkpt>
      <trkpt lat="49.30101" lon="3.99249">
        <ele>129</ele>
        <time>2019-03-30T14:20:23Z</time>
      </trkpt>
      <trkpt lat="49.30096" lon="3.99252">
        <ele>129</ele>
        <time>2019-03-30T14:20:24Z</time>
      </trkpt>
      <trkpt lat="49.30092" lon="3.99254">
        <ele>129</ele>
        <time>2019-03-30T14:20:25Z</time>
      </trkpt>
      <trkpt lat="49.30087" lon="3.99257">
        <ele>129</ele>
        <time>2019-03-30T14:20:26Z</time>
      </trkpt>
      <trkpt lat="49.30083" lon="3.99259">
        <ele>129</ele>
        <time>2019-03-30T14:20:27Z</time>
      </trkpt>
      <trkpt lat="49.30079" lon="3.99262">
        <ele>129</ele>
        <time>2019-03-30T14:20:28Z</time>
      </trkpt>
      <trkpt lat="49.30074" lon="3.99264">
        <ele>129</ele>
        <time>2019-03-30T14:20:29Z</time>
      </trkpt>
      <trkpt lat="49.3007" lon="3.99267">
        <ele>129</ele>
        <time>2019-03-30T14:20:30Z</time>
      </trkpt>
      <trkpt lat="49.30067" lon="3.99269">
        <ele>128</ele>
        <time>2019-03-30T14:20:31Z</time>
      </trkpt>
      <trkpt lat="49.30063" lon="3.99272">
        <ele>128</ele>
        <time>2019-03-30T14:20:32Z</time>
      </trkpt>
      <trkpt lat="49.30059" lon="3.99274">
        <ele>128</ele>
        <time>2019-03-30T14:20:33Z</time>
      </trkpt>
      <trkpt lat="49.30055" lon="3.99277">
        <ele>128</ele>
        <time>2019-03-30T14:20:34Z</time>
      </trkpt>
      <trkpt lat="49.30052" lon="3.9928">
        <ele>128</ele>
        <time>2019-03-30T14:20:35Z</time>
      </trkpt>
      <trkpt lat="49.30048" lon="3.99283">
        <ele>128</ele>
        <time>2019-03-30T14:20:36Z</time>
      </trkpt>
      <trkpt lat="49.30044" lon="3.99286">
        <ele>128</ele>
        <time>2019-03-30T14:20:37Z</time>
      </trkpt>
      <trkpt lat="49.3004" lon="3.99288">
        <ele>128</ele>
        <time>2019-03-30T14:20:38Z</time>
      </trkpt>
      <trkpt lat="49.30036" lon="3.99291">
        <ele>128</ele>
        <time>2019-03-30T14:20:39Z</time>
      </trkpt>
      <trkpt lat="49.30033" lon="3.99294">
        <ele>128</ele>
        <time>2019-03-30T14:20:40Z</time>
      </trkpt>
      <trkpt lat="49.30029" lon="3.99296">
        <ele>127</ele>
        <time>2019-03-30T14:20:41Z</time>
      </trkpt>
      <trkpt lat="49.30025" lon="3.99299">
        <ele>127</ele>
        <time>2019-03-30T14:20:42Z</time>
      </trkpt>
      <trkpt lat="49.30021" lon="3.99302">
        <ele>127</ele>
        <time>2019-03-30T14:20:43Z</time>
      </trkpt>
      <trkpt lat="49.30018" lon="3.99305">
        <ele>127</ele>
        <time>2019-03-30T14:20:44Z</time>
      </trkpt>
      <trkpt lat="49.30014" lon="3.99307">
        <ele>127</ele>
        <time>2019-03-30T14:20:45Z</time>
      </trkpt>
      <trkpt lat="49.30011" lon="3.9931">
        <ele>127</ele>
        <time>2019-03-30T14:20:46Z</time>
      </trkpt>
      <trkpt lat="49.30007" lon="3.99314">
        <ele>127</ele>
        <time>2019-03-30T14:20:47Z</time>
      </trkpt>
      <trkpt lat="49.30003" lon="3.99317">
        <ele>127</ele>
        <time>2019-03-30T14:20:48Z</time>
      </trkpt>
      <trkpt lat="49.29999" lon="3.9932">
        <ele>127</ele>
        <time>2019-03-30T14:20:49Z</time>
      </trkpt>
      <trkpt lat="49.29996" lon="3.99324">
        <ele>127</ele>
        <time>2019-03-30T14:20:50Z</time>
      </trkpt>
      <trkpt lat="49.29992" lon="3.99327">
        <ele>127</ele>
        <time>2019-03-30T14:20:51Z</time>
      </trkpt>
      <trkpt lat="49.29989" lon="3.9933">
        <ele>127</ele>
        <time>2019-03-30T14:20:52Z</time>
      </trkpt>
      <trkpt lat="49.29985" lon="3.99333">
        <ele>127</ele>
        <time>2019-03-30T14:20:53Z</time>
      </trkpt>
      <trkpt lat="49.29982" lon="3.99336">
        <ele>127</ele>
        <time>2019-03-30T14:20:54Z</time>
      </trkpt>
      <trkpt lat="49.29978" lon="3.9934">
        <ele>127</ele>
        <time>2019-03-30T14:20:55Z</time>
      </trkpt>
      <trkpt lat="49.29975" lon="3.99344">
        <ele>127</ele>
        <time>2019-03-30T14:20:56Z</time>
      </trkpt>
      <trkpt lat="49.29971" lon="3.99348">
        <ele>127</ele>
        <time>2019-03-30T14:20:57Z</time>
      </trkpt>
      <trkpt lat="49.29967" lon="3.99351">
        <ele>128</ele>
        <time>2019-03-30T14:20:58Z</time>
      </trkpt>
      <trkpt lat="49.29964" lon="3.99355">
        <ele>128</ele>
        <time>2019-03-30T14:20:59Z</time>
      </trkpt>
      <trkpt lat="49.29961" lon="3.99358">
        <ele>128</ele>
        <time>2019-03-30T14:21:00Z</time>
      </trkpt>
      <trkpt lat="49.29957" lon="3.99362">
        <ele>128</ele>
        <time>2019-03-30T14:21:01Z</time>
      </trkpt>
      <trkpt lat="49.29953" lon="3.99365">
        <ele>128</ele>
        <time>2019-03-30T14:21:02Z</time>
      </trkpt>
      <trkpt lat="49.2995" lon="3.99369">
        <ele>128</ele>
        <time>2019-03-30T14:21:03Z</time>
      </trkpt>
      <trkpt lat="49.29946" lon="3.99372">
        <ele>128</ele>
        <time>2019-03-30T14:21:04Z</time>
      </trkpt>
      <trkpt lat="49.29943" lon="3.99376">
        <ele>129</ele>
        <time>2019-03-30T14:21:05Z</time>
      </trkpt>
      <trkpt lat="49.2994" lon="3.9938">
        <ele>129</ele>
        <time>2019-03-30T14:21:06Z</time>
      </trkpt>
      <trkpt lat="49.29936" lon="3.99384">
        <ele>129</ele>
        <time>2019-03-30T14:21:07Z</time>
      </trkpt>
      <trkpt lat="49.29932" lon="3.99387">
        <ele>129</ele>
        <time>2019-03-30T14:21:08Z</time>
      </trkpt>
      <trkpt lat="49.29929" lon="3.99391">
        <ele>129</ele>
        <time>2019-03-30T14:21:09Z</time>
      </trkpt>
      <trkpt lat="49.29925" lon="3.99395">
        <ele>129</ele>
        <time>2019-03-30T14:21:10Z</time>
      </trkpt>
      <trkpt lat="49.29922" lon="3.99399">
        <ele>129</ele>
        <time>2019-03-30T14:21:11Z</time>
      </trkpt>
      <trkpt lat="49.29918" lon="3.99403">
        <ele>129</ele>
        <time>2019-03-30T14:21:12Z</time>
      </trkpt>
      <trkpt lat="49.29915" lon="3.99407">
        <ele>129</ele>
        <time>2019-03-30T14:21:13Z</time>
      </trkpt>
      <trkpt lat="49.29911" lon="3.99411">
        <ele>129</ele>
        <time>2019-03-30T14:21:14Z</time>
      </trkpt>
      <trkpt lat="49.29907" lon="3.99415">
        <ele>129</ele>
        <time>2019-03-30T14:21:15Z</time>
      </trkpt>
      <trkpt lat="49.29903" lon="3.99419">
        <ele>129</ele>
        <time>2019-03-30T14:21:16Z</time>
      </trkpt>
      <trkpt lat="49.299" lon="3.99424">
        <ele>129</ele>
        <time>2019-03-30T14:21:17Z</time>
      </trkpt>
      <trkpt lat="49.29896" lon="3.99428">
        <ele>129</ele>
        <time>2019-03-30T14:21:18Z</time>
      </trkpt>
      <trkpt lat="49.29892" lon="3.99431">
        <ele>129</ele>
        <time>2019-03-30T14:21:19Z</time>
      </trkpt>
      <trkpt lat="49.29889" lon="3.99435">
        <ele>129</ele>
        <time>2019-03-30T14:21:20Z</time>
      </trkpt>
      <trkpt lat="49.29885" lon="3.99439">
        <ele>129</ele>
        <time>2019-03-30T14:21:21Z</time>
      </trkpt>
      <trkpt lat="49.29882" lon="3.99443">
        <ele>129</ele>
        <time>2019-03-30T14:21:22Z</time>
      </trkpt>
      <trkpt lat="49.29878" lon="3.99447">
        <ele>129</ele>
        <time>2019-03-30T14:21:23Z</time>
      </trkpt>
      <trkpt lat="49.29874" lon="3.99451">
        <ele>129</ele>
        <time>2019-03-30T14:21:24Z</time>
      </trkpt>
      <trkpt lat="49.29871" lon="3.99455">
        <ele>129</ele>
        <time>2019-03-30T14:21:25Z</time>
      </trkpt>
      <trkpt lat="49.29867" lon="3.9946">
        <ele>129</ele>
        <time>2019-03-30T14:21:26Z</time>
      </trkpt>
      <trkpt lat="49.29863" lon="3.99464">
        <ele>129</ele>
        <time>2019-03-30T14:21:27Z</time>
      </trkpt>
      <trkpt lat="49.29859" lon="3.99468">
        <ele>129</ele>
        <time>2019-03-30T14:21:28Z</time>
      </trkpt>
      <trkpt lat="49.29855" lon="3.99471">
        <ele>129</ele>
        <time>2019-03-30T14:21:29Z</time>
      </trkpt>
      <trkpt lat="49.29852" lon="3.99475">
        <ele>129</ele>
        <time>2019-03-30T14:21:30Z</time>
      </trkpt>
      <trkpt lat="49.29847" lon="3.99479">
        <ele>129</ele>
        <time>2019-03-30T14:21:31Z</time>
      </trkpt>
      <trkpt lat="49.29844" lon="3.99484">
        <ele>129</ele>
        <time>2019-03-30T14:21:32Z</time>
      </trkpt>
      <trkpt lat="49.29839" lon="3.99488">
        <ele>128</ele>
        <time>2019-03-30T14:21:33Z</time>
      </trkpt>
      <trkpt lat="49.29836" lon="3.99493">
        <ele>128</ele>
        <time>2019-03-30T14:21:34Z</time>
      </trkpt>
      <trkpt lat="49.29832" lon="3.99498">
        <ele>128</ele>
        <time>2019-03-30T14:21:35Z</time>
      </trkpt>
      <trkpt lat="49.29827" lon="3.99503">
        <ele>128</ele>
        <time>2019-03-30T14:21:36Z</time>
      </trkpt>
      <trkpt lat="49.29823" lon="3.99507">
        <ele>128</ele>
        <time>2019-03-30T14:21:37Z</time>
      </trkpt>
      <trkpt lat="49.29819" lon="3.99512">
        <ele>128</ele>
        <time>2019-03-30T14:21:38Z</time>
      </trkpt>
      <trkpt lat="49.29815" lon="3.99516">
        <ele>128</ele>
        <time>2019-03-30T14:21:39Z</time>
      </trkpt>
      <trkpt lat="49.29811" lon="3.9952">
        <ele>128</ele>
        <time>2019-03-30T14:21:40Z</time>
      </trkpt>
      <trkpt lat="49.29807" lon="3.99524">
        <ele>128</ele>
        <time>2019-03-30T14:21:41Z</time>
      </trkpt>
      <trkpt lat="49.29803" lon="3.99528">
        <ele>128</ele>
        <time>2019-03-30T14:21:42Z</time>
      </trkpt>
      <trkpt lat="49.29799" lon="3.99533">
        <ele>128</ele>
        <time>2019-03-30T14:21:43Z</time>
      </trkpt>
      <trkpt lat="49.29795" lon="3.99537">
        <ele>128</ele>
        <time>2019-03-30T14:21:44Z</time>
      </trkpt>
      <trkpt lat="49.2979" lon="3.99542">
        <ele>128</ele>
        <time>2019-03-30T14:21:45Z</time>
      </trkpt>
      <trkpt lat="49.29786" lon="3.99546">
        <ele>128</ele>
        <time>2019-03-30T14:21:46Z</time>
      </trkpt>
      <trkpt lat="49.29782" lon="3.99551">
        <ele>128</ele>
        <time>2019-03-30T14:21:47Z</time>
      </trkpt>
      <trkpt lat="49.29778" lon="3.99556">
        <ele>128</ele>
        <time>2019-03-30T14:21:48Z</time>
      </trkpt>
      <trkpt lat="49.29774" lon="3.9956">
        <ele>128</ele>
        <time>2019-03-30T14:21:49Z</time>
      </trkpt>
      <trkpt lat="49.2977" lon="3.99565">
        <ele>128</ele>
        <time>2019-03-30T14:21:50Z</time>
      </trkpt>
      <trkpt lat="49.29766" lon="3.9957">
        <ele>128</ele>
        <time>2019-03-30T14:21:51Z</time>
      </trkpt>
      <trkpt lat="49.29761" lon="3.99575">
        <ele>128</ele>
        <time>2019-03-30T14:21:52Z</time>
      </trkpt>
      <trkpt lat="49.29757" lon="3.9958">
        <ele>128</ele>
        <time>2019-03-30T14:21:53Z</time>
      </trkpt>
      <trkpt lat="49.29752" lon="3.99585">
        <ele>127</ele>
        <time>2019-03-30T14:21:54Z</time>
      </trkpt>
      <trkpt lat="49.29748" lon="3.9959">
        <ele>127</ele>
        <time>2019-03-30T14:21:55Z</time>
      </trkpt>
      <trkpt lat="49.29744" lon="3.99595">
        <ele>127</ele>
        <time>2019-03-30T14:21:56Z</time>
      </trkpt>
      <trkpt lat="49.29739" lon="3.996">
        <ele>127</ele>
        <time>2019-03-30T14:21:57Z</time>
      </trkpt>
      <trkpt lat="49.29734" lon="3.99606">
        <ele>127</ele>
        <time>2019-03-30T14:21:58Z</time>
      </trkpt>
      <trkpt lat="49.2973" lon="3.99612">
        <ele>127</ele>
        <time>2019-03-30T14:21:59Z</time>
      </trkpt>
      <trkpt lat="49.29726" lon="3.99618">
        <ele>127</ele>
        <time>2019-03-30T14:22:00Z</time>
      </trkpt>
      <trkpt lat="49.29721" lon="3.99623">
        <ele>127</ele>
        <time>2019-03-30T14:22:01Z</time>
      </trkpt>
      <trkpt lat="49.29717" lon="3.99629">
        <ele>127</ele>
        <time>2019-03-30T14:22:02Z</time>
      </trkpt>
      <trkpt lat="49.29713" lon="3.99635">
        <ele>127</ele>
        <time>2019-03-30T14:22:03Z</time>
      </trkpt>
      <trkpt lat="49.29709" lon="3.99641">
        <ele>126</ele>
        <time>2019-03-30T14:22:04Z</time>
      </trkpt>
      <trkpt lat="49.29705" lon="3.99646">
        <ele>126</ele>
        <time>2019-03-30T14:22:05Z</time>
      </trkpt>
      <trkpt lat="49.29701" lon="3.99651">
        <ele>126</ele>
        <time>2019-03-30T14:22:06Z</time>
      </trkpt>
      <trkpt lat="49.29698" lon="3.99656">
        <ele>126</ele>
        <time>2019-03-30T14:22:07Z</time>
      </trkpt>
      <trkpt lat="49.29694" lon="3.99661">
        <ele>125</ele>
        <time>2019-03-30T14:22:08Z</time>
      </trkpt>
      <trkpt lat="49.2969" lon="3.99667">
        <ele>125</ele>
        <time>2019-03-30T14:22:09Z</time>
      </trkpt>
      <trkpt lat="49.29686" lon="3.99673">
        <ele>125</ele>
        <time>2019-03-30T14:22:10Z</time>
      </trkpt>
      <trkpt lat="49.29682" lon="3.9968">
        <ele>125</ele>
        <time>2019-03-30T14:22:11Z</time>
      </trkpt>
      <trkpt lat="49.29678" lon="3.99687">
        <ele>126</ele>
        <time>2019-03-30T14:22:12Z</time>
      </trkpt>
      <trkpt lat="49.29674" lon="3.99693">
        <ele>126</ele>
        <time>2019-03-30T14:22:13Z</time>
      </trkpt>
      <trkpt lat="49.2967" lon="3.997">
        <ele>126</ele>
        <time>2019-03-30T14:22:14Z</time>
      </trkpt>
      <trkpt lat="49.29667" lon="3.99708">
        <ele>125</ele>
        <time>2019-03-30T14:22:15Z</time>
      </trkpt>
      <trkpt lat="49.29663" lon="3.99715">
        <ele>126</ele>
        <time>2019-03-30T14:22:16Z</time>
      </trkpt>
      <trkpt lat="49.29658" lon="3.99723">
        <ele>125</ele>
        <time>2019-03-30T14:22:17Z</time>
      </trkpt>
      <trkpt lat="49.29654" lon="3.9973">
        <ele>125</ele>
        <time>2019-03-30T14:22:18Z</time>
      </trkpt>
      <trkpt lat="49.29651" lon="3.99738">
        <ele>125</ele>
        <time>2019-03-30T14:22:19Z</time>
      </trkpt>
      <trkpt lat="49.29647" lon="3.99745">
        <ele>125</ele>
        <time>2019-03-30T14:22:20Z</time>
      </trkpt>
      <trkpt lat="49.29643" lon="3.99753">
        <ele>125</ele>
        <time>2019-03-30T14:22:21Z</time>
      </trkpt>
      <trkpt lat="49.29639" lon="3.99762">
        <ele>125</ele>
        <time>2019-03-30T14:22:22Z</time>
      </trkpt>
      <trkpt lat="49.29635" lon="3.9977">
        <ele>125</ele>
        <time>2019-03-30T14:22:23Z</time>
      </trkpt>
      <trkpt lat="49.29631" lon="3.99778">
        <ele>125</ele>
        <time>2019-03-30T14:22:24Z</time>
      </trkpt>
      <trkpt lat="49.29628" lon="3.99786">
        <ele>124</ele>
        <time>2019-03-30T14:22:25Z</time>
      </trkpt>
      <trkpt lat="49.29625" lon="3.99793">
        <ele>124</ele>
        <time>2019-03-30T14:22:26Z</time>
      </trkpt>
      <trkpt lat="49.29621" lon="3.99801">
        <ele>123</ele>
        <time>2019-03-30T14:22:27Z</time>
      </trkpt>
      <trkpt lat="49.29617" lon="3.99807">
        <ele>123</ele>
        <time>2019-03-30T14:22:28Z</time>
      </trkpt>
      <trkpt lat="49.29613" lon="3.99813">
        <ele>123</ele>
        <time>2019-03-30T14:22:29Z</time>
      </trkpt>
      <trkpt lat="49.29609" lon="3.99819">
        <ele>123</ele>
        <time>2019-03-30T14:22:30Z</time>
      </trkpt>
      <trkpt lat="49.29605" lon="3.99826">
        <ele>123</ele>
        <time>2019-03-30T14:22:31Z</time>
      </trkpt>
      <trkpt lat="49.29601" lon="3.99832">
        <ele>123</ele>
        <time>2019-03-30T14:22:32Z</time>
      </trkpt>
      <trkpt lat="49.29597" lon="3.99837">
        <ele>123</ele>
        <time>2019-03-30T14:22:33Z</time>
      </trkpt>
      <trkpt lat="49.29592" lon="3.99841">
        <ele>123</ele>
        <time>2019-03-30T14:22:34Z</time>
      </trkpt>
      <trkpt lat="49.29587" lon="3.99844">
        <ele>123</ele>
        <time>2019-03-30T14:22:35Z</time>
      </trkpt>
      <trkpt lat="49.29582" lon="3.99846">
        <ele>123</ele>
        <time>2019-03-30T14:22:36Z</time>
      </trkpt>
      <trkpt lat="49.29577" lon="3.9985">
        <ele>123</ele>
        <time>2019-03-30T14:22:37Z</time>
      </trkpt>
      <trkpt lat="49.29572" lon="3.99855">
        <ele>123</ele>
        <time>2019-03-30T14:22:38Z</time>
      </trkpt>
      <trkpt lat="49.29568" lon="3.99861">
        <ele>123</ele>
        <time>2019-03-30T14:22:39Z</time>
      </trkpt>
      <trkpt lat="49.29564" lon="3.99868">
        <ele>123</ele>
        <time>2019-03-30T14:22:40Z</time>
      </trkpt>
      <trkpt lat="49.29562" lon="3.99876">
        <ele>123</ele>
        <time>2019-03-30T14:22:41Z</time>
      </trkpt>
      <trkpt lat="49.2956" lon="3.99885">
        <ele>123</ele>
        <time>2019-03-30T14:22:42Z</time>
      </trkpt>
      <trkpt lat="49.29558" lon="3.99894">
        <ele>123</ele>
        <time>2019-03-30T14:22:43Z</time>
      </trkpt>
      <trkpt lat="49.29556" lon="3.99903">
        <ele>122</ele>
        <time>2019-03-30T14:22:44Z</time>
      </trkpt>
      <trkpt lat="49.2955" lon="3.9992">
        <ele>122</ele>
        <time>2019-03-30T14:22:46Z</time>
      </trkpt>
      <trkpt lat="49.29544" lon="3.99926">
        <ele>121</ele>
        <time>2019-03-30T14:22:47Z</time>
      </trkpt>
      <trkpt lat="49.29538" lon="3.99932">
        <ele>121</ele>
        <time>2019-03-30T14:22:48Z</time>
      </trkpt>
      <trkpt lat="49.29532" lon="3.99937">
        <ele>121</ele>
        <time>2019-03-30T14:22:49Z</time>
      </trkpt>
      <trkpt lat="49.29527" lon="3.99942">
        <ele>121</ele>
        <time>2019-03-30T14:22:50Z</time>
      </trkpt>
      <trkpt lat="49.29521" lon="3.99947">
        <ele>120</ele>
        <time>2019-03-30T14:22:51Z</time>
      </trkpt>
      <trkpt lat="49.29515" lon="3.99952">
        <ele>120</ele>
        <time>2019-03-30T14:22:52Z</time>
      </trkpt>
      <trkpt lat="49.2951" lon="3.99957">
        <ele>120</ele>
        <time>2019-03-30T14:22:53Z</time>
      </trkpt>
      <trkpt lat="49.29504" lon="3.99961">
        <ele>120</ele>
        <time>2019-03-30T14:22:54Z</time>
      </trkpt>
      <trkpt lat="49.29498" lon="3.99965">
        <ele>120</ele>
        <time>2019-03-30T14:22:55Z</time>
      </trkpt>
      <trkpt lat="49.29493" lon="3.99968">
        <ele>120</ele>
        <time>2019-03-30T14:22:56Z</time>
      </trkpt>
      <trkpt lat="49.29488" lon="3.99973">
        <ele>120</ele>
        <time>2019-03-30T14:22:57Z</time>
      </trkpt>
      <trkpt lat="49.29482" lon="3.99977">
        <ele>120</ele>
        <time>2019-03-30T14:22:58Z</time>
      </trkpt>
      <trkpt lat="49.29477" lon="3.99982">
        <ele>120</ele>
        <time>2019-03-30T14:22:59Z</time>
      </trkpt>
      <trkpt lat="49.29472" lon="3.99986">
        <ele>120</ele>
        <time>2019-03-30T14:23:00Z</time>
      </trkpt>
      <trkpt lat="49.29467" lon="3.99991">
        <ele>120</ele>
        <time>2019-03-30T14:23:01Z</time>
      </trkpt>
      <trkpt lat="49.29462" lon="3.99996">
        <ele>120</ele>
        <time>2019-03-30T14:23:02Z</time>
      </trkpt>
      <trkpt lat="49.29457" lon="4.00001">
        <ele>120</ele>
        <time>2019-03-30T14:23:03Z</time>
      </trkpt>
      <trkpt lat="49.29452" lon="4.00005">
        <ele>120</ele>
        <time>2019-03-30T14:23:04Z</time>
      </trkpt>
      <trkpt lat="49.29447" lon="4.0001">
        <ele>120</ele>
        <time>2019-03-30T14:23:05Z</time>
      </trkpt>
      <trkpt lat="49.29443" lon="4.00014">
        <ele>120</ele>
        <time>2019-03-30T14:23:06Z</time>
      </trkpt>
      <trkpt lat="49.29438" lon="4.00019">
        <ele>120</ele>
        <time>2019-03-30T14:23:07Z</time>
      </trkpt>
      <trkpt lat="49.29433" lon="4.00024">
        <ele>120</ele>
        <time>2019-03-30T14:23:08Z</time>
      </trkpt>
      <trkpt lat="49.29428" lon="4.00028">
        <ele>120</ele>
        <time>2019-03-30T14:23:09Z</time>
      </trkpt>
      <trkpt lat="49.29424" lon="4.00033">
        <ele>120</ele>
        <time>2019-03-30T14:23:10Z</time>
      </trkpt>
      <trkpt lat="49.29419" lon="4.00037">
        <ele>120</ele>
        <time>2019-03-30T14:23:11Z</time>
      </trkpt>
      <trkpt lat="49.29415" lon="4.00041">
        <ele>119</ele>
        <time>2019-03-30T14:23:12Z</time>
      </trkpt>
      <trkpt lat="49.2941" lon="4.00046">
        <ele>119</ele>
        <time>2019-03-30T14:23:13Z</time>
      </trkpt>
      <trkpt lat="49.29406" lon="4.00051">
        <ele>119</ele>
        <time>2019-03-30T14:23:14Z</time>
      </trkpt>
      <trkpt lat="49.29401" lon="4.00055">
        <ele>119</ele>
        <time>2019-03-30T14:23:15Z</time>
      </trkpt>
      <trkpt lat="49.29396" lon="4.00061">
        <ele>119</ele>
        <time>2019-03-30T14:23:16Z</time>
      </trkpt>
      <trkpt lat="49.29391" lon="4.00066">
        <ele>119</ele>
        <time>2019-03-30T14:23:17Z</time>
      </trkpt>
      <trkpt lat="49.29386" lon="4.00071">
        <ele>119</ele>
        <time>2019-03-30T14:23:18Z</time>
      </trkpt>
      <trkpt lat="49.2938" lon="4.00075">
        <ele>119</ele>
        <time>2019-03-30T14:23:19Z</time>
      </trkpt>
      <trkpt lat="49.29376" lon="4.00081">
        <ele>119</ele>
        <time>2019-03-30T14:23:20Z</time>
      </trkpt>
      <trkpt lat="49.29371" lon="4.00086">
        <ele>119</ele>
        <time>2019-03-30T14:23:21Z</time>
      </trkpt>
      <trkpt lat="49.29365" lon="4.00091">
        <ele>118</ele>
        <time>2019-03-30T14:23:22Z</time>
      </trkpt>
      <trkpt lat="49.2936" lon="4.00096">
        <ele>118</ele>
        <time>2019-03-30T14:23:23Z</time>
      </trkpt>
      <trkpt lat="49.29355" lon="4.00101">
        <ele>118</ele>
        <time>2019-03-30T14:23:24Z</time>
      </trkpt>
      <trkpt lat="49.2935" lon="4.00106">
        <ele>117</ele>
        <time>2019-03-30T14:23:25Z</time>
      </trkpt>
      <trkpt lat="49.29345" lon="4.0011">
        <ele>117</ele>
        <time>2019-03-30T14:23:26Z</time>
      </trkpt>
      <trkpt lat="49.2934" lon="4.00115">
        <ele>117</ele>
        <time>2019-03-30T14:23:27Z</time>
      </trkpt>
      <trkpt lat="49.29336" lon="4.0012">
        <ele>118</ele>
        <time>2019-03-30T14:23:28Z</time>
      </trkpt>
      <trkpt lat="49.29331" lon="4.00125">
        <ele>117</ele>
        <time>2019-03-30T14:23:29Z</time>
      </trkpt>
      <trkpt lat="49.29326" lon="4.00131">
        <ele>117</ele>
        <time>2019-03-30T14:23:30Z</time>
      </trkpt>
      <trkpt lat="49.29322" lon="4.00136">
        <ele>117</ele>
        <time>2019-03-30T14:23:31Z</time>
      </trkpt>
      <trkpt lat="49.29317" lon="4.0014">
        <ele>117</ele>
        <time>2019-03-30T14:23:32Z</time>
      </trkpt>
      <trkpt lat="49.29312" lon="4.00145">
        <ele>117</ele>
        <time>2019-03-30T14:23:33Z</time>
      </trkpt>
      <trkpt lat="49.29303" lon="4.00152">
        <ele>118</ele>
        <time>2019-03-30T14:23:35Z</time>
      </trkpt>
      <trkpt lat="49.29299" lon="4.00156">
        <ele>118</ele>
        <time>2019-03-30T14:23:36Z</time>
      </trkpt>
      <trkpt lat="49.29295" lon="4.0016">
        <ele>118</ele>
        <time>2019-03-30T14:23:37Z</time>
      </trkpt>
      <trkpt lat="49.2929" lon="4.00164">
        <ele>118</ele>
        <time>2019-03-30T14:23:38Z</time>
      </trkpt>
      <trkpt lat="49.29287" lon="4.00168">
        <ele>118</ele>
        <time>2019-03-30T14:23:39Z</time>
      </trkpt>
      <trkpt lat="49.29284" lon="4.00172">
        <ele>118</ele>
        <time>2019-03-30T14:23:40Z</time>
      </trkpt>
      <trkpt lat="49.29281" lon="4.00175">
        <ele>119</ele>
        <time>2019-03-30T14:23:41Z</time>
      </trkpt>
      <trkpt lat="49.29278" lon="4.00178">
        <ele>119</ele>
        <time>2019-03-30T14:23:42Z</time>
      </trkpt>
      <trkpt lat="49.29274" lon="4.00182">
        <ele>119</ele>
        <time>2019-03-30T14:23:43Z</time>
      </trkpt>
      <trkpt lat="49.29271" lon="4.00185">
        <ele>119</ele>
        <time>2019-03-30T14:23:44Z</time>
      </trkpt>
      <trkpt lat="49.29268" lon="4.00188">
        <ele>118</ele>
        <time>2019-03-30T14:23:45Z</time>
      </trkpt>
      <trkpt lat="49.29264" lon="4.00192">
        <ele>118</ele>
        <time>2019-03-30T14:23:46Z</time>
      </trkpt>
      <trkpt lat="49.29261" lon="4.00194">
        <ele>118</ele>
        <time>2019-03-30T14:23:47Z</time>
      </trkpt>
      <trkpt lat="49.29254" lon="4.00201">
        <ele>119</ele>
        <time>2019-03-30T14:23:49Z</time>
      </trkpt>
      <trkpt lat="49.29251" lon="4.00204">
        <ele>119</ele>
        <time>2019-03-30T14:23:50Z</time>
      </trkpt>
      <trkpt lat="49.29248" lon="4.00207">
        <ele>119</ele>
        <time>2019-03-30T14:23:51Z</time>
      </trkpt>
      <trkpt lat="49.29245" lon="4.0021">
        <ele>119</ele>
        <time>2019-03-30T14:23:52Z</time>
      </trkpt>
      <trkpt lat="49.29243" lon="4.00211">
        <ele>119</ele>
        <time>2019-03-30T14:23:53Z</time>
      </trkpt>
      <trkpt lat="49.29241" lon="4.00211">
        <ele>119</ele>
        <time>2019-03-30T14:23:54Z</time>
      </trkpt>
      <trkpt lat="49.2924" lon="4.0021">
        <ele>119</ele>
        <time>2019-03-30T14:23:56Z</time>
      </trkpt>
      <trkpt lat="49.29239" lon="4.00209">
        <ele>119</ele>
        <time>2019-03-30T14:23:57Z</time>
      </trkpt>
      <trkpt lat="49.29239" lon="4.00208">
        <ele>119</ele>
        <time>2019-03-30T14:23:58Z</time>
      </trkpt>
      <trkpt lat="49.29239" lon="4.00207">
        <ele>118</ele>
        <time>2019-03-30T14:23:59Z</time>
      </trkpt>
      <trkpt lat="49.29239" lon="4.00207">
        <ele>118</ele>
        <time>2019-03-30T14:24:00Z</time>
      </trkpt>
      <trkpt lat="49.2924" lon="4.00207">
        <ele>117</ele>
        <time>2019-03-30T14:24:01Z</time>
      </trkpt>
      <trkpt lat="49.2924" lon="4.00207">
        <ele>117</ele>
        <time>2019-03-30T14:24:02Z</time>
      </trkpt>
      <trkpt lat="49.2924" lon="4.00207">
        <ele>117</ele>
        <time>2019-03-30T14:24:03Z</time>
      </trkpt>
      <trkpt lat="49.2924" lon="4.00207">
        <ele>117</ele>
        <time>2019-03-30T14:24:04Z</time>
      </trkpt>
      <trkpt lat="49.2924" lon="4.00207">
        <ele>117</ele>
        <time>2019-03-30T14:24:05Z</time>
      </trkpt>
      <trkpt lat="49.2924" lon="4.00207">
        <ele>117</ele>
        <time>2019-03-30T14:24:06Z</time>
      </trkpt>
      <trkpt lat="49.2924" lon="4.00207">
        <ele>117</ele>
        <time>2019-03-30T14:24:07Z</time>
      </trkpt>
      <trkpt lat="49.29241" lon="4.00207">
        <ele>117</ele>
        <time>2019-03-30T14:24:08Z</time>
      </trkpt>
      <trkpt lat="49.29244" lon="4.00204">
        <ele>117</ele>
        <time>2019-03-30T14:24:10Z</time>
      </trkpt>
      <trkpt lat="49.29244" lon="4.00201">
        <ele>117</ele>
        <time>2019-03-30T14:24:11Z</time>
      </trkpt>
      <trkpt lat="49.29244" lon="4.00199">
        <ele>118</ele>
        <time>2019-03-30T14:24:12Z</time>
      </trkpt>
      <trkpt lat="49.29241" lon="4.00198">
        <ele>118</ele>
        <time>2019-03-30T14:24:13Z</time>
      </trkpt>
      <trkpt lat="49.29239" lon="4.002">
        <ele>118</ele>
        <time>2019-03-30T14:24:14Z</time>
      </trkpt>
      <trkpt lat="49.29238" lon="4.00201">
        <ele>118</ele>
        <time>2019-03-30T14:24:15Z</time>
      </trkpt>
      <trkpt lat="49.29238" lon="4.00201">
        <ele>118</ele>
        <time>2019-03-30T14:24:16Z</time>
      </trkpt>
      <trkpt lat="49.29238" lon="4.00201">
        <ele>118</ele>
        <time>2019-03-30T14:24:17Z</time>
      </trkpt>
      <trkpt lat="49.29239" lon="4.002">
        <ele>118</ele>
        <time>2019-03-30T14:24:18Z</time>
      </trkpt>
      <trkpt lat="49.29239" lon="4.002">
        <ele>118</ele>
        <time>2019-03-30T14:24:19Z</time>
      </trkpt>
      <trkpt lat="49.29239" lon="4.002">
        <ele>118</ele>
        <time>2019-03-30T14:24:20Z</time>
      </trkpt>
      <trkpt lat="49.29239" lon="4.002">
        <ele>118</ele>
        <time>2019-03-30T14:24:21Z</time>
      </trkpt>
      <trkpt lat="49.29239" lon="4.002">
        <ele>118</ele>
        <time>2019-03-30T14:24:22Z</time>
      </trkpt>
      <trkpt lat="49.29239" lon="4.002">
        <ele>118</ele>
        <time>2019-03-30T14:24:23Z</time>
      </trkpt>
      <trkpt lat="49.29239" lon="4.002">
        <ele>118</ele>
        <time>2019-03-30T14:24:24Z</time>
      </trkpt>
      <trkpt lat="49.29239" lon="4.002">
        <ele>118</ele>
        <time>2019-03-30T14:24:25Z</time>
      </trkpt>
      <trkpt lat="49.29239" lon="4.002">
        <ele>118</ele>
        <time>2019-03-30T14:24:26Z</time>
      </trkpt>
      <trkpt lat="49.29239" lon="4.002">
        <ele>118</ele>
        <time>2019-03-30T14:24:27Z</time>
      </trkpt>
      <trkpt lat="49.29239" lon="4.002">
        <ele>118</ele>
        <time>2019-03-30T14:24:28Z</time>
      </trkpt>
      <trkpt lat="49.29239" lon="4.002">
        <ele>118</ele>
        <time>2019-03-30T14:24:29Z</time>
      </trkpt>
      <trkpt lat="49.29239" lon="4.002">
        <ele>118</ele>
        <time>2019-03-30T14:24:30Z</time>
      </trkpt>
      <trkpt lat="49.29239" lon="4.002">
        <ele>118</ele>
        <time>2019-03-30T14:24:31Z</time>
      </trkpt>
      <trkpt lat="49.29239" lon="4.002">
        <ele>118</ele>
        <time>2019-03-30T14:24:32Z</time>
      </trkpt>
      <trkpt lat="49.29239" lon="4.002">
        <ele>118</ele>
        <time>2019-03-30T14:24:33Z</time>
      </trkpt>
      <trkpt lat="49.29239" lon="4.002">
        <ele>118</ele>
        <time>2019-03-30T14:24:34Z</time>
      </trkpt>
      <trkpt lat="49.29239" lon="4.002">
        <ele>118</ele>
        <time>2019-03-30T14:24:35Z</time>
      </trkpt>
      <trkpt lat="49.29239" lon="4.002">
        <ele>118</ele>
        <time>2019-03-30T14:24:36Z</time>
      </trkpt>
      <trkpt lat="49.29239" lon="4.002">
        <ele>118</ele>
        <time>2019-03-30T14:24:37Z</time>
      </trkpt>
      <trkpt lat="49.29239" lon="4.002">
        <ele>118</ele>
        <time>2019-03-30T14:24:38Z</time>
      </trkpt>
      <trkpt lat="49.29239" lon="4.002">
        <ele>118</ele>
        <time>2019-03-30T14:24:39Z</time>
      </trkpt>
      <trkpt lat="49.29239" lon="4.002">
        <ele>118</ele>
        <time>2019-03-30T14:24:40Z</time>
      </trkpt>
      <trkpt lat="49.29239" lon="4.002">
        <ele>118</ele>
        <time>2019-03-30T14:24:41Z</time>
      </trkpt>
      <trkpt lat="49.29239" lon="4.002">
        <ele>118</ele>
        <time>2019-03-30T14:24:42Z</time>
      </trkpt>
      <trkpt lat="49.29238" lon="4.00201">
        <ele>118</ele>
        <time>2019-03-30T14:24:43Z</time>
      </trkpt>
      <trkpt lat="49.29238" lon="4.00202">
        <ele>118</ele>
        <time>2019-03-30T14:24:44Z</time>
      </trkpt>
      <trkpt lat="49.29238" lon="4.00203">
        <ele>119</ele>
        <time>2019-03-30T14:24:45Z</time>
      </trkpt>
      <trkpt lat="49.29238" lon="4.00202">
        <ele>118</ele>
        <time>2019-03-30T14:24:46Z</time>
      </trkpt>
      <trkpt lat="49.29238" lon="4.00202">
        <ele>118</ele>
        <time>2019-03-30T14:24:47Z</time>
      </trkpt>
      <trkpt lat="49.29238" lon="4.00202">
        <ele>118</ele>
        <time>2019-03-30T14:24:48Z</time>
      </trkpt>
      <trkpt lat="49.29238" lon="4.00202">
        <ele>118</ele>
        <time>2019-03-30T14:24:49Z</time>
      </trkpt>
      <trkpt lat="49.29238" lon="4.00202">
        <ele>118</ele>
        <time>2019-03-30T14:24:50Z</time>
      </trkpt>
      <trkpt lat="49.29238" lon="4.00202">
        <ele>118</ele>
        <time>2019-03-30T14:24:51Z</time>
      </trkpt>
      <trkpt lat="49.29238" lon="4.00202">
        <ele>118</ele>
        <time>2019-03-30T14:24:52Z</time>
      </trkpt>
      <trkpt lat="49.29238" lon="4.00202">
        <ele>118</ele>
        <time>2019-03-30T14:24:53Z</time>
      </trkpt>
      <trkpt lat="49.29238" lon="4.00202">
        <ele>118</ele>
        <time>2019-03-30T14:24:54Z</time>
      </trkpt>
      <trkpt lat="49.29238" lon="4.00202">
        <ele>118</ele>
        <time>2019-03-30T14:24:55Z</time>
      </trkpt>
      <trkpt lat="49.29238" lon="4.00202">
        <ele>118</ele>
        <time>2019-03-30T14:24:56Z</time>
      </trkpt>
      <trkpt lat="49.29238" lon="4.00202">
        <ele>118</ele>
        <time>2019-03-30T14:24:57Z</time>
      </trkpt>
      <trkpt lat="49.29238" lon="4.00202">
        <ele>118</ele>
        <time>2019-03-30T14:24:58Z</time>
      </trkpt>
      <trkpt lat="49.29238" lon="4.00202">
        <ele>118</ele>
        <time>2019-03-30T14:24:59Z</time>
      </trkpt>
      <trkpt lat="49.29237" lon="4.00202">
        <ele>119</ele>
        <time>2019-03-30T14:25:00Z</time>
      </trkpt>
      <trkpt lat="49.29237" lon="4.00202">
        <ele>119</ele>
        <time>2019-03-30T14:25:01Z</time>
      </trkpt>
      <trkpt lat="49.29237" lon="4.00202">
        <ele>119</ele>
        <time>2019-03-30T14:25:02Z</time>
      </trkpt>
      <trkpt lat="49.29237" lon="4.00202">
        <ele>118</ele>
        <time>2019-03-30T14:25:03Z</time>
      </trkpt>
      <trkpt lat="49.29237" lon="4.00202">
        <ele>118</ele>
        <time>2019-03-30T14:25:04Z</time>
      </trkpt>
      <trkpt lat="49.29237" lon="4.00202">
        <ele>118</ele>
        <time>2019-03-30T14:25:05Z</time>
      </trkpt>
      <trkpt lat="49.29237" lon="4.00202">
        <ele>118</ele>
        <time>2019-03-30T14:25:06Z</time>
      </trkpt>
      <trkpt lat="49.29237" lon="4.00202">
        <ele>118</ele>
        <time>2019-03-30T14:25:07Z</time>
      </trkpt>
      <trkpt lat="49.29237" lon="4.00202">
        <ele>118</ele>
        <time>2019-03-30T14:25:08Z</time>
      </trkpt>
      <trkpt lat="49.29237" lon="4.00202">
        <ele>118</ele>
        <time>2019-03-30T14:25:09Z</time>
      </trkpt>
      <trkpt lat="49.29237" lon="4.00202">
        <ele>118</ele>
        <time>2019-03-30T14:25:10Z</time>
      </trkpt>
      <trkpt lat="49.29237" lon="4.00202">
        <ele>118</ele>
        <time>2019-03-30T14:25:11Z</time>
      </trkpt>
      <trkpt lat="49.29235" lon="4.00202">
        <ele>118</ele>
        <time>2019-03-30T14:25:12Z</time>
      </trkpt>
      <trkpt lat="49.29233" lon="4.00202">
        <ele>118</ele>
        <time>2019-03-30T14:25:13Z</time>
      </trkpt>
      <trkpt lat="49.29231" lon="4.00203">
        <ele>118</ele>
        <time>2019-03-30T14:25:14Z</time>
      </trkpt>
      <trkpt lat="49.29229" lon="4.00205">
        <ele>118</ele>
        <time>2019-03-30T14:25:15Z</time>
      </trkpt>
      <trkpt lat="49.29226" lon="4.00206">
        <ele>119</ele>
        <time>2019-03-30T14:25:16Z</time>
      </trkpt>
      <trkpt lat="49.29223" lon="4.00207">
        <ele>119</ele>
        <time>2019-03-30T14:25:17Z</time>
      </trkpt>
      <trkpt lat="49.29219" lon="4.00209">
        <ele>119</ele>
        <time>2019-03-30T14:25:18Z</time>
      </trkpt>
      <trkpt lat="49.29216" lon="4.0021">
        <ele>119</ele>
        <time>2019-03-30T14:25:19Z</time>
      </trkpt>
      <trkpt lat="49.29213" lon="4.00211">
        <ele>119</ele>
        <time>2019-03-30T14:25:20Z</time>
      </trkpt>
      <trkpt lat="49.29211" lon="4.00214">
        <ele>119</ele>
        <time>2019-03-30T14:25:21Z</time>
      </trkpt>
      <trkpt lat="49.29209" lon="4.00216">
        <ele>119</ele>
        <time>2019-03-30T14:25:22Z</time>
      </trkpt>
      <trkpt lat="49.29207" lon="4.00218">
        <ele>119</ele>
        <time>2019-03-30T14:25:23Z</time>
      </trkpt>
      <trkpt lat="49.29205" lon="4.00219">
        <ele>119</ele>
        <time>2019-03-30T14:25:24Z</time>
      </trkpt>
      <trkpt lat="49.29203" lon="4.0022">
        <ele>119</ele>
        <time>2019-03-30T14:25:25Z</time>
      </trkpt>
      <trkpt lat="49.29201" lon="4.00221">
        <ele>118</ele>
        <time>2019-03-30T14:25:26Z</time>
      </trkpt>
      <trkpt lat="49.292" lon="4.00222">
        <ele>118</ele>
        <time>2019-03-30T14:25:27Z</time>
      </trkpt>
      <trkpt lat="49.29198" lon="4.00221">
        <ele>118</ele>
        <time>2019-03-30T14:25:28Z</time>
      </trkpt>
      <trkpt lat="49.29196" lon="4.0022">
        <ele>118</ele>
        <time>2019-03-30T14:25:29Z</time>
      </trkpt>
      <trkpt lat="49.29194" lon="4.00217">
        <ele>118</ele>
        <time>2019-03-30T14:25:30Z</time>
      </trkpt>
      <trkpt lat="49.29193" lon="4.00215">
        <ele>118</ele>
        <time>2019-03-30T14:25:31Z</time>
      </trkpt>
      <trkpt lat="49.29192" lon="4.00212">
        <ele>118</ele>
        <time>2019-03-30T14:25:32Z</time>
      </trkpt>
      <trkpt lat="49.2919" lon="4.00208">
        <ele>118</ele>
        <time>2019-03-30T14:25:33Z</time>
      </trkpt>
      <trkpt lat="49.29188" lon="4.00205">
        <ele>117</ele>
        <time>2019-03-30T14:25:34Z</time>
      </trkpt>
      <trkpt lat="49.29186" lon="4.00201">
        <ele>117</ele>
        <time>2019-03-30T14:25:35Z</time>
      </trkpt>
      <trkpt lat="49.29184" lon="4.00197">
        <ele>117</ele>
        <time>2019-03-30T14:25:36Z</time>
      </trkpt>
      <trkpt lat="49.29182" lon="4.00193">
        <ele>117</ele>
        <time>2019-03-30T14:25:37Z</time>
      </trkpt>
      <trkpt lat="49.2918" lon="4.00189">
        <ele>117</ele>
        <time>2019-03-30T14:25:38Z</time>
      </trkpt>
      <trkpt lat="49.29179" lon="4.00185">
        <ele>117</ele>
        <time>2019-03-30T14:25:39Z</time>
      </trkpt>
      <trkpt lat="49.29176" lon="4.0018">
        <ele>117</ele>
        <time>2019-03-30T14:25:40Z</time>
      </trkpt>
      <trkpt lat="49.29174" lon="4.00175">
        <ele>116</ele>
        <time>2019-03-30T14:25:41Z</time>
      </trkpt>
      <trkpt lat="49.29171" lon="4.0017">
        <ele>116</ele>
        <time>2019-03-30T14:25:42Z</time>
      </trkpt>
      <trkpt lat="49.29169" lon="4.00165">
        <ele>116</ele>
        <time>2019-03-30T14:25:43Z</time>
      </trkpt>
      <trkpt lat="49.29167" lon="4.0016">
        <ele>116</ele>
        <time>2019-03-30T14:25:44Z</time>
      </trkpt>
      <trkpt lat="49.29164" lon="4.00155">
        <ele>116</ele>
        <time>2019-03-30T14:25:45Z</time>
      </trkpt>
      <trkpt lat="49.29162" lon="4.0015">
        <ele>116</ele>
        <time>2019-03-30T14:25:46Z</time>
      </trkpt>
      <trkpt lat="49.2916" lon="4.00145">
        <ele>116</ele>
        <time>2019-03-30T14:25:47Z</time>
      </trkpt>
      <trkpt lat="49.29156" lon="4.00139">
        <ele>116</ele>
        <time>2019-03-30T14:25:48Z</time>
      </trkpt>
      <trkpt lat="49.29153" lon="4.00134">
        <ele>116</ele>
        <time>2019-03-30T14:25:49Z</time>
      </trkpt>
      <trkpt lat="49.2915" lon="4.00128">
        <ele>115</ele>
        <time>2019-03-30T14:25:50Z</time>
      </trkpt>
      <trkpt lat="49.29147" lon="4.00123">
        <ele>115</ele>
        <time>2019-03-30T14:25:51Z</time>
      </trkpt>
      <trkpt lat="49.29144" lon="4.00117">
        <ele>116</ele>
        <time>2019-03-30T14:25:52Z</time>
      </trkpt>
      <trkpt lat="49.29141" lon="4.00112">
        <ele>115</ele>
        <time>2019-03-30T14:25:53Z</time>
      </trkpt>
      <trkpt lat="49.29138" lon="4.00107">
        <ele>115</ele>
        <time>2019-03-30T14:25:54Z</time>
      </trkpt>
      <trkpt lat="49.29134" lon="4.00101">
        <ele>115</ele>
        <time>2019-03-30T14:25:55Z</time>
      </trkpt>
      <trkpt lat="49.2913" lon="4.00096">
        <ele>116</ele>
        <time>2019-03-30T14:25:56Z</time>
      </trkpt>
      <trkpt lat="49.29127" lon="4.0009">
        <ele>116</ele>
        <time>2019-03-30T14:25:57Z</time>
      </trkpt>
      <trkpt lat="49.29123" lon="4.00085">
        <ele>116</ele>
        <time>2019-03-30T14:25:58Z</time>
      </trkpt>
      <trkpt lat="49.29118" lon="4.0008">
        <ele>116</ele>
        <time>2019-03-30T14:25:59Z</time>
      </trkpt>
      <trkpt lat="49.29114" lon="4.00074">
        <ele>116</ele>
        <time>2019-03-30T14:26:00Z</time>
      </trkpt>
      <trkpt lat="49.2911" lon="4.0007">
        <ele>116</ele>
        <time>2019-03-30T14:26:01Z</time>
      </trkpt>
      <trkpt lat="49.29107" lon="4.00064">
        <ele>116</ele>
        <time>2019-03-30T14:26:02Z</time>
      </trkpt>
      <trkpt lat="49.29102" lon="4.00058">
        <ele>116</ele>
        <time>2019-03-30T14:26:03Z</time>
      </trkpt>
      <trkpt lat="49.29099" lon="4.00052">
        <ele>116</ele>
        <time>2019-03-30T14:26:04Z</time>
      </trkpt>
      <trkpt lat="49.29094" lon="4.00047">
        <ele>116</ele>
        <time>2019-03-30T14:26:05Z</time>
      </trkpt>
      <trkpt lat="49.2909" lon="4.00042">
        <ele>116</ele>
        <time>2019-03-30T14:26:06Z</time>
      </trkpt>
      <trkpt lat="49.29085" lon="4.00037">
        <ele>116</ele>
        <time>2019-03-30T14:26:07Z</time>
      </trkpt>
      <trkpt lat="49.29081" lon="4.00031">
        <ele>116</ele>
        <time>2019-03-30T14:26:08Z</time>
      </trkpt>
      <trkpt lat="49.29076" lon="4.00026">
        <ele>116</ele>
        <time>2019-03-30T14:26:09Z</time>
      </trkpt>
      <trkpt lat="49.29072" lon="4.00021">
        <ele>116</ele>
        <time>2019-03-30T14:26:10Z</time>
      </trkpt>
      <trkpt lat="49.29068" lon="4.00016">
        <ele>116</ele>
        <time>2019-03-30T14:26:11Z</time>
      </trkpt>
      <trkpt lat="49.29063" lon="4.00011">
        <ele>116</ele>
        <time>2019-03-30T14:26:12Z</time>
      </trkpt>
      <trkpt lat="49.29058" lon="4.00007">
        <ele>116</ele>
        <time>2019-03-30T14:26:13Z</time>
      </trkpt>
      <trkpt lat="49.29054" lon="4.00002">
        <ele>116</ele>
        <time>2019-03-30T14:26:14Z</time>
      </trkpt>
      <trkpt lat="49.29049" lon="3.99997">
        <ele>116</ele>
        <time>2019-03-30T14:26:15Z</time>
      </trkpt>
      <trkpt lat="49.29044" lon="3.99993">
        <ele>116</ele>
        <time>2019-03-30T14:26:16Z</time>
      </trkpt>
      <trkpt lat="49.29039" lon="3.99989">
        <ele>116</ele>
        <time>2019-03-30T14:26:17Z</time>
      </trkpt>
      <trkpt lat="49.29034" lon="3.99985">
        <ele>115</ele>
        <time>2019-03-30T14:26:18Z</time>
      </trkpt>
      <trkpt lat="49.29029" lon="3.99981">
        <ele>116</ele>
        <time>2019-03-30T14:26:19Z</time>
      </trkpt>
      <trkpt lat="49.29024" lon="3.99976">
        <ele>116</ele>
        <time>2019-03-30T14:26:20Z</time>
      </trkpt>
      <trkpt lat="49.2902" lon="3.99972">
        <ele>116</ele>
        <time>2019-03-30T14:26:21Z</time>
      </trkpt>
      <trkpt lat="49.29014" lon="3.99968">
        <ele>116</ele>
        <time>2019-03-30T14:26:22Z</time>
      </trkpt>
      <trkpt lat="49.29009" lon="3.99964">
        <ele>116</ele>
        <time>2019-03-30T14:26:23Z</time>
      </trkpt>
      <trkpt lat="49.29004" lon="3.99961">
        <ele>116</ele>
        <time>2019-03-30T14:26:24Z</time>
      </trkpt>
      <trkpt lat="49.28999" lon="3.99957">
        <ele>116</ele>
        <time>2019-03-30T14:26:25Z</time>
      </trkpt>
      <trkpt lat="49.28994" lon="3.99954">
        <ele>116</ele>
        <time>2019-03-30T14:26:26Z</time>
      </trkpt>
      <trkpt lat="49.28988" lon="3.99951">
        <ele>116</ele>
        <time>2019-03-30T14:26:27Z</time>
      </trkpt>
      <trkpt lat="49.28983" lon="3.99948">
        <ele>116</ele>
        <time>2019-03-30T14:26:28Z</time>
      </trkpt>
      <trkpt lat="49.28978" lon="3.99945">
        <ele>117</ele>
        <time>2019-03-30T14:26:29Z</time>
      </trkpt>
      <trkpt lat="49.28972" lon="3.99942">
        <ele>117</ele>
        <time>2019-03-30T14:26:30Z</time>
      </trkpt>
      <trkpt lat="49.28967" lon="3.99939">
        <ele>117</ele>
        <time>2019-03-30T14:26:31Z</time>
      </trkpt>
      <trkpt lat="49.28962" lon="3.99936">
        <ele>117</ele>
        <time>2019-03-30T14:26:32Z</time>
      </trkpt>
      <trkpt lat="49.28956" lon="3.99932">
        <ele>117</ele>
        <time>2019-03-30T14:26:33Z</time>
      </trkpt>
      <trkpt lat="49.28951" lon="3.99929">
        <ele>117</ele>
        <time>2019-03-30T14:26:34Z</time>
      </trkpt>
      <trkpt lat="49.28945" lon="3.99926">
        <ele>117</ele>
        <time>2019-03-30T14:26:35Z</time>
      </trkpt>
      <trkpt lat="49.2894" lon="3.99923">
        <ele>117</ele>
        <time>2019-03-30T14:26:36Z</time>
      </trkpt>
      <trkpt lat="49.28934" lon="3.9992">
        <ele>117</ele>
        <time>2019-03-30T14:26:37Z</time>
      </trkpt>
      <trkpt lat="49.28929" lon="3.99917">
        <ele>117</ele>
        <time>2019-03-30T14:26:38Z</time>
      </trkpt>
      <trkpt lat="49.28923" lon="3.99913">
        <ele>117</ele>
        <time>2019-03-30T14:26:39Z</time>
      </trkpt>
      <trkpt lat="49.28918" lon="3.9991">
        <ele>118</ele>
        <time>2019-03-30T14:26:40Z</time>
      </trkpt>
      <trkpt lat="49.28913" lon="3.99907">
        <ele>118</ele>
        <time>2019-03-30T14:26:41Z</time>
      </trkpt>
      <trkpt lat="49.28907" lon="3.99904">
        <ele>118</ele>
        <time>2019-03-30T14:26:42Z</time>
      </trkpt>
      <trkpt lat="49.28902" lon="3.99901">
        <ele>117</ele>
        <time>2019-03-30T14:26:43Z</time>
      </trkpt>
      <trkpt lat="49.28897" lon="3.99898">
        <ele>117</ele>
        <time>2019-03-30T14:26:44Z</time>
      </trkpt>
      <trkpt lat="49.28891" lon="3.99895">
        <ele>117</ele>
        <time>2019-03-30T14:26:45Z</time>
      </trkpt>
      <trkpt lat="49.28886" lon="3.99892">
        <ele>118</ele>
        <time>2019-03-30T14:26:46Z</time>
      </trkpt>
      <trkpt lat="49.28881" lon="3.99889">
        <ele>118</ele>
        <time>2019-03-30T14:26:47Z</time>
      </trkpt>
      <trkpt lat="49.28876" lon="3.99886">
        <ele>118</ele>
        <time>2019-03-30T14:26:48Z</time>
      </trkpt>
      <trkpt lat="49.2887" lon="3.99884">
        <ele>118</ele>
        <time>2019-03-30T14:26:49Z</time>
      </trkpt>
      <trkpt lat="49.28865" lon="3.9988">
        <ele>118</ele>
        <time>2019-03-30T14:26:50Z</time>
      </trkpt>
      <trkpt lat="49.2886" lon="3.99878">
        <ele>117</ele>
        <time>2019-03-30T14:26:51Z</time>
      </trkpt>
      <trkpt lat="49.28854" lon="3.99874">
        <ele>117</ele>
        <time>2019-03-30T14:26:52Z</time>
      </trkpt>
      <trkpt lat="49.28849" lon="3.9987">
        <ele>117</ele>
        <time>2019-03-30T14:26:53Z</time>
      </trkpt>
      <trkpt lat="49.28844" lon="3.99867">
        <ele>118</ele>
        <time>2019-03-30T14:26:54Z</time>
      </trkpt>
      <trkpt lat="49.28838" lon="3.99864">
        <ele>118</ele>
        <time>2019-03-30T14:26:55Z</time>
      </trkpt>
      <trkpt lat="49.28833" lon="3.99861">
        <ele>118</ele>
        <time>2019-03-30T14:26:56Z</time>
      </trkpt>
      <trkpt lat="49.28827" lon="3.99858">
        <ele>118</ele>
        <time>2019-03-30T14:26:57Z</time>
      </trkpt>
      <trkpt lat="49.28822" lon="3.99855">
        <ele>118</ele>
        <time>2019-03-30T14:26:58Z</time>
      </trkpt>
      <trkpt lat="49.28817" lon="3.99852">
        <ele>119</ele>
        <time>2019-03-30T14:26:59Z</time>
      </trkpt>
      <trkpt lat="49.28811" lon="3.99849">
        <ele>119</ele>
        <time>2019-03-30T14:27:00Z</time>
      </trkpt>
      <trkpt lat="49.28806" lon="3.99846">
        <ele>119</ele>
        <time>2019-03-30T14:27:01Z</time>
      </trkpt>
      <trkpt lat="49.28801" lon="3.99842">
        <ele>119</ele>
        <time>2019-03-30T14:27:02Z</time>
      </trkpt>
      <trkpt lat="49.28796" lon="3.9984">
        <ele>119</ele>
        <time>2019-03-30T14:27:03Z</time>
      </trkpt>
      <trkpt lat="49.2879" lon="3.99836">
        <ele>119</ele>
        <time>2019-03-30T14:27:04Z</time>
      </trkpt>
      <trkpt lat="49.28785" lon="3.99833">
        <ele>119</ele>
        <time>2019-03-30T14:27:05Z</time>
      </trkpt>
      <trkpt lat="49.2878" lon="3.99831">
        <ele>120</ele>
        <time>2019-03-30T14:27:06Z</time>
      </trkpt>
      <trkpt lat="49.28775" lon="3.99828">
        <ele>120</ele>
        <time>2019-03-30T14:27:07Z</time>
      </trkpt>
      <trkpt lat="49.28769" lon="3.99825">
        <ele>120</ele>
        <time>2019-03-30T14:27:08Z</time>
      </trkpt>
      <trkpt lat="49.28764" lon="3.99822">
        <ele>120</ele>
        <time>2019-03-30T14:27:09Z</time>
      </trkpt>
      <trkpt lat="49.28758" lon="3.99819">
        <ele>120</ele>
        <time>2019-03-30T14:27:10Z</time>
      </trkpt>
      <trkpt lat="49.28752" lon="3.99816">
        <ele>120</ele>
        <time>2019-03-30T14:27:11Z</time>
      </trkpt>
      <trkpt lat="49.28747" lon="3.99814">
        <ele>121</ele>
        <time>2019-03-30T14:27:12Z</time>
      </trkpt>
      <trkpt lat="49.28741" lon="3.99811">
        <ele>120</ele>
        <time>2019-03-30T14:27:13Z</time>
      </trkpt>
      <trkpt lat="49.28736" lon="3.99807">
        <ele>120</ele>
        <time>2019-03-30T14:27:14Z</time>
      </trkpt>
      <trkpt lat="49.28731" lon="3.99804">
        <ele>120</ele>
        <time>2019-03-30T14:27:15Z</time>
      </trkpt>
      <trkpt lat="49.28726" lon="3.99802">
        <ele>120</ele>
        <time>2019-03-30T14:27:16Z</time>
      </trkpt>
      <trkpt lat="49.2872" lon="3.99799">
        <ele>120</ele>
        <time>2019-03-30T14:27:17Z</time>
      </trkpt>
      <trkpt lat="49.28714" lon="3.99795">
        <ele>120</ele>
        <time>2019-03-30T14:27:18Z</time>
      </trkpt>
      <trkpt lat="49.28709" lon="3.99792">
        <ele>120</ele>
        <time>2019-03-30T14:27:19Z</time>
      </trkpt>
      <trkpt lat="49.28703" lon="3.99789">
        <ele>120</ele>
        <time>2019-03-30T14:27:20Z</time>
      </trkpt>
      <trkpt lat="49.28699" lon="3.99786">
        <ele>119</ele>
        <time>2019-03-30T14:27:21Z</time>
      </trkpt>
      <trkpt lat="49.28694" lon="3.99783">
        <ele>119</ele>
        <time>2019-03-30T14:27:22Z</time>
      </trkpt>
      <trkpt lat="49.28689" lon="3.9978">
        <ele>119</ele>
        <time>2019-03-30T14:27:23Z</time>
      </trkpt>
      <trkpt lat="49.28684" lon="3.99777">
        <ele>119</ele>
        <time>2019-03-30T14:27:24Z</time>
      </trkpt>
      <trkpt lat="49.28679" lon="3.99774">
        <ele>119</ele>
        <time>2019-03-30T14:27:25Z</time>
      </trkpt>
      <trkpt lat="49.28674" lon="3.99771">
        <ele>119</ele>
        <time>2019-03-30T14:27:26Z</time>
      </trkpt>
      <trkpt lat="49.28668" lon="3.99769">
        <ele>119</ele>
        <time>2019-03-30T14:27:27Z</time>
      </trkpt>
      <trkpt lat="49.28662" lon="3.99767">
        <ele>119</ele>
        <time>2019-03-30T14:27:28Z</time>
      </trkpt>
      <trkpt lat="49.28657" lon="3.99764">
        <ele>119</ele>
        <time>2019-03-30T14:27:29Z</time>
      </trkpt>
      <trkpt lat="49.28652" lon="3.99761">
        <ele>119</ele>
        <time>2019-03-30T14:27:30Z</time>
      </trkpt>
      <trkpt lat="49.28647" lon="3.99759">
        <ele>120</ele>
        <time>2019-03-30T14:27:31Z</time>
      </trkpt>
      <trkpt lat="49.28641" lon="3.99756">
        <ele>120</ele>
        <time>2019-03-30T14:27:32Z</time>
      </trkpt>
      <trkpt lat="49.28636" lon="3.99754">
        <ele>120</ele>
        <time>2019-03-30T14:27:33Z</time>
      </trkpt>
      <trkpt lat="49.28632" lon="3.99751">
        <ele>120</ele>
        <time>2019-03-30T14:27:34Z</time>
      </trkpt>
      <trkpt lat="49.28627" lon="3.99749">
        <ele>120</ele>
        <time>2019-03-30T14:27:35Z</time>
      </trkpt>
      <trkpt lat="49.28622" lon="3.99746">
        <ele>120</ele>
        <time>2019-03-30T14:27:36Z</time>
      </trkpt>
      <trkpt lat="49.28618" lon="3.99744">
        <ele>121</ele>
        <time>2019-03-30T14:27:37Z</time>
      </trkpt>
      <trkpt lat="49.28614" lon="3.99742">
        <ele>121</ele>
        <time>2019-03-30T14:27:38Z</time>
      </trkpt>
      <trkpt lat="49.28609" lon="3.99739">
        <ele>121</ele>
        <time>2019-03-30T14:27:39Z</time>
      </trkpt>
      <trkpt lat="49.28605" lon="3.99737">
        <ele>121</ele>
        <time>2019-03-30T14:27:40Z</time>
      </trkpt>
      <trkpt lat="49.28601" lon="3.99735">
        <ele>120</ele>
        <time>2019-03-30T14:27:41Z</time>
      </trkpt>
      <trkpt lat="49.28596" lon="3.99732">
        <ele>120</ele>
        <time>2019-03-30T14:27:42Z</time>
      </trkpt>
      <trkpt lat="49.28592" lon="3.9973">
        <ele>120</ele>
        <time>2019-03-30T14:27:43Z</time>
      </trkpt>
      <trkpt lat="49.28588" lon="3.99727">
        <ele>120</ele>
        <time>2019-03-30T14:27:44Z</time>
      </trkpt>
      <trkpt lat="49.28583" lon="3.99725">
        <ele>119</ele>
        <time>2019-03-30T14:27:45Z</time>
      </trkpt>
      <trkpt lat="49.28579" lon="3.99723">
        <ele>119</ele>
        <time>2019-03-30T14:27:46Z</time>
      </trkpt>
      <trkpt lat="49.28575" lon="3.99721">
        <ele>119</ele>
        <time>2019-03-30T14:27:47Z</time>
      </trkpt>
      <trkpt lat="49.2857" lon="3.99719">
        <ele>119</ele>
        <time>2019-03-30T14:27:48Z</time>
      </trkpt>
      <trkpt lat="49.28566" lon="3.99717">
        <ele>119</ele>
        <time>2019-03-30T14:27:49Z</time>
      </trkpt>
      <trkpt lat="49.28561" lon="3.99714">
        <ele>119</ele>
        <time>2019-03-30T14:27:50Z</time>
      </trkpt>
      <trkpt lat="49.28557" lon="3.99712">
        <ele>119</ele>
        <time>2019-03-30T14:27:51Z</time>
      </trkpt>
      <trkpt lat="49.28552" lon="3.9971">
        <ele>120</ele>
        <time>2019-03-30T14:27:52Z</time>
      </trkpt>
      <trkpt lat="49.28548" lon="3.99707">
        <ele>119</ele>
        <time>2019-03-30T14:27:53Z</time>
      </trkpt>
      <trkpt lat="49.28544" lon="3.99705">
        <ele>119</ele>
        <time>2019-03-30T14:27:54Z</time>
      </trkpt>
      <trkpt lat="49.28539" lon="3.99703">
        <ele>119</ele>
        <time>2019-03-30T14:27:55Z</time>
      </trkpt>
      <trkpt lat="49.28535" lon="3.997">
        <ele>119</ele>
        <time>2019-03-30T14:27:56Z</time>
      </trkpt>
      <trkpt lat="49.2853" lon="3.99697">
        <ele>120</ele>
        <time>2019-03-30T14:27:57Z</time>
      </trkpt>
      <trkpt lat="49.28526" lon="3.99694">
        <ele>120</ele>
        <time>2019-03-30T14:27:58Z</time>
      </trkpt>
      <trkpt lat="49.28522" lon="3.99692">
        <ele>120</ele>
        <time>2019-03-30T14:27:59Z</time>
      </trkpt>
      <trkpt lat="49.28518" lon="3.99689">
        <ele>120</ele>
        <time>2019-03-30T14:28:00Z</time>
      </trkpt>
      <trkpt lat="49.28513" lon="3.99686">
        <ele>120</ele>
        <time>2019-03-30T14:28:01Z</time>
      </trkpt>
      <trkpt lat="49.28509" lon="3.99684">
        <ele>120</ele>
        <time>2019-03-30T14:28:02Z</time>
      </trkpt>
      <trkpt lat="49.28505" lon="3.99682">
        <ele>120</ele>
        <time>2019-03-30T14:28:03Z</time>
      </trkpt>
      <trkpt lat="49.28501" lon="3.99681">
        <ele>120</ele>
        <time>2019-03-30T14:28:04Z</time>
      </trkpt>
      <trkpt lat="49.28497" lon="3.99679">
        <ele>120</ele>
        <time>2019-03-30T14:28:05Z</time>
      </trkpt>
      <trkpt lat="49.28494" lon="3.99676">
        <ele>120</ele>
        <time>2019-03-30T14:28:06Z</time>
      </trkpt>
      <trkpt lat="49.2849" lon="3.99674">
        <ele>120</ele>
        <time>2019-03-30T14:28:07Z</time>
      </trkpt>
      <trkpt lat="49.28485" lon="3.99672">
        <ele>120</ele>
        <time>2019-03-30T14:28:08Z</time>
      </trkpt>
      <trkpt lat="49.28481" lon="3.9967">
        <ele>120</ele>
        <time>2019-03-30T14:28:09Z</time>
      </trkpt>
      <trkpt lat="49.28477" lon="3.99668">
        <ele>121</ele>
        <time>2019-03-30T14:28:10Z</time>
      </trkpt>
      <trkpt lat="49.28473" lon="3.99666">
        <ele>121</ele>
        <time>2019-03-30T14:28:11Z</time>
      </trkpt>
      <trkpt lat="49.28469" lon="3.99664">
        <ele>121</ele>
        <time>2019-03-30T14:28:12Z</time>
      </trkpt>
      <trkpt lat="49.28465" lon="3.99662">
        <ele>121</ele>
        <time>2019-03-30T14:28:13Z</time>
      </trkpt>
      <trkpt lat="49.28461" lon="3.99659">
        <ele>120</ele>
        <time>2019-03-30T14:28:14Z</time>
      </trkpt>
      <trkpt lat="49.28457" lon="3.99656">
        <ele>120</ele>
        <time>2019-03-30T14:28:15Z</time>
      </trkpt>
      <trkpt lat="49.28452" lon="3.99654">
        <ele>120</ele>
        <time>2019-03-30T14:28:16Z</time>
      </trkpt>
      <trkpt lat="49.28449" lon="3.99652">
        <ele>120</ele>
        <time>2019-03-30T14:28:17Z</time>
      </trkpt>
      <trkpt lat="49.28445" lon="3.9965">
        <ele>121</ele>
        <time>2019-03-30T14:28:18Z</time>
      </trkpt>
      <trkpt lat="49.28441" lon="3.99647">
        <ele>120</ele>
        <time>2019-03-30T14:28:19Z</time>
      </trkpt>
      <trkpt lat="49.28436" lon="3.99644">
        <ele>121</ele>
        <time>2019-03-30T14:28:20Z</time>
      </trkpt>
      <trkpt lat="49.28432" lon="3.99642">
        <ele>121</ele>
        <time>2019-03-30T14:28:21Z</time>
      </trkpt>
      <trkpt lat="49.28428" lon="3.99639">
        <ele>121</ele>
        <time>2019-03-30T14:28:22Z</time>
      </trkpt>
      <trkpt lat="49.28424" lon="3.99637">
        <ele>121</ele>
        <time>2019-03-30T14:28:23Z</time>
      </trkpt>
      <trkpt lat="49.28419" lon="3.99634">
        <ele>121</ele>
        <time>2019-03-30T14:28:24Z</time>
      </trkpt>
      <trkpt lat="49.28415" lon="3.99631">
        <ele>121</ele>
        <time>2019-03-30T14:28:25Z</time>
      </trkpt>
      <trkpt lat="49.28411" lon="3.99628">
        <ele>121</ele>
        <time>2019-03-30T14:28:26Z</time>
      </trkpt>
      <trkpt lat="49.28407" lon="3.99626">
        <ele>121</ele>
        <time>2019-03-30T14:28:27Z</time>
      </trkpt>
      <trkpt lat="49.28403" lon="3.99623">
        <ele>121</ele>
        <time>2019-03-30T14:28:28Z</time>
      </trkpt>
      <trkpt lat="49.28398" lon="3.99621">
        <ele>121</ele>
        <time>2019-03-30T14:28:29Z</time>
      </trkpt>
      <trkpt lat="49.28394" lon="3.99618">
        <ele>121</ele>
        <time>2019-03-30T14:28:30Z</time>
      </trkpt>
      <trkpt lat="49.28389" lon="3.99616">
        <ele>121</ele>
        <time>2019-03-30T14:28:31Z</time>
      </trkpt>
      <trkpt lat="49.28385" lon="3.99613">
        <ele>121</ele>
        <time>2019-03-30T14:28:32Z</time>
      </trkpt>
      <trkpt lat="49.28381" lon="3.99611">
        <ele>121</ele>
        <time>2019-03-30T14:28:33Z</time>
      </trkpt>
      <trkpt lat="49.28377" lon="3.99609">
        <ele>121</ele>
        <time>2019-03-30T14:28:34Z</time>
      </trkpt>
      <trkpt lat="49.28368" lon="3.99605">
        <ele>121</ele>
        <time>2019-03-30T14:28:36Z</time>
      </trkpt>
      <trkpt lat="49.28364" lon="3.99602">
        <ele>120</ele>
        <time>2019-03-30T14:28:37Z</time>
      </trkpt>
      <trkpt lat="49.28358" lon="3.996">
        <ele>120</ele>
        <time>2019-03-30T14:28:38Z</time>
      </trkpt>
      <trkpt lat="49.28354" lon="3.99598">
        <ele>120</ele>
        <time>2019-03-30T14:28:39Z</time>
      </trkpt>
      <trkpt lat="49.2835" lon="3.99596">
        <ele>120</ele>
        <time>2019-03-30T14:28:40Z</time>
      </trkpt>
      <trkpt lat="49.28345" lon="3.99595">
        <ele>120</ele>
        <time>2019-03-30T14:28:41Z</time>
      </trkpt>
      <trkpt lat="49.2834" lon="3.99593">
        <ele>119</ele>
        <time>2019-03-30T14:28:42Z</time>
      </trkpt>
      <trkpt lat="49.28335" lon="3.99591">
        <ele>119</ele>
        <time>2019-03-30T14:28:43Z</time>
      </trkpt>
      <trkpt lat="49.2833" lon="3.9959">
        <ele>119</ele>
        <time>2019-03-30T14:28:44Z</time>
      </trkpt>
      <trkpt lat="49.28325" lon="3.99588">
        <ele>119</ele>
        <time>2019-03-30T14:28:45Z</time>
      </trkpt>
      <trkpt lat="49.28321" lon="3.99587">
        <ele>119</ele>
        <time>2019-03-30T14:28:46Z</time>
      </trkpt>
      <trkpt lat="49.28315" lon="3.99586">
        <ele>119</ele>
        <time>2019-03-30T14:28:47Z</time>
      </trkpt>
      <trkpt lat="49.2831" lon="3.99584">
        <ele>119</ele>
        <time>2019-03-30T14:28:48Z</time>
      </trkpt>
      <trkpt lat="49.28305" lon="3.99584">
        <ele>119</ele>
        <time>2019-03-30T14:28:49Z</time>
      </trkpt>
      <trkpt lat="49.28301" lon="3.99582">
        <ele>118</ele>
        <time>2019-03-30T14:28:50Z</time>
      </trkpt>
      <trkpt lat="49.28296" lon="3.99583">
        <ele>118</ele>
        <time>2019-03-30T14:28:51Z</time>
      </trkpt>
      <trkpt lat="49.28292" lon="3.99582">
        <ele>118</ele>
        <time>2019-03-30T14:28:52Z</time>
      </trkpt>
      <trkpt lat="49.28289" lon="3.99581">
        <ele>118</ele>
        <time>2019-03-30T14:28:53Z</time>
      </trkpt>
      <trkpt lat="49.28285" lon="3.9958">
        <ele>118</ele>
        <time>2019-03-30T14:28:54Z</time>
      </trkpt>
      <trkpt lat="49.28282" lon="3.99579">
        <ele>118</ele>
        <time>2019-03-30T14:28:55Z</time>
      </trkpt>
      <trkpt lat="49.28278" lon="3.99578">
        <ele>118</ele>
        <time>2019-03-30T14:28:56Z</time>
      </trkpt>
      <trkpt lat="49.28275" lon="3.99578">
        <ele>118</ele>
        <time>2019-03-30T14:28:57Z</time>
      </trkpt>
      <trkpt lat="49.28271" lon="3.99578">
        <ele>118</ele>
        <time>2019-03-30T14:28:58Z</time>
      </trkpt>
      <trkpt lat="49.28267" lon="3.99578">
        <ele>117</ele>
        <time>2019-03-30T14:28:59Z</time>
      </trkpt>
      <trkpt lat="49.28263" lon="3.99577">
        <ele>117</ele>
        <time>2019-03-30T14:29:00Z</time>
      </trkpt>
      <trkpt lat="49.28259" lon="3.99576">
        <ele>118</ele>
        <time>2019-03-30T14:29:01Z</time>
      </trkpt>
      <trkpt lat="49.28255" lon="3.99576">
        <ele>118</ele>
        <time>2019-03-30T14:29:02Z</time>
      </trkpt>
      <trkpt lat="49.28251" lon="3.99577">
        <ele>118</ele>
        <time>2019-03-30T14:29:03Z</time>
      </trkpt>
      <trkpt lat="49.28247" lon="3.99577">
        <ele>118</ele>
        <time>2019-03-30T14:29:04Z</time>
      </trkpt>
      <trkpt lat="49.28243" lon="3.99577">
        <ele>118</ele>
        <time>2019-03-30T14:29:05Z</time>
      </trkpt>
      <trkpt lat="49.28239" lon="3.99577">
        <ele>118</ele>
        <time>2019-03-30T14:29:06Z</time>
      </trkpt>
      <trkpt lat="49.28236" lon="3.99578">
        <ele>118</ele>
        <time>2019-03-30T14:29:07Z</time>
      </trkpt>
      <trkpt lat="49.28232" lon="3.99578">
        <ele>118</ele>
        <time>2019-03-30T14:29:08Z</time>
      </trkpt>
      <trkpt lat="49.28228" lon="3.99579">
        <ele>118</ele>
        <time>2019-03-30T14:29:09Z</time>
      </trkpt>
      <trkpt lat="49.28224" lon="3.9958">
        <ele>117</ele>
        <time>2019-03-30T14:29:10Z</time>
      </trkpt>
      <trkpt lat="49.28219" lon="3.9958">
        <ele>118</ele>
        <time>2019-03-30T14:29:11Z</time>
      </trkpt>
      <trkpt lat="49.28215" lon="3.99581">
        <ele>118</ele>
        <time>2019-03-30T14:29:12Z</time>
      </trkpt>
      <trkpt lat="49.28211" lon="3.99582">
        <ele>118</ele>
        <time>2019-03-30T14:29:13Z</time>
      </trkpt>
      <trkpt lat="49.28207" lon="3.99584">
        <ele>117</ele>
        <time>2019-03-30T14:29:14Z</time>
      </trkpt>
      <trkpt lat="49.28202" lon="3.99585">
        <ele>117</ele>
        <time>2019-03-30T14:29:15Z</time>
      </trkpt>
      <trkpt lat="49.28198" lon="3.99586">
        <ele>117</ele>
        <time>2019-03-30T14:29:16Z</time>
      </trkpt>
      <trkpt lat="49.28194" lon="3.99584">
        <ele>117</ele>
        <time>2019-03-30T14:29:17Z</time>
      </trkpt>
      <trkpt lat="49.28189" lon="3.99582">
        <ele>117</ele>
        <time>2019-03-30T14:29:18Z</time>
      </trkpt>
      <trkpt lat="49.28185" lon="3.99581">
        <ele>117</ele>
        <time>2019-03-30T14:29:19Z</time>
      </trkpt>
      <trkpt lat="49.28181" lon="3.99581">
        <ele>117</ele>
        <time>2019-03-30T14:29:20Z</time>
      </trkpt>
      <trkpt lat="49.28176" lon="3.99581">
        <ele>117</ele>
        <time>2019-03-30T14:29:21Z</time>
      </trkpt>
      <trkpt lat="49.28172" lon="3.99582">
        <ele>118</ele>
        <time>2019-03-30T14:29:22Z</time>
      </trkpt>
      <trkpt lat="49.28168" lon="3.99582">
        <ele>117</ele>
        <time>2019-03-30T14:29:23Z</time>
      </trkpt>
      <trkpt lat="49.28164" lon="3.99583">
        <ele>118</ele>
        <time>2019-03-30T14:29:24Z</time>
      </trkpt>
      <trkpt lat="49.28159" lon="3.99584">
        <ele>117</ele>
        <time>2019-03-30T14:29:25Z</time>
      </trkpt>
      <trkpt lat="49.28155" lon="3.99585">
        <ele>117</ele>
        <time>2019-03-30T14:29:26Z</time>
      </trkpt>
      <trkpt lat="49.2815" lon="3.99586">
        <ele>117</ele>
        <time>2019-03-30T14:29:27Z</time>
      </trkpt>
      <trkpt lat="49.28146" lon="3.99586">
        <ele>117</ele>
        <time>2019-03-30T14:29:28Z</time>
      </trkpt>
      <trkpt lat="49.28141" lon="3.99586">
        <ele>117</ele>
        <time>2019-03-30T14:29:29Z</time>
      </trkpt>
      <trkpt lat="49.28136" lon="3.99586">
        <ele>117</ele>
        <time>2019-03-30T14:29:30Z</time>
      </trkpt>
      <trkpt lat="49.28131" lon="3.99587">
        <ele>117</ele>
        <time>2019-03-30T14:29:31Z</time>
      </trkpt>
      <trkpt lat="49.28127" lon="3.99587">
        <ele>117</ele>
        <time>2019-03-30T14:29:32Z</time>
      </trkpt>
      <trkpt lat="49.28123" lon="3.99588">
        <ele>117</ele>
        <time>2019-03-30T14:29:33Z</time>
      </trkpt>
      <trkpt lat="49.28119" lon="3.99588">
        <ele>117</ele>
        <time>2019-03-30T14:29:34Z</time>
      </trkpt>
      <trkpt lat="49.28114" lon="3.99588">
        <ele>116</ele>
        <time>2019-03-30T14:29:35Z</time>
      </trkpt>
      <trkpt lat="49.2811" lon="3.99589">
        <ele>116</ele>
        <time>2019-03-30T14:29:36Z</time>
      </trkpt>
      <trkpt lat="49.28106" lon="3.9959">
        <ele>117</ele>
        <time>2019-03-30T14:29:37Z</time>
      </trkpt>
      <trkpt lat="49.28102" lon="3.99591">
        <ele>117</ele>
        <time>2019-03-30T14:29:38Z</time>
      </trkpt>
      <trkpt lat="49.28097" lon="3.99591">
        <ele>117</ele>
        <time>2019-03-30T14:29:39Z</time>
      </trkpt>
      <trkpt lat="49.28093" lon="3.99591">
        <ele>117</ele>
        <time>2019-03-30T14:29:40Z</time>
      </trkpt>
      <trkpt lat="49.28089" lon="3.99591">
        <ele>117</ele>
        <time>2019-03-30T14:29:41Z</time>
      </trkpt>
      <trkpt lat="49.28085" lon="3.99592">
        <ele>117</ele>
        <time>2019-03-30T14:29:42Z</time>
      </trkpt>
      <trkpt lat="49.28081" lon="3.99592">
        <ele>117</ele>
        <time>2019-03-30T14:29:43Z</time>
      </trkpt>
      <trkpt lat="49.28077" lon="3.99592">
        <ele>118</ele>
        <time>2019-03-30T14:29:44Z</time>
      </trkpt>
      <trkpt lat="49.28073" lon="3.99593">
        <ele>118</ele>
        <time>2019-03-30T14:29:45Z</time>
      </trkpt>
      <trkpt lat="49.28068" lon="3.99593">
        <ele>117</ele>
        <time>2019-03-30T14:29:46Z</time>
      </trkpt>
      <trkpt lat="49.28063" lon="3.99593">
        <ele>117</ele>
        <time>2019-03-30T14:29:47Z</time>
      </trkpt>
      <trkpt lat="49.28059" lon="3.99593">
        <ele>117</ele>
        <time>2019-03-30T14:29:48Z</time>
      </trkpt>
      <trkpt lat="49.28055" lon="3.99594">
        <ele>117</ele>
        <time>2019-03-30T14:29:49Z</time>
      </trkpt>
      <trkpt lat="49.28051" lon="3.99595">
        <ele>117</ele>
        <time>2019-03-30T14:29:50Z</time>
      </trkpt>
      <trkpt lat="49.28046" lon="3.99596">
        <ele>117</ele>
        <time>2019-03-30T14:29:51Z</time>
      </trkpt>
      <trkpt lat="49.28042" lon="3.99596">
        <ele>117</ele>
        <time>2019-03-30T14:29:52Z</time>
      </trkpt>
      <trkpt lat="49.28038" lon="3.99596">
        <ele>117</ele>
        <time>2019-03-30T14:29:53Z</time>
      </trkpt>
      <trkpt lat="49.28034" lon="3.99597">
        <ele>117</ele>
        <time>2019-03-30T14:29:54Z</time>
      </trkpt>
      <trkpt lat="49.2803" lon="3.99598">
        <ele>117</ele>
        <time>2019-03-30T14:29:55Z</time>
      </trkpt>
      <trkpt lat="49.28025" lon="3.99598">
        <ele>117</ele>
        <time>2019-03-30T14:29:56Z</time>
      </trkpt>
      <trkpt lat="49.28022" lon="3.99599">
        <ele>117</ele>
        <time>2019-03-30T14:29:57Z</time>
      </trkpt>
      <trkpt lat="49.28017" lon="3.99599">
        <ele>117</ele>
        <time>2019-03-30T14:29:58Z</time>
      </trkpt>
      <trkpt lat="49.28013" lon="3.996">
        <ele>117</ele>
        <time>2019-03-30T14:29:59Z</time>
      </trkpt>
      <trkpt lat="49.28008" lon="3.996">
        <ele>117</ele>
        <time>2019-03-30T14:30:00Z</time>
      </trkpt>
      <trkpt lat="49.28004" lon="3.99601">
        <ele>117</ele>
        <time>2019-03-30T14:30:01Z</time>
      </trkpt>
      <trkpt lat="49.28" lon="3.99601">
        <ele>117</ele>
        <time>2019-03-30T14:30:02Z</time>
      </trkpt>
      <trkpt lat="49.27996" lon="3.99601">
        <ele>117</ele>
        <time>2019-03-30T14:30:03Z</time>
      </trkpt>
      <trkpt lat="49.27991" lon="3.99602">
        <ele>117</ele>
        <time>2019-03-30T14:30:04Z</time>
      </trkpt>
      <trkpt lat="49.27987" lon="3.99602">
        <ele>117</ele>
        <time>2019-03-30T14:30:05Z</time>
      </trkpt>
      <trkpt lat="49.27983" lon="3.99603">
        <ele>117</ele>
        <time>2019-03-30T14:30:06Z</time>
      </trkpt>
      <trkpt lat="49.27978" lon="3.99604">
        <ele>118</ele>
        <time>2019-03-30T14:30:07Z</time>
      </trkpt>
      <trkpt lat="49.27974" lon="3.99605">
        <ele>118</ele>
        <time>2019-03-30T14:30:08Z</time>
      </trkpt>
      <trkpt lat="49.27969" lon="3.99605">
        <ele>117</ele>
        <time>2019-03-30T14:30:09Z</time>
      </trkpt>
      <trkpt lat="49.27965" lon="3.99605">
        <ele>117</ele>
        <time>2019-03-30T14:30:10Z</time>
      </trkpt>
      <trkpt lat="49.27961" lon="3.99606">
        <ele>117</ele>
        <time>2019-03-30T14:30:11Z</time>
      </trkpt>
      <trkpt lat="49.27956" lon="3.99606">
        <ele>117</ele>
        <time>2019-03-30T14:30:12Z</time>
      </trkpt>
      <trkpt lat="49.27952" lon="3.99607">
        <ele>117</ele>
        <time>2019-03-30T14:30:13Z</time>
      </trkpt>
      <trkpt lat="49.27948" lon="3.99607">
        <ele>117</ele>
        <time>2019-03-30T14:30:14Z</time>
      </trkpt>
      <trkpt lat="49.27945" lon="3.99608">
        <ele>117</ele>
        <time>2019-03-30T14:30:15Z</time>
      </trkpt>
      <trkpt lat="49.27941" lon="3.99608">
        <ele>117</ele>
        <time>2019-03-30T14:30:16Z</time>
      </trkpt>
      <trkpt lat="49.27937" lon="3.99608">
        <ele>117</ele>
        <time>2019-03-30T14:30:17Z</time>
      </trkpt>
      <trkpt lat="49.27934" lon="3.99609">
        <ele>117</ele>
        <time>2019-03-30T14:30:18Z</time>
      </trkpt>
      <trkpt lat="49.2793" lon="3.99609">
        <ele>117</ele>
        <time>2019-03-30T14:30:19Z</time>
      </trkpt>
      <trkpt lat="49.27927" lon="3.9961">
        <ele>117</ele>
        <time>2019-03-30T14:30:20Z</time>
      </trkpt>
      <trkpt lat="49.27924" lon="3.99611">
        <ele>117</ele>
        <time>2019-03-30T14:30:21Z</time>
      </trkpt>
      <trkpt lat="49.2792" lon="3.99613">
        <ele>117</ele>
        <time>2019-03-30T14:30:22Z</time>
      </trkpt>
      <trkpt lat="49.27915" lon="3.99614">
        <ele>118</ele>
        <time>2019-03-30T14:30:23Z</time>
      </trkpt>
      <trkpt lat="49.27911" lon="3.99614">
        <ele>118</ele>
        <time>2019-03-30T14:30:24Z</time>
      </trkpt>
      <trkpt lat="49.27907" lon="3.99613">
        <ele>118</ele>
        <time>2019-03-30T14:30:25Z</time>
      </trkpt>
      <trkpt lat="49.27903" lon="3.99614">
        <ele>118</ele>
        <time>2019-03-30T14:30:26Z</time>
      </trkpt>
      <trkpt lat="49.27898" lon="3.99615">
        <ele>119</ele>
        <time>2019-03-30T14:30:27Z</time>
      </trkpt>
      <trkpt lat="49.27894" lon="3.99616">
        <ele>119</ele>
        <time>2019-03-30T14:30:28Z</time>
      </trkpt>
      <trkpt lat="49.2789" lon="3.99617">
        <ele>119</ele>
        <time>2019-03-30T14:30:29Z</time>
      </trkpt>
      <trkpt lat="49.27885" lon="3.99616">
        <ele>118</ele>
        <time>2019-03-30T14:30:30Z</time>
      </trkpt>
      <trkpt lat="49.27881" lon="3.99616">
        <ele>118</ele>
        <time>2019-03-30T14:30:31Z</time>
      </trkpt>
      <trkpt lat="49.27877" lon="3.99617">
        <ele>119</ele>
        <time>2019-03-30T14:30:32Z</time>
      </trkpt>
      <trkpt lat="49.27873" lon="3.99617">
        <ele>118</ele>
        <time>2019-03-30T14:30:33Z</time>
      </trkpt>
      <trkpt lat="49.27869" lon="3.99616">
        <ele>118</ele>
        <time>2019-03-30T14:30:34Z</time>
      </trkpt>
      <trkpt lat="49.27864" lon="3.99616">
        <ele>119</ele>
        <time>2019-03-30T14:30:35Z</time>
      </trkpt>
      <trkpt lat="49.2786" lon="3.99617">
        <ele>119</ele>
        <time>2019-03-30T14:30:36Z</time>
      </trkpt>
      <trkpt lat="49.27856" lon="3.99617">
        <ele>119</ele>
        <time>2019-03-30T14:30:37Z</time>
      </trkpt>
      <trkpt lat="49.27852" lon="3.99617">
        <ele>119</ele>
        <time>2019-03-30T14:30:38Z</time>
      </trkpt>
      <trkpt lat="49.27847" lon="3.99617">
        <ele>119</ele>
        <time>2019-03-30T14:30:39Z</time>
      </trkpt>
      <trkpt lat="49.27842" lon="3.99617">
        <ele>119</ele>
        <time>2019-03-30T14:30:40Z</time>
      </trkpt>
      <trkpt lat="49.27838" lon="3.99617">
        <ele>119</ele>
        <time>2019-03-30T14:30:41Z</time>
      </trkpt>
      <trkpt lat="49.27833" lon="3.99619">
        <ele>119</ele>
        <time>2019-03-30T14:30:42Z</time>
      </trkpt>
      <trkpt lat="49.27829" lon="3.99619">
        <ele>119</ele>
        <time>2019-03-30T14:30:43Z</time>
      </trkpt>
      <trkpt lat="49.27824" lon="3.99619">
        <ele>119</ele>
        <time>2019-03-30T14:30:44Z</time>
      </trkpt>
      <trkpt lat="49.2782" lon="3.9962">
        <ele>119</ele>
        <time>2019-03-30T14:30:45Z</time>
      </trkpt>
      <trkpt lat="49.27815" lon="3.99621">
        <ele>120</ele>
        <time>2019-03-30T14:30:46Z</time>
      </trkpt>
      <trkpt lat="49.2781" lon="3.99622">
        <ele>120</ele>
        <time>2019-03-30T14:30:47Z</time>
      </trkpt>
      <trkpt lat="49.27805" lon="3.99622">
        <ele>120</ele>
        <time>2019-03-30T14:30:48Z</time>
      </trkpt>
      <trkpt lat="49.27801" lon="3.99622">
        <ele>120</ele>
        <time>2019-03-30T14:30:49Z</time>
      </trkpt>
      <trkpt lat="49.27796" lon="3.99623">
        <ele>120</ele>
        <time>2019-03-30T14:30:50Z</time>
      </trkpt>
      <trkpt lat="49.27791" lon="3.99622">
        <ele>120</ele>
        <time>2019-03-30T14:30:51Z</time>
      </trkpt>
      <trkpt lat="49.27786" lon="3.99623">
        <ele>120</ele>
        <time>2019-03-30T14:30:52Z</time>
      </trkpt>
      <trkpt lat="49.27781" lon="3.99624">
        <ele>120</ele>
        <time>2019-03-30T14:30:53Z</time>
      </trkpt>
      <trkpt lat="49.27776" lon="3.99624">
        <ele>120</ele>
        <time>2019-03-30T14:30:54Z</time>
      </trkpt>
      <trkpt lat="49.27771" lon="3.99625">
        <ele>120</ele>
        <time>2019-03-30T14:30:55Z</time>
      </trkpt>
      <trkpt lat="49.27766" lon="3.99625">
        <ele>120</ele>
        <time>2019-03-30T14:30:56Z</time>
      </trkpt>
      <trkpt lat="49.27761" lon="3.99626">
        <ele>120</ele>
        <time>2019-03-30T14:30:57Z</time>
      </trkpt>
      <trkpt lat="49.27756" lon="3.99626">
        <ele>120</ele>
        <time>2019-03-30T14:30:58Z</time>
      </trkpt>
      <trkpt lat="49.27752" lon="3.99626">
        <ele>120</ele>
        <time>2019-03-30T14:30:59Z</time>
      </trkpt>
      <trkpt lat="49.27747" lon="3.99627">
        <ele>120</ele>
        <time>2019-03-30T14:31:00Z</time>
      </trkpt>
      <trkpt lat="49.27743" lon="3.99628">
        <ele>119</ele>
        <time>2019-03-30T14:31:01Z</time>
      </trkpt>
      <trkpt lat="49.27739" lon="3.99629">
        <ele>120</ele>
        <time>2019-03-30T14:31:02Z</time>
      </trkpt>
      <trkpt lat="49.27735" lon="3.9963">
        <ele>120</ele>
        <time>2019-03-30T14:31:03Z</time>
      </trkpt>
      <trkpt lat="49.2773" lon="3.99631">
        <ele>120</ele>
        <time>2019-03-30T14:31:04Z</time>
      </trkpt>
      <trkpt lat="49.27726" lon="3.99632">
        <ele>120</ele>
        <time>2019-03-30T14:31:05Z</time>
      </trkpt>
      <trkpt lat="49.27721" lon="3.99632">
        <ele>121</ele>
        <time>2019-03-30T14:31:06Z</time>
      </trkpt>
      <trkpt lat="49.27717" lon="3.99633">
        <ele>121</ele>
        <time>2019-03-30T14:31:07Z</time>
      </trkpt>
      <trkpt lat="49.27712" lon="3.99634">
        <ele>121</ele>
        <time>2019-03-30T14:31:08Z</time>
      </trkpt>
      <trkpt lat="49.27708" lon="3.99633">
        <ele>121</ele>
        <time>2019-03-30T14:31:09Z</time>
      </trkpt>
      <trkpt lat="49.27703" lon="3.99633">
        <ele>121</ele>
        <time>2019-03-30T14:31:10Z</time>
      </trkpt>
      <trkpt lat="49.27698" lon="3.99633">
        <ele>122</ele>
        <time>2019-03-30T14:31:11Z</time>
      </trkpt>
      <trkpt lat="49.27694" lon="3.99635">
        <ele>122</ele>
        <time>2019-03-30T14:31:12Z</time>
      </trkpt>
      <trkpt lat="49.2769" lon="3.99636">
        <ele>123</ele>
        <time>2019-03-30T14:31:13Z</time>
      </trkpt>
      <trkpt lat="49.27686" lon="3.99639">
        <ele>124</ele>
        <time>2019-03-30T14:31:14Z</time>
      </trkpt>
      <trkpt lat="49.27681" lon="3.9964">
        <ele>124</ele>
        <time>2019-03-30T14:31:15Z</time>
      </trkpt>
      <trkpt lat="49.27677" lon="3.9964">
        <ele>125</ele>
        <time>2019-03-30T14:31:16Z</time>
      </trkpt>
      <trkpt lat="49.27672" lon="3.99642">
        <ele>126</ele>
        <time>2019-03-30T14:31:17Z</time>
      </trkpt>
      <trkpt lat="49.27667" lon="3.99642">
        <ele>127</ele>
        <time>2019-03-30T14:31:18Z</time>
      </trkpt>
      <trkpt lat="49.27662" lon="3.99644">
        <ele>127</ele>
        <time>2019-03-30T14:31:19Z</time>
      </trkpt>
      <trkpt lat="49.27656" lon="3.99645">
        <ele>127</ele>
        <time>2019-03-30T14:31:20Z</time>
      </trkpt>
      <trkpt lat="49.27651" lon="3.99647">
        <ele>127</ele>
        <time>2019-03-30T14:31:21Z</time>
      </trkpt>
      <trkpt lat="49.27646" lon="3.99648">
        <ele>128</ele>
        <time>2019-03-30T14:31:22Z</time>
      </trkpt>
      <trkpt lat="49.27641" lon="3.99645">
        <ele>128</ele>
        <time>2019-03-30T14:31:23Z</time>
      </trkpt>
      <trkpt lat="49.27636" lon="3.99642">
        <ele>128</ele>
        <time>2019-03-30T14:31:24Z</time>
      </trkpt>
      <trkpt lat="49.27631" lon="3.99638">
        <ele>128</ele>
        <time>2019-03-30T14:31:25Z</time>
      </trkpt>
      <trkpt lat="49.27627" lon="3.99633">
        <ele>128</ele>
        <time>2019-03-30T14:31:26Z</time>
      </trkpt>
      <trkpt lat="49.27622" lon="3.99629">
        <ele>128</ele>
        <time>2019-03-30T14:31:27Z</time>
      </trkpt>
      <trkpt lat="49.27618" lon="3.99627">
        <ele>128</ele>
        <time>2019-03-30T14:31:28Z</time>
      </trkpt>
      <trkpt lat="49.27614" lon="3.99624">
        <ele>127</ele>
        <time>2019-03-30T14:31:29Z</time>
      </trkpt>
      <trkpt lat="49.2761" lon="3.99621">
        <ele>127</ele>
        <time>2019-03-30T14:31:30Z</time>
      </trkpt>
      <trkpt lat="49.27605" lon="3.99618">
        <ele>127</ele>
        <time>2019-03-30T14:31:31Z</time>
      </trkpt>
      <trkpt lat="49.27601" lon="3.99616">
        <ele>126</ele>
        <time>2019-03-30T14:31:32Z</time>
      </trkpt>
      <trkpt lat="49.27598" lon="3.99613">
        <ele>126</ele>
        <time>2019-03-30T14:31:33Z</time>
      </trkpt>
      <trkpt lat="49.27595" lon="3.9961">
        <ele>125</ele>
        <time>2019-03-30T14:31:34Z</time>
      </trkpt>
      <trkpt lat="49.27591" lon="3.99606">
        <ele>125</ele>
        <time>2019-03-30T14:31:35Z</time>
      </trkpt>
      <trkpt lat="49.27588" lon="3.99604">
        <ele>125</ele>
        <time>2019-03-30T14:31:36Z</time>
      </trkpt>
      <trkpt lat="49.27585" lon="3.99602">
        <ele>125</ele>
        <time>2019-03-30T14:31:37Z</time>
      </trkpt>
      <trkpt lat="49.27582" lon="3.99601">
        <ele>125</ele>
        <time>2019-03-30T14:31:38Z</time>
      </trkpt>
      <trkpt lat="49.27578" lon="3.99601">
        <ele>125</ele>
        <time>2019-03-30T14:31:39Z</time>
      </trkpt>
      <trkpt lat="49.27575" lon="3.99601">
        <ele>125</ele>
        <time>2019-03-30T14:31:40Z</time>
      </trkpt>
      <trkpt lat="49.27572" lon="3.99602">
        <ele>125</ele>
        <time>2019-03-30T14:31:41Z</time>
      </trkpt>
      <trkpt lat="49.27568" lon="3.99603">
        <ele>125</ele>
        <time>2019-03-30T14:31:42Z</time>
      </trkpt>
      <trkpt lat="49.27565" lon="3.99603">
        <ele>125</ele>
        <time>2019-03-30T14:31:43Z</time>
      </trkpt>
      <trkpt lat="49.27562" lon="3.99604">
        <ele>125</ele>
        <time>2019-03-30T14:31:44Z</time>
      </trkpt>
      <trkpt lat="49.27558" lon="3.99605">
        <ele>125</ele>
        <time>2019-03-30T14:31:45Z</time>
      </trkpt>
      <trkpt lat="49.27554" lon="3.99605">
        <ele>124</ele>
        <time>2019-03-30T14:31:46Z</time>
      </trkpt>
      <trkpt lat="49.27551" lon="3.99605">
        <ele>124</ele>
        <time>2019-03-30T14:31:47Z</time>
      </trkpt>
      <trkpt lat="49.27547" lon="3.99606">
        <ele>124</ele>
        <time>2019-03-30T14:31:48Z</time>
      </trkpt>
      <trkpt lat="49.27543" lon="3.99606">
        <ele>124</ele>
        <time>2019-03-30T14:31:49Z</time>
      </trkpt>
      <trkpt lat="49.27539" lon="3.99606">
        <ele>123</ele>
        <time>2019-03-30T14:31:50Z</time>
      </trkpt>
      <trkpt lat="49.27535" lon="3.99607">
        <ele>123</ele>
        <time>2019-03-30T14:31:51Z</time>
      </trkpt>
      <trkpt lat="49.27531" lon="3.99608">
        <ele>123</ele>
        <time>2019-03-30T14:31:52Z</time>
      </trkpt>
      <trkpt lat="49.27527" lon="3.99608">
        <ele>123</ele>
        <time>2019-03-30T14:31:53Z</time>
      </trkpt>
      <trkpt lat="49.27523" lon="3.99609">
        <ele>123</ele>
        <time>2019-03-30T14:31:54Z</time>
      </trkpt>
      <trkpt lat="49.27519" lon="3.99609">
        <ele>123</ele>
        <time>2019-03-30T14:31:55Z</time>
      </trkpt>
      <trkpt lat="49.27515" lon="3.9961">
        <ele>122</ele>
        <time>2019-03-30T14:31:56Z</time>
      </trkpt>
      <trkpt lat="49.27511" lon="3.99611">
        <ele>122</ele>
        <time>2019-03-30T14:31:57Z</time>
      </trkpt>
      <trkpt lat="49.27507" lon="3.99611">
        <ele>122</ele>
        <time>2019-03-30T14:31:58Z</time>
      </trkpt>
      <trkpt lat="49.27503" lon="3.99612">
        <ele>121</ele>
        <time>2019-03-30T14:31:59Z</time>
      </trkpt>
      <trkpt lat="49.27498" lon="3.99612">
        <ele>121</ele>
        <time>2019-03-30T14:32:00Z</time>
      </trkpt>
      <trkpt lat="49.27494" lon="3.99613">
        <ele>121</ele>
        <time>2019-03-30T14:32:01Z</time>
      </trkpt>
      <trkpt lat="49.2749" lon="3.99613">
        <ele>121</ele>
        <time>2019-03-30T14:32:02Z</time>
      </trkpt>
      <trkpt lat="49.27486" lon="3.99614">
        <ele>121</ele>
        <time>2019-03-30T14:32:03Z</time>
      </trkpt>
      <trkpt lat="49.27481" lon="3.99614">
        <ele>121</ele>
        <time>2019-03-30T14:32:04Z</time>
      </trkpt>
      <trkpt lat="49.27477" lon="3.99614">
        <ele>121</ele>
        <time>2019-03-30T14:32:05Z</time>
      </trkpt>
      <trkpt lat="49.27473" lon="3.99615">
        <ele>121</ele>
        <time>2019-03-30T14:32:06Z</time>
      </trkpt>
      <trkpt lat="49.27468" lon="3.99615">
        <ele>121</ele>
        <time>2019-03-30T14:32:07Z</time>
      </trkpt>
      <trkpt lat="49.27463" lon="3.99616">
        <ele>120</ele>
        <time>2019-03-30T14:32:08Z</time>
      </trkpt>
      <trkpt lat="49.27459" lon="3.99617">
        <ele>120</ele>
        <time>2019-03-30T14:32:09Z</time>
      </trkpt>
      <trkpt lat="49.27454" lon="3.99617">
        <ele>120</ele>
        <time>2019-03-30T14:32:10Z</time>
      </trkpt>
      <trkpt lat="49.27449" lon="3.99617">
        <ele>120</ele>
        <time>2019-03-30T14:32:11Z</time>
      </trkpt>
      <trkpt lat="49.27445" lon="3.99618">
        <ele>120</ele>
        <time>2019-03-30T14:32:12Z</time>
      </trkpt>
      <trkpt lat="49.2744" lon="3.99618">
        <ele>120</ele>
        <time>2019-03-30T14:32:13Z</time>
      </trkpt>
      <trkpt lat="49.27436" lon="3.99619">
        <ele>120</ele>
        <time>2019-03-30T14:32:14Z</time>
      </trkpt>
      <trkpt lat="49.27431" lon="3.9962">
        <ele>120</ele>
        <time>2019-03-30T14:32:15Z</time>
      </trkpt>
      <trkpt lat="49.27426" lon="3.9962">
        <ele>120</ele>
        <time>2019-03-30T14:32:16Z</time>
      </trkpt>
      <trkpt lat="49.27421" lon="3.9962">
        <ele>120</ele>
        <time>2019-03-30T14:32:17Z</time>
      </trkpt>
      <trkpt lat="49.27417" lon="3.99621">
        <ele>120</ele>
        <time>2019-03-30T14:32:18Z</time>
      </trkpt>
      <trkpt lat="49.27412" lon="3.99621">
        <ele>119</ele>
        <time>2019-03-30T14:32:19Z</time>
      </trkpt>
      <trkpt lat="49.27407" lon="3.99622">
        <ele>120</ele>
        <time>2019-03-30T14:32:20Z</time>
      </trkpt>
      <trkpt lat="49.27402" lon="3.99622">
        <ele>120</ele>
        <time>2019-03-30T14:32:21Z</time>
      </trkpt>
      <trkpt lat="49.27397" lon="3.99622">
        <ele>120</ele>
        <time>2019-03-30T14:32:22Z</time>
      </trkpt>
      <trkpt lat="49.27392" lon="3.99623">
        <ele>120</ele>
        <time>2019-03-30T14:32:23Z</time>
      </trkpt>
      <trkpt lat="49.27387" lon="3.99624">
        <ele>119</ele>
        <time>2019-03-30T14:32:24Z</time>
      </trkpt>
      <trkpt lat="49.27382" lon="3.99624">
        <ele>119</ele>
        <time>2019-03-30T14:32:25Z</time>
      </trkpt>
      <trkpt lat="49.27377" lon="3.99625">
        <ele>119</ele>
        <time>2019-03-30T14:32:26Z</time>
      </trkpt>
      <trkpt lat="49.27371" lon="3.99626">
        <ele>119</ele>
        <time>2019-03-30T14:32:27Z</time>
      </trkpt>
      <trkpt lat="49.27366" lon="3.99626">
        <ele>119</ele>
        <time>2019-03-30T14:32:28Z</time>
      </trkpt>
      <trkpt lat="49.27362" lon="3.99627">
        <ele>119</ele>
        <time>2019-03-30T14:32:29Z</time>
      </trkpt>
      <trkpt lat="49.27357" lon="3.99628">
        <ele>119</ele>
        <time>2019-03-30T14:32:30Z</time>
      </trkpt>
      <trkpt lat="49.27353" lon="3.99629">
        <ele>120</ele>
        <time>2019-03-30T14:32:31Z</time>
      </trkpt>
      <trkpt lat="49.27349" lon="3.99629">
        <ele>120</ele>
        <time>2019-03-30T14:32:32Z</time>
      </trkpt>
      <trkpt lat="49.27345" lon="3.9963">
        <ele>120</ele>
        <time>2019-03-30T14:32:33Z</time>
      </trkpt>
      <trkpt lat="49.2734" lon="3.9963">
        <ele>120</ele>
        <time>2019-03-30T14:32:34Z</time>
      </trkpt>
      <trkpt lat="49.27335" lon="3.9963">
        <ele>120</ele>
        <time>2019-03-30T14:32:35Z</time>
      </trkpt>
      <trkpt lat="49.27331" lon="3.99631">
        <ele>120</ele>
        <time>2019-03-30T14:32:36Z</time>
      </trkpt>
      <trkpt lat="49.27327" lon="3.99634">
        <ele>120</ele>
        <time>2019-03-30T14:32:37Z</time>
      </trkpt>
      <trkpt lat="49.27323" lon="3.99638">
        <ele>120</ele>
        <time>2019-03-30T14:32:38Z</time>
      </trkpt>
      <trkpt lat="49.27319" lon="3.99642">
        <ele>120</ele>
        <time>2019-03-30T14:32:39Z</time>
      </trkpt>
      <trkpt lat="49.27315" lon="3.99646">
        <ele>120</ele>
        <time>2019-03-30T14:32:40Z</time>
      </trkpt>
      <trkpt lat="49.27311" lon="3.9965">
        <ele>120</ele>
        <time>2019-03-30T14:32:41Z</time>
      </trkpt>
      <trkpt lat="49.27306" lon="3.99654">
        <ele>120</ele>
        <time>2019-03-30T14:32:42Z</time>
      </trkpt>
      <trkpt lat="49.27302" lon="3.99659">
        <ele>120</ele>
        <time>2019-03-30T14:32:43Z</time>
      </trkpt>
      <trkpt lat="49.27297" lon="3.99663">
        <ele>121</ele>
        <time>2019-03-30T14:32:44Z</time>
      </trkpt>
      <trkpt lat="49.27293" lon="3.99666">
        <ele>121</ele>
        <time>2019-03-30T14:32:45Z</time>
      </trkpt>
      <trkpt lat="49.27288" lon="3.9967">
        <ele>121</ele>
        <time>2019-03-30T14:32:46Z</time>
      </trkpt>
      <trkpt lat="49.27283" lon="3.99674">
        <ele>121</ele>
        <time>2019-03-30T14:32:47Z</time>
      </trkpt>
      <trkpt lat="49.27278" lon="3.99677">
        <ele>120</ele>
        <time>2019-03-30T14:32:48Z</time>
      </trkpt>
      <trkpt lat="49.27273" lon="3.9968">
        <ele>120</ele>
        <time>2019-03-30T14:32:49Z</time>
      </trkpt>
      <trkpt lat="49.27268" lon="3.99681">
        <ele>120</ele>
        <time>2019-03-30T14:32:50Z</time>
      </trkpt>
      <trkpt lat="49.27263" lon="3.99682">
        <ele>120</ele>
        <time>2019-03-30T14:32:51Z</time>
      </trkpt>
      <trkpt lat="49.27258" lon="3.99683">
        <ele>120</ele>
        <time>2019-03-30T14:32:52Z</time>
      </trkpt>
      <trkpt lat="49.27253" lon="3.99683">
        <ele>120</ele>
        <time>2019-03-30T14:32:53Z</time>
      </trkpt>
      <trkpt lat="49.27249" lon="3.99684">
        <ele>121</ele>
        <time>2019-03-30T14:32:54Z</time>
      </trkpt>
      <trkpt lat="49.27244" lon="3.99685">
        <ele>121</ele>
        <time>2019-03-30T14:32:55Z</time>
      </trkpt>
      <trkpt lat="49.2724" lon="3.99685">
        <ele>121</ele>
        <time>2019-03-30T14:32:56Z</time>
      </trkpt>
      <trkpt lat="49.27235" lon="3.99686">
        <ele>121</ele>
        <time>2019-03-30T14:32:57Z</time>
      </trkpt>
      <trkpt lat="49.2723" lon="3.99688">
        <ele>121</ele>
        <time>2019-03-30T14:32:58Z</time>
      </trkpt>
      <trkpt lat="49.27225" lon="3.99689">
        <ele>122</ele>
        <time>2019-03-30T14:32:59Z</time>
      </trkpt>
      <trkpt lat="49.2722" lon="3.99689">
        <ele>122</ele>
        <time>2019-03-30T14:33:00Z</time>
      </trkpt>
      <trkpt lat="49.27214" lon="3.9969">
        <ele>122</ele>
        <time>2019-03-30T14:33:01Z</time>
      </trkpt>
      <trkpt lat="49.2721" lon="3.9969">
        <ele>122</ele>
        <time>2019-03-30T14:33:02Z</time>
      </trkpt>
      <trkpt lat="49.27205" lon="3.9969">
        <ele>122</ele>
        <time>2019-03-30T14:33:03Z</time>
      </trkpt>
      <trkpt lat="49.27199" lon="3.9969">
        <ele>122</ele>
        <time>2019-03-30T14:33:04Z</time>
      </trkpt>
      <trkpt lat="49.27194" lon="3.99691">
        <ele>122</ele>
        <time>2019-03-30T14:33:05Z</time>
      </trkpt>
      <trkpt lat="49.27189" lon="3.99692">
        <ele>122</ele>
        <time>2019-03-30T14:33:06Z</time>
      </trkpt>
      <trkpt lat="49.27184" lon="3.99693">
        <ele>122</ele>
        <time>2019-03-30T14:33:07Z</time>
      </trkpt>
      <trkpt lat="49.27178" lon="3.99693">
        <ele>122</ele>
        <time>2019-03-30T14:33:08Z</time>
      </trkpt>
      <trkpt lat="49.27173" lon="3.99694">
        <ele>122</ele>
        <time>2019-03-30T14:33:09Z</time>
      </trkpt>
      <trkpt lat="49.27167" lon="3.99694">
        <ele>122</ele>
        <time>2019-03-30T14:33:10Z</time>
      </trkpt>
      <trkpt lat="49.27162" lon="3.99695">
        <ele>122</ele>
        <time>2019-03-30T14:33:11Z</time>
      </trkpt>
      <trkpt lat="49.27157" lon="3.99696">
        <ele>122</ele>
        <time>2019-03-30T14:33:12Z</time>
      </trkpt>
      <trkpt lat="49.27152" lon="3.99697">
        <ele>122</ele>
        <time>2019-03-30T14:33:13Z</time>
      </trkpt>
      <trkpt lat="49.27146" lon="3.99698">
        <ele>121</ele>
        <time>2019-03-30T14:33:14Z</time>
      </trkpt>
      <trkpt lat="49.27141" lon="3.99697">
        <ele>121</ele>
        <time>2019-03-30T14:33:15Z</time>
      </trkpt>
      <trkpt lat="49.27136" lon="3.99696">
        <ele>120</ele>
        <time>2019-03-30T14:33:16Z</time>
      </trkpt>
      <trkpt lat="49.27131" lon="3.99697">
        <ele>120</ele>
        <time>2019-03-30T14:33:17Z</time>
      </trkpt>
      <trkpt lat="49.27126" lon="3.99697">
        <ele>121</ele>
        <time>2019-03-30T14:33:18Z</time>
      </trkpt>
      <trkpt lat="49.27122" lon="3.99698">
        <ele>120</ele>
        <time>2019-03-30T14:33:19Z</time>
      </trkpt>
      <trkpt lat="49.27117" lon="3.99698">
        <ele>120</ele>
        <time>2019-03-30T14:33:20Z</time>
      </trkpt>
      <trkpt lat="49.27113" lon="3.99698">
        <ele>120</ele>
        <time>2019-03-30T14:33:21Z</time>
      </trkpt>
      <trkpt lat="49.27109" lon="3.99699">
        <ele>121</ele>
        <time>2019-03-30T14:33:22Z</time>
      </trkpt>
      <trkpt lat="49.27105" lon="3.997">
        <ele>121</ele>
        <time>2019-03-30T14:33:23Z</time>
      </trkpt>
      <trkpt lat="49.27101" lon="3.99701">
        <ele>120</ele>
        <time>2019-03-30T14:33:24Z</time>
      </trkpt>
      <trkpt lat="49.27099" lon="3.99701">
        <ele>121</ele>
        <time>2019-03-30T14:33:25Z</time>
      </trkpt>
      <trkpt lat="49.27097" lon="3.99701">
        <ele>121</ele>
        <time>2019-03-30T14:33:26Z</time>
      </trkpt>
      <trkpt lat="49.27095" lon="3.99701">
        <ele>121</ele>
        <time>2019-03-30T14:33:27Z</time>
      </trkpt>
      <trkpt lat="49.27093" lon="3.99702">
        <ele>121</ele>
        <time>2019-03-30T14:33:28Z</time>
      </trkpt>
      <trkpt lat="49.27091" lon="3.99704">
        <ele>121</ele>
        <time>2019-03-30T14:33:29Z</time>
      </trkpt>
      <trkpt lat="49.27088" lon="3.99704">
        <ele>121</ele>
        <time>2019-03-30T14:33:30Z</time>
      </trkpt>
      <trkpt lat="49.27085" lon="3.99704">
        <ele>121</ele>
        <time>2019-03-30T14:33:31Z</time>
      </trkpt>
      <trkpt lat="49.27082" lon="3.99704">
        <ele>121</ele>
        <time>2019-03-30T14:33:32Z</time>
      </trkpt>
      <trkpt lat="49.27079" lon="3.99704">
        <ele>121</ele>
        <time>2019-03-30T14:33:33Z</time>
      </trkpt>
      <trkpt lat="49.27076" lon="3.99704">
        <ele>121</ele>
        <time>2019-03-30T14:33:34Z</time>
      </trkpt>
      <trkpt lat="49.27073" lon="3.99704">
        <ele>121</ele>
        <time>2019-03-30T14:33:35Z</time>
      </trkpt>
      <trkpt lat="49.27069" lon="3.99705">
        <ele>121</ele>
        <time>2019-03-30T14:33:36Z</time>
      </trkpt>
      <trkpt lat="49.27066" lon="3.99705">
        <ele>121</ele>
        <time>2019-03-30T14:33:37Z</time>
      </trkpt>
      <trkpt lat="49.27062" lon="3.99706">
        <ele>121</ele>
        <time>2019-03-30T14:33:38Z</time>
      </trkpt>
      <trkpt lat="49.27059" lon="3.99707">
        <ele>121</ele>
        <time>2019-03-30T14:33:39Z</time>
      </trkpt>
      <trkpt lat="49.27055" lon="3.99707">
        <ele>121</ele>
        <time>2019-03-30T14:33:40Z</time>
      </trkpt>
      <trkpt lat="49.27052" lon="3.99707">
        <ele>121</ele>
        <time>2019-03-30T14:33:41Z</time>
      </trkpt>
      <trkpt lat="49.27048" lon="3.99706">
        <ele>120</ele>
        <time>2019-03-30T14:33:42Z</time>
      </trkpt>
      <trkpt lat="49.27044" lon="3.99707">
        <ele>120</ele>
        <time>2019-03-30T14:33:43Z</time>
      </trkpt>
      <trkpt lat="49.2704" lon="3.99707">
        <ele>121</ele>
        <time>2019-03-30T14:33:44Z</time>
      </trkpt>
      <trkpt lat="49.27036" lon="3.99708">
        <ele>121</ele>
        <time>2019-03-30T14:33:45Z</time>
      </trkpt>
      <trkpt lat="49.27032" lon="3.99708">
        <ele>122</ele>
        <time>2019-03-30T14:33:46Z</time>
      </trkpt>
      <trkpt lat="49.27028" lon="3.99709">
        <ele>122</ele>
        <time>2019-03-30T14:33:47Z</time>
      </trkpt>
      <trkpt lat="49.27023" lon="3.9971">
        <ele>122</ele>
        <time>2019-03-30T14:33:48Z</time>
      </trkpt>
      <trkpt lat="49.27018" lon="3.99711">
        <ele>122</ele>
        <time>2019-03-30T14:33:49Z</time>
      </trkpt>
      <trkpt lat="49.27013" lon="3.99711">
        <ele>122</ele>
        <time>2019-03-30T14:33:50Z</time>
      </trkpt>
      <trkpt lat="49.27008" lon="3.99711">
        <ele>122</ele>
        <time>2019-03-30T14:33:51Z</time>
      </trkpt>
      <trkpt lat="49.27003" lon="3.99711">
        <ele>123</ele>
        <time>2019-03-30T14:33:52Z</time>
      </trkpt>
      <trkpt lat="49.26999" lon="3.99711">
        <ele>123</ele>
        <time>2019-03-30T14:33:53Z</time>
      </trkpt>
      <trkpt lat="49.26994" lon="3.99712">
        <ele>123</ele>
        <time>2019-03-30T14:33:54Z</time>
      </trkpt>
      <trkpt lat="49.26989" lon="3.99713">
        <ele>123</ele>
        <time>2019-03-30T14:33:55Z</time>
      </trkpt>
      <trkpt lat="49.26984" lon="3.99713">
        <ele>122</ele>
        <time>2019-03-30T14:33:56Z</time>
      </trkpt>
      <trkpt lat="49.26979" lon="3.99713">
        <ele>122</ele>
        <time>2019-03-30T14:33:57Z</time>
      </trkpt>
      <trkpt lat="49.26974" lon="3.99714">
        <ele>122</ele>
        <time>2019-03-30T14:33:58Z</time>
      </trkpt>
      <trkpt lat="49.26969" lon="3.99714">
        <ele>121</ele>
        <time>2019-03-30T14:33:59Z</time>
      </trkpt>
      <trkpt lat="49.26965" lon="3.99715">
        <ele>121</ele>
        <time>2019-03-30T14:34:00Z</time>
      </trkpt>
      <trkpt lat="49.2696" lon="3.99715">
        <ele>121</ele>
        <time>2019-03-30T14:34:01Z</time>
      </trkpt>
      <trkpt lat="49.26955" lon="3.99716">
        <ele>121</ele>
        <time>2019-03-30T14:34:02Z</time>
      </trkpt>
      <trkpt lat="49.2695" lon="3.99716">
        <ele>121</ele>
        <time>2019-03-30T14:34:03Z</time>
      </trkpt>
      <trkpt lat="49.26946" lon="3.99716">
        <ele>121</ele>
        <time>2019-03-30T14:34:04Z</time>
      </trkpt>
      <trkpt lat="49.26942" lon="3.99717">
        <ele>121</ele>
        <time>2019-03-30T14:34:05Z</time>
      </trkpt>
      <trkpt lat="49.26937" lon="3.99718">
        <ele>121</ele>
        <time>2019-03-30T14:34:06Z</time>
      </trkpt>
      <trkpt lat="49.26933" lon="3.99719">
        <ele>121</ele>
        <time>2019-03-30T14:34:07Z</time>
      </trkpt>
      <trkpt lat="49.26928" lon="3.99719">
        <ele>121</ele>
        <time>2019-03-30T14:34:08Z</time>
      </trkpt>
      <trkpt lat="49.26923" lon="3.99719">
        <ele>121</ele>
        <time>2019-03-30T14:34:09Z</time>
      </trkpt>
      <trkpt lat="49.26918" lon="3.9972">
        <ele>121</ele>
        <time>2019-03-30T14:34:10Z</time>
      </trkpt>
      <trkpt lat="49.26913" lon="3.9972">
        <ele>121</ele>
        <time>2019-03-30T14:34:11Z</time>
      </trkpt>
      <trkpt lat="49.26909" lon="3.9972">
        <ele>120</ele>
        <time>2019-03-30T14:34:12Z</time>
      </trkpt>
      <trkpt lat="49.26904" lon="3.99721">
        <ele>120</ele>
        <time>2019-03-30T14:34:13Z</time>
      </trkpt>
      <trkpt lat="49.269" lon="3.99722">
        <ele>120</ele>
        <time>2019-03-30T14:34:14Z</time>
      </trkpt>
      <trkpt lat="49.26895" lon="3.99723">
        <ele>120</ele>
        <time>2019-03-30T14:34:15Z</time>
      </trkpt>
      <trkpt lat="49.2689" lon="3.99723">
        <ele>121</ele>
        <time>2019-03-30T14:34:16Z</time>
      </trkpt>
      <trkpt lat="49.26885" lon="3.99723">
        <ele>120</ele>
        <time>2019-03-30T14:34:17Z</time>
      </trkpt>
      <trkpt lat="49.26881" lon="3.99724">
        <ele>120</ele>
        <time>2019-03-30T14:34:18Z</time>
      </trkpt>
      <trkpt lat="49.26877" lon="3.99725">
        <ele>120</ele>
        <time>2019-03-30T14:34:19Z</time>
      </trkpt>
      <trkpt lat="49.26872" lon="3.99726">
        <ele>120</ele>
        <time>2019-03-30T14:34:20Z</time>
      </trkpt>
      <trkpt lat="49.26868" lon="3.99726">
        <ele>120</ele>
        <time>2019-03-30T14:34:21Z</time>
      </trkpt>
      <trkpt lat="49.26863" lon="3.99727">
        <ele>121</ele>
        <time>2019-03-30T14:34:22Z</time>
      </trkpt>
      <trkpt lat="49.26859" lon="3.99728">
        <ele>121</ele>
        <time>2019-03-30T14:34:23Z</time>
      </trkpt>
      <trkpt lat="49.26855" lon="3.99728">
        <ele>121</ele>
        <time>2019-03-30T14:34:24Z</time>
      </trkpt>
      <trkpt lat="49.2685" lon="3.99729">
        <ele>121</ele>
        <time>2019-03-30T14:34:25Z</time>
      </trkpt>
      <trkpt lat="49.26846" lon="3.9973">
        <ele>121</ele>
        <time>2019-03-30T14:34:26Z</time>
      </trkpt>
      <trkpt lat="49.26841" lon="3.99732">
        <ele>120</ele>
        <time>2019-03-30T14:34:27Z</time>
      </trkpt>
      <trkpt lat="49.26836" lon="3.99733">
        <ele>120</ele>
        <time>2019-03-30T14:34:28Z</time>
      </trkpt>
      <trkpt lat="49.26831" lon="3.99734">
        <ele>120</ele>
        <time>2019-03-30T14:34:29Z</time>
      </trkpt>
      <trkpt lat="49.26825" lon="3.99734">
        <ele>121</ele>
        <time>2019-03-30T14:34:30Z</time>
      </trkpt>
      <trkpt lat="49.2682" lon="3.99734">
        <ele>120</ele>
        <time>2019-03-30T14:34:31Z</time>
      </trkpt>
      <trkpt lat="49.26815" lon="3.99735">
        <ele>121</ele>
        <time>2019-03-30T14:34:32Z</time>
      </trkpt>
      <trkpt lat="49.2681" lon="3.99735">
        <ele>120</ele>
        <time>2019-03-30T14:34:33Z</time>
      </trkpt>
      <trkpt lat="49.26806" lon="3.99736">
        <ele>120</ele>
        <time>2019-03-30T14:34:34Z</time>
      </trkpt>
      <trkpt lat="49.26801" lon="3.99736">
        <ele>120</ele>
        <time>2019-03-30T14:34:35Z</time>
      </trkpt>
      <trkpt lat="49.26796" lon="3.99737">
        <ele>119</ele>
        <time>2019-03-30T14:34:36Z</time>
      </trkpt>
      <trkpt lat="49.26791" lon="3.99738">
        <ele>119</ele>
        <time>2019-03-30T14:34:37Z</time>
      </trkpt>
      <trkpt lat="49.26786" lon="3.99738">
        <ele>120</ele>
        <time>2019-03-30T14:34:38Z</time>
      </trkpt>
      <trkpt lat="49.26776" lon="3.9974">
        <ele>120</ele>
        <time>2019-03-30T14:34:40Z</time>
      </trkpt>
      <trkpt lat="49.26771" lon="3.99742">
        <ele>120</ele>
        <time>2019-03-30T14:34:41Z</time>
      </trkpt>
      <trkpt lat="49.26766" lon="3.99743">
        <ele>120</ele>
        <time>2019-03-30T14:34:42Z</time>
      </trkpt>
      <trkpt lat="49.26761" lon="3.99744">
        <ele>120</ele>
        <time>2019-03-30T14:34:43Z</time>
      </trkpt>
      <trkpt lat="49.26756" lon="3.99745">
        <ele>120</ele>
        <time>2019-03-30T14:34:44Z</time>
      </trkpt>
      <trkpt lat="49.26751" lon="3.99747">
        <ele>120</ele>
        <time>2019-03-30T14:34:45Z</time>
      </trkpt>
      <trkpt lat="49.26747" lon="3.99748">
        <ele>120</ele>
        <time>2019-03-30T14:34:46Z</time>
      </trkpt>
      <trkpt lat="49.26742" lon="3.9975">
        <ele>120</ele>
        <time>2019-03-30T14:34:47Z</time>
      </trkpt>
      <trkpt lat="49.26737" lon="3.99751">
        <ele>120</ele>
        <time>2019-03-30T14:34:48Z</time>
      </trkpt>
      <trkpt lat="49.26733" lon="3.99754">
        <ele>120</ele>
        <time>2019-03-30T14:34:49Z</time>
      </trkpt>
      <trkpt lat="49.26729" lon="3.99755">
        <ele>120</ele>
        <time>2019-03-30T14:34:50Z</time>
      </trkpt>
      <trkpt lat="49.26725" lon="3.99757">
        <ele>120</ele>
        <time>2019-03-30T14:34:51Z</time>
      </trkpt>
      <trkpt lat="49.26718" lon="3.9976">
        <ele>122</ele>
        <time>2019-03-30T14:34:53Z</time>
      </trkpt>
      <trkpt lat="49.26714" lon="3.99762">
        <ele>122</ele>
        <time>2019-03-30T14:34:54Z</time>
      </trkpt>
      <trkpt lat="49.2671" lon="3.99764">
        <ele>122</ele>
        <time>2019-03-30T14:34:55Z</time>
      </trkpt>
      <trkpt lat="49.26706" lon="3.99766">
        <ele>122</ele>
        <time>2019-03-30T14:34:56Z</time>
      </trkpt>
      <trkpt lat="49.26702" lon="3.99768">
        <ele>123</ele>
        <time>2019-03-30T14:34:57Z</time>
      </trkpt>
      <trkpt lat="49.26698" lon="3.9977">
        <ele>122</ele>
        <time>2019-03-30T14:34:58Z</time>
      </trkpt>
      <trkpt lat="49.26693" lon="3.99773">
        <ele>122</ele>
        <time>2019-03-30T14:34:59Z</time>
      </trkpt>
      <trkpt lat="49.26688" lon="3.99776">
        <ele>122</ele>
        <time>2019-03-30T14:35:00Z</time>
      </trkpt>
      <trkpt lat="49.26683" lon="3.99778">
        <ele>121</ele>
        <time>2019-03-30T14:35:01Z</time>
      </trkpt>
      <trkpt lat="49.26678" lon="3.99781">
        <ele>121</ele>
        <time>2019-03-30T14:35:02Z</time>
      </trkpt>
      <trkpt lat="49.26674" lon="3.99785">
        <ele>121</ele>
        <time>2019-03-30T14:35:03Z</time>
      </trkpt>
      <trkpt lat="49.26669" lon="3.99789">
        <ele>121</ele>
        <time>2019-03-30T14:35:04Z</time>
      </trkpt>
      <trkpt lat="49.26665" lon="3.99792">
        <ele>121</ele>
        <time>2019-03-30T14:35:05Z</time>
      </trkpt>
      <trkpt lat="49.2666" lon="3.99796">
        <ele>121</ele>
        <time>2019-03-30T14:35:06Z</time>
      </trkpt>
      <trkpt lat="49.26655" lon="3.998">
        <ele>121</ele>
        <time>2019-03-30T14:35:07Z</time>
      </trkpt>
      <trkpt lat="49.2665" lon="3.99803">
        <ele>121</ele>
        <time>2019-03-30T14:35:08Z</time>
      </trkpt>
      <trkpt lat="49.26645" lon="3.99807">
        <ele>120</ele>
        <time>2019-03-30T14:35:09Z</time>
      </trkpt>
      <trkpt lat="49.26641" lon="3.9981">
        <ele>120</ele>
        <time>2019-03-30T14:35:10Z</time>
      </trkpt>
      <trkpt lat="49.26636" lon="3.99813">
        <ele>120</ele>
        <time>2019-03-30T14:35:11Z</time>
      </trkpt>
      <trkpt lat="49.26632" lon="3.99816">
        <ele>120</ele>
        <time>2019-03-30T14:35:12Z</time>
      </trkpt>
      <trkpt lat="49.26627" lon="3.99819">
        <ele>120</ele>
        <time>2019-03-30T14:35:13Z</time>
      </trkpt>
      <trkpt lat="49.26623" lon="3.99822">
        <ele>120</ele>
        <time>2019-03-30T14:35:14Z</time>
      </trkpt>
      <trkpt lat="49.26619" lon="3.99826">
        <ele>120</ele>
        <time>2019-03-30T14:35:15Z</time>
      </trkpt>
      <trkpt lat="49.26615" lon="3.99829">
        <ele>120</ele>
        <time>2019-03-30T14:35:16Z</time>
      </trkpt>
      <trkpt lat="49.26611" lon="3.99832">
        <ele>120</ele>
        <time>2019-03-30T14:35:17Z</time>
      </trkpt>
      <trkpt lat="49.26608" lon="3.99834">
        <ele>120</ele>
        <time>2019-03-30T14:35:18Z</time>
      </trkpt>
      <trkpt lat="49.26605" lon="3.99837">
        <ele>120</ele>
        <time>2019-03-30T14:35:19Z</time>
      </trkpt>
      <trkpt lat="49.26603" lon="3.9984">
        <ele>121</ele>
        <time>2019-03-30T14:35:20Z</time>
      </trkpt>
      <trkpt lat="49.266" lon="3.99843">
        <ele>121</ele>
        <time>2019-03-30T14:35:21Z</time>
      </trkpt>
      <trkpt lat="49.26596" lon="3.99846">
        <ele>121</ele>
        <time>2019-03-30T14:35:22Z</time>
      </trkpt>
      <trkpt lat="49.26592" lon="3.99849">
        <ele>121</ele>
        <time>2019-03-30T14:35:23Z</time>
      </trkpt>
      <trkpt lat="49.26588" lon="3.99853">
        <ele>122</ele>
        <time>2019-03-30T14:35:24Z</time>
      </trkpt>
      <trkpt lat="49.26584" lon="3.99857">
        <ele>122</ele>
        <time>2019-03-30T14:35:25Z</time>
      </trkpt>
      <trkpt lat="49.2658" lon="3.99861">
        <ele>122</ele>
        <time>2019-03-30T14:35:26Z</time>
      </trkpt>
      <trkpt lat="49.26576" lon="3.99866">
        <ele>122</ele>
        <time>2019-03-30T14:35:27Z</time>
      </trkpt>
      <trkpt lat="49.26571" lon="3.9987">
        <ele>123</ele>
        <time>2019-03-30T14:35:28Z</time>
      </trkpt>
      <trkpt lat="49.26567" lon="3.99874">
        <ele>123</ele>
        <time>2019-03-30T14:35:29Z</time>
      </trkpt>
      <trkpt lat="49.26562" lon="3.99879">
        <ele>123</ele>
        <time>2019-03-30T14:35:30Z</time>
      </trkpt>
      <trkpt lat="49.26557" lon="3.99884">
        <ele>123</ele>
        <time>2019-03-30T14:35:31Z</time>
      </trkpt>
      <trkpt lat="49.26553" lon="3.99889">
        <ele>124</ele>
        <time>2019-03-30T14:35:32Z</time>
      </trkpt>
      <trkpt lat="49.26549" lon="3.99894">
        <ele>123</ele>
        <time>2019-03-30T14:35:33Z</time>
      </trkpt>
      <trkpt lat="49.26544" lon="3.99898">
        <ele>124</ele>
        <time>2019-03-30T14:35:34Z</time>
      </trkpt>
      <trkpt lat="49.2654" lon="3.99903">
        <ele>124</ele>
        <time>2019-03-30T14:35:35Z</time>
      </trkpt>
      <trkpt lat="49.26535" lon="3.99908">
        <ele>124</ele>
        <time>2019-03-30T14:35:36Z</time>
      </trkpt>
      <trkpt lat="49.26531" lon="3.99913">
        <ele>124</ele>
        <time>2019-03-30T14:35:37Z</time>
      </trkpt>
      <trkpt lat="49.26527" lon="3.99919">
        <ele>124</ele>
        <time>2019-03-30T14:35:38Z</time>
      </trkpt>
      <trkpt lat="49.26523" lon="3.99924">
        <ele>125</ele>
        <time>2019-03-30T14:35:39Z</time>
      </trkpt>
      <trkpt lat="49.26519" lon="3.99929">
        <ele>125</ele>
        <time>2019-03-30T14:35:40Z</time>
      </trkpt>
      <trkpt lat="49.26516" lon="3.99934">
        <ele>125</ele>
        <time>2019-03-30T14:35:41Z</time>
      </trkpt>
      <trkpt lat="49.2651" lon="3.99945">
        <ele>125</ele>
        <time>2019-03-30T14:35:43Z</time>
      </trkpt>
      <trkpt lat="49.26506" lon="3.99949">
        <ele>125</ele>
        <time>2019-03-30T14:35:44Z</time>
      </trkpt>
      <trkpt lat="49.26503" lon="3.99955">
        <ele>125</ele>
        <time>2019-03-30T14:35:45Z</time>
      </trkpt>
      <trkpt lat="49.26499" lon="3.9996">
        <ele>125</ele>
        <time>2019-03-30T14:35:46Z</time>
      </trkpt>
      <trkpt lat="49.26496" lon="3.99966">
        <ele>124</ele>
        <time>2019-03-30T14:35:47Z</time>
      </trkpt>
      <trkpt lat="49.26493" lon="3.99972">
        <ele>124</ele>
        <time>2019-03-30T14:35:48Z</time>
      </trkpt>
      <trkpt lat="49.2649" lon="3.99978">
        <ele>124</ele>
        <time>2019-03-30T14:35:49Z</time>
      </trkpt>
      <trkpt lat="49.26487" lon="3.99982">
        <ele>124</ele>
        <time>2019-03-30T14:35:50Z</time>
      </trkpt>
      <trkpt lat="49.26484" lon="3.99987">
        <ele>124</ele>
        <time>2019-03-30T14:35:51Z</time>
      </trkpt>
      <trkpt lat="49.26481" lon="3.99992">
        <ele>123</ele>
        <time>2019-03-30T14:35:52Z</time>
      </trkpt>
      <trkpt lat="49.26478" lon="3.99998">
        <ele>123</ele>
        <time>2019-03-30T14:35:53Z</time>
      </trkpt>
      <trkpt lat="49.26475" lon="4.00003">
        <ele>123</ele>
        <time>2019-03-30T14:35:54Z</time>
      </trkpt>
      <trkpt lat="49.26472" lon="4.00009">
        <ele>123</ele>
        <time>2019-03-30T14:35:55Z</time>
      </trkpt>
      <trkpt lat="49.26468" lon="4.00014">
        <ele>123</ele>
        <time>2019-03-30T14:35:56Z</time>
      </trkpt>
      <trkpt lat="49.26465" lon="4.0002">
        <ele>123</ele>
        <time>2019-03-30T14:35:57Z</time>
      </trkpt>
      <trkpt lat="49.26462" lon="4.00025">
        <ele>123</ele>
        <time>2019-03-30T14:35:58Z</time>
      </trkpt>
      <trkpt lat="49.26459" lon="4.0003">
        <ele>123</ele>
        <time>2019-03-30T14:35:59Z</time>
      </trkpt>
      <trkpt lat="49.26456" lon="4.00035">
        <ele>124</ele>
        <time>2019-03-30T14:36:00Z</time>
      </trkpt>
      <trkpt lat="49.26453" lon="4.0004">
        <ele>124</ele>
        <time>2019-03-30T14:36:01Z</time>
      </trkpt>
      <trkpt lat="49.2645" lon="4.00045">
        <ele>124</ele>
        <time>2019-03-30T14:36:02Z</time>
      </trkpt>
      <trkpt lat="49.26447" lon="4.00049">
        <ele>124</ele>
        <time>2019-03-30T14:36:03Z</time>
      </trkpt>
      <trkpt lat="49.26443" lon="4.00054">
        <ele>123</ele>
        <time>2019-03-30T14:36:04Z</time>
      </trkpt>
      <trkpt lat="49.2644" lon="4.0006">
        <ele>123</ele>
        <time>2019-03-30T14:36:05Z</time>
      </trkpt>
      <trkpt lat="49.26436" lon="4.00064">
        <ele>123</ele>
        <time>2019-03-30T14:36:06Z</time>
      </trkpt>
      <trkpt lat="49.26433" lon="4.00069">
        <ele>123</ele>
        <time>2019-03-30T14:36:07Z</time>
      </trkpt>
      <trkpt lat="49.2643" lon="4.00075">
        <ele>122</ele>
        <time>2019-03-30T14:36:08Z</time>
      </trkpt>
      <trkpt lat="49.26427" lon="4.0008">
        <ele>122</ele>
        <time>2019-03-30T14:36:09Z</time>
      </trkpt>
      <trkpt lat="49.26424" lon="4.00086">
        <ele>122</ele>
        <time>2019-03-30T14:36:10Z</time>
      </trkpt>
      <trkpt lat="49.2642" lon="4.00091">
        <ele>121</ele>
        <time>2019-03-30T14:36:11Z</time>
      </trkpt>
      <trkpt lat="49.26417" lon="4.00096">
        <ele>121</ele>
        <time>2019-03-30T14:36:12Z</time>
      </trkpt>
      <trkpt lat="49.26414" lon="4.00101">
        <ele>121</ele>
        <time>2019-03-30T14:36:13Z</time>
      </trkpt>
      <trkpt lat="49.26411" lon="4.00107">
        <ele>121</ele>
        <time>2019-03-30T14:36:14Z</time>
      </trkpt>
      <trkpt lat="49.26407" lon="4.00113">
        <ele>121</ele>
        <time>2019-03-30T14:36:15Z</time>
      </trkpt>
      <trkpt lat="49.26403" lon="4.00118">
        <ele>121</ele>
        <time>2019-03-30T14:36:16Z</time>
      </trkpt>
      <trkpt lat="49.264" lon="4.00123">
        <ele>121</ele>
        <time>2019-03-30T14:36:17Z</time>
      </trkpt>
      <trkpt lat="49.26396" lon="4.00128">
        <ele>121</ele>
        <time>2019-03-30T14:36:18Z</time>
      </trkpt>
      <trkpt lat="49.26393" lon="4.00135">
        <ele>121</ele>
        <time>2019-03-30T14:36:19Z</time>
      </trkpt>
      <trkpt lat="49.26389" lon="4.0014">
        <ele>121</ele>
        <time>2019-03-30T14:36:20Z</time>
      </trkpt>
      <trkpt lat="49.26386" lon="4.00146">
        <ele>120</ele>
        <time>2019-03-30T14:36:21Z</time>
      </trkpt>
      <trkpt lat="49.26383" lon="4.00151">
        <ele>120</ele>
        <time>2019-03-30T14:36:22Z</time>
      </trkpt>
      <trkpt lat="49.26379" lon="4.00157">
        <ele>120</ele>
        <time>2019-03-30T14:36:23Z</time>
      </trkpt>
      <trkpt lat="49.26376" lon="4.00161">
        <ele>120</ele>
        <time>2019-03-30T14:36:24Z</time>
      </trkpt>
      <trkpt lat="49.26373" lon="4.00166">
        <ele>120</ele>
        <time>2019-03-30T14:36:25Z</time>
      </trkpt>
      <trkpt lat="49.2637" lon="4.00171">
        <ele>121</ele>
        <time>2019-03-30T14:36:26Z</time>
      </trkpt>
      <trkpt lat="49.26367" lon="4.00175">
        <ele>121</ele>
        <time>2019-03-30T14:36:27Z</time>
      </trkpt>
      <trkpt lat="49.26364" lon="4.0018">
        <ele>121</ele>
        <time>2019-03-30T14:36:28Z</time>
      </trkpt>
      <trkpt lat="49.26361" lon="4.00186">
        <ele>121</ele>
        <time>2019-03-30T14:36:29Z</time>
      </trkpt>
      <trkpt lat="49.26358" lon="4.00191">
        <ele>121</ele>
        <time>2019-03-30T14:36:30Z</time>
      </trkpt>
      <trkpt lat="49.26354" lon="4.00196">
        <ele>121</ele>
        <time>2019-03-30T14:36:31Z</time>
      </trkpt>
      <trkpt lat="49.26351" lon="4.00201">
        <ele>121</ele>
        <time>2019-03-30T14:36:32Z</time>
      </trkpt>
      <trkpt lat="49.26348" lon="4.00207">
        <ele>121</ele>
        <time>2019-03-30T14:36:33Z</time>
      </trkpt>
      <trkpt lat="49.26344" lon="4.00213">
        <ele>121</ele>
        <time>2019-03-30T14:36:34Z</time>
      </trkpt>
      <trkpt lat="49.26341" lon="4.00218">
        <ele>121</ele>
        <time>2019-03-30T14:36:35Z</time>
      </trkpt>
      <trkpt lat="49.26337" lon="4.00224">
        <ele>121</ele>
        <time>2019-03-30T14:36:36Z</time>
      </trkpt>
      <trkpt lat="49.26334" lon="4.00229">
        <ele>121</ele>
        <time>2019-03-30T14:36:37Z</time>
      </trkpt>
      <trkpt lat="49.2633" lon="4.00234">
        <ele>121</ele>
        <time>2019-03-30T14:36:38Z</time>
      </trkpt>
      <trkpt lat="49.26327" lon="4.0024">
        <ele>121</ele>
        <time>2019-03-30T14:36:39Z</time>
      </trkpt>
      <trkpt lat="49.26324" lon="4.00246">
        <ele>121</ele>
        <time>2019-03-30T14:36:40Z</time>
      </trkpt>
      <trkpt lat="49.2632" lon="4.00251">
        <ele>120</ele>
        <time>2019-03-30T14:36:41Z</time>
      </trkpt>
      <trkpt lat="49.26317" lon="4.00256">
        <ele>120</ele>
        <time>2019-03-30T14:36:42Z</time>
      </trkpt>
      <trkpt lat="49.26315" lon="4.00261">
        <ele>120</ele>
        <time>2019-03-30T14:36:43Z</time>
      </trkpt>
      <trkpt lat="49.26312" lon="4.00267">
        <ele>120</ele>
        <time>2019-03-30T14:36:44Z</time>
      </trkpt>
      <trkpt lat="49.26309" lon="4.00272">
        <ele>120</ele>
        <time>2019-03-30T14:36:45Z</time>
      </trkpt>
      <trkpt lat="49.26307" lon="4.00277">
        <ele>120</ele>
        <time>2019-03-30T14:36:46Z</time>
      </trkpt>
      <trkpt lat="49.26304" lon="4.00282">
        <ele>120</ele>
        <time>2019-03-30T14:36:47Z</time>
      </trkpt>
      <trkpt lat="49.26302" lon="4.00287">
        <ele>120</ele>
        <time>2019-03-30T14:36:48Z</time>
      </trkpt>
      <trkpt lat="49.26299" lon="4.00292">
        <ele>120</ele>
        <time>2019-03-30T14:36:49Z</time>
      </trkpt>
      <trkpt lat="49.26297" lon="4.00296">
        <ele>119</ele>
        <time>2019-03-30T14:36:50Z</time>
      </trkpt>
      <trkpt lat="49.26295" lon="4.00299">
        <ele>119</ele>
        <time>2019-03-30T14:36:51Z</time>
      </trkpt>
      <trkpt lat="49.2629" lon="4.00303">
        <ele>120</ele>
        <time>2019-03-30T14:36:52Z</time>
      </trkpt>
      <trkpt lat="49.26286" lon="4.00307">
        <ele>121</ele>
        <time>2019-03-30T14:36:53Z</time>
      </trkpt>
      <trkpt lat="49.26282" lon="4.00311">
        <ele>121</ele>
        <time>2019-03-30T14:36:54Z</time>
      </trkpt>
      <trkpt lat="49.26279" lon="4.00316">
        <ele>121</ele>
        <time>2019-03-30T14:36:55Z</time>
      </trkpt>
      <trkpt lat="49.26277" lon="4.0032">
        <ele>121</ele>
        <time>2019-03-30T14:36:56Z</time>
      </trkpt>
      <trkpt lat="49.26274" lon="4.00325">
        <ele>121</ele>
        <time>2019-03-30T14:36:57Z</time>
      </trkpt>
      <trkpt lat="49.26271" lon="4.0033">
        <ele>120</ele>
        <time>2019-03-30T14:36:58Z</time>
      </trkpt>
      <trkpt lat="49.26269" lon="4.00334">
        <ele>121</ele>
        <time>2019-03-30T14:36:59Z</time>
      </trkpt>
      <trkpt lat="49.26266" lon="4.00339">
        <ele>121</ele>
        <time>2019-03-30T14:37:00Z</time>
      </trkpt>
      <trkpt lat="49.26263" lon="4.00344">
        <ele>121</ele>
        <time>2019-03-30T14:37:01Z</time>
      </trkpt>
      <trkpt lat="49.2626" lon="4.00349">
        <ele>121</ele>
        <time>2019-03-30T14:37:02Z</time>
      </trkpt>
      <trkpt lat="49.26257" lon="4.00353">
        <ele>120</ele>
        <time>2019-03-30T14:37:03Z</time>
      </trkpt>
      <trkpt lat="49.26254" lon="4.00358">
        <ele>120</ele>
        <time>2019-03-30T14:37:04Z</time>
      </trkpt>
      <trkpt lat="49.26251" lon="4.00363">
        <ele>121</ele>
        <time>2019-03-30T14:37:05Z</time>
      </trkpt>
      <trkpt lat="49.26248" lon="4.00368">
        <ele>121</ele>
        <time>2019-03-30T14:37:06Z</time>
      </trkpt>
      <trkpt lat="49.26245" lon="4.00372">
        <ele>121</ele>
        <time>2019-03-30T14:37:07Z</time>
      </trkpt>
      <trkpt lat="49.26242" lon="4.00377">
        <ele>121</ele>
        <time>2019-03-30T14:37:08Z</time>
      </trkpt>
      <trkpt lat="49.26239" lon="4.00381">
        <ele>121</ele>
        <time>2019-03-30T14:37:09Z</time>
      </trkpt>
      <trkpt lat="49.26236" lon="4.00385">
        <ele>121</ele>
        <time>2019-03-30T14:37:10Z</time>
      </trkpt>
      <trkpt lat="49.26234" lon="4.00389">
        <ele>121</ele>
        <time>2019-03-30T14:37:11Z</time>
      </trkpt>
      <trkpt lat="49.26231" lon="4.00393">
        <ele>120</ele>
        <time>2019-03-30T14:37:12Z</time>
      </trkpt>
      <trkpt lat="49.26228" lon="4.00398">
        <ele>120</ele>
        <time>2019-03-30T14:37:13Z</time>
      </trkpt>
      <trkpt lat="49.26225" lon="4.00402">
        <ele>121</ele>
        <time>2019-03-30T14:37:14Z</time>
      </trkpt>
      <trkpt lat="49.26223" lon="4.00406">
        <ele>121</ele>
        <time>2019-03-30T14:37:15Z</time>
      </trkpt>
      <trkpt lat="49.26221" lon="4.0041">
        <ele>121</ele>
        <time>2019-03-30T14:37:16Z</time>
      </trkpt>
      <trkpt lat="49.26218" lon="4.00414">
        <ele>121</ele>
        <time>2019-03-30T14:37:17Z</time>
      </trkpt>
      <trkpt lat="49.26215" lon="4.00418">
        <ele>121</ele>
        <time>2019-03-30T14:37:18Z</time>
      </trkpt>
      <trkpt lat="49.26212" lon="4.00423">
        <ele>121</ele>
        <time>2019-03-30T14:37:19Z</time>
      </trkpt>
      <trkpt lat="49.26209" lon="4.00428">
        <ele>121</ele>
        <time>2019-03-30T14:37:20Z</time>
      </trkpt>
      <trkpt lat="49.26206" lon="4.00433">
        <ele>121</ele>
        <time>2019-03-30T14:37:21Z</time>
      </trkpt>
      <trkpt lat="49.26203" lon="4.00438">
        <ele>122</ele>
        <time>2019-03-30T14:37:22Z</time>
      </trkpt>
      <trkpt lat="49.26199" lon="4.00442">
        <ele>121</ele>
        <time>2019-03-30T14:37:23Z</time>
      </trkpt>
      <trkpt lat="49.26196" lon="4.00447">
        <ele>122</ele>
        <time>2019-03-30T14:37:24Z</time>
      </trkpt>
      <trkpt lat="49.26192" lon="4.00452">
        <ele>122</ele>
        <time>2019-03-30T14:37:25Z</time>
      </trkpt>
      <trkpt lat="49.26189" lon="4.00457">
        <ele>122</ele>
        <time>2019-03-30T14:37:26Z</time>
      </trkpt>
      <trkpt lat="49.26185" lon="4.00462">
        <ele>122</ele>
        <time>2019-03-30T14:37:27Z</time>
      </trkpt>
      <trkpt lat="49.26182" lon="4.00468">
        <ele>122</ele>
        <time>2019-03-30T14:37:28Z</time>
      </trkpt>
      <trkpt lat="49.26178" lon="4.00473">
        <ele>121</ele>
        <time>2019-03-30T14:37:29Z</time>
      </trkpt>
      <trkpt lat="49.26175" lon="4.00479">
        <ele>121</ele>
        <time>2019-03-30T14:37:30Z</time>
      </trkpt>
      <trkpt lat="49.26172" lon="4.00484">
        <ele>121</ele>
        <time>2019-03-30T14:37:31Z</time>
      </trkpt>
      <trkpt lat="49.26168" lon="4.0049">
        <ele>121</ele>
        <time>2019-03-30T14:37:32Z</time>
      </trkpt>
      <trkpt lat="49.26166" lon="4.00495">
        <ele>121</ele>
        <time>2019-03-30T14:37:33Z</time>
      </trkpt>
      <trkpt lat="49.26162" lon="4.005">
        <ele>121</ele>
        <time>2019-03-30T14:37:34Z</time>
      </trkpt>
      <trkpt lat="49.26159" lon="4.00504">
        <ele>121</ele>
        <time>2019-03-30T14:37:35Z</time>
      </trkpt>
      <trkpt lat="49.26156" lon="4.00509">
        <ele>121</ele>
        <time>2019-03-30T14:37:36Z</time>
      </trkpt>
      <trkpt lat="49.26153" lon="4.00514">
        <ele>120</ele>
        <time>2019-03-30T14:37:37Z</time>
      </trkpt>
      <trkpt lat="49.2615" lon="4.00519">
        <ele>120</ele>
        <time>2019-03-30T14:37:38Z</time>
      </trkpt>
      <trkpt lat="49.26147" lon="4.00524">
        <ele>120</ele>
        <time>2019-03-30T14:37:39Z</time>
      </trkpt>
      <trkpt lat="49.26144" lon="4.0053">
        <ele>120</ele>
        <time>2019-03-30T14:37:40Z</time>
      </trkpt>
      <trkpt lat="49.26141" lon="4.00535">
        <ele>120</ele>
        <time>2019-03-30T14:37:41Z</time>
      </trkpt>
      <trkpt lat="49.26138" lon="4.0054">
        <ele>120</ele>
        <time>2019-03-30T14:37:42Z</time>
      </trkpt>
      <trkpt lat="49.26134" lon="4.00546">
        <ele>120</ele>
        <time>2019-03-30T14:37:43Z</time>
      </trkpt>
      <trkpt lat="49.26131" lon="4.00551">
        <ele>120</ele>
        <time>2019-03-30T14:37:44Z</time>
      </trkpt>
      <trkpt lat="49.26128" lon="4.00556">
        <ele>120</ele>
        <time>2019-03-30T14:37:45Z</time>
      </trkpt>
      <trkpt lat="49.26125" lon="4.00561">
        <ele>120</ele>
        <time>2019-03-30T14:37:46Z</time>
      </trkpt>
      <trkpt lat="49.26122" lon="4.00567">
        <ele>120</ele>
        <time>2019-03-30T14:37:47Z</time>
      </trkpt>
      <trkpt lat="49.26119" lon="4.00572">
        <ele>120</ele>
        <time>2019-03-30T14:37:48Z</time>
      </trkpt>
      <trkpt lat="49.26115" lon="4.00577">
        <ele>120</ele>
        <time>2019-03-30T14:37:49Z</time>
      </trkpt>
      <trkpt lat="49.26112" lon="4.00583">
        <ele>120</ele>
        <time>2019-03-30T14:37:50Z</time>
      </trkpt>
      <trkpt lat="49.26109" lon="4.00588">
        <ele>120</ele>
        <time>2019-03-30T14:37:51Z</time>
      </trkpt>
      <trkpt lat="49.26106" lon="4.00593">
        <ele>119</ele>
        <time>2019-03-30T14:37:52Z</time>
      </trkpt>
      <trkpt lat="49.26103" lon="4.00598">
        <ele>119</ele>
        <time>2019-03-30T14:37:53Z</time>
      </trkpt>
      <trkpt lat="49.26099" lon="4.00602">
        <ele>119</ele>
        <time>2019-03-30T14:37:54Z</time>
      </trkpt>
      <trkpt lat="49.26096" lon="4.00607">
        <ele>120</ele>
        <time>2019-03-30T14:37:55Z</time>
      </trkpt>
      <trkpt lat="49.26092" lon="4.00612">
        <ele>120</ele>
        <time>2019-03-30T14:37:56Z</time>
      </trkpt>
      <trkpt lat="49.26089" lon="4.00618">
        <ele>120</ele>
        <time>2019-03-30T14:37:57Z</time>
      </trkpt>
      <trkpt lat="49.26085" lon="4.00623">
        <ele>120</ele>
        <time>2019-03-30T14:37:58Z</time>
      </trkpt>
      <trkpt lat="49.26082" lon="4.00629">
        <ele>120</ele>
        <time>2019-03-30T14:37:59Z</time>
      </trkpt>
      <trkpt lat="49.26079" lon="4.00634">
        <ele>120</ele>
        <time>2019-03-30T14:38:00Z</time>
      </trkpt>
      <trkpt lat="49.26075" lon="4.00639">
        <ele>120</ele>
        <time>2019-03-30T14:38:01Z</time>
      </trkpt>
      <trkpt lat="49.26072" lon="4.00645">
        <ele>120</ele>
        <time>2019-03-30T14:38:02Z</time>
      </trkpt>
      <trkpt lat="49.26069" lon="4.0065">
        <ele>120</ele>
        <time>2019-03-30T14:38:03Z</time>
      </trkpt>
      <trkpt lat="49.26065" lon="4.00656">
        <ele>120</ele>
        <time>2019-03-30T14:38:04Z</time>
      </trkpt>
      <trkpt lat="49.26062" lon="4.00661">
        <ele>121</ele>
        <time>2019-03-30T14:38:05Z</time>
      </trkpt>
      <trkpt lat="49.26059" lon="4.00667">
        <ele>120</ele>
        <time>2019-03-30T14:38:06Z</time>
      </trkpt>
      <trkpt lat="49.26056" lon="4.00672">
        <ele>121</ele>
        <time>2019-03-30T14:38:07Z</time>
      </trkpt>
      <trkpt lat="49.26052" lon="4.00678">
        <ele>121</ele>
        <time>2019-03-30T14:38:08Z</time>
      </trkpt>
      <trkpt lat="49.26049" lon="4.00684">
        <ele>121</ele>
        <time>2019-03-30T14:38:09Z</time>
      </trkpt>
      <trkpt lat="49.26046" lon="4.00689">
        <ele>121</ele>
        <time>2019-03-30T14:38:10Z</time>
      </trkpt>
      <trkpt lat="49.26043" lon="4.00695">
        <ele>121</ele>
        <time>2019-03-30T14:38:11Z</time>
      </trkpt>
      <trkpt lat="49.26039" lon="4.007">
        <ele>121</ele>
        <time>2019-03-30T14:38:12Z</time>
      </trkpt>
      <trkpt lat="49.26035" lon="4.00705">
        <ele>121</ele>
        <time>2019-03-30T14:38:13Z</time>
      </trkpt>
      <trkpt lat="49.26032" lon="4.0071">
        <ele>121</ele>
        <time>2019-03-30T14:38:14Z</time>
      </trkpt>
      <trkpt lat="49.26029" lon="4.00715">
        <ele>122</ele>
        <time>2019-03-30T14:38:15Z</time>
      </trkpt>
      <trkpt lat="49.26025" lon="4.00721">
        <ele>122</ele>
        <time>2019-03-30T14:38:16Z</time>
      </trkpt>
      <trkpt lat="49.26022" lon="4.00727">
        <ele>122</ele>
        <time>2019-03-30T14:38:17Z</time>
      </trkpt>
      <trkpt lat="49.26018" lon="4.00732">
        <ele>122</ele>
        <time>2019-03-30T14:38:18Z</time>
      </trkpt>
      <trkpt lat="49.26015" lon="4.00738">
        <ele>122</ele>
        <time>2019-03-30T14:38:19Z</time>
      </trkpt>
      <trkpt lat="49.26012" lon="4.00743">
        <ele>122</ele>
        <time>2019-03-30T14:38:20Z</time>
      </trkpt>
      <trkpt lat="49.26008" lon="4.00748">
        <ele>122</ele>
        <time>2019-03-30T14:38:21Z</time>
      </trkpt>
      <trkpt lat="49.26005" lon="4.00753">
        <ele>121</ele>
        <time>2019-03-30T14:38:22Z</time>
      </trkpt>
      <trkpt lat="49.26001" lon="4.00758">
        <ele>122</ele>
        <time>2019-03-30T14:38:23Z</time>
      </trkpt>
      <trkpt lat="49.25998" lon="4.00762">
        <ele>122</ele>
        <time>2019-03-30T14:38:24Z</time>
      </trkpt>
      <trkpt lat="49.25995" lon="4.00767">
        <ele>122</ele>
        <time>2019-03-30T14:38:25Z</time>
      </trkpt>
      <trkpt lat="49.25992" lon="4.00772">
        <ele>122</ele>
        <time>2019-03-30T14:38:26Z</time>
      </trkpt>
      <trkpt lat="49.25989" lon="4.00776">
        <ele>122</ele>
        <time>2019-03-30T14:38:27Z</time>
      </trkpt>
      <trkpt lat="49.25986" lon="4.00781">
        <ele>121</ele>
        <time>2019-03-30T14:38:28Z</time>
      </trkpt>
      <trkpt lat="49.25983" lon="4.00786">
        <ele>121</ele>
        <time>2019-03-30T14:38:29Z</time>
      </trkpt>
      <trkpt lat="49.2598" lon="4.00791">
        <ele>122</ele>
        <time>2019-03-30T14:38:30Z</time>
      </trkpt>
      <trkpt lat="49.25977" lon="4.00796">
        <ele>121</ele>
        <time>2019-03-30T14:38:31Z</time>
      </trkpt>
      <trkpt lat="49.25974" lon="4.00801">
        <ele>122</ele>
        <time>2019-03-30T14:38:32Z</time>
      </trkpt>
      <trkpt lat="49.2597" lon="4.00806">
        <ele>122</ele>
        <time>2019-03-30T14:38:33Z</time>
      </trkpt>
      <trkpt lat="49.25968" lon="4.00812">
        <ele>122</ele>
        <time>2019-03-30T14:38:34Z</time>
      </trkpt>
      <trkpt lat="49.25964" lon="4.00816">
        <ele>122</ele>
        <time>2019-03-30T14:38:35Z</time>
      </trkpt>
      <trkpt lat="49.25961" lon="4.00821">
        <ele>122</ele>
        <time>2019-03-30T14:38:36Z</time>
      </trkpt>
      <trkpt lat="49.25959" lon="4.00826">
        <ele>122</ele>
        <time>2019-03-30T14:38:37Z</time>
      </trkpt>
      <trkpt lat="49.25956" lon="4.00831">
        <ele>121</ele>
        <time>2019-03-30T14:38:38Z</time>
      </trkpt>
      <trkpt lat="49.25952" lon="4.00835">
        <ele>121</ele>
        <time>2019-03-30T14:38:39Z</time>
      </trkpt>
      <trkpt lat="49.2595" lon="4.00839">
        <ele>121</ele>
        <time>2019-03-30T14:38:40Z</time>
      </trkpt>
      <trkpt lat="49.25947" lon="4.00844">
        <ele>121</ele>
        <time>2019-03-30T14:38:41Z</time>
      </trkpt>
      <trkpt lat="49.25944" lon="4.0085">
        <ele>121</ele>
        <time>2019-03-30T14:38:42Z</time>
      </trkpt>
      <trkpt lat="49.25941" lon="4.00854">
        <ele>121</ele>
        <time>2019-03-30T14:38:43Z</time>
      </trkpt>
      <trkpt lat="49.25938" lon="4.00859">
        <ele>121</ele>
        <time>2019-03-30T14:38:44Z</time>
      </trkpt>
      <trkpt lat="49.25935" lon="4.00865">
        <ele>121</ele>
        <time>2019-03-30T14:38:45Z</time>
      </trkpt>
      <trkpt lat="49.25931" lon="4.00869">
        <ele>121</ele>
        <time>2019-03-30T14:38:46Z</time>
      </trkpt>
      <trkpt lat="49.25928" lon="4.00874">
        <ele>122</ele>
        <time>2019-03-30T14:38:47Z</time>
      </trkpt>
      <trkpt lat="49.25926" lon="4.00878">
        <ele>121</ele>
        <time>2019-03-30T14:38:48Z</time>
      </trkpt>
      <trkpt lat="49.25923" lon="4.00882">
        <ele>122</ele>
        <time>2019-03-30T14:38:49Z</time>
      </trkpt>
      <trkpt lat="49.2592" lon="4.00886">
        <ele>122</ele>
        <time>2019-03-30T14:38:50Z</time>
      </trkpt>
      <trkpt lat="49.25918" lon="4.0089">
        <ele>121</ele>
        <time>2019-03-30T14:38:51Z</time>
      </trkpt>
      <trkpt lat="49.25915" lon="4.00894">
        <ele>121</ele>
        <time>2019-03-30T14:38:52Z</time>
      </trkpt>
      <trkpt lat="49.25913" lon="4.00898">
        <ele>122</ele>
        <time>2019-03-30T14:38:53Z</time>
      </trkpt>
      <trkpt lat="49.2591" lon="4.00901">
        <ele>121</ele>
        <time>2019-03-30T14:38:54Z</time>
      </trkpt>
      <trkpt lat="49.25908" lon="4.00905">
        <ele>122</ele>
        <time>2019-03-30T14:38:55Z</time>
      </trkpt>
      <trkpt lat="49.25906" lon="4.00909">
        <ele>122</ele>
        <time>2019-03-30T14:38:56Z</time>
      </trkpt>
      <trkpt lat="49.25904" lon="4.00912">
        <ele>122</ele>
        <time>2019-03-30T14:38:57Z</time>
      </trkpt>
      <trkpt lat="49.25902" lon="4.00915">
        <ele>122</ele>
        <time>2019-03-30T14:38:58Z</time>
      </trkpt>
      <trkpt lat="49.259" lon="4.00919">
        <ele>122</ele>
        <time>2019-03-30T14:38:59Z</time>
      </trkpt>
      <trkpt lat="49.25897" lon="4.00922">
        <ele>122</ele>
        <time>2019-03-30T14:39:00Z</time>
      </trkpt>
      <trkpt lat="49.25895" lon="4.00924">
        <ele>122</ele>
        <time>2019-03-30T14:39:01Z</time>
      </trkpt>
      <trkpt lat="49.25891" lon="4.00928">
        <ele>122</ele>
        <time>2019-03-30T14:39:02Z</time>
      </trkpt>
      <trkpt lat="49.25888" lon="4.00933">
        <ele>122</ele>
        <time>2019-03-30T14:39:03Z</time>
      </trkpt>
      <trkpt lat="49.25884" lon="4.00939">
        <ele>121</ele>
        <time>2019-03-30T14:39:04Z</time>
      </trkpt>
      <trkpt lat="49.2588" lon="4.00945">
        <ele>121</ele>
        <time>2019-03-30T14:39:05Z</time>
      </trkpt>
      <trkpt lat="49.25876" lon="4.00951">
        <ele>121</ele>
        <time>2019-03-30T14:39:06Z</time>
      </trkpt>
      <trkpt lat="49.25873" lon="4.00957">
        <ele>121</ele>
        <time>2019-03-30T14:39:07Z</time>
      </trkpt>
      <trkpt lat="49.25869" lon="4.00962">
        <ele>121</ele>
        <time>2019-03-30T14:39:08Z</time>
      </trkpt>
      <trkpt lat="49.25866" lon="4.00968">
        <ele>122</ele>
        <time>2019-03-30T14:39:09Z</time>
      </trkpt>
      <trkpt lat="49.25863" lon="4.00972">
        <ele>122</ele>
        <time>2019-03-30T14:39:10Z</time>
      </trkpt>
      <trkpt lat="49.2586" lon="4.00975">
        <ele>122</ele>
        <time>2019-03-30T14:39:11Z</time>
      </trkpt>
      <trkpt lat="49.25857" lon="4.00978">
        <ele>122</ele>
        <time>2019-03-30T14:39:12Z</time>
      </trkpt>
      <trkpt lat="49.25853" lon="4.0098">
        <ele>121</ele>
        <time>2019-03-30T14:39:13Z</time>
      </trkpt>
      <trkpt lat="49.25851" lon="4.00983">
        <ele>121</ele>
        <time>2019-03-30T14:39:14Z</time>
      </trkpt>
      <trkpt lat="49.25849" lon="4.00988">
        <ele>121</ele>
        <time>2019-03-30T14:39:15Z</time>
      </trkpt>
      <trkpt lat="49.25847" lon="4.00992">
        <ele>122</ele>
        <time>2019-03-30T14:39:16Z</time>
      </trkpt>
      <trkpt lat="49.25843" lon="4.00997">
        <ele>121</ele>
        <time>2019-03-30T14:39:17Z</time>
      </trkpt>
      <trkpt lat="49.2584" lon="4.01002">
        <ele>121</ele>
        <time>2019-03-30T14:39:18Z</time>
      </trkpt>
      <trkpt lat="49.25837" lon="4.01007">
        <ele>121</ele>
        <time>2019-03-30T14:39:19Z</time>
      </trkpt>
      <trkpt lat="49.25834" lon="4.01012">
        <ele>120</ele>
        <time>2019-03-30T14:39:20Z</time>
      </trkpt>
      <trkpt lat="49.25831" lon="4.01017">
        <ele>120</ele>
        <time>2019-03-30T14:39:21Z</time>
      </trkpt>
      <trkpt lat="49.25828" lon="4.01023">
        <ele>120</ele>
        <time>2019-03-30T14:39:22Z</time>
      </trkpt>
      <trkpt lat="49.25825" lon="4.01029">
        <ele>120</ele>
        <time>2019-03-30T14:39:23Z</time>
      </trkpt>
      <trkpt lat="49.25822" lon="4.01034">
        <ele>120</ele>
        <time>2019-03-30T14:39:24Z</time>
      </trkpt>
      <trkpt lat="49.25819" lon="4.0104">
        <ele>120</ele>
        <time>2019-03-30T14:39:25Z</time>
      </trkpt>
      <trkpt lat="49.25815" lon="4.01045">
        <ele>120</ele>
        <time>2019-03-30T14:39:26Z</time>
      </trkpt>
      <trkpt lat="49.25812" lon="4.0105">
        <ele>120</ele>
        <time>2019-03-30T14:39:27Z</time>
      </trkpt>
      <trkpt lat="49.25809" lon="4.01055">
        <ele>120</ele>
        <time>2019-03-30T14:39:28Z</time>
      </trkpt>
      <trkpt lat="49.25806" lon="4.0106">
        <ele>120</ele>
        <time>2019-03-30T14:39:29Z</time>
      </trkpt>
      <trkpt lat="49.25803" lon="4.01065">
        <ele>120</ele>
        <time>2019-03-30T14:39:30Z</time>
      </trkpt>
      <trkpt lat="49.258" lon="4.01071">
        <ele>120</ele>
        <time>2019-03-30T14:39:31Z</time>
      </trkpt>
      <trkpt lat="49.25797" lon="4.01076">
        <ele>120</ele>
        <time>2019-03-30T14:39:32Z</time>
      </trkpt>
      <trkpt lat="49.25794" lon="4.01081">
        <ele>121</ele>
        <time>2019-03-30T14:39:33Z</time>
      </trkpt>
      <trkpt lat="49.2579" lon="4.01087">
        <ele>121</ele>
        <time>2019-03-30T14:39:34Z</time>
      </trkpt>
      <trkpt lat="49.25787" lon="4.01092">
        <ele>121</ele>
        <time>2019-03-30T14:39:35Z</time>
      </trkpt>
      <trkpt lat="49.25784" lon="4.01097">
        <ele>121</ele>
        <time>2019-03-30T14:39:36Z</time>
      </trkpt>
      <trkpt lat="49.25781" lon="4.01102">
        <ele>121</ele>
        <time>2019-03-30T14:39:37Z</time>
      </trkpt>
      <trkpt lat="49.25778" lon="4.01108">
        <ele>121</ele>
        <time>2019-03-30T14:39:38Z</time>
      </trkpt>
      <trkpt lat="49.25774" lon="4.01113">
        <ele>121</ele>
        <time>2019-03-30T14:39:39Z</time>
      </trkpt>
      <trkpt lat="49.25771" lon="4.01118">
        <ele>120</ele>
        <time>2019-03-30T14:39:40Z</time>
      </trkpt>
      <trkpt lat="49.25767" lon="4.01123">
        <ele>120</ele>
        <time>2019-03-30T14:39:41Z</time>
      </trkpt>
      <trkpt lat="49.25764" lon="4.01129">
        <ele>120</ele>
        <time>2019-03-30T14:39:42Z</time>
      </trkpt>
      <trkpt lat="49.25761" lon="4.01134">
        <ele>120</ele>
        <time>2019-03-30T14:39:43Z</time>
      </trkpt>
      <trkpt lat="49.25757" lon="4.01139">
        <ele>120</ele>
        <time>2019-03-30T14:39:44Z</time>
      </trkpt>
      <trkpt lat="49.25754" lon="4.01144">
        <ele>120</ele>
        <time>2019-03-30T14:39:45Z</time>
      </trkpt>
      <trkpt lat="49.2575" lon="4.01149">
        <ele>120</ele>
        <time>2019-03-30T14:39:46Z</time>
      </trkpt>
      <trkpt lat="49.25747" lon="4.01155">
        <ele>120</ele>
        <time>2019-03-30T14:39:47Z</time>
      </trkpt>
      <trkpt lat="49.25743" lon="4.0116">
        <ele>120</ele>
        <time>2019-03-30T14:39:48Z</time>
      </trkpt>
      <trkpt lat="49.2574" lon="4.01165">
        <ele>120</ele>
        <time>2019-03-30T14:39:49Z</time>
      </trkpt>
      <trkpt lat="49.25737" lon="4.0117">
        <ele>120</ele>
        <time>2019-03-30T14:39:50Z</time>
      </trkpt>
      <trkpt lat="49.25733" lon="4.01176">
        <ele>120</ele>
        <time>2019-03-30T14:39:51Z</time>
      </trkpt>
      <trkpt lat="49.2573" lon="4.01181">
        <ele>120</ele>
        <time>2019-03-30T14:39:52Z</time>
      </trkpt>
      <trkpt lat="49.25727" lon="4.01187">
        <ele>119</ele>
        <time>2019-03-30T14:39:53Z</time>
      </trkpt>
      <trkpt lat="49.25723" lon="4.01192">
        <ele>119</ele>
        <time>2019-03-30T14:39:54Z</time>
      </trkpt>
      <trkpt lat="49.2572" lon="4.01198">
        <ele>119</ele>
        <time>2019-03-30T14:39:55Z</time>
      </trkpt>
      <trkpt lat="49.25717" lon="4.01203">
        <ele>120</ele>
        <time>2019-03-30T14:39:56Z</time>
      </trkpt>
      <trkpt lat="49.25713" lon="4.01208">
        <ele>120</ele>
        <time>2019-03-30T14:39:57Z</time>
      </trkpt>
      <trkpt lat="49.25709" lon="4.01213">
        <ele>120</ele>
        <time>2019-03-30T14:39:58Z</time>
      </trkpt>
      <trkpt lat="49.25705" lon="4.01219">
        <ele>120</ele>
        <time>2019-03-30T14:39:59Z</time>
      </trkpt>
      <trkpt lat="49.25702" lon="4.01224">
        <ele>120</ele>
        <time>2019-03-30T14:40:00Z</time>
      </trkpt>
      <trkpt lat="49.25698" lon="4.0123">
        <ele>120</ele>
        <time>2019-03-30T14:40:01Z</time>
      </trkpt>
      <trkpt lat="49.25695" lon="4.01235">
        <ele>120</ele>
        <time>2019-03-30T14:40:02Z</time>
      </trkpt>
      <trkpt lat="49.25691" lon="4.01241">
        <ele>120</ele>
        <time>2019-03-30T14:40:03Z</time>
      </trkpt>
      <trkpt lat="49.25688" lon="4.01247">
        <ele>120</ele>
        <time>2019-03-30T14:40:04Z</time>
      </trkpt>
      <trkpt lat="49.25684" lon="4.01253">
        <ele>119</ele>
        <time>2019-03-30T14:40:05Z</time>
      </trkpt>
      <trkpt lat="49.25681" lon="4.01259">
        <ele>119</ele>
        <time>2019-03-30T14:40:06Z</time>
      </trkpt>
      <trkpt lat="49.25677" lon="4.01266">
        <ele>119</ele>
        <time>2019-03-30T14:40:07Z</time>
      </trkpt>
      <trkpt lat="49.25674" lon="4.01272">
        <ele>119</ele>
        <time>2019-03-30T14:40:08Z</time>
      </trkpt>
      <trkpt lat="49.2567" lon="4.01277">
        <ele>119</ele>
        <time>2019-03-30T14:40:09Z</time>
      </trkpt>
      <trkpt lat="49.25666" lon="4.01283">
        <ele>120</ele>
        <time>2019-03-30T14:40:10Z</time>
      </trkpt>
      <trkpt lat="49.25662" lon="4.01289">
        <ele>119</ele>
        <time>2019-03-30T14:40:11Z</time>
      </trkpt>
      <trkpt lat="49.25659" lon="4.01295">
        <ele>119</ele>
        <time>2019-03-30T14:40:12Z</time>
      </trkpt>
      <trkpt lat="49.25656" lon="4.01301">
        <ele>119</ele>
        <time>2019-03-30T14:40:13Z</time>
      </trkpt>
      <trkpt lat="49.25652" lon="4.01307">
        <ele>119</ele>
        <time>2019-03-30T14:40:14Z</time>
      </trkpt>
      <trkpt lat="49.25649" lon="4.01312">
        <ele>120</ele>
        <time>2019-03-30T14:40:15Z</time>
      </trkpt>
      <trkpt lat="49.25645" lon="4.01318">
        <ele>120</ele>
        <time>2019-03-30T14:40:16Z</time>
      </trkpt>
      <trkpt lat="49.25641" lon="4.01322">
        <ele>120</ele>
        <time>2019-03-30T14:40:17Z</time>
      </trkpt>
      <trkpt lat="49.25638" lon="4.01327">
        <ele>120</ele>
        <time>2019-03-30T14:40:18Z</time>
      </trkpt>
      <trkpt lat="49.25634" lon="4.01333">
        <ele>120</ele>
        <time>2019-03-30T14:40:19Z</time>
      </trkpt>
      <trkpt lat="49.25631" lon="4.01338">
        <ele>120</ele>
        <time>2019-03-30T14:40:20Z</time>
      </trkpt>
      <trkpt lat="49.25628" lon="4.01344">
        <ele>120</ele>
        <time>2019-03-30T14:40:21Z</time>
      </trkpt>
      <trkpt lat="49.25624" lon="4.0135">
        <ele>121</ele>
        <time>2019-03-30T14:40:22Z</time>
      </trkpt>
      <trkpt lat="49.25621" lon="4.01355">
        <ele>121</ele>
        <time>2019-03-30T14:40:23Z</time>
      </trkpt>
      <trkpt lat="49.25617" lon="4.01361">
        <ele>121</ele>
        <time>2019-03-30T14:40:24Z</time>
      </trkpt>
      <trkpt lat="49.25613" lon="4.01366">
        <ele>121</ele>
        <time>2019-03-30T14:40:25Z</time>
      </trkpt>
      <trkpt lat="49.2561" lon="4.01372">
        <ele>121</ele>
        <time>2019-03-30T14:40:26Z</time>
      </trkpt>
      <trkpt lat="49.25607" lon="4.01378">
        <ele>121</ele>
        <time>2019-03-30T14:40:27Z</time>
      </trkpt>
      <trkpt lat="49.25603" lon="4.01383">
        <ele>121</ele>
        <time>2019-03-30T14:40:28Z</time>
      </trkpt>
      <trkpt lat="49.256" lon="4.01389">
        <ele>121</ele>
        <time>2019-03-30T14:40:29Z</time>
      </trkpt>
      <trkpt lat="49.25596" lon="4.01395">
        <ele>121</ele>
        <time>2019-03-30T14:40:30Z</time>
      </trkpt>
      <trkpt lat="49.25592" lon="4.01401">
        <ele>122</ele>
        <time>2019-03-30T14:40:31Z</time>
      </trkpt>
      <trkpt lat="49.25589" lon="4.01406">
        <ele>122</ele>
        <time>2019-03-30T14:40:32Z</time>
      </trkpt>
      <trkpt lat="49.25586" lon="4.01412">
        <ele>122</ele>
        <time>2019-03-30T14:40:33Z</time>
      </trkpt>
      <trkpt lat="49.25583" lon="4.01416">
        <ele>122</ele>
        <time>2019-03-30T14:40:34Z</time>
      </trkpt>
      <trkpt lat="49.2558" lon="4.01421">
        <ele>122</ele>
        <time>2019-03-30T14:40:35Z</time>
      </trkpt>
      <trkpt lat="49.25576" lon="4.01425">
        <ele>122</ele>
        <time>2019-03-30T14:40:36Z</time>
      </trkpt>
      <trkpt lat="49.25573" lon="4.0143">
        <ele>122</ele>
        <time>2019-03-30T14:40:37Z</time>
      </trkpt>
      <trkpt lat="49.25571" lon="4.01434">
        <ele>122</ele>
        <time>2019-03-30T14:40:38Z</time>
      </trkpt>
      <trkpt lat="49.25567" lon="4.01439">
        <ele>122</ele>
        <time>2019-03-30T14:40:39Z</time>
      </trkpt>
      <trkpt lat="49.25565" lon="4.01444">
        <ele>122</ele>
        <time>2019-03-30T14:40:40Z</time>
      </trkpt>
      <trkpt lat="49.25562" lon="4.01448">
        <ele>121</ele>
        <time>2019-03-30T14:40:41Z</time>
      </trkpt>
      <trkpt lat="49.25558" lon="4.01453">
        <ele>121</ele>
        <time>2019-03-30T14:40:42Z</time>
      </trkpt>
      <trkpt lat="49.25552" lon="4.01463">
        <ele>121</ele>
        <time>2019-03-30T14:40:44Z</time>
      </trkpt>
      <trkpt lat="49.25549" lon="4.01467">
        <ele>121</ele>
        <time>2019-03-30T14:40:45Z</time>
      </trkpt>
      <trkpt lat="49.25545" lon="4.01472">
        <ele>121</ele>
        <time>2019-03-30T14:40:46Z</time>
      </trkpt>
      <trkpt lat="49.25542" lon="4.01478">
        <ele>121</ele>
        <time>2019-03-30T14:40:47Z</time>
      </trkpt>
      <trkpt lat="49.2554" lon="4.01483">
        <ele>121</ele>
        <time>2019-03-30T14:40:48Z</time>
      </trkpt>
      <trkpt lat="49.25536" lon="4.01488">
        <ele>121</ele>
        <time>2019-03-30T14:40:49Z</time>
      </trkpt>
      <trkpt lat="49.25533" lon="4.01494">
        <ele>121</ele>
        <time>2019-03-30T14:40:50Z</time>
      </trkpt>
      <trkpt lat="49.25526" lon="4.01504">
        <ele>120</ele>
        <time>2019-03-30T14:40:52Z</time>
      </trkpt>
      <trkpt lat="49.25523" lon="4.0151">
        <ele>120</ele>
        <time>2019-03-30T14:40:53Z</time>
      </trkpt>
      <trkpt lat="49.2552" lon="4.01516">
        <ele>120</ele>
        <time>2019-03-30T14:40:54Z</time>
      </trkpt>
      <trkpt lat="49.25517" lon="4.01522">
        <ele>120</ele>
        <time>2019-03-30T14:40:55Z</time>
      </trkpt>
      <trkpt lat="49.25515" lon="4.01528">
        <ele>121</ele>
        <time>2019-03-30T14:40:56Z</time>
      </trkpt>
      <trkpt lat="49.25509" lon="4.01539">
        <ele>121</ele>
        <time>2019-03-30T14:40:58Z</time>
      </trkpt>
      <trkpt lat="49.25506" lon="4.01544">
        <ele>120</ele>
        <time>2019-03-30T14:40:59Z</time>
      </trkpt>
      <trkpt lat="49.25502" lon="4.01548">
        <ele>120</ele>
        <time>2019-03-30T14:41:00Z</time>
      </trkpt>
      <trkpt lat="49.25498" lon="4.01549">
        <ele>120</ele>
        <time>2019-03-30T14:41:01Z</time>
      </trkpt>
      <trkpt lat="49.25493" lon="4.0155">
        <ele>121</ele>
        <time>2019-03-30T14:41:02Z</time>
      </trkpt>
      <trkpt lat="49.25487" lon="4.01554">
        <ele>120</ele>
        <time>2019-03-30T14:41:03Z</time>
      </trkpt>
      <trkpt lat="49.2548" lon="4.01565">
        <ele>120</ele>
        <time>2019-03-30T14:41:05Z</time>
      </trkpt>
      <trkpt lat="49.25477" lon="4.01571">
        <ele>120</ele>
        <time>2019-03-30T14:41:06Z</time>
      </trkpt>
      <trkpt lat="49.25474" lon="4.01576">
        <ele>120</ele>
        <time>2019-03-30T14:41:07Z</time>
      </trkpt>
      <trkpt lat="49.25471" lon="4.0158">
        <ele>119</ele>
        <time>2019-03-30T14:41:08Z</time>
      </trkpt>
      <trkpt lat="49.25468" lon="4.01585">
        <ele>119</ele>
        <time>2019-03-30T14:41:09Z</time>
      </trkpt>
      <trkpt lat="49.25465" lon="4.01589">
        <ele>119</ele>
        <time>2019-03-30T14:41:10Z</time>
      </trkpt>
      <trkpt lat="49.25462" lon="4.01593">
        <ele>119</ele>
        <time>2019-03-30T14:41:11Z</time>
      </trkpt>
      <trkpt lat="49.25459" lon="4.01597">
        <ele>119</ele>
        <time>2019-03-30T14:41:12Z</time>
      </trkpt>
      <trkpt lat="49.25456" lon="4.01602">
        <ele>120</ele>
        <time>2019-03-30T14:41:13Z</time>
      </trkpt>
      <trkpt lat="49.25453" lon="4.01606">
        <ele>120</ele>
        <time>2019-03-30T14:41:14Z</time>
      </trkpt>
      <trkpt lat="49.25451" lon="4.0161">
        <ele>121</ele>
        <time>2019-03-30T14:41:15Z</time>
      </trkpt>
      <trkpt lat="49.25448" lon="4.01614">
        <ele>121</ele>
        <time>2019-03-30T14:41:16Z</time>
      </trkpt>
      <trkpt lat="49.25444" lon="4.01619">
        <ele>121</ele>
        <time>2019-03-30T14:41:17Z</time>
      </trkpt>
      <trkpt lat="49.25442" lon="4.01623">
        <ele>122</ele>
        <time>2019-03-30T14:41:18Z</time>
      </trkpt>
      <trkpt lat="49.25439" lon="4.01629">
        <ele>122</ele>
        <time>2019-03-30T14:41:19Z</time>
      </trkpt>
      <trkpt lat="49.25436" lon="4.01633">
        <ele>122</ele>
        <time>2019-03-30T14:41:20Z</time>
      </trkpt>
      <trkpt lat="49.25433" lon="4.01638">
        <ele>122</ele>
        <time>2019-03-30T14:41:21Z</time>
      </trkpt>
      <trkpt lat="49.2543" lon="4.01642">
        <ele>122</ele>
        <time>2019-03-30T14:41:22Z</time>
      </trkpt>
      <trkpt lat="49.25427" lon="4.01647">
        <ele>123</ele>
        <time>2019-03-30T14:41:23Z</time>
      </trkpt>
      <trkpt lat="49.25424" lon="4.01652">
        <ele>122</ele>
        <time>2019-03-30T14:41:24Z</time>
      </trkpt>
      <trkpt lat="49.25421" lon="4.01656">
        <ele>122</ele>
        <time>2019-03-30T14:41:25Z</time>
      </trkpt>
      <trkpt lat="49.25418" lon="4.01661">
        <ele>122</ele>
        <time>2019-03-30T14:41:26Z</time>
      </trkpt>
      <trkpt lat="49.25416" lon="4.01665">
        <ele>122</ele>
        <time>2019-03-30T14:41:27Z</time>
      </trkpt>
      <trkpt lat="49.25413" lon="4.01669">
        <ele>122</ele>
        <time>2019-03-30T14:41:28Z</time>
      </trkpt>
      <trkpt lat="49.25411" lon="4.01674">
        <ele>122</ele>
        <time>2019-03-30T14:41:29Z</time>
      </trkpt>
      <trkpt lat="49.25409" lon="4.01677">
        <ele>122</ele>
        <time>2019-03-30T14:41:30Z</time>
      </trkpt>
      <trkpt lat="49.25407" lon="4.0168">
        <ele>122</ele>
        <time>2019-03-30T14:41:31Z</time>
      </trkpt>
      <trkpt lat="49.25404" lon="4.01685">
        <ele>122</ele>
        <time>2019-03-30T14:41:32Z</time>
      </trkpt>
      <trkpt lat="49.25403" lon="4.01689">
        <ele>122</ele>
        <time>2019-03-30T14:41:33Z</time>
      </trkpt>
      <trkpt lat="49.25402" lon="4.01694">
        <ele>122</ele>
        <time>2019-03-30T14:41:34Z</time>
      </trkpt>
      <trkpt lat="49.25402" lon="4.01698">
        <ele>122</ele>
        <time>2019-03-30T14:41:35Z</time>
      </trkpt>
      <trkpt lat="49.25402" lon="4.01701">
        <ele>122</ele>
        <time>2019-03-30T14:41:36Z</time>
      </trkpt>
      <trkpt lat="49.25402" lon="4.01705">
        <ele>122</ele>
        <time>2019-03-30T14:41:37Z</time>
      </trkpt>
      <trkpt lat="49.25402" lon="4.01708">
        <ele>122</ele>
        <time>2019-03-30T14:41:38Z</time>
      </trkpt>
      <trkpt lat="49.25401" lon="4.01711">
        <ele>122</ele>
        <time>2019-03-30T14:41:39Z</time>
      </trkpt>
      <trkpt lat="49.254" lon="4.01714">
        <ele>122</ele>
        <time>2019-03-30T14:41:40Z</time>
      </trkpt>
      <trkpt lat="49.254" lon="4.01717">
        <ele>122</ele>
        <time>2019-03-30T14:41:41Z</time>
      </trkpt>
      <trkpt lat="49.25399" lon="4.0172">
        <ele>122</ele>
        <time>2019-03-30T14:41:42Z</time>
      </trkpt>
      <trkpt lat="49.25398" lon="4.01723">
        <ele>122</ele>
        <time>2019-03-30T14:41:43Z</time>
      </trkpt>
      <trkpt lat="49.25398" lon="4.01727">
        <ele>122</ele>
        <time>2019-03-30T14:41:44Z</time>
      </trkpt>
      <trkpt lat="49.25396" lon="4.0173">
        <ele>123</ele>
        <time>2019-03-30T14:41:45Z</time>
      </trkpt>
      <trkpt lat="49.25395" lon="4.01733">
        <ele>123</ele>
        <time>2019-03-30T14:41:46Z</time>
      </trkpt>
      <trkpt lat="49.25393" lon="4.01737">
        <ele>123</ele>
        <time>2019-03-30T14:41:47Z</time>
      </trkpt>
      <trkpt lat="49.25391" lon="4.0174">
        <ele>123</ele>
        <time>2019-03-30T14:41:48Z</time>
      </trkpt>
      <trkpt lat="49.25389" lon="4.01742">
        <ele>123</ele>
        <time>2019-03-30T14:41:49Z</time>
      </trkpt>
      <trkpt lat="49.25387" lon="4.01746">
        <ele>122</ele>
        <time>2019-03-30T14:41:50Z</time>
      </trkpt>
      <trkpt lat="49.25386" lon="4.01749">
        <ele>123</ele>
        <time>2019-03-30T14:41:51Z</time>
      </trkpt>
      <trkpt lat="49.25384" lon="4.0175">
        <ele>123</ele>
        <time>2019-03-30T14:41:52Z</time>
      </trkpt>
      <trkpt lat="49.25382" lon="4.01751">
        <ele>124</ele>
        <time>2019-03-30T14:41:53Z</time>
      </trkpt>
      <trkpt lat="49.2538" lon="4.01752">
        <ele>124</ele>
        <time>2019-03-30T14:41:54Z</time>
      </trkpt>
      <trkpt lat="49.25378" lon="4.01753">
        <ele>124</ele>
        <time>2019-03-30T14:41:55Z</time>
      </trkpt>
      <trkpt lat="49.25376" lon="4.01755">
        <ele>124</ele>
        <time>2019-03-30T14:41:56Z</time>
      </trkpt>
      <trkpt lat="49.25374" lon="4.01757">
        <ele>124</ele>
        <time>2019-03-30T14:41:57Z</time>
      </trkpt>
      <trkpt lat="49.25371" lon="4.01758">
        <ele>124</ele>
        <time>2019-03-30T14:41:58Z</time>
      </trkpt>
      <trkpt lat="49.25366" lon="4.01764">
        <ele>124</ele>
        <time>2019-03-30T14:42:00Z</time>
      </trkpt>
      <trkpt lat="49.25362" lon="4.01772">
        <ele>124</ele>
        <time>2019-03-30T14:42:02Z</time>
      </trkpt>
      <trkpt lat="49.25359" lon="4.01776">
        <ele>124</ele>
        <time>2019-03-30T14:42:03Z</time>
      </trkpt>
      <trkpt lat="49.25356" lon="4.0178">
        <ele>124</ele>
        <time>2019-03-30T14:42:04Z</time>
      </trkpt>
      <trkpt lat="49.25353" lon="4.01784">
        <ele>123</ele>
        <time>2019-03-30T14:42:05Z</time>
      </trkpt>
      <trkpt lat="49.2535" lon="4.01789">
        <ele>123</ele>
        <time>2019-03-30T14:42:06Z</time>
      </trkpt>
      <trkpt lat="49.25348" lon="4.01793">
        <ele>123</ele>
        <time>2019-03-30T14:42:07Z</time>
      </trkpt>
      <trkpt lat="49.25345" lon="4.01798">
        <ele>124</ele>
        <time>2019-03-30T14:42:08Z</time>
      </trkpt>
      <trkpt lat="49.25342" lon="4.01802">
        <ele>124</ele>
        <time>2019-03-30T14:42:09Z</time>
      </trkpt>
      <trkpt lat="49.25338" lon="4.01806">
        <ele>123</ele>
        <time>2019-03-30T14:42:10Z</time>
      </trkpt>
      <trkpt lat="49.25335" lon="4.01811">
        <ele>123</ele>
        <time>2019-03-30T14:42:11Z</time>
      </trkpt>
      <trkpt lat="49.25332" lon="4.01816">
        <ele>123</ele>
        <time>2019-03-30T14:42:12Z</time>
      </trkpt>
      <trkpt lat="49.25329" lon="4.01821">
        <ele>123</ele>
        <time>2019-03-30T14:42:13Z</time>
      </trkpt>
      <trkpt lat="49.25326" lon="4.01827">
        <ele>123</ele>
        <time>2019-03-30T14:42:14Z</time>
      </trkpt>
      <trkpt lat="49.25323" lon="4.01831">
        <ele>123</ele>
        <time>2019-03-30T14:42:15Z</time>
      </trkpt>
      <trkpt lat="49.25321" lon="4.01835">
        <ele>123</ele>
        <time>2019-03-30T14:42:16Z</time>
      </trkpt>
      <trkpt lat="49.25317" lon="4.01842">
        <ele>124</ele>
        <time>2019-03-30T14:42:17Z</time>
      </trkpt>
      <trkpt lat="49.25314" lon="4.01845">
        <ele>124</ele>
        <time>2019-03-30T14:42:18Z</time>
      </trkpt>
      <trkpt lat="49.25311" lon="4.01848">
        <ele>124</ele>
        <time>2019-03-30T14:42:19Z</time>
      </trkpt>
      <trkpt lat="49.25309" lon="4.0185">
        <ele>123</ele>
        <time>2019-03-30T14:42:20Z</time>
      </trkpt>
      <trkpt lat="49.25306" lon="4.01855">
        <ele>123</ele>
        <time>2019-03-30T14:42:21Z</time>
      </trkpt>
      <trkpt lat="49.25302" lon="4.01866">
        <ele>123</ele>
        <time>2019-03-30T14:42:23Z</time>
      </trkpt>
      <trkpt lat="49.25301" lon="4.01875">
        <ele>123</ele>
        <time>2019-03-30T14:42:24Z</time>
      </trkpt>
      <trkpt lat="49.25299" lon="4.01882">
        <ele>123</ele>
        <time>2019-03-30T14:42:25Z</time>
      </trkpt>
      <trkpt lat="49.25295" lon="4.01886">
        <ele>124</ele>
        <time>2019-03-30T14:42:26Z</time>
      </trkpt>
      <trkpt lat="49.25292" lon="4.0189">
        <ele>124</ele>
        <time>2019-03-30T14:42:27Z</time>
      </trkpt>
      <trkpt lat="49.25289" lon="4.01893">
        <ele>125</ele>
        <time>2019-03-30T14:42:28Z</time>
      </trkpt>
      <trkpt lat="49.25286" lon="4.01897">
        <ele>126</ele>
        <time>2019-03-30T14:42:29Z</time>
      </trkpt>
      <trkpt lat="49.25283" lon="4.01901">
        <ele>126</ele>
        <time>2019-03-30T14:42:30Z</time>
      </trkpt>
      <trkpt lat="49.2528" lon="4.01903">
        <ele>125</ele>
        <time>2019-03-30T14:42:31Z</time>
      </trkpt>
      <trkpt lat="49.25277" lon="4.01908">
        <ele>126</ele>
        <time>2019-03-30T14:42:32Z</time>
      </trkpt>
      <trkpt lat="49.25274" lon="4.01914">
        <ele>127</ele>
        <time>2019-03-30T14:42:33Z</time>
      </trkpt>
      <trkpt lat="49.25272" lon="4.01919">
        <ele>128</ele>
        <time>2019-03-30T14:42:34Z</time>
      </trkpt>
      <trkpt lat="49.25268" lon="4.01924">
        <ele>128</ele>
        <time>2019-03-30T14:42:35Z</time>
      </trkpt>
      <trkpt lat="49.25265" lon="4.01929">
        <ele>128</ele>
        <time>2019-03-30T14:42:36Z</time>
      </trkpt>
      <trkpt lat="49.25261" lon="4.01935">
        <ele>128</ele>
        <time>2019-03-30T14:42:37Z</time>
      </trkpt>
      <trkpt lat="49.25258" lon="4.01941">
        <ele>129</ele>
        <time>2019-03-30T14:42:38Z</time>
      </trkpt>
      <trkpt lat="49.25254" lon="4.01946">
        <ele>129</ele>
        <time>2019-03-30T14:42:39Z</time>
      </trkpt>
      <trkpt lat="49.2525" lon="4.01952">
        <ele>129</ele>
        <time>2019-03-30T14:42:40Z</time>
      </trkpt>
      <trkpt lat="49.25246" lon="4.01959">
        <ele>129</ele>
        <time>2019-03-30T14:42:41Z</time>
      </trkpt>
      <trkpt lat="49.25242" lon="4.01965">
        <ele>129</ele>
        <time>2019-03-30T14:42:42Z</time>
      </trkpt>
      <trkpt lat="49.25238" lon="4.01971">
        <ele>129</ele>
        <time>2019-03-30T14:42:43Z</time>
      </trkpt>
      <trkpt lat="49.25234" lon="4.01978">
        <ele>129</ele>
        <time>2019-03-30T14:42:44Z</time>
      </trkpt>
      <trkpt lat="49.25231" lon="4.01984">
        <ele>129</ele>
        <time>2019-03-30T14:42:45Z</time>
      </trkpt>
      <trkpt lat="49.25227" lon="4.01989">
        <ele>129</ele>
        <time>2019-03-30T14:42:46Z</time>
      </trkpt>
      <trkpt lat="49.25223" lon="4.01995">
        <ele>129</ele>
        <time>2019-03-30T14:42:47Z</time>
      </trkpt>
      <trkpt lat="49.25219" lon="4.02001">
        <ele>129</ele>
        <time>2019-03-30T14:42:48Z</time>
      </trkpt>
      <trkpt lat="49.25215" lon="4.02007">
        <ele>128</ele>
        <time>2019-03-30T14:42:49Z</time>
      </trkpt>
      <trkpt lat="49.25207" lon="4.02021">
        <ele>129</ele>
        <time>2019-03-30T14:42:51Z</time>
      </trkpt>
      <trkpt lat="49.25203" lon="4.02027">
        <ele>129</ele>
        <time>2019-03-30T14:42:52Z</time>
      </trkpt>
      <trkpt lat="49.25199" lon="4.02032">
        <ele>130</ele>
        <time>2019-03-30T14:42:53Z</time>
      </trkpt>
      <trkpt lat="49.25195" lon="4.02037">
        <ele>130</ele>
        <time>2019-03-30T14:42:54Z</time>
      </trkpt>
      <trkpt lat="49.25191" lon="4.02043">
        <ele>130</ele>
        <time>2019-03-30T14:42:55Z</time>
      </trkpt>
      <trkpt lat="49.25188" lon="4.02049">
        <ele>130</ele>
        <time>2019-03-30T14:42:56Z</time>
      </trkpt>
      <trkpt lat="49.25185" lon="4.02054">
        <ele>131</ele>
        <time>2019-03-30T14:42:57Z</time>
      </trkpt>
      <trkpt lat="49.25182" lon="4.02058">
        <ele>131</ele>
        <time>2019-03-30T14:42:58Z</time>
      </trkpt>
      <trkpt lat="49.25179" lon="4.02063">
        <ele>131</ele>
        <time>2019-03-30T14:42:59Z</time>
      </trkpt>
      <trkpt lat="49.25176" lon="4.02067">
        <ele>131</ele>
        <time>2019-03-30T14:43:00Z</time>
      </trkpt>
      <trkpt lat="49.25173" lon="4.02071">
        <ele>131</ele>
        <time>2019-03-30T14:43:01Z</time>
      </trkpt>
      <trkpt lat="49.2517" lon="4.02076">
        <ele>131</ele>
        <time>2019-03-30T14:43:02Z</time>
      </trkpt>
      <trkpt lat="49.25167" lon="4.0208">
        <ele>130</ele>
        <time>2019-03-30T14:43:03Z</time>
      </trkpt>
      <trkpt lat="49.25162" lon="4.0209">
        <ele>130</ele>
        <time>2019-03-30T14:43:05Z</time>
      </trkpt>
      <trkpt lat="49.25159" lon="4.02094">
        <ele>130</ele>
        <time>2019-03-30T14:43:06Z</time>
      </trkpt>
      <trkpt lat="49.25156" lon="4.02099">
        <ele>130</ele>
        <time>2019-03-30T14:43:07Z</time>
      </trkpt>
      <trkpt lat="49.25153" lon="4.02104">
        <ele>130</ele>
        <time>2019-03-30T14:43:08Z</time>
      </trkpt>
      <trkpt lat="49.2515" lon="4.02109">
        <ele>129</ele>
        <time>2019-03-30T14:43:09Z</time>
      </trkpt>
      <trkpt lat="49.25147" lon="4.02114">
        <ele>129</ele>
        <time>2019-03-30T14:43:10Z</time>
      </trkpt>
      <trkpt lat="49.25145" lon="4.02119">
        <ele>128</ele>
        <time>2019-03-30T14:43:11Z</time>
      </trkpt>
      <trkpt lat="49.25142" lon="4.02124">
        <ele>128</ele>
        <time>2019-03-30T14:43:12Z</time>
      </trkpt>
      <trkpt lat="49.25139" lon="4.02129">
        <ele>129</ele>
        <time>2019-03-30T14:43:13Z</time>
      </trkpt>
      <trkpt lat="49.25137" lon="4.02133">
        <ele>128</ele>
        <time>2019-03-30T14:43:14Z</time>
      </trkpt>
      <trkpt lat="49.25134" lon="4.02138">
        <ele>128</ele>
        <time>2019-03-30T14:43:15Z</time>
      </trkpt>
      <trkpt lat="49.25132" lon="4.02143">
        <ele>128</ele>
        <time>2019-03-30T14:43:16Z</time>
      </trkpt>
      <trkpt lat="49.25129" lon="4.02146">
        <ele>128</ele>
        <time>2019-03-30T14:43:17Z</time>
      </trkpt>
      <trkpt lat="49.25126" lon="4.0215">
        <ele>128</ele>
        <time>2019-03-30T14:43:18Z</time>
      </trkpt>
      <trkpt lat="49.25124" lon="4.02153">
        <ele>128</ele>
        <time>2019-03-30T14:43:19Z</time>
      </trkpt>
      <trkpt lat="49.25121" lon="4.02157">
        <ele>128</ele>
        <time>2019-03-30T14:43:20Z</time>
      </trkpt>
      <trkpt lat="49.25118" lon="4.02161">
        <ele>128</ele>
        <time>2019-03-30T14:43:21Z</time>
      </trkpt>
      <trkpt lat="49.25116" lon="4.02165">
        <ele>128</ele>
        <time>2019-03-30T14:43:22Z</time>
      </trkpt>
      <trkpt lat="49.25113" lon="4.02169">
        <ele>128</ele>
        <time>2019-03-30T14:43:23Z</time>
      </trkpt>
      <trkpt lat="49.25111" lon="4.02173">
        <ele>128</ele>
        <time>2019-03-30T14:43:24Z</time>
      </trkpt>
      <trkpt lat="49.25109" lon="4.02176">
        <ele>128</ele>
        <time>2019-03-30T14:43:25Z</time>
      </trkpt>
      <trkpt lat="49.25107" lon="4.0218">
        <ele>128</ele>
        <time>2019-03-30T14:43:26Z</time>
      </trkpt>
      <trkpt lat="49.25105" lon="4.02184">
        <ele>128</ele>
        <time>2019-03-30T14:43:27Z</time>
      </trkpt>
      <trkpt lat="49.25103" lon="4.02187">
        <ele>128</ele>
        <time>2019-03-30T14:43:28Z</time>
      </trkpt>
      <trkpt lat="49.25101" lon="4.0219">
        <ele>128</ele>
        <time>2019-03-30T14:43:29Z</time>
      </trkpt>
      <trkpt lat="49.25099" lon="4.02194">
        <ele>128</ele>
        <time>2019-03-30T14:43:30Z</time>
      </trkpt>
      <trkpt lat="49.25097" lon="4.02198">
        <ele>128</ele>
        <time>2019-03-30T14:43:31Z</time>
      </trkpt>
      <trkpt lat="49.25096" lon="4.02202">
        <ele>129</ele>
        <time>2019-03-30T14:43:32Z</time>
      </trkpt>
      <trkpt lat="49.25093" lon="4.02205">
        <ele>129</ele>
        <time>2019-03-30T14:43:33Z</time>
      </trkpt>
      <trkpt lat="49.25092" lon="4.02206">
        <ele>129</ele>
        <time>2019-03-30T14:43:34Z</time>
      </trkpt>
      <trkpt lat="49.25089" lon="4.02209">
        <ele>129</ele>
        <time>2019-03-30T14:43:35Z</time>
      </trkpt>
      <trkpt lat="49.25088" lon="4.0221">
        <ele>129</ele>
        <time>2019-03-30T14:43:36Z</time>
      </trkpt>
      <trkpt lat="49.25089" lon="4.0221">
        <ele>129</ele>
        <time>2019-03-30T14:43:37Z</time>
      </trkpt>
      <trkpt lat="49.25088" lon="4.02211">
        <ele>129</ele>
        <time>2019-03-30T14:43:38Z</time>
      </trkpt>
      <trkpt lat="49.25087" lon="4.0221">
        <ele>129</ele>
        <time>2019-03-30T14:43:39Z</time>
      </trkpt>
      <trkpt lat="49.25087" lon="4.0221">
        <ele>129</ele>
        <time>2019-03-30T14:43:40Z</time>
      </trkpt>
      <trkpt lat="49.25087" lon="4.0221">
        <ele>129</ele>
        <time>2019-03-30T14:43:41Z</time>
      </trkpt>
      <trkpt lat="49.25087" lon="4.0221">
        <ele>129</ele>
        <time>2019-03-30T14:43:42Z</time>
      </trkpt>
      <trkpt lat="49.25088" lon="4.02208">
        <ele>128</ele>
        <time>2019-03-30T14:43:43Z</time>
      </trkpt>
      <trkpt lat="49.25088" lon="4.02207">
        <ele>128</ele>
        <time>2019-03-30T14:43:44Z</time>
      </trkpt>
      <trkpt lat="49.25088" lon="4.02206">
        <ele>127</ele>
        <time>2019-03-30T14:43:45Z</time>
      </trkpt>
      <trkpt lat="49.25088" lon="4.02206">
        <ele>128</ele>
        <time>2019-03-30T14:43:46Z</time>
      </trkpt>
      <trkpt lat="49.25088" lon="4.02206">
        <ele>128</ele>
        <time>2019-03-30T14:43:47Z</time>
      </trkpt>
      <trkpt lat="49.25088" lon="4.02206">
        <ele>128</ele>
        <time>2019-03-30T14:43:48Z</time>
      </trkpt>
      <trkpt lat="49.25088" lon="4.02206">
        <ele>128</ele>
        <time>2019-03-30T14:43:49Z</time>
      </trkpt>
      <trkpt lat="49.25088" lon="4.02206">
        <ele>128</ele>
        <time>2019-03-30T14:43:50Z</time>
      </trkpt>
      <trkpt lat="49.25088" lon="4.02206">
        <ele>128</ele>
        <time>2019-03-30T14:43:51Z</time>
      </trkpt>
      <trkpt lat="49.25088" lon="4.02206">
        <ele>128</ele>
        <time>2019-03-30T14:43:52Z</time>
      </trkpt>
      <trkpt lat="49.25088" lon="4.02206">
        <ele>128</ele>
        <time>2019-03-30T14:43:53Z</time>
      </trkpt>
      <trkpt lat="49.25088" lon="4.02206">
        <ele>128</ele>
        <time>2019-03-30T14:43:54Z</time>
      </trkpt>
      <trkpt lat="49.25088" lon="4.02206">
        <ele>128</ele>
        <time>2019-03-30T14:43:55Z</time>
      </trkpt>
      <trkpt lat="49.25088" lon="4.02205">
        <ele>128</ele>
        <time>2019-03-30T14:43:56Z</time>
      </trkpt>
      <trkpt lat="49.25088" lon="4.02205">
        <ele>129</ele>
        <time>2019-03-30T14:43:57Z</time>
      </trkpt>
      <trkpt lat="49.25089" lon="4.02204">
        <ele>129</ele>
        <time>2019-03-30T14:43:58Z</time>
      </trkpt>
      <trkpt lat="49.2509" lon="4.02203">
        <ele>129</ele>
        <time>2019-03-30T14:43:59Z</time>
      </trkpt>
      <trkpt lat="49.25091" lon="4.02201">
        <ele>129</ele>
        <time>2019-03-30T14:44:00Z</time>
      </trkpt>
      <trkpt lat="49.25091" lon="4.022">
        <ele>129</ele>
        <time>2019-03-30T14:44:01Z</time>
      </trkpt>
      <trkpt lat="49.25091" lon="4.022">
        <ele>129</ele>
        <time>2019-03-30T14:44:02Z</time>
      </trkpt>
      <trkpt lat="49.25091" lon="4.022">
        <ele>129</ele>
        <time>2019-03-30T14:44:03Z</time>
      </trkpt>
      <trkpt lat="49.25091" lon="4.022">
        <ele>129</ele>
        <time>2019-03-30T14:44:04Z</time>
      </trkpt>
      <trkpt lat="49.25091" lon="4.022">
        <ele>129</ele>
        <time>2019-03-30T14:44:05Z</time>
      </trkpt>
      <trkpt lat="49.25091" lon="4.022">
        <ele>129</ele>
        <time>2019-03-30T14:44:06Z</time>
      </trkpt>
      <trkpt lat="49.25092" lon="4.02198">
        <ele>129</ele>
        <time>2019-03-30T14:44:07Z</time>
      </trkpt>
      <trkpt lat="49.25093" lon="4.02197">
        <ele>129</ele>
        <time>2019-03-30T14:44:08Z</time>
      </trkpt>
      <trkpt lat="49.25094" lon="4.02197">
        <ele>129</ele>
        <time>2019-03-30T14:44:09Z</time>
      </trkpt>
      <trkpt lat="49.25094" lon="4.02197">
        <ele>129</ele>
        <time>2019-03-30T14:44:10Z</time>
      </trkpt>
      <trkpt lat="49.25095" lon="4.02197">
        <ele>128</ele>
        <time>2019-03-30T14:44:11Z</time>
      </trkpt>
      <trkpt lat="49.25094" lon="4.02197">
        <ele>128</ele>
        <time>2019-03-30T14:44:12Z</time>
      </trkpt>
      <trkpt lat="49.25094" lon="4.02197">
        <ele>128</ele>
        <time>2019-03-30T14:44:13Z</time>
      </trkpt>
      <trkpt lat="49.25094" lon="4.02197">
        <ele>128</ele>
        <time>2019-03-30T14:44:14Z</time>
      </trkpt>
      <trkpt lat="49.25094" lon="4.02197">
        <ele>128</ele>
        <time>2019-03-30T14:44:15Z</time>
      </trkpt>
      <trkpt lat="49.25094" lon="4.02197">
        <ele>128</ele>
        <time>2019-03-30T14:44:16Z</time>
      </trkpt>
      <trkpt lat="49.25094" lon="4.02197">
        <ele>128</ele>
        <time>2019-03-30T14:44:17Z</time>
      </trkpt>
      <trkpt lat="49.25094" lon="4.02197">
        <ele>128</ele>
        <time>2019-03-30T14:44:18Z</time>
      </trkpt>
      <trkpt lat="49.25094" lon="4.02197">
        <ele>128</ele>
        <time>2019-03-30T14:44:19Z</time>
      </trkpt>
      <trkpt lat="49.25094" lon="4.02197">
        <ele>128</ele>
        <time>2019-03-30T14:44:20Z</time>
      </trkpt>
      <trkpt lat="49.25094" lon="4.02197">
        <ele>128</ele>
        <time>2019-03-30T14:44:21Z</time>
      </trkpt>
      <trkpt lat="49.25094" lon="4.02196">
        <ele>128</ele>
        <time>2019-03-30T14:44:22Z</time>
      </trkpt>
      <trkpt lat="49.25094" lon="4.02196">
        <ele>128</ele>
        <time>2019-03-30T14:44:23Z</time>
      </trkpt>
      <trkpt lat="49.25094" lon="4.02195">
        <ele>129</ele>
        <time>2019-03-30T14:44:24Z</time>
      </trkpt>
      <trkpt lat="49.25094" lon="4.02195">
        <ele>128</ele>
        <time>2019-03-30T14:44:25Z</time>
      </trkpt>
      <trkpt lat="49.25094" lon="4.02195">
        <ele>128</ele>
        <time>2019-03-30T14:44:26Z</time>
      </trkpt>
      <trkpt lat="49.25094" lon="4.02195">
        <ele>128</ele>
        <time>2019-03-30T14:44:27Z</time>
      </trkpt>
      <trkpt lat="49.25094" lon="4.02195">
        <ele>128</ele>
        <time>2019-03-30T14:44:28Z</time>
      </trkpt>
      <trkpt lat="49.25094" lon="4.02195">
        <ele>128</ele>
        <time>2019-03-30T14:44:29Z</time>
      </trkpt>
      <trkpt lat="49.25094" lon="4.02195">
        <ele>128</ele>
        <time>2019-03-30T14:44:30Z</time>
      </trkpt>
      <trkpt lat="49.25094" lon="4.02195">
        <ele>128</ele>
        <time>2019-03-30T14:44:31Z</time>
      </trkpt>
      <trkpt lat="49.25094" lon="4.02195">
        <ele>128</ele>
        <time>2019-03-30T14:44:32Z</time>
      </trkpt>
      <trkpt lat="49.25094" lon="4.02195">
        <ele>128</ele>
        <time>2019-03-30T14:44:33Z</time>
      </trkpt>
      <trkpt lat="49.25094" lon="4.02195">
        <ele>128</ele>
        <time>2019-03-30T14:44:34Z</time>
      </trkpt>
      <trkpt lat="49.25094" lon="4.02195">
        <ele>128</ele>
        <time>2019-03-30T14:44:35Z</time>
      </trkpt>
      <trkpt lat="49.25094" lon="4.02195">
        <ele>128</ele>
        <time>2019-03-30T14:44:36Z</time>
      </trkpt>
      <trkpt lat="49.25094" lon="4.02195">
        <ele>128</ele>
        <time>2019-03-30T14:44:37Z</time>
      </trkpt>
      <trkpt lat="49.25094" lon="4.02195">
        <ele>128</ele>
        <time>2019-03-30T14:44:38Z</time>
      </trkpt>
      <trkpt lat="49.25094" lon="4.02195">
        <ele>128</ele>
        <time>2019-03-30T14:44:39Z</time>
      </trkpt>
      <trkpt lat="49.25094" lon="4.02195">
        <ele>128</ele>
        <time>2019-03-30T14:44:40Z</time>
      </trkpt>
      <trkpt lat="49.25094" lon="4.02195">
        <ele>128</ele>
        <time>2019-03-30T14:44:41Z</time>
      </trkpt>
      <trkpt lat="49.25094" lon="4.02195">
        <ele>128</ele>
        <time>2019-03-30T14:44:42Z</time>
      </trkpt>
      <trkpt lat="49.25094" lon="4.02195">
        <ele>128</ele>
        <time>2019-03-30T14:44:43Z</time>
      </trkpt>
      <trkpt lat="49.25094" lon="4.02195">
        <ele>128</ele>
        <time>2019-03-30T14:44:44Z</time>
      </trkpt>
      <trkpt lat="49.25094" lon="4.02195">
        <ele>128</ele>
        <time>2019-03-30T14:44:45Z</time>
      </trkpt>
      <trkpt lat="49.25094" lon="4.02195">
        <ele>128</ele>
        <time>2019-03-30T14:44:46Z</time>
      </trkpt>
      <trkpt lat="49.25094" lon="4.02195">
        <ele>128</ele>
        <time>2019-03-30T14:44:47Z</time>
      </trkpt>
      <trkpt lat="49.25094" lon="4.02195">
        <ele>128</ele>
        <time>2019-03-30T14:44:48Z</time>
      </trkpt>
      <trkpt lat="49.25094" lon="4.02195">
        <ele>128</ele>
        <time>2019-03-30T14:44:49Z</time>
      </trkpt>
      <trkpt lat="49.25094" lon="4.02195">
        <ele>128</ele>
        <time>2019-03-30T14:44:50Z</time>
      </trkpt>
      <trkpt lat="49.25094" lon="4.02195">
        <ele>128</ele>
        <time>2019-03-30T14:44:51Z</time>
      </trkpt>
      <trkpt lat="49.25094" lon="4.02195">
        <ele>128</ele>
        <time>2019-03-30T14:44:52Z</time>
      </trkpt>
      <trkpt lat="49.25094" lon="4.02195">
        <ele>128</ele>
        <time>2019-03-30T14:44:53Z</time>
      </trkpt>
      <trkpt lat="49.25094" lon="4.02195">
        <ele>128</ele>
        <time>2019-03-30T14:44:54Z</time>
      </trkpt>
      <trkpt lat="49.25094" lon="4.02195">
        <ele>128</ele>
        <time>2019-03-30T14:44:55Z</time>
      </trkpt>
      <trkpt lat="49.25094" lon="4.02195">
        <ele>128</ele>
        <time>2019-03-30T14:44:56Z</time>
      </trkpt>
      <trkpt lat="49.25094" lon="4.02195">
        <ele>128</ele>
        <time>2019-03-30T14:44:57Z</time>
      </trkpt>
      <trkpt lat="49.25094" lon="4.02195">
        <ele>128</ele>
        <time>2019-03-30T14:44:58Z</time>
      </trkpt>
      <trkpt lat="49.25094" lon="4.02195">
        <ele>128</ele>
        <time>2019-03-30T14:44:59Z</time>
      </trkpt>
      <trkpt lat="49.25094" lon="4.02195">
        <ele>128</ele>
        <time>2019-03-30T14:45:00Z</time>
      </trkpt>
      <trkpt lat="49.25094" lon="4.02195">
        <ele>128</ele>
        <time>2019-03-30T14:45:01Z</time>
      </trkpt>
      <trkpt lat="49.25094" lon="4.02195">
        <ele>128</ele>
        <time>2019-03-30T14:45:02Z</time>
      </trkpt>
      <trkpt lat="49.25094" lon="4.02195">
        <ele>128</ele>
        <time>2019-03-30T14:45:03Z</time>
      </trkpt>
      <trkpt lat="49.25094" lon="4.02195">
        <ele>128</ele>
        <time>2019-03-30T14:45:04Z</time>
      </trkpt>
      <trkpt lat="49.25094" lon="4.02195">
        <ele>128</ele>
        <time>2019-03-30T14:45:05Z</time>
      </trkpt>
      <trkpt lat="49.25093" lon="4.02193">
        <ele>129</ele>
        <time>2019-03-30T14:45:06Z</time>
      </trkpt>
      <trkpt lat="49.25092" lon="4.0219">
        <ele>128</ele>
        <time>2019-03-30T14:45:07Z</time>
      </trkpt>
      <trkpt lat="49.25091" lon="4.02188">
        <ele>128</ele>
        <time>2019-03-30T14:45:08Z</time>
      </trkpt>
      <trkpt lat="49.2509" lon="4.02185">
        <ele>128</ele>
        <time>2019-03-30T14:45:09Z</time>
      </trkpt>
      <trkpt lat="49.25089" lon="4.02182">
        <ele>129</ele>
        <time>2019-03-30T14:45:10Z</time>
      </trkpt>
      <trkpt lat="49.25088" lon="4.02181">
        <ele>129</ele>
        <time>2019-03-30T14:45:11Z</time>
      </trkpt>
      <trkpt lat="49.25087" lon="4.02179">
        <ele>129</ele>
        <time>2019-03-30T14:45:12Z</time>
      </trkpt>
      <trkpt lat="49.25087" lon="4.02176">
        <ele>129</ele>
        <time>2019-03-30T14:45:13Z</time>
      </trkpt>
      <trkpt lat="49.25086" lon="4.02173">
        <ele>129</ele>
        <time>2019-03-30T14:45:14Z</time>
      </trkpt>
      <trkpt lat="49.25085" lon="4.02171">
        <ele>129</ele>
        <time>2019-03-30T14:45:15Z</time>
      </trkpt>
      <trkpt lat="49.25084" lon="4.02168">
        <ele>128</ele>
        <time>2019-03-30T14:45:16Z</time>
      </trkpt>
      <trkpt lat="49.25083" lon="4.02166">
        <ele>128</ele>
        <time>2019-03-30T14:45:17Z</time>
      </trkpt>
      <trkpt lat="49.25082" lon="4.02162">
        <ele>128</ele>
        <time>2019-03-30T14:45:18Z</time>
      </trkpt>
      <trkpt lat="49.25081" lon="4.0216">
        <ele>128</ele>
        <time>2019-03-30T14:45:19Z</time>
      </trkpt>
      <trkpt lat="49.2508" lon="4.02157">
        <ele>128</ele>
        <time>2019-03-30T14:45:20Z</time>
      </trkpt>
      <trkpt lat="49.25079" lon="4.02154">
        <ele>128</ele>
        <time>2019-03-30T14:45:21Z</time>
      </trkpt>
      <trkpt lat="49.25078" lon="4.02151">
        <ele>128</ele>
        <time>2019-03-30T14:45:22Z</time>
      </trkpt>
      <trkpt lat="49.25077" lon="4.0215">
        <ele>128</ele>
        <time>2019-03-30T14:45:23Z</time>
      </trkpt>
      <trkpt lat="49.25077" lon="4.02148">
        <ele>128</ele>
        <time>2019-03-30T14:45:24Z</time>
      </trkpt>
      <trkpt lat="49.25076" lon="4.02146">
        <ele>128</ele>
        <time>2019-03-30T14:45:25Z</time>
      </trkpt>
      <trkpt lat="49.25076" lon="4.02144">
        <ele>128</ele>
        <time>2019-03-30T14:45:26Z</time>
      </trkpt>
      <trkpt lat="49.25075" lon="4.02142">
        <ele>128</ele>
        <time>2019-03-30T14:45:27Z</time>
      </trkpt>
      <trkpt lat="49.25074" lon="4.0214">
        <ele>128</ele>
        <time>2019-03-30T14:45:28Z</time>
      </trkpt>
      <trkpt lat="49.25073" lon="4.02138">
        <ele>128</ele>
        <time>2019-03-30T14:45:29Z</time>
      </trkpt>
      <trkpt lat="49.25071" lon="4.02135">
        <ele>128</ele>
        <time>2019-03-30T14:45:30Z</time>
      </trkpt>
      <trkpt lat="49.2507" lon="4.02132">
        <ele>128</ele>
        <time>2019-03-30T14:45:31Z</time>
      </trkpt>
      <trkpt lat="49.25069" lon="4.02128">
        <ele>129</ele>
        <time>2019-03-30T14:45:32Z</time>
      </trkpt>
      <trkpt lat="49.25068" lon="4.02125">
        <ele>129</ele>
        <time>2019-03-30T14:45:33Z</time>
      </trkpt>
      <trkpt lat="49.25068" lon="4.02122">
        <ele>129</ele>
        <time>2019-03-30T14:45:34Z</time>
      </trkpt>
      <trkpt lat="49.25067" lon="4.02119">
        <ele>129</ele>
        <time>2019-03-30T14:45:35Z</time>
      </trkpt>
      <trkpt lat="49.25066" lon="4.02116">
        <ele>129</ele>
        <time>2019-03-30T14:45:36Z</time>
      </trkpt>
      <trkpt lat="49.25065" lon="4.02113">
        <ele>129</ele>
        <time>2019-03-30T14:45:37Z</time>
      </trkpt>
      <trkpt lat="49.25065" lon="4.0211">
        <ele>129</ele>
        <time>2019-03-30T14:45:38Z</time>
      </trkpt>
      <trkpt lat="49.25064" lon="4.02107">
        <ele>129</ele>
        <time>2019-03-30T14:45:39Z</time>
      </trkpt>
      <trkpt lat="49.25063" lon="4.02103">
        <ele>129</ele>
        <time>2019-03-30T14:45:40Z</time>
      </trkpt>
      <trkpt lat="49.25062" lon="4.021">
        <ele>129</ele>
        <time>2019-03-30T14:45:41Z</time>
      </trkpt>
      <trkpt lat="49.2506" lon="4.02098">
        <ele>129</ele>
        <time>2019-03-30T14:45:42Z</time>
      </trkpt>
      <trkpt lat="49.25059" lon="4.02097">
        <ele>129</ele>
        <time>2019-03-30T14:45:43Z</time>
      </trkpt>
      <trkpt lat="49.25057" lon="4.02095">
        <ele>129</ele>
        <time>2019-03-30T14:45:44Z</time>
      </trkpt>
      <trkpt lat="49.25056" lon="4.02092">
        <ele>129</ele>
        <time>2019-03-30T14:45:45Z</time>
      </trkpt>
      <trkpt lat="49.25055" lon="4.02089">
        <ele>129</ele>
        <time>2019-03-30T14:45:46Z</time>
      </trkpt>
      <trkpt lat="49.25054" lon="4.02085">
        <ele>129</ele>
        <time>2019-03-30T14:45:47Z</time>
      </trkpt>
      <trkpt lat="49.25052" lon="4.02082">
        <ele>130</ele>
        <time>2019-03-30T14:45:48Z</time>
      </trkpt>
      <trkpt lat="49.2505" lon="4.02079">
        <ele>130</ele>
        <time>2019-03-30T14:45:49Z</time>
      </trkpt>
      <trkpt lat="49.25049" lon="4.02076">
        <ele>130</ele>
        <time>2019-03-30T14:45:50Z</time>
      </trkpt>
      <trkpt lat="49.25049" lon="4.02071">
        <ele>130</ele>
        <time>2019-03-30T14:45:51Z</time>
      </trkpt>
      <trkpt lat="49.25048" lon="4.02067">
        <ele>129</ele>
        <time>2019-03-30T14:45:52Z</time>
      </trkpt>
      <trkpt lat="49.25047" lon="4.02062">
        <ele>129</ele>
        <time>2019-03-30T14:45:53Z</time>
      </trkpt>
      <trkpt lat="49.25046" lon="4.02057">
        <ele>129</ele>
        <time>2019-03-30T14:45:54Z</time>
      </trkpt>
      <trkpt lat="49.25044" lon="4.02051">
        <ele>129</ele>
        <time>2019-03-30T14:45:55Z</time>
      </trkpt>
      <trkpt lat="49.25042" lon="4.02045">
        <ele>129</ele>
        <time>2019-03-30T14:45:56Z</time>
      </trkpt>
      <trkpt lat="49.25039" lon="4.02039">
        <ele>129</ele>
        <time>2019-03-30T14:45:57Z</time>
      </trkpt>
      <trkpt lat="49.25036" lon="4.02034">
        <ele>128</ele>
        <time>2019-03-30T14:45:58Z</time>
      </trkpt>
      <trkpt lat="49.25034" lon="4.02029">
        <ele>128</ele>
        <time>2019-03-30T14:45:59Z</time>
      </trkpt>
      <trkpt lat="49.25031" lon="4.02024">
        <ele>127</ele>
        <time>2019-03-30T14:46:00Z</time>
      </trkpt>
      <trkpt lat="49.25029" lon="4.02019">
        <ele>128</ele>
        <time>2019-03-30T14:46:01Z</time>
      </trkpt>
      <trkpt lat="49.25026" lon="4.02013">
        <ele>128</ele>
        <time>2019-03-30T14:46:02Z</time>
      </trkpt>
      <trkpt lat="49.25024" lon="4.02007">
        <ele>127</ele>
        <time>2019-03-30T14:46:03Z</time>
      </trkpt>
      <trkpt lat="49.25023" lon="4.02002">
        <ele>127</ele>
        <time>2019-03-30T14:46:04Z</time>
      </trkpt>
      <trkpt lat="49.25022" lon="4.01998">
        <ele>127</ele>
        <time>2019-03-30T14:46:05Z</time>
      </trkpt>
      <trkpt lat="49.25021" lon="4.01993">
        <ele>127</ele>
        <time>2019-03-30T14:46:06Z</time>
      </trkpt>
      <trkpt lat="49.25019" lon="4.01988">
        <ele>127</ele>
        <time>2019-03-30T14:46:07Z</time>
      </trkpt>
      <trkpt lat="49.25017" lon="4.01983">
        <ele>127</ele>
        <time>2019-03-30T14:46:08Z</time>
      </trkpt>
      <trkpt lat="49.25016" lon="4.01979">
        <ele>126</ele>
        <time>2019-03-30T14:46:09Z</time>
      </trkpt>
      <trkpt lat="49.25013" lon="4.01975">
        <ele>126</ele>
        <time>2019-03-30T14:46:10Z</time>
      </trkpt>
      <trkpt lat="49.2501" lon="4.01972">
        <ele>126</ele>
        <time>2019-03-30T14:46:11Z</time>
      </trkpt>
      <trkpt lat="49.25007" lon="4.0197">
        <ele>126</ele>
        <time>2019-03-30T14:46:12Z</time>
      </trkpt>
      <trkpt lat="49.25004" lon="4.01968">
        <ele>127</ele>
        <time>2019-03-30T14:46:13Z</time>
      </trkpt>
      <trkpt lat="49.25002" lon="4.01968">
        <ele>127</ele>
        <time>2019-03-30T14:46:14Z</time>
      </trkpt>
      <trkpt lat="49.25001" lon="4.01966">
        <ele>127</ele>
        <time>2019-03-30T14:46:15Z</time>
      </trkpt>
      <trkpt lat="49.25" lon="4.01965">
        <ele>128</ele>
        <time>2019-03-30T14:46:16Z</time>
      </trkpt>
      <trkpt lat="49.25" lon="4.01963">
        <ele>128</ele>
        <time>2019-03-30T14:46:17Z</time>
      </trkpt>
      <trkpt lat="49.25002" lon="4.0196">
        <ele>128</ele>
        <time>2019-03-30T14:46:18Z</time>
      </trkpt>
      <trkpt lat="49.25003" lon="4.01956">
        <ele>129</ele>
        <time>2019-03-30T14:46:19Z</time>
      </trkpt>
      <trkpt lat="49.25004" lon="4.01954">
        <ele>129</ele>
        <time>2019-03-30T14:46:20Z</time>
      </trkpt>
      <trkpt lat="49.25004" lon="4.01951">
        <ele>129</ele>
        <time>2019-03-30T14:46:21Z</time>
      </trkpt>
      <trkpt lat="49.25005" lon="4.01948">
        <ele>129</ele>
        <time>2019-03-30T14:46:22Z</time>
      </trkpt>
      <trkpt lat="49.25005" lon="4.01945">
        <ele>128</ele>
        <time>2019-03-30T14:46:23Z</time>
      </trkpt>
      <trkpt lat="49.25006" lon="4.01942">
        <ele>128</ele>
        <time>2019-03-30T14:46:24Z</time>
      </trkpt>
      <trkpt lat="49.25005" lon="4.01939">
        <ele>127</ele>
        <time>2019-03-30T14:46:25Z</time>
      </trkpt>
      <trkpt lat="49.25004" lon="4.01936">
        <ele>127</ele>
        <time>2019-03-30T14:46:26Z</time>
      </trkpt>
      <trkpt lat="49.25004" lon="4.01932">
        <ele>127</ele>
        <time>2019-03-30T14:46:27Z</time>
      </trkpt>
      <trkpt lat="49.25003" lon="4.01929">
        <ele>126</ele>
        <time>2019-03-30T14:46:28Z</time>
      </trkpt>
      <trkpt lat="49.25002" lon="4.01924">
        <ele>126</ele>
        <time>2019-03-30T14:46:29Z</time>
      </trkpt>
      <trkpt lat="49.25" lon="4.0192">
        <ele>125</ele>
        <time>2019-03-30T14:46:30Z</time>
      </trkpt>
      <trkpt lat="49.24999" lon="4.01915">
        <ele>125</ele>
        <time>2019-03-30T14:46:31Z</time>
      </trkpt>
      <trkpt lat="49.24997" lon="4.01911">
        <ele>125</ele>
        <time>2019-03-30T14:46:32Z</time>
      </trkpt>
      <trkpt lat="49.24995" lon="4.01907">
        <ele>125</ele>
        <time>2019-03-30T14:46:33Z</time>
      </trkpt>
      <trkpt lat="49.24994" lon="4.01904">
        <ele>125</ele>
        <time>2019-03-30T14:46:34Z</time>
      </trkpt>
      <trkpt lat="49.24992" lon="4.01901">
        <ele>125</ele>
        <time>2019-03-30T14:46:35Z</time>
      </trkpt>
      <trkpt lat="49.24991" lon="4.01898">
        <ele>125</ele>
        <time>2019-03-30T14:46:36Z</time>
      </trkpt>
      <trkpt lat="49.2499" lon="4.01894">
        <ele>124</ele>
        <time>2019-03-30T14:46:37Z</time>
      </trkpt>
      <trkpt lat="49.24988" lon="4.01891">
        <ele>124</ele>
        <time>2019-03-30T14:46:38Z</time>
      </trkpt>
      <trkpt lat="49.24986" lon="4.01888">
        <ele>124</ele>
        <time>2019-03-30T14:46:39Z</time>
      </trkpt>
      <trkpt lat="49.24985" lon="4.01884">
        <ele>123</ele>
        <time>2019-03-30T14:46:40Z</time>
      </trkpt>
      <trkpt lat="49.24984" lon="4.01881">
        <ele>123</ele>
        <time>2019-03-30T14:46:41Z</time>
      </trkpt>
      <trkpt lat="49.24982" lon="4.01877">
        <ele>123</ele>
        <time>2019-03-30T14:46:42Z</time>
      </trkpt>
      <trkpt lat="49.24981" lon="4.01874">
        <ele>123</ele>
        <time>2019-03-30T14:46:43Z</time>
      </trkpt>
      <trkpt lat="49.24979" lon="4.01871">
        <ele>123</ele>
        <time>2019-03-30T14:46:44Z</time>
      </trkpt>
      <trkpt lat="49.24977" lon="4.01868">
        <ele>123</ele>
        <time>2019-03-30T14:46:45Z</time>
      </trkpt>
      <trkpt lat="49.24976" lon="4.01865">
        <ele>123</ele>
        <time>2019-03-30T14:46:46Z</time>
      </trkpt>
      <trkpt lat="49.24976" lon="4.01862">
        <ele>123</ele>
        <time>2019-03-30T14:46:47Z</time>
      </trkpt>
      <trkpt lat="49.24975" lon="4.01858">
        <ele>123</ele>
        <time>2019-03-30T14:46:48Z</time>
      </trkpt>
      <trkpt lat="49.24974" lon="4.01856">
        <ele>124</ele>
        <time>2019-03-30T14:46:49Z</time>
      </trkpt>
      <trkpt lat="49.24973" lon="4.01853">
        <ele>124</ele>
        <time>2019-03-30T14:46:50Z</time>
      </trkpt>
      <trkpt lat="49.24972" lon="4.0185">
        <ele>124</ele>
        <time>2019-03-30T14:46:51Z</time>
      </trkpt>
      <trkpt lat="49.24971" lon="4.01848">
        <ele>124</ele>
        <time>2019-03-30T14:46:52Z</time>
      </trkpt>
      <trkpt lat="49.24971" lon="4.01845">
        <ele>125</ele>
        <time>2019-03-30T14:46:53Z</time>
      </trkpt>
      <trkpt lat="49.24971" lon="4.01841">
        <ele>124</ele>
        <time>2019-03-30T14:46:54Z</time>
      </trkpt>
      <trkpt lat="49.2497" lon="4.01839">
        <ele>124</ele>
        <time>2019-03-30T14:46:55Z</time>
      </trkpt>
      <trkpt lat="49.24969" lon="4.01838">
        <ele>125</ele>
        <time>2019-03-30T14:46:56Z</time>
      </trkpt>
      <trkpt lat="49.24968" lon="4.01836">
        <ele>125</ele>
        <time>2019-03-30T14:46:57Z</time>
      </trkpt>
      <trkpt lat="49.24967" lon="4.01833">
        <ele>125</ele>
        <time>2019-03-30T14:46:58Z</time>
      </trkpt>
      <trkpt lat="49.24966" lon="4.0183">
        <ele>125</ele>
        <time>2019-03-30T14:46:59Z</time>
      </trkpt>
      <trkpt lat="49.24964" lon="4.01827">
        <ele>125</ele>
        <time>2019-03-30T14:47:00Z</time>
      </trkpt>
      <trkpt lat="49.24963" lon="4.01825">
        <ele>125</ele>
        <time>2019-03-30T14:47:01Z</time>
      </trkpt>
      <trkpt lat="49.24962" lon="4.01822">
        <ele>125</ele>
        <time>2019-03-30T14:47:02Z</time>
      </trkpt>
      <trkpt lat="49.24961" lon="4.01819">
        <ele>125</ele>
        <time>2019-03-30T14:47:03Z</time>
      </trkpt>
      <trkpt lat="49.24959" lon="4.01816">
        <ele>125</ele>
        <time>2019-03-30T14:47:04Z</time>
      </trkpt>
      <trkpt lat="49.24957" lon="4.01813">
        <ele>125</ele>
        <time>2019-03-30T14:47:05Z</time>
      </trkpt>
      <trkpt lat="49.24956" lon="4.01809">
        <ele>126</ele>
        <time>2019-03-30T14:47:06Z</time>
      </trkpt>
      <trkpt lat="49.24954" lon="4.01805">
        <ele>125</ele>
        <time>2019-03-30T14:47:07Z</time>
      </trkpt>
      <trkpt lat="49.24952" lon="4.018">
        <ele>125</ele>
        <time>2019-03-30T14:47:08Z</time>
      </trkpt>
      <trkpt lat="49.2495" lon="4.01796">
        <ele>124</ele>
        <time>2019-03-30T14:47:09Z</time>
      </trkpt>
      <trkpt lat="49.24948" lon="4.01791">
        <ele>124</ele>
        <time>2019-03-30T14:47:10Z</time>
      </trkpt>
      <trkpt lat="49.24946" lon="4.01786">
        <ele>124</ele>
        <time>2019-03-30T14:47:11Z</time>
      </trkpt>
      <trkpt lat="49.24944" lon="4.01781">
        <ele>124</ele>
        <time>2019-03-30T14:47:12Z</time>
      </trkpt>
      <trkpt lat="49.24943" lon="4.01776">
        <ele>123</ele>
        <time>2019-03-30T14:47:13Z</time>
      </trkpt>
      <trkpt lat="49.24941" lon="4.01769">
        <ele>124</ele>
        <time>2019-03-30T14:47:14Z</time>
      </trkpt>
      <trkpt lat="49.24939" lon="4.01764">
        <ele>125</ele>
        <time>2019-03-30T14:47:15Z</time>
      </trkpt>
      <trkpt lat="49.24938" lon="4.01758">
        <ele>125</ele>
        <time>2019-03-30T14:47:16Z</time>
      </trkpt>
      <trkpt lat="49.24936" lon="4.01752">
        <ele>125</ele>
        <time>2019-03-30T14:47:17Z</time>
      </trkpt>
      <trkpt lat="49.24934" lon="4.01747">
        <ele>124</ele>
        <time>2019-03-30T14:47:18Z</time>
      </trkpt>
      <trkpt lat="49.24932" lon="4.01741">
        <ele>124</ele>
        <time>2019-03-30T14:47:19Z</time>
      </trkpt>
      <trkpt lat="49.2493" lon="4.01735">
        <ele>124</ele>
        <time>2019-03-30T14:47:20Z</time>
      </trkpt>
      <trkpt lat="49.24928" lon="4.01729">
        <ele>124</ele>
        <time>2019-03-30T14:47:21Z</time>
      </trkpt>
      <trkpt lat="49.24926" lon="4.01724">
        <ele>124</ele>
        <time>2019-03-30T14:47:22Z</time>
      </trkpt>
      <trkpt lat="49.24924" lon="4.01718">
        <ele>124</ele>
        <time>2019-03-30T14:47:23Z</time>
      </trkpt>
      <trkpt lat="49.24922" lon="4.01713">
        <ele>124</ele>
        <time>2019-03-30T14:47:24Z</time>
      </trkpt>
      <trkpt lat="49.24921" lon="4.01707">
        <ele>123</ele>
        <time>2019-03-30T14:47:25Z</time>
      </trkpt>
      <trkpt lat="49.24919" lon="4.01704">
        <ele>124</ele>
        <time>2019-03-30T14:47:26Z</time>
      </trkpt>
      <trkpt lat="49.24919" lon="4.017">
        <ele>124</ele>
        <time>2019-03-30T14:47:27Z</time>
      </trkpt>
      <trkpt lat="49.24919" lon="4.01697">
        <ele>124</ele>
        <time>2019-03-30T14:47:28Z</time>
      </trkpt>
      <trkpt lat="49.24918" lon="4.01694">
        <ele>123</ele>
        <time>2019-03-30T14:47:29Z</time>
      </trkpt>
      <trkpt lat="49.24918" lon="4.01691">
        <ele>123</ele>
        <time>2019-03-30T14:47:30Z</time>
      </trkpt>
      <trkpt lat="49.24917" lon="4.01687">
        <ele>123</ele>
        <time>2019-03-30T14:47:31Z</time>
      </trkpt>
      <trkpt lat="49.24917" lon="4.01684">
        <ele>123</ele>
        <time>2019-03-30T14:47:32Z</time>
      </trkpt>
      <trkpt lat="49.24916" lon="4.01681">
        <ele>123</ele>
        <time>2019-03-30T14:47:33Z</time>
      </trkpt>
      <trkpt lat="49.24916" lon="4.01678">
        <ele>123</ele>
        <time>2019-03-30T14:47:34Z</time>
      </trkpt>
      <trkpt lat="49.24915" lon="4.01674">
        <ele>123</ele>
        <time>2019-03-30T14:47:35Z</time>
      </trkpt>
      <trkpt lat="49.24914" lon="4.01672">
        <ele>123</ele>
        <time>2019-03-30T14:47:36Z</time>
      </trkpt>
      <trkpt lat="49.24912" lon="4.01669">
        <ele>123</ele>
        <time>2019-03-30T14:47:37Z</time>
      </trkpt>
      <trkpt lat="49.24912" lon="4.01667">
        <ele>123</ele>
        <time>2019-03-30T14:47:38Z</time>
      </trkpt>
      <trkpt lat="49.24912" lon="4.01664">
        <ele>123</ele>
        <time>2019-03-30T14:47:39Z</time>
      </trkpt>
      <trkpt lat="49.24912" lon="4.01659">
        <ele>123</ele>
        <time>2019-03-30T14:47:40Z</time>
      </trkpt>
      <trkpt lat="49.24912" lon="4.01656">
        <ele>124</ele>
        <time>2019-03-30T14:47:41Z</time>
      </trkpt>
      <trkpt lat="49.24912" lon="4.01651">
        <ele>124</ele>
        <time>2019-03-30T14:47:42Z</time>
      </trkpt>
      <trkpt lat="49.24912" lon="4.01648">
        <ele>123</ele>
        <time>2019-03-30T14:47:43Z</time>
      </trkpt>
      <trkpt lat="49.24912" lon="4.01645">
        <ele>123</ele>
        <time>2019-03-30T14:47:44Z</time>
      </trkpt>
      <trkpt lat="49.24912" lon="4.01642">
        <ele>123</ele>
        <time>2019-03-30T14:47:45Z</time>
      </trkpt>
      <trkpt lat="49.24911" lon="4.01639">
        <ele>122</ele>
        <time>2019-03-30T14:47:46Z</time>
      </trkpt>
      <trkpt lat="49.24911" lon="4.01636">
        <ele>122</ele>
        <time>2019-03-30T14:47:47Z</time>
      </trkpt>
      <trkpt lat="49.2491" lon="4.01631">
        <ele>122</ele>
        <time>2019-03-30T14:47:48Z</time>
      </trkpt>
      <trkpt lat="49.2491" lon="4.01627">
        <ele>122</ele>
        <time>2019-03-30T14:47:49Z</time>
      </trkpt>
      <trkpt lat="49.2491" lon="4.01623">
        <ele>122</ele>
        <time>2019-03-30T14:47:50Z</time>
      </trkpt>
      <trkpt lat="49.24909" lon="4.01618">
        <ele>122</ele>
        <time>2019-03-30T14:47:51Z</time>
      </trkpt>
      <trkpt lat="49.24908" lon="4.01613">
        <ele>121</ele>
        <time>2019-03-30T14:47:52Z</time>
      </trkpt>
      <trkpt lat="49.24907" lon="4.01608">
        <ele>122</ele>
        <time>2019-03-30T14:47:53Z</time>
      </trkpt>
      <trkpt lat="49.24906" lon="4.01603">
        <ele>122</ele>
        <time>2019-03-30T14:47:54Z</time>
      </trkpt>
      <trkpt lat="49.24905" lon="4.01597">
        <ele>122</ele>
        <time>2019-03-30T14:47:55Z</time>
      </trkpt>
      <trkpt lat="49.24904" lon="4.01592">
        <ele>122</ele>
        <time>2019-03-30T14:47:56Z</time>
      </trkpt>
      <trkpt lat="49.24903" lon="4.01586">
        <ele>121</ele>
        <time>2019-03-30T14:47:57Z</time>
      </trkpt>
      <trkpt lat="49.24903" lon="4.0158">
        <ele>121</ele>
        <time>2019-03-30T14:47:58Z</time>
      </trkpt>
      <trkpt lat="49.24901" lon="4.01575">
        <ele>122</ele>
        <time>2019-03-30T14:47:59Z</time>
      </trkpt>
      <trkpt lat="49.24901" lon="4.01572">
        <ele>122</ele>
        <time>2019-03-30T14:48:00Z</time>
      </trkpt>
      <trkpt lat="49.249" lon="4.01568">
        <ele>122</ele>
        <time>2019-03-30T14:48:01Z</time>
      </trkpt>
      <trkpt lat="49.24901" lon="4.01565">
        <ele>122</ele>
        <time>2019-03-30T14:48:02Z</time>
      </trkpt>
      <trkpt lat="49.249" lon="4.01563">
        <ele>122</ele>
        <time>2019-03-30T14:48:03Z</time>
      </trkpt>
      <trkpt lat="49.24901" lon="4.01563">
        <ele>122</ele>
        <time>2019-03-30T14:48:04Z</time>
      </trkpt>
      <trkpt lat="49.24901" lon="4.01562">
        <ele>122</ele>
        <time>2019-03-30T14:48:05Z</time>
      </trkpt>
      <trkpt lat="49.24901" lon="4.01562">
        <ele>122</ele>
        <time>2019-03-30T14:48:06Z</time>
      </trkpt>
      <trkpt lat="49.24901" lon="4.01562">
        <ele>122</ele>
        <time>2019-03-30T14:48:07Z</time>
      </trkpt>
      <trkpt lat="49.24901" lon="4.01562">
        <ele>122</ele>
        <time>2019-03-30T14:48:08Z</time>
      </trkpt>
      <trkpt lat="49.24901" lon="4.01562">
        <ele>122</ele>
        <time>2019-03-30T14:48:09Z</time>
      </trkpt>
      <trkpt lat="49.24901" lon="4.01562">
        <ele>122</ele>
        <time>2019-03-30T14:48:10Z</time>
      </trkpt>
      <trkpt lat="49.24901" lon="4.01562">
        <ele>122</ele>
        <time>2019-03-30T14:48:11Z</time>
      </trkpt>
      <trkpt lat="49.24901" lon="4.01562">
        <ele>122</ele>
        <time>2019-03-30T14:48:12Z</time>
      </trkpt>
      <trkpt lat="49.24901" lon="4.01562">
        <ele>122</ele>
        <time>2019-03-30T14:48:13Z</time>
      </trkpt>
      <trkpt lat="49.24901" lon="4.01562">
        <ele>122</ele>
        <time>2019-03-30T14:48:14Z</time>
      </trkpt>
      <trkpt lat="49.24901" lon="4.01562">
        <ele>122</ele>
        <time>2019-03-30T14:48:15Z</time>
      </trkpt>
      <trkpt lat="49.24901" lon="4.01562">
        <ele>122</ele>
        <time>2019-03-30T14:48:16Z</time>
      </trkpt>
      <trkpt lat="49.24901" lon="4.01562">
        <ele>122</ele>
        <time>2019-03-30T14:48:17Z</time>
      </trkpt>
      <trkpt lat="49.24901" lon="4.01562">
        <ele>122</ele>
        <time>2019-03-30T14:48:18Z</time>
      </trkpt>
      <trkpt lat="49.24901" lon="4.01562">
        <ele>122</ele>
        <time>2019-03-30T14:48:19Z</time>
      </trkpt>
      <trkpt lat="49.24901" lon="4.01562">
        <ele>122</ele>
        <time>2019-03-30T14:48:20Z</time>
      </trkpt>
      <trkpt lat="49.24901" lon="4.01562">
        <ele>122</ele>
        <time>2019-03-30T14:48:21Z</time>
      </trkpt>
      <trkpt lat="49.24901" lon="4.01562">
        <ele>122</ele>
        <time>2019-03-30T14:48:22Z</time>
      </trkpt>
      <trkpt lat="49.24901" lon="4.01562">
        <ele>122</ele>
        <time>2019-03-30T14:48:23Z</time>
      </trkpt>
      <trkpt lat="49.24901" lon="4.01562">
        <ele>122</ele>
        <time>2019-03-30T14:48:24Z</time>
      </trkpt>
      <trkpt lat="49.24901" lon="4.0156">
        <ele>122</ele>
        <time>2019-03-30T14:48:25Z</time>
      </trkpt>
      <trkpt lat="49.24901" lon="4.01558">
        <ele>122</ele>
        <time>2019-03-30T14:48:26Z</time>
      </trkpt>
      <trkpt lat="49.249" lon="4.01554">
        <ele>122</ele>
        <time>2019-03-30T14:48:27Z</time>
      </trkpt>
      <trkpt lat="49.24899" lon="4.01551">
        <ele>122</ele>
        <time>2019-03-30T14:48:28Z</time>
      </trkpt>
      <trkpt lat="49.24898" lon="4.01548">
        <ele>122</ele>
        <time>2019-03-30T14:48:29Z</time>
      </trkpt>
      <trkpt lat="49.24897" lon="4.01544">
        <ele>121</ele>
        <time>2019-03-30T14:48:30Z</time>
      </trkpt>
      <trkpt lat="49.24896" lon="4.01541">
        <ele>121</ele>
        <time>2019-03-30T14:48:31Z</time>
      </trkpt>
      <trkpt lat="49.24895" lon="4.01538">
        <ele>121</ele>
        <time>2019-03-30T14:48:32Z</time>
      </trkpt>
      <trkpt lat="49.24894" lon="4.01535">
        <ele>121</ele>
        <time>2019-03-30T14:48:33Z</time>
      </trkpt>
      <trkpt lat="49.24893" lon="4.01532">
        <ele>121</ele>
        <time>2019-03-30T14:48:34Z</time>
      </trkpt>
      <trkpt lat="49.24892" lon="4.01528">
        <ele>120</ele>
        <time>2019-03-30T14:48:35Z</time>
      </trkpt>
      <trkpt lat="49.24891" lon="4.01524">
        <ele>121</ele>
        <time>2019-03-30T14:48:36Z</time>
      </trkpt>
      <trkpt lat="49.2489" lon="4.0152">
        <ele>121</ele>
        <time>2019-03-30T14:48:37Z</time>
      </trkpt>
      <trkpt lat="49.2489" lon="4.01515">
        <ele>122</ele>
        <time>2019-03-30T14:48:38Z</time>
      </trkpt>
      <trkpt lat="49.2489" lon="4.01511">
        <ele>122</ele>
        <time>2019-03-30T14:48:39Z</time>
      </trkpt>
      <trkpt lat="49.2489" lon="4.01506">
        <ele>122</ele>
        <time>2019-03-30T14:48:40Z</time>
      </trkpt>
      <trkpt lat="49.24889" lon="4.01502">
        <ele>123</ele>
        <time>2019-03-30T14:48:41Z</time>
      </trkpt>
      <trkpt lat="49.24888" lon="4.01497">
        <ele>123</ele>
        <time>2019-03-30T14:48:42Z</time>
      </trkpt>
      <trkpt lat="49.24886" lon="4.01492">
        <ele>123</ele>
        <time>2019-03-30T14:48:43Z</time>
      </trkpt>
      <trkpt lat="49.24885" lon="4.01486">
        <ele>123</ele>
        <time>2019-03-30T14:48:44Z</time>
      </trkpt>
      <trkpt lat="49.24884" lon="4.01482">
        <ele>123</ele>
        <time>2019-03-30T14:48:45Z</time>
      </trkpt>
      <trkpt lat="49.24884" lon="4.01476">
        <ele>123</ele>
        <time>2019-03-30T14:48:46Z</time>
      </trkpt>
      <trkpt lat="49.24884" lon="4.01471">
        <ele>123</ele>
        <time>2019-03-30T14:48:47Z</time>
      </trkpt>
      <trkpt lat="49.24883" lon="4.01466">
        <ele>123</ele>
        <time>2019-03-30T14:48:48Z</time>
      </trkpt>
      <trkpt lat="49.24883" lon="4.01462">
        <ele>123</ele>
        <time>2019-03-30T14:48:49Z</time>
      </trkpt>
      <trkpt lat="49.24882" lon="4.01458">
        <ele>124</ele>
        <time>2019-03-30T14:48:50Z</time>
      </trkpt>
      <trkpt lat="49.24881" lon="4.01454">
        <ele>125</ele>
        <time>2019-03-30T14:48:51Z</time>
      </trkpt>
      <trkpt lat="49.24881" lon="4.01449">
        <ele>125</ele>
        <time>2019-03-30T14:48:52Z</time>
      </trkpt>
      <trkpt lat="49.24879" lon="4.01444">
        <ele>125</ele>
        <time>2019-03-30T14:48:53Z</time>
      </trkpt>
      <trkpt lat="49.24879" lon="4.0144">
        <ele>125</ele>
        <time>2019-03-30T14:48:54Z</time>
      </trkpt>
      <trkpt lat="49.24878" lon="4.01435">
        <ele>125</ele>
        <time>2019-03-30T14:48:55Z</time>
      </trkpt>
      <trkpt lat="49.24878" lon="4.01431">
        <ele>126</ele>
        <time>2019-03-30T14:48:56Z</time>
      </trkpt>
      <trkpt lat="49.24877" lon="4.01426">
        <ele>126</ele>
        <time>2019-03-30T14:48:57Z</time>
      </trkpt>
      <trkpt lat="49.24876" lon="4.01422">
        <ele>126</ele>
        <time>2019-03-30T14:48:58Z</time>
      </trkpt>
      <trkpt lat="49.24876" lon="4.01418">
        <ele>126</ele>
        <time>2019-03-30T14:48:59Z</time>
      </trkpt>
      <trkpt lat="49.24876" lon="4.01414">
        <ele>125</ele>
        <time>2019-03-30T14:49:00Z</time>
      </trkpt>
      <trkpt lat="49.24876" lon="4.01409">
        <ele>125</ele>
        <time>2019-03-30T14:49:01Z</time>
      </trkpt>
      <trkpt lat="49.24875" lon="4.01406">
        <ele>126</ele>
        <time>2019-03-30T14:49:02Z</time>
      </trkpt>
      <trkpt lat="49.24875" lon="4.01403">
        <ele>126</ele>
        <time>2019-03-30T14:49:03Z</time>
      </trkpt>
      <trkpt lat="49.24874" lon="4.014">
        <ele>126</ele>
        <time>2019-03-30T14:49:04Z</time>
      </trkpt>
      <trkpt lat="49.24874" lon="4.01397">
        <ele>126</ele>
        <time>2019-03-30T14:49:05Z</time>
      </trkpt>
      <trkpt lat="49.24873" lon="4.01394">
        <ele>127</ele>
        <time>2019-03-30T14:49:06Z</time>
      </trkpt>
      <trkpt lat="49.24872" lon="4.01392">
        <ele>127</ele>
        <time>2019-03-30T14:49:07Z</time>
      </trkpt>
      <trkpt lat="49.24872" lon="4.0139">
        <ele>127</ele>
        <time>2019-03-30T14:49:08Z</time>
      </trkpt>
      <trkpt lat="49.24872" lon="4.01387">
        <ele>126</ele>
        <time>2019-03-30T14:49:09Z</time>
      </trkpt>
      <trkpt lat="49.24872" lon="4.01384">
        <ele>126</ele>
        <time>2019-03-30T14:49:10Z</time>
      </trkpt>
      <trkpt lat="49.24871" lon="4.0138">
        <ele>125</ele>
        <time>2019-03-30T14:49:11Z</time>
      </trkpt>
      <trkpt lat="49.2487" lon="4.01376">
        <ele>125</ele>
        <time>2019-03-30T14:49:12Z</time>
      </trkpt>
      <trkpt lat="49.24869" lon="4.01371">
        <ele>124</ele>
        <time>2019-03-30T14:49:13Z</time>
      </trkpt>
      <trkpt lat="49.24868" lon="4.01366">
        <ele>124</ele>
        <time>2019-03-30T14:49:14Z</time>
      </trkpt>
      <trkpt lat="49.24867" lon="4.01362">
        <ele>125</ele>
        <time>2019-03-30T14:49:15Z</time>
      </trkpt>
      <trkpt lat="49.24866" lon="4.01358">
        <ele>126</ele>
        <time>2019-03-30T14:49:16Z</time>
      </trkpt>
      <trkpt lat="49.24865" lon="4.01353">
        <ele>126</ele>
        <time>2019-03-30T14:49:17Z</time>
      </trkpt>
      <trkpt lat="49.24865" lon="4.01349">
        <ele>126</ele>
        <time>2019-03-30T14:49:18Z</time>
      </trkpt>
      <trkpt lat="49.24864" lon="4.01345">
        <ele>126</ele>
        <time>2019-03-30T14:49:19Z</time>
      </trkpt>
      <trkpt lat="49.24863" lon="4.0134">
        <ele>125</ele>
        <time>2019-03-30T14:49:20Z</time>
      </trkpt>
      <trkpt lat="49.24864" lon="4.01334">
        <ele>126</ele>
        <time>2019-03-30T14:49:21Z</time>
      </trkpt>
      <trkpt lat="49.24863" lon="4.01329">
        <ele>125</ele>
        <time>2019-03-30T14:49:22Z</time>
      </trkpt>
      <trkpt lat="49.24862" lon="4.01324">
        <ele>126</ele>
        <time>2019-03-30T14:49:23Z</time>
      </trkpt>
      <trkpt lat="49.24861" lon="4.01318">
        <ele>126</ele>
        <time>2019-03-30T14:49:24Z</time>
      </trkpt>
      <trkpt lat="49.2486" lon="4.01311">
        <ele>125</ele>
        <time>2019-03-30T14:49:25Z</time>
      </trkpt>
      <trkpt lat="49.24859" lon="4.01305">
        <ele>125</ele>
        <time>2019-03-30T14:49:26Z</time>
      </trkpt>
      <trkpt lat="49.24856" lon="4.01299">
        <ele>125</ele>
        <time>2019-03-30T14:49:27Z</time>
      </trkpt>
      <trkpt lat="49.24853" lon="4.01294">
        <ele>125</ele>
        <time>2019-03-30T14:49:28Z</time>
      </trkpt>
      <trkpt lat="49.24851" lon="4.01289">
        <ele>125</ele>
        <time>2019-03-30T14:49:29Z</time>
      </trkpt>
      <trkpt lat="49.24848" lon="4.01284">
        <ele>124</ele>
        <time>2019-03-30T14:49:30Z</time>
      </trkpt>
      <trkpt lat="49.24846" lon="4.01281">
        <ele>125</ele>
        <time>2019-03-30T14:49:31Z</time>
      </trkpt>
      <trkpt lat="49.24843" lon="4.01279">
        <ele>126</ele>
        <time>2019-03-30T14:49:32Z</time>
      </trkpt>
      <trkpt lat="49.2484" lon="4.01278">
        <ele>127</ele>
        <time>2019-03-30T14:49:33Z</time>
      </trkpt>
      <trkpt lat="49.24837" lon="4.01276">
        <ele>128</ele>
        <time>2019-03-30T14:49:34Z</time>
      </trkpt>
      <trkpt lat="49.24834" lon="4.01274">
        <ele>128</ele>
        <time>2019-03-30T14:49:35Z</time>
      </trkpt>
      <trkpt lat="49.2483" lon="4.01274">
        <ele>128</ele>
        <time>2019-03-30T14:49:36Z</time>
      </trkpt>
      <trkpt lat="49.24827" lon="4.01273">
        <ele>129</ele>
        <time>2019-03-30T14:49:37Z</time>
      </trkpt>
      <trkpt lat="49.24823" lon="4.01272">
        <ele>129</ele>
        <time>2019-03-30T14:49:38Z</time>
      </trkpt>
      <trkpt lat="49.24818" lon="4.0127">
        <ele>129</ele>
        <time>2019-03-30T14:49:39Z</time>
      </trkpt>
      <trkpt lat="49.24814" lon="4.01269">
        <ele>129</ele>
        <time>2019-03-30T14:49:40Z</time>
      </trkpt>
      <trkpt lat="49.2481" lon="4.01268">
        <ele>128</ele>
        <time>2019-03-30T14:49:41Z</time>
      </trkpt>
      <trkpt lat="49.24807" lon="4.01267">
        <ele>128</ele>
        <time>2019-03-30T14:49:42Z</time>
      </trkpt>
      <trkpt lat="49.24803" lon="4.01266">
        <ele>128</ele>
        <time>2019-03-30T14:49:43Z</time>
      </trkpt>
      <trkpt lat="49.24799" lon="4.01265">
        <ele>128</ele>
        <time>2019-03-30T14:49:44Z</time>
      </trkpt>
      <trkpt lat="49.24796" lon="4.01264">
        <ele>128</ele>
        <time>2019-03-30T14:49:45Z</time>
      </trkpt>
      <trkpt lat="49.24792" lon="4.01263">
        <ele>128</ele>
        <time>2019-03-30T14:49:46Z</time>
      </trkpt>
      <trkpt lat="49.24788" lon="4.01262">
        <ele>128</ele>
        <time>2019-03-30T14:49:47Z</time>
      </trkpt>
      <trkpt lat="49.24785" lon="4.01262">
        <ele>128</ele>
        <time>2019-03-30T14:49:48Z</time>
      </trkpt>
      <trkpt lat="49.24781" lon="4.01261">
        <ele>128</ele>
        <time>2019-03-30T14:49:49Z</time>
      </trkpt>
      <trkpt lat="49.24778" lon="4.01261">
        <ele>128</ele>
        <time>2019-03-30T14:49:50Z</time>
      </trkpt>
      <trkpt lat="49.24775" lon="4.0126">
        <ele>128</ele>
        <time>2019-03-30T14:49:51Z</time>
      </trkpt>
      <trkpt lat="49.24772" lon="4.01259">
        <ele>128</ele>
        <time>2019-03-30T14:49:52Z</time>
      </trkpt>
      <trkpt lat="49.24769" lon="4.01258">
        <ele>128</ele>
        <time>2019-03-30T14:49:53Z</time>
      </trkpt>
      <trkpt lat="49.24766" lon="4.01258">
        <ele>129</ele>
        <time>2019-03-30T14:49:54Z</time>
      </trkpt>
      <trkpt lat="49.24763" lon="4.01257">
        <ele>129</ele>
        <time>2019-03-30T14:49:55Z</time>
      </trkpt>
      <trkpt lat="49.2476" lon="4.01256">
        <ele>129</ele>
        <time>2019-03-30T14:49:56Z</time>
      </trkpt>
      <trkpt lat="49.24757" lon="4.01256">
        <ele>129</ele>
        <time>2019-03-30T14:49:57Z</time>
      </trkpt>
      <trkpt lat="49.24754" lon="4.01256">
        <ele>129</ele>
        <time>2019-03-30T14:49:58Z</time>
      </trkpt>
      <trkpt lat="49.24751" lon="4.01256">
        <ele>129</ele>
        <time>2019-03-30T14:49:59Z</time>
      </trkpt>
      <trkpt lat="49.24747" lon="4.01256">
        <ele>129</ele>
        <time>2019-03-30T14:50:00Z</time>
      </trkpt>
      <trkpt lat="49.24744" lon="4.01255">
        <ele>129</ele>
        <time>2019-03-30T14:50:01Z</time>
      </trkpt>
      <trkpt lat="49.24741" lon="4.01255">
        <ele>129</ele>
        <time>2019-03-30T14:50:02Z</time>
      </trkpt>
      <trkpt lat="49.24738" lon="4.01254">
        <ele>129</ele>
        <time>2019-03-30T14:50:03Z</time>
      </trkpt>
      <trkpt lat="49.24735" lon="4.01254">
        <ele>129</ele>
        <time>2019-03-30T14:50:04Z</time>
      </trkpt>
      <trkpt lat="49.24732" lon="4.01254">
        <ele>129</ele>
        <time>2019-03-30T14:50:05Z</time>
      </trkpt>
      <trkpt lat="49.24729" lon="4.01254">
        <ele>129</ele>
        <time>2019-03-30T14:50:06Z</time>
      </trkpt>
      <trkpt lat="49.24726" lon="4.01254">
        <ele>129</ele>
        <time>2019-03-30T14:50:07Z</time>
      </trkpt>
      <trkpt lat="49.24723" lon="4.01254">
        <ele>129</ele>
        <time>2019-03-30T14:50:08Z</time>
      </trkpt>
      <trkpt lat="49.2472" lon="4.01253">
        <ele>129</ele>
        <time>2019-03-30T14:50:09Z</time>
      </trkpt>
      <trkpt lat="49.24717" lon="4.01253">
        <ele>129</ele>
        <time>2019-03-30T14:50:10Z</time>
      </trkpt>
      <trkpt lat="49.24714" lon="4.01252">
        <ele>129</ele>
        <time>2019-03-30T14:50:11Z</time>
      </trkpt>
      <trkpt lat="49.24711" lon="4.01252">
        <ele>129</ele>
        <time>2019-03-30T14:50:12Z</time>
      </trkpt>
      <trkpt lat="49.24708" lon="4.01252">
        <ele>129</ele>
        <time>2019-03-30T14:50:13Z</time>
      </trkpt>
      <trkpt lat="49.24705" lon="4.01251">
        <ele>129</ele>
        <time>2019-03-30T14:50:14Z</time>
      </trkpt>
      <trkpt lat="49.24702" lon="4.01252">
        <ele>130</ele>
        <time>2019-03-30T14:50:15Z</time>
      </trkpt>
      <trkpt lat="49.24699" lon="4.01252">
        <ele>130</ele>
        <time>2019-03-30T14:50:16Z</time>
      </trkpt>
      <trkpt lat="49.24696" lon="4.01252">
        <ele>130</ele>
        <time>2019-03-30T14:50:17Z</time>
      </trkpt>
      <trkpt lat="49.24693" lon="4.01252">
        <ele>130</ele>
        <time>2019-03-30T14:50:18Z</time>
      </trkpt>
      <trkpt lat="49.2469" lon="4.01251">
        <ele>130</ele>
        <time>2019-03-30T14:50:19Z</time>
      </trkpt>
      <trkpt lat="49.24687" lon="4.01251">
        <ele>130</ele>
        <time>2019-03-30T14:50:20Z</time>
      </trkpt>
      <trkpt lat="49.24684" lon="4.01251">
        <ele>130</ele>
        <time>2019-03-30T14:50:21Z</time>
      </trkpt>
      <trkpt lat="49.24681" lon="4.01251">
        <ele>131</ele>
        <time>2019-03-30T14:50:22Z</time>
      </trkpt>
      <trkpt lat="49.24678" lon="4.01251">
        <ele>131</ele>
        <time>2019-03-30T14:50:23Z</time>
      </trkpt>
      <trkpt lat="49.24675" lon="4.01251">
        <ele>131</ele>
        <time>2019-03-30T14:50:24Z</time>
      </trkpt>
      <trkpt lat="49.24672" lon="4.01251">
        <ele>131</ele>
        <time>2019-03-30T14:50:25Z</time>
      </trkpt>
      <trkpt lat="49.24669" lon="4.0125">
        <ele>131</ele>
        <time>2019-03-30T14:50:26Z</time>
      </trkpt>
      <trkpt lat="49.24666" lon="4.0125">
        <ele>131</ele>
        <time>2019-03-30T14:50:27Z</time>
      </trkpt>
      <trkpt lat="49.24662" lon="4.0125">
        <ele>131</ele>
        <time>2019-03-30T14:50:28Z</time>
      </trkpt>
      <trkpt lat="49.24659" lon="4.01249">
        <ele>131</ele>
        <time>2019-03-30T14:50:29Z</time>
      </trkpt>
      <trkpt lat="49.24656" lon="4.01249">
        <ele>131</ele>
        <time>2019-03-30T14:50:30Z</time>
      </trkpt>
      <trkpt lat="49.24653" lon="4.01249">
        <ele>131</ele>
        <time>2019-03-30T14:50:31Z</time>
      </trkpt>
      <trkpt lat="49.2465" lon="4.01248">
        <ele>131</ele>
        <time>2019-03-30T14:50:32Z</time>
      </trkpt>
      <trkpt lat="49.24647" lon="4.01248">
        <ele>131</ele>
        <time>2019-03-30T14:50:33Z</time>
      </trkpt>
      <trkpt lat="49.24644" lon="4.01249">
        <ele>131</ele>
        <time>2019-03-30T14:50:34Z</time>
      </trkpt>
      <trkpt lat="49.24641" lon="4.01249">
        <ele>131</ele>
        <time>2019-03-30T14:50:35Z</time>
      </trkpt>
      <trkpt lat="49.24638" lon="4.01249">
        <ele>131</ele>
        <time>2019-03-30T14:50:36Z</time>
      </trkpt>
      <trkpt lat="49.24635" lon="4.01248">
        <ele>131</ele>
        <time>2019-03-30T14:50:37Z</time>
      </trkpt>
      <trkpt lat="49.24633" lon="4.01248">
        <ele>131</ele>
        <time>2019-03-30T14:50:38Z</time>
      </trkpt>
      <trkpt lat="49.2463" lon="4.01248">
        <ele>131</ele>
        <time>2019-03-30T14:50:39Z</time>
      </trkpt>
      <trkpt lat="49.24627" lon="4.01247">
        <ele>131</ele>
        <time>2019-03-30T14:50:40Z</time>
      </trkpt>
      <trkpt lat="49.24624" lon="4.01247">
        <ele>131</ele>
        <time>2019-03-30T14:50:41Z</time>
      </trkpt>
      <trkpt lat="49.2462" lon="4.01248">
        <ele>131</ele>
        <time>2019-03-30T14:50:42Z</time>
      </trkpt>
      <trkpt lat="49.24617" lon="4.01248">
        <ele>131</ele>
        <time>2019-03-30T14:50:43Z</time>
      </trkpt>
      <trkpt lat="49.24615" lon="4.01248">
        <ele>131</ele>
        <time>2019-03-30T14:50:44Z</time>
      </trkpt>
      <trkpt lat="49.24611" lon="4.01248">
        <ele>132</ele>
        <time>2019-03-30T14:50:45Z</time>
      </trkpt>
      <trkpt lat="49.24608" lon="4.01248">
        <ele>132</ele>
        <time>2019-03-30T14:50:46Z</time>
      </trkpt>
      <trkpt lat="49.24606" lon="4.01249">
        <ele>132</ele>
        <time>2019-03-30T14:50:47Z</time>
      </trkpt>
      <trkpt lat="49.24604" lon="4.01248">
        <ele>132</ele>
        <time>2019-03-30T14:50:48Z</time>
      </trkpt>
      <trkpt lat="49.24602" lon="4.01245">
        <ele>132</ele>
        <time>2019-03-30T14:50:49Z</time>
      </trkpt>
      <trkpt lat="49.24601" lon="4.01241">
        <ele>133</ele>
        <time>2019-03-30T14:50:50Z</time>
      </trkpt>
      <trkpt lat="49.24601" lon="4.01237">
        <ele>133</ele>
        <time>2019-03-30T14:50:51Z</time>
      </trkpt>
      <trkpt lat="49.24602" lon="4.01234">
        <ele>133</ele>
        <time>2019-03-30T14:50:52Z</time>
      </trkpt>
      <trkpt lat="49.24602" lon="4.01231">
        <ele>133</ele>
        <time>2019-03-30T14:50:53Z</time>
      </trkpt>
      <trkpt lat="49.24601" lon="4.01228">
        <ele>133</ele>
        <time>2019-03-30T14:50:54Z</time>
      </trkpt>
      <trkpt lat="49.24599" lon="4.01228">
        <ele>133</ele>
        <time>2019-03-30T14:50:55Z</time>
      </trkpt>
      <trkpt lat="49.24597" lon="4.01228">
        <ele>133</ele>
        <time>2019-03-30T14:50:56Z</time>
      </trkpt>
      <trkpt lat="49.24595" lon="4.01228">
        <ele>134</ele>
        <time>2019-03-30T14:50:57Z</time>
      </trkpt>
      <trkpt lat="49.24593" lon="4.01228">
        <ele>133</ele>
        <time>2019-03-30T14:50:58Z</time>
      </trkpt>
      <trkpt lat="49.24591" lon="4.01229">
        <ele>134</ele>
        <time>2019-03-30T14:50:59Z</time>
      </trkpt>
      <trkpt lat="49.24588" lon="4.01229">
        <ele>134</ele>
        <time>2019-03-30T14:51:00Z</time>
      </trkpt>
      <trkpt lat="49.24586" lon="4.01229">
        <ele>134</ele>
        <time>2019-03-30T14:51:01Z</time>
      </trkpt>
      <trkpt lat="49.24584" lon="4.01229">
        <ele>134</ele>
        <time>2019-03-30T14:51:02Z</time>
      </trkpt>
      <trkpt lat="49.24581" lon="4.01229">
        <ele>134</ele>
        <time>2019-03-30T14:51:03Z</time>
      </trkpt>
      <trkpt lat="49.24578" lon="4.0123">
        <ele>135</ele>
        <time>2019-03-30T14:51:04Z</time>
      </trkpt>
      <trkpt lat="49.24576" lon="4.0123">
        <ele>135</ele>
        <time>2019-03-30T14:51:05Z</time>
      </trkpt>
      <trkpt lat="49.24573" lon="4.01231">
        <ele>135</ele>
        <time>2019-03-30T14:51:06Z</time>
      </trkpt>
      <trkpt lat="49.24571" lon="4.01231">
        <ele>135</ele>
        <time>2019-03-30T14:51:07Z</time>
      </trkpt>
      <trkpt lat="49.24568" lon="4.01232">
        <ele>135</ele>
        <time>2019-03-30T14:51:08Z</time>
      </trkpt>
      <trkpt lat="49.24565" lon="4.01233">
        <ele>135</ele>
        <time>2019-03-30T14:51:09Z</time>
      </trkpt>
      <trkpt lat="49.24562" lon="4.01233">
        <ele>135</ele>
        <time>2019-03-30T14:51:10Z</time>
      </trkpt>
      <trkpt lat="49.2456" lon="4.01233">
        <ele>135</ele>
        <time>2019-03-30T14:51:11Z</time>
      </trkpt>
      <trkpt lat="49.24557" lon="4.01232">
        <ele>135</ele>
        <time>2019-03-30T14:51:12Z</time>
      </trkpt>
      <trkpt lat="49.24555" lon="4.01232">
        <ele>135</ele>
        <time>2019-03-30T14:51:13Z</time>
      </trkpt>
      <trkpt lat="49.24552" lon="4.01233">
        <ele>136</ele>
        <time>2019-03-30T14:51:14Z</time>
      </trkpt>
      <trkpt lat="49.2455" lon="4.0123">
        <ele>136</ele>
        <time>2019-03-30T14:51:15Z</time>
      </trkpt>
      <trkpt lat="49.24548" lon="4.01228">
        <ele>136</ele>
        <time>2019-03-30T14:51:16Z</time>
      </trkpt>
      <trkpt lat="49.24547" lon="4.01227">
        <ele>136</ele>
        <time>2019-03-30T14:51:17Z</time>
      </trkpt>
      <trkpt lat="49.24544" lon="4.01226">
        <ele>136</ele>
        <time>2019-03-30T14:51:18Z</time>
      </trkpt>
      <trkpt lat="49.24541" lon="4.01225">
        <ele>136</ele>
        <time>2019-03-30T14:51:19Z</time>
      </trkpt>
      <trkpt lat="49.24539" lon="4.01223">
        <ele>137</ele>
        <time>2019-03-30T14:51:20Z</time>
      </trkpt>
      <trkpt lat="49.24537" lon="4.01222">
        <ele>137</ele>
        <time>2019-03-30T14:51:21Z</time>
      </trkpt>
      <trkpt lat="49.24534" lon="4.01221">
        <ele>137</ele>
        <time>2019-03-30T14:51:22Z</time>
      </trkpt>
      <trkpt lat="49.24533" lon="4.0122">
        <ele>138</ele>
        <time>2019-03-30T14:51:23Z</time>
      </trkpt>
      <trkpt lat="49.24532" lon="4.01219">
        <ele>138</ele>
        <time>2019-03-30T14:51:24Z</time>
      </trkpt>
      <trkpt lat="49.2453" lon="4.01217">
        <ele>138</ele>
        <time>2019-03-30T14:51:25Z</time>
      </trkpt>
      <trkpt lat="49.24528" lon="4.01215">
        <ele>138</ele>
        <time>2019-03-30T14:51:26Z</time>
      </trkpt>
      <trkpt lat="49.24527" lon="4.01214">
        <ele>139</ele>
        <time>2019-03-30T14:51:27Z</time>
      </trkpt>
      <trkpt lat="49.24525" lon="4.01213">
        <ele>139</ele>
        <time>2019-03-30T14:51:28Z</time>
      </trkpt>
      <trkpt lat="49.24524" lon="4.01213">
        <ele>139</ele>
        <time>2019-03-30T14:51:29Z</time>
      </trkpt>
      <trkpt lat="49.24521" lon="4.01212">
        <ele>139</ele>
        <time>2019-03-30T14:51:30Z</time>
      </trkpt>
      <trkpt lat="49.2452" lon="4.01209">
        <ele>139</ele>
        <time>2019-03-30T14:51:31Z</time>
      </trkpt>
      <trkpt lat="49.24518" lon="4.01206">
        <ele>139</ele>
        <time>2019-03-30T14:51:32Z</time>
      </trkpt>
      <trkpt lat="49.24516" lon="4.01204">
        <ele>139</ele>
        <time>2019-03-30T14:51:33Z</time>
      </trkpt>
      <trkpt lat="49.24515" lon="4.01202">
        <ele>139</ele>
        <time>2019-03-30T14:51:34Z</time>
      </trkpt>
      <trkpt lat="49.24512" lon="4.012">
        <ele>139</ele>
        <time>2019-03-30T14:51:35Z</time>
      </trkpt>
      <trkpt lat="49.24511" lon="4.01199">
        <ele>139</ele>
        <time>2019-03-30T14:51:36Z</time>
      </trkpt>
      <trkpt lat="49.24509" lon="4.01198">
        <ele>139</ele>
        <time>2019-03-30T14:51:37Z</time>
      </trkpt>
      <trkpt lat="49.24509" lon="4.01198">
        <ele>139</ele>
        <time>2019-03-30T14:51:38Z</time>
      </trkpt>
      <trkpt lat="49.2451" lon="4.01199">
        <ele>139</ele>
        <time>2019-03-30T14:51:39Z</time>
      </trkpt>
      <trkpt lat="49.24511" lon="4.01199">
        <ele>139</ele>
        <time>2019-03-30T14:51:40Z</time>
      </trkpt>
      <trkpt lat="49.24511" lon="4.01198">
        <ele>138</ele>
        <time>2019-03-30T14:51:41Z</time>
      </trkpt>
      <trkpt lat="49.24511" lon="4.01198">
        <ele>138</ele>
        <time>2019-03-30T14:51:42Z</time>
      </trkpt>
      <trkpt lat="49.24511" lon="4.01198">
        <ele>138</ele>
        <time>2019-03-30T14:51:43Z</time>
      </trkpt>
      <trkpt lat="49.24511" lon="4.01198">
        <ele>138</ele>
        <time>2019-03-30T14:51:44Z</time>
      </trkpt>
      <trkpt lat="49.24511" lon="4.01198">
        <ele>138</ele>
        <time>2019-03-30T14:51:45Z</time>
      </trkpt>
      <trkpt lat="49.24511" lon="4.01198">
        <ele>138</ele>
        <time>2019-03-30T14:51:46Z</time>
      </trkpt>
      <trkpt lat="49.24511" lon="4.01198">
        <ele>138</ele>
        <time>2019-03-30T14:51:47Z</time>
      </trkpt>
      <trkpt lat="49.24511" lon="4.01198">
        <ele>138</ele>
        <time>2019-03-30T14:51:48Z</time>
      </trkpt>
      <trkpt lat="49.24511" lon="4.01198">
        <ele>138</ele>
        <time>2019-03-30T14:51:49Z</time>
      </trkpt>
      <trkpt lat="49.24511" lon="4.01198">
        <ele>138</ele>
        <time>2019-03-30T14:51:50Z</time>
      </trkpt>
      <trkpt lat="49.24511" lon="4.01198">
        <ele>138</ele>
        <time>2019-03-30T14:51:51Z</time>
      </trkpt>
      <trkpt lat="49.24511" lon="4.01198">
        <ele>138</ele>
        <time>2019-03-30T14:51:52Z</time>
      </trkpt>
      <trkpt lat="49.24511" lon="4.01198">
        <ele>138</ele>
        <time>2019-03-30T14:51:53Z</time>
      </trkpt>
      <trkpt lat="49.24511" lon="4.01198">
        <ele>138</ele>
        <time>2019-03-30T14:51:54Z</time>
      </trkpt>
      <trkpt lat="49.24511" lon="4.01198">
        <ele>138</ele>
        <time>2019-03-30T14:51:55Z</time>
      </trkpt>
      <trkpt lat="49.24511" lon="4.01198">
        <ele>138</ele>
        <time>2019-03-30T14:51:56Z</time>
      </trkpt>
      <trkpt lat="49.24511" lon="4.01198">
        <ele>138</ele>
        <time>2019-03-30T14:51:57Z</time>
      </trkpt>
      <trkpt lat="49.24511" lon="4.01198">
        <ele>138</ele>
        <time>2019-03-30T14:51:58Z</time>
      </trkpt>
      <trkpt lat="49.24511" lon="4.01198">
        <ele>138</ele>
        <time>2019-03-30T14:51:59Z</time>
      </trkpt>
      <trkpt lat="49.24511" lon="4.01198">
        <ele>138</ele>
        <time>2019-03-30T14:52:00Z</time>
      </trkpt>
      <trkpt lat="49.24511" lon="4.01198">
        <ele>138</ele>
        <time>2019-03-30T14:52:01Z</time>
      </trkpt>
      <trkpt lat="49.24511" lon="4.01199">
        <ele>138</ele>
        <time>2019-03-30T14:52:02Z</time>
      </trkpt>
      <trkpt lat="49.24511" lon="4.012">
        <ele>137</ele>
        <time>2019-03-30T14:52:03Z</time>
      </trkpt>
      <trkpt lat="49.2451" lon="4.012">
        <ele>137</ele>
        <time>2019-03-30T14:52:04Z</time>
      </trkpt>
      <trkpt lat="49.2451" lon="4.01201">
        <ele>137</ele>
        <time>2019-03-30T14:52:05Z</time>
      </trkpt>
      <trkpt lat="49.2451" lon="4.01202">
        <ele>137</ele>
        <time>2019-03-30T14:52:06Z</time>
      </trkpt>
      <trkpt lat="49.2451" lon="4.01204">
        <ele>137</ele>
        <time>2019-03-30T14:52:07Z</time>
      </trkpt>
      <trkpt lat="49.24509" lon="4.01205">
        <ele>137</ele>
        <time>2019-03-30T14:52:08Z</time>
      </trkpt>
      <trkpt lat="49.24509" lon="4.01205">
        <ele>137</ele>
        <time>2019-03-30T14:52:09Z</time>
      </trkpt>
      <trkpt lat="49.24509" lon="4.01205">
        <ele>137</ele>
        <time>2019-03-30T14:52:10Z</time>
      </trkpt>
      <trkpt lat="49.24509" lon="4.01205">
        <ele>137</ele>
        <time>2019-03-30T14:52:11Z</time>
      </trkpt>
      <trkpt lat="49.2451" lon="4.01206">
        <ele>137</ele>
        <time>2019-03-30T14:52:12Z</time>
      </trkpt>
      <trkpt lat="49.2451" lon="4.01206">
        <ele>137</ele>
        <time>2019-03-30T14:52:13Z</time>
      </trkpt>
      <trkpt lat="49.2451" lon="4.01207">
        <ele>137</ele>
        <time>2019-03-30T14:52:14Z</time>
      </trkpt>
      <trkpt lat="49.2451" lon="4.01208">
        <ele>137</ele>
        <time>2019-03-30T14:52:15Z</time>
      </trkpt>
      <trkpt lat="49.24511" lon="4.01209">
        <ele>137</ele>
        <time>2019-03-30T14:52:16Z</time>
      </trkpt>
      <trkpt lat="49.24512" lon="4.01209">
        <ele>137</ele>
        <time>2019-03-30T14:52:17Z</time>
      </trkpt>
      <trkpt lat="49.24512" lon="4.01207">
        <ele>138</ele>
        <time>2019-03-30T14:52:18Z</time>
      </trkpt>
      <trkpt lat="49.24511" lon="4.01206">
        <ele>138</ele>
        <time>2019-03-30T14:52:19Z</time>
      </trkpt>
      <trkpt lat="49.24511" lon="4.01207">
        <ele>138</ele>
        <time>2019-03-30T14:52:20Z</time>
      </trkpt>
      <trkpt lat="49.24511" lon="4.01208">
        <ele>138</ele>
        <time>2019-03-30T14:52:21Z</time>
      </trkpt>
      <trkpt lat="49.24513" lon="4.0121">
        <ele>139</ele>
        <time>2019-03-30T14:52:23Z</time>
      </trkpt>
      <trkpt lat="49.24514" lon="4.0121">
        <ele>139</ele>
        <time>2019-03-30T14:52:24Z</time>
      </trkpt>
      <trkpt lat="49.24513" lon="4.01207">
        <ele>138</ele>
        <time>2019-03-30T14:52:25Z</time>
      </trkpt>
      <trkpt lat="49.24512" lon="4.01205">
        <ele>138</ele>
        <time>2019-03-30T14:52:26Z</time>
      </trkpt>
      <trkpt lat="49.24512" lon="4.01201">
        <ele>138</ele>
        <time>2019-03-30T14:52:27Z</time>
      </trkpt>
      <trkpt lat="49.2451" lon="4.01198">
        <ele>138</ele>
        <time>2019-03-30T14:52:28Z</time>
      </trkpt>
      <trkpt lat="49.2451" lon="4.01198">
        <ele>138</ele>
        <time>2019-03-30T14:52:29Z</time>
      </trkpt>
      <trkpt lat="49.2451" lon="4.01198">
        <ele>138</ele>
        <time>2019-03-30T14:52:30Z</time>
      </trkpt>
      <trkpt lat="49.2451" lon="4.01198">
        <ele>138</ele>
        <time>2019-03-30T14:52:31Z</time>
      </trkpt>
      <trkpt lat="49.24511" lon="4.01199">
        <ele>146</ele>
        <time>2019-03-30T14:53:10Z</time>
      </trkpt>
      <trkpt lat="49.24511" lon="4.01199">
        <ele>146</ele>
        <time>2019-03-30T14:53:11Z</time>
      </trkpt>
      <trkpt lat="49.24511" lon="4.01199">
        <ele>146</ele>
        <time>2019-03-30T14:53:12Z</time>
      </trkpt>
      <trkpt lat="49.24515" lon="4.01194">
        <ele>140</ele>
        <time>2019-03-30T14:53:13Z</time>
      </trkpt>
      <trkpt lat="49.24516" lon="4.01193">
        <ele>139</ele>
        <time>2019-03-30T14:53:14Z</time>
      </trkpt>
      <trkpt lat="49.24518" lon="4.01193">
        <ele>140</ele>
        <time>2019-03-30T14:53:15Z</time>
      </trkpt>
      <trkpt lat="49.24519" lon="4.01192">
        <ele>138</ele>
        <time>2019-03-30T14:53:16Z</time>
      </trkpt>
      <trkpt lat="49.24519" lon="4.01192">
        <ele>138</ele>
        <time>2019-03-30T14:53:17Z</time>
      </trkpt>
      <trkpt lat="49.24519" lon="4.01192">
        <ele>138</ele>
        <time>2019-03-30T14:53:18Z</time>
      </trkpt>
    </trkseg>
  </trk>
</gpx>